<?xml version='1.0' encoding='UTF-8'?><gpx version="1.1" creator="JPX - https://github.com/jenetics/jpx" xmlns="http://www.topografix.com/GPX/1/1"><trk><trkseg><trkpt lat="43.8340467" lon="11.9600883"><ele>496.99999999999994</ele><time>2026-04-22T08:04:04.719Z</time></trkpt><trkpt lat="43.8340067" lon="11.9601633"><ele>497.0</ele><time>2026-04-22T08:04:16.719Z</time></trkpt><trkpt lat="43.833935" lon="11.9601333"><ele>497.0</ele><time>2026-04-22T08:04:30.719Z</time></trkpt><trkpt lat="43.8338517" lon="11.9600933"><ele>497.0</ele><time>2026-04-22T08:04:33.719Z</time></trkpt><trkpt lat="43.8337933" lon="11.9600567"><ele>496.99999999999994</ele><time>2026-04-22T08:04:35.72Z</time></trkpt><trkpt lat="43.8336783" lon="11.95995"><ele>497.0</ele><time>2026-04-22T08:04:37.719Z</time></trkpt><trkpt lat="43.8336167" lon="11.9598933"><ele>497.3333333333333</ele><time>2026-04-22T08:04:38.72Z</time></trkpt><trkpt lat="43.8335517" lon="11.95984"><ele>497.66666666666663</ele><time>2026-04-22T08:04:39.719Z</time></trkpt><trkpt lat="43.833485" lon="11.9597883"><ele>498.0</ele><time>2026-04-22T08:04:40.719Z</time></trkpt><trkpt lat="43.83343" lon="11.9597383"><ele>498.33333333333337</ele><time>2026-04-22T08:04:41.719Z</time></trkpt><trkpt lat="43.83337" lon="11.9597"><ele>498.6666666666667</ele><time>2026-04-22T08:04:42.72Z</time></trkpt><trkpt lat="43.8332733" lon="11.9596183"><ele>499.0</ele><time>2026-04-22T08:04:44.719Z</time></trkpt><trkpt lat="43.8331833" lon="11.9595167"><ele>499.0</ele><time>2026-04-22T08:04:46.719Z</time></trkpt><trkpt lat="43.8331033" lon="11.9594"><ele>499.0</ele><time>2026-04-22T08:04:48.719Z</time></trkpt><trkpt lat="43.8330267" lon="11.959265"><ele>499.0</ele><time>2026-04-22T08:04:50.719Z</time></trkpt><trkpt lat="43.83297" lon="11.9591083"><ele>499.0</ele><time>2026-04-22T08:04:52.719Z</time></trkpt><trkpt lat="43.8329383" lon="11.9590317"><ele>499.0</ele><time>2026-04-22T08:04:53.719Z</time></trkpt><trkpt lat="43.8329067" lon="11.9589483"><ele>497.79999999999995</ele><time>2026-04-22T08:04:54.719Z</time></trkpt><trkpt lat="43.8328567" lon="11.9588083"><ele>496.59999999999997</ele><time>2026-04-22T08:04:56.72Z</time></trkpt><trkpt lat="43.8328267" lon="11.95873"><ele>495.4</ele><time>2026-04-22T08:04:57.719Z</time></trkpt><trkpt lat="43.8328" lon="11.95865"><ele>494.2</ele><time>2026-04-22T08:04:58.719Z</time></trkpt><trkpt lat="43.8327567" lon="11.9584667"><ele>493.0</ele><time>2026-04-22T08:05:00.719Z</time></trkpt><trkpt lat="43.8327283" lon="11.9583733"><ele>493.00000000000006</ele><time>2026-04-22T08:05:01.719Z</time></trkpt><trkpt lat="43.8327" lon="11.95828"><ele>493.0</ele><time>2026-04-22T08:05:02.719Z</time></trkpt><trkpt lat="43.8326767" lon="11.958195"><ele>493.0</ele><time>2026-04-22T08:05:03.719Z</time></trkpt><trkpt lat="43.8326533" lon="11.95811"><ele>493.0</ele><time>2026-04-22T08:05:04.719Z</time></trkpt><trkpt lat="43.832625" lon="11.9580233"><ele>493.00000000000006</ele><time>2026-04-22T08:05:05.72Z</time></trkpt><trkpt lat="43.8326033" lon="11.95794"><ele>493.0</ele><time>2026-04-22T08:05:06.719Z</time></trkpt><trkpt lat="43.8325483" lon="11.9577933"><ele>493.0</ele><time>2026-04-22T08:05:08.719Z</time></trkpt><trkpt lat="43.8325167" lon="11.9577117"><ele>493.0</ele><time>2026-04-22T08:05:09.72Z</time></trkpt><trkpt lat="43.8324833" lon="11.9576333"><ele>493.0</ele><time>2026-04-22T08:05:10.719Z</time></trkpt><trkpt lat="43.832445" lon="11.957555"><ele>493.0</ele><time>2026-04-22T08:05:11.719Z</time></trkpt><trkpt lat="43.8324033" lon="11.95747"><ele>493.0</ele><time>2026-04-22T08:05:12.719Z</time></trkpt><trkpt lat="43.832355" lon="11.9573783"><ele>493.0</ele><time>2026-04-22T08:05:13.719Z</time></trkpt><trkpt lat="43.8323117" lon="11.9572867"><ele>493.0</ele><time>2026-04-22T08:05:14.719Z</time></trkpt><trkpt lat="43.8322717" lon="11.9571917"><ele>493.00000000000006</ele><time>2026-04-22T08:05:15.719Z</time></trkpt><trkpt lat="43.83224" lon="11.9570883"><ele>493.0</ele><time>2026-04-22T08:05:16.72Z</time></trkpt><trkpt lat="43.8322067" lon="11.9569883"><ele>493.0</ele><time>2026-04-22T08:05:17.719Z</time></trkpt><trkpt lat="43.8321633" lon="11.9569083"><ele>493.0</ele><time>2026-04-22T08:05:18.719Z</time></trkpt><trkpt lat="43.8321217" lon="11.956835"><ele>493.00000000000006</ele><time>2026-04-22T08:05:19.719Z</time></trkpt><trkpt lat="43.832085" lon="11.9567567"><ele>493.0</ele><time>2026-04-22T08:05:20.719Z</time></trkpt><trkpt lat="43.832035" lon="11.956625"><ele>493.50000000000006</ele><time>2026-04-22T08:05:22.719Z</time></trkpt><trkpt lat="43.831995" lon="11.95653"><ele>494.0</ele><time>2026-04-22T08:05:24.719Z</time></trkpt><trkpt lat="43.83195" lon="11.9564233"><ele>494.5</ele><time>2026-04-22T08:05:27.719Z</time></trkpt><trkpt lat="43.831895" lon="11.956325"><ele>495.0</ele><time>2026-04-22T08:05:29.719Z</time></trkpt><trkpt lat="43.8318133" lon="11.9562167"><ele>495.50000000000006</ele><time>2026-04-22T08:05:31.719Z</time></trkpt><trkpt lat="43.83177" lon="11.9561533"><ele>496.0</ele><time>2026-04-22T08:05:32.719Z</time></trkpt><trkpt lat="43.831715" lon="11.9561"><ele>496.0</ele><time>2026-04-22T08:05:33.72Z</time></trkpt><trkpt lat="43.831655" lon="11.9560433"><ele>496.00000000000006</ele><time>2026-04-22T08:05:34.719Z</time></trkpt><trkpt lat="43.8315967" lon="11.955995"><ele>496.0</ele><time>2026-04-22T08:05:35.72Z</time></trkpt><trkpt lat="43.8315417" lon="11.9559333"><ele>496.0</ele><time>2026-04-22T08:05:36.719Z</time></trkpt><trkpt lat="43.83148" lon="11.9558733"><ele>496.00000000000006</ele><time>2026-04-22T08:05:37.718Z</time></trkpt><trkpt lat="43.8314133" lon="11.95581"><ele>496.0</ele><time>2026-04-22T08:05:38.719Z</time></trkpt><trkpt lat="43.8313433" lon="11.9557517"><ele>496.0</ele><time>2026-04-22T08:05:39.719Z</time></trkpt><trkpt lat="43.8312633" lon="11.9557"><ele>496.00000000000006</ele><time>2026-04-22T08:05:40.719Z</time></trkpt><trkpt lat="43.8311833" lon="11.9556483"><ele>496.0</ele><time>2026-04-22T08:05:41.719Z</time></trkpt><trkpt lat="43.8310967" lon="11.9556133"><ele>496.0</ele><time>2026-04-22T08:05:42.72Z</time></trkpt><trkpt lat="43.8310133" lon="11.955585"><ele>496.0</ele><time>2026-04-22T08:05:43.719Z</time></trkpt><trkpt lat="43.83093" lon="11.9555683"><ele>496.00000000000006</ele><time>2026-04-22T08:05:44.719Z</time></trkpt><trkpt lat="43.83085" lon="11.95556"><ele>496.0</ele><time>2026-04-22T08:05:45.719Z</time></trkpt><trkpt lat="43.8307683" lon="11.9555617"><ele>496.00000000000006</ele><time>2026-04-22T08:05:46.719Z</time></trkpt><trkpt lat="43.83069" lon="11.95557"><ele>496.0</ele><time>2026-04-22T08:05:47.719Z</time></trkpt><trkpt lat="43.830615" lon="11.9555917"><ele>496.0</ele><time>2026-04-22T08:05:48.719Z</time></trkpt><trkpt lat="43.8305433" lon="11.9556283"><ele>496.0</ele><time>2026-04-22T08:05:49.719Z</time></trkpt><trkpt lat="43.8304717" lon="11.9556717"><ele>496.00000000000006</ele><time>2026-04-22T08:05:50.719Z</time></trkpt><trkpt lat="43.8304" lon="11.955725"><ele>496.0</ele><time>2026-04-22T08:05:51.719Z</time></trkpt><trkpt lat="43.8303333" lon="11.955785"><ele>496.00000000000006</ele><time>2026-04-22T08:05:52.719Z</time></trkpt><trkpt lat="43.83027" lon="11.9558617"><ele>496.0</ele><time>2026-04-22T08:05:53.719Z</time></trkpt><trkpt lat="43.8302083" lon="11.9559433"><ele>496.0</ele><time>2026-04-22T08:05:54.72Z</time></trkpt><trkpt lat="43.83015" lon="11.9560383"><ele>496.0</ele><time>2026-04-22T08:05:55.72Z</time></trkpt><trkpt lat="43.8300867" lon="11.9561333"><ele>496.00000000000006</ele><time>2026-04-22T08:05:56.719Z</time></trkpt><trkpt lat="43.8300317" lon="11.9562417"><ele>496.0</ele><time>2026-04-22T08:05:57.719Z</time></trkpt><trkpt lat="43.8299783" lon="11.9563533"><ele>496.6</ele><time>2026-04-22T08:05:58.719Z</time></trkpt><trkpt lat="43.8299217" lon="11.9564667"><ele>497.20000000000005</ele><time>2026-04-22T08:05:59.719Z</time></trkpt><trkpt lat="43.8298617" lon="11.95658"><ele>497.79999999999995</ele><time>2026-04-22T08:06:00.719Z</time></trkpt><trkpt lat="43.8298017" lon="11.9567"><ele>498.4</ele><time>2026-04-22T08:06:01.72Z</time></trkpt><trkpt lat="43.8297417" lon="11.9568233"><ele>499.0</ele><time>2026-04-22T08:06:02.719Z</time></trkpt><trkpt lat="43.8296883" lon="11.9569533"><ele>499.0</ele><time>2026-04-22T08:06:03.719Z</time></trkpt><trkpt lat="43.82964" lon="11.9570833"><ele>499.0</ele><time>2026-04-22T08:06:04.72Z</time></trkpt><trkpt lat="43.8296" lon="11.9572083"><ele>499.0</ele><time>2026-04-22T08:06:05.719Z</time></trkpt><trkpt lat="43.82956" lon="11.9573367"><ele>499.0</ele><time>2026-04-22T08:06:06.719Z</time></trkpt><trkpt lat="43.8295233" lon="11.9574717"><ele>499.0</ele><time>2026-04-22T08:06:07.719Z</time></trkpt><trkpt lat="43.8294867" lon="11.9576"><ele>499.0</ele><time>2026-04-22T08:06:08.72Z</time></trkpt><trkpt lat="43.8294417" lon="11.95773"><ele>499.0</ele><time>2026-04-22T08:06:09.719Z</time></trkpt><trkpt lat="43.8294017" lon="11.9578383"><ele>499.0</ele><time>2026-04-22T08:06:10.719Z</time></trkpt><trkpt lat="43.82934" lon="11.9579517"><ele>499.0</ele><time>2026-04-22T08:06:11.719Z</time></trkpt><trkpt lat="43.8292733" lon="11.9580417"><ele>499.0</ele><time>2026-04-22T08:06:12.72Z</time></trkpt><trkpt lat="43.8291917" lon="11.9581"><ele>499.0</ele><time>2026-04-22T08:06:13.719Z</time></trkpt><trkpt lat="43.8290983" lon="11.9581583"><ele>499.0</ele><time>2026-04-22T08:06:14.719Z</time></trkpt><trkpt lat="43.8289983" lon="11.9582267"><ele>499.0</ele><time>2026-04-22T08:06:15.719Z</time></trkpt><trkpt lat="43.8288883" lon="11.958305"><ele>499.0</ele><time>2026-04-22T08:06:16.72Z</time></trkpt><trkpt lat="43.82878" lon="11.95839"><ele>499.25</ele><time>2026-04-22T08:06:17.72Z</time></trkpt><trkpt lat="43.8286717" lon="11.95847"><ele>499.5</ele><time>2026-04-22T08:06:18.719Z</time></trkpt><trkpt lat="43.8285633" lon="11.958555"><ele>499.75</ele><time>2026-04-22T08:06:19.719Z</time></trkpt><trkpt lat="43.8284533" lon="11.95863"><ele>500.0</ele><time>2026-04-22T08:06:20.719Z</time></trkpt><trkpt lat="43.8283433" lon="11.9587083"><ele>500.0</ele><time>2026-04-22T08:06:21.719Z</time></trkpt><trkpt lat="43.8282317" lon="11.9587767"><ele>500.0</ele><time>2026-04-22T08:06:22.719Z</time></trkpt><trkpt lat="43.8281183" lon="11.9588483"><ele>500.0</ele><time>2026-04-22T08:06:23.719Z</time></trkpt><trkpt lat="43.8280067" lon="11.9589133"><ele>500.0</ele><time>2026-04-22T08:06:24.719Z</time></trkpt><trkpt lat="43.8278967" lon="11.9589733"><ele>500.0</ele><time>2026-04-22T08:06:25.72Z</time></trkpt><trkpt lat="43.8277867" lon="11.959025"><ele>500.0</ele><time>2026-04-22T08:06:26.719Z</time></trkpt><trkpt lat="43.8276833" lon="11.9590867"><ele>500.0</ele><time>2026-04-22T08:06:27.719Z</time></trkpt><trkpt lat="43.8275783" lon="11.9591267"><ele>500.0</ele><time>2026-04-22T08:06:28.72Z</time></trkpt><trkpt lat="43.8274667" lon="11.9591433"><ele>500.75</ele><time>2026-04-22T08:06:29.719Z</time></trkpt><trkpt lat="43.8273583" lon="11.9591133"><ele>501.5</ele><time>2026-04-22T08:06:30.719Z</time></trkpt><trkpt lat="43.82725" lon="11.9590783"><ele>502.25</ele><time>2026-04-22T08:06:31.719Z</time></trkpt><trkpt lat="43.82713" lon="11.9590183"><ele>503.0</ele><time>2026-04-22T08:06:32.719Z</time></trkpt><trkpt lat="43.8270133" lon="11.9589533"><ele>503.0</ele><time>2026-04-22T08:06:33.719Z</time></trkpt><trkpt lat="43.8268983" lon="11.9588983"><ele>503.0</ele><time>2026-04-22T08:06:34.719Z</time></trkpt><trkpt lat="43.8267833" lon="11.9588483"><ele>503.0</ele><time>2026-04-22T08:06:35.72Z</time></trkpt><trkpt lat="43.8266667" lon="11.95879"><ele>503.0</ele><time>2026-04-22T08:06:36.719Z</time></trkpt><trkpt lat="43.8265533" lon="11.9587383"><ele>503.5</ele><time>2026-04-22T08:06:37.719Z</time></trkpt><trkpt lat="43.826435" lon="11.9586917"><ele>504.0</ele><time>2026-04-22T08:06:38.719Z</time></trkpt><trkpt lat="43.8263167" lon="11.9586583"><ele>504.5</ele><time>2026-04-22T08:06:39.719Z</time></trkpt><trkpt lat="43.8261933" lon="11.9586183"><ele>505.0</ele><time>2026-04-22T08:06:40.72Z</time></trkpt><trkpt lat="43.8260783" lon="11.9585683"><ele>505.5</ele><time>2026-04-22T08:06:41.719Z</time></trkpt><trkpt lat="43.8259667" lon="11.9585183"><ele>506.0</ele><time>2026-04-22T08:06:42.72Z</time></trkpt><trkpt lat="43.82585" lon="11.9584733"><ele>506.5</ele><time>2026-04-22T08:06:43.719Z</time></trkpt><trkpt lat="43.8257283" lon="11.9584317"><ele>507.0</ele><time>2026-04-22T08:06:44.719Z</time></trkpt><trkpt lat="43.82561" lon="11.9583967"><ele>510.5</ele><time>2026-04-22T08:06:45.719Z</time></trkpt><trkpt lat="43.8254867" lon="11.958365"><ele>514.0</ele><time>2026-04-22T08:06:46.719Z</time></trkpt><trkpt lat="43.8253667" lon="11.9583367"><ele>517.5</ele><time>2026-04-22T08:06:47.719Z</time></trkpt><trkpt lat="43.8252417" lon="11.9583233"><ele>521.0</ele><time>2026-04-22T08:06:48.719Z</time></trkpt><trkpt lat="43.8251217" lon="11.9583417"><ele>517.25</ele><time>2026-04-22T08:06:49.72Z</time></trkpt><trkpt lat="43.82501" lon="11.958385"><ele>513.5</ele><time>2026-04-22T08:06:50.72Z</time></trkpt><trkpt lat="43.8249033" lon="11.9584417"><ele>509.75</ele><time>2026-04-22T08:06:51.719Z</time></trkpt><trkpt lat="43.8247967" lon="11.9585183"><ele>506.0</ele><time>2026-04-22T08:06:52.719Z</time></trkpt><trkpt lat="43.8246983" lon="11.9585767"><ele>506.0</ele><time>2026-04-22T08:06:53.719Z</time></trkpt><trkpt lat="43.8245933" lon="11.9586267"><ele>506.0</ele><time>2026-04-22T08:06:54.719Z</time></trkpt><trkpt lat="43.82447" lon="11.9586667"><ele>506.0</ele><time>2026-04-22T08:06:55.719Z</time></trkpt><trkpt lat="43.8243583" lon="11.958715"><ele>506.0</ele><time>2026-04-22T08:06:56.719Z</time></trkpt><trkpt lat="43.8242633" lon="11.958745"><ele>506.49999999999994</ele><time>2026-04-22T08:06:57.719Z</time></trkpt><trkpt lat="43.8241833" lon="11.9587317"><ele>507.0</ele><time>2026-04-22T08:06:58.719Z</time></trkpt><trkpt lat="43.82412" lon="11.95869"><ele>507.5</ele><time>2026-04-22T08:06:59.719Z</time></trkpt><trkpt lat="43.8240783" lon="11.9585917"><ele>508.0</ele><time>2026-04-22T08:07:00.72Z</time></trkpt><trkpt lat="43.8240717" lon="11.958485"><ele>508.49999999999994</ele><time>2026-04-22T08:07:01.719Z</time></trkpt><trkpt lat="43.8240717" lon="11.9583467"><ele>509.0</ele><time>2026-04-22T08:07:02.72Z</time></trkpt><trkpt lat="43.8240683" lon="11.9581833"><ele>510.6</ele><time>2026-04-22T08:07:03.719Z</time></trkpt><trkpt lat="43.824055" lon="11.958025"><ele>512.2</ele><time>2026-04-22T08:07:04.719Z</time></trkpt><trkpt lat="43.8240183" lon="11.9578883"><ele>513.8000000000001</ele><time>2026-04-22T08:07:05.719Z</time></trkpt><trkpt lat="43.8239733" lon="11.95778"><ele>515.4</ele><time>2026-04-22T08:07:06.72Z</time></trkpt><trkpt lat="43.8239133" lon="11.9577"><ele>517.0</ele><time>2026-04-22T08:07:07.719Z</time></trkpt><trkpt lat="43.8238483" lon="11.9576183"><ele>517.0</ele><time>2026-04-22T08:07:08.719Z</time></trkpt><trkpt lat="43.823785" lon="11.957555"><ele>517.0</ele><time>2026-04-22T08:07:09.719Z</time></trkpt><trkpt lat="43.8237183" lon="11.957505"><ele>517.0</ele><time>2026-04-22T08:07:10.719Z</time></trkpt><trkpt lat="43.823645" lon="11.9574767"><ele>517.0</ele><time>2026-04-22T08:07:11.719Z</time></trkpt><trkpt lat="43.82356" lon="11.9574783"><ele>517.0</ele><time>2026-04-22T08:07:12.719Z</time></trkpt><trkpt lat="43.8234667" lon="11.95749"><ele>517.0</ele><time>2026-04-22T08:07:13.719Z</time></trkpt><trkpt lat="43.823365" lon="11.9575067"><ele>516.75</ele><time>2026-04-22T08:07:14.719Z</time></trkpt><trkpt lat="43.8232567" lon="11.9575267"><ele>516.5</ele><time>2026-04-22T08:07:15.719Z</time></trkpt><trkpt lat="43.823145" lon="11.9575533"><ele>516.25</ele><time>2026-04-22T08:07:16.719Z</time></trkpt><trkpt lat="43.82303" lon="11.95758"><ele>516.0</ele><time>2026-04-22T08:07:17.719Z</time></trkpt><trkpt lat="43.8229083" lon="11.957615"><ele>514.75</ele><time>2026-04-22T08:07:18.719Z</time></trkpt><trkpt lat="43.8227933" lon="11.9576533"><ele>513.5</ele><time>2026-04-22T08:07:19.719Z</time></trkpt><trkpt lat="43.8226833" lon="11.9576883"><ele>512.25</ele><time>2026-04-22T08:07:20.719Z</time></trkpt><trkpt lat="43.8225617" lon="11.957725"><ele>511.0</ele><time>2026-04-22T08:07:21.719Z</time></trkpt><trkpt lat="43.8224467" lon="11.9577667"><ele>511.0</ele><time>2026-04-22T08:07:22.719Z</time></trkpt><trkpt lat="43.82233" lon="11.95781"><ele>511.0</ele><time>2026-04-22T08:07:23.72Z</time></trkpt><trkpt lat="43.822215" lon="11.95786"><ele>511.0</ele><time>2026-04-22T08:07:24.719Z</time></trkpt><trkpt lat="43.8220983" lon="11.957895"><ele>511.0</ele><time>2026-04-22T08:07:25.719Z</time></trkpt><trkpt lat="43.8219817" lon="11.9579317"><ele>511.0</ele><time>2026-04-22T08:07:26.719Z</time></trkpt><trkpt lat="43.8218683" lon="11.95796"><ele>511.0</ele><time>2026-04-22T08:07:27.719Z</time></trkpt><trkpt lat="43.821755" lon="11.9579367"><ele>511.0</ele><time>2026-04-22T08:07:28.719Z</time></trkpt><trkpt lat="43.8216367" lon="11.9578983"><ele>511.0</ele><time>2026-04-22T08:07:29.719Z</time></trkpt><trkpt lat="43.82152" lon="11.9578567"><ele>511.0</ele><time>2026-04-22T08:07:30.719Z</time></trkpt><trkpt lat="43.821405" lon="11.9578233"><ele>511.0</ele><time>2026-04-22T08:07:31.719Z</time></trkpt><trkpt lat="43.8212917" lon="11.957815"><ele>511.0</ele><time>2026-04-22T08:07:32.72Z</time></trkpt><trkpt lat="43.8211833" lon="11.95783"><ele>511.0</ele><time>2026-04-22T08:07:33.719Z</time></trkpt><trkpt lat="43.8210833" lon="11.957875"><ele>511.0</ele><time>2026-04-22T08:07:34.72Z</time></trkpt><trkpt lat="43.8209833" lon="11.9579417"><ele>511.6</ele><time>2026-04-22T08:07:35.719Z</time></trkpt><trkpt lat="43.8209033" lon="11.9580333"><ele>512.2</ele><time>2026-04-22T08:07:36.72Z</time></trkpt><trkpt lat="43.8208333" lon="11.9581417"><ele>512.8</ele><time>2026-04-22T08:07:37.719Z</time></trkpt><trkpt lat="43.820785" lon="11.95828"><ele>513.4</ele><time>2026-04-22T08:07:38.719Z</time></trkpt><trkpt lat="43.8207583" lon="11.958425"><ele>514.0</ele><time>2026-04-22T08:07:39.719Z</time></trkpt><trkpt lat="43.8207533" lon="11.9585867"><ele>514.0</ele><time>2026-04-22T08:07:40.719Z</time></trkpt><trkpt lat="43.82075" lon="11.95875"><ele>514.0</ele><time>2026-04-22T08:07:41.719Z</time></trkpt><trkpt lat="43.82074" lon="11.9589133"><ele>514.0</ele><time>2026-04-22T08:07:42.719Z</time></trkpt><trkpt lat="43.82072" lon="11.95907"><ele>514.0</ele><time>2026-04-22T08:07:43.719Z</time></trkpt><trkpt lat="43.82068" lon="11.9592183"><ele>517.0</ele><time>2026-04-22T08:07:44.72Z</time></trkpt><trkpt lat="43.8206333" lon="11.95936"><ele>520.0</ele><time>2026-04-22T08:07:45.72Z</time></trkpt><trkpt lat="43.820555" lon="11.9594633"><ele>523.0</ele><time>2026-04-22T08:07:46.72Z</time></trkpt><trkpt lat="43.8204667" lon="11.95951"><ele>526.0</ele><time>2026-04-22T08:07:47.719Z</time></trkpt><trkpt lat="43.8203683" lon="11.9594733"><ele>529.0</ele><time>2026-04-22T08:07:48.719Z</time></trkpt><trkpt lat="43.8202683" lon="11.9594117"><ele>529.0</ele><time>2026-04-22T08:07:49.72Z</time></trkpt><trkpt lat="43.82015" lon="11.9593617"><ele>529.0</ele><time>2026-04-22T08:07:50.719Z</time></trkpt><trkpt lat="43.8200183" lon="11.9593"><ele>529.0</ele><time>2026-04-22T08:07:51.719Z</time></trkpt><trkpt lat="43.81988" lon="11.9592367"><ele>529.0</ele><time>2026-04-22T08:07:52.719Z</time></trkpt><trkpt lat="43.8197283" lon="11.9592133"><ele>527.75</ele><time>2026-04-22T08:07:53.719Z</time></trkpt><trkpt lat="43.819585" lon="11.9592133"><ele>526.5</ele><time>2026-04-22T08:07:54.719Z</time></trkpt><trkpt lat="43.8194683" lon="11.9592583"><ele>525.25</ele><time>2026-04-22T08:07:55.719Z</time></trkpt><trkpt lat="43.819355" lon="11.9593217"><ele>524.0</ele><time>2026-04-22T08:07:56.719Z</time></trkpt><trkpt lat="43.8192683" lon="11.9594183"><ele>528.25</ele><time>2026-04-22T08:07:57.72Z</time></trkpt><trkpt lat="43.8191867" lon="11.959525"><ele>532.5</ele><time>2026-04-22T08:07:58.72Z</time></trkpt><trkpt lat="43.8191233" lon="11.9596567"><ele>536.75</ele><time>2026-04-22T08:07:59.719Z</time></trkpt><trkpt lat="43.8190767" lon="11.95981"><ele>541.0</ele><time>2026-04-22T08:08:00.719Z</time></trkpt><trkpt lat="43.819045" lon="11.9599717"><ele>537.25</ele><time>2026-04-22T08:08:01.719Z</time></trkpt><trkpt lat="43.8190233" lon="11.9601367"><ele>533.5</ele><time>2026-04-22T08:08:02.719Z</time></trkpt><trkpt lat="43.8190133" lon="11.9603117"><ele>529.75</ele><time>2026-04-22T08:08:03.719Z</time></trkpt><trkpt lat="43.81901" lon="11.96048"><ele>526.0</ele><time>2026-04-22T08:08:04.719Z</time></trkpt><trkpt lat="43.819" lon="11.9606283"><ele>526.0</ele><time>2026-04-22T08:08:05.719Z</time></trkpt><trkpt lat="43.81898" lon="11.9607867"><ele>526.0</ele><time>2026-04-22T08:08:06.719Z</time></trkpt><trkpt lat="43.81896" lon="11.9609367"><ele>526.0</ele><time>2026-04-22T08:08:07.719Z</time></trkpt><trkpt lat="43.81894" lon="11.9610583"><ele>526.0</ele><time>2026-04-22T08:08:08.719Z</time></trkpt><trkpt lat="43.8188983" lon="11.9611367"><ele>526.0</ele><time>2026-04-22T08:08:09.719Z</time></trkpt><trkpt lat="43.8188317" lon="11.9611917"><ele>527.2</ele><time>2026-04-22T08:08:10.719Z</time></trkpt><trkpt lat="43.8187617" lon="11.9612433"><ele>528.4000000000001</ele><time>2026-04-22T08:08:11.719Z</time></trkpt><trkpt lat="43.8187083" lon="11.9613067"><ele>529.6</ele><time>2026-04-22T08:08:12.72Z</time></trkpt><trkpt lat="43.81863" lon="11.9613217"><ele>530.8000000000001</ele><time>2026-04-22T08:08:13.719Z</time></trkpt><trkpt lat="43.818535" lon="11.9613283"><ele>532.0</ele><time>2026-04-22T08:08:14.72Z</time></trkpt><trkpt lat="43.8184067" lon="11.96131"><ele>532.3333333333334</ele><time>2026-04-22T08:08:15.719Z</time></trkpt><trkpt lat="43.8182033" lon="11.9613633"><ele>532.6666666666666</ele><time>2026-04-22T08:08:16.72Z</time></trkpt><trkpt lat="43.81807" lon="11.9614267"><ele>533.0</ele><time>2026-04-22T08:08:17.719Z</time></trkpt><trkpt lat="43.81795" lon="11.961485"><ele>533.0</ele><time>2026-04-22T08:08:18.719Z</time></trkpt><trkpt lat="43.8178333" lon="11.9615433"><ele>533.0</ele><time>2026-04-22T08:08:19.719Z</time></trkpt><trkpt lat="43.8177133" lon="11.9615933"><ele>533.0</ele><time>2026-04-22T08:08:20.719Z</time></trkpt><trkpt lat="43.8175933" lon="11.9616533"><ele>533.0</ele><time>2026-04-22T08:08:21.719Z</time></trkpt><trkpt lat="43.81748" lon="11.9617267"><ele>533.25</ele><time>2026-04-22T08:08:22.719Z</time></trkpt><trkpt lat="43.817375" lon="11.9618133"><ele>533.5</ele><time>2026-04-22T08:08:23.719Z</time></trkpt><trkpt lat="43.8172633" lon="11.9618983"><ele>533.75</ele><time>2026-04-22T08:08:24.719Z</time></trkpt><trkpt lat="43.8171583" lon="11.9619817"><ele>534.0</ele><time>2026-04-22T08:08:25.719Z</time></trkpt><trkpt lat="43.8170567" lon="11.9620717"><ele>534.0</ele><time>2026-04-22T08:08:26.719Z</time></trkpt><trkpt lat="43.8169567" lon="11.9621633"><ele>534.0</ele><time>2026-04-22T08:08:27.719Z</time></trkpt><trkpt lat="43.816855" lon="11.9622517"><ele>534.0</ele><time>2026-04-22T08:08:28.719Z</time></trkpt><trkpt lat="43.8167617" lon="11.9623517"><ele>534.0</ele><time>2026-04-22T08:08:29.719Z</time></trkpt><trkpt lat="43.816665" lon="11.9624583"><ele>537.4</ele><time>2026-04-22T08:08:30.719Z</time></trkpt><trkpt lat="43.81658" lon="11.9625667"><ele>540.8</ele><time>2026-04-22T08:08:31.719Z</time></trkpt><trkpt lat="43.8164933" lon="11.96268"><ele>544.2</ele><time>2026-04-22T08:08:32.719Z</time></trkpt><trkpt lat="43.81642" lon="11.9627717"><ele>547.6</ele><time>2026-04-22T08:08:33.719Z</time></trkpt><trkpt lat="43.8163483" lon="11.96284"><ele>551.0</ele><time>2026-04-22T08:08:34.719Z</time></trkpt><trkpt lat="43.81627" lon="11.9628833"><ele>551.0</ele><time>2026-04-22T08:08:35.719Z</time></trkpt><trkpt lat="43.8161833" lon="11.962905"><ele>551.0</ele><time>2026-04-22T08:08:36.719Z</time></trkpt><trkpt lat="43.816105" lon="11.962925"><ele>551.0</ele><time>2026-04-22T08:08:37.719Z</time></trkpt><trkpt lat="43.8160183" lon="11.96296"><ele>551.0</ele><time>2026-04-22T08:08:38.719Z</time></trkpt><trkpt lat="43.815935" lon="11.963005"><ele>551.0</ele><time>2026-04-22T08:08:39.719Z</time></trkpt><trkpt lat="43.815865" lon="11.9631117"><ele>553.0</ele><time>2026-04-22T08:08:40.719Z</time></trkpt><trkpt lat="43.8157917" lon="11.96322"><ele>555.0</ele><time>2026-04-22T08:08:41.719Z</time></trkpt><trkpt lat="43.8157317" lon="11.9633417"><ele>557.0</ele><time>2026-04-22T08:08:42.719Z</time></trkpt><trkpt lat="43.8156833" lon="11.96348"><ele>559.0</ele><time>2026-04-22T08:08:43.719Z</time></trkpt><trkpt lat="43.8156533" lon="11.9636283"><ele>561.0</ele><time>2026-04-22T08:08:44.719Z</time></trkpt><trkpt lat="43.815645" lon="11.96378"><ele>561.0</ele><time>2026-04-22T08:08:45.719Z</time></trkpt><trkpt lat="43.815655" lon="11.9639417"><ele>561.0</ele><time>2026-04-22T08:08:46.719Z</time></trkpt><trkpt lat="43.8156867" lon="11.9640867"><ele>561.0</ele><time>2026-04-22T08:08:47.719Z</time></trkpt><trkpt lat="43.81573" lon="11.96424"><ele>561.0</ele><time>2026-04-22T08:08:48.719Z</time></trkpt><trkpt lat="43.81579" lon="11.9643867"><ele>560.0</ele><time>2026-04-22T08:08:49.719Z</time></trkpt><trkpt lat="43.815845" lon="11.9645383"><ele>559.0</ele><time>2026-04-22T08:08:50.719Z</time></trkpt><trkpt lat="43.8159067" lon="11.9647"><ele>558.0</ele><time>2026-04-22T08:08:51.72Z</time></trkpt><trkpt lat="43.8159883" lon="11.964845"><ele>557.0</ele><time>2026-04-22T08:08:52.719Z</time></trkpt><trkpt lat="43.8160467" lon="11.964985"><ele>556.5</ele><time>2026-04-22T08:08:53.719Z</time></trkpt><trkpt lat="43.8161083" lon="11.9651417"><ele>556.0</ele><time>2026-04-22T08:08:54.719Z</time></trkpt><trkpt lat="43.816165" lon="11.965295"><ele>555.5</ele><time>2026-04-22T08:08:55.719Z</time></trkpt><trkpt lat="43.8162267" lon="11.9654533"><ele>555.0</ele><time>2026-04-22T08:08:56.719Z</time></trkpt><trkpt lat="43.81628" lon="11.9656133"><ele>555.0</ele><time>2026-04-22T08:08:57.719Z</time></trkpt><trkpt lat="43.816325" lon="11.9657683"><ele>555.0</ele><time>2026-04-22T08:08:58.719Z</time></trkpt><trkpt lat="43.81637" lon="11.9659133"><ele>555.0</ele><time>2026-04-22T08:08:59.719Z</time></trkpt><trkpt lat="43.8164117" lon="11.966045"><ele>555.0</ele><time>2026-04-22T08:09:00.719Z</time></trkpt><trkpt lat="43.8164367" lon="11.9661483"><ele>555.0</ele><time>2026-04-22T08:09:01.719Z</time></trkpt><trkpt lat="43.8164433" lon="11.966255"><ele>557.1666666666666</ele><time>2026-04-22T08:09:02.719Z</time></trkpt><trkpt lat="43.8164217" lon="11.9663617"><ele>559.3333333333334</ele><time>2026-04-22T08:09:03.719Z</time></trkpt><trkpt lat="43.8163683" lon="11.966445"><ele>561.5</ele><time>2026-04-22T08:09:04.719Z</time></trkpt><trkpt lat="43.8162883" lon="11.9665117"><ele>563.6666666666667</ele><time>2026-04-22T08:09:05.719Z</time></trkpt><trkpt lat="43.816205" lon="11.9665767"><ele>565.8333333333334</ele><time>2026-04-22T08:09:06.719Z</time></trkpt><trkpt lat="43.8161217" lon="11.9666283"><ele>568.0</ele><time>2026-04-22T08:09:07.719Z</time></trkpt><trkpt lat="43.8160517" lon="11.9666683"><ele>565.6</ele><time>2026-04-22T08:09:08.719Z</time></trkpt><trkpt lat="43.81597" lon="11.96666"><ele>563.1999999999999</ele><time>2026-04-22T08:09:09.719Z</time></trkpt><trkpt lat="43.8158867" lon="11.9666217"><ele>560.8</ele><time>2026-04-22T08:09:10.719Z</time></trkpt><trkpt lat="43.815795" lon="11.966555"><ele>558.4</ele><time>2026-04-22T08:09:11.719Z</time></trkpt><trkpt lat="43.8156883" lon="11.9664883"><ele>556.0</ele><time>2026-04-22T08:09:12.719Z</time></trkpt><trkpt lat="43.815585" lon="11.9664317"><ele>556.0</ele><time>2026-04-22T08:09:13.719Z</time></trkpt><trkpt lat="43.8154917" lon="11.966395"><ele>556.0</ele><time>2026-04-22T08:09:14.719Z</time></trkpt><trkpt lat="43.8153833" lon="11.9663833"><ele>556.0</ele><time>2026-04-22T08:09:15.719Z</time></trkpt><trkpt lat="43.815285" lon="11.9664033"><ele>556.0</ele><time>2026-04-22T08:09:16.719Z</time></trkpt><trkpt lat="43.81521" lon="11.9664667"><ele>556.0</ele><time>2026-04-22T08:09:17.719Z</time></trkpt><trkpt lat="43.8151383" lon="11.9665567"><ele>555.8</ele><time>2026-04-22T08:09:18.719Z</time></trkpt><trkpt lat="43.81509" lon="11.9666617"><ele>555.6</ele><time>2026-04-22T08:09:19.719Z</time></trkpt><trkpt lat="43.8150683" lon="11.9667933"><ele>555.4</ele><time>2026-04-22T08:09:20.719Z</time></trkpt><trkpt lat="43.81507" lon="11.9669467"><ele>555.2</ele><time>2026-04-22T08:09:21.719Z</time></trkpt><trkpt lat="43.8150733" lon="11.9671017"><ele>555.0</ele><time>2026-04-22T08:09:22.719Z</time></trkpt><trkpt lat="43.8150683" lon="11.96726"><ele>555.4</ele><time>2026-04-22T08:09:23.719Z</time></trkpt><trkpt lat="43.8150367" lon="11.9674167"><ele>555.8</ele><time>2026-04-22T08:09:24.719Z</time></trkpt><trkpt lat="43.8149883" lon="11.9675583"><ele>556.2</ele><time>2026-04-22T08:09:25.719Z</time></trkpt><trkpt lat="43.8149333" lon="11.9676833"><ele>556.6</ele><time>2026-04-22T08:09:26.719Z</time></trkpt><trkpt lat="43.8148817" lon="11.9678083"><ele>557.0</ele><time>2026-04-22T08:09:27.719Z</time></trkpt><trkpt lat="43.8148333" lon="11.9679217"><ele>559.6</ele><time>2026-04-22T08:09:28.719Z</time></trkpt><trkpt lat="43.8147783" lon="11.9680267"><ele>562.2</ele><time>2026-04-22T08:09:29.719Z</time></trkpt><trkpt lat="43.8147233" lon="11.9681317"><ele>564.8</ele><time>2026-04-22T08:09:30.719Z</time></trkpt><trkpt lat="43.8146567" lon="11.9682117"><ele>567.4</ele><time>2026-04-22T08:09:31.719Z</time></trkpt><trkpt lat="43.8145817" lon="11.9682767"><ele>570.0</ele><time>2026-04-22T08:09:32.719Z</time></trkpt><trkpt lat="43.8144967" lon="11.9683167"><ele>570.0</ele><time>2026-04-22T08:09:33.719Z</time></trkpt><trkpt lat="43.8144117" lon="11.968355"><ele>570.0</ele><time>2026-04-22T08:09:34.719Z</time></trkpt><trkpt lat="43.8143217" lon="11.9683783"><ele>570.0</ele><time>2026-04-22T08:09:35.719Z</time></trkpt><trkpt lat="43.81422" lon="11.968375"><ele>570.0</ele><time>2026-04-22T08:09:36.719Z</time></trkpt><trkpt lat="43.8141167" lon="11.968385"><ele>570.0</ele><time>2026-04-22T08:09:37.719Z</time></trkpt><trkpt lat="43.8140167" lon="11.96841"><ele>573.25</ele><time>2026-04-22T08:09:38.72Z</time></trkpt><trkpt lat="43.8139033" lon="11.96848"><ele>576.5</ele><time>2026-04-22T08:09:39.72Z</time></trkpt><trkpt lat="43.813795" lon="11.96855"><ele>579.75</ele><time>2026-04-22T08:09:40.719Z</time></trkpt><trkpt lat="43.8136917" lon="11.9686133"><ele>583.0</ele><time>2026-04-22T08:09:41.719Z</time></trkpt><trkpt lat="43.81358" lon="11.968675"><ele>582.6</ele><time>2026-04-22T08:09:42.719Z</time></trkpt><trkpt lat="43.813475" lon="11.96872"><ele>582.1999999999999</ele><time>2026-04-22T08:09:43.719Z</time></trkpt><trkpt lat="43.813375" lon="11.9687283"><ele>581.8</ele><time>2026-04-22T08:09:44.719Z</time></trkpt><trkpt lat="43.81327" lon="11.9687117"><ele>581.4</ele><time>2026-04-22T08:09:45.719Z</time></trkpt><trkpt lat="43.8131667" lon="11.9686717"><ele>581.0</ele><time>2026-04-22T08:09:46.72Z</time></trkpt><trkpt lat="43.81306" lon="11.9686133"><ele>581.0</ele><time>2026-04-22T08:09:47.72Z</time></trkpt><trkpt lat="43.8129517" lon="11.968545"><ele>581.0</ele><time>2026-04-22T08:09:48.719Z</time></trkpt><trkpt lat="43.81284" lon="11.9684717"><ele>581.0</ele><time>2026-04-22T08:09:49.719Z</time></trkpt><trkpt lat="43.8127267" lon="11.9684083"><ele>581.0</ele><time>2026-04-22T08:09:50.719Z</time></trkpt><trkpt lat="43.8126133" lon="11.9683517"><ele>577.5</ele><time>2026-04-22T08:09:51.719Z</time></trkpt><trkpt lat="43.812505" lon="11.9682883"><ele>574.0</ele><time>2026-04-22T08:09:52.719Z</time></trkpt><trkpt lat="43.812395" lon="11.968235"><ele>570.5</ele><time>2026-04-22T08:09:53.719Z</time></trkpt><trkpt lat="43.8122917" lon="11.968185"><ele>567.0</ele><time>2026-04-22T08:09:54.719Z</time></trkpt><trkpt lat="43.8121817" lon="11.9681433"><ele>567.0</ele><time>2026-04-22T08:09:55.719Z</time></trkpt><trkpt lat="43.812075" lon="11.9681067"><ele>567.0</ele><time>2026-04-22T08:09:56.719Z</time></trkpt><trkpt lat="43.8119583" lon="11.9680617"><ele>567.0</ele><time>2026-04-22T08:09:57.719Z</time></trkpt><trkpt lat="43.8118417" lon="11.9680017"><ele>567.0</ele><time>2026-04-22T08:09:58.719Z</time></trkpt><trkpt lat="43.8117433" lon="11.96791"><ele>572.0</ele><time>2026-04-22T08:09:59.719Z</time></trkpt><trkpt lat="43.81165" lon="11.967825"><ele>577.0</ele><time>2026-04-22T08:10:00.719Z</time></trkpt><trkpt lat="43.8115517" lon="11.967755"><ele>582.0</ele><time>2026-04-22T08:10:01.719Z</time></trkpt><trkpt lat="43.8114617" lon="11.9677133"><ele>587.0</ele><time>2026-04-22T08:10:02.719Z</time></trkpt><trkpt lat="43.8113767" lon="11.9676933"><ele>592.0</ele><time>2026-04-22T08:10:03.719Z</time></trkpt><trkpt lat="43.81129" lon="11.9677"><ele>592.0</ele><time>2026-04-22T08:10:04.719Z</time></trkpt><trkpt lat="43.811205" lon="11.967725"><ele>592.0</ele><time>2026-04-22T08:10:05.719Z</time></trkpt><trkpt lat="43.81112" lon="11.9677717"><ele>592.0</ele><time>2026-04-22T08:10:06.719Z</time></trkpt><trkpt lat="43.8110317" lon="11.967815"><ele>592.0</ele><time>2026-04-22T08:10:07.719Z</time></trkpt><trkpt lat="43.8109417" lon="11.9678717"><ele>592.0</ele><time>2026-04-22T08:10:08.719Z</time></trkpt><trkpt lat="43.8108483" lon="11.9679367"><ele>588.5</ele><time>2026-04-22T08:10:09.72Z</time></trkpt><trkpt lat="43.8107433" lon="11.9679983"><ele>585.0</ele><time>2026-04-22T08:10:10.719Z</time></trkpt><trkpt lat="43.8106417" lon="11.968085"><ele>581.5</ele><time>2026-04-22T08:10:11.719Z</time></trkpt><trkpt lat="43.8105367" lon="11.9681583"><ele>578.0</ele><time>2026-04-22T08:10:12.719Z</time></trkpt><trkpt lat="43.8104283" lon="11.96822"><ele>578.0</ele><time>2026-04-22T08:10:13.719Z</time></trkpt><trkpt lat="43.8103183" lon="11.9682667"><ele>578.0</ele><time>2026-04-22T08:10:14.719Z</time></trkpt><trkpt lat="43.8102067" lon="11.968305"><ele>578.0</ele><time>2026-04-22T08:10:15.72Z</time></trkpt><trkpt lat="43.8100967" lon="11.9683317"><ele>578.0</ele><time>2026-04-22T08:10:16.719Z</time></trkpt><trkpt lat="43.8099867" lon="11.9683367"><ele>576.75</ele><time>2026-04-22T08:10:17.72Z</time></trkpt><trkpt lat="43.8098717" lon="11.9683067"><ele>575.5</ele><time>2026-04-22T08:10:18.719Z</time></trkpt><trkpt lat="43.8097583" lon="11.96827"><ele>574.25</ele><time>2026-04-22T08:10:19.719Z</time></trkpt><trkpt lat="43.8096383" lon="11.9682533"><ele>573.0</ele><time>2026-04-22T08:10:20.719Z</time></trkpt><trkpt lat="43.809515" lon="11.96825"><ele>573.0</ele><time>2026-04-22T08:10:21.719Z</time></trkpt><trkpt lat="43.809395" lon="11.96826"><ele>573.0</ele><time>2026-04-22T08:10:22.719Z</time></trkpt><trkpt lat="43.8092783" lon="11.9682983"><ele>573.0</ele><time>2026-04-22T08:10:23.719Z</time></trkpt><trkpt lat="43.8091667" lon="11.9683383"><ele>573.0</ele><time>2026-04-22T08:10:24.719Z</time></trkpt><trkpt lat="43.809075" lon="11.9684117"><ele>579.6</ele><time>2026-04-22T08:10:25.719Z</time></trkpt><trkpt lat="43.8089717" lon="11.968475"><ele>586.1999999999999</ele><time>2026-04-22T08:10:26.719Z</time></trkpt><trkpt lat="43.80887" lon="11.9685417"><ele>592.8</ele><time>2026-04-22T08:10:27.719Z</time></trkpt><trkpt lat="43.8087717" lon="11.9686017"><ele>599.4</ele><time>2026-04-22T08:10:28.719Z</time></trkpt><trkpt lat="43.8086633" lon="11.9686433"><ele>606.0</ele><time>2026-04-22T08:10:29.719Z</time></trkpt><trkpt lat="43.8085483" lon="11.96865"><ele>604.25</ele><time>2026-04-22T08:10:30.719Z</time></trkpt><trkpt lat="43.8084283" lon="11.9686283"><ele>602.5</ele><time>2026-04-22T08:10:31.72Z</time></trkpt><trkpt lat="43.8083033" lon="11.968605"><ele>600.75</ele><time>2026-04-22T08:10:32.719Z</time></trkpt><trkpt lat="43.80819" lon="11.968605"><ele>599.0</ele><time>2026-04-22T08:10:33.719Z</time></trkpt><trkpt lat="43.8080733" lon="11.9686267"><ele>599.0</ele><time>2026-04-22T08:10:34.719Z</time></trkpt><trkpt lat="43.8079517" lon="11.968645"><ele>599.0</ele><time>2026-04-22T08:10:35.719Z</time></trkpt><trkpt lat="43.8078467" lon="11.9686833"><ele>599.0</ele><time>2026-04-22T08:10:36.719Z</time></trkpt><trkpt lat="43.8077517" lon="11.9687283"><ele>599.0</ele><time>2026-04-22T08:10:37.719Z</time></trkpt><trkpt lat="43.8076467" lon="11.9687567"><ele>599.0</ele><time>2026-04-22T08:10:38.719Z</time></trkpt><trkpt lat="43.807545" lon="11.9687833"><ele>595.6</ele><time>2026-04-22T08:10:39.72Z</time></trkpt><trkpt lat="43.80744" lon="11.9687617"><ele>592.2</ele><time>2026-04-22T08:10:40.72Z</time></trkpt><trkpt lat="43.80734" lon="11.968775"><ele>588.8000000000001</ele><time>2026-04-22T08:10:41.719Z</time></trkpt><trkpt lat="43.807245" lon="11.9687983"><ele>585.4</ele><time>2026-04-22T08:10:42.719Z</time></trkpt><trkpt lat="43.8071633" lon="11.96884"><ele>582.0</ele><time>2026-04-22T08:10:43.719Z</time></trkpt><trkpt lat="43.8070933" lon="11.96892"><ele>582.0</ele><time>2026-04-22T08:10:44.719Z</time></trkpt><trkpt lat="43.8070433" lon="11.9690133"><ele>582.0</ele><time>2026-04-22T08:10:45.719Z</time></trkpt><trkpt lat="43.8070133" lon="11.9691283"><ele>582.0</ele><time>2026-04-22T08:10:46.719Z</time></trkpt><trkpt lat="43.8070033" lon="11.96926"><ele>582.0</ele><time>2026-04-22T08:10:47.719Z</time></trkpt><trkpt lat="43.8070067" lon="11.969405"><ele>582.0</ele><time>2026-04-22T08:10:48.719Z</time></trkpt><trkpt lat="43.8070367" lon="11.9695467"><ele>584.4</ele><time>2026-04-22T08:10:49.719Z</time></trkpt><trkpt lat="43.8070967" lon="11.9696617"><ele>586.8000000000001</ele><time>2026-04-22T08:10:50.719Z</time></trkpt><trkpt lat="43.807155" lon="11.9697917"><ele>589.2</ele><time>2026-04-22T08:10:51.719Z</time></trkpt><trkpt lat="43.8072017" lon="11.9699233"><ele>591.6</ele><time>2026-04-22T08:10:52.719Z</time></trkpt><trkpt lat="43.80723" lon="11.9700683"><ele>594.0</ele><time>2026-04-22T08:10:53.719Z</time></trkpt><trkpt lat="43.8072317" lon="11.9702217"><ele>594.75</ele><time>2026-04-22T08:10:54.719Z</time></trkpt><trkpt lat="43.807215" lon="11.9703717"><ele>595.5</ele><time>2026-04-22T08:10:55.719Z</time></trkpt><trkpt lat="43.8071933" lon="11.970545"><ele>596.25</ele><time>2026-04-22T08:10:56.719Z</time></trkpt><trkpt lat="43.80717" lon="11.970715"><ele>597.0</ele><time>2026-04-22T08:10:57.719Z</time></trkpt><trkpt lat="43.80715" lon="11.9708833"><ele>598.75</ele><time>2026-04-22T08:10:58.719Z</time></trkpt><trkpt lat="43.8071317" lon="11.9710433"><ele>600.5</ele><time>2026-04-22T08:10:59.719Z</time></trkpt><trkpt lat="43.8071133" lon="11.9712083"><ele>602.25</ele><time>2026-04-22T08:11:00.719Z</time></trkpt><trkpt lat="43.8070933" lon="11.9713733"><ele>604.0</ele><time>2026-04-22T08:11:01.719Z</time></trkpt><trkpt lat="43.80707" lon="11.9715317"><ele>604.0</ele><time>2026-04-22T08:11:02.719Z</time></trkpt><trkpt lat="43.80704" lon="11.9716767"><ele>604.0</ele><time>2026-04-22T08:11:03.719Z</time></trkpt><trkpt lat="43.80699" lon="11.9718017"><ele>604.0</ele><time>2026-04-22T08:11:04.719Z</time></trkpt><trkpt lat="43.8069183" lon="11.9718933"><ele>604.0</ele><time>2026-04-22T08:11:05.719Z</time></trkpt><trkpt lat="43.8068333" lon="11.9719717"><ele>604.0</ele><time>2026-04-22T08:11:06.719Z</time></trkpt><trkpt lat="43.806745" lon="11.9720517"><ele>601.6</ele><time>2026-04-22T08:11:07.719Z</time></trkpt><trkpt lat="43.80665" lon="11.9721333"><ele>599.2</ele><time>2026-04-22T08:11:08.719Z</time></trkpt><trkpt lat="43.80656" lon="11.9722283"><ele>596.8000000000001</ele><time>2026-04-22T08:11:09.719Z</time></trkpt><trkpt lat="43.806485" lon="11.972325"><ele>594.4</ele><time>2026-04-22T08:11:10.719Z</time></trkpt><trkpt lat="43.8064067" lon="11.9724217"><ele>592.0</ele><time>2026-04-22T08:11:11.719Z</time></trkpt><trkpt lat="43.8063367" lon="11.972525"><ele>592.0</ele><time>2026-04-22T08:11:12.719Z</time></trkpt><trkpt lat="43.8062767" lon="11.9726217"><ele>592.0</ele><time>2026-04-22T08:11:13.719Z</time></trkpt><trkpt lat="43.8062417" lon="11.972725"><ele>592.0</ele><time>2026-04-22T08:11:14.719Z</time></trkpt><trkpt lat="43.8062283" lon="11.9728233"><ele>592.0</ele><time>2026-04-22T08:11:15.719Z</time></trkpt><trkpt lat="43.806235" lon="11.97293"><ele>592.0</ele><time>2026-04-22T08:11:16.72Z</time></trkpt><trkpt lat="43.8062917" lon="11.97302"><ele>592.0</ele><time>2026-04-22T08:11:17.719Z</time></trkpt><trkpt lat="43.806365" lon="11.9730967"><ele>592.0</ele><time>2026-04-22T08:11:18.719Z</time></trkpt><trkpt lat="43.80645" lon="11.9731833"><ele>592.0</ele><time>2026-04-22T08:11:19.72Z</time></trkpt><trkpt lat="43.8065317" lon="11.9732767"><ele>592.0</ele><time>2026-04-22T08:11:20.719Z</time></trkpt><trkpt lat="43.8066017" lon="11.97338"><ele>592.0</ele><time>2026-04-22T08:11:21.719Z</time></trkpt><trkpt lat="43.8066683" lon="11.9734933"><ele>592.0</ele><time>2026-04-22T08:11:22.719Z</time></trkpt><trkpt lat="43.8067283" lon="11.9736083"><ele>592.2</ele><time>2026-04-22T08:11:23.719Z</time></trkpt><trkpt lat="43.8067983" lon="11.9737067"><ele>592.4000000000001</ele><time>2026-04-22T08:11:24.719Z</time></trkpt><trkpt lat="43.806855" lon="11.97381"><ele>592.5999999999999</ele><time>2026-04-22T08:11:25.719Z</time></trkpt><trkpt lat="43.806895" lon="11.9739183"><ele>592.8</ele><time>2026-04-22T08:11:26.719Z</time></trkpt><trkpt lat="43.80691" lon="11.9740383"><ele>593.0</ele><time>2026-04-22T08:11:27.719Z</time></trkpt><trkpt lat="43.8069167" lon="11.9741633"><ele>595.4</ele><time>2026-04-22T08:11:28.719Z</time></trkpt><trkpt lat="43.8069" lon="11.974295"><ele>597.8</ele><time>2026-04-22T08:11:29.719Z</time></trkpt><trkpt lat="43.806865" lon="11.9744167"><ele>600.2</ele><time>2026-04-22T08:11:30.719Z</time></trkpt><trkpt lat="43.8068083" lon="11.9745283"><ele>602.6</ele><time>2026-04-22T08:11:31.719Z</time></trkpt><trkpt lat="43.8067417" lon="11.9746217"><ele>605.0</ele><time>2026-04-22T08:11:32.719Z</time></trkpt><trkpt lat="43.8066517" lon="11.9746933"><ele>605.0</ele><time>2026-04-22T08:11:33.72Z</time></trkpt><trkpt lat="43.80655" lon="11.9747333"><ele>605.0</ele><time>2026-04-22T08:11:34.719Z</time></trkpt><trkpt lat="43.8064583" lon="11.9747483"><ele>605.0</ele><time>2026-04-22T08:11:35.719Z</time></trkpt><trkpt lat="43.80636" lon="11.9747717"><ele>605.0</ele><time>2026-04-22T08:11:36.719Z</time></trkpt><trkpt lat="43.8062733" lon="11.9748117"><ele>605.0</ele><time>2026-04-22T08:11:37.72Z</time></trkpt><trkpt lat="43.8061967" lon="11.97488"><ele>605.0</ele><time>2026-04-22T08:11:38.719Z</time></trkpt><trkpt lat="43.8061283" lon="11.974985"><ele>605.0</ele><time>2026-04-22T08:11:39.719Z</time></trkpt><trkpt lat="43.8060717" lon="11.9751083"><ele>605.0</ele><time>2026-04-22T08:11:40.719Z</time></trkpt><trkpt lat="43.8060367" lon="11.9752283"><ele>605.0</ele><time>2026-04-22T08:11:41.72Z</time></trkpt><trkpt lat="43.8060283" lon="11.9753533"><ele>605.0</ele><time>2026-04-22T08:11:42.719Z</time></trkpt><trkpt lat="43.80603" lon="11.975485"><ele>608.6</ele><time>2026-04-22T08:11:43.719Z</time></trkpt><trkpt lat="43.80606" lon="11.975625"><ele>612.2</ele><time>2026-04-22T08:11:44.72Z</time></trkpt><trkpt lat="43.8060957" lon="11.9757572"><ele>615.8</ele><time>2026-04-22T08:11:45.719Z</time></trkpt><trkpt lat="43.8061493" lon="11.9759"><ele>619.4</ele><time>2026-04-22T08:11:46.72Z</time></trkpt><trkpt lat="43.8061978" lon="11.9760557"><ele>623.0</ele><time>2026-04-22T08:11:47.719Z</time></trkpt><trkpt lat="43.8062321" lon="11.9762103"><ele>623.0</ele><time>2026-04-22T08:11:48.719Z</time></trkpt><trkpt lat="43.806255" lon="11.9763683"><ele>623.0</ele><time>2026-04-22T08:11:49.719Z</time></trkpt><trkpt lat="43.8062767" lon="11.97653"><ele>623.0</ele><time>2026-04-22T08:11:50.719Z</time></trkpt><trkpt lat="43.8062917" lon="11.97669"><ele>623.0</ele><time>2026-04-22T08:11:51.719Z</time></trkpt><trkpt lat="43.806315" lon="11.9768483"><ele>620.5</ele><time>2026-04-22T08:11:52.719Z</time></trkpt><trkpt lat="43.80634" lon="11.977005"><ele>618.0</ele><time>2026-04-22T08:11:53.719Z</time></trkpt><trkpt lat="43.8063633" lon="11.97717"><ele>615.5</ele><time>2026-04-22T08:11:54.719Z</time></trkpt><trkpt lat="43.8063833" lon="11.977335"><ele>613.0</ele><time>2026-04-22T08:11:55.719Z</time></trkpt><trkpt lat="43.8064017" lon="11.9774883"><ele>609.5</ele><time>2026-04-22T08:11:56.72Z</time></trkpt><trkpt lat="43.8064117" lon="11.977645"><ele>606.0</ele><time>2026-04-22T08:11:57.719Z</time></trkpt><trkpt lat="43.8063933" lon="11.9778017"><ele>602.5</ele><time>2026-04-22T08:11:58.719Z</time></trkpt><trkpt lat="43.80636" lon="11.9779533"><ele>599.0</ele><time>2026-04-22T08:11:59.719Z</time></trkpt><trkpt lat="43.8063233" lon="11.9780983"><ele>599.0</ele><time>2026-04-22T08:12:00.72Z</time></trkpt><trkpt lat="43.8062883" lon="11.978225"><ele>599.0</ele><time>2026-04-22T08:12:01.719Z</time></trkpt><trkpt lat="43.8062567" lon="11.9783517"><ele>599.0</ele><time>2026-04-22T08:12:02.719Z</time></trkpt><trkpt lat="43.80622" lon="11.9784667"><ele>599.0</ele><time>2026-04-22T08:12:03.719Z</time></trkpt><trkpt lat="43.80618" lon="11.9785683"><ele>599.0</ele><time>2026-04-22T08:12:04.719Z</time></trkpt><trkpt lat="43.8061183" lon="11.9786517"><ele>600.8</ele><time>2026-04-22T08:12:05.719Z</time></trkpt><trkpt lat="43.8060433" lon="11.9787117"><ele>602.5999999999999</ele><time>2026-04-22T08:12:06.719Z</time></trkpt><trkpt lat="43.8059583" lon="11.9787417"><ele>604.4</ele><time>2026-04-22T08:12:07.72Z</time></trkpt><trkpt lat="43.8058483" lon="11.9787433"><ele>606.1999999999999</ele><time>2026-04-22T08:12:08.719Z</time></trkpt><trkpt lat="43.8057433" lon="11.9787183"><ele>608.0</ele><time>2026-04-22T08:12:09.719Z</time></trkpt><trkpt lat="43.8056317" lon="11.97869"><ele>616.5</ele><time>2026-04-22T08:12:10.719Z</time></trkpt><trkpt lat="43.805515" lon="11.9786617"><ele>625.0</ele><time>2026-04-22T08:12:11.719Z</time></trkpt><trkpt lat="43.8053917" lon="11.9786417"><ele>633.5</ele><time>2026-04-22T08:12:12.719Z</time></trkpt><trkpt lat="43.805265" lon="11.9786183"><ele>642.0</ele><time>2026-04-22T08:12:13.72Z</time></trkpt><trkpt lat="43.805145" lon="11.9785917"><ele>643.8</ele><time>2026-04-22T08:12:14.719Z</time></trkpt><trkpt lat="43.80503" lon="11.97856"><ele>645.6</ele><time>2026-04-22T08:12:15.719Z</time></trkpt><trkpt lat="43.8049233" lon="11.9784983"><ele>647.4</ele><time>2026-04-22T08:12:16.719Z</time></trkpt><trkpt lat="43.80483" lon="11.97844"><ele>649.1999999999999</ele><time>2026-04-22T08:12:17.719Z</time></trkpt><trkpt lat="43.8047367" lon="11.978395"><ele>651.0</ele><time>2026-04-22T08:12:18.719Z</time></trkpt><trkpt lat="43.80466" lon="11.9783833"><ele>651.0</ele><time>2026-04-22T08:12:19.719Z</time></trkpt><trkpt lat="43.8045817" lon="11.978425"><ele>651.0</ele><time>2026-04-22T08:12:20.72Z</time></trkpt><trkpt lat="43.8045033" lon="11.978505"><ele>651.0</ele><time>2026-04-22T08:12:21.719Z</time></trkpt><trkpt lat="43.8044233" lon="11.9785933"><ele>651.0</ele><time>2026-04-22T08:12:22.719Z</time></trkpt><trkpt lat="43.8043433" lon="11.9786767"><ele>651.0</ele><time>2026-04-22T08:12:23.719Z</time></trkpt><trkpt lat="43.8042483" lon="11.9787533"><ele>645.5</ele><time>2026-04-22T08:12:24.719Z</time></trkpt><trkpt lat="43.8041483" lon="11.9788267"><ele>640.0</ele><time>2026-04-22T08:12:25.719Z</time></trkpt><trkpt lat="43.8040483" lon="11.9789"><ele>634.5</ele><time>2026-04-22T08:12:26.719Z</time></trkpt><trkpt lat="43.8039467" lon="11.9789717"><ele>629.0</ele><time>2026-04-22T08:12:27.72Z</time></trkpt><trkpt lat="43.8038467" lon="11.97904"><ele>629.0</ele><time>2026-04-22T08:12:28.719Z</time></trkpt><trkpt lat="43.80375" lon="11.979105"><ele>629.0</ele><time>2026-04-22T08:12:29.719Z</time></trkpt><trkpt lat="43.803665" lon="11.979155"><ele>629.0</ele><time>2026-04-22T08:12:30.719Z</time></trkpt><trkpt lat="43.8035733" lon="11.979165"><ele>629.0</ele><time>2026-04-22T08:12:31.719Z</time></trkpt><trkpt lat="43.8034767" lon="11.9791417"><ele>629.0</ele><time>2026-04-22T08:12:32.719Z</time></trkpt><trkpt lat="43.8033767" lon="11.9791"><ele>629.6</ele><time>2026-04-22T08:12:33.719Z</time></trkpt><trkpt lat="43.8032733" lon="11.9790683"><ele>630.2</ele><time>2026-04-22T08:12:34.719Z</time></trkpt><trkpt lat="43.8031617" lon="11.97906"><ele>630.8000000000001</ele><time>2026-04-22T08:12:35.719Z</time></trkpt><trkpt lat="43.8030567" lon="11.9790817"><ele>631.4</ele><time>2026-04-22T08:12:36.719Z</time></trkpt><trkpt lat="43.8029533" lon="11.97909"><ele>632.0</ele><time>2026-04-22T08:12:37.719Z</time></trkpt><trkpt lat="43.80286" lon="11.97905"><ele>632.0</ele><time>2026-04-22T08:12:38.719Z</time></trkpt><trkpt lat="43.8027833" lon="11.9789833"><ele>632.0</ele><time>2026-04-22T08:12:39.72Z</time></trkpt><trkpt lat="43.8027117" lon="11.97891"><ele>632.0</ele><time>2026-04-22T08:12:40.719Z</time></trkpt><trkpt lat="43.8026433" lon="11.9788617"><ele>632.0</ele><time>2026-04-22T08:12:41.719Z</time></trkpt><trkpt lat="43.80257" lon="11.97884"><ele>632.0</ele><time>2026-04-22T08:12:42.719Z</time></trkpt><trkpt lat="43.8024933" lon="11.9788983"><ele>632.0</ele><time>2026-04-22T08:12:43.719Z</time></trkpt><trkpt lat="43.8024117" lon="11.97898"><ele>631.8000000000001</ele><time>2026-04-22T08:12:44.719Z</time></trkpt><trkpt lat="43.8023317" lon="11.979065"><ele>631.6</ele><time>2026-04-22T08:12:45.719Z</time></trkpt><trkpt lat="43.8022467" lon="11.9791433"><ele>631.4000000000001</ele><time>2026-04-22T08:12:46.719Z</time></trkpt><trkpt lat="43.8021533" lon="11.9792167"><ele>631.2</ele><time>2026-04-22T08:12:47.719Z</time></trkpt><trkpt lat="43.8020567" lon="11.979285"><ele>631.0</ele><time>2026-04-22T08:12:48.719Z</time></trkpt><trkpt lat="43.801955" lon="11.9793467"><ele>637.2</ele><time>2026-04-22T08:12:49.719Z</time></trkpt><trkpt lat="43.80185" lon="11.9794067"><ele>643.4000000000001</ele><time>2026-04-22T08:12:50.719Z</time></trkpt><trkpt lat="43.8017467" lon="11.9794633"><ele>649.6</ele><time>2026-04-22T08:12:51.719Z</time></trkpt><trkpt lat="43.801645" lon="11.9795233"><ele>655.8000000000001</ele><time>2026-04-22T08:12:52.719Z</time></trkpt><trkpt lat="43.8015383" lon="11.9795517"><ele>662.0</ele><time>2026-04-22T08:12:53.719Z</time></trkpt><trkpt lat="43.8014233" lon="11.9795533"><ele>662.0</ele><time>2026-04-22T08:12:54.719Z</time></trkpt><trkpt lat="43.8013133" lon="11.9795433"><ele>662.0</ele><time>2026-04-22T08:12:55.72Z</time></trkpt><trkpt lat="43.8012033" lon="11.979525"><ele>662.0</ele><time>2026-04-22T08:12:56.719Z</time></trkpt><trkpt lat="43.8011" lon="11.9795217"><ele>662.0</ele><time>2026-04-22T08:12:57.719Z</time></trkpt><trkpt lat="43.8009883" lon="11.9795217"><ele>662.0</ele><time>2026-04-22T08:12:58.719Z</time></trkpt><trkpt lat="43.800865" lon="11.9795267"><ele>662.25</ele><time>2026-04-22T08:12:59.719Z</time></trkpt><trkpt lat="43.8007433" lon="11.979545"><ele>662.5</ele><time>2026-04-22T08:13:00.719Z</time></trkpt><trkpt lat="43.8006283" lon="11.9795767"><ele>662.75</ele><time>2026-04-22T08:13:01.719Z</time></trkpt><trkpt lat="43.8005133" lon="11.979625"><ele>663.0</ele><time>2026-04-22T08:13:02.719Z</time></trkpt><trkpt lat="43.800395" lon="11.9796683"><ele>663.0</ele><time>2026-04-22T08:13:03.719Z</time></trkpt><trkpt lat="43.80028" lon="11.9797117"><ele>663.0</ele><time>2026-04-22T08:13:04.719Z</time></trkpt><trkpt lat="43.8001617" lon="11.9797417"><ele>663.0</ele><time>2026-04-22T08:13:05.719Z</time></trkpt><trkpt lat="43.8000517" lon="11.9797767"><ele>663.0</ele><time>2026-04-22T08:13:06.72Z</time></trkpt><trkpt lat="43.7999417" lon="11.9798133"><ele>660.25</ele><time>2026-04-22T08:13:07.719Z</time></trkpt><trkpt lat="43.7998267" lon="11.9798283"><ele>657.5</ele><time>2026-04-22T08:13:08.719Z</time></trkpt><trkpt lat="43.799705" lon="11.9798317"><ele>654.75</ele><time>2026-04-22T08:13:09.719Z</time></trkpt><trkpt lat="43.7995783" lon="11.9798033"><ele>652.0</ele><time>2026-04-22T08:13:10.72Z</time></trkpt><trkpt lat="43.7994617" lon="11.9797783"><ele>652.0</ele><time>2026-04-22T08:13:11.719Z</time></trkpt><trkpt lat="43.7993583" lon="11.9797917"><ele>652.0</ele><time>2026-04-22T08:13:12.719Z</time></trkpt><trkpt lat="43.7992667" lon="11.9798483"><ele>652.0</ele><time>2026-04-22T08:13:13.719Z</time></trkpt><trkpt lat="43.7991817" lon="11.9799233"><ele>652.0</ele><time>2026-04-22T08:13:14.719Z</time></trkpt><trkpt lat="43.7991067" lon="11.9800217"><ele>652.0</ele><time>2026-04-22T08:13:15.719Z</time></trkpt><trkpt lat="43.799045" lon="11.9801433"><ele>653.2</ele><time>2026-04-22T08:13:16.719Z</time></trkpt><trkpt lat="43.798975" lon="11.9802633"><ele>654.4000000000001</ele><time>2026-04-22T08:13:17.72Z</time></trkpt><trkpt lat="43.7989033" lon="11.9803783"><ele>655.5999999999999</ele><time>2026-04-22T08:13:18.72Z</time></trkpt><trkpt lat="43.79883" lon="11.9804933"><ele>656.8</ele><time>2026-04-22T08:13:19.721Z</time></trkpt><trkpt lat="43.7987583" lon="11.98061"><ele>658.0</ele><time>2026-04-22T08:13:20.72Z</time></trkpt><trkpt lat="43.7986833" lon="11.9807283"><ele>658.0</ele><time>2026-04-22T08:13:21.72Z</time></trkpt><trkpt lat="43.798615" lon="11.9808467"><ele>658.0</ele><time>2026-04-22T08:13:22.72Z</time></trkpt><trkpt lat="43.79853" lon="11.9809533"><ele>658.0</ele><time>2026-04-22T08:13:23.72Z</time></trkpt><trkpt lat="43.7984417" lon="11.9810533"><ele>658.0</ele><time>2026-04-22T08:13:24.721Z</time></trkpt><trkpt lat="43.7983483" lon="11.9811433"><ele>656.5999999999999</ele><time>2026-04-22T08:13:25.72Z</time></trkpt><trkpt lat="43.798255" lon="11.98123"><ele>655.1999999999999</ele><time>2026-04-22T08:13:26.72Z</time></trkpt><trkpt lat="43.79817" lon="11.981315"><ele>653.8</ele><time>2026-04-22T08:13:27.72Z</time></trkpt><trkpt lat="43.7980983" lon="11.9814083"><ele>652.4</ele><time>2026-04-22T08:13:28.72Z</time></trkpt><trkpt lat="43.79804" lon="11.981515"><ele>651.0</ele><time>2026-04-22T08:13:29.72Z</time></trkpt><trkpt lat="43.7980017" lon="11.9816267"><ele>650.5</ele><time>2026-04-22T08:13:30.72Z</time></trkpt><trkpt lat="43.7979783" lon="11.9817383"><ele>650.0</ele><time>2026-04-22T08:13:31.72Z</time></trkpt><trkpt lat="43.79797" lon="11.9818417"><ele>649.5</ele><time>2026-04-22T08:13:32.72Z</time></trkpt><trkpt lat="43.7979933" lon="11.98194"><ele>649.0</ele><time>2026-04-22T08:13:33.721Z</time></trkpt><trkpt lat="43.7980433" lon="11.9820333"><ele>648.5</ele><time>2026-04-22T08:13:34.72Z</time></trkpt><trkpt lat="43.7981083" lon="11.9821083"><ele>648.0</ele><time>2026-04-22T08:13:35.72Z</time></trkpt><trkpt lat="43.7981783" lon="11.9821867"><ele>648.0</ele><time>2026-04-22T08:13:36.721Z</time></trkpt><trkpt lat="43.7982433" lon="11.982295"><ele>648.0</ele><time>2026-04-22T08:13:37.72Z</time></trkpt><trkpt lat="43.7982917" lon="11.9824117"><ele>648.0</ele><time>2026-04-22T08:13:38.721Z</time></trkpt><trkpt lat="43.7983083" lon="11.9825383"><ele>648.0</ele><time>2026-04-22T08:13:39.72Z</time></trkpt><trkpt lat="43.7983" lon="11.98269"><ele>648.0</ele><time>2026-04-22T08:13:40.72Z</time></trkpt><trkpt lat="43.798275" lon="11.9828383"><ele>647.8</ele><time>2026-04-22T08:13:41.721Z</time></trkpt><trkpt lat="43.7982467" lon="11.9829933"><ele>647.5999999999999</ele><time>2026-04-22T08:13:42.721Z</time></trkpt><trkpt lat="43.7982233" lon="11.9831383"><ele>647.4000000000001</ele><time>2026-04-22T08:13:43.72Z</time></trkpt><trkpt lat="43.7982067" lon="11.9832717"><ele>647.2</ele><time>2026-04-22T08:13:44.72Z</time></trkpt><trkpt lat="43.7981983" lon="11.9834"><ele>647.0</ele><time>2026-04-22T08:13:45.72Z</time></trkpt><trkpt lat="43.79821" lon="11.9835383"><ele>647.0</ele><time>2026-04-22T08:13:46.72Z</time></trkpt><trkpt lat="43.7982533" lon="11.9836817"><ele>647.0</ele><time>2026-04-22T08:13:47.72Z</time></trkpt><trkpt lat="43.7983217" lon="11.98382"><ele>647.0</ele><time>2026-04-22T08:13:48.72Z</time></trkpt><trkpt lat="43.7983983" lon="11.98395"><ele>647.0</ele><time>2026-04-22T08:13:49.72Z</time></trkpt><trkpt lat="43.7984833" lon="11.9840617"><ele>655.25</ele><time>2026-04-22T08:13:50.721Z</time></trkpt><trkpt lat="43.798575" lon="11.9841583"><ele>663.5</ele><time>2026-04-22T08:13:51.72Z</time></trkpt><trkpt lat="43.7986567" lon="11.984265"><ele>671.75</ele><time>2026-04-22T08:13:52.72Z</time></trkpt><trkpt lat="43.7987283" lon="11.9843883"><ele>680.0</ele><time>2026-04-22T08:13:53.72Z</time></trkpt><trkpt lat="43.7987783" lon="11.9845333"><ele>680.0</ele><time>2026-04-22T08:13:54.72Z</time></trkpt><trkpt lat="43.7988283" lon="11.9846717"><ele>680.0</ele><time>2026-04-22T08:13:55.72Z</time></trkpt><trkpt lat="43.7988983" lon="11.9848017"><ele>680.0</ele><time>2026-04-22T08:13:56.72Z</time></trkpt><trkpt lat="43.79898" lon="11.9849117"><ele>680.0</ele><time>2026-04-22T08:13:57.72Z</time></trkpt><trkpt lat="43.7990483" lon="11.98503"><ele>677.6</ele><time>2026-04-22T08:13:58.72Z</time></trkpt><trkpt lat="43.7991067" lon="11.9851533"><ele>675.2</ele><time>2026-04-22T08:13:59.72Z</time></trkpt><trkpt lat="43.7991333" lon="11.9852917"><ele>672.8</ele><time>2026-04-22T08:14:00.72Z</time></trkpt><trkpt lat="43.7991483" lon="11.9854467"><ele>670.4</ele><time>2026-04-22T08:14:01.72Z</time></trkpt><trkpt lat="43.799155" lon="11.9855983"><ele>668.0</ele><time>2026-04-22T08:14:02.72Z</time></trkpt><trkpt lat="43.7991617" lon="11.98576"><ele>664.5999999999999</ele><time>2026-04-22T08:14:03.72Z</time></trkpt><trkpt lat="43.799165" lon="11.9859183"><ele>661.1999999999999</ele><time>2026-04-22T08:14:04.72Z</time></trkpt><trkpt lat="43.7991667" lon="11.9860667"><ele>657.8</ele><time>2026-04-22T08:14:05.72Z</time></trkpt><trkpt lat="43.7991817" lon="11.9861983"><ele>654.4</ele><time>2026-04-22T08:14:06.72Z</time></trkpt><trkpt lat="43.799215" lon="11.9863283"><ele>651.0</ele><time>2026-04-22T08:14:07.721Z</time></trkpt><trkpt lat="43.7992633" lon="11.9864533"><ele>657.25</ele><time>2026-04-22T08:14:08.72Z</time></trkpt><trkpt lat="43.7993367" lon="11.98657"><ele>663.5</ele><time>2026-04-22T08:14:09.72Z</time></trkpt><trkpt lat="43.799425" lon="11.9866817"><ele>669.75</ele><time>2026-04-22T08:14:10.72Z</time></trkpt><trkpt lat="43.7995183" lon="11.9867883"><ele>676.0</ele><time>2026-04-22T08:14:11.72Z</time></trkpt><trkpt lat="43.7996117" lon="11.9869017"><ele>676.0</ele><time>2026-04-22T08:14:12.72Z</time></trkpt><trkpt lat="43.7996967" lon="11.98702"><ele>676.0</ele><time>2026-04-22T08:14:13.72Z</time></trkpt><trkpt lat="43.7997717" lon="11.9871433"><ele>676.0</ele><time>2026-04-22T08:14:14.72Z</time></trkpt><trkpt lat="43.7998333" lon="11.98729"><ele>676.0</ele><time>2026-04-22T08:14:15.72Z</time></trkpt><trkpt lat="43.7998833" lon="11.9874417"><ele>674.8</ele><time>2026-04-22T08:14:16.72Z</time></trkpt><trkpt lat="43.7999267" lon="11.987585"><ele>673.5999999999999</ele><time>2026-04-22T08:14:17.72Z</time></trkpt><trkpt lat="43.7999583" lon="11.9877267"><ele>672.4</ele><time>2026-04-22T08:14:18.72Z</time></trkpt><trkpt lat="43.7999933" lon="11.9878667"><ele>671.2</ele><time>2026-04-22T08:14:19.72Z</time></trkpt><trkpt lat="43.8000233" lon="11.9879967"><ele>670.0</ele><time>2026-04-22T08:14:20.72Z</time></trkpt><trkpt lat="43.8000433" lon="11.9881417"><ele>670.0</ele><time>2026-04-22T08:14:21.72Z</time></trkpt><trkpt lat="43.80004" lon="11.9882983"><ele>670.0</ele><time>2026-04-22T08:14:22.72Z</time></trkpt><trkpt lat="43.80004" lon="11.9884583"><ele>670.0</ele><time>2026-04-22T08:14:23.72Z</time></trkpt><trkpt lat="43.8000483" lon="11.9886233"><ele>670.0</ele><time>2026-04-22T08:14:24.72Z</time></trkpt><trkpt lat="43.8000633" lon="11.9887883"><ele>669.5</ele><time>2026-04-22T08:14:25.72Z</time></trkpt><trkpt lat="43.80009" lon="11.9889483"><ele>669.0</ele><time>2026-04-22T08:14:26.72Z</time></trkpt><trkpt lat="43.80011" lon="11.98911"><ele>668.5</ele><time>2026-04-22T08:14:27.72Z</time></trkpt><trkpt lat="43.8001317" lon="11.9892617"><ele>668.0</ele><time>2026-04-22T08:14:28.72Z</time></trkpt><trkpt lat="43.8001417" lon="11.98942"><ele>669.5</ele><time>2026-04-22T08:14:29.72Z</time></trkpt><trkpt lat="43.800125" lon="11.9895733"><ele>671.0</ele><time>2026-04-22T08:14:30.72Z</time></trkpt><trkpt lat="43.8000883" lon="11.9897217"><ele>672.5</ele><time>2026-04-22T08:14:31.72Z</time></trkpt><trkpt lat="43.800025" lon="11.98986"><ele>674.0</ele><time>2026-04-22T08:14:32.72Z</time></trkpt><trkpt lat="43.799955" lon="11.9899883"><ele>676.6</ele><time>2026-04-22T08:14:33.72Z</time></trkpt><trkpt lat="43.7998733" lon="11.9900967"><ele>679.2</ele><time>2026-04-22T08:14:34.72Z</time></trkpt><trkpt lat="43.7997767" lon="11.990185"><ele>681.8000000000001</ele><time>2026-04-22T08:14:35.72Z</time></trkpt><trkpt lat="43.799675" lon="11.9902483"><ele>684.4000000000001</ele><time>2026-04-22T08:14:36.72Z</time></trkpt><trkpt lat="43.7995767" lon="11.9903067"><ele>687.0</ele><time>2026-04-22T08:14:37.72Z</time></trkpt><trkpt lat="43.799505" lon="11.9903817"><ele>687.0</ele><time>2026-04-22T08:14:38.72Z</time></trkpt><trkpt lat="43.799465" lon="11.9904817"><ele>687.0</ele><time>2026-04-22T08:14:39.72Z</time></trkpt><trkpt lat="43.799455" lon="11.990595"><ele>687.0</ele><time>2026-04-22T08:14:40.72Z</time></trkpt><trkpt lat="43.799455" lon="11.9907233"><ele>687.0</ele><time>2026-04-22T08:14:41.72Z</time></trkpt><trkpt lat="43.7994717" lon="11.990865"><ele>687.0</ele><time>2026-04-22T08:14:42.72Z</time></trkpt><trkpt lat="43.7994833" lon="11.9910217"><ele>686.2</ele><time>2026-04-22T08:14:43.72Z</time></trkpt><trkpt lat="43.7994833" lon="11.9911767"><ele>685.4000000000001</ele><time>2026-04-22T08:14:44.72Z</time></trkpt><trkpt lat="43.7994517" lon="11.991325"><ele>684.5999999999999</ele><time>2026-04-22T08:14:45.72Z</time></trkpt><trkpt lat="43.7993983" lon="11.9914633"><ele>683.8</ele><time>2026-04-22T08:14:46.72Z</time></trkpt><trkpt lat="43.7993283" lon="11.9915833"><ele>683.0</ele><time>2026-04-22T08:14:47.721Z</time></trkpt><trkpt lat="43.79924" lon="11.9916917"><ele>683.0</ele><time>2026-04-22T08:14:48.72Z</time></trkpt><trkpt lat="43.799155" lon="11.9918083"><ele>683.0</ele><time>2026-04-22T08:14:49.72Z</time></trkpt><trkpt lat="43.7990783" lon="11.9919367"><ele>683.0</ele><time>2026-04-22T08:14:50.72Z</time></trkpt><trkpt lat="43.79902" lon="11.9920767"><ele>683.0</ele><time>2026-04-22T08:14:51.72Z</time></trkpt><trkpt lat="43.798975" lon="11.99222"><ele>683.0</ele><time>2026-04-22T08:14:52.72Z</time></trkpt><trkpt lat="43.7989333" lon="11.9923683"><ele>683.0</ele><time>2026-04-22T08:14:53.72Z</time></trkpt><trkpt lat="43.7988983" lon="11.9925217"><ele>683.0</ele><time>2026-04-22T08:14:54.721Z</time></trkpt><trkpt lat="43.7988717" lon="11.992675"><ele>683.0</ele><time>2026-04-22T08:14:55.72Z</time></trkpt><trkpt lat="43.798865" lon="11.99284"><ele>685.75</ele><time>2026-04-22T08:14:56.72Z</time></trkpt><trkpt lat="43.79886" lon="11.9930183"><ele>688.5</ele><time>2026-04-22T08:14:57.72Z</time></trkpt><trkpt lat="43.798855" lon="11.9931967"><ele>691.25</ele><time>2026-04-22T08:14:58.72Z</time></trkpt><trkpt lat="43.7988533" lon="11.9933683"><ele>694.0</ele><time>2026-04-22T08:14:59.72Z</time></trkpt><trkpt lat="43.7988517" lon="11.9935367"><ele>694.25</ele><time>2026-04-22T08:15:00.721Z</time></trkpt><trkpt lat="43.7988583" lon="11.9937017"><ele>694.5</ele><time>2026-04-22T08:15:01.72Z</time></trkpt><trkpt lat="43.7988733" lon="11.99386"><ele>694.75</ele><time>2026-04-22T08:15:02.72Z</time></trkpt><trkpt lat="43.7988967" lon="11.9940183"><ele>695.0</ele><time>2026-04-22T08:15:03.72Z</time></trkpt><trkpt lat="43.7989283" lon="11.9941667"><ele>694.4</ele><time>2026-04-22T08:15:04.72Z</time></trkpt><trkpt lat="43.7989617" lon="11.9943033"><ele>693.8</ele><time>2026-04-22T08:15:05.72Z</time></trkpt><trkpt lat="43.79898" lon="11.9944217"><ele>693.2</ele><time>2026-04-22T08:15:06.721Z</time></trkpt><trkpt lat="43.79897" lon="11.9945367"><ele>692.6</ele><time>2026-04-22T08:15:07.72Z</time></trkpt><trkpt lat="43.798935" lon="11.9946583"><ele>692.0</ele><time>2026-04-22T08:15:08.72Z</time></trkpt><trkpt lat="43.7988783" lon="11.994775"><ele>692.0</ele><time>2026-04-22T08:15:09.72Z</time></trkpt><trkpt lat="43.7988133" lon="11.9949017"><ele>692.0</ele><time>2026-04-22T08:15:10.72Z</time></trkpt><trkpt lat="43.7987467" lon="11.9950267"><ele>692.0</ele><time>2026-04-22T08:15:11.721Z</time></trkpt><trkpt lat="43.7986733" lon="11.9951483"><ele>692.0</ele><time>2026-04-22T08:15:12.721Z</time></trkpt><trkpt lat="43.7985983" lon="11.9952567"><ele>692.0</ele><time>2026-04-22T08:15:13.72Z</time></trkpt><trkpt lat="43.7985083" lon="11.9953433"><ele>695.2</ele><time>2026-04-22T08:15:14.72Z</time></trkpt><trkpt lat="43.7984167" lon="11.99543"><ele>698.4000000000001</ele><time>2026-04-22T08:15:15.72Z</time></trkpt><trkpt lat="43.79832" lon="11.9955133"><ele>701.5999999999999</ele><time>2026-04-22T08:15:16.72Z</time></trkpt><trkpt lat="43.7982233" lon="11.9955783"><ele>704.8</ele><time>2026-04-22T08:15:17.72Z</time></trkpt><trkpt lat="43.7981183" lon="11.99563"><ele>708.0</ele><time>2026-04-22T08:15:18.72Z</time></trkpt><trkpt lat="43.7980217" lon="11.995675"><ele>708.0</ele><time>2026-04-22T08:15:19.72Z</time></trkpt><trkpt lat="43.7979317" lon="11.9957167"><ele>708.0</ele><time>2026-04-22T08:15:20.72Z</time></trkpt><trkpt lat="43.79784" lon="11.9957633"><ele>708.0</ele><time>2026-04-22T08:15:21.721Z</time></trkpt><trkpt lat="43.797755" lon="11.995815"><ele>708.0</ele><time>2026-04-22T08:15:22.72Z</time></trkpt><trkpt lat="43.7976733" lon="11.995875"><ele>708.0</ele><time>2026-04-22T08:15:23.72Z</time></trkpt><trkpt lat="43.797595" lon="11.9959417"><ele>708.2</ele><time>2026-04-22T08:15:24.72Z</time></trkpt><trkpt lat="43.79752" lon="11.9960283"><ele>708.4</ele><time>2026-04-22T08:15:25.72Z</time></trkpt><trkpt lat="43.7974517" lon="11.9961333"><ele>708.6</ele><time>2026-04-22T08:15:26.72Z</time></trkpt><trkpt lat="43.7973833" lon="11.9962483"><ele>708.8000000000001</ele><time>2026-04-22T08:15:27.72Z</time></trkpt><trkpt lat="43.7973333" lon="11.99638"><ele>709.0</ele><time>2026-04-22T08:15:28.72Z</time></trkpt><trkpt lat="43.7972983" lon="11.9965217"><ele>709.0</ele><time>2026-04-22T08:15:29.721Z</time></trkpt><trkpt lat="43.7972633" lon="11.9966567"><ele>709.0</ele><time>2026-04-22T08:15:30.72Z</time></trkpt><trkpt lat="43.7972283" lon="11.9967867"><ele>709.0</ele><time>2026-04-22T08:15:31.72Z</time></trkpt><trkpt lat="43.7971683" lon="11.996905"><ele>709.0</ele><time>2026-04-22T08:15:32.72Z</time></trkpt><trkpt lat="43.7970883" lon="11.9969933"><ele>709.0</ele><time>2026-04-22T08:15:33.72Z</time></trkpt><trkpt lat="43.79699" lon="11.9970567"><ele>710.2</ele><time>2026-04-22T08:15:34.721Z</time></trkpt><trkpt lat="43.7968933" lon="11.997105"><ele>711.4000000000001</ele><time>2026-04-22T08:15:35.72Z</time></trkpt><trkpt lat="43.7967883" lon="11.997145"><ele>712.6</ele><time>2026-04-22T08:15:36.72Z</time></trkpt><trkpt lat="43.79668" lon="11.9971933"><ele>713.8</ele><time>2026-04-22T08:15:37.72Z</time></trkpt><trkpt lat="43.796575" lon="11.99726"><ele>715.0</ele><time>2026-04-22T08:15:38.72Z</time></trkpt><trkpt lat="43.7964617" lon="11.9973483"><ele>715.0</ele><time>2026-04-22T08:15:39.72Z</time></trkpt><trkpt lat="43.7963617" lon="11.9974533"><ele>715.0</ele><time>2026-04-22T08:15:40.72Z</time></trkpt><trkpt lat="43.796265" lon="11.9975667"><ele>715.0</ele><time>2026-04-22T08:15:41.721Z</time></trkpt><trkpt lat="43.7961767" lon="11.9976783"><ele>715.0</ele><time>2026-04-22T08:15:42.72Z</time></trkpt><trkpt lat="43.796085" lon="11.9977967"><ele>714.0</ele><time>2026-04-22T08:15:43.72Z</time></trkpt><trkpt lat="43.7959917" lon="11.9979083"><ele>713.0</ele><time>2026-04-22T08:15:44.72Z</time></trkpt><trkpt lat="43.79591" lon="11.99801"><ele>712.0</ele><time>2026-04-22T08:15:45.72Z</time></trkpt><trkpt lat="43.795845" lon="11.998105"><ele>711.0</ele><time>2026-04-22T08:15:46.72Z</time></trkpt><trkpt lat="43.79581" lon="11.9982233"><ele>710.0</ele><time>2026-04-22T08:15:47.72Z</time></trkpt><trkpt lat="43.7957967" lon="11.9983417"><ele>709.2</ele><time>2026-04-22T08:15:48.72Z</time></trkpt><trkpt lat="43.795815" lon="11.9984633"><ele>708.4</ele><time>2026-04-22T08:15:49.72Z</time></trkpt><trkpt lat="43.7958667" lon="11.9985667"><ele>707.5999999999999</ele><time>2026-04-22T08:15:50.72Z</time></trkpt><trkpt lat="43.795945" lon="11.9986767"><ele>706.8</ele><time>2026-04-22T08:15:51.72Z</time></trkpt><trkpt lat="43.796035" lon="11.99877"><ele>706.0</ele><time>2026-04-22T08:15:52.721Z</time></trkpt><trkpt lat="43.79613" lon="11.9988583"><ele>704.75</ele><time>2026-04-22T08:15:53.72Z</time></trkpt><trkpt lat="43.79624" lon="11.9989583"><ele>703.5</ele><time>2026-04-22T08:15:54.72Z</time></trkpt><trkpt lat="43.79635" lon="11.9990667"><ele>702.25</ele><time>2026-04-22T08:15:55.72Z</time></trkpt><trkpt lat="43.796465" lon="11.9991717"><ele>701.0</ele><time>2026-04-22T08:15:56.72Z</time></trkpt><trkpt lat="43.7965667" lon="11.9992583"><ele>701.0</ele><time>2026-04-22T08:15:57.72Z</time></trkpt><trkpt lat="43.7966733" lon="11.9993183"><ele>701.0</ele><time>2026-04-22T08:15:58.72Z</time></trkpt><trkpt lat="43.7967817" lon="11.9993533"><ele>701.0</ele><time>2026-04-22T08:15:59.72Z</time></trkpt><trkpt lat="43.7968967" lon="11.9993433"><ele>701.0</ele><time>2026-04-22T08:16:00.72Z</time></trkpt><trkpt lat="43.79702" lon="11.9992983"><ele>704.0</ele><time>2026-04-22T08:16:01.721Z</time></trkpt><trkpt lat="43.79714" lon="11.9992217"><ele>707.0</ele><time>2026-04-22T08:16:02.72Z</time></trkpt><trkpt lat="43.7972583" lon="11.9991467"><ele>710.0</ele><time>2026-04-22T08:16:03.72Z</time></trkpt><trkpt lat="43.79738" lon="11.999095"><ele>713.0</ele><time>2026-04-22T08:16:04.72Z</time></trkpt><trkpt lat="43.7975" lon="11.9990617"><ele>716.0</ele><time>2026-04-22T08:16:05.721Z</time></trkpt><trkpt lat="43.7976217" lon="11.9990417"><ele>719.0</ele><time>2026-04-22T08:16:06.72Z</time></trkpt><trkpt lat="43.7977533" lon="11.99905"><ele>722.0</ele><time>2026-04-22T08:16:07.72Z</time></trkpt><trkpt lat="43.7978833" lon="11.9990767"><ele>725.0</ele><time>2026-04-22T08:16:08.72Z</time></trkpt><trkpt lat="43.79801" lon="11.9991167"><ele>726.5</ele><time>2026-04-22T08:16:09.72Z</time></trkpt><trkpt lat="43.7981283" lon="11.9991483"><ele>728.0</ele><time>2026-04-22T08:16:10.72Z</time></trkpt><trkpt lat="43.798245" lon="11.9991433"><ele>729.5</ele><time>2026-04-22T08:16:11.72Z</time></trkpt><trkpt lat="43.798365" lon="11.9991017"><ele>731.0</ele><time>2026-04-22T08:16:12.72Z</time></trkpt><trkpt lat="43.7984783" lon="11.99904"><ele>732.25</ele><time>2026-04-22T08:16:13.72Z</time></trkpt><trkpt lat="43.7985833" lon="11.9989633"><ele>733.5</ele><time>2026-04-22T08:16:14.72Z</time></trkpt><trkpt lat="43.7986917" lon="11.9988917"><ele>734.75</ele><time>2026-04-22T08:16:15.72Z</time></trkpt><trkpt lat="43.7988017" lon="11.9988417"><ele>736.0</ele><time>2026-04-22T08:16:16.72Z</time></trkpt><trkpt lat="43.7989183" lon="11.99882"><ele>736.0</ele><time>2026-04-22T08:16:17.72Z</time></trkpt><trkpt lat="43.79904" lon="11.9988333"><ele>736.0</ele><time>2026-04-22T08:16:18.72Z</time></trkpt><trkpt lat="43.7991633" lon="11.9988717"><ele>736.0</ele><time>2026-04-22T08:16:19.721Z</time></trkpt><trkpt lat="43.7992767" lon="11.99893"><ele>736.0</ele><time>2026-04-22T08:16:20.72Z</time></trkpt><trkpt lat="43.7993883" lon="11.9990067"><ele>735.5</ele><time>2026-04-22T08:16:21.72Z</time></trkpt><trkpt lat="43.7994933" lon="11.99909"><ele>735.0</ele><time>2026-04-22T08:16:22.72Z</time></trkpt><trkpt lat="43.7996" lon="11.999195"><ele>734.5</ele><time>2026-04-22T08:16:23.72Z</time></trkpt><trkpt lat="43.7996983" lon="11.999315"><ele>734.0</ele><time>2026-04-22T08:16:24.72Z</time></trkpt><trkpt lat="43.7998" lon="11.9994233"><ele>734.0</ele><time>2026-04-22T08:16:25.72Z</time></trkpt><trkpt lat="43.79992" lon="11.999515"><ele>734.0</ele><time>2026-04-22T08:16:26.72Z</time></trkpt><trkpt lat="43.8000417" lon="11.9995733"><ele>734.0</ele><time>2026-04-22T08:16:27.72Z</time></trkpt><trkpt lat="43.80016" lon="11.9995917"><ele>734.0</ele><time>2026-04-22T08:16:28.72Z</time></trkpt><trkpt lat="43.8002783" lon="11.9995817"><ele>738.0</ele><time>2026-04-22T08:16:29.72Z</time></trkpt><trkpt lat="43.8003967" lon="11.9995867"><ele>742.0</ele><time>2026-04-22T08:16:30.721Z</time></trkpt><trkpt lat="43.8005167" lon="11.9996167"><ele>746.0</ele><time>2026-04-22T08:16:31.721Z</time></trkpt><trkpt lat="43.8006267" lon="11.9996883"><ele>750.0</ele><time>2026-04-22T08:16:32.72Z</time></trkpt><trkpt lat="43.8007267" lon="11.9997917"><ele>750.0</ele><time>2026-04-22T08:16:33.72Z</time></trkpt><trkpt lat="43.800825" lon="11.9999033"><ele>750.0</ele><time>2026-04-22T08:16:34.72Z</time></trkpt><trkpt lat="43.80091" lon="12.0000283"><ele>750.0</ele><time>2026-04-22T08:16:35.72Z</time></trkpt><trkpt lat="43.8009917" lon="12.0001533"><ele>750.0</ele><time>2026-04-22T08:16:36.72Z</time></trkpt><trkpt lat="43.8010583" lon="12.0002783"><ele>749.8</ele><time>2026-04-22T08:16:37.72Z</time></trkpt><trkpt lat="43.8010917" lon="12.0004083"><ele>749.6</ele><time>2026-04-22T08:16:38.72Z</time></trkpt><trkpt lat="43.801095" lon="12.000545"><ele>749.4000000000001</ele><time>2026-04-22T08:16:39.72Z</time></trkpt><trkpt lat="43.801085" lon="12.0006867"><ele>749.2</ele><time>2026-04-22T08:16:40.72Z</time></trkpt><trkpt lat="43.8010517" lon="12.0008167"><ele>749.0</ele><time>2026-04-22T08:16:41.72Z</time></trkpt><trkpt lat="43.800995" lon="12.0009483"><ele>749.0</ele><time>2026-04-22T08:16:42.721Z</time></trkpt><trkpt lat="43.8009217" lon="12.00106"><ele>749.0</ele><time>2026-04-22T08:16:43.72Z</time></trkpt><trkpt lat="43.8008383" lon="12.0011483"><ele>749.0</ele><time>2026-04-22T08:16:44.72Z</time></trkpt><trkpt lat="43.8007483" lon="12.0012217"><ele>749.0</ele><time>2026-04-22T08:16:45.72Z</time></trkpt><trkpt lat="43.8006667" lon="12.0012783"><ele>749.0</ele><time>2026-04-22T08:16:46.721Z</time></trkpt><trkpt lat="43.8005933" lon="12.0013267"><ele>749.0</ele><time>2026-04-22T08:16:47.72Z</time></trkpt><trkpt lat="43.80052" lon="12.0013567"><ele>749.0</ele><time>2026-04-22T08:16:48.72Z</time></trkpt><trkpt lat="43.8004417" lon="12.0013633"><ele>749.0</ele><time>2026-04-22T08:16:49.72Z</time></trkpt><trkpt lat="43.8003517" lon="12.0013383"><ele>749.0</ele><time>2026-04-22T08:16:50.72Z</time></trkpt><trkpt lat="43.8002667" lon="12.0012817"><ele>749.0</ele><time>2026-04-22T08:16:51.72Z</time></trkpt><trkpt lat="43.8001867" lon="12.0012067"><ele>749.0</ele><time>2026-04-22T08:16:52.72Z</time></trkpt><trkpt lat="43.800105" lon="12.0011217"><ele>749.2</ele><time>2026-04-22T08:16:53.72Z</time></trkpt><trkpt lat="43.8000167" lon="12.001055"><ele>749.4000000000001</ele><time>2026-04-22T08:16:54.72Z</time></trkpt><trkpt lat="43.7999217" lon="12.000995"><ele>749.6</ele><time>2026-04-22T08:16:55.72Z</time></trkpt><trkpt lat="43.799825" lon="12.0009567"><ele>749.8</ele><time>2026-04-22T08:16:56.72Z</time></trkpt><trkpt lat="43.799715" lon="12.000945"><ele>750.0</ele><time>2026-04-22T08:16:57.72Z</time></trkpt><trkpt lat="43.7996" lon="12.0009533"><ele>750.0</ele><time>2026-04-22T08:16:58.72Z</time></trkpt><trkpt lat="43.799485" lon="12.0009933"><ele>750.0</ele><time>2026-04-22T08:16:59.72Z</time></trkpt><trkpt lat="43.7993667" lon="12.00105"><ele>750.0</ele><time>2026-04-22T08:17:00.72Z</time></trkpt><trkpt lat="43.79926" lon="12.001115"><ele>750.0</ele><time>2026-04-22T08:17:01.72Z</time></trkpt><trkpt lat="43.7991483" lon="12.0011917"><ele>750.0</ele><time>2026-04-22T08:17:02.72Z</time></trkpt><trkpt lat="43.7990417" lon="12.0012767"><ele>750.0</ele><time>2026-04-22T08:17:03.72Z</time></trkpt><trkpt lat="43.798925" lon="12.001355"><ele>750.0</ele><time>2026-04-22T08:17:04.72Z</time></trkpt><trkpt lat="43.798805" lon="12.001435"><ele>750.0</ele><time>2026-04-22T08:17:05.72Z</time></trkpt><trkpt lat="43.798685" lon="12.001515"><ele>750.0</ele><time>2026-04-22T08:17:06.72Z</time></trkpt><trkpt lat="43.7985667" lon="12.0015967"><ele>750.0</ele><time>2026-04-22T08:17:07.72Z</time></trkpt><trkpt lat="43.7984517" lon="12.0016767"><ele>750.0</ele><time>2026-04-22T08:17:08.72Z</time></trkpt><trkpt lat="43.7983367" lon="12.0017583"><ele>750.0</ele><time>2026-04-22T08:17:09.72Z</time></trkpt><trkpt lat="43.79822" lon="12.001845"><ele>753.5</ele><time>2026-04-22T08:17:10.72Z</time></trkpt><trkpt lat="43.7981033" lon="12.0019283"><ele>757.0</ele><time>2026-04-22T08:17:11.72Z</time></trkpt><trkpt lat="43.79799" lon="12.0020167"><ele>760.5</ele><time>2026-04-22T08:17:12.721Z</time></trkpt><trkpt lat="43.79787" lon="12.0021"><ele>764.0</ele><time>2026-04-22T08:17:13.721Z</time></trkpt><trkpt lat="43.7977517" lon="12.0021917"><ele>767.75</ele><time>2026-04-22T08:17:14.72Z</time></trkpt><trkpt lat="43.7976367" lon="12.0022833"><ele>771.5</ele><time>2026-04-22T08:17:15.72Z</time></trkpt><trkpt lat="43.7975217" lon="12.0023833"><ele>775.25</ele><time>2026-04-22T08:17:16.72Z</time></trkpt><trkpt lat="43.797405" lon="12.0024833"><ele>779.0</ele><time>2026-04-22T08:17:17.721Z</time></trkpt><trkpt lat="43.79729" lon="12.0025783"><ele>779.0</ele><time>2026-04-22T08:17:18.72Z</time></trkpt><trkpt lat="43.79717" lon="12.002675"><ele>779.0</ele><time>2026-04-22T08:17:19.72Z</time></trkpt><trkpt lat="43.79705" lon="12.0027683"><ele>779.0</ele><time>2026-04-22T08:17:20.72Z</time></trkpt><trkpt lat="43.7969367" lon="12.002865"><ele>779.0</ele><time>2026-04-22T08:17:21.72Z</time></trkpt><trkpt lat="43.7968183" lon="12.0029567"><ele>783.25</ele><time>2026-04-22T08:17:22.72Z</time></trkpt><trkpt lat="43.796695" lon="12.003055"><ele>787.5</ele><time>2026-04-22T08:17:23.72Z</time></trkpt><trkpt lat="43.796575" lon="12.00315"><ele>791.75</ele><time>2026-04-22T08:17:24.721Z</time></trkpt><trkpt lat="43.7964683" lon="12.0032583"><ele>796.0</ele><time>2026-04-22T08:17:25.72Z</time></trkpt><trkpt lat="43.79637" lon="12.0033983"><ele>796.0</ele><time>2026-04-22T08:17:26.72Z</time></trkpt><trkpt lat="43.7962933" lon="12.003555"><ele>796.0</ele><time>2026-04-22T08:17:27.72Z</time></trkpt><trkpt lat="43.79623" lon="12.0037167"><ele>796.0</ele><time>2026-04-22T08:17:28.72Z</time></trkpt><trkpt lat="43.79618" lon="12.0038633"><ele>796.0</ele><time>2026-04-22T08:17:29.72Z</time></trkpt><trkpt lat="43.7961233" lon="12.0039967"><ele>796.0</ele><time>2026-04-22T08:17:30.721Z</time></trkpt><trkpt lat="43.7960483" lon="12.0041067"><ele>796.0</ele><time>2026-04-22T08:17:31.72Z</time></trkpt><trkpt lat="43.7959467" lon="12.0042"><ele>796.0</ele><time>2026-04-22T08:17:32.72Z</time></trkpt><trkpt lat="43.79583" lon="12.0042833"><ele>796.0</ele><time>2026-04-22T08:17:33.72Z</time></trkpt><trkpt lat="43.795695" lon="12.0043633"><ele>795.5</ele><time>2026-04-22T08:17:34.72Z</time></trkpt><trkpt lat="43.79555" lon="12.0044283"><ele>795.0</ele><time>2026-04-22T08:17:35.72Z</time></trkpt><trkpt lat="43.795405" lon="12.0044983"><ele>794.5</ele><time>2026-04-22T08:17:36.72Z</time></trkpt><trkpt lat="43.79527" lon="12.00455"><ele>794.0</ele><time>2026-04-22T08:17:37.72Z</time></trkpt><trkpt lat="43.795135" lon="12.0045833"><ele>793.25</ele><time>2026-04-22T08:17:38.72Z</time></trkpt><trkpt lat="43.7950117" lon="12.0046167"><ele>792.5</ele><time>2026-04-22T08:17:39.72Z</time></trkpt><trkpt lat="43.7948867" lon="12.004635"><ele>791.75</ele><time>2026-04-22T08:17:40.72Z</time></trkpt><trkpt lat="43.7947633" lon="12.00465"><ele>791.0</ele><time>2026-04-22T08:17:41.721Z</time></trkpt><trkpt lat="43.7946383" lon="12.0046467"><ele>791.0</ele><time>2026-04-22T08:17:42.72Z</time></trkpt><trkpt lat="43.7945083" lon="12.0046283"><ele>791.0</ele><time>2026-04-22T08:17:43.721Z</time></trkpt><trkpt lat="43.7943883" lon="12.0045883"><ele>791.0</ele><time>2026-04-22T08:17:44.72Z</time></trkpt><trkpt lat="43.79428" lon="12.0045417"><ele>791.0</ele><time>2026-04-22T08:17:45.72Z</time></trkpt><trkpt lat="43.7941917" lon="12.0045183"><ele>792.4</ele><time>2026-04-22T08:17:46.72Z</time></trkpt><trkpt lat="43.79409" lon="12.0044917"><ele>793.8</ele><time>2026-04-22T08:17:47.72Z</time></trkpt><trkpt lat="43.794" lon="12.0044583"><ele>795.1999999999999</ele><time>2026-04-22T08:17:48.72Z</time></trkpt><trkpt lat="43.793905" lon="12.0044283"><ele>796.5999999999999</ele><time>2026-04-22T08:17:49.72Z</time></trkpt><trkpt lat="43.7938083" lon="12.0044183"><ele>798.0</ele><time>2026-04-22T08:17:50.72Z</time></trkpt><trkpt lat="43.793715" lon="12.004395"><ele>798.0</ele><time>2026-04-22T08:17:51.72Z</time></trkpt><trkpt lat="43.7936217" lon="12.004365"><ele>798.0</ele><time>2026-04-22T08:17:52.72Z</time></trkpt><trkpt lat="43.79353" lon="12.0043233"><ele>798.0</ele><time>2026-04-22T08:17:53.72Z</time></trkpt><trkpt lat="43.7934483" lon="12.0042683"><ele>798.0</ele><time>2026-04-22T08:17:54.72Z</time></trkpt><trkpt lat="43.793375" lon="12.0042233"><ele>798.0</ele><time>2026-04-22T08:17:55.72Z</time></trkpt><trkpt lat="43.7933083" lon="12.00417"><ele>798.0</ele><time>2026-04-22T08:17:56.72Z</time></trkpt><trkpt lat="43.7932483" lon="12.00412"><ele>798.8</ele><time>2026-04-22T08:17:57.72Z</time></trkpt><trkpt lat="43.7931967" lon="12.00407"><ele>799.5999999999999</ele><time>2026-04-22T08:17:58.721Z</time></trkpt><trkpt lat="43.7931" lon="12.0039917"><ele>800.4000000000001</ele><time>2026-04-22T08:18:00.72Z</time></trkpt><trkpt lat="43.7929867" lon="12.0040017"><ele>801.2</ele><time>2026-04-22T08:18:02.72Z</time></trkpt><trkpt lat="43.7929333" lon="12.00405"><ele>802.0</ele><time>2026-04-22T08:18:03.72Z</time></trkpt><trkpt lat="43.7928583" lon="12.0041967"><ele>801.9999999999999</ele><time>2026-04-22T08:18:05.72Z</time></trkpt><trkpt lat="43.7928467" lon="12.004285"><ele>802.0</ele><time>2026-04-22T08:18:06.72Z</time></trkpt><trkpt lat="43.792855" lon="12.004385"><ele>802.0</ele><time>2026-04-22T08:18:07.72Z</time></trkpt><trkpt lat="43.7928867" lon="12.004495"><ele>802.0</ele><time>2026-04-22T08:18:08.72Z</time></trkpt><trkpt lat="43.7929317" lon="12.0046067"><ele>801.9999999999999</ele><time>2026-04-22T08:18:09.72Z</time></trkpt><trkpt lat="43.792985" lon="12.0047083"><ele>802.0</ele><time>2026-04-22T08:18:10.72Z</time></trkpt><trkpt lat="43.7930433" lon="12.0048067"><ele>802.0</ele><time>2026-04-22T08:18:11.721Z</time></trkpt><trkpt lat="43.7931117" lon="12.0049"><ele>802.0</ele><time>2026-04-22T08:18:12.721Z</time></trkpt><trkpt lat="43.79318" lon="12.0050133"><ele>802.0</ele><time>2026-04-22T08:18:13.72Z</time></trkpt><trkpt lat="43.793255" lon="12.005125"><ele>802.0</ele><time>2026-04-22T08:18:14.72Z</time></trkpt><trkpt lat="43.7933167" lon="12.00524"><ele>802.0</ele><time>2026-04-22T08:18:15.72Z</time></trkpt><trkpt lat="43.7933717" lon="12.0053617"><ele>802.6666666666666</ele><time>2026-04-22T08:18:16.72Z</time></trkpt><trkpt lat="43.7934067" lon="12.0054867"><ele>803.3333333333333</ele><time>2026-04-22T08:18:17.72Z</time></trkpt><trkpt lat="43.79341" lon="12.0056033"><ele>804.0</ele><time>2026-04-22T08:18:18.72Z</time></trkpt><trkpt lat="43.7933817" lon="12.00571"><ele>804.6666666666667</ele><time>2026-04-22T08:18:19.72Z</time></trkpt><trkpt lat="43.7933217" lon="12.0057933"><ele>805.3333333333334</ele><time>2026-04-22T08:18:20.72Z</time></trkpt><trkpt lat="43.7932433" lon="12.005845"><ele>806.0</ele><time>2026-04-22T08:18:21.72Z</time></trkpt><trkpt lat="43.7931467" lon="12.00586"><ele>806.0</ele><time>2026-04-22T08:18:22.721Z</time></trkpt><trkpt lat="43.79303" lon="12.0058467"><ele>806.0</ele><time>2026-04-22T08:18:23.72Z</time></trkpt><trkpt lat="43.7929067" lon="12.00583"><ele>806.0</ele><time>2026-04-22T08:18:24.72Z</time></trkpt><trkpt lat="43.7927917" lon="12.00582"><ele>806.0</ele><time>2026-04-22T08:18:25.72Z</time></trkpt><trkpt lat="43.7926783" lon="12.005815"><ele>802.4</ele><time>2026-04-22T08:18:26.72Z</time></trkpt><trkpt lat="43.79257" lon="12.0058017"><ele>798.8</ele><time>2026-04-22T08:18:27.72Z</time></trkpt><trkpt lat="43.7924667" lon="12.005765"><ele>795.1999999999999</ele><time>2026-04-22T08:18:28.72Z</time></trkpt><trkpt lat="43.7923783" lon="12.005715"><ele>791.5999999999999</ele><time>2026-04-22T08:18:29.72Z</time></trkpt><trkpt lat="43.7923017" lon="12.0056417"><ele>788.0</ele><time>2026-04-22T08:18:30.72Z</time></trkpt><trkpt lat="43.792225" lon="12.005575"><ele>788.0000000000001</ele><time>2026-04-22T08:18:31.72Z</time></trkpt><trkpt lat="43.7921433" lon="12.00552"><ele>788.0</ele><time>2026-04-22T08:18:32.72Z</time></trkpt><trkpt lat="43.7920633" lon="12.0054867"><ele>788.0</ele><time>2026-04-22T08:18:33.72Z</time></trkpt><trkpt lat="43.79198" lon="12.00552"><ele>788.0</ele><time>2026-04-22T08:18:34.72Z</time></trkpt><trkpt lat="43.7919017" lon="12.0055817"><ele>788.0000000000001</ele><time>2026-04-22T08:18:35.72Z</time></trkpt><trkpt lat="43.7918433" lon="12.0056667"><ele>788.0</ele><time>2026-04-22T08:18:36.72Z</time></trkpt><trkpt lat="43.79181" lon="12.0057867"><ele>787.8</ele><time>2026-04-22T08:18:37.72Z</time></trkpt><trkpt lat="43.7918" lon="12.0059133"><ele>787.5999999999999</ele><time>2026-04-22T08:18:38.72Z</time></trkpt><trkpt lat="43.7918383" lon="12.0060417"><ele>787.4000000000001</ele><time>2026-04-22T08:18:39.72Z</time></trkpt><trkpt lat="43.7918883" lon="12.0061617"><ele>787.2</ele><time>2026-04-22T08:18:40.72Z</time></trkpt><trkpt lat="43.79194" lon="12.0062967"><ele>787.0</ele><time>2026-04-22T08:18:41.72Z</time></trkpt><trkpt lat="43.7919717" lon="12.00643"><ele>787.6</ele><time>2026-04-22T08:18:42.72Z</time></trkpt><trkpt lat="43.791975" lon="12.0065633"><ele>788.2</ele><time>2026-04-22T08:18:43.72Z</time></trkpt><trkpt lat="43.7919483" lon="12.0067"><ele>788.8</ele><time>2026-04-22T08:18:44.72Z</time></trkpt><trkpt lat="43.7918983" lon="12.0068333"><ele>789.4</ele><time>2026-04-22T08:18:45.72Z</time></trkpt><trkpt lat="43.79183" lon="12.0069683"><ele>790.0</ele><time>2026-04-22T08:18:46.72Z</time></trkpt><trkpt lat="43.7917633" lon="12.00711"><ele>790.0</ele><time>2026-04-22T08:18:47.72Z</time></trkpt><trkpt lat="43.7917033" lon="12.0072467"><ele>790.0</ele><time>2026-04-22T08:18:48.721Z</time></trkpt><trkpt lat="43.7916333" lon="12.0073783"><ele>790.0</ele><time>2026-04-22T08:18:49.72Z</time></trkpt><trkpt lat="43.791575" lon="12.0075033"><ele>790.0</ele><time>2026-04-22T08:18:50.72Z</time></trkpt><trkpt lat="43.7915033" lon="12.0075983"><ele>790.0</ele><time>2026-04-22T08:18:51.72Z</time></trkpt><trkpt lat="43.7914117" lon="12.00767"><ele>791.5</ele><time>2026-04-22T08:18:52.721Z</time></trkpt><trkpt lat="43.791305" lon="12.0077117"><ele>793.0</ele><time>2026-04-22T08:18:53.72Z</time></trkpt><trkpt lat="43.79119" lon="12.0077417"><ele>794.5</ele><time>2026-04-22T08:18:54.72Z</time></trkpt><trkpt lat="43.7910733" lon="12.00777"><ele>796.0</ele><time>2026-04-22T08:18:55.72Z</time></trkpt><trkpt lat="43.7909617" lon="12.0078"><ele>793.1999999999999</ele><time>2026-04-22T08:18:56.72Z</time></trkpt><trkpt lat="43.79085" lon="12.007835"><ele>790.4</ele><time>2026-04-22T08:18:57.72Z</time></trkpt><trkpt lat="43.7907433" lon="12.0078567"><ele>787.6</ele><time>2026-04-22T08:18:58.72Z</time></trkpt><trkpt lat="43.7906383" lon="12.0078933"><ele>784.8</ele><time>2026-04-22T08:18:59.72Z</time></trkpt><trkpt lat="43.7905367" lon="12.00793"><ele>782.0</ele><time>2026-04-22T08:19:00.72Z</time></trkpt><trkpt lat="43.79045" lon="12.00797"><ele>782.0</ele><time>2026-04-22T08:19:01.72Z</time></trkpt><trkpt lat="43.79038" lon="12.0080467"><ele>782.0</ele><time>2026-04-22T08:19:02.72Z</time></trkpt><trkpt lat="43.790325" lon="12.0081583"><ele>782.0</ele><time>2026-04-22T08:19:03.72Z</time></trkpt><trkpt lat="43.7902967" lon="12.0082817"><ele>782.0</ele><time>2026-04-22T08:19:04.72Z</time></trkpt><trkpt lat="43.79027" lon="12.008415"><ele>782.0</ele><time>2026-04-22T08:19:05.72Z</time></trkpt><trkpt lat="43.7902417" lon="12.0085617"><ele>779.5</ele><time>2026-04-22T08:19:06.72Z</time></trkpt><trkpt lat="43.7902167" lon="12.00872"><ele>777.0</ele><time>2026-04-22T08:19:07.72Z</time></trkpt><trkpt lat="43.7901883" lon="12.0088867"><ele>774.5</ele><time>2026-04-22T08:19:08.72Z</time></trkpt><trkpt lat="43.7901717" lon="12.009045"><ele>772.0</ele><time>2026-04-22T08:19:09.72Z</time></trkpt><trkpt lat="43.7901633" lon="12.00921"><ele>772.0</ele><time>2026-04-22T08:19:10.721Z</time></trkpt><trkpt lat="43.7901683" lon="12.0093733"><ele>772.0</ele><time>2026-04-22T08:19:11.72Z</time></trkpt><trkpt lat="43.790175" lon="12.0095333"><ele>772.0</ele><time>2026-04-22T08:19:12.721Z</time></trkpt><trkpt lat="43.7901883" lon="12.00969"><ele>772.0</ele><time>2026-04-22T08:19:13.72Z</time></trkpt><trkpt lat="43.7901983" lon="12.00984"><ele>782.25</ele><time>2026-04-22T08:19:14.72Z</time></trkpt><trkpt lat="43.7902" lon="12.009985"><ele>792.5</ele><time>2026-04-22T08:19:15.72Z</time></trkpt><trkpt lat="43.7902117" lon="12.0101367"><ele>802.75</ele><time>2026-04-22T08:19:16.721Z</time></trkpt><trkpt lat="43.7902267" lon="12.0102933"><ele>813.0</ele><time>2026-04-22T08:19:17.72Z</time></trkpt><trkpt lat="43.7902617" lon="12.0104567"><ele>814.2</ele><time>2026-04-22T08:19:18.72Z</time></trkpt><trkpt lat="43.7903" lon="12.010585"><ele>815.4</ele><time>2026-04-22T08:19:19.72Z</time></trkpt><trkpt lat="43.79036" lon="12.0106967"><ele>816.6</ele><time>2026-04-22T08:19:20.72Z</time></trkpt><trkpt lat="43.7904267" lon="12.0107817"><ele>817.8000000000001</ele><time>2026-04-22T08:19:21.72Z</time></trkpt><trkpt lat="43.790495" lon="12.010855"><ele>819.0</ele><time>2026-04-22T08:19:22.72Z</time></trkpt><trkpt lat="43.7905617" lon="12.0109467"><ele>816.1666666666666</ele><time>2026-04-22T08:19:23.721Z</time></trkpt><trkpt lat="43.7906067" lon="12.0110567"><ele>813.3333333333333</ele><time>2026-04-22T08:19:24.72Z</time></trkpt><trkpt lat="43.7906333" lon="12.011165"><ele>810.5</ele><time>2026-04-22T08:19:25.72Z</time></trkpt><trkpt lat="43.7906533" lon="12.0112783"><ele>807.6666666666666</ele><time>2026-04-22T08:19:26.72Z</time></trkpt><trkpt lat="43.7906533" lon="12.0113917"><ele>804.8333333333333</ele><time>2026-04-22T08:19:27.72Z</time></trkpt><trkpt lat="43.7906333" lon="12.0115083"><ele>802.0</ele><time>2026-04-22T08:19:28.72Z</time></trkpt><trkpt lat="43.7905967" lon="12.0116217"><ele>801.0</ele><time>2026-04-22T08:19:29.72Z</time></trkpt><trkpt lat="43.7905367" lon="12.0117217"><ele>800.0</ele><time>2026-04-22T08:19:30.72Z</time></trkpt><trkpt lat="43.7904833" lon="12.0118333"><ele>799.0</ele><time>2026-04-22T08:19:31.72Z</time></trkpt><trkpt lat="43.7904483" lon="12.0119633"><ele>798.0</ele><time>2026-04-22T08:19:32.72Z</time></trkpt><trkpt lat="43.790435" lon="12.012095"><ele>797.0</ele><time>2026-04-22T08:19:33.72Z</time></trkpt><trkpt lat="43.7904467" lon="12.0122383"><ele>797.0</ele><time>2026-04-22T08:19:34.72Z</time></trkpt><trkpt lat="43.7904683" lon="12.0123783"><ele>797.0</ele><time>2026-04-22T08:19:35.72Z</time></trkpt><trkpt lat="43.7905" lon="12.0125167"><ele>797.0</ele><time>2026-04-22T08:19:36.72Z</time></trkpt><trkpt lat="43.7905333" lon="12.0126467"><ele>797.0</ele><time>2026-04-22T08:19:37.72Z</time></trkpt><trkpt lat="43.7905683" lon="12.01277"><ele>797.0</ele><time>2026-04-22T08:19:38.72Z</time></trkpt><trkpt lat="43.7906033" lon="12.0129083"><ele>796.1666666666667</ele><time>2026-04-22T08:19:39.72Z</time></trkpt><trkpt lat="43.79064" lon="12.0130333"><ele>795.3333333333334</ele><time>2026-04-22T08:19:40.72Z</time></trkpt><trkpt lat="43.7906717" lon="12.0131567"><ele>794.5</ele><time>2026-04-22T08:19:41.72Z</time></trkpt><trkpt lat="43.7907" lon="12.0132717"><ele>793.6666666666667</ele><time>2026-04-22T08:19:42.721Z</time></trkpt><trkpt lat="43.790725" lon="12.0133567"><ele>792.8333333333334</ele><time>2026-04-22T08:19:43.72Z</time></trkpt><trkpt lat="43.79075" lon="12.0134483"><ele>792.0</ele><time>2026-04-22T08:19:45.72Z</time></trkpt><trkpt lat="43.7907817" lon="12.0135583"><ele>789.5</ele><time>2026-04-22T08:19:47.72Z</time></trkpt><trkpt lat="43.7908283" lon="12.0137033"><ele>787.0</ele><time>2026-04-22T08:19:49.72Z</time></trkpt><trkpt lat="43.790855" lon="12.01387"><ele>784.5</ele><time>2026-04-22T08:19:51.72Z</time></trkpt><trkpt lat="43.7908717" lon="12.014055"><ele>782.0</ele><time>2026-04-22T08:19:53.72Z</time></trkpt><trkpt lat="43.7908633" lon="12.014165"><ele>780.8</ele><time>2026-04-22T08:19:54.72Z</time></trkpt><trkpt lat="43.7908333" lon="12.01427"><ele>779.6</ele><time>2026-04-22T08:19:55.72Z</time></trkpt><trkpt lat="43.7907867" lon="12.0143767"><ele>778.4</ele><time>2026-04-22T08:19:56.721Z</time></trkpt><trkpt lat="43.7907283" lon="12.0144767"><ele>777.1999999999999</ele><time>2026-04-22T08:19:57.72Z</time></trkpt><trkpt lat="43.7906517" lon="12.0145617"><ele>776.0</ele><time>2026-04-22T08:19:58.72Z</time></trkpt><trkpt lat="43.7905617" lon="12.014635"><ele>776.0</ele><time>2026-04-22T08:19:59.72Z</time></trkpt><trkpt lat="43.7904617" lon="12.0146867"><ele>776.0</ele><time>2026-04-22T08:20:00.72Z</time></trkpt><trkpt lat="43.7903483" lon="12.014715"><ele>776.0</ele><time>2026-04-22T08:20:01.72Z</time></trkpt><trkpt lat="43.7902367" lon="12.0147133"><ele>776.0</ele><time>2026-04-22T08:20:02.721Z</time></trkpt><trkpt lat="43.7901283" lon="12.0146917"><ele>776.0</ele><time>2026-04-22T08:20:03.72Z</time></trkpt><trkpt lat="43.790015" lon="12.014665"><ele>771.75</ele><time>2026-04-22T08:20:04.72Z</time></trkpt><trkpt lat="43.7898983" lon="12.01463"><ele>767.5</ele><time>2026-04-22T08:20:05.72Z</time></trkpt><trkpt lat="43.7897833" lon="12.0145983"><ele>763.25</ele><time>2026-04-22T08:20:06.72Z</time></trkpt><trkpt lat="43.7896667" lon="12.0145717"><ele>759.0</ele><time>2026-04-22T08:20:07.72Z</time></trkpt><trkpt lat="43.78956" lon="12.01453"><ele>759.0</ele><time>2026-04-22T08:20:08.72Z</time></trkpt><trkpt lat="43.7894567" lon="12.0144833"><ele>759.0</ele><time>2026-04-22T08:20:09.72Z</time></trkpt><trkpt lat="43.789355" lon="12.014425"><ele>759.0</ele><time>2026-04-22T08:20:10.72Z</time></trkpt><trkpt lat="43.78926" lon="12.0143433"><ele>759.0</ele><time>2026-04-22T08:20:11.721Z</time></trkpt><trkpt lat="43.789165" lon="12.0142483"><ele>759.0</ele><time>2026-04-22T08:20:12.72Z</time></trkpt><trkpt lat="43.789085" lon="12.0141533"><ele>758.0</ele><time>2026-04-22T08:20:13.721Z</time></trkpt><trkpt lat="43.7890033" lon="12.014075"><ele>757.0</ele><time>2026-04-22T08:20:14.72Z</time></trkpt><trkpt lat="43.7889267" lon="12.014005"><ele>756.0</ele><time>2026-04-22T08:20:15.72Z</time></trkpt><trkpt lat="43.7888383" lon="12.013965"><ele>755.0</ele><time>2026-04-22T08:20:16.72Z</time></trkpt><trkpt lat="43.7887633" lon="12.0139533"><ele>754.0</ele><time>2026-04-22T08:20:17.72Z</time></trkpt><trkpt lat="43.7886867" lon="12.01397"><ele>753.0</ele><time>2026-04-22T08:20:18.72Z</time></trkpt><trkpt lat="43.7886233" lon="12.0140167"><ele>753.0</ele><time>2026-04-22T08:20:19.721Z</time></trkpt><trkpt lat="43.7885617" lon="12.01408"><ele>753.0</ele><time>2026-04-22T08:20:20.721Z</time></trkpt><trkpt lat="43.78851" lon="12.014165"><ele>753.0</ele><time>2026-04-22T08:20:21.721Z</time></trkpt><trkpt lat="43.7884683" lon="12.0142717"><ele>753.0</ele><time>2026-04-22T08:20:22.72Z</time></trkpt><trkpt lat="43.78842" lon="12.014385"><ele>753.0</ele><time>2026-04-22T08:20:23.72Z</time></trkpt><trkpt lat="43.7883733" lon="12.0145033"><ele>753.0</ele><time>2026-04-22T08:20:24.72Z</time></trkpt><trkpt lat="43.78831" lon="12.014615"><ele>754.5999999999999</ele><time>2026-04-22T08:20:25.72Z</time></trkpt><trkpt lat="43.7882383" lon="12.0147033"><ele>756.1999999999999</ele><time>2026-04-22T08:20:26.72Z</time></trkpt><trkpt lat="43.7881617" lon="12.0147717"><ele>757.8</ele><time>2026-04-22T08:20:27.72Z</time></trkpt><trkpt lat="43.788065" lon="12.0148067"><ele>759.4</ele><time>2026-04-22T08:20:28.72Z</time></trkpt><trkpt lat="43.7879617" lon="12.0148317"><ele>761.0</ele><time>2026-04-22T08:20:29.72Z</time></trkpt><trkpt lat="43.787865" lon="12.01485"><ele>761.0</ele><time>2026-04-22T08:20:30.72Z</time></trkpt><trkpt lat="43.7877533" lon="12.014855"><ele>761.0</ele><time>2026-04-22T08:20:31.721Z</time></trkpt><trkpt lat="43.7876417" lon="12.01488"><ele>761.0</ele><time>2026-04-22T08:20:32.72Z</time></trkpt><trkpt lat="43.7875433" lon="12.01492"><ele>761.0</ele><time>2026-04-22T08:20:33.72Z</time></trkpt><trkpt lat="43.787455" lon="12.0149783"><ele>761.0</ele><time>2026-04-22T08:20:34.72Z</time></trkpt><trkpt lat="43.7873783" lon="12.0150433"><ele>762.5</ele><time>2026-04-22T08:20:35.72Z</time></trkpt><trkpt lat="43.787335" lon="12.0151367"><ele>764.0</ele><time>2026-04-22T08:20:36.72Z</time></trkpt><trkpt lat="43.7873067" lon="12.01525"><ele>765.5</ele><time>2026-04-22T08:20:37.72Z</time></trkpt><trkpt lat="43.7873017" lon="12.0153733"><ele>767.0</ele><time>2026-04-22T08:20:38.72Z</time></trkpt><trkpt lat="43.78732" lon="12.0154967"><ele>768.5000000000001</ele><time>2026-04-22T08:20:39.72Z</time></trkpt><trkpt lat="43.7873567" lon="12.0156067"><ele>770.0</ele><time>2026-04-22T08:20:40.72Z</time></trkpt><trkpt lat="43.7874133" lon="12.0157"><ele>770.0</ele><time>2026-04-22T08:20:41.721Z</time></trkpt><trkpt lat="43.787485" lon="12.015775"><ele>770.0</ele><time>2026-04-22T08:20:42.72Z</time></trkpt><trkpt lat="43.7875667" lon="12.0158267"><ele>770.0</ele><time>2026-04-22T08:20:43.72Z</time></trkpt><trkpt lat="43.7876583" lon="12.015835"><ele>770.0</ele><time>2026-04-22T08:20:44.72Z</time></trkpt><trkpt lat="43.7877533" lon="12.0158167"><ele>770.0</ele><time>2026-04-22T08:20:45.72Z</time></trkpt><trkpt lat="43.7878567" lon="12.0157717"><ele>770.3333333333334</ele><time>2026-04-22T08:20:46.72Z</time></trkpt><trkpt lat="43.7879583" lon="12.01572"><ele>770.6666666666667</ele><time>2026-04-22T08:20:47.72Z</time></trkpt><trkpt lat="43.7880533" lon="12.0156833"><ele>771.0</ele><time>2026-04-22T08:20:48.72Z</time></trkpt><trkpt lat="43.7881383" lon="12.0156833"><ele>771.3333333333333</ele><time>2026-04-22T08:20:49.72Z</time></trkpt><trkpt lat="43.7882133" lon="12.0157067"><ele>771.6666666666666</ele><time>2026-04-22T08:20:50.72Z</time></trkpt><trkpt lat="43.78827" lon="12.015755"><ele>772.0</ele><time>2026-04-22T08:20:51.72Z</time></trkpt><trkpt lat="43.7883167" lon="12.01585"><ele>773.3333333333333</ele><time>2026-04-22T08:20:52.72Z</time></trkpt><trkpt lat="43.7883383" lon="12.0159617"><ele>774.6666666666666</ele><time>2026-04-22T08:20:53.72Z</time></trkpt><trkpt lat="43.78833" lon="12.016075"><ele>776.0</ele><time>2026-04-22T08:20:54.72Z</time></trkpt><trkpt lat="43.7883" lon="12.0161817"><ele>777.3333333333333</ele><time>2026-04-22T08:20:55.72Z</time></trkpt><trkpt lat="43.7882467" lon="12.0162517"><ele>778.6666666666666</ele><time>2026-04-22T08:20:56.72Z</time></trkpt><trkpt lat="43.7881717" lon="12.0162983"><ele>780.0</ele><time>2026-04-22T08:20:57.72Z</time></trkpt><trkpt lat="43.788085" lon="12.0163183"><ele>780.0</ele><time>2026-04-22T08:20:58.721Z</time></trkpt><trkpt lat="43.7879883" lon="12.0163217"><ele>780.0</ele><time>2026-04-22T08:20:59.72Z</time></trkpt><trkpt lat="43.78789" lon="12.01632"><ele>780.0</ele><time>2026-04-22T08:21:00.72Z</time></trkpt><trkpt lat="43.7878" lon="12.0163283"><ele>780.0</ele><time>2026-04-22T08:21:01.72Z</time></trkpt><trkpt lat="43.7877167" lon="12.01636"><ele>780.0</ele><time>2026-04-22T08:21:02.72Z</time></trkpt><trkpt lat="43.7876433" lon="12.016435"><ele>779.3333333333334</ele><time>2026-04-22T08:21:03.72Z</time></trkpt><trkpt lat="43.7875883" lon="12.0165233"><ele>778.6666666666667</ele><time>2026-04-22T08:21:04.721Z</time></trkpt><trkpt lat="43.7875567" lon="12.0166267"><ele>778.0</ele><time>2026-04-22T08:21:05.72Z</time></trkpt><trkpt lat="43.787555" lon="12.01674"><ele>777.3333333333334</ele><time>2026-04-22T08:21:06.72Z</time></trkpt><trkpt lat="43.7876117" lon="12.016845"><ele>776.6666666666667</ele><time>2026-04-22T08:21:07.721Z</time></trkpt><trkpt lat="43.7876817" lon="12.0169283"><ele>776.0</ele><time>2026-04-22T08:21:08.721Z</time></trkpt><trkpt lat="43.7877567" lon="12.01699"><ele>778.8</ele><time>2026-04-22T08:21:09.721Z</time></trkpt><trkpt lat="43.7878483" lon="12.0170217"><ele>781.5999999999999</ele><time>2026-04-22T08:21:10.72Z</time></trkpt><trkpt lat="43.787945" lon="12.01705"><ele>784.4</ele><time>2026-04-22T08:21:11.72Z</time></trkpt><trkpt lat="43.78804" lon="12.0170933"><ele>787.2</ele><time>2026-04-22T08:21:12.721Z</time></trkpt><trkpt lat="43.7881333" lon="12.0171583"><ele>790.0</ele><time>2026-04-22T08:21:13.72Z</time></trkpt><trkpt lat="43.7882133" lon="12.0172633"><ele>790.0</ele><time>2026-04-22T08:21:14.72Z</time></trkpt><trkpt lat="43.78828" lon="12.0173883"><ele>790.0</ele><time>2026-04-22T08:21:15.72Z</time></trkpt><trkpt lat="43.788345" lon="12.017515"><ele>790.0</ele><time>2026-04-22T08:21:16.72Z</time></trkpt><trkpt lat="43.7884117" lon="12.0176367"><ele>790.0</ele><time>2026-04-22T08:21:17.72Z</time></trkpt><trkpt lat="43.78848" lon="12.0177667"><ele>790.3333333333333</ele><time>2026-04-22T08:21:18.72Z</time></trkpt><trkpt lat="43.7885483" lon="12.0178733"><ele>790.6666666666666</ele><time>2026-04-22T08:21:19.72Z</time></trkpt><trkpt lat="43.78862" lon="12.01796"><ele>791.0</ele><time>2026-04-22T08:21:20.72Z</time></trkpt><trkpt lat="43.7886883" lon="12.0180317"><ele>791.3333333333333</ele><time>2026-04-22T08:21:21.72Z</time></trkpt><trkpt lat="43.788745" lon="12.0181083"><ele>791.6666666666666</ele><time>2026-04-22T08:21:22.72Z</time></trkpt><trkpt lat="43.7887833" lon="12.0181867"><ele>792.0</ele><time>2026-04-22T08:21:23.72Z</time></trkpt><trkpt lat="43.7887967" lon="12.0182733"><ele>793.5</ele><time>2026-04-22T08:21:24.72Z</time></trkpt><trkpt lat="43.7887817" lon="12.0183583"><ele>795.0</ele><time>2026-04-22T08:21:25.72Z</time></trkpt><trkpt lat="43.7886917" lon="12.0184633"><ele>796.5</ele><time>2026-04-22T08:21:27.72Z</time></trkpt><trkpt lat="43.7886217" lon="12.0184617"><ele>798.0</ele><time>2026-04-22T08:21:28.72Z</time></trkpt><trkpt lat="43.7885583" lon="12.0184233"><ele>799.5</ele><time>2026-04-22T08:21:29.72Z</time></trkpt><trkpt lat="43.7885017" lon="12.01834"><ele>801.0</ele><time>2026-04-22T08:21:30.72Z</time></trkpt><trkpt lat="43.7884517" lon="12.0182283"><ele>801.0</ele><time>2026-04-22T08:21:31.72Z</time></trkpt><trkpt lat="43.788405" lon="12.0181017"><ele>801.0</ele><time>2026-04-22T08:21:32.72Z</time></trkpt><trkpt lat="43.788365" lon="12.01799"><ele>801.0</ele><time>2026-04-22T08:21:33.72Z</time></trkpt><trkpt lat="43.7883" lon="12.0179117"><ele>801.0</ele><time>2026-04-22T08:21:34.72Z</time></trkpt><trkpt lat="43.7882283" lon="12.017865"><ele>801.0</ele><time>2026-04-22T08:21:35.721Z</time></trkpt><trkpt lat="43.7881533" lon="12.0178683"><ele>801.0</ele><time>2026-04-22T08:21:36.72Z</time></trkpt><trkpt lat="43.7880883" lon="12.0179267"><ele>801.0</ele><time>2026-04-22T08:21:37.72Z</time></trkpt><trkpt lat="43.7880417" lon="12.0180217"><ele>801.0</ele><time>2026-04-22T08:21:38.72Z</time></trkpt><trkpt lat="43.7880167" lon="12.018125"><ele>801.0</ele><time>2026-04-22T08:21:39.72Z</time></trkpt><trkpt lat="43.7880283" lon="12.01823"><ele>801.0</ele><time>2026-04-22T08:21:40.721Z</time></trkpt><trkpt lat="43.78807" lon="12.0183417"><ele>801.0</ele><time>2026-04-22T08:21:41.721Z</time></trkpt><trkpt lat="43.788135" lon="12.0184483"><ele>801.0</ele><time>2026-04-22T08:21:42.72Z</time></trkpt><trkpt lat="43.7882" lon="12.0185633"><ele>802.5999999999999</ele><time>2026-04-22T08:21:43.72Z</time></trkpt><trkpt lat="43.7882467" lon="12.0186767"><ele>804.2</ele><time>2026-04-22T08:21:44.72Z</time></trkpt><trkpt lat="43.7882733" lon="12.0187967"><ele>805.8</ele><time>2026-04-22T08:21:45.72Z</time></trkpt><trkpt lat="43.7882683" lon="12.0189317"><ele>807.4000000000001</ele><time>2026-04-22T08:21:46.72Z</time></trkpt><trkpt lat="43.7882483" lon="12.0190667"><ele>809.0</ele><time>2026-04-22T08:21:47.72Z</time></trkpt><trkpt lat="43.78821" lon="12.0192133"><ele>810.75</ele><time>2026-04-22T08:21:48.72Z</time></trkpt><trkpt lat="43.7881783" lon="12.0193683"><ele>812.5</ele><time>2026-04-22T08:21:49.72Z</time></trkpt><trkpt lat="43.7881417" lon="12.0195333"><ele>814.25</ele><time>2026-04-22T08:21:50.72Z</time></trkpt><trkpt lat="43.7880967" lon="12.0196883"><ele>816.0</ele><time>2026-04-22T08:21:51.72Z</time></trkpt><trkpt lat="43.788055" lon="12.019855"><ele>817.5</ele><time>2026-04-22T08:21:52.72Z</time></trkpt><trkpt lat="43.7880133" lon="12.0200267"><ele>819.0</ele><time>2026-04-22T08:21:53.72Z</time></trkpt><trkpt lat="43.7879733" lon="12.02019"><ele>820.5</ele><time>2026-04-22T08:21:54.72Z</time></trkpt><trkpt lat="43.787935" lon="12.0203583"><ele>822.0</ele><time>2026-04-22T08:21:55.72Z</time></trkpt><trkpt lat="43.787905" lon="12.02053"><ele>822.0</ele><time>2026-04-22T08:21:56.72Z</time></trkpt><trkpt lat="43.7878733" lon="12.0206967"><ele>822.0</ele><time>2026-04-22T08:21:57.72Z</time></trkpt><trkpt lat="43.7878417" lon="12.0208667"><ele>822.0</ele><time>2026-04-22T08:21:58.72Z</time></trkpt><trkpt lat="43.7878183" lon="12.0210317"><ele>822.0</ele><time>2026-04-22T08:21:59.72Z</time></trkpt><trkpt lat="43.78781" lon="12.0212167"><ele>823.75</ele><time>2026-04-22T08:22:00.72Z</time></trkpt><trkpt lat="43.7878083" lon="12.0214017"><ele>825.5</ele><time>2026-04-22T08:22:01.72Z</time></trkpt><trkpt lat="43.7878067" lon="12.0215833"><ele>827.25</ele><time>2026-04-22T08:22:02.72Z</time></trkpt><trkpt lat="43.787815" lon="12.02177"><ele>829.0</ele><time>2026-04-22T08:22:03.72Z</time></trkpt><trkpt lat="43.7878267" lon="12.021955"><ele>829.0</ele><time>2026-04-22T08:22:04.72Z</time></trkpt><trkpt lat="43.78783" lon="12.0221383"><ele>829.0</ele><time>2026-04-22T08:22:05.72Z</time></trkpt><trkpt lat="43.7878383" lon="12.0223183"><ele>829.0</ele><time>2026-04-22T08:22:06.72Z</time></trkpt><trkpt lat="43.7878517" lon="12.022505"><ele>829.0</ele><time>2026-04-22T08:22:07.72Z</time></trkpt><trkpt lat="43.7878717" lon="12.0226833"><ele>829.0</ele><time>2026-04-22T08:22:08.72Z</time></trkpt><trkpt lat="43.787895" lon="12.0228733"><ele>829.0</ele><time>2026-04-22T08:22:09.72Z</time></trkpt><trkpt lat="43.7879167" lon="12.0230483"><ele>829.0</ele><time>2026-04-22T08:22:10.72Z</time></trkpt><trkpt lat="43.7879483" lon="12.02323"><ele>829.0</ele><time>2026-04-22T08:22:11.72Z</time></trkpt><trkpt lat="43.78798" lon="12.0233967"><ele>827.0</ele><time>2026-04-22T08:22:12.72Z</time></trkpt><trkpt lat="43.7880117" lon="12.0235583"><ele>825.0</ele><time>2026-04-22T08:22:13.72Z</time></trkpt><trkpt lat="43.78805" lon="12.0237283"><ele>823.0</ele><time>2026-04-22T08:22:14.72Z</time></trkpt><trkpt lat="43.788085" lon="12.0238867"><ele>821.0</ele><time>2026-04-22T08:22:15.72Z</time></trkpt><trkpt lat="43.7881217" lon="12.0240533"><ele>822.75</ele><time>2026-04-22T08:22:16.72Z</time></trkpt><trkpt lat="43.7881633" lon="12.0242317"><ele>824.5</ele><time>2026-04-22T08:22:17.72Z</time></trkpt><trkpt lat="43.7882033" lon="12.0244067"><ele>826.25</ele><time>2026-04-22T08:22:18.72Z</time></trkpt><trkpt lat="43.7882417" lon="12.024585"><ele>828.0</ele><time>2026-04-22T08:22:19.72Z</time></trkpt><trkpt lat="43.78829" lon="12.024765"><ele>828.0</ele><time>2026-04-22T08:22:20.72Z</time></trkpt><trkpt lat="43.7883517" lon="12.0249367"><ele>828.0</ele><time>2026-04-22T08:22:21.72Z</time></trkpt><trkpt lat="43.7884217" lon="12.0250917"><ele>828.0</ele><time>2026-04-22T08:22:22.72Z</time></trkpt><trkpt lat="43.7885017" lon="12.0252483"><ele>828.0</ele><time>2026-04-22T08:22:23.72Z</time></trkpt><trkpt lat="43.78859" lon="12.025405"><ele>832.25</ele><time>2026-04-22T08:22:24.72Z</time></trkpt><trkpt lat="43.7886717" lon="12.0255583"><ele>836.5</ele><time>2026-04-22T08:22:25.72Z</time></trkpt><trkpt lat="43.7887433" lon="12.0257133"><ele>840.75</ele><time>2026-04-22T08:22:26.72Z</time></trkpt><trkpt lat="43.7888067" lon="12.0258733"><ele>845.0</ele><time>2026-04-22T08:22:27.72Z</time></trkpt><trkpt lat="43.7888633" lon="12.026045"><ele>845.0</ele><time>2026-04-22T08:22:28.721Z</time></trkpt><trkpt lat="43.7889117" lon="12.026215"><ele>845.0</ele><time>2026-04-22T08:22:29.72Z</time></trkpt><trkpt lat="43.7889533" lon="12.0263917"><ele>845.0</ele><time>2026-04-22T08:22:30.72Z</time></trkpt><trkpt lat="43.7889967" lon="12.0265667"><ele>845.0</ele><time>2026-04-22T08:22:31.72Z</time></trkpt><trkpt lat="43.78904" lon="12.0267367"><ele>844.2</ele><time>2026-04-22T08:22:32.72Z</time></trkpt><trkpt lat="43.7890767" lon="12.0268867"><ele>843.4</ele><time>2026-04-22T08:22:33.72Z</time></trkpt><trkpt lat="43.7891033" lon="12.0270233"><ele>842.5999999999999</ele><time>2026-04-22T08:22:34.72Z</time></trkpt><trkpt lat="43.78911" lon="12.0271483"><ele>841.8</ele><time>2026-04-22T08:22:35.72Z</time></trkpt><trkpt lat="43.7890833" lon="12.027265"><ele>841.0</ele><time>2026-04-22T08:22:36.72Z</time></trkpt><trkpt lat="43.7890417" lon="12.0273717"><ele>841.0</ele><time>2026-04-22T08:22:37.72Z</time></trkpt><trkpt lat="43.7889767" lon="12.0274517"><ele>841.0</ele><time>2026-04-22T08:22:38.72Z</time></trkpt><trkpt lat="43.78889" lon="12.0275133"><ele>841.0</ele><time>2026-04-22T08:22:39.72Z</time></trkpt><trkpt lat="43.7887917" lon="12.027555"><ele>841.0</ele><time>2026-04-22T08:22:40.72Z</time></trkpt><trkpt lat="43.7886933" lon="12.027575"><ele>841.0</ele><time>2026-04-22T08:22:41.72Z</time></trkpt><trkpt lat="43.7886" lon="12.02756"><ele>841.1999999999999</ele><time>2026-04-22T08:22:42.72Z</time></trkpt><trkpt lat="43.788515" lon="12.027505"><ele>841.4</ele><time>2026-04-22T08:22:43.72Z</time></trkpt><trkpt lat="43.788445" lon="12.027425"><ele>841.6</ele><time>2026-04-22T08:22:44.72Z</time></trkpt><trkpt lat="43.7883883" lon="12.0273183"><ele>841.8</ele><time>2026-04-22T08:22:45.72Z</time></trkpt><trkpt lat="43.788335" lon="12.0272"><ele>842.0</ele><time>2026-04-22T08:22:46.72Z</time></trkpt><trkpt lat="43.788285" lon="12.0270717"><ele>841.0</ele><time>2026-04-22T08:22:47.72Z</time></trkpt><trkpt lat="43.78823" lon="12.0269317"><ele>840.0</ele><time>2026-04-22T08:22:48.72Z</time></trkpt><trkpt lat="43.78817" lon="12.026775"><ele>839.0</ele><time>2026-04-22T08:22:49.72Z</time></trkpt><trkpt lat="43.7881067" lon="12.02663"><ele>838.0</ele><time>2026-04-22T08:22:50.72Z</time></trkpt><trkpt lat="43.7880383" lon="12.0264783"><ele>836.2</ele><time>2026-04-22T08:22:51.72Z</time></trkpt><trkpt lat="43.7879717" lon="12.0263367"><ele>834.4</ele><time>2026-04-22T08:22:52.72Z</time></trkpt><trkpt lat="43.7879067" lon="12.0262067"><ele>832.6</ele><time>2026-04-22T08:22:53.72Z</time></trkpt><trkpt lat="43.7878367" lon="12.026105"><ele>830.8000000000001</ele><time>2026-04-22T08:22:54.72Z</time></trkpt><trkpt lat="43.7877583" lon="12.026045"><ele>829.0</ele><time>2026-04-22T08:22:55.72Z</time></trkpt><trkpt lat="43.78768" lon="12.0260233"><ele>832.4000000000001</ele><time>2026-04-22T08:22:56.72Z</time></trkpt><trkpt lat="43.7875867" lon="12.0260417"><ele>835.8</ele><time>2026-04-22T08:22:57.72Z</time></trkpt><trkpt lat="43.7874917" lon="12.0260817"><ele>839.2</ele><time>2026-04-22T08:22:58.72Z</time></trkpt><trkpt lat="43.7873917" lon="12.0261067"><ele>842.5999999999999</ele><time>2026-04-22T08:22:59.72Z</time></trkpt><trkpt lat="43.7872933" lon="12.02609"><ele>846.0</ele><time>2026-04-22T08:23:00.72Z</time></trkpt><trkpt lat="43.78721" lon="12.02604"><ele>846.0</ele><time>2026-04-22T08:23:01.72Z</time></trkpt><trkpt lat="43.7871367" lon="12.025955"><ele>846.0</ele><time>2026-04-22T08:23:02.72Z</time></trkpt><trkpt lat="43.787085" lon="12.0258367"><ele>846.0</ele><time>2026-04-22T08:23:03.72Z</time></trkpt><trkpt lat="43.7870517" lon="12.0257017"><ele>846.0</ele><time>2026-04-22T08:23:04.72Z</time></trkpt><trkpt lat="43.7870283" lon="12.0255533"><ele>846.0</ele><time>2026-04-22T08:23:05.72Z</time></trkpt><trkpt lat="43.787" lon="12.0254167"><ele>847.8</ele><time>2026-04-22T08:23:06.72Z</time></trkpt><trkpt lat="43.78696" lon="12.0252933"><ele>849.5999999999999</ele><time>2026-04-22T08:23:07.721Z</time></trkpt><trkpt lat="43.7869" lon="12.025195"><ele>851.4</ele><time>2026-04-22T08:23:08.72Z</time></trkpt><trkpt lat="43.7868233" lon="12.0251117"><ele>853.2</ele><time>2026-04-22T08:23:09.721Z</time></trkpt><trkpt lat="43.7867333" lon="12.0250417"><ele>855.0</ele><time>2026-04-22T08:23:10.72Z</time></trkpt><trkpt lat="43.786635" lon="12.0250017"><ele>855.0</ele><time>2026-04-22T08:23:11.72Z</time></trkpt><trkpt lat="43.7865333" lon="12.0249833"><ele>855.0</ele><time>2026-04-22T08:23:12.72Z</time></trkpt><trkpt lat="43.7864317" lon="12.0249983"><ele>855.0</ele><time>2026-04-22T08:23:13.72Z</time></trkpt><trkpt lat="43.7863317" lon="12.025035"><ele>855.0</ele><time>2026-04-22T08:23:14.72Z</time></trkpt><trkpt lat="43.7862383" lon="12.0250883"><ele>855.0</ele><time>2026-04-22T08:23:15.72Z</time></trkpt><trkpt lat="43.78615" lon="12.0251433"><ele>855.0</ele><time>2026-04-22T08:23:16.72Z</time></trkpt><trkpt lat="43.786055" lon="12.0251933"><ele>855.0</ele><time>2026-04-22T08:23:17.72Z</time></trkpt><trkpt lat="43.7859683" lon="12.0252467"><ele>855.0</ele><time>2026-04-22T08:23:18.72Z</time></trkpt><trkpt lat="43.7858883" lon="12.0252967"><ele>855.0</ele><time>2026-04-22T08:23:19.72Z</time></trkpt><trkpt lat="43.7858083" lon="12.0253367"><ele>855.0</ele><time>2026-04-22T08:23:20.72Z</time></trkpt><trkpt lat="43.7857183" lon="12.0253667"><ele>857.2</ele><time>2026-04-22T08:23:21.72Z</time></trkpt><trkpt lat="43.7856367" lon="12.0254083"><ele>859.4</ele><time>2026-04-22T08:23:22.72Z</time></trkpt><trkpt lat="43.78555" lon="12.02543"><ele>861.5999999999999</ele><time>2026-04-22T08:23:23.72Z</time></trkpt><trkpt lat="43.7854583" lon="12.0254333"><ele>863.8</ele><time>2026-04-22T08:23:24.721Z</time></trkpt><trkpt lat="43.78536" lon="12.0254217"><ele>866.0</ele><time>2026-04-22T08:23:25.72Z</time></trkpt><trkpt lat="43.7852633" lon="12.0253883"><ele>865.1999999999999</ele><time>2026-04-22T08:23:26.72Z</time></trkpt><trkpt lat="43.7851667" lon="12.0253617"><ele>864.3999999999999</ele><time>2026-04-22T08:23:27.72Z</time></trkpt><trkpt lat="43.7850817" lon="12.02533"><ele>863.6</ele><time>2026-04-22T08:23:28.72Z</time></trkpt><trkpt lat="43.784985" lon="12.0253017"><ele>862.8</ele><time>2026-04-22T08:23:29.72Z</time></trkpt><trkpt lat="43.7848917" lon="12.0253"><ele>862.0</ele><time>2026-04-22T08:23:30.72Z</time></trkpt><trkpt lat="43.7848033" lon="12.0253133"><ele>862.0</ele><time>2026-04-22T08:23:31.72Z</time></trkpt><trkpt lat="43.7847033" lon="12.02533"><ele>862.0</ele><time>2026-04-22T08:23:32.72Z</time></trkpt><trkpt lat="43.7846033" lon="12.0253617"><ele>862.0</ele><time>2026-04-22T08:23:33.72Z</time></trkpt><trkpt lat="43.7845133" lon="12.0253983"><ele>862.0</ele><time>2026-04-22T08:23:34.72Z</time></trkpt><trkpt lat="43.78442" lon="12.025435"><ele>862.0</ele><time>2026-04-22T08:23:35.72Z</time></trkpt><trkpt lat="43.7843233" lon="12.0254667"><ele>861.8</ele><time>2026-04-22T08:23:36.72Z</time></trkpt><trkpt lat="43.78423" lon="12.0255117"><ele>861.6</ele><time>2026-04-22T08:23:37.72Z</time></trkpt><trkpt lat="43.7841317" lon="12.0255567"><ele>861.3999999999999</ele><time>2026-04-22T08:23:38.721Z</time></trkpt><trkpt lat="43.7840267" lon="12.0255983"><ele>861.1999999999999</ele><time>2026-04-22T08:23:39.72Z</time></trkpt><trkpt lat="43.78392" lon="12.0256333"><ele>861.0</ele><time>2026-04-22T08:23:40.721Z</time></trkpt><trkpt lat="43.7838117" lon="12.0256717"><ele>861.0</ele><time>2026-04-22T08:23:41.72Z</time></trkpt><trkpt lat="43.7837067" lon="12.02572"><ele>860.9999999999999</ele><time>2026-04-22T08:23:42.72Z</time></trkpt><trkpt lat="43.783605" lon="12.025785"><ele>860.9999999999999</ele><time>2026-04-22T08:23:43.72Z</time></trkpt><trkpt lat="43.7835083" lon="12.0258417"><ele>861.0</ele><time>2026-04-22T08:23:44.72Z</time></trkpt><trkpt lat="43.7834017" lon="12.0259"><ele>861.0</ele><time>2026-04-22T08:23:45.72Z</time></trkpt><trkpt lat="43.7832983" lon="12.0259483"><ele>857.25</ele><time>2026-04-22T08:23:46.72Z</time></trkpt><trkpt lat="43.7831917" lon="12.02601"><ele>853.5</ele><time>2026-04-22T08:23:47.72Z</time></trkpt><trkpt lat="43.7830817" lon="12.02607"><ele>849.75</ele><time>2026-04-22T08:23:48.72Z</time></trkpt><trkpt lat="43.78298" lon="12.0261283"><ele>846.0</ele><time>2026-04-22T08:23:49.72Z</time></trkpt><trkpt lat="43.7828817" lon="12.026185"><ele>846.0</ele><time>2026-04-22T08:23:50.72Z</time></trkpt><trkpt lat="43.7827933" lon="12.0262667"><ele>846.0</ele><time>2026-04-22T08:23:51.72Z</time></trkpt><trkpt lat="43.78271" lon="12.0263533"><ele>846.0</ele><time>2026-04-22T08:23:52.72Z</time></trkpt><trkpt lat="43.7826417" lon="12.0264717"><ele>846.0</ele><time>2026-04-22T08:23:53.72Z</time></trkpt><trkpt lat="43.7825633" lon="12.026585"><ele>846.0</ele><time>2026-04-22T08:23:54.72Z</time></trkpt><trkpt lat="43.7824833" lon="12.02668"><ele>843.5999999999999</ele><time>2026-04-22T08:23:55.72Z</time></trkpt><trkpt lat="43.7823983" lon="12.026745"><ele>841.2</ele><time>2026-04-22T08:23:56.72Z</time></trkpt><trkpt lat="43.7823" lon="12.0267833"><ele>838.8</ele><time>2026-04-22T08:23:57.72Z</time></trkpt><trkpt lat="43.7821917" lon="12.0267883"><ele>836.4000000000001</ele><time>2026-04-22T08:23:58.72Z</time></trkpt><trkpt lat="43.78208" lon="12.0267767"><ele>834.0</ele><time>2026-04-22T08:23:59.72Z</time></trkpt><trkpt lat="43.7819667" lon="12.0267683"><ele>834.0</ele><time>2026-04-22T08:24:00.72Z</time></trkpt><trkpt lat="43.7818533" lon="12.0267617"><ele>834.0</ele><time>2026-04-22T08:24:01.72Z</time></trkpt><trkpt lat="43.7817417" lon="12.0267383"><ele>834.0</ele><time>2026-04-22T08:24:02.72Z</time></trkpt><trkpt lat="43.7816367" lon="12.0266983"><ele>834.0</ele><time>2026-04-22T08:24:03.72Z</time></trkpt><trkpt lat="43.7815383" lon="12.026625"><ele>834.0</ele><time>2026-04-22T08:24:04.72Z</time></trkpt><trkpt lat="43.7814483" lon="12.0265383"><ele>833.25</ele><time>2026-04-22T08:24:05.72Z</time></trkpt><trkpt lat="43.7813533" lon="12.0264583"><ele>832.5</ele><time>2026-04-22T08:24:06.72Z</time></trkpt><trkpt lat="43.781245" lon="12.026395"><ele>831.75</ele><time>2026-04-22T08:24:07.72Z</time></trkpt><trkpt lat="43.7811267" lon="12.0263783"><ele>831.0</ele><time>2026-04-22T08:24:08.72Z</time></trkpt><trkpt lat="43.7810083" lon="12.02638"><ele>830.75</ele><time>2026-04-22T08:24:09.72Z</time></trkpt><trkpt lat="43.780885" lon="12.0263933"><ele>830.5</ele><time>2026-04-22T08:24:10.72Z</time></trkpt><trkpt lat="43.780765" lon="12.026445"><ele>830.25</ele><time>2026-04-22T08:24:11.721Z</time></trkpt><trkpt lat="43.7806533" lon="12.0264967"><ele>830.0</ele><time>2026-04-22T08:24:12.72Z</time></trkpt><trkpt lat="43.7805533" lon="12.02657"><ele>828.75</ele><time>2026-04-22T08:24:13.72Z</time></trkpt><trkpt lat="43.7804633" lon="12.0266567"><ele>827.5</ele><time>2026-04-22T08:24:14.72Z</time></trkpt><trkpt lat="43.7803783" lon="12.0267633"><ele>826.25</ele><time>2026-04-22T08:24:15.72Z</time></trkpt><trkpt lat="43.7802983" lon="12.0268867"><ele>825.0</ele><time>2026-04-22T08:24:16.72Z</time></trkpt><trkpt lat="43.7802167" lon="12.0270133"><ele>824.25</ele><time>2026-04-22T08:24:17.72Z</time></trkpt><trkpt lat="43.7801417" lon="12.0271433"><ele>823.5</ele><time>2026-04-22T08:24:18.72Z</time></trkpt><trkpt lat="43.7800633" lon="12.02727"><ele>822.75</ele><time>2026-04-22T08:24:19.72Z</time></trkpt><trkpt lat="43.779995" lon="12.0274067"><ele>822.0</ele><time>2026-04-22T08:24:20.72Z</time></trkpt><trkpt lat="43.7799183" lon="12.02754"><ele>822.0</ele><time>2026-04-22T08:24:21.72Z</time></trkpt><trkpt lat="43.779835" lon="12.0276583"><ele>822.0</ele><time>2026-04-22T08:24:22.72Z</time></trkpt><trkpt lat="43.7797367" lon="12.0277617"><ele>822.0</ele><time>2026-04-22T08:24:23.72Z</time></trkpt><trkpt lat="43.7796417" lon="12.0278567"><ele>822.0</ele><time>2026-04-22T08:24:24.72Z</time></trkpt><trkpt lat="43.7795533" lon="12.02796"><ele>822.0</ele><time>2026-04-22T08:24:25.72Z</time></trkpt><trkpt lat="43.779465" lon="12.0280533"><ele>822.0</ele><time>2026-04-22T08:24:26.72Z</time></trkpt><trkpt lat="43.77938" lon="12.0281467"><ele>822.0</ele><time>2026-04-22T08:24:27.72Z</time></trkpt><trkpt lat="43.7792983" lon="12.028225"><ele>822.0</ele><time>2026-04-22T08:24:28.72Z</time></trkpt><trkpt lat="43.779215" lon="12.0282983"><ele>822.0</ele><time>2026-04-22T08:24:29.72Z</time></trkpt><trkpt lat="43.7791267" lon="12.0283367"><ele>821.6</ele><time>2026-04-22T08:24:30.72Z</time></trkpt><trkpt lat="43.7790367" lon="12.0283317"><ele>821.2</ele><time>2026-04-22T08:24:31.72Z</time></trkpt><trkpt lat="43.778955" lon="12.0282767"><ele>820.8</ele><time>2026-04-22T08:24:32.72Z</time></trkpt><trkpt lat="43.778885" lon="12.0282"><ele>820.4</ele><time>2026-04-22T08:24:33.72Z</time></trkpt><trkpt lat="43.7788267" lon="12.0280933"><ele>820.0</ele><time>2026-04-22T08:24:34.72Z</time></trkpt><trkpt lat="43.7787767" lon="12.0279733"><ele>821.0</ele><time>2026-04-22T08:24:35.72Z</time></trkpt><trkpt lat="43.77872" lon="12.0278667"><ele>822.0</ele><time>2026-04-22T08:24:36.72Z</time></trkpt><trkpt lat="43.7786517" lon="12.0277767"><ele>823.0</ele><time>2026-04-22T08:24:37.72Z</time></trkpt><trkpt lat="43.778565" lon="12.02773"><ele>824.0</ele><time>2026-04-22T08:24:38.72Z</time></trkpt><trkpt lat="43.77847" lon="12.02772"><ele>825.0</ele><time>2026-04-22T08:24:39.721Z</time></trkpt><trkpt lat="43.7783633" lon="12.02773"><ele>825.0</ele><time>2026-04-22T08:24:40.72Z</time></trkpt><trkpt lat="43.7782517" lon="12.0277517"><ele>825.0</ele><time>2026-04-22T08:24:41.72Z</time></trkpt><trkpt lat="43.77814" lon="12.0277833"><ele>825.0</ele><time>2026-04-22T08:24:42.72Z</time></trkpt><trkpt lat="43.7780317" lon="12.02782"><ele>825.0</ele><time>2026-04-22T08:24:43.72Z</time></trkpt><trkpt lat="43.7779233" lon="12.0278517"><ele>825.0</ele><time>2026-04-22T08:24:44.72Z</time></trkpt><trkpt lat="43.7778083" lon="12.0278783"><ele>825.0</ele><time>2026-04-22T08:24:45.72Z</time></trkpt><trkpt lat="43.7776933" lon="12.02791"><ele>825.0</ele><time>2026-04-22T08:24:46.72Z</time></trkpt><trkpt lat="43.7775767" lon="12.0279467"><ele>825.0</ele><time>2026-04-22T08:24:47.72Z</time></trkpt><trkpt lat="43.77746" lon="12.0279867"><ele>825.0</ele><time>2026-04-22T08:24:48.72Z</time></trkpt><trkpt lat="43.7773583" lon="12.0280467"><ele>824.8</ele><time>2026-04-22T08:24:49.72Z</time></trkpt><trkpt lat="43.777265" lon="12.0281317"><ele>824.6</ele><time>2026-04-22T08:24:50.72Z</time></trkpt><trkpt lat="43.7771733" lon="12.0282167"><ele>824.4000000000001</ele><time>2026-04-22T08:24:51.72Z</time></trkpt><trkpt lat="43.7770833" lon="12.0283017"><ele>824.2</ele><time>2026-04-22T08:24:52.72Z</time></trkpt><trkpt lat="43.776995" lon="12.0283783"><ele>824.0</ele><time>2026-04-22T08:24:53.72Z</time></trkpt><trkpt lat="43.7769033" lon="12.0284267"><ele>821.3333333333334</ele><time>2026-04-22T08:24:54.72Z</time></trkpt><trkpt lat="43.7768117" lon="12.0284633"><ele>818.6666666666667</ele><time>2026-04-22T08:24:55.72Z</time></trkpt><trkpt lat="43.77672" lon="12.0284883"><ele>816.0</ele><time>2026-04-22T08:24:56.72Z</time></trkpt><trkpt lat="43.7766317" lon="12.028495"><ele>813.3333333333333</ele><time>2026-04-22T08:24:57.72Z</time></trkpt><trkpt lat="43.7765533" lon="12.0285"><ele>810.6666666666666</ele><time>2026-04-22T08:24:58.72Z</time></trkpt><trkpt lat="43.77648" lon="12.0285217"><ele>808.0</ele><time>2026-04-22T08:24:59.72Z</time></trkpt><trkpt lat="43.77642" lon="12.0285667"><ele>808.0</ele><time>2026-04-22T08:25:00.72Z</time></trkpt><trkpt lat="43.7763533" lon="12.0286683"><ele>808.0</ele><time>2026-04-22T08:25:02.72Z</time></trkpt><trkpt lat="43.7763767" lon="12.028765"><ele>808.0</ele><time>2026-04-22T08:25:04.72Z</time></trkpt><trkpt lat="43.7764517" lon="12.0287833"><ele>808.0</ele><time>2026-04-22T08:25:06.72Z</time></trkpt><trkpt lat="43.7765767" lon="12.0287283"><ele>808.0</ele><time>2026-04-22T08:25:08.72Z</time></trkpt><trkpt lat="43.7766467" lon="12.0287183"><ele>808.0</ele><time>2026-04-22T08:25:09.72Z</time></trkpt><trkpt lat="43.7767267" lon="12.0287383"><ele>808.0</ele><time>2026-04-22T08:25:10.72Z</time></trkpt><trkpt lat="43.7768117" lon="12.028775"><ele>808.0</ele><time>2026-04-22T08:25:11.72Z</time></trkpt><trkpt lat="43.776895" lon="12.0288233"><ele>808.0</ele><time>2026-04-22T08:25:12.72Z</time></trkpt><trkpt lat="43.776975" lon="12.02888"><ele>808.0</ele><time>2026-04-22T08:25:13.721Z</time></trkpt><trkpt lat="43.7770667" lon="12.028945"><ele>807.4</ele><time>2026-04-22T08:25:14.72Z</time></trkpt><trkpt lat="43.7771683" lon="12.0289883"><ele>806.8</ele><time>2026-04-22T08:25:15.72Z</time></trkpt><trkpt lat="43.77727" lon="12.02901"><ele>806.2</ele><time>2026-04-22T08:25:16.72Z</time></trkpt><trkpt lat="43.77737" lon="12.0290183"><ele>805.6</ele><time>2026-04-22T08:25:17.72Z</time></trkpt><trkpt lat="43.7774517" lon="12.0290517"><ele>805.0</ele><time>2026-04-22T08:25:18.72Z</time></trkpt><trkpt lat="43.7775283" lon="12.0291017"><ele>805.2</ele><time>2026-04-22T08:25:19.72Z</time></trkpt><trkpt lat="43.7775933" lon="12.0291783"><ele>805.4</ele><time>2026-04-22T08:25:20.72Z</time></trkpt><trkpt lat="43.7776517" lon="12.0292783"><ele>805.5999999999999</ele><time>2026-04-22T08:25:21.72Z</time></trkpt><trkpt lat="43.7777067" lon="12.0293783"><ele>805.8</ele><time>2026-04-22T08:25:22.72Z</time></trkpt><trkpt lat="43.77777" lon="12.02947"><ele>806.0</ele><time>2026-04-22T08:25:23.721Z</time></trkpt><trkpt lat="43.7778367" lon="12.0295583"><ele>806.0</ele><time>2026-04-22T08:25:24.72Z</time></trkpt><trkpt lat="43.7778817" lon="12.029655"><ele>806.0</ele><time>2026-04-22T08:25:25.72Z</time></trkpt><trkpt lat="43.7779" lon="12.0297683"><ele>806.0</ele><time>2026-04-22T08:25:26.72Z</time></trkpt><trkpt lat="43.7779083" lon="12.0299"><ele>806.0</ele><time>2026-04-22T08:25:27.72Z</time></trkpt><trkpt lat="43.7778933" lon="12.030035"><ele>806.0</ele><time>2026-04-22T08:25:28.72Z</time></trkpt><trkpt lat="43.7778617" lon="12.0301567"><ele>805.0</ele><time>2026-04-22T08:25:29.72Z</time></trkpt><trkpt lat="43.777825" lon="12.030285"><ele>804.0</ele><time>2026-04-22T08:25:30.72Z</time></trkpt><trkpt lat="43.777785" lon="12.0304033"><ele>803.0</ele><time>2026-04-22T08:25:31.72Z</time></trkpt><trkpt lat="43.77777" lon="12.03053"><ele>802.0</ele><time>2026-04-22T08:25:32.72Z</time></trkpt><trkpt lat="43.777785" lon="12.0306633"><ele>801.0</ele><time>2026-04-22T08:25:33.72Z</time></trkpt><trkpt lat="43.7778217" lon="12.0307967"><ele>801.1999999999999</ele><time>2026-04-22T08:25:34.72Z</time></trkpt><trkpt lat="43.77786" lon="12.03094"><ele>801.4</ele><time>2026-04-22T08:25:35.72Z</time></trkpt><trkpt lat="43.7778883" lon="12.0310733"><ele>801.6</ele><time>2026-04-22T08:25:36.72Z</time></trkpt><trkpt lat="43.7779117" lon="12.0312"><ele>801.8</ele><time>2026-04-22T08:25:37.72Z</time></trkpt><trkpt lat="43.77791" lon="12.031325"><ele>802.0</ele><time>2026-04-22T08:25:38.72Z</time></trkpt><trkpt lat="43.7778933" lon="12.031455"><ele>802.0</ele><time>2026-04-22T08:25:39.72Z</time></trkpt><trkpt lat="43.7778583" lon="12.031595"><ele>802.0</ele><time>2026-04-22T08:25:40.72Z</time></trkpt><trkpt lat="43.7778117" lon="12.031735"><ele>802.0</ele><time>2026-04-22T08:25:41.72Z</time></trkpt><trkpt lat="43.7777667" lon="12.0318783"><ele>802.0</ele><time>2026-04-22T08:25:42.72Z</time></trkpt><trkpt lat="43.777725" lon="12.0320167"><ele>802.0</ele><time>2026-04-22T08:25:43.72Z</time></trkpt><trkpt lat="43.7776833" lon="12.03215"><ele>801.75</ele><time>2026-04-22T08:25:44.72Z</time></trkpt><trkpt lat="43.7776283" lon="12.0322883"><ele>801.5</ele><time>2026-04-22T08:25:45.72Z</time></trkpt><trkpt lat="43.7775667" lon="12.0324217"><ele>801.25</ele><time>2026-04-22T08:25:46.72Z</time></trkpt><trkpt lat="43.7774833" lon="12.0325367"><ele>801.0</ele><time>2026-04-22T08:25:47.72Z</time></trkpt><trkpt lat="43.777385" lon="12.0326283"><ele>801.0</ele><time>2026-04-22T08:25:48.72Z</time></trkpt><trkpt lat="43.7772817" lon="12.0327083"><ele>801.0</ele><time>2026-04-22T08:25:49.72Z</time></trkpt><trkpt lat="43.777185" lon="12.0327733"><ele>801.0</ele><time>2026-04-22T08:25:50.72Z</time></trkpt><trkpt lat="43.77709" lon="12.0328567"><ele>801.0</ele><time>2026-04-22T08:25:51.721Z</time></trkpt><trkpt lat="43.7770233" lon="12.0329533"><ele>801.0</ele><time>2026-04-22T08:25:52.72Z</time></trkpt><trkpt lat="43.7769867" lon="12.0330717"><ele>801.0</ele><time>2026-04-22T08:25:53.72Z</time></trkpt><trkpt lat="43.7769633" lon="12.0332017"><ele>801.0</ele><time>2026-04-22T08:25:54.721Z</time></trkpt><trkpt lat="43.7769633" lon="12.0333417"><ele>801.0</ele><time>2026-04-22T08:25:55.721Z</time></trkpt><trkpt lat="43.7769917" lon="12.0334867"><ele>801.0</ele><time>2026-04-22T08:25:56.721Z</time></trkpt><trkpt lat="43.7770333" lon="12.033635"><ele>801.0</ele><time>2026-04-22T08:25:57.72Z</time></trkpt><trkpt lat="43.7770833" lon="12.033765"><ele>804.1999999999999</ele><time>2026-04-22T08:25:58.72Z</time></trkpt><trkpt lat="43.7771383" lon="12.03389"><ele>807.4</ele><time>2026-04-22T08:25:59.721Z</time></trkpt><trkpt lat="43.7771417" lon="12.0340133"><ele>810.6</ele><time>2026-04-22T08:26:00.72Z</time></trkpt><trkpt lat="43.7771233" lon="12.03413"><ele>813.8</ele><time>2026-04-22T08:26:01.72Z</time></trkpt><trkpt lat="43.7770667" lon="12.034225"><ele>817.0</ele><time>2026-04-22T08:26:02.72Z</time></trkpt><trkpt lat="43.7769867" lon="12.0343"><ele>818.0</ele><time>2026-04-22T08:26:03.72Z</time></trkpt><trkpt lat="43.7768883" lon="12.0343633"><ele>819.0</ele><time>2026-04-22T08:26:04.72Z</time></trkpt><trkpt lat="43.77678" lon="12.0344167"><ele>820.0</ele><time>2026-04-22T08:26:05.72Z</time></trkpt><trkpt lat="43.7766583" lon="12.0344717"><ele>821.0</ele><time>2026-04-22T08:26:06.72Z</time></trkpt><trkpt lat="43.77653" lon="12.0345417"><ele>816.25</ele><time>2026-04-22T08:26:07.72Z</time></trkpt><trkpt lat="43.7764083" lon="12.0346133"><ele>811.5</ele><time>2026-04-22T08:26:08.72Z</time></trkpt><trkpt lat="43.7763" lon="12.0346967"><ele>806.75</ele><time>2026-04-22T08:26:09.72Z</time></trkpt><trkpt lat="43.7761933" lon="12.03478"><ele>802.0</ele><time>2026-04-22T08:26:10.72Z</time></trkpt><trkpt lat="43.77609" lon="12.0348833"><ele>805.0</ele><time>2026-04-22T08:26:11.72Z</time></trkpt><trkpt lat="43.7759883" lon="12.0349833"><ele>808.0</ele><time>2026-04-22T08:26:12.721Z</time></trkpt><trkpt lat="43.7758933" lon="12.0350933"><ele>811.0</ele><time>2026-04-22T08:26:13.721Z</time></trkpt><trkpt lat="43.7758" lon="12.035195"><ele>814.0</ele><time>2026-04-22T08:26:14.721Z</time></trkpt><trkpt lat="43.7756967" lon="12.035295"><ele>814.0</ele><time>2026-04-22T08:26:15.72Z</time></trkpt><trkpt lat="43.7755967" lon="12.0353983"><ele>814.0</ele><time>2026-04-22T08:26:16.72Z</time></trkpt><trkpt lat="43.7754983" lon="12.035515"><ele>814.0</ele><time>2026-04-22T08:26:17.72Z</time></trkpt><trkpt lat="43.77542" lon="12.0356467"><ele>814.0</ele><time>2026-04-22T08:26:18.72Z</time></trkpt><trkpt lat="43.775355" lon="12.035785"><ele>814.25</ele><time>2026-04-22T08:26:19.72Z</time></trkpt><trkpt lat="43.7753083" lon="12.0359267"><ele>814.5</ele><time>2026-04-22T08:26:20.721Z</time></trkpt><trkpt lat="43.7752467" lon="12.0360817"><ele>814.75</ele><time>2026-04-22T08:26:21.72Z</time></trkpt><trkpt lat="43.775175" lon="12.0362317"><ele>815.0</ele><time>2026-04-22T08:26:22.72Z</time></trkpt><trkpt lat="43.775095" lon="12.0363733"><ele>815.0</ele><time>2026-04-22T08:26:23.72Z</time></trkpt><trkpt lat="43.7750183" lon="12.0365067"><ele>815.0</ele><time>2026-04-22T08:26:24.72Z</time></trkpt><trkpt lat="43.77495" lon="12.036655"><ele>815.0</ele><time>2026-04-22T08:26:25.72Z</time></trkpt><trkpt lat="43.7748917" lon="12.0368167"><ele>815.0</ele><time>2026-04-22T08:26:26.72Z</time></trkpt><trkpt lat="43.774835" lon="12.036975"><ele>819.25</ele><time>2026-04-22T08:26:27.72Z</time></trkpt><trkpt lat="43.77478" lon="12.0371317"><ele>823.5</ele><time>2026-04-22T08:26:28.72Z</time></trkpt><trkpt lat="43.7747233" lon="12.037285"><ele>827.75</ele><time>2026-04-22T08:26:29.72Z</time></trkpt><trkpt lat="43.77466" lon="12.0374383"><ele>832.0</ele><time>2026-04-22T08:26:30.72Z</time></trkpt><trkpt lat="43.7746017" lon="12.0375867"><ele>835.0</ele><time>2026-04-22T08:26:31.72Z</time></trkpt><trkpt lat="43.774555" lon="12.0377483"><ele>838.0</ele><time>2026-04-22T08:26:32.721Z</time></trkpt><trkpt lat="43.7745217" lon="12.0379183"><ele>841.0</ele><time>2026-04-22T08:26:33.72Z</time></trkpt><trkpt lat="43.77449" lon="12.0380983"><ele>844.0</ele><time>2026-04-22T08:26:34.721Z</time></trkpt><trkpt lat="43.7744417" lon="12.0382383"><ele>845.8000000000001</ele><time>2026-04-22T08:26:35.72Z</time></trkpt><trkpt lat="43.774385" lon="12.0383883"><ele>847.6</ele><time>2026-04-22T08:26:36.72Z</time></trkpt><trkpt lat="43.7743283" lon="12.0385383"><ele>849.4</ele><time>2026-04-22T08:26:37.72Z</time></trkpt><trkpt lat="43.77429" lon="12.0386683"><ele>851.2</ele><time>2026-04-22T08:26:38.72Z</time></trkpt><trkpt lat="43.77427" lon="12.0387933"><ele>853.0</ele><time>2026-04-22T08:26:39.72Z</time></trkpt><trkpt lat="43.7742867" lon="12.03892"><ele>852.9999999999999</ele><time>2026-04-22T08:26:40.72Z</time></trkpt><trkpt lat="43.7743183" lon="12.0390233"><ele>853.0</ele><time>2026-04-22T08:26:41.72Z</time></trkpt><trkpt lat="43.7743733" lon="12.03911"><ele>853.0</ele><time>2026-04-22T08:26:42.721Z</time></trkpt><trkpt lat="43.774445" lon="12.0391817"><ele>853.0</ele><time>2026-04-22T08:26:43.721Z</time></trkpt><trkpt lat="43.7745067" lon="12.03927"><ele>852.9999999999999</ele><time>2026-04-22T08:26:44.72Z</time></trkpt><trkpt lat="43.7745383" lon="12.03938"><ele>853.0</ele><time>2026-04-22T08:26:45.72Z</time></trkpt><trkpt lat="43.7745433" lon="12.0395"><ele>853.0</ele><time>2026-04-22T08:26:46.72Z</time></trkpt><trkpt lat="43.7745217" lon="12.03963"><ele>853.0</ele><time>2026-04-22T08:26:47.72Z</time></trkpt><trkpt lat="43.7744933" lon="12.0397717"><ele>853.0</ele><time>2026-04-22T08:26:48.72Z</time></trkpt><trkpt lat="43.7744517" lon="12.0399183"><ele>853.0</ele><time>2026-04-22T08:26:49.72Z</time></trkpt><trkpt lat="43.77441" lon="12.0400783"><ele>853.0</ele><time>2026-04-22T08:26:50.72Z</time></trkpt><trkpt lat="43.774375" lon="12.0402333"><ele>855.5999999999999</ele><time>2026-04-22T08:26:51.72Z</time></trkpt><trkpt lat="43.7743617" lon="12.0403717"><ele>858.1999999999999</ele><time>2026-04-22T08:26:52.72Z</time></trkpt><trkpt lat="43.774355" lon="12.0404983"><ele>860.8</ele><time>2026-04-22T08:26:53.721Z</time></trkpt><trkpt lat="43.77434" lon="12.0406133"><ele>863.4</ele><time>2026-04-22T08:26:54.721Z</time></trkpt><trkpt lat="43.774295" lon="12.0407183"><ele>866.0</ele><time>2026-04-22T08:26:55.72Z</time></trkpt><trkpt lat="43.77423" lon="12.0407967"><ele>862.5999999999999</ele><time>2026-04-22T08:26:56.72Z</time></trkpt><trkpt lat="43.7741533" lon="12.0408517"><ele>859.1999999999999</ele><time>2026-04-22T08:26:57.72Z</time></trkpt><trkpt lat="43.7740683" lon="12.0408833"><ele>855.8</ele><time>2026-04-22T08:26:58.72Z</time></trkpt><trkpt lat="43.773975" lon="12.0409233"><ele>852.4000000000001</ele><time>2026-04-22T08:26:59.72Z</time></trkpt><trkpt lat="43.7738817" lon="12.04098"><ele>849.0</ele><time>2026-04-22T08:27:00.721Z</time></trkpt><trkpt lat="43.7737817" lon="12.0410417"><ele>849.0</ele><time>2026-04-22T08:27:01.721Z</time></trkpt><trkpt lat="43.7736717" lon="12.0410817"><ele>849.0</ele><time>2026-04-22T08:27:02.72Z</time></trkpt><trkpt lat="43.77355" lon="12.0411033"><ele>849.0</ele><time>2026-04-22T08:27:03.72Z</time></trkpt><trkpt lat="43.773425" lon="12.041095"><ele>849.0</ele><time>2026-04-22T08:27:04.721Z</time></trkpt><trkpt lat="43.7733117" lon="12.0410583"><ele>848.75</ele><time>2026-04-22T08:27:05.72Z</time></trkpt><trkpt lat="43.773195" lon="12.0410067"><ele>848.5</ele><time>2026-04-22T08:27:06.72Z</time></trkpt><trkpt lat="43.7730733" lon="12.0409517"><ele>848.25</ele><time>2026-04-22T08:27:07.72Z</time></trkpt><trkpt lat="43.7729533" lon="12.040915"><ele>848.0</ele><time>2026-04-22T08:27:08.721Z</time></trkpt><trkpt lat="43.77284" lon="12.0408867"><ele>848.0</ele><time>2026-04-22T08:27:09.72Z</time></trkpt><trkpt lat="43.772725" lon="12.0408667"><ele>848.0</ele><time>2026-04-22T08:27:10.72Z</time></trkpt><trkpt lat="43.7726133" lon="12.0408467"><ele>848.0</ele><time>2026-04-22T08:27:11.72Z</time></trkpt><trkpt lat="43.7725017" lon="12.0408183"><ele>848.0</ele><time>2026-04-22T08:27:12.72Z</time></trkpt><trkpt lat="43.7724067" lon="12.0407883"><ele>848.0</ele><time>2026-04-22T08:27:13.721Z</time></trkpt><trkpt lat="43.7723167" lon="12.0407867"><ele>848.0</ele><time>2026-04-22T08:27:14.72Z</time></trkpt><trkpt lat="43.7722233" lon="12.0408167"><ele>848.0</ele><time>2026-04-22T08:27:15.721Z</time></trkpt><trkpt lat="43.77213" lon="12.0408633"><ele>848.0</ele><time>2026-04-22T08:27:16.72Z</time></trkpt><trkpt lat="43.7720383" lon="12.04093"><ele>848.0</ele><time>2026-04-22T08:27:17.72Z</time></trkpt><trkpt lat="43.7719417" lon="12.041015"><ele>848.0</ele><time>2026-04-22T08:27:18.72Z</time></trkpt><trkpt lat="43.7718417" lon="12.041115"><ele>848.0</ele><time>2026-04-22T08:27:19.72Z</time></trkpt><trkpt lat="43.7717467" lon="12.0412133"><ele>848.0</ele><time>2026-04-22T08:27:20.72Z</time></trkpt><trkpt lat="43.7716433" lon="12.0412867"><ele>848.0</ele><time>2026-04-22T08:27:21.721Z</time></trkpt><trkpt lat="43.77154" lon="12.0413483"><ele>848.0</ele><time>2026-04-22T08:27:22.72Z</time></trkpt><trkpt lat="43.7714383" lon="12.0413967"><ele>848.0</ele><time>2026-04-22T08:27:23.72Z</time></trkpt><trkpt lat="43.7713433" lon="12.041475"><ele>848.0</ele><time>2026-04-22T08:27:24.72Z</time></trkpt><trkpt lat="43.771265" lon="12.0415867"><ele>848.0</ele><time>2026-04-22T08:27:25.721Z</time></trkpt><trkpt lat="43.77119" lon="12.0417117"><ele>848.0</ele><time>2026-04-22T08:27:26.72Z</time></trkpt><trkpt lat="43.771115" lon="12.0418417"><ele>848.5</ele><time>2026-04-22T08:27:27.72Z</time></trkpt><trkpt lat="43.7710267" lon="12.0419583"><ele>849.0</ele><time>2026-04-22T08:27:28.721Z</time></trkpt><trkpt lat="43.7709367" lon="12.042075"><ele>849.5</ele><time>2026-04-22T08:27:29.72Z</time></trkpt><trkpt lat="43.7708517" lon="12.04219"><ele>850.0</ele><time>2026-04-22T08:27:30.721Z</time></trkpt><trkpt lat="43.77077" lon="12.0423117"><ele>850.0</ele><time>2026-04-22T08:27:31.72Z</time></trkpt><trkpt lat="43.7707" lon="12.0424467"><ele>850.0</ele><time>2026-04-22T08:27:32.72Z</time></trkpt><trkpt lat="43.7706517" lon="12.04259"><ele>850.0</ele><time>2026-04-22T08:27:33.721Z</time></trkpt><trkpt lat="43.7706117" lon="12.042745"><ele>850.0</ele><time>2026-04-22T08:27:34.72Z</time></trkpt><trkpt lat="43.7705883" lon="12.04291"><ele>856.2</ele><time>2026-04-22T08:27:35.72Z</time></trkpt><trkpt lat="43.770585" lon="12.0430567"><ele>862.4</ele><time>2026-04-22T08:27:36.72Z</time></trkpt><trkpt lat="43.7706" lon="12.0432067"><ele>868.5999999999999</ele><time>2026-04-22T08:27:37.72Z</time></trkpt><trkpt lat="43.7706417" lon="12.0433517"><ele>874.8</ele><time>2026-04-22T08:27:38.72Z</time></trkpt><trkpt lat="43.7707133" lon="12.0434833"><ele>881.0</ele><time>2026-04-22T08:27:39.72Z</time></trkpt><trkpt lat="43.7707917" lon="12.0436067"><ele>883.0</ele><time>2026-04-22T08:27:40.72Z</time></trkpt><trkpt lat="43.7708783" lon="12.0437167"><ele>885.0</ele><time>2026-04-22T08:27:41.72Z</time></trkpt><trkpt lat="43.7709733" lon="12.0438117"><ele>887.0</ele><time>2026-04-22T08:27:42.72Z</time></trkpt><trkpt lat="43.7710717" lon="12.0438917"><ele>889.0</ele><time>2026-04-22T08:27:43.72Z</time></trkpt><trkpt lat="43.7711667" lon="12.0439783"><ele>893.0</ele><time>2026-04-22T08:27:44.72Z</time></trkpt><trkpt lat="43.7712617" lon="12.0440417"><ele>897.0000000000001</ele><time>2026-04-22T08:27:45.72Z</time></trkpt><trkpt lat="43.7713633" lon="12.0440917"><ele>901.0000000000001</ele><time>2026-04-22T08:27:46.72Z</time></trkpt><trkpt lat="43.7714567" lon="12.0440983"><ele>905.0</ele><time>2026-04-22T08:27:47.72Z</time></trkpt><trkpt lat="43.7715683" lon="12.0440617"><ele>909.0</ele><time>2026-04-22T08:27:48.72Z</time></trkpt><trkpt lat="43.7716933" lon="12.0440017"><ele>909.0</ele><time>2026-04-22T08:27:49.72Z</time></trkpt><trkpt lat="43.771815" lon="12.0439183"><ele>909.0</ele><time>2026-04-22T08:27:50.72Z</time></trkpt><trkpt lat="43.77193" lon="12.0438283"><ele>909.0</ele><time>2026-04-22T08:27:51.72Z</time></trkpt><trkpt lat="43.77204" lon="12.0437383"><ele>909.0</ele><time>2026-04-22T08:27:52.72Z</time></trkpt><trkpt lat="43.7721533" lon="12.0436633"><ele>907.5</ele><time>2026-04-22T08:27:53.72Z</time></trkpt><trkpt lat="43.772275" lon="12.0436083"><ele>906.0</ele><time>2026-04-22T08:27:54.72Z</time></trkpt><trkpt lat="43.7723967" lon="12.0435633"><ele>904.5</ele><time>2026-04-22T08:27:55.72Z</time></trkpt><trkpt lat="43.7725217" lon="12.0435333"><ele>903.0</ele><time>2026-04-22T08:27:56.72Z</time></trkpt><trkpt lat="43.7726433" lon="12.043505"><ele>900.75</ele><time>2026-04-22T08:27:57.72Z</time></trkpt><trkpt lat="43.7727633" lon="12.0434633"><ele>898.5</ele><time>2026-04-22T08:27:58.72Z</time></trkpt><trkpt lat="43.772885" lon="12.0434067"><ele>896.25</ele><time>2026-04-22T08:27:59.72Z</time></trkpt><trkpt lat="43.7729983" lon="12.0433767"><ele>894.0</ele><time>2026-04-22T08:28:00.72Z</time></trkpt><trkpt lat="43.7731167" lon="12.04337"><ele>894.0</ele><time>2026-04-22T08:28:01.72Z</time></trkpt><trkpt lat="43.773235" lon="12.0433933"><ele>894.0000000000001</ele><time>2026-04-22T08:28:02.72Z</time></trkpt><trkpt lat="43.773345" lon="12.043435"><ele>894.0000000000001</ele><time>2026-04-22T08:28:03.72Z</time></trkpt><trkpt lat="43.773445" lon="12.0434717"><ele>894.0</ele><time>2026-04-22T08:28:04.72Z</time></trkpt><trkpt lat="43.7735467" lon="12.0434983"><ele>894.0</ele><time>2026-04-22T08:28:05.72Z</time></trkpt><trkpt lat="43.7736383" lon="12.043535"><ele>894.5</ele><time>2026-04-22T08:28:06.72Z</time></trkpt><trkpt lat="43.7737133" lon="12.0436033"><ele>895.0</ele><time>2026-04-22T08:28:07.72Z</time></trkpt><trkpt lat="43.77377" lon="12.0436967"><ele>895.5</ele><time>2026-04-22T08:28:08.721Z</time></trkpt><trkpt lat="43.7738167" lon="12.0437983"><ele>896.0</ele><time>2026-04-22T08:28:09.72Z</time></trkpt><trkpt lat="43.7738767" lon="12.0438833"><ele>896.5</ele><time>2026-04-22T08:28:10.72Z</time></trkpt><trkpt lat="43.77395" lon="12.0439533"><ele>897.0</ele><time>2026-04-22T08:28:11.72Z</time></trkpt><trkpt lat="43.77403" lon="12.04402"><ele>897.0</ele><time>2026-04-22T08:28:12.72Z</time></trkpt><trkpt lat="43.77411" lon="12.0440783"><ele>897.0</ele><time>2026-04-22T08:28:13.72Z</time></trkpt><trkpt lat="43.7741833" lon="12.0441417"><ele>897.0</ele><time>2026-04-22T08:28:14.72Z</time></trkpt><trkpt lat="43.774255" lon="12.0442183"><ele>897.0</ele><time>2026-04-22T08:28:15.72Z</time></trkpt><trkpt lat="43.77431" lon="12.044305"><ele>897.0</ele><time>2026-04-22T08:28:16.72Z</time></trkpt><trkpt lat="43.7743333" lon="12.0444167"><ele>897.0</ele><time>2026-04-22T08:28:17.721Z</time></trkpt><trkpt lat="43.7743283" lon="12.0445367"><ele>897.0</ele><time>2026-04-22T08:28:18.72Z</time></trkpt><trkpt lat="43.7743033" lon="12.0446617"><ele>897.0</ele><time>2026-04-22T08:28:19.721Z</time></trkpt><trkpt lat="43.7742667" lon="12.0448"><ele>897.0</ele><time>2026-04-22T08:28:20.72Z</time></trkpt><trkpt lat="43.7742333" lon="12.0449383"><ele>897.0</ele><time>2026-04-22T08:28:21.72Z</time></trkpt><trkpt lat="43.7742033" lon="12.0450833"><ele>897.0</ele><time>2026-04-22T08:28:22.72Z</time></trkpt><trkpt lat="43.77417" lon="12.0452283"><ele>897.0</ele><time>2026-04-22T08:28:23.72Z</time></trkpt><trkpt lat="43.7741433" lon="12.04536"><ele>897.0</ele><time>2026-04-22T08:28:24.72Z</time></trkpt><trkpt lat="43.774115" lon="12.0454917"><ele>897.0</ele><time>2026-04-22T08:28:25.72Z</time></trkpt><trkpt lat="43.7740917" lon="12.04561"><ele>897.0</ele><time>2026-04-22T08:28:26.721Z</time></trkpt><trkpt lat="43.7740783" lon="12.045725"><ele>897.0</ele><time>2026-04-22T08:28:27.72Z</time></trkpt><trkpt lat="43.774085" lon="12.045835"><ele>896.5</ele><time>2026-04-22T08:28:28.72Z</time></trkpt><trkpt lat="43.77412" lon="12.0459383"><ele>896.0</ele><time>2026-04-22T08:28:29.72Z</time></trkpt><trkpt lat="43.7741817" lon="12.046025"><ele>895.5</ele><time>2026-04-22T08:28:30.72Z</time></trkpt><trkpt lat="43.7742567" lon="12.04608"><ele>895.0</ele><time>2026-04-22T08:28:31.72Z</time></trkpt><trkpt lat="43.7743433" lon="12.0461217"><ele>894.5</ele><time>2026-04-22T08:28:32.721Z</time></trkpt><trkpt lat="43.77443" lon="12.0461317"><ele>894.0</ele><time>2026-04-22T08:28:33.721Z</time></trkpt><trkpt lat="43.7745233" lon="12.046095"><ele>895.1666666666666</ele><time>2026-04-22T08:28:34.72Z</time></trkpt><trkpt lat="43.7745833" lon="12.0460483"><ele>896.3333333333333</ele><time>2026-04-22T08:28:35.72Z</time></trkpt><trkpt lat="43.7746267" lon="12.0459583"><ele>897.5</ele><time>2026-04-22T08:28:36.72Z</time></trkpt><trkpt lat="43.7746633" lon="12.045845"><ele>898.6666666666666</ele><time>2026-04-22T08:28:37.72Z</time></trkpt><trkpt lat="43.7747017" lon="12.0457283"><ele>899.8333333333333</ele><time>2026-04-22T08:28:38.72Z</time></trkpt><trkpt lat="43.774765" lon="12.04564"><ele>901.0</ele><time>2026-04-22T08:28:39.72Z</time></trkpt><trkpt lat="43.77485" lon="12.0455667"><ele>901.75</ele><time>2026-04-22T08:28:40.72Z</time></trkpt><trkpt lat="43.7749517" lon="12.0455117"><ele>902.5</ele><time>2026-04-22T08:28:41.72Z</time></trkpt><trkpt lat="43.7750733" lon="12.04547"><ele>903.25</ele><time>2026-04-22T08:28:42.72Z</time></trkpt><trkpt lat="43.7751917" lon="12.04542"><ele>904.0</ele><time>2026-04-22T08:28:43.72Z</time></trkpt><trkpt lat="43.775305" lon="12.04537"><ele>904.0</ele><time>2026-04-22T08:28:44.72Z</time></trkpt><trkpt lat="43.7754283" lon="12.0453183"><ele>904.0</ele><time>2026-04-22T08:28:45.72Z</time></trkpt><trkpt lat="43.77554" lon="12.0452633"><ele>904.0</ele><time>2026-04-22T08:28:46.72Z</time></trkpt><trkpt lat="43.7756367" lon="12.0451833"><ele>904.0</ele><time>2026-04-22T08:28:47.72Z</time></trkpt><trkpt lat="43.7757267" lon="12.0450917"><ele>904.0</ele><time>2026-04-22T08:28:48.72Z</time></trkpt><trkpt lat="43.7758067" lon="12.0449717"><ele>904.0</ele><time>2026-04-22T08:28:49.72Z</time></trkpt><trkpt lat="43.7758867" lon="12.044865"><ele>904.0</ele><time>2026-04-22T08:28:50.72Z</time></trkpt><trkpt lat="43.7759783" lon="12.0447717"><ele>904.0</ele><time>2026-04-22T08:28:51.72Z</time></trkpt><trkpt lat="43.7760783" lon="12.0447167"><ele>907.6</ele><time>2026-04-22T08:28:52.72Z</time></trkpt><trkpt lat="43.7761883" lon="12.0446933"><ele>911.2</ele><time>2026-04-22T08:28:53.72Z</time></trkpt><trkpt lat="43.7762833" lon="12.0446967"><ele>914.8000000000001</ele><time>2026-04-22T08:28:54.72Z</time></trkpt><trkpt lat="43.776365" lon="12.0447217"><ele>918.4000000000001</ele><time>2026-04-22T08:28:55.72Z</time></trkpt><trkpt lat="43.7764333" lon="12.0447883"><ele>922.0</ele><time>2026-04-22T08:28:56.72Z</time></trkpt><trkpt lat="43.776485" lon="12.04489"><ele>918.0</ele><time>2026-04-22T08:28:57.721Z</time></trkpt><trkpt lat="43.7765133" lon="12.04502"><ele>914.0</ele><time>2026-04-22T08:28:58.72Z</time></trkpt><trkpt lat="43.7765267" lon="12.0451683"><ele>910.0</ele><time>2026-04-22T08:28:59.72Z</time></trkpt><trkpt lat="43.7765317" lon="12.0453133"><ele>906.0</ele><time>2026-04-22T08:29:00.72Z</time></trkpt><trkpt lat="43.77652" lon="12.0454583"><ele>902.0</ele><time>2026-04-22T08:29:01.721Z</time></trkpt><trkpt lat="43.7764867" lon="12.0455983"><ele>902.0</ele><time>2026-04-22T08:29:02.72Z</time></trkpt><trkpt lat="43.776435" lon="12.0457417"><ele>902.0</ele><time>2026-04-22T08:29:03.72Z</time></trkpt><trkpt lat="43.776375" lon="12.045875"><ele>902.0</ele><time>2026-04-22T08:29:04.72Z</time></trkpt><trkpt lat="43.7763133" lon="12.0460083"><ele>902.0</ele><time>2026-04-22T08:29:05.72Z</time></trkpt><trkpt lat="43.776255" lon="12.04614"><ele>901.25</ele><time>2026-04-22T08:29:06.72Z</time></trkpt><trkpt lat="43.7761917" lon="12.04627"><ele>900.5</ele><time>2026-04-22T08:29:07.72Z</time></trkpt><trkpt lat="43.776125" lon="12.0464033"><ele>899.75</ele><time>2026-04-22T08:29:08.721Z</time></trkpt><trkpt lat="43.7760433" lon="12.0465317"><ele>899.0</ele><time>2026-04-22T08:29:09.721Z</time></trkpt><trkpt lat="43.775945" lon="12.046625"><ele>902.75</ele><time>2026-04-22T08:29:10.721Z</time></trkpt><trkpt lat="43.7758333" lon="12.046685"><ele>906.5</ele><time>2026-04-22T08:29:11.721Z</time></trkpt><trkpt lat="43.775725" lon="12.046725"><ele>910.25</ele><time>2026-04-22T08:29:12.72Z</time></trkpt><trkpt lat="43.7756233" lon="12.0467733"><ele>914.0</ele><time>2026-04-22T08:29:13.72Z</time></trkpt><trkpt lat="43.77552" lon="12.04685"><ele>914.0</ele><time>2026-04-22T08:29:14.72Z</time></trkpt><trkpt lat="43.7754317" lon="12.04696"><ele>914.0</ele><time>2026-04-22T08:29:15.72Z</time></trkpt><trkpt lat="43.7753433" lon="12.04708"><ele>914.0</ele><time>2026-04-22T08:29:16.72Z</time></trkpt><trkpt lat="43.7752433" lon="12.0472017"><ele>914.0</ele><time>2026-04-22T08:29:17.72Z</time></trkpt><trkpt lat="43.7751417" lon="12.0473083"><ele>915.25</ele><time>2026-04-22T08:29:18.72Z</time></trkpt><trkpt lat="43.7750367" lon="12.0474133"><ele>916.5</ele><time>2026-04-22T08:29:19.72Z</time></trkpt><trkpt lat="43.7749317" lon="12.0475117"><ele>917.75</ele><time>2026-04-22T08:29:20.72Z</time></trkpt><trkpt lat="43.7748367" lon="12.0476183"><ele>919.0</ele><time>2026-04-22T08:29:21.72Z</time></trkpt><trkpt lat="43.7747517" lon="12.0477383"><ele>919.0</ele><time>2026-04-22T08:29:22.72Z</time></trkpt><trkpt lat="43.774685" lon="12.0478767"><ele>919.0</ele><time>2026-04-22T08:29:23.72Z</time></trkpt><trkpt lat="43.7746283" lon="12.0480267"><ele>919.0</ele><time>2026-04-22T08:29:24.72Z</time></trkpt><trkpt lat="43.7745833" lon="12.04818"><ele>919.0</ele><time>2026-04-22T08:29:25.72Z</time></trkpt><trkpt lat="43.7745417" lon="12.0483217"><ele>918.3333333333333</ele><time>2026-04-22T08:29:26.72Z</time></trkpt><trkpt lat="43.7745033" lon="12.0484367"><ele>917.6666666666666</ele><time>2026-04-22T08:29:27.72Z</time></trkpt><trkpt lat="43.7744617" lon="12.0485267"><ele>917.0</ele><time>2026-04-22T08:29:28.72Z</time></trkpt><trkpt lat="43.7744" lon="12.0486"><ele>916.3333333333333</ele><time>2026-04-22T08:29:29.72Z</time></trkpt><trkpt lat="43.7743217" lon="12.048655"><ele>915.6666666666666</ele><time>2026-04-22T08:29:30.72Z</time></trkpt><trkpt lat="43.774235" lon="12.0486883"><ele>915.0</ele><time>2026-04-22T08:29:31.721Z</time></trkpt><trkpt lat="43.7741333" lon="12.048695"><ele>915.0</ele><time>2026-04-22T08:29:32.72Z</time></trkpt><trkpt lat="43.7740183" lon="12.048715"><ele>915.0</ele><time>2026-04-22T08:29:33.72Z</time></trkpt><trkpt lat="43.7738967" lon="12.048735"><ele>915.0</ele><time>2026-04-22T08:29:34.72Z</time></trkpt><trkpt lat="43.7737633" lon="12.0487467"><ele>915.0</ele><time>2026-04-22T08:29:35.72Z</time></trkpt><trkpt lat="43.773625" lon="12.0487617"><ele>912.25</ele><time>2026-04-22T08:29:36.72Z</time></trkpt><trkpt lat="43.773495" lon="12.048785"><ele>909.5</ele><time>2026-04-22T08:29:37.72Z</time></trkpt><trkpt lat="43.77337" lon="12.0488483"><ele>906.75</ele><time>2026-04-22T08:29:38.721Z</time></trkpt><trkpt lat="43.77325" lon="12.048915"><ele>904.0</ele><time>2026-04-22T08:29:39.721Z</time></trkpt><trkpt lat="43.773125" lon="12.0489983"><ele>904.0</ele><time>2026-04-22T08:29:40.72Z</time></trkpt><trkpt lat="43.7730017" lon="12.0490717"><ele>904.0</ele><time>2026-04-22T08:29:41.72Z</time></trkpt><trkpt lat="43.7728633" lon="12.0491233"><ele>904.0</ele><time>2026-04-22T08:29:42.72Z</time></trkpt><trkpt lat="43.7727067" lon="12.0491583"><ele>904.0</ele><time>2026-04-22T08:29:43.72Z</time></trkpt><trkpt lat="43.77255" lon="12.0491817"><ele>915.6666666666666</ele><time>2026-04-22T08:29:44.72Z</time></trkpt><trkpt lat="43.7723917" lon="12.04921"><ele>927.3333333333333</ele><time>2026-04-22T08:29:45.72Z</time></trkpt><trkpt lat="43.7722433" lon="12.049235"><ele>939.0</ele><time>2026-04-22T08:29:46.72Z</time></trkpt><trkpt lat="43.7721033" lon="12.0492683"><ele>939.0</ele><time>2026-04-22T08:29:47.72Z</time></trkpt><trkpt lat="43.7719667" lon="12.0493017"><ele>939.0</ele><time>2026-04-22T08:29:48.72Z</time></trkpt><trkpt lat="43.771835" lon="12.04933"><ele>939.0</ele><time>2026-04-22T08:29:49.72Z</time></trkpt><trkpt lat="43.7717083" lon="12.0493767"><ele>939.0</ele><time>2026-04-22T08:29:50.721Z</time></trkpt><trkpt lat="43.7715867" lon="12.0494183"><ele>938.6</ele><time>2026-04-22T08:29:51.72Z</time></trkpt><trkpt lat="43.7714767" lon="12.04945"><ele>938.2</ele><time>2026-04-22T08:29:52.72Z</time></trkpt><trkpt lat="43.7713667" lon="12.0494783"><ele>937.8000000000001</ele><time>2026-04-22T08:29:53.72Z</time></trkpt><trkpt lat="43.771275" lon="12.0495183"><ele>937.4000000000001</ele><time>2026-04-22T08:29:54.72Z</time></trkpt><trkpt lat="43.771195" lon="12.0495683"><ele>937.0</ele><time>2026-04-22T08:29:55.72Z</time></trkpt><trkpt lat="43.7711333" lon="12.0496383"><ele>937.0</ele><time>2026-04-22T08:29:56.721Z</time></trkpt><trkpt lat="43.7710933" lon="12.04972"><ele>937.0</ele><time>2026-04-22T08:29:57.72Z</time></trkpt><trkpt lat="43.7710733" lon="12.049835"><ele>937.0</ele><time>2026-04-22T08:29:58.72Z</time></trkpt><trkpt lat="43.7710817" lon="12.0499667"><ele>937.0</ele><time>2026-04-22T08:29:59.72Z</time></trkpt><trkpt lat="43.771105" lon="12.0501033"><ele>937.0</ele><time>2026-04-22T08:30:00.72Z</time></trkpt><trkpt lat="43.771115" lon="12.0502383"><ele>940.6</ele><time>2026-04-22T08:30:01.72Z</time></trkpt><trkpt lat="43.77111" lon="12.0503733"><ele>944.2</ele><time>2026-04-22T08:30:02.72Z</time></trkpt><trkpt lat="43.771095" lon="12.05051"><ele>947.8</ele><time>2026-04-22T08:30:03.72Z</time></trkpt><trkpt lat="43.7710733" lon="12.050655"><ele>951.4</ele><time>2026-04-22T08:30:04.72Z</time></trkpt><trkpt lat="43.7710317" lon="12.0508083"><ele>955.0</ele><time>2026-04-22T08:30:05.72Z</time></trkpt><trkpt lat="43.77098" lon="12.0509367"><ele>955.0</ele><time>2026-04-22T08:30:06.72Z</time></trkpt><trkpt lat="43.77091" lon="12.0510467"><ele>955.0</ele><time>2026-04-22T08:30:07.72Z</time></trkpt><trkpt lat="43.7708233" lon="12.0511117"><ele>955.0</ele><time>2026-04-22T08:30:08.72Z</time></trkpt><trkpt lat="43.77074" lon="12.05117"><ele>955.0</ele><time>2026-04-22T08:30:09.72Z</time></trkpt><trkpt lat="43.7706817" lon="12.051255"><ele>955.0</ele><time>2026-04-22T08:30:10.72Z</time></trkpt><trkpt lat="43.77066" lon="12.0513633"><ele>955.0</ele><time>2026-04-22T08:30:11.72Z</time></trkpt><trkpt lat="43.7706583" lon="12.0514867"><ele>955.0</ele><time>2026-04-22T08:30:12.72Z</time></trkpt><trkpt lat="43.7706967" lon="12.0516233"><ele>955.0</ele><time>2026-04-22T08:30:13.72Z</time></trkpt><trkpt lat="43.7707567" lon="12.0517633"><ele>955.0</ele><time>2026-04-22T08:30:14.72Z</time></trkpt><trkpt lat="43.7708133" lon="12.0519233"><ele>955.0</ele><time>2026-04-22T08:30:15.72Z</time></trkpt><trkpt lat="43.77085" lon="12.0520867"><ele>957.25</ele><time>2026-04-22T08:30:16.721Z</time></trkpt><trkpt lat="43.7708733" lon="12.0522417"><ele>959.5</ele><time>2026-04-22T08:30:17.72Z</time></trkpt><trkpt lat="43.770875" lon="12.0523967"><ele>961.75</ele><time>2026-04-22T08:30:18.721Z</time></trkpt><trkpt lat="43.7708517" lon="12.05255"><ele>964.0</ele><time>2026-04-22T08:30:19.72Z</time></trkpt><trkpt lat="43.7708033" lon="12.0526983"><ele>965.25</ele><time>2026-04-22T08:30:20.72Z</time></trkpt><trkpt lat="43.7707367" lon="12.0528367"><ele>966.5</ele><time>2026-04-22T08:30:21.721Z</time></trkpt><trkpt lat="43.770675" lon="12.05297"><ele>967.75</ele><time>2026-04-22T08:30:22.72Z</time></trkpt><trkpt lat="43.7706233" lon="12.05312"><ele>969.0</ele><time>2026-04-22T08:30:23.72Z</time></trkpt><trkpt lat="43.770605" lon="12.0532833"><ele>971.0</ele><time>2026-04-22T08:30:24.72Z</time></trkpt><trkpt lat="43.7705867" lon="12.053445"><ele>973.0</ele><time>2026-04-22T08:30:25.72Z</time></trkpt><trkpt lat="43.77054" lon="12.05358"><ele>975.0</ele><time>2026-04-22T08:30:26.72Z</time></trkpt><trkpt lat="43.7704717" lon="12.0537083"><ele>977.0</ele><time>2026-04-22T08:30:27.72Z</time></trkpt><trkpt lat="43.77038" lon="12.053815"><ele>977.0</ele><time>2026-04-22T08:30:28.72Z</time></trkpt><trkpt lat="43.7702867" lon="12.0539217"><ele>977.0</ele><time>2026-04-22T08:30:29.72Z</time></trkpt><trkpt lat="43.7702033" lon="12.0540333"><ele>977.0</ele><time>2026-04-22T08:30:30.72Z</time></trkpt><trkpt lat="43.77014" lon="12.054155"><ele>977.0</ele><time>2026-04-22T08:30:31.72Z</time></trkpt><trkpt lat="43.7701083" lon="12.0542967"><ele>977.0</ele><time>2026-04-22T08:30:32.721Z</time></trkpt><trkpt lat="43.770105" lon="12.0544517"><ele>977.0</ele><time>2026-04-22T08:30:33.72Z</time></trkpt><trkpt lat="43.7701167" lon="12.0546267"><ele>977.0</ele><time>2026-04-22T08:30:34.72Z</time></trkpt><trkpt lat="43.7701367" lon="12.054815"><ele>977.0</ele><time>2026-04-22T08:30:35.72Z</time></trkpt><trkpt lat="43.77015" lon="12.055"><ele>978.75</ele><time>2026-04-22T08:30:36.72Z</time></trkpt><trkpt lat="43.7701367" lon="12.0551733"><ele>980.5</ele><time>2026-04-22T08:30:37.72Z</time></trkpt><trkpt lat="43.770105" lon="12.05535"><ele>982.25</ele><time>2026-04-22T08:30:38.72Z</time></trkpt><trkpt lat="43.7700667" lon="12.05553"><ele>984.0</ele><time>2026-04-22T08:30:39.72Z</time></trkpt><trkpt lat="43.77005" lon="12.05573"><ele>984.5</ele><time>2026-04-22T08:30:40.72Z</time></trkpt><trkpt lat="43.7700433" lon="12.0559333"><ele>985.0</ele><time>2026-04-22T08:30:41.72Z</time></trkpt><trkpt lat="43.7700567" lon="12.0561183"><ele>985.5</ele><time>2026-04-22T08:30:42.72Z</time></trkpt><trkpt lat="43.7700867" lon="12.05629"><ele>986.0</ele><time>2026-04-22T08:30:43.72Z</time></trkpt><trkpt lat="43.7701267" lon="12.0564533"><ele>985.25</ele><time>2026-04-22T08:30:44.72Z</time></trkpt><trkpt lat="43.7701633" lon="12.05662"><ele>984.5</ele><time>2026-04-22T08:30:45.72Z</time></trkpt><trkpt lat="43.7701967" lon="12.0567767"><ele>983.75</ele><time>2026-04-22T08:30:46.72Z</time></trkpt><trkpt lat="43.77022" lon="12.0569367"><ele>983.0</ele><time>2026-04-22T08:30:47.72Z</time></trkpt><trkpt lat="43.770235" lon="12.0571"><ele>988.75</ele><time>2026-04-22T08:30:48.72Z</time></trkpt><trkpt lat="43.7702383" lon="12.0572667"><ele>994.5</ele><time>2026-04-22T08:30:49.721Z</time></trkpt><trkpt lat="43.77024" lon="12.0574467"><ele>1000.25</ele><time>2026-04-22T08:30:50.72Z</time></trkpt><trkpt lat="43.770245" lon="12.0576233"><ele>1006.0</ele><time>2026-04-22T08:30:51.72Z</time></trkpt><trkpt lat="43.7702533" lon="12.0578117"><ele>1006.0</ele><time>2026-04-22T08:30:52.72Z</time></trkpt><trkpt lat="43.770275" lon="12.0579983"><ele>1006.0</ele><time>2026-04-22T08:30:53.72Z</time></trkpt><trkpt lat="43.77031" lon="12.058165"><ele>1006.0</ele><time>2026-04-22T08:30:54.72Z</time></trkpt><trkpt lat="43.7703683" lon="12.0583267"><ele>1006.0</ele><time>2026-04-22T08:30:55.72Z</time></trkpt><trkpt lat="43.770445" lon="12.0584717"><ele>1006.0</ele><time>2026-04-22T08:30:56.721Z</time></trkpt><trkpt lat="43.7705367" lon="12.058605"><ele>1006.0</ele><time>2026-04-22T08:30:57.72Z</time></trkpt><trkpt lat="43.7706267" lon="12.0587367"><ele>1006.0</ele><time>2026-04-22T08:30:58.72Z</time></trkpt><trkpt lat="43.7707083" lon="12.058885"><ele>1006.0</ele><time>2026-04-22T08:30:59.72Z</time></trkpt><trkpt lat="43.7707717" lon="12.05905"><ele>1003.0</ele><time>2026-04-22T08:31:00.721Z</time></trkpt><trkpt lat="43.7708317" lon="12.0592183"><ele>1000.0</ele><time>2026-04-22T08:31:01.72Z</time></trkpt><trkpt lat="43.7709017" lon="12.0593717"><ele>997.0</ele><time>2026-04-22T08:31:02.721Z</time></trkpt><trkpt lat="43.7709833" lon="12.0595233"><ele>994.0</ele><time>2026-04-22T08:31:03.72Z</time></trkpt><trkpt lat="43.771065" lon="12.0596683"><ele>997.75</ele><time>2026-04-22T08:31:04.72Z</time></trkpt><trkpt lat="43.7711433" lon="12.0598083"><ele>1001.5</ele><time>2026-04-22T08:31:05.72Z</time></trkpt><trkpt lat="43.7712267" lon="12.0599467"><ele>1005.25</ele><time>2026-04-22T08:31:06.721Z</time></trkpt><trkpt lat="43.7713117" lon="12.0600983"><ele>1009.0</ele><time>2026-04-22T08:31:07.72Z</time></trkpt><trkpt lat="43.771395" lon="12.0602517"><ele>1009.0</ele><time>2026-04-22T08:31:08.72Z</time></trkpt><trkpt lat="43.7714783" lon="12.0603917"><ele>1009.0</ele><time>2026-04-22T08:31:09.721Z</time></trkpt><trkpt lat="43.771565" lon="12.06053"><ele>1009.0</ele><time>2026-04-22T08:31:10.72Z</time></trkpt><trkpt lat="43.7716367" lon="12.060665"><ele>1009.0</ele><time>2026-04-22T08:31:11.72Z</time></trkpt><trkpt lat="43.7716917" lon="12.0608017"><ele>1005.75</ele><time>2026-04-22T08:31:12.721Z</time></trkpt><trkpt lat="43.77173" lon="12.0609417"><ele>1002.5</ele><time>2026-04-22T08:31:13.72Z</time></trkpt><trkpt lat="43.7717617" lon="12.0611"><ele>999.25</ele><time>2026-04-22T08:31:14.72Z</time></trkpt><trkpt lat="43.771795" lon="12.0612683"><ele>996.0</ele><time>2026-04-22T08:31:15.72Z</time></trkpt><trkpt lat="43.7718233" lon="12.061435"><ele>996.0</ele><time>2026-04-22T08:31:16.72Z</time></trkpt><trkpt lat="43.7718433" lon="12.0615983"><ele>995.9999999999999</ele><time>2026-04-22T08:31:17.72Z</time></trkpt><trkpt lat="43.7718567" lon="12.0617533"><ele>995.9999999999999</ele><time>2026-04-22T08:31:18.72Z</time></trkpt><trkpt lat="43.7718633" lon="12.0618967"><ele>996.0</ele><time>2026-04-22T08:31:19.72Z</time></trkpt><trkpt lat="43.7718867" lon="12.0620317"><ele>996.0</ele><time>2026-04-22T08:31:20.721Z</time></trkpt><trkpt lat="43.77192" lon="12.0621617"><ele>996.1999999999999</ele><time>2026-04-22T08:31:21.72Z</time></trkpt><trkpt lat="43.7719667" lon="12.06227"><ele>996.3999999999999</ele><time>2026-04-22T08:31:22.72Z</time></trkpt><trkpt lat="43.772035" lon="12.062365"><ele>996.6</ele><time>2026-04-22T08:31:23.72Z</time></trkpt><trkpt lat="43.772125" lon="12.062465"><ele>996.8</ele><time>2026-04-22T08:31:24.72Z</time></trkpt><trkpt lat="43.7722233" lon="12.06257"><ele>997.0</ele><time>2026-04-22T08:31:25.72Z</time></trkpt><trkpt lat="43.77231" lon="12.0626833"><ele>997.0</ele><time>2026-04-22T08:31:26.72Z</time></trkpt><trkpt lat="43.772395" lon="12.06282"><ele>997.0</ele><time>2026-04-22T08:31:27.72Z</time></trkpt><trkpt lat="43.7724717" lon="12.0629683"><ele>997.0</ele><time>2026-04-22T08:31:28.72Z</time></trkpt><trkpt lat="43.772545" lon="12.063105"><ele>997.0</ele><time>2026-04-22T08:31:29.72Z</time></trkpt><trkpt lat="43.7726117" lon="12.0632417"><ele>994.5</ele><time>2026-04-22T08:31:30.72Z</time></trkpt><trkpt lat="43.7726683" lon="12.063385"><ele>992.0</ele><time>2026-04-22T08:31:31.72Z</time></trkpt><trkpt lat="43.7727117" lon="12.0635367"><ele>989.5</ele><time>2026-04-22T08:31:32.72Z</time></trkpt><trkpt lat="43.772745" lon="12.0637067"><ele>987.0</ele><time>2026-04-22T08:31:33.721Z</time></trkpt><trkpt lat="43.772785" lon="12.0638683"><ele>990.0</ele><time>2026-04-22T08:31:34.72Z</time></trkpt><trkpt lat="43.7728317" lon="12.0640233"><ele>993.0</ele><time>2026-04-22T08:31:35.72Z</time></trkpt><trkpt lat="43.7728833" lon="12.0641667"><ele>996.0</ele><time>2026-04-22T08:31:36.72Z</time></trkpt><trkpt lat="43.772935" lon="12.0643033"><ele>999.0</ele><time>2026-04-22T08:31:37.72Z</time></trkpt><trkpt lat="43.7729883" lon="12.0644383"><ele>999.0</ele><time>2026-04-22T08:31:38.72Z</time></trkpt><trkpt lat="43.77305" lon="12.0645733"><ele>999.0</ele><time>2026-04-22T08:31:39.72Z</time></trkpt><trkpt lat="43.77311" lon="12.0647033"><ele>999.0</ele><time>2026-04-22T08:31:40.72Z</time></trkpt><trkpt lat="43.77318" lon="12.0648333"><ele>999.0</ele><time>2026-04-22T08:31:41.72Z</time></trkpt><trkpt lat="43.77325" lon="12.0649683"><ele>997.5</ele><time>2026-04-22T08:31:42.72Z</time></trkpt><trkpt lat="43.77332" lon="12.0651033"><ele>996.0</ele><time>2026-04-22T08:31:43.72Z</time></trkpt><trkpt lat="43.7733767" lon="12.06524"><ele>994.5</ele><time>2026-04-22T08:31:44.721Z</time></trkpt><trkpt lat="43.7734083" lon="12.0653967"><ele>993.0</ele><time>2026-04-22T08:31:45.72Z</time></trkpt><trkpt lat="43.7734217" lon="12.065555"><ele>993.0</ele><time>2026-04-22T08:31:46.72Z</time></trkpt><trkpt lat="43.7734183" lon="12.0657167"><ele>993.0</ele><time>2026-04-22T08:31:47.72Z</time></trkpt><trkpt lat="43.7734217" lon="12.0658817"><ele>993.0</ele><time>2026-04-22T08:31:48.72Z</time></trkpt><trkpt lat="43.77345" lon="12.0660267"><ele>993.0</ele><time>2026-04-22T08:31:49.72Z</time></trkpt><trkpt lat="43.7734983" lon="12.06617"><ele>994.5</ele><time>2026-04-22T08:31:50.721Z</time></trkpt><trkpt lat="43.7735583" lon="12.0663133"><ele>996.0</ele><time>2026-04-22T08:31:51.721Z</time></trkpt><trkpt lat="43.7736117" lon="12.0664583"><ele>997.5</ele><time>2026-04-22T08:31:52.72Z</time></trkpt><trkpt lat="43.773655" lon="12.0666117"><ele>999.0</ele><time>2026-04-22T08:31:53.72Z</time></trkpt><trkpt lat="43.7737033" lon="12.0667733"><ele>999.0</ele><time>2026-04-22T08:31:54.72Z</time></trkpt><trkpt lat="43.7737483" lon="12.06693"><ele>999.0</ele><time>2026-04-22T08:31:55.72Z</time></trkpt><trkpt lat="43.7737967" lon="12.06708"><ele>999.0</ele><time>2026-04-22T08:31:56.72Z</time></trkpt><trkpt lat="43.7738433" lon="12.06723"><ele>999.0</ele><time>2026-04-22T08:31:57.72Z</time></trkpt><trkpt lat="43.7738867" lon="12.06738"><ele>999.75</ele><time>2026-04-22T08:31:58.72Z</time></trkpt><trkpt lat="43.773905" lon="12.0675433"><ele>1000.5</ele><time>2026-04-22T08:31:59.72Z</time></trkpt><trkpt lat="43.7739083" lon="12.0677167"><ele>1001.25</ele><time>2026-04-22T08:32:00.72Z</time></trkpt><trkpt lat="43.7739033" lon="12.0678867"><ele>1002.0</ele><time>2026-04-22T08:32:01.72Z</time></trkpt><trkpt lat="43.7738983" lon="12.0680583"><ele>1002.0</ele><time>2026-04-22T08:32:02.72Z</time></trkpt><trkpt lat="43.773915" lon="12.0682317"><ele>1002.0</ele><time>2026-04-22T08:32:03.72Z</time></trkpt><trkpt lat="43.7739367" lon="12.0684117"><ele>1002.0</ele><time>2026-04-22T08:32:04.72Z</time></trkpt><trkpt lat="43.7739517" lon="12.0685883"><ele>1002.0</ele><time>2026-04-22T08:32:05.72Z</time></trkpt><trkpt lat="43.773945" lon="12.0687583"><ele>1003.25</ele><time>2026-04-22T08:32:06.72Z</time></trkpt><trkpt lat="43.7739233" lon="12.0689383"><ele>1004.5</ele><time>2026-04-22T08:32:07.72Z</time></trkpt><trkpt lat="43.7738883" lon="12.06911"><ele>1005.75</ele><time>2026-04-22T08:32:08.72Z</time></trkpt><trkpt lat="43.773845" lon="12.0692717"><ele>1007.0</ele><time>2026-04-22T08:32:09.72Z</time></trkpt><trkpt lat="43.7738133" lon="12.069445"><ele>1008.75</ele><time>2026-04-22T08:32:10.72Z</time></trkpt><trkpt lat="43.773785" lon="12.0696267"><ele>1010.5</ele><time>2026-04-22T08:32:11.721Z</time></trkpt><trkpt lat="43.77376" lon="12.069795"><ele>1012.25</ele><time>2026-04-22T08:32:12.72Z</time></trkpt><trkpt lat="43.7737083" lon="12.0699667"><ele>1014.0</ele><time>2026-04-22T08:32:13.72Z</time></trkpt><trkpt lat="43.7736383" lon="12.0701217"><ele>1017.0</ele><time>2026-04-22T08:32:14.72Z</time></trkpt><trkpt lat="43.773565" lon="12.0702633"><ele>1020.0</ele><time>2026-04-22T08:32:15.72Z</time></trkpt><trkpt lat="43.7734967" lon="12.070415"><ele>1023.0</ele><time>2026-04-22T08:32:16.72Z</time></trkpt><trkpt lat="43.7734467" lon="12.0705817"><ele>1026.0</ele><time>2026-04-22T08:32:17.72Z</time></trkpt><trkpt lat="43.773415" lon="12.0707483"><ele>1021.8</ele><time>2026-04-22T08:32:18.72Z</time></trkpt><trkpt lat="43.7733983" lon="12.070905"><ele>1017.5999999999999</ele><time>2026-04-22T08:32:19.72Z</time></trkpt><trkpt lat="43.7733883" lon="12.0710433"><ele>1013.4</ele><time>2026-04-22T08:32:20.72Z</time></trkpt><trkpt lat="43.7733917" lon="12.0711733"><ele>1009.2</ele><time>2026-04-22T08:32:21.72Z</time></trkpt><trkpt lat="43.7733967" lon="12.071295"><ele>1005.0</ele><time>2026-04-22T08:32:22.72Z</time></trkpt><trkpt lat="43.7733967" lon="12.0714217"><ele>1005.0</ele><time>2026-04-22T08:32:23.72Z</time></trkpt><trkpt lat="43.77336" lon="12.0715283"><ele>1005.0</ele><time>2026-04-22T08:32:24.72Z</time></trkpt><trkpt lat="43.773305" lon="12.0716317"><ele>1005.0</ele><time>2026-04-22T08:32:25.72Z</time></trkpt><trkpt lat="43.77323" lon="12.0717283"><ele>1005.0</ele><time>2026-04-22T08:32:26.72Z</time></trkpt><trkpt lat="43.7731333" lon="12.071825"><ele>1005.0</ele><time>2026-04-22T08:32:27.72Z</time></trkpt><trkpt lat="43.7730333" lon="12.0719283"><ele>1006.5</ele><time>2026-04-22T08:32:28.72Z</time></trkpt><trkpt lat="43.7729333" lon="12.0720283"><ele>1008.0</ele><time>2026-04-22T08:32:29.72Z</time></trkpt><trkpt lat="43.7728433" lon="12.07214"><ele>1009.5</ele><time>2026-04-22T08:32:30.72Z</time></trkpt><trkpt lat="43.7727733" lon="12.072255"><ele>1011.0</ele><time>2026-04-22T08:32:31.72Z</time></trkpt><trkpt lat="43.7727117" lon="12.0723867"><ele>1009.5</ele><time>2026-04-22T08:32:32.721Z</time></trkpt><trkpt lat="43.7726683" lon="12.0725133"><ele>1008.0</ele><time>2026-04-22T08:32:33.72Z</time></trkpt><trkpt lat="43.7726183" lon="12.0726517"><ele>1006.5</ele><time>2026-04-22T08:32:34.72Z</time></trkpt><trkpt lat="43.77255" lon="12.072805"><ele>1005.0</ele><time>2026-04-22T08:32:35.72Z</time></trkpt><trkpt lat="43.7724867" lon="12.0729617"><ele>1005.0</ele><time>2026-04-22T08:32:36.72Z</time></trkpt><trkpt lat="43.772425" lon="12.0731033"><ele>1005.0</ele><time>2026-04-22T08:32:37.72Z</time></trkpt><trkpt lat="43.77238" lon="12.0732567"><ele>1005.0</ele><time>2026-04-22T08:32:38.72Z</time></trkpt><trkpt lat="43.7723533" lon="12.0734233"><ele>1005.0</ele><time>2026-04-22T08:32:39.721Z</time></trkpt><trkpt lat="43.7723483" lon="12.0735933"><ele>1007.25</ele><time>2026-04-22T08:32:40.721Z</time></trkpt><trkpt lat="43.772345" lon="12.0737717"><ele>1009.5</ele><time>2026-04-22T08:32:41.72Z</time></trkpt><trkpt lat="43.77234" lon="12.0739517"><ele>1011.75</ele><time>2026-04-22T08:32:42.72Z</time></trkpt><trkpt lat="43.7723333" lon="12.0741333"><ele>1014.0</ele><time>2026-04-22T08:32:43.72Z</time></trkpt><trkpt lat="43.7723217" lon="12.0743117"><ele>1014.75</ele><time>2026-04-22T08:32:44.72Z</time></trkpt><trkpt lat="43.7723033" lon="12.074485"><ele>1015.5</ele><time>2026-04-22T08:32:45.72Z</time></trkpt><trkpt lat="43.7722883" lon="12.0746617"><ele>1016.25</ele><time>2026-04-22T08:32:46.721Z</time></trkpt><trkpt lat="43.7722767" lon="12.0748467"><ele>1017.0</ele><time>2026-04-22T08:32:47.72Z</time></trkpt><trkpt lat="43.7722617" lon="12.0750233"><ele>1017.0</ele><time>2026-04-22T08:32:48.72Z</time></trkpt><trkpt lat="43.7722467" lon="12.0752117"><ele>1017.0</ele><time>2026-04-22T08:32:49.72Z</time></trkpt><trkpt lat="43.7722367" lon="12.0753933"><ele>1017.0</ele><time>2026-04-22T08:32:50.72Z</time></trkpt><trkpt lat="43.7722233" lon="12.0755833"><ele>1017.0</ele><time>2026-04-22T08:32:51.72Z</time></trkpt><trkpt lat="43.77221" lon="12.0757833"><ele>1018.25</ele><time>2026-04-22T08:32:52.72Z</time></trkpt><trkpt lat="43.772195" lon="12.07597"><ele>1019.5</ele><time>2026-04-22T08:32:53.72Z</time></trkpt><trkpt lat="43.7721767" lon="12.07615"><ele>1020.75</ele><time>2026-04-22T08:32:54.72Z</time></trkpt><trkpt lat="43.7721583" lon="12.0763267"><ele>1022.0</ele><time>2026-04-22T08:32:55.72Z</time></trkpt><trkpt lat="43.772145" lon="12.0765117"><ele>1021.75</ele><time>2026-04-22T08:32:56.721Z</time></trkpt><trkpt lat="43.7721433" lon="12.0766967"><ele>1021.5</ele><time>2026-04-22T08:32:57.72Z</time></trkpt><trkpt lat="43.7721533" lon="12.0768733"><ele>1021.25</ele><time>2026-04-22T08:32:58.72Z</time></trkpt><trkpt lat="43.7721767" lon="12.0770433"><ele>1021.0</ele><time>2026-04-22T08:32:59.72Z</time></trkpt><trkpt lat="43.7722117" lon="12.0772033"><ele>1021.0</ele><time>2026-04-22T08:33:00.72Z</time></trkpt><trkpt lat="43.77226" lon="12.0773517"><ele>1021.0</ele><time>2026-04-22T08:33:01.72Z</time></trkpt><trkpt lat="43.77232" lon="12.0774733"><ele>1021.0</ele><time>2026-04-22T08:33:02.72Z</time></trkpt><trkpt lat="43.7724117" lon="12.077575"><ele>1021.0</ele><time>2026-04-22T08:33:03.72Z</time></trkpt><trkpt lat="43.7725283" lon="12.07766"><ele>1021.5</ele><time>2026-04-22T08:33:04.721Z</time></trkpt><trkpt lat="43.77265" lon="12.077725"><ele>1022.0</ele><time>2026-04-22T08:33:05.72Z</time></trkpt><trkpt lat="43.772775" lon="12.0778"><ele>1022.5</ele><time>2026-04-22T08:33:06.721Z</time></trkpt><trkpt lat="43.7728983" lon="12.07787"><ele>1023.0</ele><time>2026-04-22T08:33:07.721Z</time></trkpt><trkpt lat="43.7730317" lon="12.0779483"><ele>1023.0</ele><time>2026-04-22T08:33:08.72Z</time></trkpt><trkpt lat="43.7731533" lon="12.078015"><ele>1023.0</ele><time>2026-04-22T08:33:09.721Z</time></trkpt><trkpt lat="43.7732717" lon="12.0780933"><ele>1023.0</ele><time>2026-04-22T08:33:10.72Z</time></trkpt><trkpt lat="43.7733967" lon="12.0781667"><ele>1023.0</ele><time>2026-04-22T08:33:11.72Z</time></trkpt><trkpt lat="43.7735133" lon="12.0782417"><ele>1022.5</ele><time>2026-04-22T08:33:12.721Z</time></trkpt><trkpt lat="43.7736333" lon="12.078295"><ele>1022.0</ele><time>2026-04-22T08:33:13.72Z</time></trkpt><trkpt lat="43.7737567" lon="12.0783317"><ele>1021.5</ele><time>2026-04-22T08:33:14.72Z</time></trkpt><trkpt lat="43.7738933" lon="12.0783483"><ele>1021.0</ele><time>2026-04-22T08:33:15.72Z</time></trkpt><trkpt lat="43.7740267" lon="12.0783633"><ele>1021.0</ele><time>2026-04-22T08:33:16.72Z</time></trkpt><trkpt lat="43.774155" lon="12.078385"><ele>1021.0</ele><time>2026-04-22T08:33:17.72Z</time></trkpt><trkpt lat="43.77428" lon="12.07841"><ele>1021.0</ele><time>2026-04-22T08:33:18.72Z</time></trkpt><trkpt lat="43.7743917" lon="12.0784367"><ele>1021.0</ele><time>2026-04-22T08:33:19.72Z</time></trkpt><trkpt lat="43.77449" lon="12.0784717"><ele>1023.0</ele><time>2026-04-22T08:33:20.72Z</time></trkpt><trkpt lat="43.7745783" lon="12.0785267"><ele>1025.0</ele><time>2026-04-22T08:33:21.72Z</time></trkpt><trkpt lat="43.7746433" lon="12.0786133"><ele>1027.0</ele><time>2026-04-22T08:33:22.72Z</time></trkpt><trkpt lat="43.774695" lon="12.0787283"><ele>1029.0</ele><time>2026-04-22T08:33:23.72Z</time></trkpt><trkpt lat="43.7747183" lon="12.07887"><ele>1031.0</ele><time>2026-04-22T08:33:24.721Z</time></trkpt><trkpt lat="43.77472" lon="12.07902"><ele>1031.2</ele><time>2026-04-22T08:33:25.72Z</time></trkpt><trkpt lat="43.7746867" lon="12.0791617"><ele>1031.3999999999999</ele><time>2026-04-22T08:33:26.721Z</time></trkpt><trkpt lat="43.7746233" lon="12.0792883"><ele>1031.6</ele><time>2026-04-22T08:33:27.72Z</time></trkpt><trkpt lat="43.7745383" lon="12.07939"><ele>1031.8</ele><time>2026-04-22T08:33:28.72Z</time></trkpt><trkpt lat="43.7744383" lon="12.079455"><ele>1032.0</ele><time>2026-04-22T08:33:29.72Z</time></trkpt><trkpt lat="43.7743333" lon="12.0794967"><ele>1030.0</ele><time>2026-04-22T08:33:30.72Z</time></trkpt><trkpt lat="43.7742333" lon="12.0795217"><ele>1028.0</ele><time>2026-04-22T08:33:31.72Z</time></trkpt><trkpt lat="43.7741467" lon="12.0795617"><ele>1026.0</ele><time>2026-04-22T08:33:32.721Z</time></trkpt><trkpt lat="43.774065" lon="12.0796267"><ele>1024.0</ele><time>2026-04-22T08:33:33.72Z</time></trkpt><trkpt lat="43.7740017" lon="12.07972"><ele>1022.0</ele><time>2026-04-22T08:33:34.721Z</time></trkpt><trkpt lat="43.773955" lon="12.0798517"><ele>1024.5</ele><time>2026-04-22T08:33:35.72Z</time></trkpt><trkpt lat="43.7739267" lon="12.0799967"><ele>1027.0</ele><time>2026-04-22T08:33:36.72Z</time></trkpt><trkpt lat="43.7739067" lon="12.080165"><ele>1029.5</ele><time>2026-04-22T08:33:37.72Z</time></trkpt><trkpt lat="43.7738767" lon="12.0803317"><ele>1032.0</ele><time>2026-04-22T08:33:38.72Z</time></trkpt><trkpt lat="43.773825" lon="12.0804967"><ele>1032.0</ele><time>2026-04-22T08:33:39.72Z</time></trkpt><trkpt lat="43.7737533" lon="12.08065"><ele>1032.0</ele><time>2026-04-22T08:33:40.721Z</time></trkpt><trkpt lat="43.77368" lon="12.0807933"><ele>1032.0</ele><time>2026-04-22T08:33:41.72Z</time></trkpt><trkpt lat="43.773605" lon="12.0809217"><ele>1032.0</ele><time>2026-04-22T08:33:42.72Z</time></trkpt><trkpt lat="43.7735417" lon="12.0810333"><ele>1032.4285714285713</ele><time>2026-04-22T08:33:43.72Z</time></trkpt><trkpt lat="43.7734933" lon="12.0811233"><ele>1032.857142857143</ele><time>2026-04-22T08:33:44.72Z</time></trkpt><trkpt lat="43.7734717" lon="12.0812167"><ele>1033.2857142857142</ele><time>2026-04-22T08:33:45.72Z</time></trkpt><trkpt lat="43.7734833" lon="12.0813067"><ele>1033.7142857142858</ele><time>2026-04-22T08:33:46.72Z</time></trkpt><trkpt lat="43.7735217" lon="12.0813867"><ele>1034.142857142857</ele><time>2026-04-22T08:33:47.72Z</time></trkpt><trkpt lat="43.77357" lon="12.081445"><ele>1034.5714285714284</ele><time>2026-04-22T08:33:48.721Z</time></trkpt><trkpt lat="43.773625" lon="12.0814983"><ele>1035.0</ele><time>2026-04-22T08:33:49.72Z</time></trkpt><trkpt lat="43.773685" lon="12.08155"><ele>1034.8333333333333</ele><time>2026-04-22T08:33:50.721Z</time></trkpt><trkpt lat="43.7737483" lon="12.0816033"><ele>1034.6666666666667</ele><time>2026-04-22T08:33:51.72Z</time></trkpt><trkpt lat="43.7738017" lon="12.081665"><ele>1034.5</ele><time>2026-04-22T08:33:52.72Z</time></trkpt><trkpt lat="43.7738583" lon="12.0817283"><ele>1034.3333333333335</ele><time>2026-04-22T08:33:53.72Z</time></trkpt><trkpt lat="43.7739233" lon="12.081795"><ele>1034.1666666666667</ele><time>2026-04-22T08:33:54.72Z</time></trkpt><trkpt lat="43.7740083" lon="12.081845"><ele>1034.0</ele><time>2026-04-22T08:33:55.72Z</time></trkpt><trkpt lat="43.7740933" lon="12.0819"><ele>1034.0</ele><time>2026-04-22T08:33:56.72Z</time></trkpt><trkpt lat="43.7741833" lon="12.0819483"><ele>1034.0</ele><time>2026-04-22T08:33:57.72Z</time></trkpt><trkpt lat="43.7742733" lon="12.0820017"><ele>1034.0</ele><time>2026-04-22T08:33:58.72Z</time></trkpt><trkpt lat="43.77437" lon="12.0820517"><ele>1034.0</ele><time>2026-04-22T08:33:59.72Z</time></trkpt><trkpt lat="43.7744733" lon="12.0821"><ele>1034.0</ele><time>2026-04-22T08:34:00.72Z</time></trkpt><trkpt lat="43.7745717" lon="12.08214"><ele>1036.2</ele><time>2026-04-22T08:34:01.721Z</time></trkpt><trkpt lat="43.7746767" lon="12.0821767"><ele>1038.4</ele><time>2026-04-22T08:34:02.72Z</time></trkpt><trkpt lat="43.77478" lon="12.0822133"><ele>1040.6</ele><time>2026-04-22T08:34:03.72Z</time></trkpt><trkpt lat="43.7748883" lon="12.08224"><ele>1042.8</ele><time>2026-04-22T08:34:04.72Z</time></trkpt><trkpt lat="43.7749967" lon="12.082275"><ele>1045.0</ele><time>2026-04-22T08:34:05.72Z</time></trkpt><trkpt lat="43.7751017" lon="12.0823133"><ele>1047.0</ele><time>2026-04-22T08:34:06.72Z</time></trkpt><trkpt lat="43.7751917" lon="12.0823633"><ele>1049.0</ele><time>2026-04-22T08:34:07.721Z</time></trkpt><trkpt lat="43.7752667" lon="12.0824283"><ele>1051.0</ele><time>2026-04-22T08:34:08.72Z</time></trkpt><trkpt lat="43.77532" lon="12.0825233"><ele>1053.0</ele><time>2026-04-22T08:34:09.72Z</time></trkpt><trkpt lat="43.775355" lon="12.0826483"><ele>1055.0</ele><time>2026-04-22T08:34:10.72Z</time></trkpt><trkpt lat="43.7753767" lon="12.0827817"><ele>1055.0</ele><time>2026-04-22T08:34:11.72Z</time></trkpt><trkpt lat="43.7753967" lon="12.0829233"><ele>1055.0</ele><time>2026-04-22T08:34:12.72Z</time></trkpt><trkpt lat="43.7754183" lon="12.083065"><ele>1055.0</ele><time>2026-04-22T08:34:13.72Z</time></trkpt><trkpt lat="43.77545" lon="12.08321"><ele>1055.0</ele><time>2026-04-22T08:34:14.721Z</time></trkpt><trkpt lat="43.7754833" lon="12.083345"><ele>1055.0</ele><time>2026-04-22T08:34:15.72Z</time></trkpt><trkpt lat="43.775525" lon="12.0834767"><ele>1055.2</ele><time>2026-04-22T08:34:16.72Z</time></trkpt><trkpt lat="43.7755817" lon="12.0835767"><ele>1055.4</ele><time>2026-04-22T08:34:17.72Z</time></trkpt><trkpt lat="43.7756433" lon="12.0836633"><ele>1055.6</ele><time>2026-04-22T08:34:18.72Z</time></trkpt><trkpt lat="43.775715" lon="12.0837417"><ele>1055.8</ele><time>2026-04-22T08:34:19.72Z</time></trkpt><trkpt lat="43.7757933" lon="12.0838117"><ele>1056.0</ele><time>2026-04-22T08:34:20.72Z</time></trkpt><trkpt lat="43.7758733" lon="12.0838883"><ele>1056.0</ele><time>2026-04-22T08:34:21.72Z</time></trkpt><trkpt lat="43.7759533" lon="12.0839633"><ele>1056.0</ele><time>2026-04-22T08:34:22.72Z</time></trkpt><trkpt lat="43.776025" lon="12.0840383"><ele>1056.0</ele><time>2026-04-22T08:34:23.72Z</time></trkpt><trkpt lat="43.7760983" lon="12.0841283"><ele>1056.0</ele><time>2026-04-22T08:34:24.72Z</time></trkpt><trkpt lat="43.776155" lon="12.08424"><ele>1056.0</ele><time>2026-04-22T08:34:25.72Z</time></trkpt><trkpt lat="43.776205" lon="12.0843683"><ele>1057.3999999999999</ele><time>2026-04-22T08:34:26.72Z</time></trkpt><trkpt lat="43.7762533" lon="12.0845017"><ele>1058.8</ele><time>2026-04-22T08:34:27.72Z</time></trkpt><trkpt lat="43.7762867" lon="12.08464"><ele>1060.1999999999998</ele><time>2026-04-22T08:34:28.72Z</time></trkpt><trkpt lat="43.7763133" lon="12.08478"><ele>1061.6</ele><time>2026-04-22T08:34:29.721Z</time></trkpt><trkpt lat="43.7763217" lon="12.084925"><ele>1063.0</ele><time>2026-04-22T08:34:30.72Z</time></trkpt><trkpt lat="43.7763233" lon="12.0850733"><ele>1063.2</ele><time>2026-04-22T08:34:31.72Z</time></trkpt><trkpt lat="43.7763217" lon="12.0852267"><ele>1063.4</ele><time>2026-04-22T08:34:32.72Z</time></trkpt><trkpt lat="43.7763133" lon="12.0853783"><ele>1063.6000000000001</ele><time>2026-04-22T08:34:33.72Z</time></trkpt><trkpt lat="43.7762967" lon="12.085525"><ele>1063.8</ele><time>2026-04-22T08:34:34.72Z</time></trkpt><trkpt lat="43.7762967" lon="12.085675"><ele>1064.0</ele><time>2026-04-22T08:34:35.72Z</time></trkpt><trkpt lat="43.7762933" lon="12.0858233"><ele>1065.2</ele><time>2026-04-22T08:34:36.72Z</time></trkpt><trkpt lat="43.7762867" lon="12.0859733"><ele>1066.4</ele><time>2026-04-22T08:34:37.72Z</time></trkpt><trkpt lat="43.7762817" lon="12.086125"><ele>1067.6</ele><time>2026-04-22T08:34:38.72Z</time></trkpt><trkpt lat="43.7762733" lon="12.086285"><ele>1068.8</ele><time>2026-04-22T08:34:39.72Z</time></trkpt><trkpt lat="43.77627" lon="12.08643"><ele>1070.0</ele><time>2026-04-22T08:34:40.721Z</time></trkpt><trkpt lat="43.7762633" lon="12.086575"><ele>1071.0</ele><time>2026-04-22T08:34:41.721Z</time></trkpt><trkpt lat="43.77626" lon="12.0867183"><ele>1072.0</ele><time>2026-04-22T08:34:42.72Z</time></trkpt><trkpt lat="43.77625" lon="12.086865"><ele>1073.0</ele><time>2026-04-22T08:34:43.72Z</time></trkpt><trkpt lat="43.7762533" lon="12.0870083"><ele>1074.0</ele><time>2026-04-22T08:34:44.72Z</time></trkpt><trkpt lat="43.776265" lon="12.0871417"><ele>1075.0</ele><time>2026-04-22T08:34:45.72Z</time></trkpt><trkpt lat="43.7762867" lon="12.0872683"><ele>1075.0</ele><time>2026-04-22T08:34:46.721Z</time></trkpt><trkpt lat="43.7763217" lon="12.0873867"><ele>1075.0</ele><time>2026-04-22T08:34:47.721Z</time></trkpt><trkpt lat="43.7763583" lon="12.087505"><ele>1075.0</ele><time>2026-04-22T08:34:48.72Z</time></trkpt><trkpt lat="43.7763867" lon="12.0876167"><ele>1075.0</ele><time>2026-04-22T08:34:49.72Z</time></trkpt><trkpt lat="43.7764217" lon="12.0877317"><ele>1075.0</ele><time>2026-04-22T08:34:50.72Z</time></trkpt><trkpt lat="43.7764517" lon="12.087835"><ele>1075.0</ele><time>2026-04-22T08:34:51.72Z</time></trkpt><trkpt lat="43.77647" lon="12.08793"><ele>1075.8</ele><time>2026-04-22T08:34:52.72Z</time></trkpt><trkpt lat="43.7764467" lon="12.0880867"><ele>1076.6</ele><time>2026-04-22T08:34:54.72Z</time></trkpt><trkpt lat="43.7764" lon="12.0881483"><ele>1077.4</ele><time>2026-04-22T08:34:55.72Z</time></trkpt><trkpt lat="43.7763267" lon="12.0882017"><ele>1078.2</ele><time>2026-04-22T08:34:56.72Z</time></trkpt><trkpt lat="43.77624" lon="12.0882517"><ele>1079.0</ele><time>2026-04-22T08:34:57.72Z</time></trkpt><trkpt lat="43.7761517" lon="12.0883"><ele>1079.4</ele><time>2026-04-22T08:34:58.721Z</time></trkpt><trkpt lat="43.77607" lon="12.08836"><ele>1079.8000000000002</ele><time>2026-04-22T08:34:59.72Z</time></trkpt><trkpt lat="43.7759783" lon="12.0884083"><ele>1080.1999999999998</ele><time>2026-04-22T08:35:00.72Z</time></trkpt><trkpt lat="43.7758883" lon="12.0884733"><ele>1080.6</ele><time>2026-04-22T08:35:01.72Z</time></trkpt><trkpt lat="43.7758" lon="12.0885333"><ele>1081.0</ele><time>2026-04-22T08:35:02.72Z</time></trkpt><trkpt lat="43.77571" lon="12.0885717"><ele>1080.0</ele><time>2026-04-22T08:35:03.72Z</time></trkpt><trkpt lat="43.7756167" lon="12.0885967"><ele>1079.0</ele><time>2026-04-22T08:35:04.72Z</time></trkpt><trkpt lat="43.7755183" lon="12.0886"><ele>1078.0</ele><time>2026-04-22T08:35:05.72Z</time></trkpt><trkpt lat="43.775415" lon="12.088585"><ele>1077.0</ele><time>2026-04-22T08:35:06.72Z</time></trkpt><trkpt lat="43.7753083" lon="12.0885567"><ele>1076.0</ele><time>2026-04-22T08:35:07.72Z</time></trkpt><trkpt lat="43.7751967" lon="12.0885267"><ele>1072.75</ele><time>2026-04-22T08:35:08.72Z</time></trkpt><trkpt lat="43.7750817" lon="12.0884933"><ele>1069.5</ele><time>2026-04-22T08:35:09.72Z</time></trkpt><trkpt lat="43.774965" lon="12.088465"><ele>1066.25</ele><time>2026-04-22T08:35:10.72Z</time></trkpt><trkpt lat="43.7748467" lon="12.0884583"><ele>1063.0</ele><time>2026-04-22T08:35:11.72Z</time></trkpt><trkpt lat="43.7747333" lon="12.0884683"><ele>1063.0</ele><time>2026-04-22T08:35:12.72Z</time></trkpt><trkpt lat="43.77461" lon="12.0885167"><ele>1063.0</ele><time>2026-04-22T08:35:13.72Z</time></trkpt><trkpt lat="43.7744867" lon="12.0885817"><ele>1063.0</ele><time>2026-04-22T08:35:14.721Z</time></trkpt><trkpt lat="43.7743667" lon="12.0886583"><ele>1063.0</ele><time>2026-04-22T08:35:15.72Z</time></trkpt><trkpt lat="43.7742467" lon="12.0887467"><ele>1062.75</ele><time>2026-04-22T08:35:16.72Z</time></trkpt><trkpt lat="43.7741283" lon="12.0888283"><ele>1062.5</ele><time>2026-04-22T08:35:17.72Z</time></trkpt><trkpt lat="43.7740133" lon="12.0889083"><ele>1062.25</ele><time>2026-04-22T08:35:18.72Z</time></trkpt><trkpt lat="43.7739017" lon="12.0889833"><ele>1062.0</ele><time>2026-04-22T08:35:19.72Z</time></trkpt><trkpt lat="43.773785" lon="12.0890583"><ele>1060.5</ele><time>2026-04-22T08:35:20.72Z</time></trkpt><trkpt lat="43.7736733" lon="12.0891333"><ele>1059.0</ele><time>2026-04-22T08:35:21.72Z</time></trkpt><trkpt lat="43.77356" lon="12.089205"><ele>1057.5</ele><time>2026-04-22T08:35:22.72Z</time></trkpt><trkpt lat="43.7734533" lon="12.08927"><ele>1056.0</ele><time>2026-04-22T08:35:23.72Z</time></trkpt><trkpt lat="43.7733533" lon="12.089335"><ele>1055.25</ele><time>2026-04-22T08:35:24.72Z</time></trkpt><trkpt lat="43.77325" lon="12.089405"><ele>1054.5</ele><time>2026-04-22T08:35:25.72Z</time></trkpt><trkpt lat="43.7731417" lon="12.0894683"><ele>1053.75</ele><time>2026-04-22T08:35:26.72Z</time></trkpt><trkpt lat="43.7730383" lon="12.0895383"><ele>1053.0</ele><time>2026-04-22T08:35:27.72Z</time></trkpt><trkpt lat="43.7729367" lon="12.0896017"><ele>1053.0</ele><time>2026-04-22T08:35:28.72Z</time></trkpt><trkpt lat="43.77283" lon="12.0896667"><ele>1053.0</ele><time>2026-04-22T08:35:29.72Z</time></trkpt><trkpt lat="43.7727267" lon="12.089725"><ele>1053.0</ele><time>2026-04-22T08:35:30.72Z</time></trkpt><trkpt lat="43.7726233" lon="12.0897883"><ele>1053.0</ele><time>2026-04-22T08:35:31.72Z</time></trkpt><trkpt lat="43.7725233" lon="12.089855"><ele>1052.75</ele><time>2026-04-22T08:35:32.72Z</time></trkpt><trkpt lat="43.772415" lon="12.0899217"><ele>1052.5</ele><time>2026-04-22T08:35:33.72Z</time></trkpt><trkpt lat="43.772295" lon="12.089995"><ele>1052.25</ele><time>2026-04-22T08:35:34.72Z</time></trkpt><trkpt lat="43.7721717" lon="12.0900667"><ele>1052.0</ele><time>2026-04-22T08:35:35.72Z</time></trkpt><trkpt lat="43.7720533" lon="12.0901383"><ele>1050.75</ele><time>2026-04-22T08:35:36.72Z</time></trkpt><trkpt lat="43.7719333" lon="12.0902183"><ele>1049.5</ele><time>2026-04-22T08:35:37.72Z</time></trkpt><trkpt lat="43.7718017" lon="12.0903017"><ele>1048.25</ele><time>2026-04-22T08:35:38.72Z</time></trkpt><trkpt lat="43.7716717" lon="12.090385"><ele>1047.0</ele><time>2026-04-22T08:35:39.72Z</time></trkpt><trkpt lat="43.7715267" lon="12.0904783"><ele>1046.0</ele><time>2026-04-22T08:35:40.72Z</time></trkpt><trkpt lat="43.7713833" lon="12.0905767"><ele>1045.0</ele><time>2026-04-22T08:35:41.721Z</time></trkpt><trkpt lat="43.7712417" lon="12.0906733"><ele>1044.0</ele><time>2026-04-22T08:35:42.72Z</time></trkpt><trkpt lat="43.7711" lon="12.090755"><ele>1043.0</ele><time>2026-04-22T08:35:43.72Z</time></trkpt><trkpt lat="43.7709583" lon="12.0908367"><ele>1042.0</ele><time>2026-04-22T08:35:44.72Z</time></trkpt><trkpt lat="43.7708233" lon="12.090915"><ele>1041.0</ele><time>2026-04-22T08:35:45.72Z</time></trkpt><trkpt lat="43.7706917" lon="12.0909983"><ele>1040.0</ele><time>2026-04-22T08:35:46.72Z</time></trkpt><trkpt lat="43.7705567" lon="12.0910817"><ele>1040.0</ele><time>2026-04-22T08:35:47.72Z</time></trkpt><trkpt lat="43.7704167" lon="12.0911667"><ele>1040.0</ele><time>2026-04-22T08:35:48.72Z</time></trkpt><trkpt lat="43.7702767" lon="12.0912483"><ele>1040.0</ele><time>2026-04-22T08:35:49.72Z</time></trkpt><trkpt lat="43.7701367" lon="12.0913317"><ele>1039.6666666666667</ele><time>2026-04-22T08:35:50.72Z</time></trkpt><trkpt lat="43.7700017" lon="12.0914217"><ele>1039.3333333333333</ele><time>2026-04-22T08:35:51.721Z</time></trkpt><trkpt lat="43.769865" lon="12.0915133"><ele>1039.0</ele><time>2026-04-22T08:35:52.721Z</time></trkpt><trkpt lat="43.7697267" lon="12.0915983"><ele>1036.3333333333333</ele><time>2026-04-22T08:35:53.721Z</time></trkpt><trkpt lat="43.7695883" lon="12.091685"><ele>1033.6666666666667</ele><time>2026-04-22T08:35:54.72Z</time></trkpt><trkpt lat="43.769445" lon="12.0917683"><ele>1031.0</ele><time>2026-04-22T08:35:55.72Z</time></trkpt><trkpt lat="43.7693067" lon="12.0918583"><ele>1029.75</ele><time>2026-04-22T08:35:56.72Z</time></trkpt><trkpt lat="43.7691733" lon="12.0919467"><ele>1028.5</ele><time>2026-04-22T08:35:57.72Z</time></trkpt><trkpt lat="43.7690367" lon="12.0920233"><ele>1027.25</ele><time>2026-04-22T08:35:58.72Z</time></trkpt><trkpt lat="43.76891" lon="12.0921083"><ele>1026.0</ele><time>2026-04-22T08:35:59.72Z</time></trkpt><trkpt lat="43.76878" lon="12.0921883"><ele>1026.0</ele><time>2026-04-22T08:36:00.721Z</time></trkpt><trkpt lat="43.76865" lon="12.0922667"><ele>1026.0</ele><time>2026-04-22T08:36:01.72Z</time></trkpt><trkpt lat="43.7685183" lon="12.09235"><ele>1026.0</ele><time>2026-04-22T08:36:02.72Z</time></trkpt><trkpt lat="43.7683933" lon="12.0924267"><ele>1026.0</ele><time>2026-04-22T08:36:03.72Z</time></trkpt><trkpt lat="43.76827" lon="12.09251"><ele>1025.0</ele><time>2026-04-22T08:36:04.72Z</time></trkpt><trkpt lat="43.7681533" lon="12.0926"><ele>1024.0</ele><time>2026-04-22T08:36:05.721Z</time></trkpt><trkpt lat="43.7680517" lon="12.0927083"><ele>1023.0</ele><time>2026-04-22T08:36:06.72Z</time></trkpt><trkpt lat="43.76797" lon="12.0928267"><ele>1022.0</ele><time>2026-04-22T08:36:07.72Z</time></trkpt><trkpt lat="43.7679017" lon="12.0929617"><ele>1022.0</ele><time>2026-04-22T08:36:08.72Z</time></trkpt><trkpt lat="43.7678333" lon="12.0931033"><ele>1022.0</ele><time>2026-04-22T08:36:09.72Z</time></trkpt><trkpt lat="43.76777" lon="12.093245"><ele>1022.0</ele><time>2026-04-22T08:36:10.72Z</time></trkpt><trkpt lat="43.7677033" lon="12.0933867"><ele>1022.0</ele><time>2026-04-22T08:36:11.72Z</time></trkpt><trkpt lat="43.7676267" lon="12.0935117"><ele>1020.5</ele><time>2026-04-22T08:36:12.72Z</time></trkpt><trkpt lat="43.767535" lon="12.0936233"><ele>1019.0</ele><time>2026-04-22T08:36:13.72Z</time></trkpt><trkpt lat="43.76743" lon="12.0936967"><ele>1017.5</ele><time>2026-04-22T08:36:14.72Z</time></trkpt><trkpt lat="43.7673217" lon="12.0937633"><ele>1016.0</ele><time>2026-04-22T08:36:15.721Z</time></trkpt><trkpt lat="43.7672067" lon="12.0938217"><ele>1016.0</ele><time>2026-04-22T08:36:16.72Z</time></trkpt><trkpt lat="43.7670917" lon="12.093875"><ele>1016.0</ele><time>2026-04-22T08:36:17.72Z</time></trkpt><trkpt lat="43.76698" lon="12.09393"><ele>1016.0</ele><time>2026-04-22T08:36:18.721Z</time></trkpt><trkpt lat="43.766875" lon="12.0939983"><ele>1016.0</ele><time>2026-04-22T08:36:19.72Z</time></trkpt><trkpt lat="43.7667867" lon="12.094085"><ele>1012.25</ele><time>2026-04-22T08:36:20.72Z</time></trkpt><trkpt lat="43.7667083" lon="12.09419"><ele>1008.5</ele><time>2026-04-22T08:36:21.72Z</time></trkpt><trkpt lat="43.766645" lon="12.0943117"><ele>1004.75</ele><time>2026-04-22T08:36:22.72Z</time></trkpt><trkpt lat="43.7665767" lon="12.0944417"><ele>1001.0</ele><time>2026-04-22T08:36:23.72Z</time></trkpt><trkpt lat="43.7665133" lon="12.0945833"><ele>1001.0</ele><time>2026-04-22T08:36:24.721Z</time></trkpt><trkpt lat="43.7664483" lon="12.0947317"><ele>1001.0</ele><time>2026-04-22T08:36:25.72Z</time></trkpt><trkpt lat="43.7663817" lon="12.0948917"><ele>1001.0</ele><time>2026-04-22T08:36:26.72Z</time></trkpt><trkpt lat="43.7663067" lon="12.0950533"><ele>1001.0</ele><time>2026-04-22T08:36:27.72Z</time></trkpt><trkpt lat="43.7662333" lon="12.09522"><ele>1000.5</ele><time>2026-04-22T08:36:28.72Z</time></trkpt><trkpt lat="43.76616" lon="12.0953817"><ele>1000.0</ele><time>2026-04-22T08:36:29.72Z</time></trkpt><trkpt lat="43.76608" lon="12.0955417"><ele>999.5</ele><time>2026-04-22T08:36:30.72Z</time></trkpt><trkpt lat="43.7659967" lon="12.095695"><ele>999.0</ele><time>2026-04-22T08:36:31.72Z</time></trkpt><trkpt lat="43.7659067" lon="12.0958333"><ele>998.25</ele><time>2026-04-22T08:36:32.72Z</time></trkpt><trkpt lat="43.7657967" lon="12.0959517"><ele>997.5</ele><time>2026-04-22T08:36:33.72Z</time></trkpt><trkpt lat="43.7656833" lon="12.096065"><ele>996.75</ele><time>2026-04-22T08:36:34.72Z</time></trkpt><trkpt lat="43.76556" lon="12.09618"><ele>996.0</ele><time>2026-04-22T08:36:35.72Z</time></trkpt><trkpt lat="43.7654317" lon="12.0962817"><ele>996.0</ele><time>2026-04-22T08:36:36.72Z</time></trkpt><trkpt lat="43.7653" lon="12.0963933"><ele>996.0</ele><time>2026-04-22T08:36:37.72Z</time></trkpt><trkpt lat="43.7651633" lon="12.0964967"><ele>996.0</ele><time>2026-04-22T08:36:38.72Z</time></trkpt><trkpt lat="43.7650333" lon="12.09661"><ele>996.25</ele><time>2026-04-22T08:36:39.72Z</time></trkpt><trkpt lat="43.764905" lon="12.0967183"><ele>996.5</ele><time>2026-04-22T08:36:40.72Z</time></trkpt><trkpt lat="43.7647767" lon="12.09683"><ele>996.75</ele><time>2026-04-22T08:36:41.72Z</time></trkpt><trkpt lat="43.7646517" lon="12.0969383"><ele>997.0</ele><time>2026-04-22T08:36:42.72Z</time></trkpt><trkpt lat="43.7645317" lon="12.0970483"><ele>997.0</ele><time>2026-04-22T08:36:43.721Z</time></trkpt><trkpt lat="43.76441" lon="12.0971517"><ele>997.0</ele><time>2026-04-22T08:36:44.72Z</time></trkpt><trkpt lat="43.7642933" lon="12.0972517"><ele>997.0</ele><time>2026-04-22T08:36:45.72Z</time></trkpt><trkpt lat="43.7641817" lon="12.09735"><ele>997.0</ele><time>2026-04-22T08:36:46.72Z</time></trkpt><trkpt lat="43.7640617" lon="12.09745"><ele>998.5</ele><time>2026-04-22T08:36:47.721Z</time></trkpt><trkpt lat="43.7639467" lon="12.0975467"><ele>1000.0</ele><time>2026-04-22T08:36:48.721Z</time></trkpt><trkpt lat="43.7638283" lon="12.0976483"><ele>1001.5</ele><time>2026-04-22T08:36:49.72Z</time></trkpt><trkpt lat="43.763715" lon="12.0977467"><ele>1003.0</ele><time>2026-04-22T08:36:50.72Z</time></trkpt><trkpt lat="43.7635883" lon="12.0978283"><ele>1003.5</ele><time>2026-04-22T08:36:51.72Z</time></trkpt><trkpt lat="43.7634533" lon="12.0978833"><ele>1004.0</ele><time>2026-04-22T08:36:52.72Z</time></trkpt><trkpt lat="43.7633167" lon="12.09791"><ele>1004.5</ele><time>2026-04-22T08:36:53.721Z</time></trkpt><trkpt lat="43.7631633" lon="12.0979033"><ele>1005.0</ele><time>2026-04-22T08:36:54.72Z</time></trkpt><trkpt lat="43.7630183" lon="12.0978817"><ele>1005.0</ele><time>2026-04-22T08:36:55.721Z</time></trkpt><trkpt lat="43.7628683" lon="12.09786"><ele>1005.0</ele><time>2026-04-22T08:36:56.72Z</time></trkpt><trkpt lat="43.76272" lon="12.097835"><ele>1005.0</ele><time>2026-04-22T08:36:57.72Z</time></trkpt><trkpt lat="43.7625717" lon="12.09782"><ele>1005.0</ele><time>2026-04-22T08:36:58.72Z</time></trkpt><trkpt lat="43.7624367" lon="12.0978133"><ele>1005.4</ele><time>2026-04-22T08:36:59.72Z</time></trkpt><trkpt lat="43.7623183" lon="12.0978217"><ele>1005.8</ele><time>2026-04-22T08:37:00.72Z</time></trkpt><trkpt lat="43.7622117" lon="12.09785"><ele>1006.2</ele><time>2026-04-22T08:37:01.72Z</time></trkpt><trkpt lat="43.7621233" lon="12.0979033"><ele>1006.6</ele><time>2026-04-22T08:37:02.72Z</time></trkpt><trkpt lat="43.7620467" lon="12.0979917"><ele>1007.0</ele><time>2026-04-22T08:37:03.72Z</time></trkpt><trkpt lat="43.7619683" lon="12.0981"><ele>1007.0</ele><time>2026-04-22T08:37:04.72Z</time></trkpt><trkpt lat="43.7618933" lon="12.0982317"><ele>1007.0</ele><time>2026-04-22T08:37:05.72Z</time></trkpt><trkpt lat="43.7618217" lon="12.098375"><ele>1007.0</ele><time>2026-04-22T08:37:06.72Z</time></trkpt><trkpt lat="43.7617433" lon="12.098515"><ele>1007.0</ele><time>2026-04-22T08:37:07.721Z</time></trkpt><trkpt lat="43.761665" lon="12.098645"><ele>1008.5</ele><time>2026-04-22T08:37:08.72Z</time></trkpt><trkpt lat="43.7615833" lon="12.098765"><ele>1010.0</ele><time>2026-04-22T08:37:09.72Z</time></trkpt><trkpt lat="43.7614917" lon="12.0988667"><ele>1011.5</ele><time>2026-04-22T08:37:10.72Z</time></trkpt><trkpt lat="43.761395" lon="12.0989383"><ele>1013.0</ele><time>2026-04-22T08:37:11.72Z</time></trkpt><trkpt lat="43.76128" lon="12.0989733"><ele>1013.0</ele><time>2026-04-22T08:37:12.721Z</time></trkpt><trkpt lat="43.76116" lon="12.0989933"><ele>1013.0</ele><time>2026-04-22T08:37:13.72Z</time></trkpt><trkpt lat="43.761045" lon="12.099"><ele>1013.0</ele><time>2026-04-22T08:37:14.72Z</time></trkpt><trkpt lat="43.7609283" lon="12.098995"><ele>1013.0</ele><time>2026-04-22T08:37:15.72Z</time></trkpt><trkpt lat="43.7608267" lon="12.099"><ele>1013.0</ele><time>2026-04-22T08:37:16.72Z</time></trkpt><trkpt lat="43.7607267" lon="12.0990217"><ele>1013.0</ele><time>2026-04-22T08:37:17.72Z</time></trkpt><trkpt lat="43.7606183" lon="12.09906"><ele>1013.0</ele><time>2026-04-22T08:37:18.721Z</time></trkpt><trkpt lat="43.76051" lon="12.0991183"><ele>1013.0</ele><time>2026-04-22T08:37:19.72Z</time></trkpt><trkpt lat="43.7604" lon="12.0991933"><ele>1013.0</ele><time>2026-04-22T08:37:20.72Z</time></trkpt><trkpt lat="43.7602883" lon="12.0992783"><ele>1013.0</ele><time>2026-04-22T08:37:21.72Z</time></trkpt><trkpt lat="43.76018" lon="12.0993717"><ele>1013.0</ele><time>2026-04-22T08:37:22.72Z</time></trkpt><trkpt lat="43.7600767" lon="12.0994733"><ele>1013.0</ele><time>2026-04-22T08:37:23.72Z</time></trkpt><trkpt lat="43.7599783" lon="12.0995733"><ele>1012.0</ele><time>2026-04-22T08:37:24.72Z</time></trkpt><trkpt lat="43.7598833" lon="12.0996767"><ele>1011.0</ele><time>2026-04-22T08:37:25.72Z</time></trkpt><trkpt lat="43.75979" lon="12.0997933"><ele>1010.0</ele><time>2026-04-22T08:37:26.72Z</time></trkpt><trkpt lat="43.7596933" lon="12.0999067"><ele>1009.0</ele><time>2026-04-22T08:37:27.721Z</time></trkpt><trkpt lat="43.7595983" lon="12.1000183"><ele>1009.0</ele><time>2026-04-22T08:37:28.72Z</time></trkpt><trkpt lat="43.7595033" lon="12.10013"><ele>1009.0</ele><time>2026-04-22T08:37:29.72Z</time></trkpt><trkpt lat="43.759405" lon="12.1002517"><ele>1009.0</ele><time>2026-04-22T08:37:30.72Z</time></trkpt><trkpt lat="43.75932" lon="12.1003717"><ele>1009.0</ele><time>2026-04-22T08:37:31.72Z</time></trkpt><trkpt lat="43.7592367" lon="12.1004933"><ele>1009.0</ele><time>2026-04-22T08:37:32.72Z</time></trkpt><trkpt lat="43.7591433" lon="12.1005967"><ele>1009.0</ele><time>2026-04-22T08:37:33.721Z</time></trkpt><trkpt lat="43.7590517" lon="12.1007133"><ele>1009.0</ele><time>2026-04-22T08:37:34.72Z</time></trkpt><trkpt lat="43.758965" lon="12.1008233"><ele>1009.0</ele><time>2026-04-22T08:37:35.721Z</time></trkpt><trkpt lat="43.7588717" lon="12.1009383"><ele>1008.0</ele><time>2026-04-22T08:37:36.72Z</time></trkpt><trkpt lat="43.7587767" lon="12.101055"><ele>1007.0</ele><time>2026-04-22T08:37:37.72Z</time></trkpt><trkpt lat="43.75867" lon="12.1011783"><ele>1006.0</ele><time>2026-04-22T08:37:38.72Z</time></trkpt><trkpt lat="43.7585617" lon="12.101295"><ele>1005.0</ele><time>2026-04-22T08:37:39.72Z</time></trkpt><trkpt lat="43.758455" lon="12.1014017"><ele>1005.0</ele><time>2026-04-22T08:37:40.72Z</time></trkpt><trkpt lat="43.7583367" lon="12.101495"><ele>1005.0</ele><time>2026-04-22T08:37:41.72Z</time></trkpt><trkpt lat="43.7582117" lon="12.1015883"><ele>1005.0</ele><time>2026-04-22T08:37:42.72Z</time></trkpt><trkpt lat="43.7580833" lon="12.1016683"><ele>1005.0</ele><time>2026-04-22T08:37:43.72Z</time></trkpt><trkpt lat="43.7579667" lon="12.1017283"><ele>1006.2</ele><time>2026-04-22T08:37:44.721Z</time></trkpt><trkpt lat="43.7578567" lon="12.10178"><ele>1007.4</ele><time>2026-04-22T08:37:45.72Z</time></trkpt><trkpt lat="43.7577533" lon="12.1017983"><ele>1008.5999999999999</ele><time>2026-04-22T08:37:46.72Z</time></trkpt><trkpt lat="43.757645" lon="12.1018"><ele>1009.8</ele><time>2026-04-22T08:37:47.72Z</time></trkpt><trkpt lat="43.75755" lon="12.1017583"><ele>1011.0</ele><time>2026-04-22T08:37:48.72Z</time></trkpt><trkpt lat="43.757465" lon="12.1016833"><ele>1011.0</ele><time>2026-04-22T08:37:49.72Z</time></trkpt><trkpt lat="43.7573917" lon="12.1015883"><ele>1010.9999999999999</ele><time>2026-04-22T08:37:50.721Z</time></trkpt><trkpt lat="43.75732" lon="12.1014833"><ele>1010.9999999999999</ele><time>2026-04-22T08:37:51.72Z</time></trkpt><trkpt lat="43.7572417" lon="12.1013767"><ele>1011.0</ele><time>2026-04-22T08:37:52.72Z</time></trkpt><trkpt lat="43.757165" lon="12.1013017"><ele>1011.0</ele><time>2026-04-22T08:37:53.72Z</time></trkpt><trkpt lat="43.757085" lon="12.1012483"><ele>1009.0</ele><time>2026-04-22T08:37:54.72Z</time></trkpt><trkpt lat="43.756995" lon="12.101235"><ele>1006.9999999999999</ele><time>2026-04-22T08:37:55.72Z</time></trkpt><trkpt lat="43.756895" lon="12.101255"><ele>1004.9999999999999</ele><time>2026-04-22T08:37:56.72Z</time></trkpt><trkpt lat="43.7567883" lon="12.10129"><ele>1003.0</ele><time>2026-04-22T08:37:57.72Z</time></trkpt><trkpt lat="43.75667" lon="12.1013283"><ele>1001.0</ele><time>2026-04-22T08:37:58.72Z</time></trkpt><trkpt lat="43.75655" lon="12.1013433"><ele>1001.0</ele><time>2026-04-22T08:37:59.72Z</time></trkpt><trkpt lat="43.7564333" lon="12.1013283"><ele>1001.0</ele><time>2026-04-22T08:38:00.72Z</time></trkpt><trkpt lat="43.756315" lon="12.1013"><ele>1001.0</ele><time>2026-04-22T08:38:01.72Z</time></trkpt><trkpt lat="43.7562067" lon="12.1012617"><ele>1001.0</ele><time>2026-04-22T08:38:02.72Z</time></trkpt><trkpt lat="43.75609" lon="12.1012167"><ele>1001.0</ele><time>2026-04-22T08:38:03.72Z</time></trkpt><trkpt lat="43.7559683" lon="12.1011733"><ele>1001.0</ele><time>2026-04-22T08:38:04.72Z</time></trkpt><trkpt lat="43.755845" lon="12.101125"><ele>1001.0</ele><time>2026-04-22T08:38:05.72Z</time></trkpt><trkpt lat="43.7557183" lon="12.1010833"><ele>1001.0</ele><time>2026-04-22T08:38:06.72Z</time></trkpt><trkpt lat="43.7556017" lon="12.1010367"><ele>1001.0</ele><time>2026-04-22T08:38:07.72Z</time></trkpt><trkpt lat="43.7554883" lon="12.100995"><ele>1001.0</ele><time>2026-04-22T08:38:08.72Z</time></trkpt><trkpt lat="43.7553717" lon="12.1009583"><ele>1001.0</ele><time>2026-04-22T08:38:09.72Z</time></trkpt><trkpt lat="43.755255" lon="12.1009417"><ele>1001.0</ele><time>2026-04-22T08:38:10.72Z</time></trkpt><trkpt lat="43.7551467" lon="12.100935"><ele>1001.5999999999999</ele><time>2026-04-22T08:38:11.72Z</time></trkpt><trkpt lat="43.7550317" lon="12.1009217"><ele>1002.1999999999999</ele><time>2026-04-22T08:38:12.72Z</time></trkpt><trkpt lat="43.7549233" lon="12.1009033"><ele>1002.8000000000001</ele><time>2026-04-22T08:38:13.721Z</time></trkpt><trkpt lat="43.75482" lon="12.1008583"><ele>1003.4000000000001</ele><time>2026-04-22T08:38:14.72Z</time></trkpt><trkpt lat="43.75473" lon="12.1007733"><ele>1004.0</ele><time>2026-04-22T08:38:15.72Z</time></trkpt><trkpt lat="43.7546567" lon="12.100655"><ele>1002.25</ele><time>2026-04-22T08:38:16.72Z</time></trkpt><trkpt lat="43.7545833" lon="12.1005183"><ele>1000.5</ele><time>2026-04-22T08:38:17.72Z</time></trkpt><trkpt lat="43.7545017" lon="12.1003783"><ele>998.75</ele><time>2026-04-22T08:38:18.72Z</time></trkpt><trkpt lat="43.754405" lon="12.100255"><ele>997.0</ele><time>2026-04-22T08:38:19.72Z</time></trkpt><trkpt lat="43.7543133" lon="12.1001483"><ele>997.0</ele><time>2026-04-22T08:38:20.72Z</time></trkpt><trkpt lat="43.7542083" lon="12.1000583"><ele>997.0</ele><time>2026-04-22T08:38:21.72Z</time></trkpt><trkpt lat="43.7541033" lon="12.0999733"><ele>997.0</ele><time>2026-04-22T08:38:22.72Z</time></trkpt><trkpt lat="43.754" lon="12.0998983"><ele>997.0</ele><time>2026-04-22T08:38:23.72Z</time></trkpt><trkpt lat="43.7539017" lon="12.0998433"><ele>997.6</ele><time>2026-04-22T08:38:24.72Z</time></trkpt><trkpt lat="43.7538067" lon="12.099815"><ele>998.2</ele><time>2026-04-22T08:38:25.721Z</time></trkpt><trkpt lat="43.7537033" lon="12.0998233"><ele>998.8</ele><time>2026-04-22T08:38:26.72Z</time></trkpt><trkpt lat="43.7535967" lon="12.099845"><ele>999.4</ele><time>2026-04-22T08:38:27.72Z</time></trkpt><trkpt lat="43.7534833" lon="12.0998817"><ele>1000.0</ele><time>2026-04-22T08:38:28.72Z</time></trkpt><trkpt lat="43.7533717" lon="12.09992"><ele>1000.0</ele><time>2026-04-22T08:38:29.72Z</time></trkpt><trkpt lat="43.75326" lon="12.0999667"><ele>1000.0</ele><time>2026-04-22T08:38:30.72Z</time></trkpt><trkpt lat="43.7531483" lon="12.1000133"><ele>1000.0</ele><time>2026-04-22T08:38:31.721Z</time></trkpt><trkpt lat="43.7530467" lon="12.100055"><ele>1000.0</ele><time>2026-04-22T08:38:32.72Z</time></trkpt><trkpt lat="43.7529483" lon="12.1000817"><ele>1000.0</ele><time>2026-04-22T08:38:33.72Z</time></trkpt><trkpt lat="43.7528483" lon="12.100075"><ele>1000.0</ele><time>2026-04-22T08:38:34.72Z</time></trkpt><trkpt lat="43.7527567" lon="12.10003"><ele>1000.0</ele><time>2026-04-22T08:38:35.721Z</time></trkpt><trkpt lat="43.7526667" lon="12.099945"><ele>1000.0</ele><time>2026-04-22T08:38:36.72Z</time></trkpt><trkpt lat="43.7525783" lon="12.09984"><ele>1000.0</ele><time>2026-04-22T08:38:37.72Z</time></trkpt><trkpt lat="43.75249" lon="12.0997167"><ele>1000.0</ele><time>2026-04-22T08:38:38.72Z</time></trkpt><trkpt lat="43.752415" lon="12.0995917"><ele>998.0</ele><time>2026-04-22T08:38:39.72Z</time></trkpt><trkpt lat="43.7523517" lon="12.099455"><ele>996.0</ele><time>2026-04-22T08:38:40.72Z</time></trkpt><trkpt lat="43.7523183" lon="12.0993133"><ele>994.0</ele><time>2026-04-22T08:38:41.72Z</time></trkpt><trkpt lat="43.752305" lon="12.0991667"><ele>992.0</ele><time>2026-04-22T08:38:42.72Z</time></trkpt><trkpt lat="43.7523" lon="12.0990167"><ele>990.0</ele><time>2026-04-22T08:38:43.72Z</time></trkpt><trkpt lat="43.7522883" lon="12.0988783"><ele>988.4</ele><time>2026-04-22T08:38:44.72Z</time></trkpt><trkpt lat="43.7522633" lon="12.09875"><ele>986.8</ele><time>2026-04-22T08:38:45.721Z</time></trkpt><trkpt lat="43.75222" lon="12.0986383"><ele>985.2</ele><time>2026-04-22T08:38:46.72Z</time></trkpt><trkpt lat="43.7521467" lon="12.09855"><ele>983.6</ele><time>2026-04-22T08:38:47.72Z</time></trkpt><trkpt lat="43.752065" lon="12.0984883"><ele>982.0</ele><time>2026-04-22T08:38:48.72Z</time></trkpt><trkpt lat="43.7519617" lon="12.098445"><ele>983.0</ele><time>2026-04-22T08:38:49.72Z</time></trkpt><trkpt lat="43.751855" lon="12.09841"><ele>984.0</ele><time>2026-04-22T08:38:50.72Z</time></trkpt><trkpt lat="43.7517467" lon="12.0983717"><ele>985.0</ele><time>2026-04-22T08:38:51.72Z</time></trkpt><trkpt lat="43.7516433" lon="12.098325"><ele>986.0</ele><time>2026-04-22T08:38:52.72Z</time></trkpt><trkpt lat="43.75154" lon="12.098275"><ele>987.0</ele><time>2026-04-22T08:38:53.72Z</time></trkpt><trkpt lat="43.7514233" lon="12.0982217"><ele>983.5</ele><time>2026-04-22T08:38:54.72Z</time></trkpt><trkpt lat="43.7513" lon="12.0981717"><ele>980.0</ele><time>2026-04-22T08:38:55.72Z</time></trkpt><trkpt lat="43.7511667" lon="12.0981183"><ele>976.5</ele><time>2026-04-22T08:38:56.72Z</time></trkpt><trkpt lat="43.7510433" lon="12.09806"><ele>973.0</ele><time>2026-04-22T08:38:57.72Z</time></trkpt><trkpt lat="43.7509183" lon="12.0979983"><ele>972.75</ele><time>2026-04-22T08:38:58.72Z</time></trkpt><trkpt lat="43.750795" lon="12.0979417"><ele>972.5</ele><time>2026-04-22T08:38:59.721Z</time></trkpt><trkpt lat="43.7506667" lon="12.0978783"><ele>972.25</ele><time>2026-04-22T08:39:00.72Z</time></trkpt><trkpt lat="43.7505417" lon="12.097815"><ele>972.0</ele><time>2026-04-22T08:39:01.72Z</time></trkpt><trkpt lat="43.750415" lon="12.097755"><ele>972.0</ele><time>2026-04-22T08:39:02.72Z</time></trkpt><trkpt lat="43.7502883" lon="12.0976933"><ele>972.0</ele><time>2026-04-22T08:39:03.72Z</time></trkpt><trkpt lat="43.7501583" lon="12.097635"><ele>972.0</ele><time>2026-04-22T08:39:04.72Z</time></trkpt><trkpt lat="43.7500317" lon="12.0975733"><ele>972.0</ele><time>2026-04-22T08:39:05.72Z</time></trkpt><trkpt lat="43.7499017" lon="12.0975133"><ele>973.0</ele><time>2026-04-22T08:39:06.72Z</time></trkpt><trkpt lat="43.7497717" lon="12.0974617"><ele>974.0</ele><time>2026-04-22T08:39:07.72Z</time></trkpt><trkpt lat="43.7496483" lon="12.0974017"><ele>975.0</ele><time>2026-04-22T08:39:08.72Z</time></trkpt><trkpt lat="43.7495317" lon="12.0973367"><ele>976.0</ele><time>2026-04-22T08:39:09.72Z</time></trkpt><trkpt lat="43.7494217" lon="12.0972783"><ele>970.75</ele><time>2026-04-22T08:39:10.72Z</time></trkpt><trkpt lat="43.7493033" lon="12.0972533"><ele>965.5</ele><time>2026-04-22T08:39:11.72Z</time></trkpt><trkpt lat="43.749185" lon="12.0972567"><ele>960.25</ele><time>2026-04-22T08:39:12.721Z</time></trkpt><trkpt lat="43.7490783" lon="12.0972917"><ele>955.0</ele><time>2026-04-22T08:39:13.72Z</time></trkpt><trkpt lat="43.7489833" lon="12.09736"><ele>958.4</ele><time>2026-04-22T08:39:14.72Z</time></trkpt><trkpt lat="43.7489" lon="12.09746"><ele>961.8</ele><time>2026-04-22T08:39:15.72Z</time></trkpt><trkpt lat="43.7488233" lon="12.0975683"><ele>965.2</ele><time>2026-04-22T08:39:16.72Z</time></trkpt><trkpt lat="43.7487667" lon="12.0976983"><ele>968.6</ele><time>2026-04-22T08:39:17.72Z</time></trkpt><trkpt lat="43.7487267" lon="12.0978417"><ele>972.0</ele><time>2026-04-22T08:39:18.72Z</time></trkpt><trkpt lat="43.748685" lon="12.0979783"><ele>972.0</ele><time>2026-04-22T08:39:19.721Z</time></trkpt><trkpt lat="43.7486233" lon="12.0980917"><ele>972.0</ele><time>2026-04-22T08:39:20.72Z</time></trkpt><trkpt lat="43.7485333" lon="12.09817"><ele>972.0</ele><time>2026-04-22T08:39:21.72Z</time></trkpt><trkpt lat="43.74843" lon="12.0982167"><ele>972.0</ele><time>2026-04-22T08:39:22.72Z</time></trkpt><trkpt lat="43.748325" lon="12.0982183"><ele>972.0</ele><time>2026-04-22T08:39:23.72Z</time></trkpt><trkpt lat="43.7482167" lon="12.0981867"><ele>969.25</ele><time>2026-04-22T08:39:24.72Z</time></trkpt><trkpt lat="43.74811" lon="12.09812"><ele>966.5</ele><time>2026-04-22T08:39:25.72Z</time></trkpt><trkpt lat="43.7480033" lon="12.098045"><ele>963.75</ele><time>2026-04-22T08:39:26.72Z</time></trkpt><trkpt lat="43.747895" lon="12.0979817"><ele>961.0</ele><time>2026-04-22T08:39:27.72Z</time></trkpt><trkpt lat="43.7477833" lon="12.0979317"><ele>959.0</ele><time>2026-04-22T08:39:28.72Z</time></trkpt><trkpt lat="43.7476683" lon="12.0979167"><ele>957.0</ele><time>2026-04-22T08:39:29.72Z</time></trkpt><trkpt lat="43.7475617" lon="12.0979283"><ele>955.0</ele><time>2026-04-22T08:39:30.72Z</time></trkpt><trkpt lat="43.74745" lon="12.0979883"><ele>953.0</ele><time>2026-04-22T08:39:31.72Z</time></trkpt><trkpt lat="43.7473433" lon="12.0980767"><ele>953.0</ele><time>2026-04-22T08:39:32.72Z</time></trkpt><trkpt lat="43.7472367" lon="12.0981833"><ele>953.0</ele><time>2026-04-22T08:39:33.72Z</time></trkpt><trkpt lat="43.7471283" lon="12.0982817"><ele>953.0</ele><time>2026-04-22T08:39:34.721Z</time></trkpt><trkpt lat="43.7470283" lon="12.0983783"><ele>953.0</ele><time>2026-04-22T08:39:35.72Z</time></trkpt><trkpt lat="43.7469167" lon="12.0984567"><ele>952.5</ele><time>2026-04-22T08:39:36.721Z</time></trkpt><trkpt lat="43.7468133" lon="12.0985267"><ele>952.0</ele><time>2026-04-22T08:39:37.72Z</time></trkpt><trkpt lat="43.74671" lon="12.0985583"><ele>951.5</ele><time>2026-04-22T08:39:38.72Z</time></trkpt><trkpt lat="43.74659" lon="12.098565"><ele>951.0</ele><time>2026-04-22T08:39:39.72Z</time></trkpt><trkpt lat="43.746465" lon="12.098545"><ele>951.0</ele><time>2026-04-22T08:39:40.72Z</time></trkpt><trkpt lat="43.7463383" lon="12.098515"><ele>951.0</ele><time>2026-04-22T08:39:41.72Z</time></trkpt><trkpt lat="43.7462167" lon="12.0984817"><ele>951.0</ele><time>2026-04-22T08:39:42.72Z</time></trkpt><trkpt lat="43.7460967" lon="12.098455"><ele>951.0</ele><time>2026-04-22T08:39:43.72Z</time></trkpt><trkpt lat="43.745975" lon="12.0984433"><ele>948.75</ele><time>2026-04-22T08:39:44.721Z</time></trkpt><trkpt lat="43.7458617" lon="12.0984533"><ele>946.5</ele><time>2026-04-22T08:39:45.72Z</time></trkpt><trkpt lat="43.7457483" lon="12.098485"><ele>944.25</ele><time>2026-04-22T08:39:46.721Z</time></trkpt><trkpt lat="43.745635" lon="12.09855"><ele>942.0</ele><time>2026-04-22T08:39:47.72Z</time></trkpt><trkpt lat="43.74553" lon="12.0986333"><ele>942.0</ele><time>2026-04-22T08:39:48.72Z</time></trkpt><trkpt lat="43.7454433" lon="12.0987267"><ele>942.0</ele><time>2026-04-22T08:39:49.72Z</time></trkpt><trkpt lat="43.74536" lon="12.0988217"><ele>942.0</ele><time>2026-04-22T08:39:50.72Z</time></trkpt><trkpt lat="43.74527" lon="12.0988983"><ele>942.0</ele><time>2026-04-22T08:39:51.72Z</time></trkpt><trkpt lat="43.7451817" lon="12.098935"><ele>942.0</ele><time>2026-04-22T08:39:52.72Z</time></trkpt><trkpt lat="43.7450833" lon="12.0989283"><ele>940.0</ele><time>2026-04-22T08:39:53.721Z</time></trkpt><trkpt lat="43.7449933" lon="12.0988767"><ele>938.0</ele><time>2026-04-22T08:39:54.72Z</time></trkpt><trkpt lat="43.74493" lon="12.09878"><ele>936.0</ele><time>2026-04-22T08:39:55.72Z</time></trkpt><trkpt lat="43.7448967" lon="12.098665"><ele>934.0</ele><time>2026-04-22T08:39:56.72Z</time></trkpt><trkpt lat="43.7449017" lon="12.0985417"><ele>932.0</ele><time>2026-04-22T08:39:57.72Z</time></trkpt><trkpt lat="43.7449417" lon="12.0984083"><ele>932.0</ele><time>2026-04-22T08:39:58.72Z</time></trkpt><trkpt lat="43.7450117" lon="12.0982733"><ele>932.0</ele><time>2026-04-22T08:39:59.72Z</time></trkpt><trkpt lat="43.7450867" lon="12.0981183"><ele>932.0</ele><time>2026-04-22T08:40:00.72Z</time></trkpt><trkpt lat="43.7451533" lon="12.0979567"><ele>932.0</ele><time>2026-04-22T08:40:01.72Z</time></trkpt><trkpt lat="43.7452167" lon="12.0977883"><ele>932.5</ele><time>2026-04-22T08:40:02.72Z</time></trkpt><trkpt lat="43.7452817" lon="12.097625"><ele>933.0</ele><time>2026-04-22T08:40:03.72Z</time></trkpt><trkpt lat="43.7453383" lon="12.0974583"><ele>933.5</ele><time>2026-04-22T08:40:04.72Z</time></trkpt><trkpt lat="43.7453883" lon="12.0973083"><ele>934.0</ele><time>2026-04-22T08:40:05.72Z</time></trkpt><trkpt lat="43.74544" lon="12.0971567"><ele>932.6</ele><time>2026-04-22T08:40:06.72Z</time></trkpt><trkpt lat="43.745485" lon="12.09701"><ele>931.2</ele><time>2026-04-22T08:40:07.72Z</time></trkpt><trkpt lat="43.745515" lon="12.096875"><ele>929.8000000000001</ele><time>2026-04-22T08:40:08.72Z</time></trkpt><trkpt lat="43.7455183" lon="12.0967367"><ele>928.4000000000001</ele><time>2026-04-22T08:40:09.721Z</time></trkpt><trkpt lat="43.7454983" lon="12.0966033"><ele>927.0</ele><time>2026-04-22T08:40:10.72Z</time></trkpt><trkpt lat="43.7454567" lon="12.0964967"><ele>926.4000000000001</ele><time>2026-04-22T08:40:11.72Z</time></trkpt><trkpt lat="43.745385" lon="12.096395"><ele>925.8000000000001</ele><time>2026-04-22T08:40:12.72Z</time></trkpt><trkpt lat="43.7453033" lon="12.0963117"><ele>925.2</ele><time>2026-04-22T08:40:13.72Z</time></trkpt><trkpt lat="43.74521" lon="12.0962383"><ele>924.6</ele><time>2026-04-22T08:40:14.721Z</time></trkpt><trkpt lat="43.7450983" lon="12.09621"><ele>924.0</ele><time>2026-04-22T08:40:15.72Z</time></trkpt><trkpt lat="43.7449933" lon="12.09621"><ele>922.0</ele><time>2026-04-22T08:40:16.721Z</time></trkpt><trkpt lat="43.7448817" lon="12.0962483"><ele>920.0</ele><time>2026-04-22T08:40:17.72Z</time></trkpt><trkpt lat="43.744775" lon="12.0963083"><ele>918.0</ele><time>2026-04-22T08:40:18.721Z</time></trkpt><trkpt lat="43.7446783" lon="12.0963933"><ele>916.0</ele><time>2026-04-22T08:40:19.72Z</time></trkpt><trkpt lat="43.7445817" lon="12.0964767"><ele>916.0</ele><time>2026-04-22T08:40:20.72Z</time></trkpt><trkpt lat="43.7444883" lon="12.0965483"><ele>915.9999999999999</ele><time>2026-04-22T08:40:21.72Z</time></trkpt><trkpt lat="43.74439" lon="12.0965733"><ele>915.9999999999999</ele><time>2026-04-22T08:40:22.721Z</time></trkpt><trkpt lat="43.74429" lon="12.0965583"><ele>916.0</ele><time>2026-04-22T08:40:23.72Z</time></trkpt><trkpt lat="43.74419" lon="12.09651"><ele>916.0</ele><time>2026-04-22T08:40:24.72Z</time></trkpt><trkpt lat="43.74409" lon="12.09644"><ele>913.25</ele><time>2026-04-22T08:40:25.72Z</time></trkpt><trkpt lat="43.743995" lon="12.09635"><ele>910.5</ele><time>2026-04-22T08:40:26.72Z</time></trkpt><trkpt lat="43.743905" lon="12.0962517"><ele>907.75</ele><time>2026-04-22T08:40:27.72Z</time></trkpt><trkpt lat="43.743815" lon="12.0961533"><ele>905.0</ele><time>2026-04-22T08:40:28.721Z</time></trkpt><trkpt lat="43.7437283" lon="12.0960567"><ele>905.0</ele><time>2026-04-22T08:40:29.72Z</time></trkpt><trkpt lat="43.7436317" lon="12.0959667"><ele>905.0</ele><time>2026-04-22T08:40:30.72Z</time></trkpt><trkpt lat="43.74354" lon="12.0958883"><ele>905.0</ele><time>2026-04-22T08:40:31.72Z</time></trkpt><trkpt lat="43.7434367" lon="12.0958333"><ele>905.0</ele><time>2026-04-22T08:40:32.72Z</time></trkpt><trkpt lat="43.7433283" lon="12.095795"><ele>905.0</ele><time>2026-04-22T08:40:33.72Z</time></trkpt><trkpt lat="43.7432133" lon="12.0957717"><ele>903.5</ele><time>2026-04-22T08:40:34.72Z</time></trkpt><trkpt lat="43.7430967" lon="12.0957617"><ele>902.0</ele><time>2026-04-22T08:40:35.72Z</time></trkpt><trkpt lat="43.742985" lon="12.0957517"><ele>900.5</ele><time>2026-04-22T08:40:36.72Z</time></trkpt><trkpt lat="43.7428717" lon="12.09575"><ele>899.0</ele><time>2026-04-22T08:40:37.721Z</time></trkpt><trkpt lat="43.7427533" lon="12.0957533"><ele>897.2</ele><time>2026-04-22T08:40:38.72Z</time></trkpt><trkpt lat="43.7426467" lon="12.095765"><ele>895.4000000000001</ele><time>2026-04-22T08:40:39.72Z</time></trkpt><trkpt lat="43.742555" lon="12.0957867"><ele>893.6</ele><time>2026-04-22T08:40:40.72Z</time></trkpt><trkpt lat="43.7424683" lon="12.0958283"><ele>891.8</ele><time>2026-04-22T08:40:41.72Z</time></trkpt><trkpt lat="43.74239" lon="12.0959"><ele>890.0</ele><time>2026-04-22T08:40:42.72Z</time></trkpt><trkpt lat="43.74234" lon="12.0960067"><ele>890.0</ele><time>2026-04-22T08:40:43.721Z</time></trkpt><trkpt lat="43.7423217" lon="12.096125"><ele>890.0</ele><time>2026-04-22T08:40:44.72Z</time></trkpt><trkpt lat="43.7423283" lon="12.0962517"><ele>890.0</ele><time>2026-04-22T08:40:45.721Z</time></trkpt><trkpt lat="43.7423667" lon="12.09638"><ele>890.0</ele><time>2026-04-22T08:40:46.72Z</time></trkpt><trkpt lat="43.7424217" lon="12.09649"><ele>890.0</ele><time>2026-04-22T08:40:47.72Z</time></trkpt><trkpt lat="43.7424883" lon="12.0965933"><ele>889.8</ele><time>2026-04-22T08:40:48.72Z</time></trkpt><trkpt lat="43.7425767" lon="12.0966883"><ele>889.6</ele><time>2026-04-22T08:40:49.72Z</time></trkpt><trkpt lat="43.7426667" lon="12.0967767"><ele>889.4000000000001</ele><time>2026-04-22T08:40:50.72Z</time></trkpt><trkpt lat="43.74274" lon="12.096875"><ele>889.2</ele><time>2026-04-22T08:40:51.72Z</time></trkpt><trkpt lat="43.7427917" lon="12.09698"><ele>889.0</ele><time>2026-04-22T08:40:52.72Z</time></trkpt><trkpt lat="43.7428183" lon="12.097105"><ele>888.9999999999999</ele><time>2026-04-22T08:40:53.72Z</time></trkpt><trkpt lat="43.742815" lon="12.09723"><ele>889.0</ele><time>2026-04-22T08:40:54.72Z</time></trkpt><trkpt lat="43.742785" lon="12.097345"><ele>889.0</ele><time>2026-04-22T08:40:55.72Z</time></trkpt><trkpt lat="43.742725" lon="12.0974333"><ele>889.0</ele><time>2026-04-22T08:40:56.721Z</time></trkpt><trkpt lat="43.7426483" lon="12.0974883"><ele>888.9999999999999</ele><time>2026-04-22T08:40:57.72Z</time></trkpt><trkpt lat="43.742555" lon="12.0975117"><ele>889.0</ele><time>2026-04-22T08:40:58.72Z</time></trkpt><trkpt lat="43.7424533" lon="12.0974967"><ele>889.0</ele><time>2026-04-22T08:40:59.72Z</time></trkpt><trkpt lat="43.7423367" lon="12.0974517"><ele>889.0</ele><time>2026-04-22T08:41:00.721Z</time></trkpt><trkpt lat="43.7422083" lon="12.0973817"><ele>889.0</ele><time>2026-04-22T08:41:01.72Z</time></trkpt><trkpt lat="43.7420833" lon="12.09733"><ele>889.0</ele><time>2026-04-22T08:41:02.72Z</time></trkpt><trkpt lat="43.741965" lon="12.09728"><ele>886.75</ele><time>2026-04-22T08:41:03.721Z</time></trkpt><trkpt lat="43.7418467" lon="12.0972333"><ele>884.5</ele><time>2026-04-22T08:41:04.72Z</time></trkpt><trkpt lat="43.7417383" lon="12.0971917"><ele>882.25</ele><time>2026-04-22T08:41:05.72Z</time></trkpt><trkpt lat="43.7416317" lon="12.097145"><ele>880.0</ele><time>2026-04-22T08:41:06.72Z</time></trkpt><trkpt lat="43.7415233" lon="12.0971133"><ele>880.0</ele><time>2026-04-22T08:41:07.72Z</time></trkpt><trkpt lat="43.7414033" lon="12.0971067"><ele>880.0</ele><time>2026-04-22T08:41:08.72Z</time></trkpt><trkpt lat="43.7412917" lon="12.0971267"><ele>880.0</ele><time>2026-04-22T08:41:09.72Z</time></trkpt><trkpt lat="43.7411883" lon="12.097185"><ele>880.0</ele><time>2026-04-22T08:41:10.72Z</time></trkpt><trkpt lat="43.7410933" lon="12.0972783"><ele>878.25</ele><time>2026-04-22T08:41:11.72Z</time></trkpt><trkpt lat="43.7410033" lon="12.0973933"><ele>876.5</ele><time>2026-04-22T08:41:12.72Z</time></trkpt><trkpt lat="43.74091" lon="12.0975167"><ele>874.75</ele><time>2026-04-22T08:41:13.72Z</time></trkpt><trkpt lat="43.7408133" lon="12.0976483"><ele>873.0</ele><time>2026-04-22T08:41:14.72Z</time></trkpt><trkpt lat="43.74072" lon="12.0977783"><ele>873.0</ele><time>2026-04-22T08:41:15.72Z</time></trkpt><trkpt lat="43.7406267" lon="12.097905"><ele>873.0</ele><time>2026-04-22T08:41:16.72Z</time></trkpt><trkpt lat="43.7405267" lon="12.0980333"><ele>873.0</ele><time>2026-04-22T08:41:17.72Z</time></trkpt><trkpt lat="43.7404317" lon="12.0981533"><ele>873.0</ele><time>2026-04-22T08:41:18.72Z</time></trkpt><trkpt lat="43.7403417" lon="12.09828"><ele>873.0</ele><time>2026-04-22T08:41:19.72Z</time></trkpt><trkpt lat="43.74025" lon="12.098395"><ele>873.0</ele><time>2026-04-22T08:41:20.72Z</time></trkpt><trkpt lat="43.74016" lon="12.09851"><ele>873.0</ele><time>2026-04-22T08:41:21.72Z</time></trkpt><trkpt lat="43.740075" lon="12.098625"><ele>873.0</ele><time>2026-04-22T08:41:22.72Z</time></trkpt><trkpt lat="43.73999" lon="12.0987283"><ele>872.2</ele><time>2026-04-22T08:41:23.721Z</time></trkpt><trkpt lat="43.7399133" lon="12.0988367"><ele>871.4</ele><time>2026-04-22T08:41:24.72Z</time></trkpt><trkpt lat="43.7398383" lon="12.0989533"><ele>870.6000000000001</ele><time>2026-04-22T08:41:25.72Z</time></trkpt><trkpt lat="43.739785" lon="12.0990767"><ele>869.8000000000001</ele><time>2026-04-22T08:41:26.721Z</time></trkpt><trkpt lat="43.7397483" lon="12.099215"><ele>869.0</ele><time>2026-04-22T08:41:27.721Z</time></trkpt><trkpt lat="43.7397183" lon="12.099365"><ele>871.25</ele><time>2026-04-22T08:41:28.72Z</time></trkpt><trkpt lat="43.73969" lon="12.099525"><ele>873.5</ele><time>2026-04-22T08:41:29.72Z</time></trkpt><trkpt lat="43.73965" lon="12.0997017"><ele>875.75</ele><time>2026-04-22T08:41:30.72Z</time></trkpt><trkpt lat="43.73962" lon="12.0998567"><ele>878.0</ele><time>2026-04-22T08:41:31.72Z</time></trkpt><trkpt lat="43.7395817" lon="12.100015"><ele>878.25</ele><time>2026-04-22T08:41:32.72Z</time></trkpt><trkpt lat="43.7395483" lon="12.1001767"><ele>878.5</ele><time>2026-04-22T08:41:33.72Z</time></trkpt><trkpt lat="43.739515" lon="12.100325"><ele>878.75</ele><time>2026-04-22T08:41:34.72Z</time></trkpt><trkpt lat="43.7394833" lon="12.1004783"><ele>879.0</ele><time>2026-04-22T08:41:35.721Z</time></trkpt><trkpt lat="43.7394517" lon="12.100635"><ele>877.25</ele><time>2026-04-22T08:41:36.72Z</time></trkpt><trkpt lat="43.73942" lon="12.100795"><ele>875.5</ele><time>2026-04-22T08:41:37.721Z</time></trkpt><trkpt lat="43.7393883" lon="12.10095"><ele>873.75</ele><time>2026-04-22T08:41:38.72Z</time></trkpt><trkpt lat="43.7393383" lon="12.1010917"><ele>872.0</ele><time>2026-04-22T08:41:39.721Z</time></trkpt><trkpt lat="43.7392733" lon="12.101215"><ele>870.75</ele><time>2026-04-22T08:41:40.72Z</time></trkpt><trkpt lat="43.7391883" lon="12.1013233"><ele>869.5</ele><time>2026-04-22T08:41:41.72Z</time></trkpt><trkpt lat="43.73909" lon="12.10141"><ele>868.25</ele><time>2026-04-22T08:41:42.72Z</time></trkpt><trkpt lat="43.7389817" lon="12.1014783"><ele>867.0</ele><time>2026-04-22T08:41:43.72Z</time></trkpt><trkpt lat="43.7388717" lon="12.1015167"><ele>867.0</ele><time>2026-04-22T08:41:44.72Z</time></trkpt><trkpt lat="43.7387567" lon="12.10154"><ele>867.0</ele><time>2026-04-22T08:41:45.72Z</time></trkpt><trkpt lat="43.7386383" lon="12.1015567"><ele>867.0</ele><time>2026-04-22T08:41:46.72Z</time></trkpt><trkpt lat="43.73852" lon="12.1015683"><ele>867.0</ele><time>2026-04-22T08:41:47.72Z</time></trkpt><trkpt lat="43.7384017" lon="12.1015917"><ele>866.8</ele><time>2026-04-22T08:41:48.72Z</time></trkpt><trkpt lat="43.7382967" lon="12.1016033"><ele>866.6</ele><time>2026-04-22T08:41:49.72Z</time></trkpt><trkpt lat="43.7381867" lon="12.1016117"><ele>866.3999999999999</ele><time>2026-04-22T08:41:50.72Z</time></trkpt><trkpt lat="43.738075" lon="12.101625"><ele>866.1999999999999</ele><time>2026-04-22T08:41:51.72Z</time></trkpt><trkpt lat="43.7379683" lon="12.1016383"><ele>866.0</ele><time>2026-04-22T08:41:52.72Z</time></trkpt><trkpt lat="43.7378617" lon="12.1016483"><ele>866.0</ele><time>2026-04-22T08:41:53.72Z</time></trkpt><trkpt lat="43.7377583" lon="12.1016667"><ele>865.9999999999999</ele><time>2026-04-22T08:41:54.72Z</time></trkpt><trkpt lat="43.73766" lon="12.1016783"><ele>865.9999999999999</ele><time>2026-04-22T08:41:55.72Z</time></trkpt><trkpt lat="43.7375717" lon="12.10169"><ele>866.0</ele><time>2026-04-22T08:41:56.72Z</time></trkpt><trkpt lat="43.7374817" lon="12.1017"><ele>866.0</ele><time>2026-04-22T08:41:57.72Z</time></trkpt><trkpt lat="43.7374" lon="12.1017067"><ele>866.0000000000001</ele><time>2026-04-22T08:41:58.72Z</time></trkpt><trkpt lat="43.737325" lon="12.10172"><ele>866.0</ele><time>2026-04-22T08:41:59.72Z</time></trkpt><trkpt lat="43.73725" lon="12.101735"><ele>866.0</ele><time>2026-04-22T08:42:00.72Z</time></trkpt><trkpt lat="43.7371667" lon="12.10175"><ele>866.0</ele><time>2026-04-22T08:42:01.72Z</time></trkpt><trkpt lat="43.737095" lon="12.10176"><ele>866.0000000000001</ele><time>2026-04-22T08:42:02.72Z</time></trkpt><trkpt lat="43.7370167" lon="12.1017833"><ele>866.0</ele><time>2026-04-22T08:42:03.72Z</time></trkpt><trkpt lat="43.7369383" lon="12.1018033"><ele>865.4285714285713</ele><time>2026-04-22T08:42:04.72Z</time></trkpt><trkpt lat="43.73686" lon="12.1018383"><ele>864.8571428571429</ele><time>2026-04-22T08:42:05.72Z</time></trkpt><trkpt lat="43.7367933" lon="12.1018883"><ele>864.2857142857142</ele><time>2026-04-22T08:42:06.72Z</time></trkpt><trkpt lat="43.7367367" lon="12.1019433"><ele>863.7142857142857</ele><time>2026-04-22T08:42:07.72Z</time></trkpt><trkpt lat="43.7366783" lon="12.1020017"><ele>863.1428571428571</ele><time>2026-04-22T08:42:08.721Z</time></trkpt><trkpt lat="43.73662" lon="12.1020633"><ele>862.5714285714286</ele><time>2026-04-22T08:42:09.721Z</time></trkpt><trkpt lat="43.7365683" lon="12.1021333"><ele>862.0</ele><time>2026-04-22T08:42:10.721Z</time></trkpt><trkpt lat="43.736525" lon="12.1022167"><ele>862.0</ele><time>2026-04-22T08:42:11.72Z</time></trkpt><trkpt lat="43.7364783" lon="12.10229"><ele>862.0</ele><time>2026-04-22T08:42:12.72Z</time></trkpt><trkpt lat="43.7363917" lon="12.102405"><ele>862.0</ele><time>2026-04-22T08:42:14.72Z</time></trkpt><trkpt lat="43.7363" lon="12.1025133"><ele>862.0</ele><time>2026-04-22T08:42:16.72Z</time></trkpt><trkpt lat="43.7362467" lon="12.1025717"><ele>862.0</ele><time>2026-04-22T08:42:17.72Z</time></trkpt><trkpt lat="43.7361867" lon="12.1026483"><ele>861.9999999999999</ele><time>2026-04-22T08:42:18.72Z</time></trkpt><trkpt lat="43.7361283" lon="12.1027333"><ele>862.0</ele><time>2026-04-22T08:42:19.72Z</time></trkpt><trkpt lat="43.736065" lon="12.1028233"><ele>862.0</ele><time>2026-04-22T08:42:20.72Z</time></trkpt><trkpt lat="43.7360067" lon="12.1029133"><ele>862.0</ele><time>2026-04-22T08:42:21.72Z</time></trkpt><trkpt lat="43.735945" lon="12.10301"><ele>861.9999999999999</ele><time>2026-04-22T08:42:22.72Z</time></trkpt><trkpt lat="43.7358833" lon="12.103105"><ele>862.0</ele><time>2026-04-22T08:42:23.72Z</time></trkpt><trkpt lat="43.7358267" lon="12.103195"><ele>860.8333333333333</ele><time>2026-04-22T08:42:24.721Z</time></trkpt><trkpt lat="43.7357717" lon="12.1032833"><ele>859.6666666666666</ele><time>2026-04-22T08:42:25.72Z</time></trkpt><trkpt lat="43.7357133" lon="12.1033683"><ele>858.5</ele><time>2026-04-22T08:42:26.72Z</time></trkpt><trkpt lat="43.735645" lon="12.1034417"><ele>857.3333333333333</ele><time>2026-04-22T08:42:27.72Z</time></trkpt><trkpt lat="43.7355867" lon="12.1035067"><ele>856.1666666666666</ele><time>2026-04-22T08:42:28.72Z</time></trkpt><trkpt lat="43.7355283" lon="12.1035633"><ele>855.0</ele><time>2026-04-22T08:42:29.72Z</time></trkpt><trkpt lat="43.7354683" lon="12.1036183"><ele>855.0</ele><time>2026-04-22T08:42:30.72Z</time></trkpt><trkpt lat="43.7354" lon="12.1036667"><ele>855.0</ele><time>2026-04-22T08:42:31.72Z</time></trkpt><trkpt lat="43.73533" lon="12.103705"><ele>855.0</ele><time>2026-04-22T08:42:32.72Z</time></trkpt><trkpt lat="43.7352683" lon="12.1037317"><ele>855.0</ele><time>2026-04-22T08:42:33.72Z</time></trkpt><trkpt lat="43.73519" lon="12.1037683"><ele>855.0</ele><time>2026-04-22T08:42:35.72Z</time></trkpt><trkpt lat="43.7351117" lon="12.1037867"><ele>855.0</ele><time>2026-04-22T08:42:37.72Z</time></trkpt><trkpt lat="43.735015" lon="12.1038167"><ele>854.5</ele><time>2026-04-22T08:42:39.72Z</time></trkpt><trkpt lat="43.7349183" lon="12.1038683"><ele>854.0</ele><time>2026-04-22T08:42:41.72Z</time></trkpt><trkpt lat="43.7348233" lon="12.103935"><ele>853.5</ele><time>2026-04-22T08:42:43.72Z</time></trkpt><trkpt lat="43.73476" lon="12.1039533"><ele>853.0</ele><time>2026-04-22T08:42:44.72Z</time></trkpt><trkpt lat="43.7346867" lon="12.1039717"><ele>852.5</ele><time>2026-04-22T08:42:45.721Z</time></trkpt><trkpt lat="43.7346083" lon="12.103985"><ele>852.0</ele><time>2026-04-22T08:42:46.72Z</time></trkpt><trkpt lat="43.7345283" lon="12.10401"><ele>852.0</ele><time>2026-04-22T08:42:47.72Z</time></trkpt><trkpt lat="43.7344517" lon="12.10404"><ele>852.0</ele><time>2026-04-22T08:42:48.72Z</time></trkpt><trkpt lat="43.7343717" lon="12.1040733"><ele>852.0</ele><time>2026-04-22T08:42:49.72Z</time></trkpt><trkpt lat="43.734295" lon="12.1041133"><ele>852.0</ele><time>2026-04-22T08:42:50.721Z</time></trkpt><trkpt lat="43.7342283" lon="12.104165"><ele>852.0</ele><time>2026-04-22T08:42:51.721Z</time></trkpt><trkpt lat="43.7341733" lon="12.1042383"><ele>852.0</ele><time>2026-04-22T08:42:52.721Z</time></trkpt><trkpt lat="43.7341317" lon="12.10433"><ele>852.6666666666666</ele><time>2026-04-22T08:42:53.721Z</time></trkpt><trkpt lat="43.7340967" lon="12.1044333"><ele>853.3333333333333</ele><time>2026-04-22T08:42:54.721Z</time></trkpt><trkpt lat="43.734065" lon="12.1045567"><ele>854.0</ele><time>2026-04-22T08:42:55.721Z</time></trkpt><trkpt lat="43.7340367" lon="12.1046767"><ele>854.6666666666666</ele><time>2026-04-22T08:42:56.721Z</time></trkpt><trkpt lat="43.734015" lon="12.104795"><ele>855.3333333333333</ele><time>2026-04-22T08:42:57.721Z</time></trkpt><trkpt lat="43.7340017" lon="12.1049117"><ele>856.0</ele><time>2026-04-22T08:42:58.721Z</time></trkpt><trkpt lat="43.73399" lon="12.1050233"><ele>855.9999999999999</ele><time>2026-04-22T08:42:59.721Z</time></trkpt><trkpt lat="43.7339717" lon="12.10513"><ele>856.0</ele><time>2026-04-22T08:43:00.722Z</time></trkpt><trkpt lat="43.7339417" lon="12.1052383"><ele>856.0</ele><time>2026-04-22T08:43:01.722Z</time></trkpt><trkpt lat="43.733915" lon="12.10534"><ele>856.0</ele><time>2026-04-22T08:43:02.721Z</time></trkpt><trkpt lat="43.7338883" lon="12.1054317"><ele>855.9999999999999</ele><time>2026-04-22T08:43:03.721Z</time></trkpt><trkpt lat="43.7338567" lon="12.1055167"><ele>856.0</ele><time>2026-04-22T08:43:04.721Z</time></trkpt><trkpt lat="43.7338167" lon="12.1056"><ele>855.9999999999999</ele><time>2026-04-22T08:43:05.721Z</time></trkpt><trkpt lat="43.7337783" lon="12.1056867"><ele>856.0</ele><time>2026-04-22T08:43:06.721Z</time></trkpt><trkpt lat="43.733745" lon="12.1057733"><ele>856.0</ele><time>2026-04-22T08:43:07.722Z</time></trkpt><trkpt lat="43.7337" lon="12.1058433"><ele>856.0</ele><time>2026-04-22T08:43:08.722Z</time></trkpt><trkpt lat="43.733605" lon="12.1059317"><ele>855.9999999999999</ele><time>2026-04-22T08:43:10.721Z</time></trkpt><trkpt lat="43.73354" lon="12.1059367"><ele>856.0</ele><time>2026-04-22T08:43:11.721Z</time></trkpt><trkpt lat="43.7334683" lon="12.1059217"><ele>858.6666666666666</ele><time>2026-04-22T08:43:12.721Z</time></trkpt><trkpt lat="43.733385" lon="12.1058933"><ele>861.3333333333333</ele><time>2026-04-22T08:43:13.721Z</time></trkpt><trkpt lat="43.7333117" lon="12.1058567"><ele>864.0</ele><time>2026-04-22T08:43:14.72Z</time></trkpt><trkpt lat="43.7332467" lon="12.1058233"><ele>866.6666666666667</ele><time>2026-04-22T08:43:15.721Z</time></trkpt><trkpt lat="43.7331833" lon="12.1057817"><ele>869.3333333333334</ele><time>2026-04-22T08:43:16.721Z</time></trkpt><trkpt lat="43.7330967" lon="12.1057133"><ele>872.0</ele><time>2026-04-22T08:43:18.721Z</time></trkpt><trkpt lat="43.73304" lon="12.1056567"><ele>874.2</ele><time>2026-04-22T08:43:20.721Z</time></trkpt><trkpt lat="43.73298" lon="12.1056067"><ele>876.4000000000001</ele><time>2026-04-22T08:43:22.721Z</time></trkpt><trkpt lat="43.7329033" lon="12.10557"><ele>878.5999999999999</ele><time>2026-04-22T08:43:24.721Z</time></trkpt><trkpt lat="43.7328167" lon="12.105545"><ele>880.8</ele><time>2026-04-22T08:43:26.721Z</time></trkpt><trkpt lat="43.732705" lon="12.1055117"><ele>883.0</ele><time>2026-04-22T08:43:28.721Z</time></trkpt><trkpt lat="43.732605" lon="12.1054733"><ele>884.5999999999999</ele><time>2026-04-22T08:43:30.721Z</time></trkpt><trkpt lat="43.73251" lon="12.1054367"><ele>886.1999999999999</ele><time>2026-04-22T08:43:32.721Z</time></trkpt><trkpt lat="43.7323867" lon="12.1054117"><ele>887.8</ele><time>2026-04-22T08:43:34.721Z</time></trkpt><trkpt lat="43.7322767" lon="12.1054217"><ele>889.4</ele><time>2026-04-22T08:43:36.721Z</time></trkpt><trkpt lat="43.7321717" lon="12.1054483"><ele>891.0</ele><time>2026-04-22T08:43:38.721Z</time></trkpt><trkpt lat="43.7320717" lon="12.10544"><ele>891.0</ele><time>2026-04-22T08:43:40.721Z</time></trkpt><trkpt lat="43.73197" lon="12.1053983"><ele>890.9999999999999</ele><time>2026-04-22T08:43:42.722Z</time></trkpt><trkpt lat="43.731875" lon="12.10532"><ele>890.9999999999999</ele><time>2026-04-22T08:43:44.721Z</time></trkpt><trkpt lat="43.73179" lon="12.105285"><ele>891.0</ele><time>2026-04-22T08:43:46.721Z</time></trkpt><trkpt lat="43.7316667" lon="12.1052617"><ele>891.0</ele><time>2026-04-22T08:43:48.721Z</time></trkpt><trkpt lat="43.731585" lon="12.1052433"><ele>891.0</ele><time>2026-04-22T08:43:49.721Z</time></trkpt><trkpt lat="43.7314883" lon="12.1052367"><ele>891.0</ele><time>2026-04-22T08:43:50.721Z</time></trkpt><trkpt lat="43.7313983" lon="12.1052283"><ele>891.0</ele><time>2026-04-22T08:43:51.721Z</time></trkpt><trkpt lat="43.7313217" lon="12.105225"><ele>891.0</ele><time>2026-04-22T08:43:52.721Z</time></trkpt><trkpt lat="43.7312433" lon="12.10521"><ele>891.0</ele><time>2026-04-22T08:43:53.721Z</time></trkpt><trkpt lat="43.731172" lon="12.1051965"><ele>891.0</ele><time>2026-04-22T08:43:54.721Z</time></trkpt><trkpt lat="43.7311072" lon="12.1051839"><ele>891.1999999999999</ele><time>2026-04-22T08:43:55.722Z</time></trkpt><trkpt lat="43.7310019" lon="12.1051535"><ele>891.3999999999999</ele><time>2026-04-22T08:43:57.722Z</time></trkpt><trkpt lat="43.7309102" lon="12.1051039"><ele>891.6</ele><time>2026-04-22T08:43:59.721Z</time></trkpt><trkpt lat="43.7308242" lon="12.105061"><ele>891.8</ele><time>2026-04-22T08:44:01.721Z</time></trkpt><trkpt lat="43.7307188" lon="12.1050536"><ele>892.0</ele><time>2026-04-22T08:44:03.721Z</time></trkpt><trkpt lat="43.7306562" lon="12.1050731"><ele>892.0</ele><time>2026-04-22T08:44:04.721Z</time></trkpt><trkpt lat="43.7305946" lon="12.1051085"><ele>892.0</ele><time>2026-04-22T08:44:05.721Z</time></trkpt><trkpt lat="43.7305324" lon="12.1051408"><ele>892.0</ele><time>2026-04-22T08:44:06.721Z</time></trkpt><trkpt lat="43.7304712" lon="12.1051711"><ele>892.0</ele><time>2026-04-22T08:44:07.721Z</time></trkpt><trkpt lat="43.7304049" lon="12.1051888"><ele>892.0</ele><time>2026-04-22T08:44:08.721Z</time></trkpt><trkpt lat="43.730333" lon="12.1051929"><ele>892.0</ele><time>2026-04-22T08:44:09.721Z</time></trkpt><trkpt lat="43.7302639" lon="12.1051837"><ele>892.0</ele><time>2026-04-22T08:44:10.721Z</time></trkpt><trkpt lat="43.7301688" lon="12.1051369"><ele>891.2</ele><time>2026-04-22T08:44:12.721Z</time></trkpt><trkpt lat="43.7300705" lon="12.1051206"><ele>890.4000000000001</ele><time>2026-04-22T08:44:15.721Z</time></trkpt><trkpt lat="43.7299909" lon="12.1051435"><ele>889.5999999999999</ele><time>2026-04-22T08:44:17.721Z</time></trkpt><trkpt lat="43.7299051" lon="12.1051796"><ele>888.8</ele><time>2026-04-22T08:44:19.722Z</time></trkpt><trkpt lat="43.72981" lon="12.1052018"><ele>888.0</ele><time>2026-04-22T08:44:21.722Z</time></trkpt><trkpt lat="43.7297205" lon="12.1052109"><ele>888.0</ele><time>2026-04-22T08:44:23.721Z</time></trkpt><trkpt lat="43.7296255" lon="12.1051829"><ele>888.0</ele><time>2026-04-22T08:44:25.721Z</time></trkpt><trkpt lat="43.7295181" lon="12.1051634"><ele>888.0</ele><time>2026-04-22T08:44:27.721Z</time></trkpt><trkpt lat="43.7294075" lon="12.1051829"><ele>888.0</ele><time>2026-04-22T08:44:29.722Z</time></trkpt><trkpt lat="43.7293078" lon="12.1052441"><ele>888.0</ele><time>2026-04-22T08:44:31.721Z</time></trkpt><trkpt lat="43.729255" lon="12.1053033"><ele>889.1666666666666</ele><time>2026-04-22T08:44:32.721Z</time></trkpt><trkpt lat="43.72921" lon="12.1053667"><ele>890.3333333333333</ele><time>2026-04-22T08:44:33.721Z</time></trkpt><trkpt lat="43.7291717" lon="12.1054517"><ele>891.5</ele><time>2026-04-22T08:44:34.721Z</time></trkpt><trkpt lat="43.7291167" lon="12.1055767"><ele>892.6666666666666</ele><time>2026-04-22T08:44:36.721Z</time></trkpt><trkpt lat="43.7290833" lon="12.1056533"><ele>893.8333333333333</ele><time>2026-04-22T08:44:38.721Z</time></trkpt><trkpt lat="43.7290333" lon="12.10572"><ele>895.0</ele><time>2026-04-22T08:44:40.721Z</time></trkpt><trkpt lat="43.728955" lon="12.10577"><ele>894.9999999999999</ele><time>2026-04-22T08:44:42.721Z</time></trkpt><trkpt lat="43.72886" lon="12.105805"><ele>895.0</ele><time>2026-04-22T08:44:44.721Z</time></trkpt><trkpt lat="43.7287767" lon="12.1058233"><ele>895.0</ele><time>2026-04-22T08:44:46.721Z</time></trkpt><trkpt lat="43.72884" lon="12.1058083"><ele>895.0</ele><time>2026-04-22T08:45:01.722Z</time></trkpt><trkpt lat="43.7289367" lon="12.1057767"><ele>894.9999999999999</ele><time>2026-04-22T08:45:04.721Z</time></trkpt><trkpt lat="43.7290233" lon="12.105705"><ele>895.0</ele><time>2026-04-22T08:45:06.721Z</time></trkpt><trkpt lat="43.7290917" lon="12.105615"><ele>894.9999999999999</ele><time>2026-04-22T08:45:08.721Z</time></trkpt><trkpt lat="43.7291383" lon="12.1055283"><ele>895.0</ele><time>2026-04-22T08:45:10.721Z</time></trkpt><trkpt lat="43.7291767" lon="12.1054367"><ele>895.0</ele><time>2026-04-22T08:45:12.721Z</time></trkpt><trkpt lat="43.7292317" lon="12.105335"><ele>895.0</ele><time>2026-04-22T08:45:14.722Z</time></trkpt><trkpt lat="43.7293033" lon="12.10525"><ele>894.9999999999999</ele><time>2026-04-22T08:45:16.721Z</time></trkpt><trkpt lat="43.7293883" lon="12.10519"><ele>895.0</ele><time>2026-04-22T08:45:18.721Z</time></trkpt><trkpt lat="43.729495" lon="12.1051567"><ele>893.6</ele><time>2026-04-22T08:45:20.721Z</time></trkpt><trkpt lat="43.729605" lon="12.10518"><ele>892.2</ele><time>2026-04-22T08:45:22.721Z</time></trkpt><trkpt lat="43.7297133" lon="12.1052"><ele>890.8</ele><time>2026-04-22T08:45:24.721Z</time></trkpt><trkpt lat="43.7298083" lon="12.105185"><ele>889.4</ele><time>2026-04-22T08:45:26.721Z</time></trkpt><trkpt lat="43.72992" lon="12.1051483"><ele>888.0</ele><time>2026-04-22T08:45:28.721Z</time></trkpt><trkpt lat="43.7299933" lon="12.10511"><ele>888.0</ele><time>2026-04-22T08:45:30.721Z</time></trkpt><trkpt lat="43.72994" lon="12.1050433"><ele>888.0</ele><time>2026-04-22T08:45:34.721Z</time></trkpt><trkpt lat="43.72986" lon="12.1050333"><ele>888.0</ele><time>2026-04-22T08:45:36.721Z</time></trkpt><trkpt lat="43.7297583" lon="12.1050267"><ele>888.0</ele><time>2026-04-22T08:45:38.721Z</time></trkpt><trkpt lat="43.729655" lon="12.1049967"><ele>888.0</ele><time>2026-04-22T08:45:40.721Z</time></trkpt><trkpt lat="43.729565" lon="12.10494"><ele>889.1666666666666</ele><time>2026-04-22T08:45:42.721Z</time></trkpt><trkpt lat="43.7294683" lon="12.1048983"><ele>890.3333333333333</ele><time>2026-04-22T08:45:44.721Z</time></trkpt><trkpt lat="43.729385" lon="12.1048833"><ele>891.5</ele><time>2026-04-22T08:45:46.721Z</time></trkpt><trkpt lat="43.7293083" lon="12.104905"><ele>892.6666666666666</ele><time>2026-04-22T08:45:48.721Z</time></trkpt><trkpt lat="43.7292183" lon="12.10493"><ele>893.8333333333333</ele><time>2026-04-22T08:45:50.721Z</time></trkpt><trkpt lat="43.7291367" lon="12.1049333"><ele>895.0</ele><time>2026-04-22T08:45:52.721Z</time></trkpt><trkpt lat="43.7290517" lon="12.1049417"><ele>894.9999999999999</ele><time>2026-04-22T08:45:54.721Z</time></trkpt><trkpt lat="43.7289817" lon="12.1049767"><ele>895.0</ele><time>2026-04-22T08:45:56.721Z</time></trkpt><trkpt lat="43.7289117" lon="12.1050633"><ele>895.0</ele><time>2026-04-22T08:45:58.721Z</time></trkpt><trkpt lat="43.72884" lon="12.10513"><ele>895.0</ele><time>2026-04-22T08:46:00.722Z</time></trkpt><trkpt lat="43.7287617" lon="12.10518"><ele>894.9999999999999</ele><time>2026-04-22T08:46:02.721Z</time></trkpt><trkpt lat="43.7286967" lon="12.1051817"><ele>895.0</ele><time>2026-04-22T08:46:04.721Z</time></trkpt><trkpt lat="43.72864" lon="12.1051317"><ele>894.9999999999999</ele><time>2026-04-22T08:46:06.721Z</time></trkpt><trkpt lat="43.7286117" lon="12.1050417"><ele>895.0</ele><time>2026-04-22T08:46:08.721Z</time></trkpt><trkpt lat="43.7286167" lon="12.1049333"><ele>895.0</ele><time>2026-04-22T08:46:10.721Z</time></trkpt><trkpt lat="43.728625" lon="12.1048133"><ele>895.0</ele><time>2026-04-22T08:46:12.721Z</time></trkpt><trkpt lat="43.7286067" lon="12.1046983"><ele>894.9999999999999</ele><time>2026-04-22T08:46:14.721Z</time></trkpt><trkpt lat="43.7285583" lon="12.1045867"><ele>895.0</ele><time>2026-04-22T08:46:16.722Z</time></trkpt><trkpt lat="43.7285033" lon="12.1045083"><ele>898.8333333333333</ele><time>2026-04-22T08:46:18.722Z</time></trkpt><trkpt lat="43.7284267" lon="12.1044533"><ele>902.6666666666666</ele><time>2026-04-22T08:46:20.721Z</time></trkpt><trkpt lat="43.7283583" lon="12.10443"><ele>906.5</ele><time>2026-04-22T08:46:22.721Z</time></trkpt><trkpt lat="43.72828" lon="12.104435"><ele>910.3333333333333</ele><time>2026-04-22T08:46:24.722Z</time></trkpt><trkpt lat="43.7281967" lon="12.104445"><ele>914.1666666666666</ele><time>2026-04-22T08:46:26.721Z</time></trkpt><trkpt lat="43.7281167" lon="12.104445"><ele>918.0</ele><time>2026-04-22T08:46:28.721Z</time></trkpt><trkpt lat="43.7280483" lon="12.1044533"><ele>918.0</ele><time>2026-04-22T08:46:30.721Z</time></trkpt><trkpt lat="43.7279817" lon="12.1044767"><ele>918.0</ele><time>2026-04-22T08:46:32.721Z</time></trkpt><trkpt lat="43.7278917" lon="12.10454"><ele>918.0</ele><time>2026-04-22T08:46:34.722Z</time></trkpt><trkpt lat="43.72781" lon="12.1045983"><ele>918.0</ele><time>2026-04-22T08:46:36.721Z</time></trkpt><trkpt lat="43.727745" lon="12.1046517"><ele>918.0</ele><time>2026-04-22T08:46:38.721Z</time></trkpt><trkpt lat="43.7276683" lon="12.1046867"><ele>918.0</ele><time>2026-04-22T08:46:40.721Z</time></trkpt><trkpt lat="43.7275983" lon="12.1047267"><ele>919.8333333333334</ele><time>2026-04-22T08:46:42.721Z</time></trkpt><trkpt lat="43.72753" lon="12.104755"><ele>921.6666666666667</ele><time>2026-04-22T08:46:44.721Z</time></trkpt><trkpt lat="43.727435" lon="12.104775"><ele>923.5</ele><time>2026-04-22T08:46:47.722Z</time></trkpt><trkpt lat="43.7273683" lon="12.10477"><ele>925.3333333333334</ele><time>2026-04-22T08:46:49.721Z</time></trkpt><trkpt lat="43.7273033" lon="12.1047567"><ele>927.1666666666667</ele><time>2026-04-22T08:46:51.721Z</time></trkpt><trkpt lat="43.7272333" lon="12.1047233"><ele>929.0</ele><time>2026-04-22T08:46:54.721Z</time></trkpt><trkpt lat="43.7271467" lon="12.104715"><ele>929.0000000000001</ele><time>2026-04-22T08:46:57.721Z</time></trkpt><trkpt lat="43.727075" lon="12.104705"><ele>929.0</ele><time>2026-04-22T08:46:59.721Z</time></trkpt><trkpt lat="43.7270033" lon="12.1046983"><ele>929.0</ele><time>2026-04-22T08:47:01.721Z</time></trkpt><trkpt lat="43.7269283" lon="12.1046817"><ele>929.0</ele><time>2026-04-22T08:47:03.721Z</time></trkpt><trkpt lat="43.7268583" lon="12.1046383"><ele>929.0000000000001</ele><time>2026-04-22T08:47:05.721Z</time></trkpt><trkpt lat="43.7267883" lon="12.1045617"><ele>929.0</ele><time>2026-04-22T08:47:08.721Z</time></trkpt><trkpt lat="43.7267317" lon="12.1045133"><ele>929.4000000000001</ele><time>2026-04-22T08:47:10.721Z</time></trkpt><trkpt lat="43.72666" lon="12.1044833"><ele>929.8000000000001</ele><time>2026-04-22T08:47:12.721Z</time></trkpt><trkpt lat="43.72658" lon="12.104455"><ele>930.1999999999999</ele><time>2026-04-22T08:47:14.721Z</time></trkpt><trkpt lat="43.72648" lon="12.1044617"><ele>930.5999999999999</ele><time>2026-04-22T08:47:16.721Z</time></trkpt><trkpt lat="43.7263783" lon="12.1044733"><ele>931.0</ele><time>2026-04-22T08:47:18.721Z</time></trkpt><trkpt lat="43.7262867" lon="12.104475"><ele>930.9999999999999</ele><time>2026-04-22T08:47:20.721Z</time></trkpt><trkpt lat="43.726195" lon="12.1044833"><ele>931.0</ele><time>2026-04-22T08:47:22.721Z</time></trkpt><trkpt lat="43.7261" lon="12.1045183"><ele>931.0</ele><time>2026-04-22T08:47:24.721Z</time></trkpt><trkpt lat="43.7260267" lon="12.1045667"><ele>931.0</ele><time>2026-04-22T08:47:26.721Z</time></trkpt><trkpt lat="43.72595" lon="12.1046233"><ele>930.9999999999999</ele><time>2026-04-22T08:47:28.721Z</time></trkpt><trkpt lat="43.7258983" lon="12.1046917"><ele>931.0</ele><time>2026-04-22T08:47:30.721Z</time></trkpt><trkpt lat="43.72585" lon="12.1047633"><ele>930.8333333333333</ele><time>2026-04-22T08:47:32.721Z</time></trkpt><trkpt lat="43.7257983" lon="12.1048233"><ele>930.6666666666666</ele><time>2026-04-22T08:47:34.721Z</time></trkpt><trkpt lat="43.7257367" lon="12.1049067"><ele>930.5</ele><time>2026-04-22T08:47:37.721Z</time></trkpt><trkpt lat="43.7256533" lon="12.104985"><ele>930.3333333333333</ele><time>2026-04-22T08:47:40.722Z</time></trkpt><trkpt lat="43.72558" lon="12.1050183"><ele>930.1666666666666</ele><time>2026-04-22T08:47:42.722Z</time></trkpt><trkpt lat="43.7255167" lon="12.1050433"><ele>930.0</ele><time>2026-04-22T08:47:44.721Z</time></trkpt><trkpt lat="43.7254417" lon="12.1050667"><ele>930.0</ele><time>2026-04-22T08:47:46.721Z</time></trkpt><trkpt lat="43.7254983" lon="12.1050233"><ele>930.0</ele><time>2026-04-22T08:50:11.721Z</time></trkpt><trkpt lat="43.7255967" lon="12.1049683"><ele>930.0</ele><time>2026-04-22T08:51:01.721Z</time></trkpt><trkpt lat="43.7256633" lon="12.10493"><ele>930.0</ele><time>2026-04-22T08:51:04.721Z</time></trkpt><trkpt lat="43.725715" lon="12.1048783"><ele>930.0</ele><time>2026-04-22T08:51:06.722Z</time></trkpt><trkpt lat="43.72578" lon="12.104825"><ele>930.0</ele><time>2026-04-22T08:51:09.721Z</time></trkpt><trkpt lat="43.7258433" lon="12.1047433"><ele>930.0</ele><time>2026-04-22T08:51:13.721Z</time></trkpt><trkpt lat="43.7259083" lon="12.104675"><ele>930.0</ele><time>2026-04-22T08:51:17.721Z</time></trkpt><trkpt lat="43.7259567" lon="12.104615"><ele>930.0</ele><time>2026-04-22T08:51:19.721Z</time></trkpt><trkpt lat="43.72602" lon="12.1045683"><ele>930.0</ele><time>2026-04-22T08:51:21.721Z</time></trkpt><trkpt lat="43.7260783" lon="12.1045267"><ele>930.0</ele><time>2026-04-22T08:51:23.721Z</time></trkpt><trkpt lat="43.7261567" lon="12.104475"><ele>930.0</ele><time>2026-04-22T08:51:26.721Z</time></trkpt><trkpt lat="43.726225" lon="12.104465"><ele>930.0</ele><time>2026-04-22T08:51:28.721Z</time></trkpt><trkpt lat="43.7262967" lon="12.1044617"><ele>930.1666666666666</ele><time>2026-04-22T08:51:30.721Z</time></trkpt><trkpt lat="43.72638" lon="12.1044533"><ele>930.3333333333333</ele><time>2026-04-22T08:51:32.721Z</time></trkpt><trkpt lat="43.7264667" lon="12.1044433"><ele>930.5</ele><time>2026-04-22T08:51:34.721Z</time></trkpt><trkpt lat="43.7265483" lon="12.1044433"><ele>930.6666666666666</ele><time>2026-04-22T08:51:36.721Z</time></trkpt><trkpt lat="43.7266317" lon="12.104475"><ele>930.8333333333333</ele><time>2026-04-22T08:51:38.721Z</time></trkpt><trkpt lat="43.726715" lon="12.104535"><ele>931.0</ele><time>2026-04-22T08:51:40.722Z</time></trkpt><trkpt lat="43.72679" lon="12.1046083"><ele>930.9999999999999</ele><time>2026-04-22T08:51:42.721Z</time></trkpt><trkpt lat="43.7268583" lon="12.1046567"><ele>931.0</ele><time>2026-04-22T08:51:44.721Z</time></trkpt><trkpt lat="43.726925" lon="12.1047"><ele>931.0</ele><time>2026-04-22T08:51:46.721Z</time></trkpt><trkpt lat="43.7269967" lon="12.1047167"><ele>931.0</ele><time>2026-04-22T08:51:48.721Z</time></trkpt><trkpt lat="43.7270667" lon="12.1047183"><ele>930.9999999999999</ele><time>2026-04-22T08:51:50.721Z</time></trkpt><trkpt lat="43.72713" lon="12.104725"><ele>931.0</ele><time>2026-04-22T08:51:52.721Z</time></trkpt><trkpt lat="43.7272233" lon="12.1047517"><ele>930.6666666666666</ele><time>2026-04-22T08:51:55.721Z</time></trkpt><trkpt lat="43.727315" lon="12.1047783"><ele>930.3333333333333</ele><time>2026-04-22T08:51:58.721Z</time></trkpt><trkpt lat="43.7273917" lon="12.1047833"><ele>930.0</ele><time>2026-04-22T08:52:00.721Z</time></trkpt><trkpt lat="43.7274583" lon="12.1047567"><ele>929.6666666666667</ele><time>2026-04-22T08:52:02.721Z</time></trkpt><trkpt lat="43.7275333" lon="12.1047233"><ele>929.3333333333334</ele><time>2026-04-22T08:52:05.721Z</time></trkpt><trkpt lat="43.72761" lon="12.104695"><ele>929.0</ele><time>2026-04-22T08:52:08.722Z</time></trkpt><trkpt lat="43.727675" lon="12.104675"><ele>927.1666666666667</ele><time>2026-04-22T08:52:10.721Z</time></trkpt><trkpt lat="43.7277433" lon="12.1046317"><ele>925.3333333333334</ele><time>2026-04-22T08:52:12.721Z</time></trkpt><trkpt lat="43.7278067" lon="12.1045883"><ele>923.5</ele><time>2026-04-22T08:52:14.721Z</time></trkpt><trkpt lat="43.7278783" lon="12.1045367"><ele>921.6666666666667</ele><time>2026-04-22T08:52:17.721Z</time></trkpt><trkpt lat="43.72795" lon="12.1045067"><ele>919.8333333333334</ele><time>2026-04-22T08:52:20.721Z</time></trkpt><trkpt lat="43.7280167" lon="12.1044767"><ele>918.0</ele><time>2026-04-22T08:52:23.721Z</time></trkpt><trkpt lat="43.7281" lon="12.10445"><ele>918.0</ele><time>2026-04-22T08:52:26.721Z</time></trkpt><trkpt lat="43.7281667" lon="12.1044417"><ele>918.0</ele><time>2026-04-22T08:52:28.721Z</time></trkpt><trkpt lat="43.7282317" lon="12.104435"><ele>918.0</ele><time>2026-04-22T08:52:30.721Z</time></trkpt><trkpt lat="43.7282983" lon="12.1044317"><ele>918.0</ele><time>2026-04-22T08:52:32.721Z</time></trkpt><trkpt lat="43.7283683" lon="12.1044417"><ele>918.0</ele><time>2026-04-22T08:52:34.721Z</time></trkpt><trkpt lat="43.728435" lon="12.1044667"><ele>918.0</ele><time>2026-04-22T08:52:36.721Z</time></trkpt><trkpt lat="43.7284967" lon="12.10452"><ele>918.0</ele><time>2026-04-22T08:52:38.722Z</time></trkpt><trkpt lat="43.7285433" lon="12.1045917"><ele>917.0</ele><time>2026-04-22T08:52:40.721Z</time></trkpt><trkpt lat="43.7285833" lon="12.1046783"><ele>916.0</ele><time>2026-04-22T08:52:42.721Z</time></trkpt><trkpt lat="43.72861" lon="12.1047583"><ele>915.0</ele><time>2026-04-22T08:52:44.721Z</time></trkpt><trkpt lat="43.7286283" lon="12.1048483"><ele>914.0</ele><time>2026-04-22T08:52:46.721Z</time></trkpt><trkpt lat="43.7286433" lon="12.1049717"><ele>913.0</ele><time>2026-04-22T08:52:49.722Z</time></trkpt><trkpt lat="43.7286667" lon="12.1050967"><ele>912.0</ele><time>2026-04-22T08:52:52.721Z</time></trkpt><trkpt lat="43.7287383" lon="12.1051683"><ele>909.1666666666666</ele><time>2026-04-22T08:52:55.721Z</time></trkpt><trkpt lat="43.7288217" lon="12.10513"><ele>906.3333333333333</ele><time>2026-04-22T08:52:58.722Z</time></trkpt><trkpt lat="43.7288683" lon="12.1050683"><ele>903.5</ele><time>2026-04-22T08:53:00.721Z</time></trkpt><trkpt lat="43.7289433" lon="12.104985"><ele>900.6666666666666</ele><time>2026-04-22T08:53:03.721Z</time></trkpt><trkpt lat="43.7290067" lon="12.10494"><ele>897.8333333333333</ele><time>2026-04-22T08:53:05.721Z</time></trkpt><trkpt lat="43.7290917" lon="12.1049233"><ele>895.0</ele><time>2026-04-22T08:53:08.721Z</time></trkpt><trkpt lat="43.73036" lon="12.105195"><ele>894.4999999999999</ele><time>2026-04-22T08:57:55.721Z</time></trkpt><trkpt lat="43.7304533" lon="12.105195"><ele>894.0</ele><time>2026-04-22T08:57:58.721Z</time></trkpt><trkpt lat="43.7305417" lon="12.1051683"><ele>893.5</ele><time>2026-04-22T08:58:01.721Z</time></trkpt><trkpt lat="43.7306283" lon="12.1051217"><ele>893.0</ele><time>2026-04-22T08:58:04.721Z</time></trkpt><trkpt lat="43.7306967" lon="12.1050933"><ele>892.4999999999999</ele><time>2026-04-22T08:58:06.721Z</time></trkpt><trkpt lat="43.7307667" lon="12.1050833"><ele>892.0</ele><time>2026-04-22T08:58:08.722Z</time></trkpt><trkpt lat="43.730855" lon="12.1051217"><ele>892.0</ele><time>2026-04-22T08:58:10.721Z</time></trkpt><trkpt lat="43.7309383" lon="12.1051733"><ele>892.0</ele><time>2026-04-22T08:58:12.721Z</time></trkpt><trkpt lat="43.7310317" lon="12.1052067"><ele>892.0</ele><time>2026-04-22T08:58:14.721Z</time></trkpt><trkpt lat="43.73112" lon="12.105235"><ele>892.0</ele><time>2026-04-22T08:58:16.721Z</time></trkpt><trkpt lat="43.7312167" lon="12.105245"><ele>892.0</ele><time>2026-04-22T08:58:18.721Z</time></trkpt><trkpt lat="43.731315" lon="12.1052567"><ele>891.8333333333333</ele><time>2026-04-22T08:58:20.721Z</time></trkpt><trkpt lat="43.73142" lon="12.105265"><ele>891.6666666666666</ele><time>2026-04-22T08:58:22.721Z</time></trkpt><trkpt lat="43.7315233" lon="12.105275"><ele>891.5</ele><time>2026-04-22T08:58:24.721Z</time></trkpt><trkpt lat="43.7316167" lon="12.1052883"><ele>891.3333333333333</ele><time>2026-04-22T08:58:26.721Z</time></trkpt><trkpt lat="43.7316917" lon="12.1052867"><ele>891.1666666666666</ele><time>2026-04-22T08:58:28.721Z</time></trkpt><trkpt lat="43.7317583" lon="12.1052867"><ele>891.0</ele><time>2026-04-22T08:58:30.721Z</time></trkpt><trkpt lat="43.731855" lon="12.1053367"><ele>891.0</ele><time>2026-04-22T08:58:33.721Z</time></trkpt><trkpt lat="43.731935" lon="12.1054"><ele>891.0</ele><time>2026-04-22T08:58:35.721Z</time></trkpt><trkpt lat="43.7320117" lon="12.1054367"><ele>891.0</ele><time>2026-04-22T08:58:37.721Z</time></trkpt><trkpt lat="43.732085" lon="12.1054017"><ele>891.0</ele><time>2026-04-22T08:58:39.721Z</time></trkpt><trkpt lat="43.7321517" lon="12.1053917"><ele>891.0</ele><time>2026-04-22T08:58:41.721Z</time></trkpt><trkpt lat="43.73223" lon="12.105405"><ele>891.0</ele><time>2026-04-22T08:58:43.721Z</time></trkpt><trkpt lat="43.7323183" lon="12.1054117"><ele>891.0</ele><time>2026-04-22T08:58:45.722Z</time></trkpt><trkpt lat="43.7324167" lon="12.1054367"><ele>890.9999999999999</ele><time>2026-04-22T08:58:47.721Z</time></trkpt><trkpt lat="43.7325167" lon="12.1054583"><ele>890.9999999999999</ele><time>2026-04-22T08:58:49.721Z</time></trkpt><trkpt lat="43.732615" lon="12.1054833"><ele>891.0</ele><time>2026-04-22T08:58:51.721Z</time></trkpt><trkpt lat="43.73271" lon="12.105495"><ele>891.0</ele><time>2026-04-22T08:58:53.721Z</time></trkpt><trkpt lat="43.7327933" lon="12.10551"><ele>889.6666666666666</ele><time>2026-04-22T08:58:55.721Z</time></trkpt><trkpt lat="43.7328633" lon="12.10553"><ele>888.3333333333333</ele><time>2026-04-22T08:58:57.721Z</time></trkpt><trkpt lat="43.7329283" lon="12.105555"><ele>887.0</ele><time>2026-04-22T08:58:59.721Z</time></trkpt><trkpt lat="43.7329867" lon="12.1055917"><ele>885.6666666666666</ele><time>2026-04-22T08:59:01.721Z</time></trkpt><trkpt lat="43.7330433" lon="12.1056483"><ele>884.3333333333333</ele><time>2026-04-22T08:59:04.721Z</time></trkpt><trkpt lat="43.733155" lon="12.105785"><ele>883.0</ele><time>2026-04-22T08:59:39.721Z</time></trkpt><trkpt lat="43.7332983" lon="12.1058633"><ele>880.25</ele><time>2026-04-22T08:59:42.721Z</time></trkpt><trkpt lat="43.7334633" lon="12.1059367"><ele>877.5</ele><time>2026-04-22T08:59:45.721Z</time></trkpt><trkpt lat="43.7336233" lon="12.1059317"><ele>874.75</ele><time>2026-04-22T08:59:48.721Z</time></trkpt><trkpt lat="43.7337167" lon="12.1058767"><ele>872.0</ele><time>2026-04-22T08:59:50.721Z</time></trkpt><trkpt lat="43.7337817" lon="12.10573"><ele>869.3333333333334</ele><time>2026-04-22T08:59:52.722Z</time></trkpt><trkpt lat="43.7338367" lon="12.1055767"><ele>866.6666666666667</ele><time>2026-04-22T08:59:54.721Z</time></trkpt><trkpt lat="43.73387" lon="12.1054933"><ele>864.0</ele><time>2026-04-22T08:59:55.721Z</time></trkpt><trkpt lat="43.7339133" lon="12.1053883"><ele>861.3333333333333</ele><time>2026-04-22T08:59:56.721Z</time></trkpt><trkpt lat="43.7339433" lon="12.1052867"><ele>858.6666666666666</ele><time>2026-04-22T08:59:57.722Z</time></trkpt><trkpt lat="43.73397" lon="12.105175"><ele>856.0</ele><time>2026-04-22T08:59:58.721Z</time></trkpt><trkpt lat="43.7339933" lon="12.1050517"><ele>856.0</ele><time>2026-04-22T08:59:59.721Z</time></trkpt><trkpt lat="43.734015" lon="12.1049217"><ele>855.9999999999999</ele><time>2026-04-22T09:00:00.721Z</time></trkpt><trkpt lat="43.7340383" lon="12.104785"><ele>855.9999999999999</ele><time>2026-04-22T09:00:01.721Z</time></trkpt><trkpt lat="43.7340567" lon="12.10466"><ele>856.0</ele><time>2026-04-22T09:00:02.722Z</time></trkpt><trkpt lat="43.73408" lon="12.1045333"><ele>856.0</ele><time>2026-04-22T09:00:03.722Z</time></trkpt><trkpt lat="43.7341117" lon="12.1044183"><ele>856.0000000000001</ele><time>2026-04-22T09:00:04.722Z</time></trkpt><trkpt lat="43.7341517" lon="12.1043217"><ele>856.0</ele><time>2026-04-22T09:00:05.721Z</time></trkpt><trkpt lat="43.73419" lon="12.10424"><ele>856.0</ele><time>2026-04-22T09:00:06.721Z</time></trkpt><trkpt lat="43.7342433" lon="12.1041767"><ele>856.0</ele><time>2026-04-22T09:00:07.721Z</time></trkpt><trkpt lat="43.7342983" lon="12.10412"><ele>856.0</ele><time>2026-04-22T09:00:08.721Z</time></trkpt><trkpt lat="43.7343583" lon="12.1040767"><ele>856.0000000000001</ele><time>2026-04-22T09:00:09.721Z</time></trkpt><trkpt lat="43.7344267" lon="12.1040433"><ele>856.0</ele><time>2026-04-22T09:00:10.721Z</time></trkpt><trkpt lat="43.7344917" lon="12.104015"><ele>855.3333333333333</ele><time>2026-04-22T09:00:11.721Z</time></trkpt><trkpt lat="43.7345733" lon="12.103995"><ele>854.6666666666666</ele><time>2026-04-22T09:00:12.721Z</time></trkpt><trkpt lat="43.7346567" lon="12.10398"><ele>854.0</ele><time>2026-04-22T09:00:13.721Z</time></trkpt><trkpt lat="43.7347367" lon="12.1039633"><ele>853.3333333333333</ele><time>2026-04-22T09:00:14.722Z</time></trkpt><trkpt lat="43.7348033" lon="12.1039367"><ele>852.6666666666666</ele><time>2026-04-22T09:00:15.721Z</time></trkpt><trkpt lat="43.7348683" lon="12.1038967"><ele>852.0</ele><time>2026-04-22T09:00:16.722Z</time></trkpt><trkpt lat="43.7349283" lon="12.1038567"><ele>852.0</ele><time>2026-04-22T09:00:17.722Z</time></trkpt><trkpt lat="43.7349983" lon="12.1038217"><ele>852.0</ele><time>2026-04-22T09:00:18.722Z</time></trkpt><trkpt lat="43.7350717" lon="12.103785"><ele>852.0</ele><time>2026-04-22T09:00:19.721Z</time></trkpt><trkpt lat="43.73515" lon="12.1037633"><ele>852.0</ele><time>2026-04-22T09:00:20.721Z</time></trkpt><trkpt lat="43.73524" lon="12.103735"><ele>852.0</ele><time>2026-04-22T09:00:21.721Z</time></trkpt><trkpt lat="43.73532" lon="12.1037067"><ele>852.0</ele><time>2026-04-22T09:00:22.721Z</time></trkpt><trkpt lat="43.7354033" lon="12.1036717"><ele>852.5</ele><time>2026-04-22T09:00:23.722Z</time></trkpt><trkpt lat="43.7354783" lon="12.1036217"><ele>853.0</ele><time>2026-04-22T09:00:24.721Z</time></trkpt><trkpt lat="43.73554" lon="12.1035617"><ele>853.5</ele><time>2026-04-22T09:00:25.721Z</time></trkpt><trkpt lat="43.7355967" lon="12.103495"><ele>854.0</ele><time>2026-04-22T09:00:26.721Z</time></trkpt><trkpt lat="43.73565" lon="12.10342"><ele>854.5</ele><time>2026-04-22T09:00:27.721Z</time></trkpt><trkpt lat="43.7357083" lon="12.103335"><ele>855.0</ele><time>2026-04-22T09:00:28.721Z</time></trkpt><trkpt lat="43.73577" lon="12.1032483"><ele>855.4</ele><time>2026-04-22T09:00:29.721Z</time></trkpt><trkpt lat="43.735835" lon="12.1031567"><ele>855.8</ele><time>2026-04-22T09:00:30.721Z</time></trkpt><trkpt lat="43.7358983" lon="12.1030683"><ele>856.2</ele><time>2026-04-22T09:00:31.721Z</time></trkpt><trkpt lat="43.7359667" lon="12.1029767"><ele>856.6</ele><time>2026-04-22T09:00:32.721Z</time></trkpt><trkpt lat="43.73603" lon="12.1028733"><ele>857.0</ele><time>2026-04-22T09:00:33.721Z</time></trkpt><trkpt lat="43.7360883" lon="12.1027717"><ele>857.8333333333334</ele><time>2026-04-22T09:00:34.721Z</time></trkpt><trkpt lat="43.73614" lon="12.1026867"><ele>858.6666666666667</ele><time>2026-04-22T09:00:35.721Z</time></trkpt><trkpt lat="43.7361933" lon="12.1026133"><ele>859.5</ele><time>2026-04-22T09:00:36.722Z</time></trkpt><trkpt lat="43.736285" lon="12.1025033"><ele>860.3333333333333</ele><time>2026-04-22T09:00:38.721Z</time></trkpt><trkpt lat="43.7363717" lon="12.1024467"><ele>861.1666666666666</ele><time>2026-04-22T09:00:40.721Z</time></trkpt><trkpt lat="43.7364383" lon="12.1024783"><ele>862.0</ele><time>2026-04-22T09:00:42.721Z</time></trkpt><trkpt lat="43.7364683" lon="12.102595"><ele>862.0</ele><time>2026-04-22T09:00:44.721Z</time></trkpt><trkpt lat="43.7364667" lon="12.1027783"><ele>862.0</ele><time>2026-04-22T09:00:46.721Z</time></trkpt><trkpt lat="43.73646" lon="12.1028883"><ele>862.0</ele><time>2026-04-22T09:00:47.721Z</time></trkpt><trkpt lat="43.73645" lon="12.1030183"><ele>862.0</ele><time>2026-04-22T09:00:48.721Z</time></trkpt><trkpt lat="43.7364383" lon="12.103145"><ele>862.0</ele><time>2026-04-22T09:00:49.721Z</time></trkpt><trkpt lat="43.7364333" lon="12.1032833"><ele>861.4000000000001</ele><time>2026-04-22T09:00:50.722Z</time></trkpt><trkpt lat="43.7364283" lon="12.103425"><ele>860.8000000000001</ele><time>2026-04-22T09:00:51.721Z</time></trkpt><trkpt lat="43.73642" lon="12.1035767"><ele>860.2</ele><time>2026-04-22T09:00:52.721Z</time></trkpt><trkpt lat="43.7364133" lon="12.10373"><ele>859.6</ele><time>2026-04-22T09:00:53.721Z</time></trkpt><trkpt lat="43.7364" lon="12.103895"><ele>859.0</ele><time>2026-04-22T09:00:54.721Z</time></trkpt><trkpt lat="43.7363867" lon="12.1040633"><ele>859.0</ele><time>2026-04-22T09:00:55.721Z</time></trkpt><trkpt lat="43.7363767" lon="12.10423"><ele>859.0</ele><time>2026-04-22T09:00:56.721Z</time></trkpt><trkpt lat="43.73637" lon="12.1043933"><ele>859.0</ele><time>2026-04-22T09:00:57.721Z</time></trkpt><trkpt lat="43.7363567" lon="12.1045533"><ele>859.0</ele><time>2026-04-22T09:00:58.721Z</time></trkpt><trkpt lat="43.7363567" lon="12.10472"><ele>859.0</ele><time>2026-04-22T09:00:59.721Z</time></trkpt><trkpt lat="43.7363517" lon="12.1049"><ele>859.0</ele><time>2026-04-22T09:01:00.721Z</time></trkpt><trkpt lat="43.7363433" lon="12.10508"><ele>859.0</ele><time>2026-04-22T09:01:01.721Z</time></trkpt><trkpt lat="43.7363317" lon="12.1052717"><ele>859.0</ele><time>2026-04-22T09:01:02.721Z</time></trkpt><trkpt lat="43.736315" lon="12.1054583"><ele>860.75</ele><time>2026-04-22T09:01:03.721Z</time></trkpt><trkpt lat="43.7362883" lon="12.1056467"><ele>862.5</ele><time>2026-04-22T09:01:04.721Z</time></trkpt><trkpt lat="43.7362417" lon="12.1058183"><ele>864.25</ele><time>2026-04-22T09:01:05.721Z</time></trkpt><trkpt lat="43.7361833" lon="12.1059867"><ele>866.0</ele><time>2026-04-22T09:01:06.721Z</time></trkpt><trkpt lat="43.73613" lon="12.1061633"><ele>864.75</ele><time>2026-04-22T09:01:07.721Z</time></trkpt><trkpt lat="43.7360667" lon="12.1063417"><ele>863.5</ele><time>2026-04-22T09:01:08.721Z</time></trkpt><trkpt lat="43.7360083" lon="12.1065283"><ele>862.25</ele><time>2026-04-22T09:01:09.721Z</time></trkpt><trkpt lat="43.7359483" lon="12.1067117"><ele>861.0</ele><time>2026-04-22T09:01:10.721Z</time></trkpt><trkpt lat="43.7358867" lon="12.106895"><ele>861.0</ele><time>2026-04-22T09:01:11.721Z</time></trkpt><trkpt lat="43.7358283" lon="12.1070783"><ele>861.0</ele><time>2026-04-22T09:01:12.721Z</time></trkpt><trkpt lat="43.7357717" lon="12.1072583"><ele>861.0</ele><time>2026-04-22T09:01:13.721Z</time></trkpt><trkpt lat="43.735715" lon="12.1074417"><ele>861.0</ele><time>2026-04-22T09:01:14.721Z</time></trkpt><trkpt lat="43.735655" lon="12.10762"><ele>862.5</ele><time>2026-04-22T09:01:15.721Z</time></trkpt><trkpt lat="43.735595" lon="12.1078"><ele>864.0</ele><time>2026-04-22T09:01:16.721Z</time></trkpt><trkpt lat="43.73554" lon="12.1079767"><ele>865.5</ele><time>2026-04-22T09:01:17.721Z</time></trkpt><trkpt lat="43.735485" lon="12.1081517"><ele>867.0</ele><time>2026-04-22T09:01:18.721Z</time></trkpt><trkpt lat="43.735435" lon="12.10833"><ele>865.0</ele><time>2026-04-22T09:01:19.721Z</time></trkpt><trkpt lat="43.7353767" lon="12.1085017"><ele>863.0</ele><time>2026-04-22T09:01:20.721Z</time></trkpt><trkpt lat="43.7353017" lon="12.1086733"><ele>861.0</ele><time>2026-04-22T09:01:21.721Z</time></trkpt><trkpt lat="43.73522" lon="12.1088367"><ele>859.0</ele><time>2026-04-22T09:01:22.721Z</time></trkpt><trkpt lat="43.7351267" lon="12.1089783"><ele>862.0</ele><time>2026-04-22T09:01:23.722Z</time></trkpt><trkpt lat="43.7350233" lon="12.1091217"><ele>865.0</ele><time>2026-04-22T09:01:24.721Z</time></trkpt><trkpt lat="43.7349033" lon="12.109235"><ele>868.0</ele><time>2026-04-22T09:01:25.721Z</time></trkpt><trkpt lat="43.7347833" lon="12.1093383"><ele>871.0</ele><time>2026-04-22T09:01:26.721Z</time></trkpt><trkpt lat="43.7346567" lon="12.1094183"><ele>871.0</ele><time>2026-04-22T09:01:27.721Z</time></trkpt><trkpt lat="43.7345233" lon="12.1094933"><ele>871.0</ele><time>2026-04-22T09:01:28.721Z</time></trkpt><trkpt lat="43.73438" lon="12.1095567"><ele>871.0</ele><time>2026-04-22T09:01:29.721Z</time></trkpt><trkpt lat="43.7342433" lon="12.1096283"><ele>871.0</ele><time>2026-04-22T09:01:30.721Z</time></trkpt><trkpt lat="43.73411" lon="12.1096967"><ele>870.25</ele><time>2026-04-22T09:01:31.721Z</time></trkpt><trkpt lat="43.73398" lon="12.1097717"><ele>869.5</ele><time>2026-04-22T09:01:32.721Z</time></trkpt><trkpt lat="43.733855" lon="12.1098433"><ele>868.75</ele><time>2026-04-22T09:01:33.721Z</time></trkpt><trkpt lat="43.7337267" lon="12.109915"><ele>868.0</ele><time>2026-04-22T09:01:34.721Z</time></trkpt><trkpt lat="43.7335967" lon="12.1099917"><ele>869.5</ele><time>2026-04-22T09:01:35.721Z</time></trkpt><trkpt lat="43.7334717" lon="12.1100567"><ele>871.0</ele><time>2026-04-22T09:01:36.722Z</time></trkpt><trkpt lat="43.7333633" lon="12.110135"><ele>872.5</ele><time>2026-04-22T09:01:37.721Z</time></trkpt><trkpt lat="43.7332583" lon="12.11023"><ele>874.0</ele><time>2026-04-22T09:01:38.722Z</time></trkpt><trkpt lat="43.7331717" lon="12.1103533"><ele>874.0</ele><time>2026-04-22T09:01:39.721Z</time></trkpt><trkpt lat="43.7330917" lon="12.110495"><ele>874.0</ele><time>2026-04-22T09:01:40.721Z</time></trkpt><trkpt lat="43.7330183" lon="12.1106483"><ele>874.0</ele><time>2026-04-22T09:01:41.721Z</time></trkpt><trkpt lat="43.7329483" lon="12.1107983"><ele>874.0</ele><time>2026-04-22T09:01:42.721Z</time></trkpt><trkpt lat="43.73288" lon="12.1109417"><ele>873.75</ele><time>2026-04-22T09:01:43.722Z</time></trkpt><trkpt lat="43.7328033" lon="12.1110867"><ele>873.5</ele><time>2026-04-22T09:01:44.721Z</time></trkpt><trkpt lat="43.7327267" lon="12.1112383"><ele>873.25</ele><time>2026-04-22T09:01:45.721Z</time></trkpt><trkpt lat="43.7326383" lon="12.111395"><ele>873.0</ele><time>2026-04-22T09:01:46.722Z</time></trkpt><trkpt lat="43.73256" lon="12.1115467"><ele>873.75</ele><time>2026-04-22T09:01:47.722Z</time></trkpt><trkpt lat="43.732485" lon="12.11169"><ele>874.5</ele><time>2026-04-22T09:01:48.721Z</time></trkpt><trkpt lat="43.7324183" lon="12.111835"><ele>875.25</ele><time>2026-04-22T09:01:49.721Z</time></trkpt><trkpt lat="43.73235" lon="12.1119833"><ele>876.0</ele><time>2026-04-22T09:01:50.721Z</time></trkpt><trkpt lat="43.7322767" lon="12.1121383"><ele>876.0</ele><time>2026-04-22T09:01:51.721Z</time></trkpt><trkpt lat="43.732205" lon="12.1122917"><ele>876.0</ele><time>2026-04-22T09:01:52.721Z</time></trkpt><trkpt lat="43.7321333" lon="12.112435"><ele>876.0</ele><time>2026-04-22T09:01:53.721Z</time></trkpt><trkpt lat="43.73206" lon="12.1125667"><ele>876.0</ele><time>2026-04-22T09:01:54.721Z</time></trkpt><trkpt lat="43.731985" lon="12.1127"><ele>876.75</ele><time>2026-04-22T09:01:55.721Z</time></trkpt><trkpt lat="43.7319133" lon="12.11283"><ele>877.5</ele><time>2026-04-22T09:01:56.721Z</time></trkpt><trkpt lat="43.731835" lon="12.11295"><ele>878.25</ele><time>2026-04-22T09:01:57.721Z</time></trkpt><trkpt lat="43.7317483" lon="12.1130733"><ele>879.0</ele><time>2026-04-22T09:01:58.721Z</time></trkpt><trkpt lat="43.731655" lon="12.113175"><ele>879.0</ele><time>2026-04-22T09:01:59.721Z</time></trkpt><trkpt lat="43.7315633" lon="12.1132583"><ele>879.0</ele><time>2026-04-22T09:02:00.722Z</time></trkpt><trkpt lat="43.7314483" lon="12.11333"><ele>879.0</ele><time>2026-04-22T09:02:01.721Z</time></trkpt><trkpt lat="43.7313167" lon="12.1133883"><ele>879.0</ele><time>2026-04-22T09:02:02.721Z</time></trkpt><trkpt lat="43.731175" lon="12.1134467"><ele>876.5</ele><time>2026-04-22T09:02:03.721Z</time></trkpt><trkpt lat="43.731035" lon="12.1135033"><ele>874.0</ele><time>2026-04-22T09:02:04.721Z</time></trkpt><trkpt lat="43.730895" lon="12.1135717"><ele>871.5</ele><time>2026-04-22T09:02:05.721Z</time></trkpt><trkpt lat="43.730755" lon="12.113635"><ele>869.0</ele><time>2026-04-22T09:02:06.722Z</time></trkpt><trkpt lat="43.7306233" lon="12.1137017"><ele>869.0</ele><time>2026-04-22T09:02:07.721Z</time></trkpt><trkpt lat="43.7304883" lon="12.1137533"><ele>869.0</ele><time>2026-04-22T09:02:08.722Z</time></trkpt><trkpt lat="43.7303533" lon="12.1138"><ele>869.0</ele><time>2026-04-22T09:02:09.722Z</time></trkpt><trkpt lat="43.7302183" lon="12.113835"><ele>869.0</ele><time>2026-04-22T09:02:10.721Z</time></trkpt><trkpt lat="43.730095" lon="12.1138583"><ele>867.0</ele><time>2026-04-22T09:02:11.721Z</time></trkpt><trkpt lat="43.729965" lon="12.1138633"><ele>865.0</ele><time>2026-04-22T09:02:12.721Z</time></trkpt><trkpt lat="43.7298433" lon="12.11387"><ele>863.0</ele><time>2026-04-22T09:02:13.721Z</time></trkpt><trkpt lat="43.7297167" lon="12.11388"><ele>861.0</ele><time>2026-04-22T09:02:14.721Z</time></trkpt><trkpt lat="43.7295867" lon="12.113925"><ele>861.0</ele><time>2026-04-22T09:02:15.721Z</time></trkpt><trkpt lat="43.72945" lon="12.113985"><ele>861.0</ele><time>2026-04-22T09:02:16.722Z</time></trkpt><trkpt lat="43.7293317" lon="12.1140867"><ele>861.0</ele><time>2026-04-22T09:02:17.721Z</time></trkpt><trkpt lat="43.7292267" lon="12.1142133"><ele>861.0</ele><time>2026-04-22T09:02:18.721Z</time></trkpt><trkpt lat="43.7291167" lon="12.1143417"><ele>863.5</ele><time>2026-04-22T09:02:19.721Z</time></trkpt><trkpt lat="43.7290267" lon="12.114485"><ele>866.0</ele><time>2026-04-22T09:02:20.721Z</time></trkpt><trkpt lat="43.7289533" lon="12.11466"><ele>868.5</ele><time>2026-04-22T09:02:21.721Z</time></trkpt><trkpt lat="43.7288983" lon="12.1148383"><ele>871.0</ele><time>2026-04-22T09:02:22.721Z</time></trkpt><trkpt lat="43.72884" lon="12.1150083"><ele>871.1999999999999</ele><time>2026-04-22T09:02:23.721Z</time></trkpt><trkpt lat="43.7287867" lon="12.1151633"><ele>871.3999999999999</ele><time>2026-04-22T09:02:24.721Z</time></trkpt><trkpt lat="43.72873" lon="12.1152983"><ele>871.6</ele><time>2026-04-22T09:02:25.721Z</time></trkpt><trkpt lat="43.7286533" lon="12.1153917"><ele>871.8</ele><time>2026-04-22T09:02:26.721Z</time></trkpt><trkpt lat="43.72856" lon="12.1154683"><ele>872.0</ele><time>2026-04-22T09:02:27.721Z</time></trkpt><trkpt lat="43.728455" lon="12.1155217"><ele>872.0</ele><time>2026-04-22T09:02:28.721Z</time></trkpt><trkpt lat="43.72834" lon="12.1155583"><ele>872.0</ele><time>2026-04-22T09:02:29.721Z</time></trkpt><trkpt lat="43.7282117" lon="12.1155717"><ele>872.0</ele><time>2026-04-22T09:02:30.721Z</time></trkpt><trkpt lat="43.7280867" lon="12.1155833"><ele>872.0</ele><time>2026-04-22T09:02:31.721Z</time></trkpt><trkpt lat="43.7279633" lon="12.1156033"><ele>872.0</ele><time>2026-04-22T09:02:32.721Z</time></trkpt><trkpt lat="43.7278383" lon="12.115615"><ele>872.0</ele><time>2026-04-22T09:02:33.721Z</time></trkpt><trkpt lat="43.7277083" lon="12.1156417"><ele>872.0</ele><time>2026-04-22T09:02:34.721Z</time></trkpt><trkpt lat="43.7275833" lon="12.115665"><ele>872.0</ele><time>2026-04-22T09:02:35.721Z</time></trkpt><trkpt lat="43.7274617" lon="12.1157083"><ele>876.0</ele><time>2026-04-22T09:02:36.722Z</time></trkpt><trkpt lat="43.7273467" lon="12.1157617"><ele>880.0</ele><time>2026-04-22T09:02:37.721Z</time></trkpt><trkpt lat="43.72724" lon="12.1158583"><ele>884.0</ele><time>2026-04-22T09:02:38.721Z</time></trkpt><trkpt lat="43.72715" lon="12.1159667"><ele>888.0</ele><time>2026-04-22T09:02:39.721Z</time></trkpt><trkpt lat="43.72706" lon="12.1160933"><ele>888.0</ele><time>2026-04-22T09:02:40.721Z</time></trkpt><trkpt lat="43.7269683" lon="12.1162217"><ele>888.0</ele><time>2026-04-22T09:02:41.721Z</time></trkpt><trkpt lat="43.7268733" lon="12.1163483"><ele>888.0</ele><time>2026-04-22T09:02:42.721Z</time></trkpt><trkpt lat="43.7267833" lon="12.1164667"><ele>888.0</ele><time>2026-04-22T09:02:43.721Z</time></trkpt><trkpt lat="43.7266833" lon="12.1165733"><ele>891.0</ele><time>2026-04-22T09:02:44.721Z</time></trkpt><trkpt lat="43.72657" lon="12.1166633"><ele>894.0</ele><time>2026-04-22T09:02:45.721Z</time></trkpt><trkpt lat="43.72646" lon="12.116745"><ele>897.0</ele><time>2026-04-22T09:02:46.721Z</time></trkpt><trkpt lat="43.7263483" lon="12.1168217"><ele>900.0</ele><time>2026-04-22T09:02:47.722Z</time></trkpt><trkpt lat="43.726235" lon="12.1169083"><ele>900.0</ele><time>2026-04-22T09:02:48.721Z</time></trkpt><trkpt lat="43.7261183" lon="12.1169817"><ele>900.0</ele><time>2026-04-22T09:02:49.721Z</time></trkpt><trkpt lat="43.7260067" lon="12.1170583"><ele>900.0</ele><time>2026-04-22T09:02:50.721Z</time></trkpt><trkpt lat="43.7259033" lon="12.1171367"><ele>900.0</ele><time>2026-04-22T09:02:51.721Z</time></trkpt><trkpt lat="43.7257917" lon="12.117215"><ele>899.5</ele><time>2026-04-22T09:02:52.721Z</time></trkpt><trkpt lat="43.7256833" lon="12.11729"><ele>899.0</ele><time>2026-04-22T09:02:53.721Z</time></trkpt><trkpt lat="43.7255783" lon="12.1173767"><ele>898.5</ele><time>2026-04-22T09:02:54.721Z</time></trkpt><trkpt lat="43.725485" lon="12.1174683"><ele>898.0</ele><time>2026-04-22T09:02:55.721Z</time></trkpt><trkpt lat="43.7253967" lon="12.1175783"><ele>899.5</ele><time>2026-04-22T09:02:56.721Z</time></trkpt><trkpt lat="43.7253117" lon="12.1177217"><ele>901.0</ele><time>2026-04-22T09:02:57.721Z</time></trkpt><trkpt lat="43.725235" lon="12.1178767"><ele>902.5</ele><time>2026-04-22T09:02:58.721Z</time></trkpt><trkpt lat="43.7251667" lon="12.1180233"><ele>904.0</ele><time>2026-04-22T09:02:59.721Z</time></trkpt><trkpt lat="43.7251" lon="12.118165"><ele>903.5</ele><time>2026-04-22T09:03:00.721Z</time></trkpt><trkpt lat="43.725035" lon="12.1183"><ele>903.0</ele><time>2026-04-22T09:03:01.721Z</time></trkpt><trkpt lat="43.7249617" lon="12.1184083"><ele>902.5</ele><time>2026-04-22T09:03:02.721Z</time></trkpt><trkpt lat="43.7248733" lon="12.118505"><ele>902.0</ele><time>2026-04-22T09:03:03.721Z</time></trkpt><trkpt lat="43.72477" lon="12.1185883"><ele>902.0</ele><time>2026-04-22T09:03:04.721Z</time></trkpt><trkpt lat="43.7246567" lon="12.118645"><ele>902.0</ele><time>2026-04-22T09:03:05.721Z</time></trkpt><trkpt lat="43.7245267" lon="12.118675"><ele>902.0</ele><time>2026-04-22T09:03:06.721Z</time></trkpt><trkpt lat="43.72438" lon="12.1187033"><ele>902.0</ele><time>2026-04-22T09:03:07.721Z</time></trkpt><trkpt lat="43.724215" lon="12.11873"><ele>899.25</ele><time>2026-04-22T09:03:08.721Z</time></trkpt><trkpt lat="43.7240533" lon="12.1187633"><ele>896.5</ele><time>2026-04-22T09:03:09.722Z</time></trkpt><trkpt lat="43.72391" lon="12.1187867"><ele>893.75</ele><time>2026-04-22T09:03:10.721Z</time></trkpt><trkpt lat="43.72378" lon="12.1188133"><ele>891.0</ele><time>2026-04-22T09:03:11.721Z</time></trkpt><trkpt lat="43.7236517" lon="12.1188433"><ele>891.25</ele><time>2026-04-22T09:03:12.72Z</time></trkpt><trkpt lat="43.72353" lon="12.11888"><ele>891.5</ele><time>2026-04-22T09:03:13.72Z</time></trkpt><trkpt lat="43.72342" lon="12.11893"><ele>891.75</ele><time>2026-04-22T09:03:14.72Z</time></trkpt><trkpt lat="43.7233233" lon="12.1189983"><ele>892.0</ele><time>2026-04-22T09:03:15.72Z</time></trkpt><trkpt lat="43.723225" lon="12.1190983"><ele>892.0</ele><time>2026-04-22T09:03:16.72Z</time></trkpt><trkpt lat="43.72313" lon="12.119215"><ele>892.0</ele><time>2026-04-22T09:03:17.72Z</time></trkpt><trkpt lat="43.7230417" lon="12.1193483"><ele>892.0</ele><time>2026-04-22T09:03:18.72Z</time></trkpt><trkpt lat="43.7229633" lon="12.119485"><ele>892.0</ele><time>2026-04-22T09:03:19.72Z</time></trkpt><trkpt lat="43.7228833" lon="12.1196233"><ele>892.0</ele><time>2026-04-22T09:03:20.72Z</time></trkpt><trkpt lat="43.72282" lon="12.11976"><ele>892.0</ele><time>2026-04-22T09:03:21.72Z</time></trkpt><trkpt lat="43.72279" lon="12.119905"><ele>892.0</ele><time>2026-04-22T09:03:22.72Z</time></trkpt><trkpt lat="43.72279" lon="12.1200517"><ele>892.0</ele><time>2026-04-22T09:03:23.72Z</time></trkpt><trkpt lat="43.7228217" lon="12.1202033"><ele>892.0</ele><time>2026-04-22T09:03:24.72Z</time></trkpt><trkpt lat="43.7228833" lon="12.1203367"><ele>892.25</ele><time>2026-04-22T09:03:25.721Z</time></trkpt><trkpt lat="43.7229633" lon="12.12044"><ele>892.5</ele><time>2026-04-22T09:03:26.72Z</time></trkpt><trkpt lat="43.7230633" lon="12.1205233"><ele>892.75</ele><time>2026-04-22T09:03:27.72Z</time></trkpt><trkpt lat="43.72317" lon="12.1206"><ele>893.0</ele><time>2026-04-22T09:03:28.72Z</time></trkpt><trkpt lat="43.7232933" lon="12.1206817"><ele>892.0</ele><time>2026-04-22T09:03:29.72Z</time></trkpt><trkpt lat="43.72342" lon="12.1207667"><ele>891.0</ele><time>2026-04-22T09:03:30.72Z</time></trkpt><trkpt lat="43.72355" lon="12.1208533"><ele>890.0</ele><time>2026-04-22T09:03:31.721Z</time></trkpt><trkpt lat="43.7236767" lon="12.12094"><ele>889.0</ele><time>2026-04-22T09:03:32.72Z</time></trkpt><trkpt lat="43.723795" lon="12.12103"><ele>889.0</ele><time>2026-04-22T09:03:33.72Z</time></trkpt><trkpt lat="43.7239167" lon="12.12112"><ele>889.0</ele><time>2026-04-22T09:03:34.72Z</time></trkpt><trkpt lat="43.7240267" lon="12.1211983"><ele>889.0</ele><time>2026-04-22T09:03:35.72Z</time></trkpt><trkpt lat="43.7241233" lon="12.1213067"><ele>889.0</ele><time>2026-04-22T09:03:36.72Z</time></trkpt><trkpt lat="43.7242033" lon="12.1214233"><ele>886.25</ele><time>2026-04-22T09:03:37.72Z</time></trkpt><trkpt lat="43.72426" lon="12.1215717"><ele>883.5</ele><time>2026-04-22T09:03:38.72Z</time></trkpt><trkpt lat="43.7242967" lon="12.121735"><ele>880.75</ele><time>2026-04-22T09:03:39.72Z</time></trkpt><trkpt lat="43.7243283" lon="12.1219033"><ele>878.0</ele><time>2026-04-22T09:03:40.72Z</time></trkpt><trkpt lat="43.724365" lon="12.122075"><ele>881.25</ele><time>2026-04-22T09:03:41.721Z</time></trkpt><trkpt lat="43.7244017" lon="12.1222383"><ele>884.5</ele><time>2026-04-22T09:03:42.72Z</time></trkpt><trkpt lat="43.7244417" lon="12.1224"><ele>887.75</ele><time>2026-04-22T09:03:43.72Z</time></trkpt><trkpt lat="43.7244583" lon="12.122565"><ele>891.0</ele><time>2026-04-22T09:03:44.72Z</time></trkpt><trkpt lat="43.724455" lon="12.12273"><ele>891.0</ele><time>2026-04-22T09:03:45.72Z</time></trkpt><trkpt lat="43.724425" lon="12.12289"><ele>891.0</ele><time>2026-04-22T09:03:46.72Z</time></trkpt><trkpt lat="43.724365" lon="12.1230183"><ele>891.0</ele><time>2026-04-22T09:03:47.72Z</time></trkpt><trkpt lat="43.724285" lon="12.123125"><ele>891.0</ele><time>2026-04-22T09:03:48.72Z</time></trkpt><trkpt lat="43.7241867" lon="12.1232267"><ele>886.25</ele><time>2026-04-22T09:03:49.72Z</time></trkpt><trkpt lat="43.724075" lon="12.123305"><ele>881.5</ele><time>2026-04-22T09:03:50.72Z</time></trkpt><trkpt lat="43.7239583" lon="12.1233717"><ele>876.75</ele><time>2026-04-22T09:03:51.72Z</time></trkpt><trkpt lat="43.723835" lon="12.1234233"><ele>872.0</ele><time>2026-04-22T09:03:52.72Z</time></trkpt><trkpt lat="43.7236983" lon="12.1234483"><ele>870.5</ele><time>2026-04-22T09:03:53.72Z</time></trkpt><trkpt lat="43.7235583" lon="12.1234733"><ele>869.0</ele><time>2026-04-22T09:03:54.72Z</time></trkpt><trkpt lat="43.723425" lon="12.1234917"><ele>867.5</ele><time>2026-04-22T09:03:55.72Z</time></trkpt><trkpt lat="43.7232867" lon="12.1235133"><ele>866.0</ele><time>2026-04-22T09:03:56.72Z</time></trkpt><trkpt lat="43.72315" lon="12.1235367"><ele>866.0</ele><time>2026-04-22T09:03:57.72Z</time></trkpt><trkpt lat="43.7230167" lon="12.1235567"><ele>866.0</ele><time>2026-04-22T09:03:58.72Z</time></trkpt><trkpt lat="43.72289" lon="12.123585"><ele>866.0</ele><time>2026-04-22T09:03:59.72Z</time></trkpt><trkpt lat="43.7227633" lon="12.1236067"><ele>866.0</ele><time>2026-04-22T09:04:00.72Z</time></trkpt><trkpt lat="43.7226383" lon="12.1236283"><ele>864.5</ele><time>2026-04-22T09:04:01.721Z</time></trkpt><trkpt lat="43.7225017" lon="12.1236533"><ele>863.0</ele><time>2026-04-22T09:04:02.72Z</time></trkpt><trkpt lat="43.7223633" lon="12.1236867"><ele>861.5</ele><time>2026-04-22T09:04:03.72Z</time></trkpt><trkpt lat="43.72222" lon="12.1237167"><ele>860.0</ele><time>2026-04-22T09:04:04.72Z</time></trkpt><trkpt lat="43.7220767" lon="12.1237417"><ele>860.0</ele><time>2026-04-22T09:04:05.72Z</time></trkpt><trkpt lat="43.7219433" lon="12.12377"><ele>860.0</ele><time>2026-04-22T09:04:06.72Z</time></trkpt><trkpt lat="43.7218183" lon="12.1238083"><ele>860.0</ele><time>2026-04-22T09:04:07.72Z</time></trkpt><trkpt lat="43.7217083" lon="12.1238467"><ele>860.0</ele><time>2026-04-22T09:04:08.72Z</time></trkpt><trkpt lat="43.7216133" lon="12.12392"><ele>859.8</ele><time>2026-04-22T09:04:09.72Z</time></trkpt><trkpt lat="43.7215333" lon="12.1240167"><ele>859.6</ele><time>2026-04-22T09:04:10.72Z</time></trkpt><trkpt lat="43.72148" lon="12.1241467"><ele>859.4000000000001</ele><time>2026-04-22T09:04:11.72Z</time></trkpt><trkpt lat="43.7214567" lon="12.1243017"><ele>859.2</ele><time>2026-04-22T09:04:12.72Z</time></trkpt><trkpt lat="43.7214633" lon="12.124455"><ele>859.0</ele><time>2026-04-22T09:04:13.72Z</time></trkpt><trkpt lat="43.7214933" lon="12.12461"><ele>859.0</ele><time>2026-04-22T09:04:14.72Z</time></trkpt><trkpt lat="43.7215483" lon="12.12475"><ele>859.0</ele><time>2026-04-22T09:04:15.72Z</time></trkpt><trkpt lat="43.7216267" lon="12.1248883"><ele>859.0</ele><time>2026-04-22T09:04:16.72Z</time></trkpt><trkpt lat="43.7216983" lon="12.1250283"><ele>859.0</ele><time>2026-04-22T09:04:17.72Z</time></trkpt><trkpt lat="43.7217483" lon="12.125175"><ele>857.5</ele><time>2026-04-22T09:04:18.72Z</time></trkpt><trkpt lat="43.721775" lon="12.1253433"><ele>856.0</ele><time>2026-04-22T09:04:19.72Z</time></trkpt><trkpt lat="43.7217783" lon="12.125515"><ele>854.5</ele><time>2026-04-22T09:04:20.721Z</time></trkpt><trkpt lat="43.7217617" lon="12.1257"><ele>853.0</ele><time>2026-04-22T09:04:21.72Z</time></trkpt><trkpt lat="43.7217367" lon="12.1258983"><ele>850.3333333333333</ele><time>2026-04-22T09:04:22.72Z</time></trkpt><trkpt lat="43.7217" lon="12.1261017"><ele>847.6666666666667</ele><time>2026-04-22T09:04:23.72Z</time></trkpt><trkpt lat="43.7216683" lon="12.1263117"><ele>845.0</ele><time>2026-04-22T09:04:24.72Z</time></trkpt><trkpt lat="43.7216383" lon="12.1265183"><ele>844.25</ele><time>2026-04-22T09:04:25.72Z</time></trkpt><trkpt lat="43.7216083" lon="12.1267267"><ele>843.5</ele><time>2026-04-22T09:04:26.72Z</time></trkpt><trkpt lat="43.7215833" lon="12.1269267"><ele>842.75</ele><time>2026-04-22T09:04:27.72Z</time></trkpt><trkpt lat="43.721565" lon="12.1271283"><ele>842.0</ele><time>2026-04-22T09:04:28.72Z</time></trkpt><trkpt lat="43.7215483" lon="12.1273217"><ele>842.25</ele><time>2026-04-22T09:04:29.72Z</time></trkpt><trkpt lat="43.721525" lon="12.12752"><ele>842.5</ele><time>2026-04-22T09:04:30.72Z</time></trkpt><trkpt lat="43.7215017" lon="12.1277167"><ele>842.75</ele><time>2026-04-22T09:04:31.72Z</time></trkpt><trkpt lat="43.7214933" lon="12.1279183"><ele>843.0</ele><time>2026-04-22T09:04:32.721Z</time></trkpt><trkpt lat="43.721495" lon="12.1281167"><ele>843.0</ele><time>2026-04-22T09:04:33.72Z</time></trkpt><trkpt lat="43.7214933" lon="12.1283183"><ele>843.0</ele><time>2026-04-22T09:04:34.72Z</time></trkpt><trkpt lat="43.7214983" lon="12.1285167"><ele>843.0</ele><time>2026-04-22T09:04:35.72Z</time></trkpt><trkpt lat="43.7215233" lon="12.12871"><ele>843.0</ele><time>2026-04-22T09:04:36.721Z</time></trkpt><trkpt lat="43.721545" lon="12.1288983"><ele>842.5</ele><time>2026-04-22T09:04:37.72Z</time></trkpt><trkpt lat="43.7215667" lon="12.1290767"><ele>842.0</ele><time>2026-04-22T09:04:38.72Z</time></trkpt><trkpt lat="43.7216017" lon="12.12925"><ele>841.5</ele><time>2026-04-22T09:04:39.72Z</time></trkpt><trkpt lat="43.7216433" lon="12.1294217"><ele>841.0</ele><time>2026-04-22T09:04:40.72Z</time></trkpt><trkpt lat="43.7217033" lon="12.1295833"><ele>841.0</ele><time>2026-04-22T09:04:41.72Z</time></trkpt><trkpt lat="43.72177" lon="12.1297367"><ele>841.0</ele><time>2026-04-22T09:04:42.72Z</time></trkpt><trkpt lat="43.7218367" lon="12.1298817"><ele>841.0</ele><time>2026-04-22T09:04:43.72Z</time></trkpt><trkpt lat="43.7219033" lon="12.1300117"><ele>841.0</ele><time>2026-04-22T09:04:44.72Z</time></trkpt><trkpt lat="43.7219583" lon="12.1301317"><ele>843.6666666666666</ele><time>2026-04-22T09:04:45.72Z</time></trkpt><trkpt lat="43.722015" lon="12.1302467"><ele>846.3333333333333</ele><time>2026-04-22T09:04:46.72Z</time></trkpt><trkpt lat="43.7220517" lon="12.1303667"><ele>849.0</ele><time>2026-04-22T09:04:47.72Z</time></trkpt><trkpt lat="43.720685" lon="12.129885"><ele>841.25</ele><time>2026-04-22T09:05:09.72Z</time></trkpt><trkpt lat="43.7206217" lon="12.129715"><ele>833.5</ele><time>2026-04-22T09:05:10.72Z</time></trkpt><trkpt lat="43.7205517" lon="12.1295433"><ele>825.75</ele><time>2026-04-22T09:05:11.72Z</time></trkpt><trkpt lat="43.720485" lon="12.1293683"><ele>818.0</ele><time>2026-04-22T09:05:12.72Z</time></trkpt><trkpt lat="43.7204217" lon="12.1292"><ele>818.25</ele><time>2026-04-22T09:05:13.72Z</time></trkpt><trkpt lat="43.7203567" lon="12.12903"><ele>818.5</ele><time>2026-04-22T09:05:14.72Z</time></trkpt><trkpt lat="43.720295" lon="12.1288567"><ele>818.75</ele><time>2026-04-22T09:05:15.72Z</time></trkpt><trkpt lat="43.7202483" lon="12.12868"><ele>819.0</ele><time>2026-04-22T09:05:16.72Z</time></trkpt><trkpt lat="43.7202083" lon="12.1285033"><ele>812.75</ele><time>2026-04-22T09:05:17.72Z</time></trkpt><trkpt lat="43.7201733" lon="12.1283233"><ele>806.5</ele><time>2026-04-22T09:05:18.72Z</time></trkpt><trkpt lat="43.720155" lon="12.1281333"><ele>800.25</ele><time>2026-04-22T09:05:19.72Z</time></trkpt><trkpt lat="43.7201367" lon="12.127935"><ele>794.0</ele><time>2026-04-22T09:05:20.72Z</time></trkpt><trkpt lat="43.7201183" lon="12.1277333"><ele>794.3333333333334</ele><time>2026-04-22T09:05:21.72Z</time></trkpt><trkpt lat="43.7201" lon="12.1275333"><ele>794.6666666666667</ele><time>2026-04-22T09:05:22.72Z</time></trkpt><trkpt lat="43.7200817" lon="12.1273383"><ele>795.0</ele><time>2026-04-22T09:05:23.72Z</time></trkpt><trkpt lat="43.7199983" lon="12.1269683"><ele>795.0</ele><time>2026-04-22T09:05:25.72Z</time></trkpt><trkpt lat="43.7199317" lon="12.126785"><ele>795.0</ele><time>2026-04-22T09:05:26.72Z</time></trkpt><trkpt lat="43.7198583" lon="12.1266133"><ele>795.0</ele><time>2026-04-22T09:05:27.72Z</time></trkpt><trkpt lat="43.7197767" lon="12.1264417"><ele>795.0</ele><time>2026-04-22T09:05:28.72Z</time></trkpt><trkpt lat="43.7196933" lon="12.1262683"><ele>797.0</ele><time>2026-04-22T09:05:29.72Z</time></trkpt><trkpt lat="43.71961" lon="12.126095"><ele>799.0</ele><time>2026-04-22T09:05:30.72Z</time></trkpt><trkpt lat="43.7195317" lon="12.1258983"><ele>801.0</ele><time>2026-04-22T09:05:31.72Z</time></trkpt><trkpt lat="43.7194517" lon="12.1256983"><ele>791.0</ele><time>2026-04-22T09:05:32.72Z</time></trkpt><trkpt lat="43.7193733" lon="12.1254883"><ele>781.0</ele><time>2026-04-22T09:05:33.72Z</time></trkpt><trkpt lat="43.7193067" lon="12.125275"><ele>771.0</ele><time>2026-04-22T09:05:34.72Z</time></trkpt><trkpt lat="43.7192483" lon="12.1250633"><ele>772.3333333333333</ele><time>2026-04-22T09:05:35.721Z</time></trkpt><trkpt lat="43.71919" lon="12.1248467"><ele>773.6666666666666</ele><time>2026-04-22T09:05:36.72Z</time></trkpt><trkpt lat="43.7191283" lon="12.1246367"><ele>775.0</ele><time>2026-04-22T09:05:37.72Z</time></trkpt><trkpt lat="43.7190733" lon="12.1244133"><ele>775.0</ele><time>2026-04-22T09:05:38.72Z</time></trkpt><trkpt lat="43.719015" lon="12.124195"><ele>775.0</ele><time>2026-04-22T09:05:39.72Z</time></trkpt><trkpt lat="43.718955" lon="12.1239767"><ele>775.0</ele><time>2026-04-22T09:05:40.72Z</time></trkpt><trkpt lat="43.7189" lon="12.123765"><ele>780.3333333333333</ele><time>2026-04-22T09:05:41.721Z</time></trkpt><trkpt lat="43.7188383" lon="12.1235583"><ele>785.6666666666667</ele><time>2026-04-22T09:05:42.72Z</time></trkpt><trkpt lat="43.718785" lon="12.1233433"><ele>791.0</ele><time>2026-04-22T09:05:43.72Z</time></trkpt><trkpt lat="43.7187367" lon="12.12313"><ele>794.0</ele><time>2026-04-22T09:05:44.72Z</time></trkpt><trkpt lat="43.7186283" lon="12.12271"><ele>797.0</ele><time>2026-04-22T09:05:46.72Z</time></trkpt><trkpt lat="43.718585" lon="12.1225033"><ele>790.6666666666667</ele><time>2026-04-22T09:05:47.72Z</time></trkpt><trkpt lat="43.71855" lon="12.1222933"><ele>784.3333333333333</ele><time>2026-04-22T09:05:48.721Z</time></trkpt><trkpt lat="43.7185083" lon="12.1220933"><ele>778.0</ele><time>2026-04-22T09:05:49.721Z</time></trkpt><trkpt lat="43.7184717" lon="12.1219"><ele>778.0</ele><time>2026-04-22T09:05:50.72Z</time></trkpt><trkpt lat="43.7184417" lon="12.12171"><ele>778.0</ele><time>2026-04-22T09:05:51.72Z</time></trkpt><trkpt lat="43.7184" lon="12.12153"><ele>778.0</ele><time>2026-04-22T09:05:52.72Z</time></trkpt><trkpt lat="43.7183517" lon="12.121365"><ele>778.0</ele><time>2026-04-22T09:05:53.72Z</time></trkpt><trkpt lat="43.7182917" lon="12.121235"><ele>779.2</ele><time>2026-04-22T09:05:54.72Z</time></trkpt><trkpt lat="43.7182233" lon="12.1211067"><ele>780.4</ele><time>2026-04-22T09:05:55.72Z</time></trkpt><trkpt lat="43.7181433" lon="12.1210133"><ele>781.6</ele><time>2026-04-22T09:05:56.72Z</time></trkpt><trkpt lat="43.7180683" lon="12.12094"><ele>782.8000000000001</ele><time>2026-04-22T09:05:57.72Z</time></trkpt><trkpt lat="43.7179833" lon="12.1209017"><ele>784.0</ele><time>2026-04-22T09:05:58.72Z</time></trkpt><trkpt lat="43.7178967" lon="12.1208817"><ele>784.0</ele><time>2026-04-22T09:05:59.72Z</time></trkpt><trkpt lat="43.7178217" lon="12.12089"><ele>784.0</ele><time>2026-04-22T09:06:00.72Z</time></trkpt><trkpt lat="43.7177583" lon="12.1209133"><ele>784.0</ele><time>2026-04-22T09:06:01.72Z</time></trkpt><trkpt lat="43.7176617" lon="12.1209233"><ele>784.0</ele><time>2026-04-22T09:06:03.72Z</time></trkpt><trkpt lat="43.7176" lon="12.120875"><ele>784.0</ele><time>2026-04-22T09:06:05.72Z</time></trkpt><trkpt lat="43.7179133" lon="12.12049"><ele>783.8333333333333</ele><time>2026-04-22T09:07:53.719Z</time></trkpt><trkpt lat="43.7180117" lon="12.1204317"><ele>783.6666666666666</ele><time>2026-04-22T09:07:55.719Z</time></trkpt><trkpt lat="43.71809" lon="12.120405"><ele>783.5</ele><time>2026-04-22T09:07:56.719Z</time></trkpt><trkpt lat="43.7181633" lon="12.12038"><ele>783.3333333333333</ele><time>2026-04-22T09:07:57.719Z</time></trkpt><trkpt lat="43.7182333" lon="12.1203483"><ele>783.1666666666666</ele><time>2026-04-22T09:07:58.719Z</time></trkpt><trkpt lat="43.7183017" lon="12.1203133"><ele>783.0</ele><time>2026-04-22T09:07:59.719Z</time></trkpt><trkpt lat="43.7183717" lon="12.1202817"><ele>783.0</ele><time>2026-04-22T09:08:00.719Z</time></trkpt><trkpt lat="43.7184467" lon="12.1202683"><ele>783.0</ele><time>2026-04-22T09:08:01.72Z</time></trkpt><trkpt lat="43.7185283" lon="12.1202733"><ele>783.0</ele><time>2026-04-22T09:08:02.719Z</time></trkpt><trkpt lat="43.7186433" lon="12.1203483"><ele>783.0</ele><time>2026-04-22T09:08:04.719Z</time></trkpt><trkpt lat="43.7186917" lon="12.12042"><ele>783.0</ele><time>2026-04-22T09:08:05.719Z</time></trkpt><trkpt lat="43.7187467" lon="12.1205067"><ele>783.0</ele><time>2026-04-22T09:08:06.719Z</time></trkpt><trkpt lat="43.7188083" lon="12.1206033"><ele>785.4</ele><time>2026-04-22T09:08:07.719Z</time></trkpt><trkpt lat="43.7188767" lon="12.1206983"><ele>787.8</ele><time>2026-04-22T09:08:08.719Z</time></trkpt><trkpt lat="43.7189517" lon="12.12077"><ele>790.2</ele><time>2026-04-22T09:08:09.72Z</time></trkpt><trkpt lat="43.7190233" lon="12.1208583"><ele>792.6</ele><time>2026-04-22T09:08:10.719Z</time></trkpt><trkpt lat="43.719095" lon="12.120955"><ele>795.0</ele><time>2026-04-22T09:08:11.719Z</time></trkpt><trkpt lat="43.7191733" lon="12.1210417"><ele>795.0</ele><time>2026-04-22T09:08:12.719Z</time></trkpt><trkpt lat="43.71925" lon="12.1211133"><ele>795.0</ele><time>2026-04-22T09:08:13.719Z</time></trkpt><trkpt lat="43.71932" lon="12.1211683"><ele>795.0</ele><time>2026-04-22T09:08:14.72Z</time></trkpt><trkpt lat="43.719395" lon="12.1211833"><ele>795.0</ele><time>2026-04-22T09:08:15.719Z</time></trkpt><trkpt lat="43.7195183" lon="12.1211183"><ele>795.0</ele><time>2026-04-22T09:08:17.719Z</time></trkpt><trkpt lat="43.7195817" lon="12.1210633"><ele>798.3333333333334</ele><time>2026-04-22T09:08:18.719Z</time></trkpt><trkpt lat="43.7196283" lon="12.120995"><ele>801.6666666666667</ele><time>2026-04-22T09:08:19.719Z</time></trkpt><trkpt lat="43.7196517" lon="12.1209033"><ele>805.0</ele><time>2026-04-22T09:08:20.72Z</time></trkpt><trkpt lat="43.719635" lon="12.1208017"><ele>808.3333333333334</ele><time>2026-04-22T09:08:21.719Z</time></trkpt><trkpt lat="43.71961" lon="12.1206967"><ele>811.6666666666667</ele><time>2026-04-22T09:08:22.719Z</time></trkpt><trkpt lat="43.7195617" lon="12.1206067"><ele>815.0</ele><time>2026-04-22T09:08:23.719Z</time></trkpt><trkpt lat="43.7194967" lon="12.1205217"><ele>815.0000000000001</ele><time>2026-04-22T09:08:24.719Z</time></trkpt><trkpt lat="43.7194267" lon="12.1204383"><ele>815.0</ele><time>2026-04-22T09:08:25.719Z</time></trkpt><trkpt lat="43.7193583" lon="12.1203633"><ele>815.0</ele><time>2026-04-22T09:08:26.719Z</time></trkpt><trkpt lat="43.7192917" lon="12.1202883"><ele>815.0</ele><time>2026-04-22T09:08:27.719Z</time></trkpt><trkpt lat="43.719235" lon="12.120215"><ele>815.0000000000001</ele><time>2026-04-22T09:08:28.719Z</time></trkpt><trkpt lat="43.7191933" lon="12.120145"><ele>815.0</ele><time>2026-04-22T09:08:29.719Z</time></trkpt><trkpt lat="43.71917" lon="12.119985"><ele>813.5000000000001</ele><time>2026-04-22T09:08:31.719Z</time></trkpt><trkpt lat="43.7192033" lon="12.1198383"><ele>812.0</ele><time>2026-04-22T09:08:33.719Z</time></trkpt><trkpt lat="43.7192517" lon="12.1197717"><ele>810.5</ele><time>2026-04-22T09:08:34.72Z</time></trkpt><trkpt lat="43.7193083" lon="12.119715"><ele>809.0</ele><time>2026-04-22T09:08:35.719Z</time></trkpt><trkpt lat="43.719375" lon="12.1196783"><ele>807.5000000000001</ele><time>2026-04-22T09:08:36.719Z</time></trkpt><trkpt lat="43.7194433" lon="12.1196567"><ele>806.0</ele><time>2026-04-22T09:08:37.719Z</time></trkpt><trkpt lat="43.7195083" lon="12.119655"><ele>806.0000000000001</ele><time>2026-04-22T09:08:38.719Z</time></trkpt><trkpt lat="43.7196167" lon="12.1196283"><ele>806.0</ele><time>2026-04-22T09:08:40.719Z</time></trkpt><trkpt lat="43.71969" lon="12.1195783"><ele>806.0</ele><time>2026-04-22T09:08:42.719Z</time></trkpt><trkpt lat="43.7197633" lon="12.11951"><ele>806.0</ele><time>2026-04-22T09:08:44.719Z</time></trkpt><trkpt lat="43.719825" lon="12.119435"><ele>806.0000000000001</ele><time>2026-04-22T09:08:46.719Z</time></trkpt><trkpt lat="43.71987" lon="12.1193333"><ele>806.0</ele><time>2026-04-22T09:08:48.719Z</time></trkpt><trkpt lat="43.71991" lon="12.1192233"><ele>806.0000000000001</ele><time>2026-04-22T09:08:50.719Z</time></trkpt><trkpt lat="43.719945" lon="12.1191467"><ele>806.0</ele><time>2026-04-22T09:08:52.719Z</time></trkpt><trkpt lat="43.719905" lon="12.1192367"><ele>806.0</ele><time>2026-04-22T09:09:29.719Z</time></trkpt><trkpt lat="43.7198683" lon="12.1193417"><ele>806.0</ele><time>2026-04-22T09:09:31.719Z</time></trkpt><trkpt lat="43.7198033" lon="12.1194467"><ele>806.0000000000001</ele><time>2026-04-22T09:09:33.719Z</time></trkpt><trkpt lat="43.7197117" lon="12.119505"><ele>806.0</ele><time>2026-04-22T09:09:35.719Z</time></trkpt><trkpt lat="43.7196483" lon="12.11956"><ele>806.0000000000001</ele><time>2026-04-22T09:09:37.72Z</time></trkpt><trkpt lat="43.71958" lon="12.119635"><ele>806.0</ele><time>2026-04-22T09:09:54.719Z</time></trkpt><trkpt lat="43.7195" lon="12.119645"><ele>806.0</ele><time>2026-04-22T09:09:56.72Z</time></trkpt><trkpt lat="43.7194317" lon="12.1196633"><ele>806.0</ele><time>2026-04-22T09:09:58.719Z</time></trkpt><trkpt lat="43.7193633" lon="12.1197083"><ele>806.0000000000001</ele><time>2026-04-22T09:09:59.719Z</time></trkpt><trkpt lat="43.719295" lon="12.1197883"><ele>806.0</ele><time>2026-04-22T09:10:00.719Z</time></trkpt><trkpt lat="43.7192383" lon="12.1198783"><ele>804.8</ele><time>2026-04-22T09:10:01.719Z</time></trkpt><trkpt lat="43.7192017" lon="12.1199733"><ele>803.5999999999999</ele><time>2026-04-22T09:10:02.719Z</time></trkpt><trkpt lat="43.7191983" lon="12.1201483"><ele>802.4</ele><time>2026-04-22T09:10:04.72Z</time></trkpt><trkpt lat="43.7192217" lon="12.1202367"><ele>801.2</ele><time>2026-04-22T09:10:05.719Z</time></trkpt><trkpt lat="43.7193067" lon="12.120375"><ele>800.0</ele><time>2026-04-22T09:10:07.719Z</time></trkpt><trkpt lat="43.7193733" lon="12.120455"><ele>802.5000000000001</ele><time>2026-04-22T09:10:08.72Z</time></trkpt><trkpt lat="43.71944" lon="12.1205267"><ele>805.0</ele><time>2026-04-22T09:10:09.719Z</time></trkpt><trkpt lat="43.7194983" lon="12.1206033"><ele>807.5</ele><time>2026-04-22T09:10:10.719Z</time></trkpt><trkpt lat="43.7195483" lon="12.1206833"><ele>810.0</ele><time>2026-04-22T09:10:11.72Z</time></trkpt><trkpt lat="43.7195783" lon="12.1207717"><ele>812.5000000000001</ele><time>2026-04-22T09:10:12.719Z</time></trkpt><trkpt lat="43.719585" lon="12.1209233"><ele>815.0</ele><time>2026-04-22T09:10:14.72Z</time></trkpt><trkpt lat="43.7195167" lon="12.1210667"><ele>815.6666666666667</ele><time>2026-04-22T09:10:16.719Z</time></trkpt><trkpt lat="43.7194667" lon="12.1211283"><ele>816.3333333333334</ele><time>2026-04-22T09:10:17.719Z</time></trkpt><trkpt lat="43.7193983" lon="12.1211683"><ele>817.0</ele><time>2026-04-22T09:10:18.719Z</time></trkpt><trkpt lat="43.7193267" lon="12.1211633"><ele>817.6666666666667</ele><time>2026-04-22T09:10:19.719Z</time></trkpt><trkpt lat="43.7192467" lon="12.1211233"><ele>818.3333333333334</ele><time>2026-04-22T09:10:20.719Z</time></trkpt><trkpt lat="43.7191767" lon="12.1210583"><ele>819.0</ele><time>2026-04-22T09:10:21.719Z</time></trkpt><trkpt lat="43.7191183" lon="12.1209767"><ele>815.8333333333334</ele><time>2026-04-22T09:10:22.719Z</time></trkpt><trkpt lat="43.719055" lon="12.1208983"><ele>812.6666666666667</ele><time>2026-04-22T09:10:23.719Z</time></trkpt><trkpt lat="43.7189967" lon="12.1208183"><ele>809.5</ele><time>2026-04-22T09:10:24.72Z</time></trkpt><trkpt lat="43.71893" lon="12.1207367"><ele>806.3333333333334</ele><time>2026-04-22T09:10:25.719Z</time></trkpt><trkpt lat="43.7188567" lon="12.120655"><ele>803.1666666666667</ele><time>2026-04-22T09:10:26.719Z</time></trkpt><trkpt lat="43.7187933" lon="12.12057"><ele>800.0</ele><time>2026-04-22T09:10:27.719Z</time></trkpt><trkpt lat="43.7187333" lon="12.1204833"><ele>800.0000000000001</ele><time>2026-04-22T09:10:28.719Z</time></trkpt><trkpt lat="43.7186833" lon="12.120395"><ele>800.0</ele><time>2026-04-22T09:10:29.719Z</time></trkpt><trkpt lat="43.71863" lon="12.1203317"><ele>800.0</ele><time>2026-04-22T09:10:30.719Z</time></trkpt><trkpt lat="43.71856" lon="12.120285"><ele>800.0</ele><time>2026-04-22T09:10:31.719Z</time></trkpt><trkpt lat="43.7184867" lon="12.1202583"><ele>800.0000000000001</ele><time>2026-04-22T09:10:32.719Z</time></trkpt><trkpt lat="43.7184117" lon="12.120255"><ele>800.0</ele><time>2026-04-22T09:10:33.719Z</time></trkpt><trkpt lat="43.7183383" lon="12.1202717"><ele>797.1666666666667</ele><time>2026-04-22T09:10:34.719Z</time></trkpt><trkpt lat="43.7182633" lon="12.1202967"><ele>794.3333333333334</ele><time>2026-04-22T09:10:35.719Z</time></trkpt><trkpt lat="43.71819" lon="12.120335"><ele>791.5</ele><time>2026-04-22T09:10:36.72Z</time></trkpt><trkpt lat="43.7181133" lon="12.1203817"><ele>788.6666666666667</ele><time>2026-04-22T09:10:37.719Z</time></trkpt><trkpt lat="43.718035" lon="12.1204217"><ele>785.8333333333334</ele><time>2026-04-22T09:10:38.719Z</time></trkpt><trkpt lat="43.7179567" lon="12.12046"><ele>783.0</ele><time>2026-04-22T09:10:39.719Z</time></trkpt><trkpt lat="43.7178783" lon="12.1204967"><ele>783.0</ele><time>2026-04-22T09:10:40.719Z</time></trkpt><trkpt lat="43.7178117" lon="12.120535"><ele>783.0</ele><time>2026-04-22T09:10:41.719Z</time></trkpt><trkpt lat="43.7177483" lon="12.1205733"><ele>783.0</ele><time>2026-04-22T09:10:42.719Z</time></trkpt><trkpt lat="43.7176917" lon="12.1206167"><ele>783.0</ele><time>2026-04-22T09:10:43.72Z</time></trkpt><trkpt lat="43.717645" lon="12.120685"><ele>783.0</ele><time>2026-04-22T09:10:44.72Z</time></trkpt><trkpt lat="43.7176117" lon="12.1207617"><ele>783.0</ele><time>2026-04-22T09:10:45.719Z</time></trkpt><trkpt lat="43.7176017" lon="12.1208483"><ele>783.0</ele><time>2026-04-22T09:10:46.72Z</time></trkpt><trkpt lat="43.717605" lon="12.1209433"><ele>780.5</ele><time>2026-04-22T09:10:47.719Z</time></trkpt><trkpt lat="43.7176017" lon="12.1210417"><ele>778.0</ele><time>2026-04-22T09:10:48.719Z</time></trkpt><trkpt lat="43.717595" lon="12.1211317"><ele>775.5</ele><time>2026-04-22T09:10:49.719Z</time></trkpt><trkpt lat="43.717585" lon="12.121225"><ele>773.0</ele><time>2026-04-22T09:10:50.719Z</time></trkpt><trkpt lat="43.7175717" lon="12.1213183"><ele>770.5</ele><time>2026-04-22T09:10:51.719Z</time></trkpt><trkpt lat="43.7175617" lon="12.1214183"><ele>768.0</ele><time>2026-04-22T09:10:52.719Z</time></trkpt><trkpt lat="43.7175783" lon="12.1216167"><ele>767.5</ele><time>2026-04-22T09:10:54.719Z</time></trkpt><trkpt lat="43.7176067" lon="12.121705"><ele>767.0</ele><time>2026-04-22T09:10:55.72Z</time></trkpt><trkpt lat="43.71764" lon="12.1217833"><ele>766.5</ele><time>2026-04-22T09:10:56.719Z</time></trkpt><trkpt lat="43.7176883" lon="12.1218633"><ele>766.0</ele><time>2026-04-22T09:10:57.719Z</time></trkpt><trkpt lat="43.7177417" lon="12.1219383"><ele>765.5</ele><time>2026-04-22T09:10:58.719Z</time></trkpt><trkpt lat="43.7177967" lon="12.1220283"><ele>765.0</ele><time>2026-04-22T09:10:59.719Z</time></trkpt><trkpt lat="43.717865" lon="12.122135"><ele>766.6</ele><time>2026-04-22T09:11:00.719Z</time></trkpt><trkpt lat="43.717935" lon="12.12226"><ele>768.2</ele><time>2026-04-22T09:11:01.719Z</time></trkpt><trkpt lat="43.7179967" lon="12.1223933"><ele>769.8</ele><time>2026-04-22T09:11:02.719Z</time></trkpt><trkpt lat="43.7180283" lon="12.1225267"><ele>771.4</ele><time>2026-04-22T09:11:03.72Z</time></trkpt><trkpt lat="43.71804" lon="12.1226733"><ele>773.0</ele><time>2026-04-22T09:11:04.719Z</time></trkpt><trkpt lat="43.7180367" lon="12.1228033"><ele>773.0</ele><time>2026-04-22T09:11:05.719Z</time></trkpt><trkpt lat="43.7179917" lon="12.122935"><ele>773.0</ele><time>2026-04-22T09:11:06.719Z</time></trkpt><trkpt lat="43.7179317" lon="12.123055"><ele>773.0</ele><time>2026-04-22T09:11:07.72Z</time></trkpt><trkpt lat="43.71785" lon="12.1231517"><ele>773.0</ele><time>2026-04-22T09:11:08.719Z</time></trkpt><trkpt lat="43.7177617" lon="12.1232333"><ele>773.0</ele><time>2026-04-22T09:11:09.719Z</time></trkpt><trkpt lat="43.7176667" lon="12.1233083"><ele>767.75</ele><time>2026-04-22T09:11:10.719Z</time></trkpt><trkpt lat="43.71756" lon="12.12338"><ele>762.5</ele><time>2026-04-22T09:11:11.719Z</time></trkpt><trkpt lat="43.7174567" lon="12.12346"><ele>757.25</ele><time>2026-04-22T09:11:12.719Z</time></trkpt><trkpt lat="43.71734" lon="12.1235367"><ele>752.0</ele><time>2026-04-22T09:11:13.719Z</time></trkpt><trkpt lat="43.7172267" lon="12.123625"><ele>752.0</ele><time>2026-04-22T09:11:14.719Z</time></trkpt><trkpt lat="43.7171217" lon="12.123715"><ele>752.0</ele><time>2026-04-22T09:11:15.719Z</time></trkpt><trkpt lat="43.71702" lon="12.1238083"><ele>752.0</ele><time>2026-04-22T09:11:16.719Z</time></trkpt><trkpt lat="43.71692" lon="12.1238983"><ele>752.0</ele><time>2026-04-22T09:11:17.719Z</time></trkpt><trkpt lat="43.7168167" lon="12.1239767"><ele>750.5</ele><time>2026-04-22T09:11:18.719Z</time></trkpt><trkpt lat="43.716715" lon="12.1240483"><ele>749.0</ele><time>2026-04-22T09:11:19.719Z</time></trkpt><trkpt lat="43.716625" lon="12.12414"><ele>747.5</ele><time>2026-04-22T09:11:20.719Z</time></trkpt><trkpt lat="43.71655" lon="12.1242583"><ele>746.0</ele><time>2026-04-22T09:11:21.719Z</time></trkpt><trkpt lat="43.7164883" lon="12.124405"><ele>746.0</ele><time>2026-04-22T09:11:22.719Z</time></trkpt><trkpt lat="43.7164483" lon="12.1245617"><ele>746.0</ele><time>2026-04-22T09:11:23.719Z</time></trkpt><trkpt lat="43.7164267" lon="12.124725"><ele>746.0</ele><time>2026-04-22T09:11:24.719Z</time></trkpt><trkpt lat="43.716415" lon="12.124905"><ele>746.0</ele><time>2026-04-22T09:11:25.719Z</time></trkpt><trkpt lat="43.7164117" lon="12.1250867"><ele>747.25</ele><time>2026-04-22T09:11:26.719Z</time></trkpt><trkpt lat="43.7163967" lon="12.125265"><ele>748.5</ele><time>2026-04-22T09:11:27.719Z</time></trkpt><trkpt lat="43.716385" lon="12.1254483"><ele>749.75</ele><time>2026-04-22T09:11:28.719Z</time></trkpt><trkpt lat="43.7163767" lon="12.125635"><ele>751.0</ele><time>2026-04-22T09:11:29.719Z</time></trkpt><trkpt lat="43.7163667" lon="12.1258233"><ele>751.0</ele><time>2026-04-22T09:11:30.72Z</time></trkpt><trkpt lat="43.7163683" lon="12.1260117"><ele>751.0</ele><time>2026-04-22T09:11:31.719Z</time></trkpt><trkpt lat="43.71638" lon="12.1261917"><ele>751.0</ele><time>2026-04-22T09:11:32.72Z</time></trkpt><trkpt lat="43.716405" lon="12.12638"><ele>751.0</ele><time>2026-04-22T09:11:33.719Z</time></trkpt><trkpt lat="43.7164333" lon="12.1265633"><ele>749.5</ele><time>2026-04-22T09:11:34.72Z</time></trkpt><trkpt lat="43.716465" lon="12.1267383"><ele>748.0</ele><time>2026-04-22T09:11:35.719Z</time></trkpt><trkpt lat="43.71649" lon="12.126915"><ele>746.5</ele><time>2026-04-22T09:11:36.719Z</time></trkpt><trkpt lat="43.71651" lon="12.1270917"><ele>745.0</ele><time>2026-04-22T09:11:37.719Z</time></trkpt><trkpt lat="43.716535" lon="12.1272633"><ele>743.4</ele><time>2026-04-22T09:11:38.719Z</time></trkpt><trkpt lat="43.7165683" lon="12.1274167"><ele>741.8</ele><time>2026-04-22T09:11:39.719Z</time></trkpt><trkpt lat="43.71659" lon="12.12756"><ele>740.2</ele><time>2026-04-22T09:11:40.719Z</time></trkpt><trkpt lat="43.7165933" lon="12.127695"><ele>738.6</ele><time>2026-04-22T09:11:41.719Z</time></trkpt><trkpt lat="43.7165683" lon="12.1278183"><ele>737.0</ele><time>2026-04-22T09:11:42.719Z</time></trkpt><trkpt lat="43.71651" lon="12.1279233"><ele>737.0</ele><time>2026-04-22T09:11:43.719Z</time></trkpt><trkpt lat="43.716435" lon="12.1279917"><ele>737.0</ele><time>2026-04-22T09:11:44.719Z</time></trkpt><trkpt lat="43.7163483" lon="12.1280217"><ele>737.0</ele><time>2026-04-22T09:11:45.719Z</time></trkpt><trkpt lat="43.7162567" lon="12.12801"><ele>737.0</ele><time>2026-04-22T09:11:46.72Z</time></trkpt><trkpt lat="43.7161667" lon="12.1279517"><ele>737.0</ele><time>2026-04-22T09:11:47.719Z</time></trkpt><trkpt lat="43.71607" lon="12.127855"><ele>734.0</ele><time>2026-04-22T09:11:48.72Z</time></trkpt><trkpt lat="43.7159733" lon="12.127735"><ele>731.0</ele><time>2026-04-22T09:11:49.719Z</time></trkpt><trkpt lat="43.71587" lon="12.1276233"><ele>728.0</ele><time>2026-04-22T09:11:50.719Z</time></trkpt><trkpt lat="43.7157717" lon="12.127515"><ele>725.0</ele><time>2026-04-22T09:11:51.719Z</time></trkpt><trkpt lat="43.71567" lon="12.1274083"><ele>726.0</ele><time>2026-04-22T09:11:52.719Z</time></trkpt><trkpt lat="43.7155733" lon="12.1272967"><ele>727.0</ele><time>2026-04-22T09:11:53.719Z</time></trkpt><trkpt lat="43.7154867" lon="12.1271733"><ele>728.0</ele><time>2026-04-22T09:11:54.72Z</time></trkpt><trkpt lat="43.71542" lon="12.1270333"><ele>729.0</ele><time>2026-04-22T09:11:55.719Z</time></trkpt><trkpt lat="43.7153683" lon="12.1268883"><ele>729.0</ele><time>2026-04-22T09:11:56.719Z</time></trkpt><trkpt lat="43.7153267" lon="12.126725"><ele>729.0</ele><time>2026-04-22T09:11:57.719Z</time></trkpt><trkpt lat="43.7152967" lon="12.12655"><ele>729.0</ele><time>2026-04-22T09:11:58.719Z</time></trkpt><trkpt lat="43.7152783" lon="12.1263683"><ele>729.0</ele><time>2026-04-22T09:11:59.719Z</time></trkpt><trkpt lat="43.7152517" lon="12.1261933"><ele>726.5</ele><time>2026-04-22T09:12:00.72Z</time></trkpt><trkpt lat="43.7152083" lon="12.126015"><ele>724.0</ele><time>2026-04-22T09:12:01.719Z</time></trkpt><trkpt lat="43.7151583" lon="12.1258467"><ele>721.5</ele><time>2026-04-22T09:12:02.719Z</time></trkpt><trkpt lat="43.7150967" lon="12.1256783"><ele>719.0</ele><time>2026-04-22T09:12:03.719Z</time></trkpt><trkpt lat="43.7150333" lon="12.1255133"><ele>718.5</ele><time>2026-04-22T09:12:04.719Z</time></trkpt><trkpt lat="43.714965" lon="12.1253483"><ele>718.0</ele><time>2026-04-22T09:12:05.719Z</time></trkpt><trkpt lat="43.7148983" lon="12.12519"><ele>717.5</ele><time>2026-04-22T09:12:06.719Z</time></trkpt><trkpt lat="43.714825" lon="12.1250283"><ele>717.0</ele><time>2026-04-22T09:12:07.72Z</time></trkpt><trkpt lat="43.7147533" lon="12.12487"><ele>717.0</ele><time>2026-04-22T09:12:08.719Z</time></trkpt><trkpt lat="43.71468" lon="12.1247167"><ele>717.0</ele><time>2026-04-22T09:12:09.719Z</time></trkpt><trkpt lat="43.71461" lon="12.124565"><ele>717.0</ele><time>2026-04-22T09:12:10.719Z</time></trkpt><trkpt lat="43.71455" lon="12.1244167"><ele>717.0</ele><time>2026-04-22T09:12:11.719Z</time></trkpt><trkpt lat="43.7145017" lon="12.12428"><ele>717.0</ele><time>2026-04-22T09:12:12.719Z</time></trkpt><trkpt lat="43.7144583" lon="12.1241417"><ele>717.0</ele><time>2026-04-22T09:12:13.719Z</time></trkpt><trkpt lat="43.7144367" lon="12.1239933"><ele>717.0</ele><time>2026-04-22T09:12:14.719Z</time></trkpt><trkpt lat="43.7144283" lon="12.12384"><ele>717.0</ele><time>2026-04-22T09:12:15.719Z</time></trkpt><trkpt lat="43.714445" lon="12.1236717"><ele>716.5</ele><time>2026-04-22T09:12:16.719Z</time></trkpt><trkpt lat="43.7144783" lon="12.1235117"><ele>716.0</ele><time>2026-04-22T09:12:17.719Z</time></trkpt><trkpt lat="43.7145233" lon="12.1233583"><ele>715.5</ele><time>2026-04-22T09:12:18.719Z</time></trkpt><trkpt lat="43.71456" lon="12.123205"><ele>715.0</ele><time>2026-04-22T09:12:19.719Z</time></trkpt><trkpt lat="43.7145867" lon="12.1230567"><ele>715.0</ele><time>2026-04-22T09:12:20.719Z</time></trkpt><trkpt lat="43.7145833" lon="12.1229133"><ele>715.0</ele><time>2026-04-22T09:12:21.719Z</time></trkpt><trkpt lat="43.714555" lon="12.1227717"><ele>715.0</ele><time>2026-04-22T09:12:22.719Z</time></trkpt><trkpt lat="43.7145017" lon="12.1226533"><ele>715.0</ele><time>2026-04-22T09:12:23.72Z</time></trkpt><trkpt lat="43.714425" lon="12.1225583"><ele>715.0</ele><time>2026-04-22T09:12:24.719Z</time></trkpt><trkpt lat="43.714335" lon="12.1224817"><ele>711.4</ele><time>2026-04-22T09:12:25.72Z</time></trkpt><trkpt lat="43.71424" lon="12.1224367"><ele>707.8</ele><time>2026-04-22T09:12:26.719Z</time></trkpt><trkpt lat="43.71415" lon="12.1224133"><ele>704.2</ele><time>2026-04-22T09:12:27.72Z</time></trkpt><trkpt lat="43.7140567" lon="12.1223983"><ele>700.6</ele><time>2026-04-22T09:12:28.719Z</time></trkpt><trkpt lat="43.7139633" lon="12.122385"><ele>697.0</ele><time>2026-04-22T09:12:29.719Z</time></trkpt><trkpt lat="43.7138683" lon="12.1223817"><ele>696.8333333333334</ele><time>2026-04-22T09:12:30.719Z</time></trkpt><trkpt lat="43.71378" lon="12.122375"><ele>696.6666666666667</ele><time>2026-04-22T09:12:31.719Z</time></trkpt><trkpt lat="43.7136983" lon="12.1223633"><ele>696.5</ele><time>2026-04-22T09:12:32.719Z</time></trkpt><trkpt lat="43.7136117" lon="12.12236"><ele>696.3333333333334</ele><time>2026-04-22T09:12:33.719Z</time></trkpt><trkpt lat="43.7135167" lon="12.12235"><ele>696.1666666666666</ele><time>2026-04-22T09:12:34.719Z</time></trkpt><trkpt lat="43.7134283" lon="12.12234"><ele>696.0</ele><time>2026-04-22T09:12:35.719Z</time></trkpt><trkpt lat="43.7133483" lon="12.122315"><ele>696.6666666666666</ele><time>2026-04-22T09:12:36.719Z</time></trkpt><trkpt lat="43.7132867" lon="12.1222767"><ele>697.3333333333334</ele><time>2026-04-22T09:12:37.719Z</time></trkpt><trkpt lat="43.7132367" lon="12.12221"><ele>698.0</ele><time>2026-04-22T09:12:38.719Z</time></trkpt><trkpt lat="43.7131917" lon="12.1221217"><ele>698.6666666666667</ele><time>2026-04-22T09:12:39.719Z</time></trkpt><trkpt lat="43.71315" lon="12.1220033"><ele>699.3333333333334</ele><time>2026-04-22T09:12:40.719Z</time></trkpt><trkpt lat="43.7131" lon="12.121875"><ele>700.0</ele><time>2026-04-22T09:12:41.719Z</time></trkpt><trkpt lat="43.7130417" lon="12.1217267"><ele>701.6666666666667</ele><time>2026-04-22T09:12:42.719Z</time></trkpt><trkpt lat="43.712975" lon="12.1215417"><ele>703.3333333333334</ele><time>2026-04-22T09:12:43.719Z</time></trkpt><trkpt lat="43.7129" lon="12.1213617"><ele>705.0</ele><time>2026-04-22T09:12:44.719Z</time></trkpt><trkpt lat="43.7128183" lon="12.1211833"><ele>704.0</ele><time>2026-04-22T09:12:45.719Z</time></trkpt><trkpt lat="43.712735" lon="12.12099"><ele>703.0</ele><time>2026-04-22T09:12:46.719Z</time></trkpt><trkpt lat="43.7126483" lon="12.1208017"><ele>702.0</ele><time>2026-04-22T09:12:47.719Z</time></trkpt><trkpt lat="43.7125633" lon="12.12062"><ele>704.5</ele><time>2026-04-22T09:12:48.719Z</time></trkpt><trkpt lat="43.7124867" lon="12.12046"><ele>707.0</ele><time>2026-04-22T09:12:49.72Z</time></trkpt><trkpt lat="43.712415" lon="12.12031"><ele>709.5</ele><time>2026-04-22T09:12:50.719Z</time></trkpt><trkpt lat="43.7123517" lon="12.1201767"><ele>712.0</ele><time>2026-04-22T09:12:51.719Z</time></trkpt><trkpt lat="43.7122917" lon="12.1200467"><ele>712.0</ele><time>2026-04-22T09:12:52.719Z</time></trkpt><trkpt lat="43.7122183" lon="12.1199367"><ele>712.0</ele><time>2026-04-22T09:12:53.719Z</time></trkpt><trkpt lat="43.7121333" lon="12.1198333"><ele>712.0</ele><time>2026-04-22T09:12:54.719Z</time></trkpt><trkpt lat="43.7120217" lon="12.1197517"><ele>712.0</ele><time>2026-04-22T09:12:55.719Z</time></trkpt><trkpt lat="43.7119" lon="12.1196783"><ele>712.0</ele><time>2026-04-22T09:12:56.72Z</time></trkpt><trkpt lat="43.7117833" lon="12.1195917"><ele>712.0</ele><time>2026-04-22T09:12:57.719Z</time></trkpt><trkpt lat="43.7116517" lon="12.1195183"><ele>712.0</ele><time>2026-04-22T09:12:58.719Z</time></trkpt><trkpt lat="43.7115283" lon="12.1194333"><ele>712.0</ele><time>2026-04-22T09:12:59.719Z</time></trkpt><trkpt lat="43.7114" lon="12.119355"><ele>712.0</ele><time>2026-04-22T09:13:00.72Z</time></trkpt><trkpt lat="43.7112717" lon="12.1192783"><ele>712.0</ele><time>2026-04-22T09:13:01.719Z</time></trkpt><trkpt lat="43.7111483" lon="12.11919"><ele>712.0</ele><time>2026-04-22T09:13:02.719Z</time></trkpt><trkpt lat="43.7110233" lon="12.1191117"><ele>712.0</ele><time>2026-04-22T09:13:03.719Z</time></trkpt><trkpt lat="43.71091" lon="12.119035"><ele>714.0</ele><time>2026-04-22T09:13:04.72Z</time></trkpt><trkpt lat="43.7108133" lon="12.1189583"><ele>716.0</ele><time>2026-04-22T09:13:05.719Z</time></trkpt><trkpt lat="43.71073" lon="12.1188717"><ele>718.0</ele><time>2026-04-22T09:13:06.719Z</time></trkpt><trkpt lat="43.7106633" lon="12.1187617"><ele>720.0</ele><time>2026-04-22T09:13:07.719Z</time></trkpt><trkpt lat="43.7106017" lon="12.1186417"><ele>722.0</ele><time>2026-04-22T09:13:08.719Z</time></trkpt><trkpt lat="43.7105333" lon="12.1185183"><ele>722.0</ele><time>2026-04-22T09:13:09.719Z</time></trkpt><trkpt lat="43.7104633" lon="12.1183817"><ele>722.0</ele><time>2026-04-22T09:13:10.719Z</time></trkpt><trkpt lat="43.7104" lon="12.1182533"><ele>722.0</ele><time>2026-04-22T09:13:11.719Z</time></trkpt><trkpt lat="43.7103467" lon="12.1181517"><ele>722.0</ele><time>2026-04-22T09:13:12.719Z</time></trkpt><trkpt lat="43.710315" lon="12.11805"><ele>722.0</ele><time>2026-04-22T09:13:13.719Z</time></trkpt><trkpt lat="43.7103" lon="12.11794"><ele>724.1666666666666</ele><time>2026-04-22T09:13:14.719Z</time></trkpt><trkpt lat="43.710325" lon="12.11783"><ele>726.3333333333333</ele><time>2026-04-22T09:13:15.719Z</time></trkpt><trkpt lat="43.710365" lon="12.1177383"><ele>728.5</ele><time>2026-04-22T09:13:16.719Z</time></trkpt><trkpt lat="43.7104383" lon="12.117665"><ele>730.6666666666666</ele><time>2026-04-22T09:13:17.719Z</time></trkpt><trkpt lat="43.710525" lon="12.1176167"><ele>732.8333333333334</ele><time>2026-04-22T09:13:18.719Z</time></trkpt><trkpt lat="43.7106183" lon="12.1175783"><ele>735.0</ele><time>2026-04-22T09:13:19.719Z</time></trkpt><trkpt lat="43.710715" lon="12.1175483"><ele>735.0</ele><time>2026-04-22T09:13:20.719Z</time></trkpt><trkpt lat="43.7108217" lon="12.117515"><ele>735.0</ele><time>2026-04-22T09:13:21.719Z</time></trkpt><trkpt lat="43.71092" lon="12.1174867"><ele>735.0</ele><time>2026-04-22T09:13:22.719Z</time></trkpt><trkpt lat="43.7110183" lon="12.1174617"><ele>735.0</ele><time>2026-04-22T09:13:23.719Z</time></trkpt><trkpt lat="43.7111333" lon="12.1174233"><ele>735.0</ele><time>2026-04-22T09:13:24.72Z</time></trkpt><trkpt lat="43.711245" lon="12.1173833"><ele>736.75</ele><time>2026-04-22T09:13:25.719Z</time></trkpt><trkpt lat="43.7113617" lon="12.1173483"><ele>738.5</ele><time>2026-04-22T09:13:26.719Z</time></trkpt><trkpt lat="43.7114767" lon="12.1173083"><ele>740.25</ele><time>2026-04-22T09:13:27.719Z</time></trkpt><trkpt lat="43.7115933" lon="12.1172717"><ele>742.0</ele><time>2026-04-22T09:13:28.719Z</time></trkpt><trkpt lat="43.71172" lon="12.1172367"><ele>742.0</ele><time>2026-04-22T09:13:29.719Z</time></trkpt><trkpt lat="43.71185" lon="12.1172017"><ele>742.0</ele><time>2026-04-22T09:13:30.719Z</time></trkpt><trkpt lat="43.71198" lon="12.1171567"><ele>742.0</ele><time>2026-04-22T09:13:31.719Z</time></trkpt><trkpt lat="43.7121083" lon="12.117115"><ele>742.0</ele><time>2026-04-22T09:13:32.719Z</time></trkpt><trkpt lat="43.7122217" lon="12.1170817"><ele>742.5</ele><time>2026-04-22T09:13:33.719Z</time></trkpt><trkpt lat="43.7123233" lon="12.1170417"><ele>743.0</ele><time>2026-04-22T09:13:34.719Z</time></trkpt><trkpt lat="43.7124133" lon="12.1170067"><ele>743.5</ele><time>2026-04-22T09:13:35.719Z</time></trkpt><trkpt lat="43.7124917" lon="12.11697"><ele>744.0</ele><time>2026-04-22T09:13:36.72Z</time></trkpt><trkpt lat="43.712555" lon="12.11692"><ele>744.5</ele><time>2026-04-22T09:13:37.719Z</time></trkpt><trkpt lat="43.7126067" lon="12.1168633"><ele>745.0</ele><time>2026-04-22T09:13:38.719Z</time></trkpt><trkpt lat="43.7126417" lon="12.1167867"><ele>745.0</ele><time>2026-04-22T09:13:39.719Z</time></trkpt><trkpt lat="43.712665" lon="12.116705"><ele>745.0</ele><time>2026-04-22T09:13:40.719Z</time></trkpt><trkpt lat="43.71267" lon="12.1166167"><ele>745.0</ele><time>2026-04-22T09:13:41.719Z</time></trkpt><trkpt lat="43.7126583" lon="12.11652"><ele>745.0</ele><time>2026-04-22T09:13:42.719Z</time></trkpt><trkpt lat="43.71263" lon="12.116415"><ele>745.0</ele><time>2026-04-22T09:13:43.72Z</time></trkpt><trkpt lat="43.71259" lon="12.1163083"><ele>745.0</ele><time>2026-04-22T09:13:44.719Z</time></trkpt><trkpt lat="43.7125417" lon="12.1162"><ele>746.5</ele><time>2026-04-22T09:13:45.719Z</time></trkpt><trkpt lat="43.712505" lon="12.1161"><ele>748.0</ele><time>2026-04-22T09:13:46.719Z</time></trkpt><trkpt lat="43.7124683" lon="12.1160017"><ele>749.5</ele><time>2026-04-22T09:13:47.72Z</time></trkpt><trkpt lat="43.7124217" lon="12.11592"><ele>751.0</ele><time>2026-04-22T09:13:48.72Z</time></trkpt><trkpt lat="43.7123667" lon="12.1158433"><ele>752.5</ele><time>2026-04-22T09:13:49.719Z</time></trkpt><trkpt lat="43.7123017" lon="12.11578"><ele>754.0</ele><time>2026-04-22T09:13:50.719Z</time></trkpt><trkpt lat="43.71222" lon="12.1157467"><ele>754.0</ele><time>2026-04-22T09:13:51.719Z</time></trkpt><trkpt lat="43.71213" lon="12.11573"><ele>754.0</ele><time>2026-04-22T09:13:52.719Z</time></trkpt><trkpt lat="43.7120283" lon="12.1157383"><ele>754.0</ele><time>2026-04-22T09:13:53.719Z</time></trkpt><trkpt lat="43.71192" lon="12.11575"><ele>754.0</ele><time>2026-04-22T09:13:54.719Z</time></trkpt><trkpt lat="43.7117967" lon="12.115765"><ele>754.0</ele><time>2026-04-22T09:13:55.719Z</time></trkpt><trkpt lat="43.7116683" lon="12.115775"><ele>753.2</ele><time>2026-04-22T09:13:56.719Z</time></trkpt><trkpt lat="43.7115433" lon="12.1157883"><ele>752.4000000000001</ele><time>2026-04-22T09:13:57.719Z</time></trkpt><trkpt lat="43.7114283" lon="12.1158"><ele>751.6</ele><time>2026-04-22T09:13:58.719Z</time></trkpt><trkpt lat="43.7113183" lon="12.1158133"><ele>750.8</ele><time>2026-04-22T09:13:59.719Z</time></trkpt><trkpt lat="43.7112217" lon="12.115815"><ele>750.0</ele><time>2026-04-22T09:14:00.719Z</time></trkpt><trkpt lat="43.7111383" lon="12.115795"><ele>750.8333333333334</ele><time>2026-04-22T09:14:01.719Z</time></trkpt><trkpt lat="43.7110717" lon="12.1157483"><ele>751.6666666666666</ele><time>2026-04-22T09:14:02.719Z</time></trkpt><trkpt lat="43.7110167" lon="12.1156667"><ele>752.5</ele><time>2026-04-22T09:14:03.719Z</time></trkpt><trkpt lat="43.710985" lon="12.11558"><ele>753.3333333333333</ele><time>2026-04-22T09:14:04.719Z</time></trkpt><trkpt lat="43.71098" lon="12.1154817"><ele>754.1666666666666</ele><time>2026-04-22T09:14:05.719Z</time></trkpt><trkpt lat="43.710995" lon="12.115375"><ele>755.0</ele><time>2026-04-22T09:14:06.719Z</time></trkpt><trkpt lat="43.711045" lon="12.1152833"><ele>756.0</ele><time>2026-04-22T09:14:07.719Z</time></trkpt><trkpt lat="43.711115" lon="12.1152167"><ele>757.0</ele><time>2026-04-22T09:14:08.72Z</time></trkpt><trkpt lat="43.7112" lon="12.1151783"><ele>758.0</ele><time>2026-04-22T09:14:09.719Z</time></trkpt><trkpt lat="43.7112983" lon="12.1151717"><ele>759.0</ele><time>2026-04-22T09:14:10.72Z</time></trkpt><trkpt lat="43.7114117" lon="12.1151717"><ele>760.0</ele><time>2026-04-22T09:14:11.719Z</time></trkpt><trkpt lat="43.7115133" lon="12.1151583"><ele>760.0</ele><time>2026-04-22T09:14:12.719Z</time></trkpt><trkpt lat="43.711605" lon="12.1151317"><ele>760.0</ele><time>2026-04-22T09:14:13.719Z</time></trkpt><trkpt lat="43.7116967" lon="12.1150933"><ele>760.0</ele><time>2026-04-22T09:14:14.719Z</time></trkpt><trkpt lat="43.711785" lon="12.1150217"><ele>760.0</ele><time>2026-04-22T09:14:15.719Z</time></trkpt><trkpt lat="43.7118767" lon="12.1149367"><ele>760.0</ele><time>2026-04-22T09:14:16.72Z</time></trkpt><trkpt lat="43.711965" lon="12.114845"><ele>762.4</ele><time>2026-04-22T09:14:17.719Z</time></trkpt><trkpt lat="43.7120483" lon="12.1147383"><ele>764.8</ele><time>2026-04-22T09:14:18.719Z</time></trkpt><trkpt lat="43.71213" lon="12.114635"><ele>767.2</ele><time>2026-04-22T09:14:19.719Z</time></trkpt><trkpt lat="43.712215" lon="12.11453"><ele>769.6</ele><time>2026-04-22T09:14:20.719Z</time></trkpt><trkpt lat="43.7122917" lon="12.11443"><ele>772.0</ele><time>2026-04-22T09:14:21.719Z</time></trkpt><trkpt lat="43.712375" lon="12.1143533"><ele>772.0</ele><time>2026-04-22T09:14:22.719Z</time></trkpt><trkpt lat="43.712455" lon="12.1142983"><ele>772.0</ele><time>2026-04-22T09:14:23.719Z</time></trkpt><trkpt lat="43.7125433" lon="12.1142667"><ele>772.0</ele><time>2026-04-22T09:14:24.719Z</time></trkpt><trkpt lat="43.7126383" lon="12.114265"><ele>772.0</ele><time>2026-04-22T09:14:25.719Z</time></trkpt><trkpt lat="43.7127367" lon="12.1142933"><ele>772.0</ele><time>2026-04-22T09:14:26.719Z</time></trkpt><trkpt lat="43.7128383" lon="12.114345"><ele>773.0</ele><time>2026-04-22T09:14:27.719Z</time></trkpt><trkpt lat="43.71294" lon="12.1144"><ele>774.0</ele><time>2026-04-22T09:14:28.719Z</time></trkpt><trkpt lat="43.7130517" lon="12.1144533"><ele>775.0</ele><time>2026-04-22T09:14:29.719Z</time></trkpt><trkpt lat="43.7131617" lon="12.1145"><ele>776.0</ele><time>2026-04-22T09:14:30.72Z</time></trkpt><trkpt lat="43.7132733" lon="12.1145433"><ele>776.0</ele><time>2026-04-22T09:14:31.719Z</time></trkpt><trkpt lat="43.713375" lon="12.1145817"><ele>776.0</ele><time>2026-04-22T09:14:32.719Z</time></trkpt><trkpt lat="43.7134683" lon="12.11461"><ele>776.0</ele><time>2026-04-22T09:14:33.719Z</time></trkpt><trkpt lat="43.71356" lon="12.1146083"><ele>776.0</ele><time>2026-04-22T09:14:34.719Z</time></trkpt><trkpt lat="43.7136467" lon="12.1145733"><ele>776.0</ele><time>2026-04-22T09:14:35.719Z</time></trkpt><trkpt lat="43.71373" lon="12.1145"><ele>775.0</ele><time>2026-04-22T09:14:36.719Z</time></trkpt><trkpt lat="43.7138067" lon="12.114405"><ele>774.0</ele><time>2026-04-22T09:14:37.719Z</time></trkpt><trkpt lat="43.7138717" lon="12.114295"><ele>773.0</ele><time>2026-04-22T09:14:38.719Z</time></trkpt><trkpt lat="43.7139283" lon="12.114165"><ele>772.0</ele><time>2026-04-22T09:14:39.719Z</time></trkpt><trkpt lat="43.7139817" lon="12.11404"><ele>771.0</ele><time>2026-04-22T09:14:40.719Z</time></trkpt><trkpt lat="43.7140433" lon="12.1139183"><ele>773.1999999999999</ele><time>2026-04-22T09:14:41.719Z</time></trkpt><trkpt lat="43.7140967" lon="12.1138"><ele>775.4</ele><time>2026-04-22T09:14:42.719Z</time></trkpt><trkpt lat="43.7141583" lon="12.11368"><ele>777.6</ele><time>2026-04-22T09:14:43.719Z</time></trkpt><trkpt lat="43.7142117" lon="12.1135767"><ele>779.8</ele><time>2026-04-22T09:14:44.719Z</time></trkpt><trkpt lat="43.7142717" lon="12.1134733"><ele>782.0</ele><time>2026-04-22T09:14:45.719Z</time></trkpt><trkpt lat="43.7143283" lon="12.113365"><ele>782.0</ele><time>2026-04-22T09:14:46.719Z</time></trkpt><trkpt lat="43.71437" lon="12.1132667"><ele>782.0</ele><time>2026-04-22T09:14:47.719Z</time></trkpt><trkpt lat="43.7143883" lon="12.11317"><ele>782.0</ele><time>2026-04-22T09:14:48.719Z</time></trkpt><trkpt lat="43.7143517" lon="12.1130233"><ele>782.0</ele><time>2026-04-22T09:14:50.719Z</time></trkpt><trkpt lat="43.714225" lon="12.1129933"><ele>782.0</ele><time>2026-04-22T09:14:52.719Z</time></trkpt><trkpt lat="43.714145" lon="12.11303"><ele>782.0</ele><time>2026-04-22T09:14:53.719Z</time></trkpt><trkpt lat="43.7140633" lon="12.1130867"><ele>782.0</ele><time>2026-04-22T09:14:54.719Z</time></trkpt><trkpt lat="43.71398" lon="12.11315"><ele>782.0</ele><time>2026-04-22T09:14:55.719Z</time></trkpt><trkpt lat="43.7139067" lon="12.11322"><ele>782.0</ele><time>2026-04-22T09:14:56.719Z</time></trkpt><trkpt lat="43.7138333" lon="12.1132967"><ele>782.0</ele><time>2026-04-22T09:14:57.719Z</time></trkpt><trkpt lat="43.7137567" lon="12.1133667"><ele>782.0000000000001</ele><time>2026-04-22T09:14:58.719Z</time></trkpt><trkpt lat="43.713675" lon="12.113415"><ele>782.0</ele><time>2026-04-22T09:14:59.719Z</time></trkpt><trkpt lat="43.7135933" lon="12.1134317"><ele>782.0</ele><time>2026-04-22T09:15:00.719Z</time></trkpt><trkpt lat="43.7135083" lon="12.1134183"><ele>782.0</ele><time>2026-04-22T09:15:01.72Z</time></trkpt><trkpt lat="43.7134233" lon="12.1133883"><ele>782.0000000000001</ele><time>2026-04-22T09:15:02.719Z</time></trkpt><trkpt lat="43.7133333" lon="12.1133417"><ele>782.0</ele><time>2026-04-22T09:15:03.719Z</time></trkpt><trkpt lat="43.7132433" lon="12.1132883"><ele>786.6</ele><time>2026-04-22T09:15:04.719Z</time></trkpt><trkpt lat="43.713155" lon="12.113225"><ele>791.2</ele><time>2026-04-22T09:15:05.72Z</time></trkpt><trkpt lat="43.7130733" lon="12.1131633"><ele>795.8</ele><time>2026-04-22T09:15:06.719Z</time></trkpt><trkpt lat="43.7129933" lon="12.11309"><ele>800.4</ele><time>2026-04-22T09:15:07.719Z</time></trkpt><trkpt lat="43.7129133" lon="12.1130117"><ele>805.0</ele><time>2026-04-22T09:15:08.719Z</time></trkpt><trkpt lat="43.7128317" lon="12.1129333"><ele>805.0</ele><time>2026-04-22T09:15:09.719Z</time></trkpt><trkpt lat="43.7127517" lon="12.1128517"><ele>805.0</ele><time>2026-04-22T09:15:10.719Z</time></trkpt><trkpt lat="43.7126617" lon="12.112775"><ele>805.0</ele><time>2026-04-22T09:15:11.719Z</time></trkpt><trkpt lat="43.7125683" lon="12.112725"><ele>805.0</ele><time>2026-04-22T09:15:12.719Z</time></trkpt><trkpt lat="43.712475" lon="12.1126883"><ele>805.0</ele><time>2026-04-22T09:15:13.719Z</time></trkpt><trkpt lat="43.7123767" lon="12.1126767"><ele>803.4</ele><time>2026-04-22T09:15:14.719Z</time></trkpt><trkpt lat="43.7122833" lon="12.11268"><ele>801.8</ele><time>2026-04-22T09:15:15.72Z</time></trkpt><trkpt lat="43.7121933" lon="12.1127"><ele>800.2</ele><time>2026-04-22T09:15:16.719Z</time></trkpt><trkpt lat="43.7121033" lon="12.11271"><ele>798.6</ele><time>2026-04-22T09:15:17.719Z</time></trkpt><trkpt lat="43.7120117" lon="12.1127217"><ele>797.0</ele><time>2026-04-22T09:15:18.719Z</time></trkpt><trkpt lat="43.711915" lon="12.1127333"><ele>797.2</ele><time>2026-04-22T09:15:19.719Z</time></trkpt><trkpt lat="43.711815" lon="12.112745"><ele>797.4000000000001</ele><time>2026-04-22T09:15:20.72Z</time></trkpt><trkpt lat="43.7117117" lon="12.112755"><ele>797.5999999999999</ele><time>2026-04-22T09:15:21.719Z</time></trkpt><trkpt lat="43.7116083" lon="12.1127567"><ele>797.8</ele><time>2026-04-22T09:15:22.719Z</time></trkpt><trkpt lat="43.71151" lon="12.1127433"><ele>798.0</ele><time>2026-04-22T09:15:23.719Z</time></trkpt><trkpt lat="43.7114167" lon="12.1127017"><ele>798.0</ele><time>2026-04-22T09:15:24.719Z</time></trkpt><trkpt lat="43.711325" lon="12.112625"><ele>798.0</ele><time>2026-04-22T09:15:25.719Z</time></trkpt><trkpt lat="43.711235" lon="12.11253"><ele>798.0</ele><time>2026-04-22T09:15:26.719Z</time></trkpt><trkpt lat="43.7111567" lon="12.1124317"><ele>798.0</ele><time>2026-04-22T09:15:27.719Z</time></trkpt><trkpt lat="43.7110783" lon="12.11232"><ele>798.0</ele><time>2026-04-22T09:15:28.719Z</time></trkpt><trkpt lat="43.7109983" lon="12.1122033"><ele>799.0</ele><time>2026-04-22T09:15:29.719Z</time></trkpt><trkpt lat="43.7109217" lon="12.1120967"><ele>800.0</ele><time>2026-04-22T09:15:30.719Z</time></trkpt><trkpt lat="43.7108417" lon="12.1119933"><ele>801.0</ele><time>2026-04-22T09:15:31.719Z</time></trkpt><trkpt lat="43.7107667" lon="12.11189"><ele>802.0</ele><time>2026-04-22T09:15:32.719Z</time></trkpt><trkpt lat="43.7106967" lon="12.1117917"><ele>803.0</ele><time>2026-04-22T09:15:33.719Z</time></trkpt><trkpt lat="43.7106267" lon="12.11171"><ele>803.0000000000001</ele><time>2026-04-22T09:15:34.719Z</time></trkpt><trkpt lat="43.7105633" lon="12.1116333"><ele>803.0</ele><time>2026-04-22T09:15:35.719Z</time></trkpt><trkpt lat="43.71051" lon="12.1115417"><ele>803.0</ele><time>2026-04-22T09:15:36.719Z</time></trkpt><trkpt lat="43.7104717" lon="12.11144"><ele>803.0</ele><time>2026-04-22T09:15:37.719Z</time></trkpt><trkpt lat="43.71045" lon="12.1113383"><ele>803.0000000000001</ele><time>2026-04-22T09:15:38.719Z</time></trkpt><trkpt lat="43.7104583" lon="12.1112317"><ele>803.0</ele><time>2026-04-22T09:15:39.719Z</time></trkpt><trkpt lat="43.7104867" lon="12.1111267"><ele>805.2</ele><time>2026-04-22T09:15:40.719Z</time></trkpt><trkpt lat="43.7105467" lon="12.1110283"><ele>807.4</ele><time>2026-04-22T09:15:41.719Z</time></trkpt><trkpt lat="43.7106233" lon="12.11095"><ele>809.6</ele><time>2026-04-22T09:15:42.719Z</time></trkpt><trkpt lat="43.71072" lon="12.110905"><ele>811.8000000000001</ele><time>2026-04-22T09:15:43.72Z</time></trkpt><trkpt lat="43.7108233" lon="12.110875"><ele>814.0</ele><time>2026-04-22T09:15:44.719Z</time></trkpt><trkpt lat="43.7109317" lon="12.1108783"><ele>814.0</ele><time>2026-04-22T09:15:45.719Z</time></trkpt><trkpt lat="43.71104" lon="12.110875"><ele>814.0</ele><time>2026-04-22T09:15:46.719Z</time></trkpt><trkpt lat="43.7111567" lon="12.1108633"><ele>814.0</ele><time>2026-04-22T09:15:47.719Z</time></trkpt><trkpt lat="43.7112767" lon="12.1108467"><ele>814.0</ele><time>2026-04-22T09:15:48.72Z</time></trkpt><trkpt lat="43.7113917" lon="12.1108333"><ele>814.0</ele><time>2026-04-22T09:15:49.719Z</time></trkpt><trkpt lat="43.7115133" lon="12.11081"><ele>814.0</ele><time>2026-04-22T09:15:50.719Z</time></trkpt><trkpt lat="43.7116317" lon="12.1107867"><ele>814.0</ele><time>2026-04-22T09:15:51.719Z</time></trkpt><trkpt lat="43.71175" lon="12.110765"><ele>814.0</ele><time>2026-04-22T09:15:52.719Z</time></trkpt><trkpt lat="43.7118617" lon="12.11075"><ele>815.0</ele><time>2026-04-22T09:15:53.719Z</time></trkpt><trkpt lat="43.7119733" lon="12.110745"><ele>816.0</ele><time>2026-04-22T09:15:54.719Z</time></trkpt><trkpt lat="43.7120833" lon="12.1107367"><ele>817.0</ele><time>2026-04-22T09:15:55.719Z</time></trkpt><trkpt lat="43.7121883" lon="12.1107067"><ele>818.0</ele><time>2026-04-22T09:15:56.719Z</time></trkpt><trkpt lat="43.712295" lon="12.110675"><ele>819.0</ele><time>2026-04-22T09:15:57.719Z</time></trkpt><trkpt lat="43.71239" lon="12.11063"><ele>819.6</ele><time>2026-04-22T09:15:58.719Z</time></trkpt><trkpt lat="43.712485" lon="12.110565"><ele>820.2</ele><time>2026-04-22T09:15:59.719Z</time></trkpt><trkpt lat="43.7125583" lon="12.11047"><ele>820.8000000000001</ele><time>2026-04-22T09:16:00.719Z</time></trkpt><trkpt lat="43.7126117" lon="12.1103667"><ele>821.4000000000001</ele><time>2026-04-22T09:16:01.72Z</time></trkpt><trkpt lat="43.7126467" lon="12.1102617"><ele>822.0</ele><time>2026-04-22T09:16:02.719Z</time></trkpt><trkpt lat="43.71265" lon="12.1101483"><ele>822.0</ele><time>2026-04-22T09:16:03.719Z</time></trkpt><trkpt lat="43.71264" lon="12.1100267"><ele>822.0</ele><time>2026-04-22T09:16:04.719Z</time></trkpt><trkpt lat="43.7126067" lon="12.10991"><ele>822.0</ele><time>2026-04-22T09:16:05.719Z</time></trkpt><trkpt lat="43.7125617" lon="12.1097983"><ele>822.0</ele><time>2026-04-22T09:16:06.719Z</time></trkpt><trkpt lat="43.71251" lon="12.10969"><ele>822.0</ele><time>2026-04-22T09:16:07.72Z</time></trkpt><trkpt lat="43.7124517" lon="12.1095883"><ele>823.6</ele><time>2026-04-22T09:16:08.72Z</time></trkpt><trkpt lat="43.7123817" lon="12.109505"><ele>825.2</ele><time>2026-04-22T09:16:09.719Z</time></trkpt><trkpt lat="43.7123083" lon="12.109445"><ele>826.8</ele><time>2026-04-22T09:16:10.719Z</time></trkpt><trkpt lat="43.7122217" lon="12.1094167"><ele>828.4</ele><time>2026-04-22T09:16:11.72Z</time></trkpt><trkpt lat="43.712125" lon="12.1094083"><ele>830.0</ele><time>2026-04-22T09:16:12.719Z</time></trkpt><trkpt lat="43.712025" lon="12.1094383"><ele>830.0</ele><time>2026-04-22T09:16:13.719Z</time></trkpt><trkpt lat="43.7119233" lon="12.1094683"><ele>830.0</ele><time>2026-04-22T09:16:14.719Z</time></trkpt><trkpt lat="43.7118167" lon="12.109495"><ele>830.0</ele><time>2026-04-22T09:16:15.719Z</time></trkpt><trkpt lat="43.7117067" lon="12.10952"><ele>830.0</ele><time>2026-04-22T09:16:16.719Z</time></trkpt><trkpt lat="43.7115967" lon="12.10955"><ele>830.0</ele><time>2026-04-22T09:16:17.719Z</time></trkpt><trkpt lat="43.71149" lon="12.10958"><ele>831.8</ele><time>2026-04-22T09:16:18.719Z</time></trkpt><trkpt lat="43.71139" lon="12.109605"><ele>833.6</ele><time>2026-04-22T09:16:19.719Z</time></trkpt><trkpt lat="43.71129" lon="12.1096183"><ele>835.4000000000001</ele><time>2026-04-22T09:16:20.72Z</time></trkpt><trkpt lat="43.7111883" lon="12.1096267"><ele>837.2</ele><time>2026-04-22T09:16:21.719Z</time></trkpt><trkpt lat="43.7110867" lon="12.1096117"><ele>839.0</ele><time>2026-04-22T09:16:22.719Z</time></trkpt><trkpt lat="43.710985" lon="12.1095767"><ele>839.0</ele><time>2026-04-22T09:16:23.719Z</time></trkpt><trkpt lat="43.7108783" lon="12.10953"><ele>839.0</ele><time>2026-04-22T09:16:24.72Z</time></trkpt><trkpt lat="43.710775" lon="12.10948"><ele>839.0</ele><time>2026-04-22T09:16:25.719Z</time></trkpt><trkpt lat="43.710665" lon="12.10945"><ele>839.0</ele><time>2026-04-22T09:16:26.719Z</time></trkpt><trkpt lat="43.7105533" lon="12.109445"><ele>839.0</ele><time>2026-04-22T09:16:27.719Z</time></trkpt><trkpt lat="43.710445" lon="12.10946"><ele>839.0</ele><time>2026-04-22T09:16:28.719Z</time></trkpt><trkpt lat="43.71033" lon="12.1094983"><ele>839.0</ele><time>2026-04-22T09:16:29.719Z</time></trkpt><trkpt lat="43.71022" lon="12.109535"><ele>839.0</ele><time>2026-04-22T09:16:30.719Z</time></trkpt><trkpt lat="43.7101183" lon="12.109565"><ele>839.0</ele><time>2026-04-22T09:16:31.719Z</time></trkpt><trkpt lat="43.7100167" lon="12.1095683"><ele>839.0</ele><time>2026-04-22T09:16:32.719Z</time></trkpt><trkpt lat="43.7099217" lon="12.1095383"><ele>840.2</ele><time>2026-04-22T09:16:33.719Z</time></trkpt><trkpt lat="43.7098283" lon="12.10948"><ele>841.4000000000001</ele><time>2026-04-22T09:16:34.719Z</time></trkpt><trkpt lat="43.7097383" lon="12.1094133"><ele>842.6</ele><time>2026-04-22T09:16:35.719Z</time></trkpt><trkpt lat="43.7096483" lon="12.109345"><ele>843.8</ele><time>2026-04-22T09:16:36.719Z</time></trkpt><trkpt lat="43.709555" lon="12.1092783"><ele>845.0</ele><time>2026-04-22T09:16:37.719Z</time></trkpt><trkpt lat="43.709455" lon="12.1092017"><ele>845.5</ele><time>2026-04-22T09:16:38.719Z</time></trkpt><trkpt lat="43.7093533" lon="12.1091267"><ele>846.0</ele><time>2026-04-22T09:16:39.719Z</time></trkpt><trkpt lat="43.70925" lon="12.1090567"><ele>846.5</ele><time>2026-04-22T09:16:40.719Z</time></trkpt><trkpt lat="43.7091367" lon="12.1090067"><ele>847.0</ele><time>2026-04-22T09:16:41.719Z</time></trkpt><trkpt lat="43.7090167" lon="12.1089683"><ele>848.2</ele><time>2026-04-22T09:16:42.719Z</time></trkpt><trkpt lat="43.7089033" lon="12.1089233"><ele>849.4000000000001</ele><time>2026-04-22T09:16:43.719Z</time></trkpt><trkpt lat="43.7088" lon="12.10887"><ele>850.5999999999999</ele><time>2026-04-22T09:16:44.719Z</time></trkpt><trkpt lat="43.7087083" lon="12.108805"><ele>851.8</ele><time>2026-04-22T09:16:45.719Z</time></trkpt><trkpt lat="43.7086183" lon="12.10872"><ele>853.0</ele><time>2026-04-22T09:16:46.719Z</time></trkpt><trkpt lat="43.7085383" lon="12.1086283"><ele>853.0</ele><time>2026-04-22T09:16:47.719Z</time></trkpt><trkpt lat="43.708455" lon="12.108535"><ele>853.0</ele><time>2026-04-22T09:16:48.719Z</time></trkpt><trkpt lat="43.7083717" lon="12.1084517"><ele>853.0</ele><time>2026-04-22T09:16:49.719Z</time></trkpt><trkpt lat="43.708285" lon="12.1083633"><ele>853.0</ele><time>2026-04-22T09:16:50.719Z</time></trkpt><trkpt lat="43.708205" lon="12.1082617"><ele>853.0</ele><time>2026-04-22T09:16:51.719Z</time></trkpt><trkpt lat="43.70813" lon="12.1081567"><ele>855.0</ele><time>2026-04-22T09:16:52.719Z</time></trkpt><trkpt lat="43.7080517" lon="12.108045"><ele>857.0</ele><time>2026-04-22T09:16:53.719Z</time></trkpt><trkpt lat="43.707995" lon="12.1079267"><ele>859.0</ele><time>2026-04-22T09:16:54.719Z</time></trkpt><trkpt lat="43.7079567" lon="12.1078033"><ele>861.0</ele><time>2026-04-22T09:16:55.719Z</time></trkpt><trkpt lat="43.7079333" lon="12.1076733"><ele>863.0</ele><time>2026-04-22T09:16:56.719Z</time></trkpt><trkpt lat="43.7078967" lon="12.1075617"><ele>863.0000000000001</ele><time>2026-04-22T09:16:57.719Z</time></trkpt><trkpt lat="43.7078483" lon="12.1074817"><ele>863.0</ele><time>2026-04-22T09:16:58.719Z</time></trkpt><trkpt lat="43.7077867" lon="12.1074267"><ele>863.0</ele><time>2026-04-22T09:16:59.719Z</time></trkpt><trkpt lat="43.70771" lon="12.1074067"><ele>863.0</ele><time>2026-04-22T09:17:00.719Z</time></trkpt><trkpt lat="43.70762" lon="12.107415"><ele>863.0000000000001</ele><time>2026-04-22T09:17:01.719Z</time></trkpt><trkpt lat="43.7075033" lon="12.1074367"><ele>863.0</ele><time>2026-04-22T09:17:02.719Z</time></trkpt><trkpt lat="43.70738" lon="12.1074583"><ele>861.5</ele><time>2026-04-22T09:17:03.719Z</time></trkpt><trkpt lat="43.707245" lon="12.1074783"><ele>860.0</ele><time>2026-04-22T09:17:04.719Z</time></trkpt><trkpt lat="43.707105" lon="12.107495"><ele>858.5</ele><time>2026-04-22T09:17:05.719Z</time></trkpt><trkpt lat="43.7069633" lon="12.1075083"><ele>857.0</ele><time>2026-04-22T09:17:06.719Z</time></trkpt><trkpt lat="43.7068233" lon="12.1075283"><ele>857.0</ele><time>2026-04-22T09:17:07.719Z</time></trkpt><trkpt lat="43.706685" lon="12.1075433"><ele>857.0</ele><time>2026-04-22T09:17:08.719Z</time></trkpt><trkpt lat="43.706555" lon="12.107555"><ele>857.0</ele><time>2026-04-22T09:17:09.719Z</time></trkpt><trkpt lat="43.7064033" lon="12.1075733"><ele>857.0</ele><time>2026-04-22T09:17:10.719Z</time></trkpt><trkpt lat="43.7062567" lon="12.107575"><ele>857.0</ele><time>2026-04-22T09:17:11.719Z</time></trkpt><trkpt lat="43.706125" lon="12.1075733"><ele>857.0</ele><time>2026-04-22T09:17:12.719Z</time></trkpt><trkpt lat="43.706" lon="12.1075667"><ele>857.0</ele><time>2026-04-22T09:17:13.719Z</time></trkpt><trkpt lat="43.705875" lon="12.1075567"><ele>857.0</ele><time>2026-04-22T09:17:14.719Z</time></trkpt><trkpt lat="43.7057483" lon="12.1075367"><ele>857.75</ele><time>2026-04-22T09:17:15.719Z</time></trkpt><trkpt lat="43.7056183" lon="12.1075133"><ele>858.5</ele><time>2026-04-22T09:17:16.719Z</time></trkpt><trkpt lat="43.7054817" lon="12.1074933"><ele>859.25</ele><time>2026-04-22T09:17:17.719Z</time></trkpt><trkpt lat="43.70534" lon="12.10747"><ele>860.0</ele><time>2026-04-22T09:17:18.719Z</time></trkpt><trkpt lat="43.7052017" lon="12.10744"><ele>860.3333333333334</ele><time>2026-04-22T09:17:19.719Z</time></trkpt><trkpt lat="43.7050567" lon="12.1074217"><ele>860.6666666666667</ele><time>2026-04-22T09:17:20.719Z</time></trkpt><trkpt lat="43.7049017" lon="12.1073967"><ele>861.0</ele><time>2026-04-22T09:17:21.719Z</time></trkpt><trkpt lat="43.704735" lon="12.1073733"><ele>864.0</ele><time>2026-04-22T09:17:22.719Z</time></trkpt><trkpt lat="43.7045767" lon="12.107345"><ele>867.0</ele><time>2026-04-22T09:17:23.719Z</time></trkpt><trkpt lat="43.70443" lon="12.10732"><ele>870.0</ele><time>2026-04-22T09:17:24.719Z</time></trkpt><trkpt lat="43.7042967" lon="12.1073067"><ele>873.0</ele><time>2026-04-22T09:17:25.72Z</time></trkpt><trkpt lat="43.70417" lon="12.107285"><ele>873.0</ele><time>2026-04-22T09:17:26.719Z</time></trkpt><trkpt lat="43.7040567" lon="12.1072667"><ele>873.0</ele><time>2026-04-22T09:17:27.719Z</time></trkpt><trkpt lat="43.7039633" lon="12.10725"><ele>873.0</ele><time>2026-04-22T09:17:28.719Z</time></trkpt><trkpt lat="43.703875" lon="12.1072367"><ele>873.0</ele><time>2026-04-22T09:17:29.72Z</time></trkpt><trkpt lat="43.7038" lon="12.1072183"><ele>873.0</ele><time>2026-04-22T09:17:30.72Z</time></trkpt><trkpt lat="43.7037367" lon="12.10718"><ele>873.0</ele><time>2026-04-22T09:17:31.719Z</time></trkpt><trkpt lat="43.7036933" lon="12.1071133"><ele>872.9999999999999</ele><time>2026-04-22T09:17:32.719Z</time></trkpt><trkpt lat="43.7036667" lon="12.10703"><ele>873.0</ele><time>2026-04-22T09:17:33.719Z</time></trkpt><trkpt lat="43.70366" lon="12.1069383"><ele>873.0</ele><time>2026-04-22T09:17:34.719Z</time></trkpt><trkpt lat="43.70368" lon="12.1068367"><ele>873.0</ele><time>2026-04-22T09:17:35.719Z</time></trkpt><trkpt lat="43.703725" lon="12.1067533"><ele>873.0</ele><time>2026-04-22T09:17:36.719Z</time></trkpt><trkpt lat="43.70379" lon="12.1066967"><ele>872.9999999999999</ele><time>2026-04-22T09:17:37.719Z</time></trkpt><trkpt lat="43.7038717" lon="12.1066667"><ele>873.0</ele><time>2026-04-22T09:17:38.719Z</time></trkpt><trkpt lat="43.7039717" lon="12.10665"><ele>873.0</ele><time>2026-04-22T09:17:39.72Z</time></trkpt><trkpt lat="43.7040833" lon="12.106625"><ele>873.0</ele><time>2026-04-22T09:17:40.719Z</time></trkpt><trkpt lat="43.7041967" lon="12.10659"><ele>873.0</ele><time>2026-04-22T09:17:41.719Z</time></trkpt><trkpt lat="43.7043217" lon="12.10656"><ele>873.0</ele><time>2026-04-22T09:17:42.719Z</time></trkpt><trkpt lat="43.7044367" lon="12.106525"><ele>875.2</ele><time>2026-04-22T09:17:43.719Z</time></trkpt><trkpt lat="43.704555" lon="12.106485"><ele>877.4</ele><time>2026-04-22T09:17:44.719Z</time></trkpt><trkpt lat="43.7046683" lon="12.10645"><ele>879.6000000000001</ele><time>2026-04-22T09:17:45.72Z</time></trkpt><trkpt lat="43.704765" lon="12.1064267"><ele>881.8000000000001</ele><time>2026-04-22T09:17:46.719Z</time></trkpt><trkpt lat="43.7048667" lon="12.1064083"><ele>884.0</ele><time>2026-04-22T09:17:47.719Z</time></trkpt><trkpt lat="43.7049567" lon="12.10638"><ele>884.0000000000001</ele><time>2026-04-22T09:17:48.719Z</time></trkpt><trkpt lat="43.7050467" lon="12.10634"><ele>884.0</ele><time>2026-04-22T09:17:49.72Z</time></trkpt><trkpt lat="43.7051267" lon="12.1062817"><ele>884.0</ele><time>2026-04-22T09:17:50.719Z</time></trkpt><trkpt lat="43.705195" lon="12.1062067"><ele>884.0</ele><time>2026-04-22T09:17:51.719Z</time></trkpt><trkpt lat="43.7052517" lon="12.10612"><ele>884.0000000000001</ele><time>2026-04-22T09:17:52.719Z</time></trkpt><trkpt lat="43.70529" lon="12.1060133"><ele>884.0</ele><time>2026-04-22T09:17:53.719Z</time></trkpt><trkpt lat="43.705325" lon="12.1058967"><ele>883.75</ele><time>2026-04-22T09:17:54.719Z</time></trkpt><trkpt lat="43.7053667" lon="12.1057617"><ele>883.5</ele><time>2026-04-22T09:17:55.719Z</time></trkpt><trkpt lat="43.705405" lon="12.1056183"><ele>883.25</ele><time>2026-04-22T09:17:56.719Z</time></trkpt><trkpt lat="43.7054483" lon="12.1054667"><ele>883.0</ele><time>2026-04-22T09:17:57.719Z</time></trkpt><trkpt lat="43.705495" lon="12.1053083"><ele>883.0</ele><time>2026-04-22T09:17:58.719Z</time></trkpt><trkpt lat="43.70553" lon="12.1051383"><ele>883.0</ele><time>2026-04-22T09:17:59.719Z</time></trkpt><trkpt lat="43.70557" lon="12.1049717"><ele>883.0</ele><time>2026-04-22T09:18:00.719Z</time></trkpt><trkpt lat="43.7056183" lon="12.10482"><ele>883.0</ele><time>2026-04-22T09:18:01.719Z</time></trkpt><trkpt lat="43.7056617" lon="12.10467"><ele>884.5999999999999</ele><time>2026-04-22T09:18:02.719Z</time></trkpt><trkpt lat="43.705705" lon="12.10452"><ele>886.1999999999999</ele><time>2026-04-22T09:18:03.719Z</time></trkpt><trkpt lat="43.7057417" lon="12.1043833"><ele>887.8</ele><time>2026-04-22T09:18:04.719Z</time></trkpt><trkpt lat="43.7057833" lon="12.1042483"><ele>889.4</ele><time>2026-04-22T09:18:05.72Z</time></trkpt><trkpt lat="43.7058333" lon="12.1041183"><ele>891.0</ele><time>2026-04-22T09:18:06.719Z</time></trkpt><trkpt lat="43.705895" lon="12.1039917"><ele>891.75</ele><time>2026-04-22T09:18:07.719Z</time></trkpt><trkpt lat="43.7059717" lon="12.1038683"><ele>892.5</ele><time>2026-04-22T09:18:08.719Z</time></trkpt><trkpt lat="43.7060583" lon="12.103765"><ele>893.25</ele><time>2026-04-22T09:18:09.72Z</time></trkpt><trkpt lat="43.7061567" lon="12.1036933"><ele>894.0</ele><time>2026-04-22T09:18:10.719Z</time></trkpt><trkpt lat="43.7062567" lon="12.10361"><ele>894.0</ele><time>2026-04-22T09:18:11.719Z</time></trkpt><trkpt lat="43.706355" lon="12.1035283"><ele>894.0000000000001</ele><time>2026-04-22T09:18:12.719Z</time></trkpt><trkpt lat="43.70645" lon="12.10345"><ele>894.0000000000001</ele><time>2026-04-22T09:18:13.719Z</time></trkpt><trkpt lat="43.7065317" lon="12.10337"><ele>894.0</ele><time>2026-04-22T09:18:14.719Z</time></trkpt><trkpt lat="43.706595" lon="12.103295"><ele>894.0</ele><time>2026-04-22T09:18:15.719Z</time></trkpt><trkpt lat="43.7066383" lon="12.1032033"><ele>895.3333333333334</ele><time>2026-04-22T09:18:16.719Z</time></trkpt><trkpt lat="43.7066533" lon="12.1031033"><ele>896.6666666666667</ele><time>2026-04-22T09:18:17.719Z</time></trkpt><trkpt lat="43.7066583" lon="12.1030117"><ele>898.0</ele><time>2026-04-22T09:18:18.719Z</time></trkpt><trkpt lat="43.70664" lon="12.10292"><ele>899.3333333333334</ele><time>2026-04-22T09:18:19.719Z</time></trkpt><trkpt lat="43.7066017" lon="12.10283"><ele>900.6666666666667</ele><time>2026-04-22T09:18:20.719Z</time></trkpt><trkpt lat="43.7065417" lon="12.10276"><ele>902.0</ele><time>2026-04-22T09:18:21.719Z</time></trkpt><trkpt lat="43.7064617" lon="12.1027083"><ele>902.0</ele><time>2026-04-22T09:18:22.719Z</time></trkpt><trkpt lat="43.7063683" lon="12.1026767"><ele>902.0</ele><time>2026-04-22T09:18:23.719Z</time></trkpt><trkpt lat="43.706265" lon="12.1026633"><ele>902.0</ele><time>2026-04-22T09:18:24.719Z</time></trkpt><trkpt lat="43.7061617" lon="12.10265"><ele>902.0</ele><time>2026-04-22T09:18:25.719Z</time></trkpt><trkpt lat="43.7060517" lon="12.1026367"><ele>902.0</ele><time>2026-04-22T09:18:26.719Z</time></trkpt><trkpt lat="43.7059383" lon="12.1026167"><ele>903.0</ele><time>2026-04-22T09:18:27.719Z</time></trkpt><trkpt lat="43.70582" lon="12.1025967"><ele>904.0</ele><time>2026-04-22T09:18:28.719Z</time></trkpt><trkpt lat="43.7056933" lon="12.1025783"><ele>905.0</ele><time>2026-04-22T09:18:29.719Z</time></trkpt><trkpt lat="43.70556" lon="12.1025583"><ele>906.0</ele><time>2026-04-22T09:18:30.719Z</time></trkpt><trkpt lat="43.7054217" lon="12.1025283"><ele>906.0</ele><time>2026-04-22T09:18:31.719Z</time></trkpt><trkpt lat="43.7052983" lon="12.1025067"><ele>906.0</ele><time>2026-04-22T09:18:32.719Z</time></trkpt><trkpt lat="43.7051733" lon="12.1024983"><ele>906.0</ele><time>2026-04-22T09:18:33.72Z</time></trkpt><trkpt lat="43.7050367" lon="12.102485"><ele>906.0</ele><time>2026-04-22T09:18:34.719Z</time></trkpt><trkpt lat="43.7049033" lon="12.10246"><ele>905.5</ele><time>2026-04-22T09:18:35.72Z</time></trkpt><trkpt lat="43.7047617" lon="12.1024183"><ele>905.0</ele><time>2026-04-22T09:18:36.719Z</time></trkpt><trkpt lat="43.7046167" lon="12.10238"><ele>904.5</ele><time>2026-04-22T09:18:37.719Z</time></trkpt><trkpt lat="43.7044633" lon="12.1023533"><ele>904.0</ele><time>2026-04-22T09:18:38.719Z</time></trkpt><trkpt lat="43.70431" lon="12.1023267"><ele>908.0</ele><time>2026-04-22T09:18:39.719Z</time></trkpt><trkpt lat="43.70416" lon="12.1022917"><ele>912.0</ele><time>2026-04-22T09:18:40.719Z</time></trkpt><trkpt lat="43.7040083" lon="12.102265"><ele>916.0</ele><time>2026-04-22T09:18:41.719Z</time></trkpt><trkpt lat="43.703855" lon="12.102235"><ele>916.0</ele><time>2026-04-22T09:18:42.719Z</time></trkpt><trkpt lat="43.7037033" lon="12.102205"><ele>916.0</ele><time>2026-04-22T09:18:43.719Z</time></trkpt><trkpt lat="43.70355" lon="12.102175"><ele>916.0</ele><time>2026-04-22T09:18:44.719Z</time></trkpt><trkpt lat="43.7033983" lon="12.1021533"><ele>915.75</ele><time>2026-04-22T09:18:45.719Z</time></trkpt><trkpt lat="43.7032517" lon="12.1021283"><ele>915.5</ele><time>2026-04-22T09:18:46.719Z</time></trkpt><trkpt lat="43.7031083" lon="12.1020917"><ele>915.25</ele><time>2026-04-22T09:18:47.719Z</time></trkpt><trkpt lat="43.7029667" lon="12.1020717"><ele>915.0</ele><time>2026-04-22T09:18:48.72Z</time></trkpt><trkpt lat="43.7028383" lon="12.102045"><ele>915.0</ele><time>2026-04-22T09:18:49.719Z</time></trkpt><trkpt lat="43.702715" lon="12.1020133"><ele>915.0</ele><time>2026-04-22T09:18:50.719Z</time></trkpt><trkpt lat="43.7026017" lon="12.1019683"><ele>915.0</ele><time>2026-04-22T09:18:51.719Z</time></trkpt><trkpt lat="43.7024933" lon="12.1019133"><ele>915.0</ele><time>2026-04-22T09:18:52.719Z</time></trkpt><trkpt lat="43.7023967" lon="12.101835"><ele>915.0</ele><time>2026-04-22T09:18:53.719Z</time></trkpt><trkpt lat="43.7023233" lon="12.101735"><ele>915.0</ele><time>2026-04-22T09:18:54.72Z</time></trkpt><trkpt lat="43.702275" lon="12.101615"><ele>915.0</ele><time>2026-04-22T09:18:55.719Z</time></trkpt><trkpt lat="43.7022317" lon="12.1014817"><ele>915.0</ele><time>2026-04-22T09:18:56.719Z</time></trkpt><trkpt lat="43.7021917" lon="12.1013333"><ele>915.0</ele><time>2026-04-22T09:18:57.719Z</time></trkpt><trkpt lat="43.702145" lon="12.1011733"><ele>916.0</ele><time>2026-04-22T09:18:58.719Z</time></trkpt><trkpt lat="43.702095" lon="12.1010083"><ele>917.0</ele><time>2026-04-22T09:18:59.719Z</time></trkpt><trkpt lat="43.702045" lon="12.1008467"><ele>918.0</ele><time>2026-04-22T09:19:00.719Z</time></trkpt><trkpt lat="43.7019917" lon="12.1006817"><ele>919.0</ele><time>2026-04-22T09:19:01.719Z</time></trkpt><trkpt lat="43.7019383" lon="12.1005267"><ele>921.0</ele><time>2026-04-22T09:19:02.719Z</time></trkpt><trkpt lat="43.7018833" lon="12.1003683"><ele>923.0</ele><time>2026-04-22T09:19:03.719Z</time></trkpt><trkpt lat="43.7018317" lon="12.100195"><ele>925.0</ele><time>2026-04-22T09:19:04.719Z</time></trkpt><trkpt lat="43.7017783" lon="12.1000533"><ele>927.0</ele><time>2026-04-22T09:19:05.719Z</time></trkpt><trkpt lat="43.7017267" lon="12.099925"><ele>928.1666666666666</ele><time>2026-04-22T09:19:06.72Z</time></trkpt><trkpt lat="43.7016867" lon="12.0998"><ele>929.3333333333333</ele><time>2026-04-22T09:19:07.719Z</time></trkpt><trkpt lat="43.7016533" lon="12.0996917"><ele>930.5</ele><time>2026-04-22T09:19:08.719Z</time></trkpt><trkpt lat="43.7016183" lon="12.0995883"><ele>931.6666666666666</ele><time>2026-04-22T09:19:09.719Z</time></trkpt><trkpt lat="43.701585" lon="12.0994867"><ele>932.8333333333333</ele><time>2026-04-22T09:19:10.719Z</time></trkpt><trkpt lat="43.7015467" lon="12.0993883"><ele>934.0</ele><time>2026-04-22T09:19:11.719Z</time></trkpt><trkpt lat="43.701505" lon="12.0992783"><ele>934.0</ele><time>2026-04-22T09:19:12.719Z</time></trkpt><trkpt lat="43.7014667" lon="12.0991633"><ele>934.0000000000001</ele><time>2026-04-22T09:19:13.719Z</time></trkpt><trkpt lat="43.7014267" lon="12.0990417"><ele>934.0000000000001</ele><time>2026-04-22T09:19:14.719Z</time></trkpt><trkpt lat="43.7013883" lon="12.0989217"><ele>934.0</ele><time>2026-04-22T09:19:15.719Z</time></trkpt><trkpt lat="43.701345" lon="12.0988033"><ele>934.0</ele><time>2026-04-22T09:19:16.719Z</time></trkpt><trkpt lat="43.701295" lon="12.0986917"><ele>934.2</ele><time>2026-04-22T09:19:17.719Z</time></trkpt><trkpt lat="43.701235" lon="12.098595"><ele>934.4000000000001</ele><time>2026-04-22T09:19:18.72Z</time></trkpt><trkpt lat="43.7011767" lon="12.09853"><ele>934.6</ele><time>2026-04-22T09:19:19.719Z</time></trkpt><trkpt lat="43.70109" lon="12.0984817"><ele>934.8</ele><time>2026-04-22T09:19:20.719Z</time></trkpt><trkpt lat="43.7009867" lon="12.098455"><ele>935.0</ele><time>2026-04-22T09:19:21.719Z</time></trkpt><trkpt lat="43.7008733" lon="12.0984267"><ele>935.0</ele><time>2026-04-22T09:19:22.719Z</time></trkpt><trkpt lat="43.70076" lon="12.098425"><ele>935.0</ele><time>2026-04-22T09:19:23.719Z</time></trkpt><trkpt lat="43.7006517" lon="12.09842"><ele>935.0</ele><time>2026-04-22T09:19:24.719Z</time></trkpt><trkpt lat="43.700545" lon="12.0984183"><ele>935.0</ele><time>2026-04-22T09:19:25.719Z</time></trkpt><trkpt lat="43.700435" lon="12.0984133"><ele>935.0</ele><time>2026-04-22T09:19:26.719Z</time></trkpt><trkpt lat="43.700325" lon="12.09841"><ele>933.75</ele><time>2026-04-22T09:19:27.72Z</time></trkpt><trkpt lat="43.70021" lon="12.0984133"><ele>932.5</ele><time>2026-04-22T09:19:28.719Z</time></trkpt><trkpt lat="43.7000867" lon="12.0984167"><ele>931.25</ele><time>2026-04-22T09:19:29.719Z</time></trkpt><trkpt lat="43.69997" lon="12.09842"><ele>930.0</ele><time>2026-04-22T09:19:30.719Z</time></trkpt><trkpt lat="43.6998533" lon="12.0984217"><ele>930.0</ele><time>2026-04-22T09:19:31.719Z</time></trkpt><trkpt lat="43.699735" lon="12.098415"><ele>930.0</ele><time>2026-04-22T09:19:32.719Z</time></trkpt><trkpt lat="43.699625" lon="12.098405"><ele>930.0</ele><time>2026-04-22T09:19:33.719Z</time></trkpt><trkpt lat="43.6995083" lon="12.0983917"><ele>930.0</ele><time>2026-04-22T09:19:34.719Z</time></trkpt><trkpt lat="43.6994017" lon="12.0983683"><ele>930.6</ele><time>2026-04-22T09:19:35.719Z</time></trkpt><trkpt lat="43.6992967" lon="12.0983283"><ele>931.2</ele><time>2026-04-22T09:19:36.719Z</time></trkpt><trkpt lat="43.6991967" lon="12.0982767"><ele>931.8</ele><time>2026-04-22T09:19:37.719Z</time></trkpt><trkpt lat="43.6990983" lon="12.0982233"><ele>932.4</ele><time>2026-04-22T09:19:38.719Z</time></trkpt><trkpt lat="43.6990017" lon="12.0981617"><ele>933.0</ele><time>2026-04-22T09:19:39.719Z</time></trkpt><trkpt lat="43.6989133" lon="12.0980983"><ele>932.3333333333334</ele><time>2026-04-22T09:19:40.719Z</time></trkpt><trkpt lat="43.6988283" lon="12.0980433"><ele>931.6666666666667</ele><time>2026-04-22T09:19:41.72Z</time></trkpt><trkpt lat="43.6987583" lon="12.0979867"><ele>931.0</ele><time>2026-04-22T09:19:42.719Z</time></trkpt><trkpt lat="43.6986867" lon="12.09793"><ele>930.3333333333334</ele><time>2026-04-22T09:19:43.719Z</time></trkpt><trkpt lat="43.6986283" lon="12.0978717"><ele>929.6666666666667</ele><time>2026-04-22T09:19:44.719Z</time></trkpt><trkpt lat="43.6985733" lon="12.0978167"><ele>929.0</ele><time>2026-04-22T09:19:45.719Z</time></trkpt><trkpt lat="43.698525" lon="12.0977583"><ele>929.0</ele><time>2026-04-22T09:19:46.719Z</time></trkpt><trkpt lat="43.69844" lon="12.0976317"><ele>929.0000000000001</ele><time>2026-04-22T09:19:48.719Z</time></trkpt><trkpt lat="43.6983533" lon="12.0975"><ele>929.0000000000001</ele><time>2026-04-22T09:19:50.719Z</time></trkpt><trkpt lat="43.698305" lon="12.097425"><ele>929.0</ele><time>2026-04-22T09:19:51.719Z</time></trkpt><trkpt lat="43.6982433" lon="12.0973383"><ele>929.0</ele><time>2026-04-22T09:19:52.719Z</time></trkpt><trkpt lat="43.69818" lon="12.0972333"><ele>929.5</ele><time>2026-04-22T09:19:53.719Z</time></trkpt><trkpt lat="43.698105" lon="12.0971233"><ele>930.0</ele><time>2026-04-22T09:19:54.719Z</time></trkpt><trkpt lat="43.6980217" lon="12.0969967"><ele>930.5</ele><time>2026-04-22T09:19:55.719Z</time></trkpt><trkpt lat="43.6979367" lon="12.09687"><ele>931.0</ele><time>2026-04-22T09:19:56.719Z</time></trkpt><trkpt lat="43.6978517" lon="12.0967383"><ele>931.0</ele><time>2026-04-22T09:19:57.719Z</time></trkpt><trkpt lat="43.697765" lon="12.096615"><ele>931.0</ele><time>2026-04-22T09:19:58.719Z</time></trkpt><trkpt lat="43.6976783" lon="12.0964817"><ele>931.0</ele><time>2026-04-22T09:19:59.72Z</time></trkpt><trkpt lat="43.6975983" lon="12.0963467"><ele>931.0</ele><time>2026-04-22T09:20:00.719Z</time></trkpt><trkpt lat="43.6975083" lon="12.09621"><ele>930.5</ele><time>2026-04-22T09:20:01.719Z</time></trkpt><trkpt lat="43.6974167" lon="12.0960633"><ele>930.0</ele><time>2026-04-22T09:20:02.719Z</time></trkpt><trkpt lat="43.697325" lon="12.0959167"><ele>929.5</ele><time>2026-04-22T09:20:03.719Z</time></trkpt><trkpt lat="43.6972417" lon="12.0957683"><ele>929.0</ele><time>2026-04-22T09:20:04.719Z</time></trkpt><trkpt lat="43.6971633" lon="12.0956167"><ele>929.0</ele><time>2026-04-22T09:20:05.72Z</time></trkpt><trkpt lat="43.6970883" lon="12.09546"><ele>929.0</ele><time>2026-04-22T09:20:06.719Z</time></trkpt><trkpt lat="43.6970133" lon="12.0953"><ele>929.0</ele><time>2026-04-22T09:20:07.719Z</time></trkpt><trkpt lat="43.6969283" lon="12.0951333"><ele>929.0</ele><time>2026-04-22T09:20:08.719Z</time></trkpt><trkpt lat="43.6968533" lon="12.094965"><ele>924.75</ele><time>2026-04-22T09:20:09.719Z</time></trkpt><trkpt lat="43.696775" lon="12.0948017"><ele>920.5</ele><time>2026-04-22T09:20:10.719Z</time></trkpt><trkpt lat="43.6967" lon="12.0946417"><ele>916.25</ele><time>2026-04-22T09:20:11.719Z</time></trkpt><trkpt lat="43.696625" lon="12.0944783"><ele>912.0</ele><time>2026-04-22T09:20:12.719Z</time></trkpt><trkpt lat="43.6965483" lon="12.09432"><ele>912.0</ele><time>2026-04-22T09:20:13.719Z</time></trkpt><trkpt lat="43.6964683" lon="12.0941567"><ele>912.0</ele><time>2026-04-22T09:20:14.719Z</time></trkpt><trkpt lat="43.6963883" lon="12.0939933"><ele>912.0</ele><time>2026-04-22T09:20:15.719Z</time></trkpt><trkpt lat="43.6963117" lon="12.0938367"><ele>912.0</ele><time>2026-04-22T09:20:16.72Z</time></trkpt><trkpt lat="43.6962383" lon="12.0936817"><ele>912.0</ele><time>2026-04-22T09:20:17.719Z</time></trkpt><trkpt lat="43.6961633" lon="12.093525"><ele>912.0</ele><time>2026-04-22T09:20:18.719Z</time></trkpt><trkpt lat="43.6960867" lon="12.093365"><ele>912.0</ele><time>2026-04-22T09:20:19.719Z</time></trkpt><trkpt lat="43.6960083" lon="12.0932033"><ele>912.0</ele><time>2026-04-22T09:20:20.719Z</time></trkpt><trkpt lat="43.6959333" lon="12.0930417"><ele>909.0</ele><time>2026-04-22T09:20:21.719Z</time></trkpt><trkpt lat="43.695855" lon="12.0928867"><ele>906.0</ele><time>2026-04-22T09:20:22.719Z</time></trkpt><trkpt lat="43.69576" lon="12.0927533"><ele>903.0</ele><time>2026-04-22T09:20:23.719Z</time></trkpt><trkpt lat="43.69565" lon="12.09265"><ele>900.0</ele><time>2026-04-22T09:20:24.719Z</time></trkpt><trkpt lat="43.6955317" lon="12.0925733"><ele>900.0</ele><time>2026-04-22T09:20:25.719Z</time></trkpt><trkpt lat="43.69541" lon="12.0925117"><ele>900.0</ele><time>2026-04-22T09:20:26.719Z</time></trkpt><trkpt lat="43.69529" lon="12.0924683"><ele>900.0</ele><time>2026-04-22T09:20:27.719Z</time></trkpt><trkpt lat="43.6951783" lon="12.0924533"><ele>900.0</ele><time>2026-04-22T09:20:28.719Z</time></trkpt><trkpt lat="43.695065" lon="12.0924783"><ele>896.0</ele><time>2026-04-22T09:20:29.719Z</time></trkpt><trkpt lat="43.6949583" lon="12.092545"><ele>892.0</ele><time>2026-04-22T09:20:30.719Z</time></trkpt><trkpt lat="43.69487" lon="12.09266"><ele>888.0</ele><time>2026-04-22T09:20:31.719Z</time></trkpt><trkpt lat="43.6948" lon="12.0927983"><ele>884.0</ele><time>2026-04-22T09:20:32.719Z</time></trkpt><trkpt lat="43.6947367" lon="12.0929433"><ele>884.0</ele><time>2026-04-22T09:20:33.719Z</time></trkpt><trkpt lat="43.69467" lon="12.0930833"><ele>884.0</ele><time>2026-04-22T09:20:34.719Z</time></trkpt><trkpt lat="43.6946117" lon="12.093225"><ele>884.0</ele><time>2026-04-22T09:20:35.719Z</time></trkpt><trkpt lat="43.694555" lon="12.0933717"><ele>884.0</ele><time>2026-04-22T09:20:36.719Z</time></trkpt><trkpt lat="43.6945" lon="12.093515"><ele>883.75</ele><time>2026-04-22T09:20:37.719Z</time></trkpt><trkpt lat="43.69445" lon="12.093655"><ele>883.5</ele><time>2026-04-22T09:20:38.719Z</time></trkpt><trkpt lat="43.69439" lon="12.093795"><ele>883.25</ele><time>2026-04-22T09:20:39.719Z</time></trkpt><trkpt lat="43.6943233" lon="12.0939283"><ele>883.0</ele><time>2026-04-22T09:20:40.719Z</time></trkpt><trkpt lat="43.694245" lon="12.0940633"><ele>879.5</ele><time>2026-04-22T09:20:41.719Z</time></trkpt><trkpt lat="43.69415" lon="12.0941833"><ele>876.0</ele><time>2026-04-22T09:20:42.719Z</time></trkpt><trkpt lat="43.6940483" lon="12.0942967"><ele>872.5</ele><time>2026-04-22T09:20:43.719Z</time></trkpt><trkpt lat="43.6939467" lon="12.0944033"><ele>869.0</ele><time>2026-04-22T09:20:44.72Z</time></trkpt><trkpt lat="43.6938433" lon="12.0945033"><ele>869.0</ele><time>2026-04-22T09:20:45.719Z</time></trkpt><trkpt lat="43.69375" lon="12.0946"><ele>869.0</ele><time>2026-04-22T09:20:46.719Z</time></trkpt><trkpt lat="43.6936467" lon="12.0946967"><ele>869.0</ele><time>2026-04-22T09:20:47.719Z</time></trkpt><trkpt lat="43.69355" lon="12.094785"><ele>869.0</ele><time>2026-04-22T09:20:48.719Z</time></trkpt><trkpt lat="43.6934417" lon="12.0948383"><ele>866.25</ele><time>2026-04-22T09:20:49.719Z</time></trkpt><trkpt lat="43.6933267" lon="12.0948633"><ele>863.5</ele><time>2026-04-22T09:20:50.719Z</time></trkpt><trkpt lat="43.6932133" lon="12.09486"><ele>860.75</ele><time>2026-04-22T09:20:51.719Z</time></trkpt><trkpt lat="43.6931067" lon="12.0948217"><ele>858.0</ele><time>2026-04-22T09:20:52.719Z</time></trkpt><trkpt lat="43.6930033" lon="12.0947617"><ele>858.0</ele><time>2026-04-22T09:20:53.719Z</time></trkpt><trkpt lat="43.692905" lon="12.0946783"><ele>858.0</ele><time>2026-04-22T09:20:54.719Z</time></trkpt><trkpt lat="43.69281" lon="12.0945783"><ele>858.0</ele><time>2026-04-22T09:20:55.72Z</time></trkpt><trkpt lat="43.6927183" lon="12.0944583"><ele>858.0</ele><time>2026-04-22T09:20:56.719Z</time></trkpt><trkpt lat="43.6926217" lon="12.094345"><ele>857.5</ele><time>2026-04-22T09:20:57.719Z</time></trkpt><trkpt lat="43.69251" lon="12.094235"><ele>857.0</ele><time>2026-04-22T09:20:58.719Z</time></trkpt><trkpt lat="43.692405" lon="12.0941167"><ele>856.5</ele><time>2026-04-22T09:20:59.719Z</time></trkpt><trkpt lat="43.6922983" lon="12.0940083"><ele>856.0</ele><time>2026-04-22T09:21:00.719Z</time></trkpt><trkpt lat="43.6921783" lon="12.0938917"><ele>854.5</ele><time>2026-04-22T09:21:01.719Z</time></trkpt><trkpt lat="43.69207" lon="12.0937717"><ele>853.0</ele><time>2026-04-22T09:21:02.72Z</time></trkpt><trkpt lat="43.6919667" lon="12.09366"><ele>851.5</ele><time>2026-04-22T09:21:03.719Z</time></trkpt><trkpt lat="43.6918583" lon="12.0935483"><ele>850.0</ele><time>2026-04-22T09:21:04.719Z</time></trkpt><trkpt lat="43.6917567" lon="12.093435"><ele>850.0</ele><time>2026-04-22T09:21:05.719Z</time></trkpt><trkpt lat="43.6916533" lon="12.0933283"><ele>850.0</ele><time>2026-04-22T09:21:06.719Z</time></trkpt><trkpt lat="43.691545" lon="12.0932267"><ele>850.0</ele><time>2026-04-22T09:21:07.719Z</time></trkpt><trkpt lat="43.691445" lon="12.093115"><ele>850.0</ele><time>2026-04-22T09:21:08.719Z</time></trkpt><trkpt lat="43.691345" lon="12.0930133"><ele>847.0</ele><time>2026-04-22T09:21:09.719Z</time></trkpt><trkpt lat="43.6912367" lon="12.0929333"><ele>844.0</ele><time>2026-04-22T09:21:10.719Z</time></trkpt><trkpt lat="43.691125" lon="12.0928767"><ele>841.0</ele><time>2026-04-22T09:21:11.719Z</time></trkpt><trkpt lat="43.6910083" lon="12.0928417"><ele>838.0</ele><time>2026-04-22T09:21:12.719Z</time></trkpt><trkpt lat="43.6908917" lon="12.0928233"><ele>838.0</ele><time>2026-04-22T09:21:13.72Z</time></trkpt><trkpt lat="43.6907717" lon="12.0928067"><ele>838.0</ele><time>2026-04-22T09:21:14.719Z</time></trkpt><trkpt lat="43.690655" lon="12.0927917"><ele>838.0</ele><time>2026-04-22T09:21:15.719Z</time></trkpt><trkpt lat="43.690545" lon="12.0927733"><ele>838.0</ele><time>2026-04-22T09:21:16.719Z</time></trkpt><trkpt lat="43.6904417" lon="12.092745"><ele>837.9999999999999</ele><time>2026-04-22T09:21:17.719Z</time></trkpt><trkpt lat="43.690355" lon="12.0927083"><ele>838.0</ele><time>2026-04-22T09:21:18.72Z</time></trkpt><trkpt lat="43.69028" lon="12.09264"><ele>838.0</ele><time>2026-04-22T09:21:19.72Z</time></trkpt><trkpt lat="43.6902267" lon="12.0925433"><ele>838.0</ele><time>2026-04-22T09:21:20.719Z</time></trkpt><trkpt lat="43.6902017" lon="12.0924233"><ele>837.9999999999999</ele><time>2026-04-22T09:21:21.719Z</time></trkpt><trkpt lat="43.690235" lon="12.0923133"><ele>838.0</ele><time>2026-04-22T09:21:22.719Z</time></trkpt><trkpt lat="43.6902983" lon="12.0922283"><ele>834.5999999999999</ele><time>2026-04-22T09:21:23.719Z</time></trkpt><trkpt lat="43.6903783" lon="12.092185"><ele>831.1999999999999</ele><time>2026-04-22T09:21:24.719Z</time></trkpt><trkpt lat="43.6904633" lon="12.092175"><ele>827.8</ele><time>2026-04-22T09:21:25.719Z</time></trkpt><trkpt lat="43.6905533" lon="12.0921983"><ele>824.4</ele><time>2026-04-22T09:21:26.719Z</time></trkpt><trkpt lat="43.69065" lon="12.0922317"><ele>821.0</ele><time>2026-04-22T09:21:27.719Z</time></trkpt><trkpt lat="43.6907633" lon="12.09226"><ele>821.0</ele><time>2026-04-22T09:21:28.719Z</time></trkpt><trkpt lat="43.6908883" lon="12.0922817"><ele>821.0</ele><time>2026-04-22T09:21:29.719Z</time></trkpt><trkpt lat="43.6910117" lon="12.0923033"><ele>821.0</ele><time>2026-04-22T09:21:30.719Z</time></trkpt><trkpt lat="43.6911233" lon="12.0923333"><ele>821.0</ele><time>2026-04-22T09:21:31.719Z</time></trkpt><trkpt lat="43.6912383" lon="12.092355"><ele>821.0</ele><time>2026-04-22T09:21:32.719Z</time></trkpt><trkpt lat="43.69135" lon="12.0923683"><ele>821.0</ele><time>2026-04-22T09:21:33.719Z</time></trkpt><trkpt lat="43.69147" lon="12.0923667"><ele>821.0</ele><time>2026-04-22T09:21:34.719Z</time></trkpt><trkpt lat="43.691585" lon="12.0923233"><ele>821.0</ele><time>2026-04-22T09:21:35.719Z</time></trkpt><trkpt lat="43.6916933" lon="12.0922567"><ele>821.0</ele><time>2026-04-22T09:21:36.72Z</time></trkpt><trkpt lat="43.6917983" lon="12.092155"><ele>821.0</ele><time>2026-04-22T09:21:37.719Z</time></trkpt><trkpt lat="43.6918983" lon="12.0920417"><ele>821.0</ele><time>2026-04-22T09:21:38.719Z</time></trkpt><trkpt lat="43.6920017" lon="12.091935"><ele>821.0</ele><time>2026-04-22T09:21:39.719Z</time></trkpt><trkpt lat="43.6920967" lon="12.0918233"><ele>820.0</ele><time>2026-04-22T09:21:40.719Z</time></trkpt><trkpt lat="43.692195" lon="12.0917117"><ele>819.0</ele><time>2026-04-22T09:21:41.719Z</time></trkpt><trkpt lat="43.6922967" lon="12.091605"><ele>818.0</ele><time>2026-04-22T09:21:42.72Z</time></trkpt><trkpt lat="43.6924" lon="12.091495"><ele>817.0</ele><time>2026-04-22T09:21:43.719Z</time></trkpt><trkpt lat="43.6924917" lon="12.0913833"><ele>817.0</ele><time>2026-04-22T09:21:44.719Z</time></trkpt><trkpt lat="43.692565" lon="12.0912467"><ele>817.0</ele><time>2026-04-22T09:21:45.719Z</time></trkpt><trkpt lat="43.6926217" lon="12.0911017"><ele>817.0</ele><time>2026-04-22T09:21:46.719Z</time></trkpt><trkpt lat="43.6926583" lon="12.0909467"><ele>817.0</ele><time>2026-04-22T09:21:47.719Z</time></trkpt><trkpt lat="43.6926917" lon="12.09079"><ele>818.6</ele><time>2026-04-22T09:21:48.719Z</time></trkpt><trkpt lat="43.692715" lon="12.09064"><ele>820.2</ele><time>2026-04-22T09:21:49.719Z</time></trkpt><trkpt lat="43.6927433" lon="12.0904867"><ele>821.8</ele><time>2026-04-22T09:21:50.719Z</time></trkpt><trkpt lat="43.6927667" lon="12.0903383"><ele>823.4</ele><time>2026-04-22T09:21:51.719Z</time></trkpt><trkpt lat="43.6927833" lon="12.09019"><ele>825.0</ele><time>2026-04-22T09:21:52.719Z</time></trkpt><trkpt lat="43.6928033" lon="12.0900333"><ele>822.25</ele><time>2026-04-22T09:21:53.719Z</time></trkpt><trkpt lat="43.6928217" lon="12.08987"><ele>819.5</ele><time>2026-04-22T09:21:54.72Z</time></trkpt><trkpt lat="43.6928417" lon="12.0897017"><ele>816.75</ele><time>2026-04-22T09:21:55.719Z</time></trkpt><trkpt lat="43.6928683" lon="12.0895267"><ele>814.0</ele><time>2026-04-22T09:21:56.72Z</time></trkpt><trkpt lat="43.69289" lon="12.0893583"><ele>814.0</ele><time>2026-04-22T09:21:57.719Z</time></trkpt><trkpt lat="43.6929183" lon="12.0891917"><ele>814.0</ele><time>2026-04-22T09:21:58.72Z</time></trkpt><trkpt lat="43.69295" lon="12.0890317"><ele>814.0</ele><time>2026-04-22T09:21:59.719Z</time></trkpt><trkpt lat="43.6929867" lon="12.0888767"><ele>814.0</ele><time>2026-04-22T09:22:00.719Z</time></trkpt><trkpt lat="43.6930383" lon="12.0887283"><ele>811.25</ele><time>2026-04-22T09:22:01.719Z</time></trkpt><trkpt lat="43.6931" lon="12.08858"><ele>808.5</ele><time>2026-04-22T09:22:02.72Z</time></trkpt><trkpt lat="43.693175" lon="12.0884417"><ele>805.75</ele><time>2026-04-22T09:22:03.719Z</time></trkpt><trkpt lat="43.6932533" lon="12.08829"><ele>803.0</ele><time>2026-04-22T09:22:04.719Z</time></trkpt><trkpt lat="43.6933333" lon="12.08815"><ele>801.0</ele><time>2026-04-22T09:22:05.719Z</time></trkpt><trkpt lat="43.6934183" lon="12.0880183"><ele>799.0</ele><time>2026-04-22T09:22:06.72Z</time></trkpt><trkpt lat="43.6934933" lon="12.087865"><ele>797.0</ele><time>2026-04-22T09:22:07.72Z</time></trkpt><trkpt lat="43.6935533" lon="12.0876983"><ele>795.0</ele><time>2026-04-22T09:22:08.72Z</time></trkpt><trkpt lat="43.6936083" lon="12.08753"><ele>796.75</ele><time>2026-04-22T09:22:09.719Z</time></trkpt><trkpt lat="43.6936617" lon="12.08737"><ele>798.5</ele><time>2026-04-22T09:22:10.719Z</time></trkpt><trkpt lat="43.6937083" lon="12.08721"><ele>800.25</ele><time>2026-04-22T09:22:11.719Z</time></trkpt><trkpt lat="43.69376" lon="12.0870517"><ele>802.0</ele><time>2026-04-22T09:22:12.719Z</time></trkpt><trkpt lat="43.693805" lon="12.086905"><ele>801.9999999999999</ele><time>2026-04-22T09:22:13.72Z</time></trkpt><trkpt lat="43.6938483" lon="12.086765"><ele>802.0</ele><time>2026-04-22T09:22:14.719Z</time></trkpt><trkpt lat="43.6938833" lon="12.0866467"><ele>802.0</ele><time>2026-04-22T09:22:15.72Z</time></trkpt><trkpt lat="43.6939033" lon="12.0865333"><ele>802.0</ele><time>2026-04-22T09:22:16.719Z</time></trkpt><trkpt lat="43.6938933" lon="12.0864233"><ele>801.9999999999999</ele><time>2026-04-22T09:22:17.719Z</time></trkpt><trkpt lat="43.6938567" lon="12.08633"><ele>802.0</ele><time>2026-04-22T09:22:18.719Z</time></trkpt><trkpt lat="43.6937967" lon="12.08626"><ele>797.8</ele><time>2026-04-22T09:22:19.72Z</time></trkpt><trkpt lat="43.69372" lon="12.0862333"><ele>793.6</ele><time>2026-04-22T09:22:20.719Z</time></trkpt><trkpt lat="43.69363" lon="12.0862533"><ele>789.4</ele><time>2026-04-22T09:22:21.719Z</time></trkpt><trkpt lat="43.6935567" lon="12.0863017"><ele>785.1999999999999</ele><time>2026-04-22T09:22:22.719Z</time></trkpt><trkpt lat="43.69349" lon="12.0864133"><ele>781.0</ele><time>2026-04-22T09:22:23.719Z</time></trkpt><trkpt lat="43.6934333" lon="12.0865567"><ele>782.75</ele><time>2026-04-22T09:22:24.719Z</time></trkpt><trkpt lat="43.6933783" lon="12.0867167"><ele>784.5</ele><time>2026-04-22T09:22:25.719Z</time></trkpt><trkpt lat="43.6933283" lon="12.0868667"><ele>786.25</ele><time>2026-04-22T09:22:26.719Z</time></trkpt><trkpt lat="43.693265" lon="12.087015"><ele>788.0</ele><time>2026-04-22T09:22:27.72Z</time></trkpt><trkpt lat="43.6932117" lon="12.0871617"><ele>788.0</ele><time>2026-04-22T09:22:28.719Z</time></trkpt><trkpt lat="43.6931483" lon="12.0873033"><ele>788.0</ele><time>2026-04-22T09:22:29.719Z</time></trkpt><trkpt lat="43.6930833" lon="12.0874467"><ele>788.0</ele><time>2026-04-22T09:22:30.719Z</time></trkpt><trkpt lat="43.693025" lon="12.0875883"><ele>788.0</ele><time>2026-04-22T09:22:31.719Z</time></trkpt><trkpt lat="43.6929633" lon="12.0877367"><ele>786.8</ele><time>2026-04-22T09:22:32.719Z</time></trkpt><trkpt lat="43.6928967" lon="12.087865"><ele>785.5999999999999</ele><time>2026-04-22T09:22:33.719Z</time></trkpt><trkpt lat="43.69282" lon="12.0879733"><ele>784.4000000000001</ele><time>2026-04-22T09:22:34.719Z</time></trkpt><trkpt lat="43.6927367" lon="12.0880267"><ele>783.2</ele><time>2026-04-22T09:22:35.719Z</time></trkpt><trkpt lat="43.6926417" lon="12.0880433"><ele>782.0</ele><time>2026-04-22T09:22:36.719Z</time></trkpt><trkpt lat="43.6925367" lon="12.088025"><ele>782.0</ele><time>2026-04-22T09:22:37.719Z</time></trkpt><trkpt lat="43.6924233" lon="12.0879767"><ele>782.0</ele><time>2026-04-22T09:22:38.719Z</time></trkpt><trkpt lat="43.6922883" lon="12.0879183"><ele>782.0</ele><time>2026-04-22T09:22:39.719Z</time></trkpt><trkpt lat="43.6921533" lon="12.0878667"><ele>782.0</ele><time>2026-04-22T09:22:40.719Z</time></trkpt><trkpt lat="43.6920233" lon="12.08781"><ele>781.75</ele><time>2026-04-22T09:22:41.719Z</time></trkpt><trkpt lat="43.6919" lon="12.0877517"><ele>781.5</ele><time>2026-04-22T09:22:42.719Z</time></trkpt><trkpt lat="43.6917783" lon="12.0876933"><ele>781.25</ele><time>2026-04-22T09:22:43.719Z</time></trkpt><trkpt lat="43.691655" lon="12.0876517"><ele>781.0</ele><time>2026-04-22T09:22:44.719Z</time></trkpt><trkpt lat="43.6915367" lon="12.087635"><ele>781.0</ele><time>2026-04-22T09:22:45.719Z</time></trkpt><trkpt lat="43.6914217" lon="12.0876183"><ele>781.0</ele><time>2026-04-22T09:22:46.719Z</time></trkpt><trkpt lat="43.691315" lon="12.08759"><ele>781.0</ele><time>2026-04-22T09:22:47.719Z</time></trkpt><trkpt lat="43.6912217" lon="12.08753"><ele>781.0</ele><time>2026-04-22T09:22:48.719Z</time></trkpt><trkpt lat="43.69116" lon="12.0874217"><ele>781.0</ele><time>2026-04-22T09:22:49.719Z</time></trkpt><trkpt lat="43.6911367" lon="12.087295"><ele>779.1999999999999</ele><time>2026-04-22T09:22:50.719Z</time></trkpt><trkpt lat="43.6911583" lon="12.08716"><ele>777.4</ele><time>2026-04-22T09:22:51.719Z</time></trkpt><trkpt lat="43.6912167" lon="12.0870433"><ele>775.6</ele><time>2026-04-22T09:22:52.719Z</time></trkpt><trkpt lat="43.6913" lon="12.0869617"><ele>773.8</ele><time>2026-04-22T09:22:53.719Z</time></trkpt><trkpt lat="43.6913833" lon="12.0869067"><ele>772.0</ele><time>2026-04-22T09:22:54.72Z</time></trkpt><trkpt lat="43.6914683" lon="12.086865"><ele>772.0</ele><time>2026-04-22T09:22:55.719Z</time></trkpt><trkpt lat="43.6915683" lon="12.086815"><ele>772.0</ele><time>2026-04-22T09:22:56.719Z</time></trkpt><trkpt lat="43.6916833" lon="12.0867567"><ele>772.0</ele><time>2026-04-22T09:22:57.719Z</time></trkpt><trkpt lat="43.6918067" lon="12.086695"><ele>772.0</ele><time>2026-04-22T09:22:58.719Z</time></trkpt><trkpt lat="43.6919267" lon="12.0866383"><ele>769.5</ele><time>2026-04-22T09:22:59.719Z</time></trkpt><trkpt lat="43.69204" lon="12.08658"><ele>767.0</ele><time>2026-04-22T09:23:00.719Z</time></trkpt><trkpt lat="43.6921567" lon="12.0865267"><ele>764.5</ele><time>2026-04-22T09:23:01.719Z</time></trkpt><trkpt lat="43.692265" lon="12.086475"><ele>762.0</ele><time>2026-04-22T09:23:02.719Z</time></trkpt><trkpt lat="43.692365" lon="12.0864317"><ele>762.0</ele><time>2026-04-22T09:23:03.72Z</time></trkpt><trkpt lat="43.6924717" lon="12.08635"><ele>762.0</ele><time>2026-04-22T09:23:04.719Z</time></trkpt><trkpt lat="43.6925583" lon="12.08624"><ele>762.0</ele><time>2026-04-22T09:23:05.719Z</time></trkpt><trkpt lat="43.6926217" lon="12.0861067"><ele>762.0</ele><time>2026-04-22T09:23:06.719Z</time></trkpt><trkpt lat="43.6926683" lon="12.0859483"><ele>762.0</ele><time>2026-04-22T09:23:07.719Z</time></trkpt><trkpt lat="43.6927067" lon="12.08577"><ele>762.0</ele><time>2026-04-22T09:23:08.719Z</time></trkpt><trkpt lat="43.6927433" lon="12.0855933"><ele>762.0</ele><time>2026-04-22T09:23:09.719Z</time></trkpt><trkpt lat="43.6927783" lon="12.085415"><ele>762.0</ele><time>2026-04-22T09:23:10.719Z</time></trkpt><trkpt lat="43.6928217" lon="12.085245"><ele>762.25</ele><time>2026-04-22T09:23:11.719Z</time></trkpt><trkpt lat="43.69286" lon="12.0850717"><ele>762.5</ele><time>2026-04-22T09:23:12.719Z</time></trkpt><trkpt lat="43.6928983" lon="12.0848917"><ele>762.75</ele><time>2026-04-22T09:23:13.719Z</time></trkpt><trkpt lat="43.6929367" lon="12.08472"><ele>763.0</ele><time>2026-04-22T09:23:14.719Z</time></trkpt><trkpt lat="43.6929717" lon="12.08455"><ele>761.75</ele><time>2026-04-22T09:23:15.719Z</time></trkpt><trkpt lat="43.693015" lon="12.0843817"><ele>760.5</ele><time>2026-04-22T09:23:16.719Z</time></trkpt><trkpt lat="43.693075" lon="12.0842217"><ele>759.25</ele><time>2026-04-22T09:23:17.72Z</time></trkpt><trkpt lat="43.6931117" lon="12.0840617"><ele>758.0</ele><time>2026-04-22T09:23:18.719Z</time></trkpt><trkpt lat="43.69315" lon="12.0839017"><ele>756.0</ele><time>2026-04-22T09:23:19.719Z</time></trkpt><trkpt lat="43.693205" lon="12.0837417"><ele>754.0</ele><time>2026-04-22T09:23:20.719Z</time></trkpt><trkpt lat="43.6932667" lon="12.083575"><ele>752.0</ele><time>2026-04-22T09:23:21.72Z</time></trkpt><trkpt lat="43.6933317" lon="12.0833933"><ele>750.0</ele><time>2026-04-22T09:23:22.719Z</time></trkpt><trkpt lat="43.6934017" lon="12.0832133"><ele>750.75</ele><time>2026-04-22T09:23:23.719Z</time></trkpt><trkpt lat="43.6934733" lon="12.083035"><ele>751.5</ele><time>2026-04-22T09:23:24.719Z</time></trkpt><trkpt lat="43.6935483" lon="12.0828617"><ele>752.25</ele><time>2026-04-22T09:23:25.719Z</time></trkpt><trkpt lat="43.6936017" lon="12.08269"><ele>753.0</ele><time>2026-04-22T09:23:26.719Z</time></trkpt><trkpt lat="43.6936617" lon="12.08252"><ele>749.5</ele><time>2026-04-22T09:23:27.719Z</time></trkpt><trkpt lat="43.6937267" lon="12.0823517"><ele>746.0</ele><time>2026-04-22T09:23:28.719Z</time></trkpt><trkpt lat="43.6937883" lon="12.0821867"><ele>742.5</ele><time>2026-04-22T09:23:29.72Z</time></trkpt><trkpt lat="43.69385" lon="12.0820317"><ele>739.0</ele><time>2026-04-22T09:23:30.719Z</time></trkpt><trkpt lat="43.6939217" lon="12.0818883"><ele>739.0</ele><time>2026-04-22T09:23:31.719Z</time></trkpt><trkpt lat="43.694015" lon="12.08176"><ele>739.0</ele><time>2026-04-22T09:23:32.719Z</time></trkpt><trkpt lat="43.694115" lon="12.081655"><ele>739.0</ele><time>2026-04-22T09:23:33.719Z</time></trkpt><trkpt lat="43.6942383" lon="12.0815917"><ele>739.0</ele><time>2026-04-22T09:23:34.719Z</time></trkpt><trkpt lat="43.6943767" lon="12.0815433"><ele>735.25</ele><time>2026-04-22T09:23:35.719Z</time></trkpt><trkpt lat="43.69452" lon="12.0815017"><ele>731.5</ele><time>2026-04-22T09:23:36.719Z</time></trkpt><trkpt lat="43.6946617" lon="12.081455"><ele>727.75</ele><time>2026-04-22T09:23:37.719Z</time></trkpt><trkpt lat="43.6948033" lon="12.081415"><ele>724.0</ele><time>2026-04-22T09:23:38.719Z</time></trkpt><trkpt lat="43.69494" lon="12.0813683"><ele>724.0</ele><time>2026-04-22T09:23:39.719Z</time></trkpt><trkpt lat="43.6950733" lon="12.0813267"><ele>724.0</ele><time>2026-04-22T09:23:40.719Z</time></trkpt><trkpt lat="43.69521" lon="12.0812733"><ele>724.0</ele><time>2026-04-22T09:23:41.72Z</time></trkpt><trkpt lat="43.69534" lon="12.0812367"><ele>724.0</ele><time>2026-04-22T09:23:42.719Z</time></trkpt><trkpt lat="43.6954667" lon="12.0811967"><ele>724.5</ele><time>2026-04-22T09:23:43.719Z</time></trkpt><trkpt lat="43.6955933" lon="12.0811683"><ele>725.0</ele><time>2026-04-22T09:23:44.719Z</time></trkpt><trkpt lat="43.6957183" lon="12.0811333"><ele>725.5</ele><time>2026-04-22T09:23:45.719Z</time></trkpt><trkpt lat="43.6958433" lon="12.0810883"><ele>726.0</ele><time>2026-04-22T09:23:46.719Z</time></trkpt><trkpt lat="43.69596" lon="12.0810483"><ele>726.0</ele><time>2026-04-22T09:23:47.719Z</time></trkpt><trkpt lat="43.69606" lon="12.0810067"><ele>726.0</ele><time>2026-04-22T09:23:48.719Z</time></trkpt><trkpt lat="43.6961467" lon="12.0809417"><ele>726.0</ele><time>2026-04-22T09:23:49.719Z</time></trkpt><trkpt lat="43.696205" lon="12.0808533"><ele>726.0</ele><time>2026-04-22T09:23:50.719Z</time></trkpt><trkpt lat="43.696235" lon="12.0807367"><ele>726.0</ele><time>2026-04-22T09:23:51.719Z</time></trkpt><trkpt lat="43.6962317" lon="12.080615"><ele>726.4</ele><time>2026-04-22T09:23:52.719Z</time></trkpt><trkpt lat="43.6962" lon="12.0804967"><ele>726.8</ele><time>2026-04-22T09:23:53.719Z</time></trkpt><trkpt lat="43.6961283" lon="12.0803967"><ele>727.1999999999999</ele><time>2026-04-22T09:23:54.719Z</time></trkpt><trkpt lat="43.6960367" lon="12.080315"><ele>727.5999999999999</ele><time>2026-04-22T09:23:55.719Z</time></trkpt><trkpt lat="43.6959233" lon="12.08026"><ele>728.0</ele><time>2026-04-22T09:23:56.719Z</time></trkpt><trkpt lat="43.6958017" lon="12.0802433"><ele>725.5</ele><time>2026-04-22T09:23:57.719Z</time></trkpt><trkpt lat="43.6956683" lon="12.0802367"><ele>723.0</ele><time>2026-04-22T09:23:58.719Z</time></trkpt><trkpt lat="43.6955267" lon="12.08024"><ele>720.5</ele><time>2026-04-22T09:23:59.719Z</time></trkpt><trkpt lat="43.6953817" lon="12.0802467"><ele>718.0</ele><time>2026-04-22T09:24:00.719Z</time></trkpt><trkpt lat="43.695235" lon="12.0802517"><ele>716.25</ele><time>2026-04-22T09:24:01.719Z</time></trkpt><trkpt lat="43.695095" lon="12.08025"><ele>714.5</ele><time>2026-04-22T09:24:02.719Z</time></trkpt><trkpt lat="43.6949583" lon="12.0802417"><ele>712.75</ele><time>2026-04-22T09:24:03.72Z</time></trkpt><trkpt lat="43.694815" lon="12.0802333"><ele>711.0</ele><time>2026-04-22T09:24:04.719Z</time></trkpt><trkpt lat="43.6946717" lon="12.0802267"><ele>711.0</ele><time>2026-04-22T09:24:05.72Z</time></trkpt><trkpt lat="43.694525" lon="12.0802133"><ele>711.0</ele><time>2026-04-22T09:24:06.72Z</time></trkpt><trkpt lat="43.6943733" lon="12.080215"><ele>711.0</ele><time>2026-04-22T09:24:07.719Z</time></trkpt><trkpt lat="43.6942267" lon="12.0802133"><ele>711.0</ele><time>2026-04-22T09:24:08.72Z</time></trkpt><trkpt lat="43.6940867" lon="12.080215"><ele>711.0</ele><time>2026-04-22T09:24:09.719Z</time></trkpt><trkpt lat="43.69395" lon="12.0802133"><ele>711.0</ele><time>2026-04-22T09:24:10.719Z</time></trkpt><trkpt lat="43.6938117" lon="12.0802017"><ele>711.0</ele><time>2026-04-22T09:24:11.719Z</time></trkpt><trkpt lat="43.693675" lon="12.0801983"><ele>711.0</ele><time>2026-04-22T09:24:12.719Z</time></trkpt><trkpt lat="43.69354" lon="12.0801933"><ele>710.0</ele><time>2026-04-22T09:24:13.719Z</time></trkpt><trkpt lat="43.6933967" lon="12.0801867"><ele>709.0</ele><time>2026-04-22T09:24:14.72Z</time></trkpt><trkpt lat="43.6932667" lon="12.0801717"><ele>708.0</ele><time>2026-04-22T09:24:15.719Z</time></trkpt><trkpt lat="43.6931383" lon="12.0801667"><ele>707.0</ele><time>2026-04-22T09:24:16.719Z</time></trkpt><trkpt lat="43.6930217" lon="12.0801717"><ele>707.0</ele><time>2026-04-22T09:24:17.719Z</time></trkpt><trkpt lat="43.6929233" lon="12.080175"><ele>707.0</ele><time>2026-04-22T09:24:18.719Z</time></trkpt><trkpt lat="43.692835" lon="12.080155"><ele>707.0</ele><time>2026-04-22T09:24:19.719Z</time></trkpt><trkpt lat="43.6927583" lon="12.0801"><ele>707.0</ele><time>2026-04-22T09:24:20.719Z</time></trkpt><trkpt lat="43.6926967" lon="12.0800183"><ele>707.0</ele><time>2026-04-22T09:24:21.719Z</time></trkpt><trkpt lat="43.69265" lon="12.079925"><ele>707.0</ele><time>2026-04-22T09:24:22.719Z</time></trkpt><trkpt lat="43.6926333" lon="12.0798083"><ele>704.0</ele><time>2026-04-22T09:24:23.719Z</time></trkpt><trkpt lat="43.6926467" lon="12.079685"><ele>701.0</ele><time>2026-04-22T09:24:24.719Z</time></trkpt><trkpt lat="43.692705" lon="12.07958"><ele>698.0</ele><time>2026-04-22T09:24:25.72Z</time></trkpt><trkpt lat="43.6927983" lon="12.0794917"><ele>695.0</ele><time>2026-04-22T09:24:26.719Z</time></trkpt><trkpt lat="43.6929117" lon="12.0794433"><ele>692.0</ele><time>2026-04-22T09:24:27.719Z</time></trkpt><trkpt lat="43.69303" lon="12.0794233"><ele>692.0</ele><time>2026-04-22T09:24:28.719Z</time></trkpt><trkpt lat="43.693155" lon="12.0794033"><ele>692.0</ele><time>2026-04-22T09:24:29.719Z</time></trkpt><trkpt lat="43.6932867" lon="12.0793917"><ele>692.0</ele><time>2026-04-22T09:24:30.719Z</time></trkpt><trkpt lat="43.6934117" lon="12.0793583"><ele>692.0</ele><time>2026-04-22T09:24:31.719Z</time></trkpt><trkpt lat="43.693515" lon="12.0793"><ele>691.0</ele><time>2026-04-22T09:24:32.719Z</time></trkpt><trkpt lat="43.6936183" lon="12.0792133"><ele>690.0</ele><time>2026-04-22T09:24:33.719Z</time></trkpt><trkpt lat="43.6937217" lon="12.0790967"><ele>689.0</ele><time>2026-04-22T09:24:34.719Z</time></trkpt><trkpt lat="43.6938033" lon="12.0789483"><ele>688.0</ele><time>2026-04-22T09:24:35.719Z</time></trkpt><trkpt lat="43.6938917" lon="12.0787917"><ele>688.0</ele><time>2026-04-22T09:24:36.719Z</time></trkpt><trkpt lat="43.693985" lon="12.0786267"><ele>688.0</ele><time>2026-04-22T09:24:37.719Z</time></trkpt><trkpt lat="43.6940733" lon="12.078475"><ele>688.0</ele><time>2026-04-22T09:24:38.719Z</time></trkpt><trkpt lat="43.6941683" lon="12.078335"><ele>688.0</ele><time>2026-04-22T09:24:39.719Z</time></trkpt><trkpt lat="43.6942717" lon="12.078215"><ele>686.0</ele><time>2026-04-22T09:24:40.719Z</time></trkpt><trkpt lat="43.6943817" lon="12.0780867"><ele>684.0</ele><time>2026-04-22T09:24:41.719Z</time></trkpt><trkpt lat="43.69449" lon="12.0779733"><ele>682.0</ele><time>2026-04-22T09:24:42.719Z</time></trkpt><trkpt lat="43.6945967" lon="12.077875"><ele>680.0</ele><time>2026-04-22T09:24:43.719Z</time></trkpt><trkpt lat="43.6947" lon="12.07777"><ele>680.0</ele><time>2026-04-22T09:24:44.719Z</time></trkpt><trkpt lat="43.6948" lon="12.07767"><ele>680.0</ele><time>2026-04-22T09:24:45.72Z</time></trkpt><trkpt lat="43.6948967" lon="12.0775617"><ele>680.0</ele><time>2026-04-22T09:24:46.719Z</time></trkpt><trkpt lat="43.694995" lon="12.0774567"><ele>680.0</ele><time>2026-04-22T09:24:47.719Z</time></trkpt><trkpt lat="43.69509" lon="12.0773533"><ele>678.75</ele><time>2026-04-22T09:24:48.719Z</time></trkpt><trkpt lat="43.695185" lon="12.077255"><ele>677.5</ele><time>2026-04-22T09:24:49.719Z</time></trkpt><trkpt lat="43.6952867" lon="12.077165"><ele>676.25</ele><time>2026-04-22T09:24:50.719Z</time></trkpt><trkpt lat="43.6954033" lon="12.0771167"><ele>675.0</ele><time>2026-04-22T09:24:51.719Z</time></trkpt><trkpt lat="43.695515" lon="12.0771067"><ele>675.0</ele><time>2026-04-22T09:24:52.719Z</time></trkpt><trkpt lat="43.695635" lon="12.0771267"><ele>675.0</ele><time>2026-04-22T09:24:53.719Z</time></trkpt><trkpt lat="43.695745" lon="12.077155"><ele>675.0</ele><time>2026-04-22T09:24:54.719Z</time></trkpt><trkpt lat="43.6958417" lon="12.07716"><ele>675.0</ele><time>2026-04-22T09:24:55.719Z</time></trkpt><trkpt lat="43.695935" lon="12.0771133"><ele>675.0</ele><time>2026-04-22T09:24:56.719Z</time></trkpt><trkpt lat="43.69601" lon="12.07703"><ele>675.0</ele><time>2026-04-22T09:24:57.719Z</time></trkpt><trkpt lat="43.69606" lon="12.0769217"><ele>675.0</ele><time>2026-04-22T09:24:58.719Z</time></trkpt><trkpt lat="43.6960917" lon="12.076795"><ele>675.0</ele><time>2026-04-22T09:24:59.719Z</time></trkpt><trkpt lat="43.6960867" lon="12.07664"><ele>675.0</ele><time>2026-04-22T09:25:00.719Z</time></trkpt><trkpt lat="43.6960633" lon="12.0764567"><ele>675.0</ele><time>2026-04-22T09:25:01.719Z</time></trkpt><trkpt lat="43.6960467" lon="12.0762667"><ele>676.75</ele><time>2026-04-22T09:25:02.719Z</time></trkpt><trkpt lat="43.696035" lon="12.0760817"><ele>678.5</ele><time>2026-04-22T09:25:03.72Z</time></trkpt><trkpt lat="43.6960067" lon="12.07591"><ele>680.25</ele><time>2026-04-22T09:25:04.719Z</time></trkpt><trkpt lat="43.6959633" lon="12.0757467"><ele>682.0</ele><time>2026-04-22T09:25:05.719Z</time></trkpt><trkpt lat="43.6959033" lon="12.0756"><ele>684.0</ele><time>2026-04-22T09:25:06.719Z</time></trkpt><trkpt lat="43.6958183" lon="12.0754683"><ele>686.0</ele><time>2026-04-22T09:25:07.719Z</time></trkpt><trkpt lat="43.6957183" lon="12.0753633"><ele>688.0</ele><time>2026-04-22T09:25:08.719Z</time></trkpt><trkpt lat="43.6956033" lon="12.075275"><ele>690.0</ele><time>2026-04-22T09:25:09.719Z</time></trkpt><trkpt lat="43.69548" lon="12.0751883"><ele>690.0</ele><time>2026-04-22T09:25:10.719Z</time></trkpt><trkpt lat="43.6953517" lon="12.0751017"><ele>690.0</ele><time>2026-04-22T09:25:11.719Z</time></trkpt><trkpt lat="43.6952167" lon="12.07502"><ele>690.0</ele><time>2026-04-22T09:25:12.719Z</time></trkpt><trkpt lat="43.6950833" lon="12.0749333"><ele>690.0</ele><time>2026-04-22T09:25:13.72Z</time></trkpt><trkpt lat="43.69496" lon="12.0748533"><ele>689.75</ele><time>2026-04-22T09:25:14.719Z</time></trkpt><trkpt lat="43.6948417" lon="12.07477"><ele>689.5</ele><time>2026-04-22T09:25:15.719Z</time></trkpt><trkpt lat="43.6947283" lon="12.0746933"><ele>689.25</ele><time>2026-04-22T09:25:16.719Z</time></trkpt><trkpt lat="43.6946233" lon="12.0746117"><ele>689.0</ele><time>2026-04-22T09:25:17.719Z</time></trkpt><trkpt lat="43.6945217" lon="12.0745267"><ele>689.0</ele><time>2026-04-22T09:25:18.72Z</time></trkpt><trkpt lat="43.6944217" lon="12.074425"><ele>689.0</ele><time>2026-04-22T09:25:19.719Z</time></trkpt><trkpt lat="43.694315" lon="12.0743117"><ele>689.0</ele><time>2026-04-22T09:25:20.719Z</time></trkpt><trkpt lat="43.6942067" lon="12.074195"><ele>689.0</ele><time>2026-04-22T09:25:21.72Z</time></trkpt><trkpt lat="43.694095" lon="12.074065"><ele>686.25</ele><time>2026-04-22T09:25:22.719Z</time></trkpt><trkpt lat="43.694" lon="12.073925"><ele>683.5</ele><time>2026-04-22T09:25:23.719Z</time></trkpt><trkpt lat="43.6939183" lon="12.07378"><ele>680.75</ele><time>2026-04-22T09:25:24.719Z</time></trkpt><trkpt lat="43.69386" lon="12.073625"><ele>678.0</ele><time>2026-04-22T09:25:25.719Z</time></trkpt><trkpt lat="43.6938117" lon="12.0734533"><ele>678.5</ele><time>2026-04-22T09:25:26.719Z</time></trkpt><trkpt lat="43.6937717" lon="12.0732717"><ele>679.0</ele><time>2026-04-22T09:25:27.719Z</time></trkpt><trkpt lat="43.6937367" lon="12.0730783"><ele>679.5</ele><time>2026-04-22T09:25:28.719Z</time></trkpt><trkpt lat="43.6937017" lon="12.0728767"><ele>680.0</ele><time>2026-04-22T09:25:29.719Z</time></trkpt><trkpt lat="43.6936567" lon="12.0726717"><ele>680.0</ele><time>2026-04-22T09:25:30.719Z</time></trkpt><trkpt lat="43.6936167" lon="12.0724583"><ele>680.0</ele><time>2026-04-22T09:25:31.719Z</time></trkpt><trkpt lat="43.6935817" lon="12.07226"><ele>680.0</ele><time>2026-04-22T09:25:32.719Z</time></trkpt><trkpt lat="43.69354" lon="12.0720783"><ele>680.0</ele><time>2026-04-22T09:25:33.719Z</time></trkpt><trkpt lat="43.6934883" lon="12.0719067"><ele>679.0</ele><time>2026-04-22T09:25:34.719Z</time></trkpt><trkpt lat="43.6934133" lon="12.0717667"><ele>678.0</ele><time>2026-04-22T09:25:35.72Z</time></trkpt><trkpt lat="43.6933167" lon="12.0716517"><ele>677.0</ele><time>2026-04-22T09:25:36.719Z</time></trkpt><trkpt lat="43.69321" lon="12.0715667"><ele>676.0</ele><time>2026-04-22T09:25:37.719Z</time></trkpt><trkpt lat="43.6930833" lon="12.0714933"><ele>676.75</ele><time>2026-04-22T09:25:38.719Z</time></trkpt><trkpt lat="43.6929517" lon="12.071435"><ele>677.5</ele><time>2026-04-22T09:25:39.719Z</time></trkpt><trkpt lat="43.6928233" lon="12.0713767"><ele>678.25</ele><time>2026-04-22T09:25:40.719Z</time></trkpt><trkpt lat="43.6927017" lon="12.07132"><ele>679.0</ele><time>2026-04-22T09:25:41.72Z</time></trkpt><trkpt lat="43.6925917" lon="12.07124"><ele>679.0</ele><time>2026-04-22T09:25:42.719Z</time></trkpt><trkpt lat="43.6924883" lon="12.0711583"><ele>679.0</ele><time>2026-04-22T09:25:43.72Z</time></trkpt><trkpt lat="43.692405" lon="12.0710567"><ele>679.0</ele><time>2026-04-22T09:25:44.719Z</time></trkpt><trkpt lat="43.6923417" lon="12.0709433"><ele>679.0</ele><time>2026-04-22T09:25:45.719Z</time></trkpt><trkpt lat="43.69229" lon="12.0708183"><ele>679.0</ele><time>2026-04-22T09:25:46.719Z</time></trkpt><trkpt lat="43.69226" lon="12.0706783"><ele>679.5</ele><time>2026-04-22T09:25:47.719Z</time></trkpt><trkpt lat="43.692225" lon="12.0705383"><ele>680.0</ele><time>2026-04-22T09:25:48.72Z</time></trkpt><trkpt lat="43.6921967" lon="12.0703867"><ele>680.5</ele><time>2026-04-22T09:25:49.719Z</time></trkpt><trkpt lat="43.6921617" lon="12.0702317"><ele>681.0</ele><time>2026-04-22T09:25:50.719Z</time></trkpt><trkpt lat="43.6921233" lon="12.0700633"><ele>681.25</ele><time>2026-04-22T09:25:51.719Z</time></trkpt><trkpt lat="43.6920867" lon="12.0698967"><ele>681.5</ele><time>2026-04-22T09:25:52.72Z</time></trkpt><trkpt lat="43.6920467" lon="12.0697283"><ele>681.75</ele><time>2026-04-22T09:25:53.719Z</time></trkpt><trkpt lat="43.6920067" lon="12.0695583"><ele>682.0</ele><time>2026-04-22T09:25:54.719Z</time></trkpt><trkpt lat="43.69197" lon="12.0693983"><ele>682.0</ele><time>2026-04-22T09:25:55.719Z</time></trkpt><trkpt lat="43.6919333" lon="12.06924"><ele>682.0</ele><time>2026-04-22T09:25:56.719Z</time></trkpt><trkpt lat="43.6918983" lon="12.0690883"><ele>682.0</ele><time>2026-04-22T09:25:57.72Z</time></trkpt><trkpt lat="43.69186" lon="12.06893"><ele>682.0</ele><time>2026-04-22T09:25:58.719Z</time></trkpt><trkpt lat="43.6918233" lon="12.068775"><ele>681.25</ele><time>2026-04-22T09:25:59.719Z</time></trkpt><trkpt lat="43.6917683" lon="12.06863"><ele>680.5</ele><time>2026-04-22T09:26:00.719Z</time></trkpt><trkpt lat="43.6916967" lon="12.0685033"><ele>679.75</ele><time>2026-04-22T09:26:01.719Z</time></trkpt><trkpt lat="43.6916067" lon="12.0684017"><ele>679.0</ele><time>2026-04-22T09:26:02.72Z</time></trkpt><trkpt lat="43.6915" lon="12.068335"><ele>678.75</ele><time>2026-04-22T09:26:03.719Z</time></trkpt><trkpt lat="43.6913933" lon="12.0682667"><ele>678.5</ele><time>2026-04-22T09:26:04.719Z</time></trkpt><trkpt lat="43.6912883" lon="12.06821"><ele>678.25</ele><time>2026-04-22T09:26:05.719Z</time></trkpt><trkpt lat="43.6911817" lon="12.0681517"><ele>678.0</ele><time>2026-04-22T09:26:06.719Z</time></trkpt><trkpt lat="43.6910833" lon="12.0680917"><ele>678.0</ele><time>2026-04-22T09:26:07.719Z</time></trkpt><trkpt lat="43.69099" lon="12.0680317"><ele>678.0</ele><time>2026-04-22T09:26:08.719Z</time></trkpt><trkpt lat="43.6909033" lon="12.06796"><ele>678.0</ele><time>2026-04-22T09:26:09.719Z</time></trkpt><trkpt lat="43.6908283" lon="12.0678617"><ele>678.0</ele><time>2026-04-22T09:26:10.72Z</time></trkpt><trkpt lat="43.6907617" lon="12.0677367"><ele>678.0</ele><time>2026-04-22T09:26:11.72Z</time></trkpt><trkpt lat="43.690705" lon="12.06758"><ele>678.75</ele><time>2026-04-22T09:26:12.719Z</time></trkpt><trkpt lat="43.6906433" lon="12.0674167"><ele>679.5</ele><time>2026-04-22T09:26:13.719Z</time></trkpt><trkpt lat="43.6905833" lon="12.0672533"><ele>680.25</ele><time>2026-04-22T09:26:14.719Z</time></trkpt><trkpt lat="43.690525" lon="12.0670817"><ele>681.0</ele><time>2026-04-22T09:26:15.72Z</time></trkpt><trkpt lat="43.6904683" lon="12.0669183"><ele>681.0</ele><time>2026-04-22T09:26:16.72Z</time></trkpt><trkpt lat="43.69041" lon="12.0667633"><ele>681.0</ele><time>2026-04-22T09:26:17.719Z</time></trkpt><trkpt lat="43.690335" lon="12.0666133"><ele>681.0</ele><time>2026-04-22T09:26:18.719Z</time></trkpt><trkpt lat="43.6902567" lon="12.0664767"><ele>681.0</ele><time>2026-04-22T09:26:19.719Z</time></trkpt><trkpt lat="43.690155" lon="12.0663517"><ele>679.3333333333334</ele><time>2026-04-22T09:26:20.719Z</time></trkpt><trkpt lat="43.6900283" lon="12.0662467"><ele>677.6666666666667</ele><time>2026-04-22T09:26:21.719Z</time></trkpt><trkpt lat="43.68989" lon="12.0661433"><ele>676.0</ele><time>2026-04-22T09:26:22.719Z</time></trkpt><trkpt lat="43.6897383" lon="12.06604"><ele>676.0</ele><time>2026-04-22T09:26:23.719Z</time></trkpt><trkpt lat="43.6895767" lon="12.0659267"><ele>676.0</ele><time>2026-04-22T09:26:24.719Z</time></trkpt><trkpt lat="43.689415" lon="12.065815"><ele>676.0</ele><time>2026-04-22T09:26:25.719Z</time></trkpt><trkpt lat="43.689255" lon="12.0657067"><ele>678.6666666666667</ele><time>2026-04-22T09:26:26.719Z</time></trkpt><trkpt lat="43.6891033" lon="12.0655933"><ele>681.3333333333334</ele><time>2026-04-22T09:26:27.719Z</time></trkpt><trkpt lat="43.688955" lon="12.0654867"><ele>684.0</ele><time>2026-04-22T09:26:28.719Z</time></trkpt><trkpt lat="43.688815" lon="12.0653917"><ele>684.0</ele><time>2026-04-22T09:26:29.719Z</time></trkpt><trkpt lat="43.68868" lon="12.0653017"><ele>684.0</ele><time>2026-04-22T09:26:30.719Z</time></trkpt><trkpt lat="43.6885433" lon="12.0652067"><ele>684.0</ele><time>2026-04-22T09:26:31.719Z</time></trkpt><trkpt lat="43.6884133" lon="12.0651133"><ele>684.0</ele><time>2026-04-22T09:26:32.719Z</time></trkpt><trkpt lat="43.6882783" lon="12.06502"><ele>681.5</ele><time>2026-04-22T09:26:33.719Z</time></trkpt><trkpt lat="43.688145" lon="12.06493"><ele>679.0</ele><time>2026-04-22T09:26:34.719Z</time></trkpt><trkpt lat="43.688025" lon="12.064845"><ele>676.5</ele><time>2026-04-22T09:26:35.719Z</time></trkpt><trkpt lat="43.6879167" lon="12.0647817"><ele>674.0</ele><time>2026-04-22T09:26:36.719Z</time></trkpt><trkpt lat="43.687825" lon="12.0646983"><ele>669.5</ele><time>2026-04-22T09:26:37.719Z</time></trkpt><trkpt lat="43.68775" lon="12.0645867"><ele>665.0</ele><time>2026-04-22T09:26:38.719Z</time></trkpt><trkpt lat="43.687705" lon="12.0644483"><ele>660.5</ele><time>2026-04-22T09:26:39.719Z</time></trkpt><trkpt lat="43.68769" lon="12.0642967"><ele>656.0</ele><time>2026-04-22T09:26:40.719Z</time></trkpt><trkpt lat="43.6876967" lon="12.0641217"><ele>654.25</ele><time>2026-04-22T09:26:41.719Z</time></trkpt><trkpt lat="43.6877017" lon="12.0639367"><ele>652.5</ele><time>2026-04-22T09:26:42.719Z</time></trkpt><trkpt lat="43.6877133" lon="12.0637433"><ele>650.75</ele><time>2026-04-22T09:26:43.719Z</time></trkpt><trkpt lat="43.687715" lon="12.063545"><ele>649.0</ele><time>2026-04-22T09:26:44.719Z</time></trkpt><trkpt lat="43.687715" lon="12.0633467"><ele>648.5</ele><time>2026-04-22T09:26:45.719Z</time></trkpt><trkpt lat="43.6877167" lon="12.0631633"><ele>648.0</ele><time>2026-04-22T09:26:46.719Z</time></trkpt><trkpt lat="43.6877117" lon="12.0629883"><ele>647.5</ele><time>2026-04-22T09:26:47.719Z</time></trkpt><trkpt lat="43.687715" lon="12.062815"><ele>647.0</ele><time>2026-04-22T09:26:48.719Z</time></trkpt><trkpt lat="43.687715" lon="12.0626433"><ele>647.0</ele><time>2026-04-22T09:26:49.719Z</time></trkpt><trkpt lat="43.6877217" lon="12.0624783"><ele>647.0</ele><time>2026-04-22T09:26:50.72Z</time></trkpt><trkpt lat="43.6877333" lon="12.0623133"><ele>647.0</ele><time>2026-04-22T09:26:51.719Z</time></trkpt><trkpt lat="43.6877433" lon="12.0621517"><ele>647.0</ele><time>2026-04-22T09:26:52.719Z</time></trkpt><trkpt lat="43.6877367" lon="12.062"><ele>648.0</ele><time>2026-04-22T09:26:53.719Z</time></trkpt><trkpt lat="43.68773" lon="12.06186"><ele>649.0</ele><time>2026-04-22T09:26:54.72Z</time></trkpt><trkpt lat="43.6877133" lon="12.06172"><ele>650.0</ele><time>2026-04-22T09:26:55.719Z</time></trkpt><trkpt lat="43.6876683" lon="12.0615917"><ele>651.0</ele><time>2026-04-22T09:26:56.719Z</time></trkpt><trkpt lat="43.6875967" lon="12.06149"><ele>652.0</ele><time>2026-04-22T09:26:57.719Z</time></trkpt><trkpt lat="43.687495" lon="12.0614083"><ele>652.5</ele><time>2026-04-22T09:26:58.719Z</time></trkpt><trkpt lat="43.6873733" lon="12.0613383"><ele>653.0</ele><time>2026-04-22T09:26:59.719Z</time></trkpt><trkpt lat="43.687225" lon="12.061275"><ele>653.5</ele><time>2026-04-22T09:27:00.719Z</time></trkpt><trkpt lat="43.6870717" lon="12.0612017"><ele>654.0</ele><time>2026-04-22T09:27:01.719Z</time></trkpt><trkpt lat="43.686915" lon="12.061125"><ele>649.6666666666666</ele><time>2026-04-22T09:27:02.719Z</time></trkpt><trkpt lat="43.6867617" lon="12.0610383"><ele>645.3333333333333</ele><time>2026-04-22T09:27:03.719Z</time></trkpt><trkpt lat="43.6866083" lon="12.0609617"><ele>641.0</ele><time>2026-04-22T09:27:04.72Z</time></trkpt><trkpt lat="43.6864667" lon="12.060885"><ele>641.0</ele><time>2026-04-22T09:27:05.72Z</time></trkpt><trkpt lat="43.6863283" lon="12.0608133"><ele>641.0</ele><time>2026-04-22T09:27:06.719Z</time></trkpt><trkpt lat="43.6862083" lon="12.0607433"><ele>641.0</ele><time>2026-04-22T09:27:07.719Z</time></trkpt><trkpt lat="43.6861033" lon="12.0606933"><ele>641.0</ele><time>2026-04-22T09:27:08.719Z</time></trkpt><trkpt lat="43.6860067" lon="12.0606667"><ele>640.0</ele><time>2026-04-22T09:27:09.719Z</time></trkpt><trkpt lat="43.6859133" lon="12.060665"><ele>639.0</ele><time>2026-04-22T09:27:10.719Z</time></trkpt><trkpt lat="43.68583" lon="12.0607033"><ele>638.0</ele><time>2026-04-22T09:27:11.719Z</time></trkpt><trkpt lat="43.6857533" lon="12.060775"><ele>637.0</ele><time>2026-04-22T09:27:12.719Z</time></trkpt><trkpt lat="43.6857083" lon="12.0608733"><ele>636.0</ele><time>2026-04-22T09:27:13.719Z</time></trkpt><trkpt lat="43.6856833" lon="12.0609967"><ele>636.0</ele><time>2026-04-22T09:27:14.719Z</time></trkpt><trkpt lat="43.6856783" lon="12.06113"><ele>636.0</ele><time>2026-04-22T09:27:15.719Z</time></trkpt><trkpt lat="43.6856883" lon="12.0612733"><ele>636.0</ele><time>2026-04-22T09:27:16.719Z</time></trkpt><trkpt lat="43.6857183" lon="12.06142"><ele>636.0</ele><time>2026-04-22T09:27:17.719Z</time></trkpt><trkpt lat="43.6857483" lon="12.0615833"><ele>636.0</ele><time>2026-04-22T09:27:18.719Z</time></trkpt><trkpt lat="43.6857767" lon="12.06175"><ele>634.25</ele><time>2026-04-22T09:27:19.719Z</time></trkpt><trkpt lat="43.6858117" lon="12.06191"><ele>632.5</ele><time>2026-04-22T09:27:20.719Z</time></trkpt><trkpt lat="43.6858433" lon="12.06206"><ele>630.75</ele><time>2026-04-22T09:27:21.719Z</time></trkpt><trkpt lat="43.6858733" lon="12.0622117"><ele>629.0</ele><time>2026-04-22T09:27:22.719Z</time></trkpt><trkpt lat="43.685895" lon="12.0623617"><ele>628.4</ele><time>2026-04-22T09:27:23.719Z</time></trkpt><trkpt lat="43.6858917" lon="12.0624933"><ele>627.8</ele><time>2026-04-22T09:27:24.719Z</time></trkpt><trkpt lat="43.685865" lon="12.0626117"><ele>627.2</ele><time>2026-04-22T09:27:25.719Z</time></trkpt><trkpt lat="43.6857967" lon="12.0627033"><ele>626.6</ele><time>2026-04-22T09:27:26.719Z</time></trkpt><trkpt lat="43.6857" lon="12.06273"><ele>626.0</ele><time>2026-04-22T09:27:27.719Z</time></trkpt><trkpt lat="43.685595" lon="12.06272"><ele>626.0</ele><time>2026-04-22T09:27:28.72Z</time></trkpt><trkpt lat="43.6854967" lon="12.0626783"><ele>626.0</ele><time>2026-04-22T09:27:29.719Z</time></trkpt><trkpt lat="43.68541" lon="12.0626383"><ele>626.0</ele><time>2026-04-22T09:27:30.719Z</time></trkpt><trkpt lat="43.6853183" lon="12.0626133"><ele>626.0</ele><time>2026-04-22T09:27:31.719Z</time></trkpt><trkpt lat="43.6852267" lon="12.06258"><ele>626.0</ele><time>2026-04-22T09:27:32.719Z</time></trkpt><trkpt lat="43.685135" lon="12.0625483"><ele>624.8</ele><time>2026-04-22T09:27:33.719Z</time></trkpt><trkpt lat="43.6850433" lon="12.062515"><ele>623.6</ele><time>2026-04-22T09:27:34.719Z</time></trkpt><trkpt lat="43.68495" lon="12.0624867"><ele>622.4</ele><time>2026-04-22T09:27:35.719Z</time></trkpt><trkpt lat="43.68485" lon="12.0624533"><ele>621.2</ele><time>2026-04-22T09:27:36.719Z</time></trkpt><trkpt lat="43.684755" lon="12.06242"><ele>620.0</ele><time>2026-04-22T09:27:37.719Z</time></trkpt><trkpt lat="43.6846617" lon="12.0623883"><ele>620.0</ele><time>2026-04-22T09:27:38.719Z</time></trkpt><trkpt lat="43.6845683" lon="12.062365"><ele>620.0</ele><time>2026-04-22T09:27:39.719Z</time></trkpt><trkpt lat="43.684475" lon="12.0623417"><ele>620.0</ele><time>2026-04-22T09:27:40.719Z</time></trkpt><trkpt lat="43.6843817" lon="12.0623033"><ele>620.0</ele><time>2026-04-22T09:27:41.719Z</time></trkpt><trkpt lat="43.684285" lon="12.06227"><ele>620.0</ele><time>2026-04-22T09:27:42.719Z</time></trkpt><trkpt lat="43.6841883" lon="12.0622167"><ele>618.4</ele><time>2026-04-22T09:27:43.719Z</time></trkpt><trkpt lat="43.6840967" lon="12.0621467"><ele>616.8</ele><time>2026-04-22T09:27:44.719Z</time></trkpt><trkpt lat="43.68401" lon="12.0620533"><ele>615.2</ele><time>2026-04-22T09:27:45.719Z</time></trkpt><trkpt lat="43.68393" lon="12.0619483"><ele>613.6</ele><time>2026-04-22T09:27:46.719Z</time></trkpt><trkpt lat="43.6838567" lon="12.06183"><ele>612.0</ele><time>2026-04-22T09:27:47.719Z</time></trkpt><trkpt lat="43.6837917" lon="12.0616967"><ele>611.75</ele><time>2026-04-22T09:27:48.719Z</time></trkpt><trkpt lat="43.6837267" lon="12.0615667"><ele>611.5</ele><time>2026-04-22T09:27:49.719Z</time></trkpt><trkpt lat="43.6836567" lon="12.0614467"><ele>611.25</ele><time>2026-04-22T09:27:50.719Z</time></trkpt><trkpt lat="43.68358" lon="12.0613333"><ele>611.0</ele><time>2026-04-22T09:27:51.719Z</time></trkpt><trkpt lat="43.6835017" lon="12.06122"><ele>611.0</ele><time>2026-04-22T09:27:52.719Z</time></trkpt><trkpt lat="43.68342" lon="12.0611117"><ele>611.0</ele><time>2026-04-22T09:27:53.719Z</time></trkpt><trkpt lat="43.683345" lon="12.0610083"><ele>611.0</ele><time>2026-04-22T09:27:54.719Z</time></trkpt><trkpt lat="43.6832483" lon="12.0609133"><ele>611.0</ele><time>2026-04-22T09:27:55.719Z</time></trkpt><trkpt lat="43.68316" lon="12.0608117"><ele>609.2</ele><time>2026-04-22T09:27:56.72Z</time></trkpt><trkpt lat="43.6830717" lon="12.0607167"><ele>607.4000000000001</ele><time>2026-04-22T09:27:57.72Z</time></trkpt><trkpt lat="43.6829833" lon="12.06063"><ele>605.6</ele><time>2026-04-22T09:27:58.719Z</time></trkpt><trkpt lat="43.6828867" lon="12.0605833"><ele>603.8000000000001</ele><time>2026-04-22T09:27:59.719Z</time></trkpt><trkpt lat="43.6827917" lon="12.0605683"><ele>602.0</ele><time>2026-04-22T09:28:00.72Z</time></trkpt><trkpt lat="43.682705" lon="12.060575"><ele>602.0</ele><time>2026-04-22T09:28:01.719Z</time></trkpt><trkpt lat="43.682615" lon="12.06064"><ele>602.0</ele><time>2026-04-22T09:28:02.719Z</time></trkpt><trkpt lat="43.6825583" lon="12.0607533"><ele>602.0</ele><time>2026-04-22T09:28:03.719Z</time></trkpt><trkpt lat="43.6825383" lon="12.06088"><ele>602.0</ele><time>2026-04-22T09:28:04.719Z</time></trkpt><trkpt lat="43.6825633" lon="12.06102"><ele>602.0</ele><time>2026-04-22T09:28:05.719Z</time></trkpt><trkpt lat="43.682625" lon="12.0611367"><ele>600.25</ele><time>2026-04-22T09:28:06.719Z</time></trkpt><trkpt lat="43.6827083" lon="12.0612217"><ele>598.5</ele><time>2026-04-22T09:28:07.719Z</time></trkpt><trkpt lat="43.682815" lon="12.06132"><ele>596.75</ele><time>2026-04-22T09:28:08.719Z</time></trkpt><trkpt lat="43.68291" lon="12.0614283"><ele>595.0</ele><time>2026-04-22T09:28:09.719Z</time></trkpt><trkpt lat="43.6830017" lon="12.0615233"><ele>596.6</ele><time>2026-04-22T09:28:10.719Z</time></trkpt><trkpt lat="43.6831" lon="12.06162"><ele>598.2</ele><time>2026-04-22T09:28:11.72Z</time></trkpt><trkpt lat="43.68319" lon="12.061705"><ele>599.8</ele><time>2026-04-22T09:28:12.719Z</time></trkpt><trkpt lat="43.68327" lon="12.061775"><ele>601.4</ele><time>2026-04-22T09:28:13.719Z</time></trkpt><trkpt lat="43.683345" lon="12.0618483"><ele>603.0</ele><time>2026-04-22T09:28:14.719Z</time></trkpt><trkpt lat="43.68339" lon="12.06195"><ele>603.0</ele><time>2026-04-22T09:28:15.719Z</time></trkpt><trkpt lat="43.68342" lon="12.0620617"><ele>603.0</ele><time>2026-04-22T09:28:16.72Z</time></trkpt><trkpt lat="43.68342" lon="12.0621733"><ele>603.0</ele><time>2026-04-22T09:28:17.719Z</time></trkpt><trkpt lat="43.683365" lon="12.06227"><ele>603.0</ele><time>2026-04-22T09:28:18.719Z</time></trkpt><trkpt lat="43.6833" lon="12.0623367"><ele>603.0</ele><time>2026-04-22T09:28:19.719Z</time></trkpt><trkpt lat="43.6832133" lon="12.0623683"><ele>603.0</ele><time>2026-04-22T09:28:20.719Z</time></trkpt><trkpt lat="43.6831167" lon="12.0623283"><ele>603.0</ele><time>2026-04-22T09:28:21.719Z</time></trkpt><trkpt lat="43.6830283" lon="12.0622683"><ele>603.0</ele><time>2026-04-22T09:28:22.719Z</time></trkpt><trkpt lat="43.6829383" lon="12.0622"><ele>603.0</ele><time>2026-04-22T09:28:23.719Z</time></trkpt><trkpt lat="43.6828383" lon="12.062105"><ele>603.0</ele><time>2026-04-22T09:28:24.719Z</time></trkpt><trkpt lat="43.6827367" lon="12.0620083"><ele>603.0</ele><time>2026-04-22T09:28:25.719Z</time></trkpt><trkpt lat="43.682645" lon="12.061935"><ele>601.0</ele><time>2026-04-22T09:28:26.719Z</time></trkpt><trkpt lat="43.6825283" lon="12.0618367"><ele>599.0</ele><time>2026-04-22T09:28:27.719Z</time></trkpt><trkpt lat="43.68241" lon="12.061755"><ele>597.0</ele><time>2026-04-22T09:28:28.719Z</time></trkpt><trkpt lat="43.6822733" lon="12.0616767"><ele>595.0</ele><time>2026-04-22T09:28:29.719Z</time></trkpt><trkpt lat="43.6821417" lon="12.0616083"><ele>595.0</ele><time>2026-04-22T09:28:30.719Z</time></trkpt><trkpt lat="43.68202" lon="12.0615233"><ele>595.0</ele><time>2026-04-22T09:28:31.719Z</time></trkpt><trkpt lat="43.6819067" lon="12.0614433"><ele>595.0</ele><time>2026-04-22T09:28:32.719Z</time></trkpt><trkpt lat="43.6818" lon="12.06138"><ele>595.0</ele><time>2026-04-22T09:28:33.719Z</time></trkpt><trkpt lat="43.6817067" lon="12.0613033"><ele>591.6</ele><time>2026-04-22T09:28:34.719Z</time></trkpt><trkpt lat="43.681615" lon="12.0612117"><ele>588.2</ele><time>2026-04-22T09:28:35.719Z</time></trkpt><trkpt lat="43.681555" lon="12.0610967"><ele>584.8</ele><time>2026-04-22T09:28:36.719Z</time></trkpt><trkpt lat="43.6815" lon="12.0609633"><ele>581.4</ele><time>2026-04-22T09:28:37.719Z</time></trkpt><trkpt lat="43.681465" lon="12.0608067"><ele>578.0</ele><time>2026-04-22T09:28:38.719Z</time></trkpt><trkpt lat="43.6814417" lon="12.0606467"><ele>577.75</ele><time>2026-04-22T09:28:39.719Z</time></trkpt><trkpt lat="43.6814117" lon="12.06047"><ele>577.5</ele><time>2026-04-22T09:28:40.719Z</time></trkpt><trkpt lat="43.6813867" lon="12.0603117"><ele>577.25</ele><time>2026-04-22T09:28:41.719Z</time></trkpt><trkpt lat="43.681365" lon="12.0601483"><ele>577.0</ele><time>2026-04-22T09:28:42.719Z</time></trkpt><trkpt lat="43.6813467" lon="12.059985"><ele>577.0</ele><time>2026-04-22T09:28:43.719Z</time></trkpt><trkpt lat="43.6813333" lon="12.0598217"><ele>577.0</ele><time>2026-04-22T09:28:44.719Z</time></trkpt><trkpt lat="43.6813167" lon="12.05966"><ele>577.0</ele><time>2026-04-22T09:28:45.719Z</time></trkpt><trkpt lat="43.6813017" lon="12.0594967"><ele>577.0</ele><time>2026-04-22T09:28:46.719Z</time></trkpt><trkpt lat="43.6812783" lon="12.0593217"><ele>577.0</ele><time>2026-04-22T09:28:47.719Z</time></trkpt><trkpt lat="43.68126" lon="12.0591533"><ele>577.0</ele><time>2026-04-22T09:28:48.719Z</time></trkpt><trkpt lat="43.6812467" lon="12.0589933"><ele>577.0</ele><time>2026-04-22T09:28:49.719Z</time></trkpt><trkpt lat="43.681215" lon="12.0588217"><ele>577.0</ele><time>2026-04-22T09:28:50.719Z</time></trkpt><trkpt lat="43.6811783" lon="12.0586583"><ele>577.0</ele><time>2026-04-22T09:28:51.719Z</time></trkpt><trkpt lat="43.6811417" lon="12.0584983"><ele>577.0</ele><time>2026-04-22T09:28:52.719Z</time></trkpt><trkpt lat="43.68111" lon="12.0583467"><ele>577.0</ele><time>2026-04-22T09:28:53.719Z</time></trkpt><trkpt lat="43.6810717" lon="12.058195"><ele>577.0</ele><time>2026-04-22T09:28:54.719Z</time></trkpt><trkpt lat="43.6810433" lon="12.05804"><ele>576.5</ele><time>2026-04-22T09:28:55.719Z</time></trkpt><trkpt lat="43.6810083" lon="12.0578817"><ele>576.0</ele><time>2026-04-22T09:28:56.719Z</time></trkpt><trkpt lat="43.6809617" lon="12.0577283"><ele>575.5</ele><time>2026-04-22T09:28:57.719Z</time></trkpt><trkpt lat="43.6809" lon="12.0575783"><ele>575.0</ele><time>2026-04-22T09:28:58.719Z</time></trkpt><trkpt lat="43.68082" lon="12.057435"><ele>575.0</ele><time>2026-04-22T09:28:59.719Z</time></trkpt><trkpt lat="43.6807333" lon="12.0573083"><ele>575.0</ele><time>2026-04-22T09:29:00.719Z</time></trkpt><trkpt lat="43.6806383" lon="12.0571817"><ele>575.0</ele><time>2026-04-22T09:29:01.719Z</time></trkpt><trkpt lat="43.6805317" lon="12.0570733"><ele>575.0</ele><time>2026-04-22T09:29:02.719Z</time></trkpt><trkpt lat="43.6804317" lon="12.0569433"><ele>575.0</ele><time>2026-04-22T09:29:03.719Z</time></trkpt><trkpt lat="43.6803367" lon="12.0568233"><ele>575.0</ele><time>2026-04-22T09:29:04.72Z</time></trkpt><trkpt lat="43.6802317" lon="12.056725"><ele>575.0</ele><time>2026-04-22T09:29:05.719Z</time></trkpt><trkpt lat="43.68014" lon="12.0566083"><ele>575.0</ele><time>2026-04-22T09:29:06.719Z</time></trkpt><trkpt lat="43.6800583" lon="12.0564817"><ele>568.5</ele><time>2026-04-22T09:29:07.719Z</time></trkpt><trkpt lat="43.6799867" lon="12.056345"><ele>562.0</ele><time>2026-04-22T09:29:08.719Z</time></trkpt><trkpt lat="43.6799467" lon="12.0561833"><ele>555.5</ele><time>2026-04-22T09:29:09.719Z</time></trkpt><trkpt lat="43.6799317" lon="12.0560133"><ele>549.0</ele><time>2026-04-22T09:29:10.719Z</time></trkpt><trkpt lat="43.6799433" lon="12.055835"><ele>551.0</ele><time>2026-04-22T09:29:11.719Z</time></trkpt><trkpt lat="43.6799467" lon="12.0556533"><ele>553.0</ele><time>2026-04-22T09:29:12.719Z</time></trkpt><trkpt lat="43.6799383" lon="12.0554883"><ele>555.0</ele><time>2026-04-22T09:29:13.719Z</time></trkpt><trkpt lat="43.6798983" lon="12.055325"><ele>557.0</ele><time>2026-04-22T09:29:14.719Z</time></trkpt><trkpt lat="43.6798417" lon="12.0551783"><ele>557.0</ele><time>2026-04-22T09:29:15.72Z</time></trkpt><trkpt lat="43.6797583" lon="12.0550483"><ele>557.0</ele><time>2026-04-22T09:29:16.719Z</time></trkpt><trkpt lat="43.6796683" lon="12.0549267"><ele>557.0</ele><time>2026-04-22T09:29:17.72Z</time></trkpt><trkpt lat="43.679575" lon="12.0548"><ele>557.0</ele><time>2026-04-22T09:29:18.719Z</time></trkpt><trkpt lat="43.6795" lon="12.05466"><ele>554.5</ele><time>2026-04-22T09:29:19.719Z</time></trkpt><trkpt lat="43.679435" lon="12.05452"><ele>552.0</ele><time>2026-04-22T09:29:20.719Z</time></trkpt><trkpt lat="43.679385" lon="12.054355"><ele>549.5</ele><time>2026-04-22T09:29:21.719Z</time></trkpt><trkpt lat="43.6793467" lon="12.0541733"><ele>547.0</ele><time>2026-04-22T09:29:22.719Z</time></trkpt><trkpt lat="43.679305" lon="12.0539967"><ele>547.0</ele><time>2026-04-22T09:29:23.719Z</time></trkpt><trkpt lat="43.6792617" lon="12.0538217"><ele>547.0</ele><time>2026-04-22T09:29:24.719Z</time></trkpt><trkpt lat="43.679205" lon="12.0536533"><ele>547.0</ele><time>2026-04-22T09:29:25.719Z</time></trkpt><trkpt lat="43.6791383" lon="12.0534933"><ele>547.0</ele><time>2026-04-22T09:29:26.719Z</time></trkpt><trkpt lat="43.679065" lon="12.053345"><ele>550.0</ele><time>2026-04-22T09:29:27.719Z</time></trkpt><trkpt lat="43.67898" lon="12.053205"><ele>553.0</ele><time>2026-04-22T09:29:28.719Z</time></trkpt><trkpt lat="43.678885" lon="12.0530717"><ele>556.0</ele><time>2026-04-22T09:29:29.72Z</time></trkpt><trkpt lat="43.6787867" lon="12.0529467"><ele>559.0</ele><time>2026-04-22T09:29:30.719Z</time></trkpt><trkpt lat="43.678685" lon="12.0528233"><ele>553.25</ele><time>2026-04-22T09:29:31.719Z</time></trkpt><trkpt lat="43.6785867" lon="12.0527"><ele>547.5</ele><time>2026-04-22T09:29:32.719Z</time></trkpt><trkpt lat="43.6784917" lon="12.0525783"><ele>541.75</ele><time>2026-04-22T09:29:33.719Z</time></trkpt><trkpt lat="43.6783967" lon="12.0524583"><ele>536.0</ele><time>2026-04-22T09:29:34.719Z</time></trkpt><trkpt lat="43.6783083" lon="12.052335"><ele>536.0</ele><time>2026-04-22T09:29:35.719Z</time></trkpt><trkpt lat="43.678215" lon="12.05221"><ele>536.0</ele><time>2026-04-22T09:29:36.719Z</time></trkpt><trkpt lat="43.67813" lon="12.052085"><ele>536.0</ele><time>2026-04-22T09:29:37.719Z</time></trkpt><trkpt lat="43.6780567" lon="12.051945"><ele>536.0</ele><time>2026-04-22T09:29:38.719Z</time></trkpt><trkpt lat="43.6779933" lon="12.0517933"><ele>539.75</ele><time>2026-04-22T09:29:39.719Z</time></trkpt><trkpt lat="43.67796" lon="12.0516183"><ele>543.5</ele><time>2026-04-22T09:29:40.719Z</time></trkpt><trkpt lat="43.6779433" lon="12.05144"><ele>547.25</ele><time>2026-04-22T09:29:41.719Z</time></trkpt><trkpt lat="43.677935" lon="12.0512517"><ele>551.0</ele><time>2026-04-22T09:29:42.719Z</time></trkpt><trkpt lat="43.6779233" lon="12.05107"><ele>551.0</ele><time>2026-04-22T09:29:43.719Z</time></trkpt><trkpt lat="43.6778933" lon="12.050885"><ele>551.0</ele><time>2026-04-22T09:29:44.719Z</time></trkpt><trkpt lat="43.6778417" lon="12.0506933"><ele>551.0</ele><time>2026-04-22T09:29:45.719Z</time></trkpt><trkpt lat="43.6777767" lon="12.0505267"><ele>551.0</ele><time>2026-04-22T09:29:46.719Z</time></trkpt><trkpt lat="43.6776967" lon="12.0503783"><ele>545.75</ele><time>2026-04-22T09:29:47.719Z</time></trkpt><trkpt lat="43.6776233" lon="12.0502233"><ele>540.5</ele><time>2026-04-22T09:29:48.719Z</time></trkpt><trkpt lat="43.677545" lon="12.0500717"><ele>535.25</ele><time>2026-04-22T09:29:49.719Z</time></trkpt><trkpt lat="43.6774583" lon="12.049925"><ele>530.0</ele><time>2026-04-22T09:29:50.719Z</time></trkpt><trkpt lat="43.6773633" lon="12.0497917"><ele>530.0</ele><time>2026-04-22T09:29:51.72Z</time></trkpt><trkpt lat="43.6772667" lon="12.0496733"><ele>530.0</ele><time>2026-04-22T09:29:52.719Z</time></trkpt><trkpt lat="43.6771667" lon="12.0495467"><ele>530.0</ele><time>2026-04-22T09:29:53.719Z</time></trkpt><trkpt lat="43.6770683" lon="12.0494133"><ele>530.0</ele><time>2026-04-22T09:29:54.719Z</time></trkpt><trkpt lat="43.6769833" lon="12.0492833"><ele>522.25</ele><time>2026-04-22T09:29:55.719Z</time></trkpt><trkpt lat="43.6768983" lon="12.0491333"><ele>514.5</ele><time>2026-04-22T09:29:56.719Z</time></trkpt><trkpt lat="43.67685" lon="12.0489667"><ele>506.75</ele><time>2026-04-22T09:29:57.719Z</time></trkpt><trkpt lat="43.6768167" lon="12.048795"><ele>499.0</ele><time>2026-04-22T09:29:58.719Z</time></trkpt><trkpt lat="43.6768033" lon="12.0486083"><ele>499.0</ele><time>2026-04-22T09:29:59.719Z</time></trkpt><trkpt lat="43.6767833" lon="12.048425"><ele>499.0</ele><time>2026-04-22T09:30:00.719Z</time></trkpt><trkpt lat="43.6767617" lon="12.04824"><ele>499.0</ele><time>2026-04-22T09:30:01.719Z</time></trkpt><trkpt lat="43.67674" lon="12.0480667"><ele>499.0</ele><time>2026-04-22T09:30:02.719Z</time></trkpt><trkpt lat="43.6767183" lon="12.0479033"><ele>499.25</ele><time>2026-04-22T09:30:03.719Z</time></trkpt><trkpt lat="43.6767117" lon="12.0477367"><ele>499.5</ele><time>2026-04-22T09:30:04.719Z</time></trkpt><trkpt lat="43.6767183" lon="12.0475733"><ele>499.75</ele><time>2026-04-22T09:30:05.719Z</time></trkpt><trkpt lat="43.676745" lon="12.0473967"><ele>500.0</ele><time>2026-04-22T09:30:06.719Z</time></trkpt><trkpt lat="43.6767817" lon="12.0472183"><ele>498.25</ele><time>2026-04-22T09:30:07.719Z</time></trkpt><trkpt lat="43.6768333" lon="12.0470467"><ele>496.5</ele><time>2026-04-22T09:30:08.719Z</time></trkpt><trkpt lat="43.67687" lon="12.04687"><ele>494.75</ele><time>2026-04-22T09:30:09.719Z</time></trkpt><trkpt lat="43.6768783" lon="12.046695"><ele>493.0</ele><time>2026-04-22T09:30:10.719Z</time></trkpt><trkpt lat="43.676855" lon="12.0465267"><ele>492.0</ele><time>2026-04-22T09:30:11.719Z</time></trkpt><trkpt lat="43.6768167" lon="12.0463483"><ele>491.0</ele><time>2026-04-22T09:30:12.719Z</time></trkpt><trkpt lat="43.67678" lon="12.0461783"><ele>490.0</ele><time>2026-04-22T09:30:13.719Z</time></trkpt><trkpt lat="43.6767417" lon="12.0460217"><ele>489.0</ele><time>2026-04-22T09:30:14.719Z</time></trkpt><trkpt lat="43.6767117" lon="12.0458767"><ele>487.75</ele><time>2026-04-22T09:30:15.719Z</time></trkpt><trkpt lat="43.6766967" lon="12.0457133"><ele>486.5</ele><time>2026-04-22T09:30:16.719Z</time></trkpt><trkpt lat="43.6767033" lon="12.0455433"><ele>485.25</ele><time>2026-04-22T09:30:17.719Z</time></trkpt><trkpt lat="43.67672" lon="12.0453683"><ele>484.0</ele><time>2026-04-22T09:30:18.72Z</time></trkpt><trkpt lat="43.676745" lon="12.0451883"><ele>484.0</ele><time>2026-04-22T09:30:19.719Z</time></trkpt><trkpt lat="43.6767733" lon="12.045"><ele>484.0</ele><time>2026-04-22T09:30:20.719Z</time></trkpt><trkpt lat="43.6768067" lon="12.0448017"><ele>484.0</ele><time>2026-04-22T09:30:21.719Z</time></trkpt><trkpt lat="43.6768367" lon="12.0446133"><ele>484.0</ele><time>2026-04-22T09:30:22.72Z</time></trkpt><trkpt lat="43.67687" lon="12.0444283"><ele>485.0</ele><time>2026-04-22T09:30:23.719Z</time></trkpt><trkpt lat="43.6768967" lon="12.044245"><ele>486.0</ele><time>2026-04-22T09:30:24.719Z</time></trkpt><trkpt lat="43.6769217" lon="12.0440683"><ele>487.0</ele><time>2026-04-22T09:30:25.719Z</time></trkpt><trkpt lat="43.67695" lon="12.0438967"><ele>488.0</ele><time>2026-04-22T09:30:26.72Z</time></trkpt><trkpt lat="43.6769767" lon="12.0437267"><ele>488.0</ele><time>2026-04-22T09:30:27.719Z</time></trkpt><trkpt lat="43.677" lon="12.0435667"><ele>488.0</ele><time>2026-04-22T09:30:28.719Z</time></trkpt><trkpt lat="43.6770283" lon="12.0434067"><ele>488.0</ele><time>2026-04-22T09:30:29.719Z</time></trkpt><trkpt lat="43.6770567" lon="12.04325"><ele>488.0</ele><time>2026-04-22T09:30:30.719Z</time></trkpt><trkpt lat="43.67709" lon="12.0431067"><ele>483.75</ele><time>2026-04-22T09:30:31.719Z</time></trkpt><trkpt lat="43.6771417" lon="12.0429767"><ele>479.5</ele><time>2026-04-22T09:30:32.719Z</time></trkpt><trkpt lat="43.677215" lon="12.0428617"><ele>475.25</ele><time>2026-04-22T09:30:33.719Z</time></trkpt><trkpt lat="43.6773117" lon="12.0427717"><ele>471.0</ele><time>2026-04-22T09:30:34.719Z</time></trkpt><trkpt lat="43.6774167" lon="12.04269"><ele>471.0</ele><time>2026-04-22T09:30:35.719Z</time></trkpt><trkpt lat="43.6775333" lon="12.0426233"><ele>471.0</ele><time>2026-04-22T09:30:36.719Z</time></trkpt><trkpt lat="43.6776467" lon="12.0425533"><ele>471.0</ele><time>2026-04-22T09:30:37.719Z</time></trkpt><trkpt lat="43.6777617" lon="12.0424867"><ele>471.0</ele><time>2026-04-22T09:30:38.719Z</time></trkpt><trkpt lat="43.6778783" lon="12.0424183"><ele>469.5</ele><time>2026-04-22T09:30:39.72Z</time></trkpt><trkpt lat="43.6779967" lon="12.0423517"><ele>468.0</ele><time>2026-04-22T09:30:40.719Z</time></trkpt><trkpt lat="43.6781083" lon="12.0422867"><ele>466.5</ele><time>2026-04-22T09:30:41.719Z</time></trkpt><trkpt lat="43.6782267" lon="12.0422217"><ele>465.0</ele><time>2026-04-22T09:30:42.72Z</time></trkpt><trkpt lat="43.6783383" lon="12.04216"><ele>465.0</ele><time>2026-04-22T09:30:43.72Z</time></trkpt><trkpt lat="43.67845" lon="12.042105"><ele>465.0</ele><time>2026-04-22T09:30:44.72Z</time></trkpt><trkpt lat="43.6785633" lon="12.0420417"><ele>465.0</ele><time>2026-04-22T09:30:45.719Z</time></trkpt><trkpt lat="43.6786717" lon="12.0419783"><ele>465.0</ele><time>2026-04-22T09:30:46.719Z</time></trkpt><trkpt lat="43.6787667" lon="12.04192"><ele>464.2</ele><time>2026-04-22T09:30:47.719Z</time></trkpt><trkpt lat="43.6788483" lon="12.0418317"><ele>463.4</ele><time>2026-04-22T09:30:48.719Z</time></trkpt><trkpt lat="43.6789033" lon="12.0417233"><ele>462.6</ele><time>2026-04-22T09:30:49.719Z</time></trkpt><trkpt lat="43.6789333" lon="12.0416017"><ele>461.8</ele><time>2026-04-22T09:30:50.72Z</time></trkpt><trkpt lat="43.678925" lon="12.04147"><ele>461.0</ele><time>2026-04-22T09:30:51.719Z</time></trkpt><trkpt lat="43.6788917" lon="12.0413567"><ele>461.0</ele><time>2026-04-22T09:30:52.719Z</time></trkpt><trkpt lat="43.6788283" lon="12.0412567"><ele>461.0</ele><time>2026-04-22T09:30:53.719Z</time></trkpt><trkpt lat="43.6787417" lon="12.0411867"><ele>461.0</ele><time>2026-04-22T09:30:54.719Z</time></trkpt><trkpt lat="43.678635" lon="12.04115"><ele>461.0</ele><time>2026-04-22T09:30:55.719Z</time></trkpt><trkpt lat="43.6785133" lon="12.041145"><ele>461.0</ele><time>2026-04-22T09:30:56.72Z</time></trkpt><trkpt lat="43.67838" lon="12.0411483"><ele>459.25</ele><time>2026-04-22T09:30:57.719Z</time></trkpt><trkpt lat="43.6782383" lon="12.0411533"><ele>457.5</ele><time>2026-04-22T09:30:58.719Z</time></trkpt><trkpt lat="43.67809" lon="12.041155"><ele>455.75</ele><time>2026-04-22T09:30:59.719Z</time></trkpt><trkpt lat="43.677945" lon="12.0411583"><ele>454.0</ele><time>2026-04-22T09:31:00.719Z</time></trkpt><trkpt lat="43.677805" lon="12.041155"><ele>452.5</ele><time>2026-04-22T09:31:01.719Z</time></trkpt><trkpt lat="43.6776667" lon="12.0411533"><ele>451.0</ele><time>2026-04-22T09:31:02.719Z</time></trkpt><trkpt lat="43.67753" lon="12.0411533"><ele>449.5</ele><time>2026-04-22T09:31:03.719Z</time></trkpt><trkpt lat="43.677395" lon="12.0411467"><ele>448.0</ele><time>2026-04-22T09:31:04.719Z</time></trkpt><trkpt lat="43.677255" lon="12.0411417"><ele>448.0</ele><time>2026-04-22T09:31:05.719Z</time></trkpt><trkpt lat="43.6771183" lon="12.0411417"><ele>448.0</ele><time>2026-04-22T09:31:06.719Z</time></trkpt><trkpt lat="43.67698" lon="12.0411467"><ele>448.0</ele><time>2026-04-22T09:31:07.72Z</time></trkpt><trkpt lat="43.67684" lon="12.0411367"><ele>448.0</ele><time>2026-04-22T09:31:08.719Z</time></trkpt><trkpt lat="43.6767033" lon="12.041135"><ele>447.25</ele><time>2026-04-22T09:31:09.719Z</time></trkpt><trkpt lat="43.6765617" lon="12.0411317"><ele>446.5</ele><time>2026-04-22T09:31:10.719Z</time></trkpt><trkpt lat="43.676425" lon="12.04113"><ele>445.75</ele><time>2026-04-22T09:31:11.719Z</time></trkpt><trkpt lat="43.6762917" lon="12.0411333"><ele>445.0</ele><time>2026-04-22T09:31:12.719Z</time></trkpt><trkpt lat="43.676155" lon="12.0411483"><ele>443.5</ele><time>2026-04-22T09:31:13.72Z</time></trkpt><trkpt lat="43.6760167" lon="12.0411783"><ele>442.0</ele><time>2026-04-22T09:31:14.719Z</time></trkpt><trkpt lat="43.6758817" lon="12.0412067"><ele>440.5</ele><time>2026-04-22T09:31:15.719Z</time></trkpt><trkpt lat="43.6757483" lon="12.041245"><ele>439.0</ele><time>2026-04-22T09:31:16.719Z</time></trkpt><trkpt lat="43.6756183" lon="12.041295"><ele>439.0</ele><time>2026-04-22T09:31:17.719Z</time></trkpt><trkpt lat="43.6754917" lon="12.041345"><ele>439.0</ele><time>2026-04-22T09:31:18.72Z</time></trkpt><trkpt lat="43.6753733" lon="12.0413867"><ele>439.0</ele><time>2026-04-22T09:31:19.719Z</time></trkpt><trkpt lat="43.6752567" lon="12.0414283"><ele>439.0</ele><time>2026-04-22T09:31:20.719Z</time></trkpt><trkpt lat="43.6751467" lon="12.0414617"><ele>439.0</ele><time>2026-04-22T09:31:21.719Z</time></trkpt><trkpt lat="43.6750383" lon="12.0414983"><ele>439.0</ele><time>2026-04-22T09:31:22.719Z</time></trkpt><trkpt lat="43.6749383" lon="12.0415317"><ele>439.0</ele><time>2026-04-22T09:31:23.719Z</time></trkpt><trkpt lat="43.6748433" lon="12.0415733"><ele>439.0</ele><time>2026-04-22T09:31:24.719Z</time></trkpt><trkpt lat="43.6747567" lon="12.041615"><ele>439.0</ele><time>2026-04-22T09:31:25.719Z</time></trkpt><trkpt lat="43.6746783" lon="12.041635"><ele>439.0</ele><time>2026-04-22T09:31:26.719Z</time></trkpt><trkpt lat="43.6745983" lon="12.04166"><ele>439.0</ele><time>2026-04-22T09:31:27.719Z</time></trkpt><trkpt lat="43.6745067" lon="12.04169"><ele>439.0</ele><time>2026-04-22T09:31:28.719Z</time></trkpt><trkpt lat="43.674415" lon="12.0417233"><ele>439.0</ele><time>2026-04-22T09:31:29.719Z</time></trkpt><trkpt lat="43.6743167" lon="12.0417567"><ele>439.0</ele><time>2026-04-22T09:31:30.719Z</time></trkpt><trkpt lat="43.6742183" lon="12.04179"><ele>439.4</ele><time>2026-04-22T09:31:31.719Z</time></trkpt><trkpt lat="43.674125" lon="12.04183"><ele>439.79999999999995</ele><time>2026-04-22T09:31:32.719Z</time></trkpt><trkpt lat="43.674035" lon="12.0418633"><ele>440.20000000000005</ele><time>2026-04-22T09:31:33.719Z</time></trkpt><trkpt lat="43.6739417" lon="12.0418933"><ele>440.6</ele><time>2026-04-22T09:31:34.719Z</time></trkpt><trkpt lat="43.673845" lon="12.0419217"><ele>441.0</ele><time>2026-04-22T09:31:35.719Z</time></trkpt><trkpt lat="43.67375" lon="12.04195"><ele>441.0</ele><time>2026-04-22T09:31:36.719Z</time></trkpt><trkpt lat="43.6736567" lon="12.04198"><ele>441.0</ele><time>2026-04-22T09:31:37.719Z</time></trkpt><trkpt lat="43.67356" lon="12.0420067"><ele>441.0</ele><time>2026-04-22T09:31:38.719Z</time></trkpt><trkpt lat="43.6734633" lon="12.042025"><ele>441.0</ele><time>2026-04-22T09:31:39.719Z</time></trkpt><trkpt lat="43.6733583" lon="12.04203"><ele>441.0</ele><time>2026-04-22T09:31:40.719Z</time></trkpt><trkpt lat="43.6732433" lon="12.0420183"><ele>440.25</ele><time>2026-04-22T09:31:41.72Z</time></trkpt><trkpt lat="43.6731183" lon="12.0420033"><ele>439.5</ele><time>2026-04-22T09:31:42.719Z</time></trkpt><trkpt lat="43.6729967" lon="12.0419883"><ele>438.75</ele><time>2026-04-22T09:31:43.719Z</time></trkpt><trkpt lat="43.6728717" lon="12.0419583"><ele>438.0</ele><time>2026-04-22T09:31:44.719Z</time></trkpt><trkpt lat="43.6727467" lon="12.0419333"><ele>437.75</ele><time>2026-04-22T09:31:45.719Z</time></trkpt><trkpt lat="43.6726183" lon="12.0419167"><ele>437.5</ele><time>2026-04-22T09:31:46.719Z</time></trkpt><trkpt lat="43.6724867" lon="12.0419167"><ele>437.25</ele><time>2026-04-22T09:31:47.719Z</time></trkpt><trkpt lat="43.672365" lon="12.0419267"><ele>437.0</ele><time>2026-04-22T09:31:48.719Z</time></trkpt><trkpt lat="43.67225" lon="12.041935"><ele>437.0</ele><time>2026-04-22T09:31:49.719Z</time></trkpt><trkpt lat="43.6721383" lon="12.0419483"><ele>437.0</ele><time>2026-04-22T09:31:50.719Z</time></trkpt><trkpt lat="43.6720133" lon="12.0419667"><ele>437.0</ele><time>2026-04-22T09:31:51.719Z</time></trkpt><trkpt lat="43.6718983" lon="12.0419917"><ele>437.0</ele><time>2026-04-22T09:31:52.719Z</time></trkpt><trkpt lat="43.671775" lon="12.0420017"><ele>436.5</ele><time>2026-04-22T09:31:53.719Z</time></trkpt><trkpt lat="43.6716583" lon="12.04201"><ele>436.0</ele><time>2026-04-22T09:31:54.719Z</time></trkpt><trkpt lat="43.67154" lon="12.0420267"><ele>435.5</ele><time>2026-04-22T09:31:55.719Z</time></trkpt><trkpt lat="43.6714217" lon="12.0420467"><ele>435.0</ele><time>2026-04-22T09:31:56.72Z</time></trkpt><trkpt lat="43.6713067" lon="12.0420667"><ele>435.0</ele><time>2026-04-22T09:31:57.719Z</time></trkpt><trkpt lat="43.6711933" lon="12.0420967"><ele>435.0</ele><time>2026-04-22T09:31:58.719Z</time></trkpt><trkpt lat="43.6710817" lon="12.042145"><ele>435.0</ele><time>2026-04-22T09:31:59.719Z</time></trkpt><trkpt lat="43.670975" lon="12.0421967"><ele>435.0</ele><time>2026-04-22T09:32:00.719Z</time></trkpt><trkpt lat="43.67087" lon="12.0422517"><ele>435.0</ele><time>2026-04-22T09:32:01.719Z</time></trkpt><trkpt lat="43.6707683" lon="12.0423167"><ele>435.0</ele><time>2026-04-22T09:32:02.72Z</time></trkpt><trkpt lat="43.6706683" lon="12.0423783"><ele>435.0</ele><time>2026-04-22T09:32:03.719Z</time></trkpt><trkpt lat="43.6705633" lon="12.04243"><ele>435.0</ele><time>2026-04-22T09:32:04.719Z</time></trkpt><trkpt lat="43.6704617" lon="12.042475"><ele>435.0</ele><time>2026-04-22T09:32:05.719Z</time></trkpt><trkpt lat="43.67036" lon="12.0425017"><ele>434.6</ele><time>2026-04-22T09:32:06.719Z</time></trkpt><trkpt lat="43.6702517" lon="12.0425117"><ele>434.2</ele><time>2026-04-22T09:32:07.719Z</time></trkpt><trkpt lat="43.6701567" lon="12.04252"><ele>433.79999999999995</ele><time>2026-04-22T09:32:08.719Z</time></trkpt><trkpt lat="43.6700583" lon="12.042535"><ele>433.4</ele><time>2026-04-22T09:32:09.719Z</time></trkpt><trkpt lat="43.66996" lon="12.042555"><ele>433.0</ele><time>2026-04-22T09:32:10.719Z</time></trkpt><trkpt lat="43.669865" lon="12.042565"><ele>433.0</ele><time>2026-04-22T09:32:11.719Z</time></trkpt><trkpt lat="43.6697717" lon="12.0425933"><ele>432.99999999999994</ele><time>2026-04-22T09:32:12.719Z</time></trkpt><trkpt lat="43.6696783" lon="12.0426283"><ele>432.99999999999994</ele><time>2026-04-22T09:32:13.72Z</time></trkpt><trkpt lat="43.6695867" lon="12.0426667"><ele>433.0</ele><time>2026-04-22T09:32:14.719Z</time></trkpt><trkpt lat="43.6694983" lon="12.0427017"><ele>433.0</ele><time>2026-04-22T09:32:15.719Z</time></trkpt><trkpt lat="43.6694183" lon="12.0427367"><ele>432.83333333333337</ele><time>2026-04-22T09:32:16.719Z</time></trkpt><trkpt lat="43.6693383" lon="12.0427617"><ele>432.6666666666667</ele><time>2026-04-22T09:32:17.719Z</time></trkpt><trkpt lat="43.6692567" lon="12.0427933"><ele>432.5</ele><time>2026-04-22T09:32:18.719Z</time></trkpt><trkpt lat="43.6691833" lon="12.042845"><ele>432.33333333333337</ele><time>2026-04-22T09:32:19.719Z</time></trkpt><trkpt lat="43.6691167" lon="12.0428967"><ele>432.1666666666667</ele><time>2026-04-22T09:32:20.719Z</time></trkpt><trkpt lat="43.6690467" lon="12.0429417"><ele>432.0</ele><time>2026-04-22T09:32:21.719Z</time></trkpt><trkpt lat="43.6689733" lon="12.0429983"><ele>432.0</ele><time>2026-04-22T09:32:22.719Z</time></trkpt><trkpt lat="43.668905" lon="12.043055"><ele>432.0</ele><time>2026-04-22T09:32:23.719Z</time></trkpt><trkpt lat="43.668835" lon="12.0431117"><ele>432.0</ele><time>2026-04-22T09:32:24.719Z</time></trkpt><trkpt lat="43.6687617" lon="12.0431683"><ele>432.0</ele><time>2026-04-22T09:32:25.719Z</time></trkpt><trkpt lat="43.668685" lon="12.0432217"><ele>432.0</ele><time>2026-04-22T09:32:26.719Z</time></trkpt><trkpt lat="43.6686067" lon="12.0432767"><ele>432.0</ele><time>2026-04-22T09:32:27.72Z</time></trkpt><trkpt lat="43.6685333" lon="12.04333"><ele>432.1666666666667</ele><time>2026-04-22T09:32:28.719Z</time></trkpt><trkpt lat="43.6684617" lon="12.04338"><ele>432.33333333333337</ele><time>2026-04-22T09:32:29.719Z</time></trkpt><trkpt lat="43.6683767" lon="12.0434167"><ele>432.5</ele><time>2026-04-22T09:32:30.719Z</time></trkpt><trkpt lat="43.668305" lon="12.0434783"><ele>432.6666666666667</ele><time>2026-04-22T09:32:31.719Z</time></trkpt><trkpt lat="43.6682333" lon="12.0435283"><ele>432.83333333333337</ele><time>2026-04-22T09:32:32.719Z</time></trkpt><trkpt lat="43.6681517" lon="12.0435683"><ele>433.0</ele><time>2026-04-22T09:32:33.719Z</time></trkpt><trkpt lat="43.6680783" lon="12.0436117"><ele>433.00000000000006</ele><time>2026-04-22T09:32:34.719Z</time></trkpt><trkpt lat="43.668" lon="12.043645"><ele>433.0</ele><time>2026-04-22T09:32:35.719Z</time></trkpt><trkpt lat="43.66793" lon="12.0436683"><ele>433.0</ele><time>2026-04-22T09:32:36.719Z</time></trkpt><trkpt lat="43.6678633" lon="12.043685"><ele>433.0</ele><time>2026-04-22T09:32:37.719Z</time></trkpt><trkpt lat="43.6677967" lon="12.043685"><ele>433.00000000000006</ele><time>2026-04-22T09:32:38.719Z</time></trkpt><trkpt lat="43.6676833" lon="12.0436433"><ele>433.0</ele><time>2026-04-22T09:32:40.719Z</time></trkpt><trkpt lat="43.6675833" lon="12.0435717"><ele>432.4</ele><time>2026-04-22T09:32:42.72Z</time></trkpt><trkpt lat="43.667485" lon="12.0435483"><ele>431.79999999999995</ele><time>2026-04-22T09:32:44.72Z</time></trkpt><trkpt lat="43.6674133" lon="12.0436367"><ele>431.2</ele><time>2026-04-22T09:32:46.719Z</time></trkpt><trkpt lat="43.6673533" lon="12.0437717"><ele>430.6</ele><time>2026-04-22T09:32:48.719Z</time></trkpt><trkpt lat="43.667315" lon="12.04385"><ele>430.0</ele><time>2026-04-22T09:32:49.719Z</time></trkpt><trkpt lat="43.6672683" lon="12.0439267"><ele>430.0</ele><time>2026-04-22T09:32:50.72Z</time></trkpt><trkpt lat="43.6672083" lon="12.044005"><ele>430.0</ele><time>2026-04-22T09:32:51.719Z</time></trkpt><trkpt lat="43.66715" lon="12.0440883"><ele>430.0</ele><time>2026-04-22T09:32:52.72Z</time></trkpt><trkpt lat="43.66709" lon="12.044175"><ele>430.0</ele><time>2026-04-22T09:32:53.719Z</time></trkpt><trkpt lat="43.66702" lon="12.044265"><ele>430.0</ele><time>2026-04-22T09:32:54.72Z</time></trkpt><trkpt lat="43.6669433" lon="12.0443617"><ele>430.6</ele><time>2026-04-22T09:32:55.719Z</time></trkpt><trkpt lat="43.6668633" lon="12.0444783"><ele>431.2</ele><time>2026-04-22T09:32:56.719Z</time></trkpt><trkpt lat="43.6667917" lon="12.0445917"><ele>431.79999999999995</ele><time>2026-04-22T09:32:57.719Z</time></trkpt><trkpt lat="43.6667133" lon="12.0446967"><ele>432.4</ele><time>2026-04-22T09:32:58.72Z</time></trkpt><trkpt lat="43.66663" lon="12.0448033"><ele>433.0</ele><time>2026-04-22T09:32:59.72Z</time></trkpt><trkpt lat="43.6665467" lon="12.04492"><ele>433.5</ele><time>2026-04-22T09:33:00.719Z</time></trkpt><trkpt lat="43.6664533" lon="12.04504"><ele>434.0</ele><time>2026-04-22T09:33:01.719Z</time></trkpt><trkpt lat="43.6663583" lon="12.0451617"><ele>434.5</ele><time>2026-04-22T09:33:02.719Z</time></trkpt><trkpt lat="43.6662667" lon="12.0452817"><ele>435.0</ele><time>2026-04-22T09:33:03.72Z</time></trkpt><trkpt lat="43.6661733" lon="12.0454133"><ele>435.0</ele><time>2026-04-22T09:33:04.719Z</time></trkpt><trkpt lat="43.666085" lon="12.0455333"><ele>435.0</ele><time>2026-04-22T09:33:05.72Z</time></trkpt><trkpt lat="43.6659983" lon="12.04565"><ele>435.0</ele><time>2026-04-22T09:33:06.719Z</time></trkpt><trkpt lat="43.6659133" lon="12.0457683"><ele>435.0</ele><time>2026-04-22T09:33:07.719Z</time></trkpt><trkpt lat="43.665825" lon="12.0458967"><ele>435.25</ele><time>2026-04-22T09:33:08.719Z</time></trkpt><trkpt lat="43.6657333" lon="12.0460167"><ele>435.5</ele><time>2026-04-22T09:33:09.719Z</time></trkpt><trkpt lat="43.66564" lon="12.0461367"><ele>435.75</ele><time>2026-04-22T09:33:10.719Z</time></trkpt><trkpt lat="43.6655417" lon="12.04626"><ele>436.0</ele><time>2026-04-22T09:33:11.719Z</time></trkpt><trkpt lat="43.6654417" lon="12.0463667"><ele>436.0</ele><time>2026-04-22T09:33:12.719Z</time></trkpt><trkpt lat="43.6653283" lon="12.0464383"><ele>436.0</ele><time>2026-04-22T09:33:13.719Z</time></trkpt><trkpt lat="43.6652" lon="12.04647"><ele>436.0</ele><time>2026-04-22T09:33:14.719Z</time></trkpt><trkpt lat="43.6650767" lon="12.0464633"><ele>436.0</ele><time>2026-04-22T09:33:15.72Z</time></trkpt><trkpt lat="43.66495" lon="12.0464167"><ele>436.5</ele><time>2026-04-22T09:33:16.719Z</time></trkpt><trkpt lat="43.66483" lon="12.0463583"><ele>437.0</ele><time>2026-04-22T09:33:17.719Z</time></trkpt><trkpt lat="43.6647067" lon="12.0463033"><ele>437.5</ele><time>2026-04-22T09:33:18.719Z</time></trkpt><trkpt lat="43.66458" lon="12.0462617"><ele>438.0</ele><time>2026-04-22T09:33:19.719Z</time></trkpt><trkpt lat="43.66446" lon="12.04625"><ele>438.0</ele><time>2026-04-22T09:33:20.719Z</time></trkpt><trkpt lat="43.6643283" lon="12.0462733"><ele>438.0</ele><time>2026-04-22T09:33:21.719Z</time></trkpt><trkpt lat="43.66421" lon="12.04633"><ele>438.0</ele><time>2026-04-22T09:33:22.719Z</time></trkpt><trkpt lat="43.66411" lon="12.046415"><ele>438.0</ele><time>2026-04-22T09:33:23.719Z</time></trkpt><trkpt lat="43.6640183" lon="12.04655"><ele>439.25</ele><time>2026-04-22T09:33:24.72Z</time></trkpt><trkpt lat="43.6639383" lon="12.046715"><ele>440.5</ele><time>2026-04-22T09:33:25.72Z</time></trkpt><trkpt lat="43.66387" lon="12.046885"><ele>441.75</ele><time>2026-04-22T09:33:26.719Z</time></trkpt><trkpt lat="43.6638017" lon="12.0470533"><ele>443.0</ele><time>2026-04-22T09:33:27.719Z</time></trkpt><trkpt lat="43.6637367" lon="12.04722"><ele>443.0</ele><time>2026-04-22T09:33:28.719Z</time></trkpt><trkpt lat="43.663665" lon="12.0473817"><ele>443.0</ele><time>2026-04-22T09:33:29.719Z</time></trkpt><trkpt lat="43.6635983" lon="12.0475367"><ele>443.0</ele><time>2026-04-22T09:33:30.719Z</time></trkpt><trkpt lat="43.6635283" lon="12.047695"><ele>443.0</ele><time>2026-04-22T09:33:31.719Z</time></trkpt><trkpt lat="43.6634683" lon="12.04784"><ele>442.75</ele><time>2026-04-22T09:33:32.719Z</time></trkpt><trkpt lat="43.663405" lon="12.04799"><ele>442.5</ele><time>2026-04-22T09:33:33.719Z</time></trkpt><trkpt lat="43.66334" lon="12.04815"><ele>442.25</ele><time>2026-04-22T09:33:34.719Z</time></trkpt><trkpt lat="43.6632717" lon="12.048315"><ele>442.0</ele><time>2026-04-22T09:33:35.719Z</time></trkpt><trkpt lat="43.6632017" lon="12.0484833"><ele>442.0</ele><time>2026-04-22T09:33:36.719Z</time></trkpt><trkpt lat="43.6631283" lon="12.0486483"><ele>442.0</ele><time>2026-04-22T09:33:37.719Z</time></trkpt><trkpt lat="43.6630583" lon="12.0488133"><ele>442.0</ele><time>2026-04-22T09:33:38.719Z</time></trkpt><trkpt lat="43.662995" lon="12.0489833"><ele>442.0</ele><time>2026-04-22T09:33:39.72Z</time></trkpt><trkpt lat="43.6629283" lon="12.049145"><ele>443.25</ele><time>2026-04-22T09:33:40.719Z</time></trkpt><trkpt lat="43.662865" lon="12.04931"><ele>444.5</ele><time>2026-04-22T09:33:41.72Z</time></trkpt><trkpt lat="43.6627967" lon="12.04947"><ele>445.75</ele><time>2026-04-22T09:33:42.719Z</time></trkpt><trkpt lat="43.6627317" lon="12.0496417"><ele>447.0</ele><time>2026-04-22T09:33:43.719Z</time></trkpt><trkpt lat="43.66266" lon="12.0497983"><ele>443.0</ele><time>2026-04-22T09:33:44.719Z</time></trkpt><trkpt lat="43.6625933" lon="12.0499583"><ele>439.0</ele><time>2026-04-22T09:33:45.719Z</time></trkpt><trkpt lat="43.66253" lon="12.0501233"><ele>435.0</ele><time>2026-04-22T09:33:46.719Z</time></trkpt><trkpt lat="43.6624617" lon="12.050285"><ele>431.0</ele><time>2026-04-22T09:33:47.719Z</time></trkpt><trkpt lat="43.6623917" lon="12.0504333"><ele>431.0</ele><time>2026-04-22T09:33:48.719Z</time></trkpt><trkpt lat="43.662315" lon="12.0505933"><ele>431.0</ele><time>2026-04-22T09:33:49.72Z</time></trkpt><trkpt lat="43.6622367" lon="12.0507567"><ele>431.0</ele><time>2026-04-22T09:33:50.719Z</time></trkpt><trkpt lat="43.6621517" lon="12.05089"><ele>431.0</ele><time>2026-04-22T09:33:51.719Z</time></trkpt><trkpt lat="43.6620533" lon="12.051025"><ele>428.75</ele><time>2026-04-22T09:33:52.719Z</time></trkpt><trkpt lat="43.6619417" lon="12.0511383"><ele>426.5</ele><time>2026-04-22T09:33:53.719Z</time></trkpt><trkpt lat="43.6618217" lon="12.0512283"><ele>424.25</ele><time>2026-04-22T09:33:54.72Z</time></trkpt><trkpt lat="43.6616933" lon="12.051305"><ele>422.0</ele><time>2026-04-22T09:33:55.719Z</time></trkpt><trkpt lat="43.66156" lon="12.0513567"><ele>422.0</ele><time>2026-04-22T09:33:56.719Z</time></trkpt><trkpt lat="43.6614233" lon="12.0513933"><ele>422.0</ele><time>2026-04-22T09:33:57.719Z</time></trkpt><trkpt lat="43.66129" lon="12.0514317"><ele>422.0</ele><time>2026-04-22T09:33:58.72Z</time></trkpt><trkpt lat="43.6611617" lon="12.051485"><ele>422.0</ele><time>2026-04-22T09:33:59.719Z</time></trkpt><trkpt lat="43.6610283" lon="12.0515433"><ele>421.25</ele><time>2026-04-22T09:34:00.72Z</time></trkpt><trkpt lat="43.6609017" lon="12.0516217"><ele>420.5</ele><time>2026-04-22T09:34:01.719Z</time></trkpt><trkpt lat="43.66078" lon="12.0517167"><ele>419.75</ele><time>2026-04-22T09:34:02.719Z</time></trkpt><trkpt lat="43.6606633" lon="12.0518183"><ele>419.0</ele><time>2026-04-22T09:34:03.719Z</time></trkpt><trkpt lat="43.66055" lon="12.051935"><ele>419.0</ele><time>2026-04-22T09:34:04.719Z</time></trkpt><trkpt lat="43.66043" lon="12.0520583"><ele>419.0</ele><time>2026-04-22T09:34:05.719Z</time></trkpt><trkpt lat="43.6603183" lon="12.052195"><ele>419.0</ele><time>2026-04-22T09:34:06.719Z</time></trkpt><trkpt lat="43.66021" lon="12.0523233"><ele>419.0</ele><time>2026-04-22T09:34:07.719Z</time></trkpt><trkpt lat="43.6601" lon="12.0524683"><ele>419.0</ele><time>2026-04-22T09:34:08.719Z</time></trkpt><trkpt lat="43.659985" lon="12.0525983"><ele>419.0</ele><time>2026-04-22T09:34:09.719Z</time></trkpt><trkpt lat="43.65987" lon="12.05273"><ele>419.0</ele><time>2026-04-22T09:34:10.719Z</time></trkpt><trkpt lat="43.65976" lon="12.0528667"><ele>419.0</ele><time>2026-04-22T09:34:11.719Z</time></trkpt><trkpt lat="43.6596483" lon="12.0529983"><ele>419.0</ele><time>2026-04-22T09:34:12.719Z</time></trkpt><trkpt lat="43.6595383" lon="12.0531333"><ele>419.0</ele><time>2026-04-22T09:34:13.719Z</time></trkpt><trkpt lat="43.6594283" lon="12.0532617"><ele>419.0</ele><time>2026-04-22T09:34:14.719Z</time></trkpt><trkpt lat="43.659315" lon="12.05338"><ele>419.0</ele><time>2026-04-22T09:34:15.719Z</time></trkpt><trkpt lat="43.6591983" lon="12.053485"><ele>419.0</ele><time>2026-04-22T09:34:16.719Z</time></trkpt><trkpt lat="43.659075" lon="12.05359"><ele>419.0</ele><time>2026-04-22T09:34:17.72Z</time></trkpt><trkpt lat="43.658945" lon="12.0536767"><ele>419.0</ele><time>2026-04-22T09:34:18.719Z</time></trkpt><trkpt lat="43.6588117" lon="12.0537567"><ele>419.0</ele><time>2026-04-22T09:34:19.719Z</time></trkpt><trkpt lat="43.658675" lon="12.0538117"><ele>419.5</ele><time>2026-04-22T09:34:20.719Z</time></trkpt><trkpt lat="43.65853" lon="12.0538333"><ele>420.0</ele><time>2026-04-22T09:34:21.719Z</time></trkpt><trkpt lat="43.6583833" lon="12.0538267"><ele>420.5</ele><time>2026-04-22T09:34:22.719Z</time></trkpt><trkpt lat="43.65824" lon="12.053785"><ele>421.0</ele><time>2026-04-22T09:34:23.719Z</time></trkpt><trkpt lat="43.6581" lon="12.0537333"><ele>421.0</ele><time>2026-04-22T09:34:24.719Z</time></trkpt><trkpt lat="43.657965" lon="12.05369"><ele>421.0</ele><time>2026-04-22T09:34:25.72Z</time></trkpt><trkpt lat="43.6578283" lon="12.05365"><ele>421.0</ele><time>2026-04-22T09:34:26.719Z</time></trkpt><trkpt lat="43.6576833" lon="12.0536233"><ele>421.0</ele><time>2026-04-22T09:34:27.719Z</time></trkpt><trkpt lat="43.65753" lon="12.0536167"><ele>420.0</ele><time>2026-04-22T09:34:28.719Z</time></trkpt><trkpt lat="43.6573767" lon="12.053615"><ele>419.0</ele><time>2026-04-22T09:34:29.719Z</time></trkpt><trkpt lat="43.6572267" lon="12.05361"><ele>418.0</ele><time>2026-04-22T09:34:30.719Z</time></trkpt><trkpt lat="43.6570767" lon="12.05361"><ele>418.0</ele><time>2026-04-22T09:34:31.719Z</time></trkpt><trkpt lat="43.65692" lon="12.0536033"><ele>418.0</ele><time>2026-04-22T09:34:32.719Z</time></trkpt><trkpt lat="43.6567617" lon="12.0536117"><ele>418.0</ele><time>2026-04-22T09:34:33.719Z</time></trkpt><trkpt lat="43.656605" lon="12.053625"><ele>418.0</ele><time>2026-04-22T09:34:34.719Z</time></trkpt><trkpt lat="43.6564467" lon="12.053635"><ele>418.0</ele><time>2026-04-22T09:34:35.719Z</time></trkpt><trkpt lat="43.6562917" lon="12.0536483"><ele>418.0</ele><time>2026-04-22T09:34:36.719Z</time></trkpt><trkpt lat="43.656145" lon="12.053675"><ele>418.0</ele><time>2026-04-22T09:34:37.719Z</time></trkpt><trkpt lat="43.6559967" lon="12.0537017"><ele>418.0</ele><time>2026-04-22T09:34:38.719Z</time></trkpt><trkpt lat="43.6558567" lon="12.053725"><ele>418.0</ele><time>2026-04-22T09:34:39.719Z</time></trkpt><trkpt lat="43.6557083" lon="12.0537467"><ele>418.0</ele><time>2026-04-22T09:34:40.719Z</time></trkpt><trkpt lat="43.6555583" lon="12.05377"><ele>418.0</ele><time>2026-04-22T09:34:41.719Z</time></trkpt><trkpt lat="43.6553967" lon="12.0538033"><ele>418.0</ele><time>2026-04-22T09:34:42.719Z</time></trkpt><trkpt lat="43.655235" lon="12.0538433"><ele>418.0</ele><time>2026-04-22T09:34:43.719Z</time></trkpt><trkpt lat="43.6550717" lon="12.0538783"><ele>418.0</ele><time>2026-04-22T09:34:44.719Z</time></trkpt><trkpt lat="43.6549083" lon="12.05391"><ele>418.0</ele><time>2026-04-22T09:34:45.72Z</time></trkpt><trkpt lat="43.6547483" lon="12.053945"><ele>418.0</ele><time>2026-04-22T09:34:46.719Z</time></trkpt><trkpt lat="43.65459" lon="12.05398"><ele>417.0</ele><time>2026-04-22T09:34:47.719Z</time></trkpt><trkpt lat="43.6544267" lon="12.0540083"><ele>416.0</ele><time>2026-04-22T09:34:48.719Z</time></trkpt><trkpt lat="43.654265" lon="12.0540383"><ele>415.0</ele><time>2026-04-22T09:34:49.719Z</time></trkpt><trkpt lat="43.6541" lon="12.0540617"><ele>415.0</ele><time>2026-04-22T09:34:50.719Z</time></trkpt><trkpt lat="43.653935" lon="12.05409"><ele>415.0</ele><time>2026-04-22T09:34:51.719Z</time></trkpt><trkpt lat="43.6537733" lon="12.0541183"><ele>415.0</ele><time>2026-04-22T09:34:52.719Z</time></trkpt><trkpt lat="43.65361" lon="12.0541583"><ele>414.33333333333337</ele><time>2026-04-22T09:34:53.719Z</time></trkpt><trkpt lat="43.65345" lon="12.0541933"><ele>413.66666666666663</ele><time>2026-04-22T09:34:54.719Z</time></trkpt><trkpt lat="43.65329" lon="12.0542283"><ele>413.0</ele><time>2026-04-22T09:34:55.719Z</time></trkpt><trkpt lat="43.65313" lon="12.05426"><ele>413.0</ele><time>2026-04-22T09:34:56.719Z</time></trkpt><trkpt lat="43.6529667" lon="12.0542867"><ele>413.0</ele><time>2026-04-22T09:34:57.719Z</time></trkpt><trkpt lat="43.6528067" lon="12.054315"><ele>413.0</ele><time>2026-04-22T09:34:58.719Z</time></trkpt><trkpt lat="43.652645" lon="12.0543483"><ele>413.0</ele><time>2026-04-22T09:34:59.719Z</time></trkpt><trkpt lat="43.6524833" lon="12.054375"><ele>413.0</ele><time>2026-04-22T09:35:00.719Z</time></trkpt><trkpt lat="43.65232" lon="12.0544083"><ele>413.0</ele><time>2026-04-22T09:35:01.719Z</time></trkpt><trkpt lat="43.65216" lon="12.054435"><ele>413.0</ele><time>2026-04-22T09:35:02.719Z</time></trkpt><trkpt lat="43.6519967" lon="12.0544633"><ele>413.0</ele><time>2026-04-22T09:35:03.719Z</time></trkpt><trkpt lat="43.6518233" lon="12.05449"><ele>413.0</ele><time>2026-04-22T09:35:04.719Z</time></trkpt><trkpt lat="43.6516583" lon="12.0545117"><ele>412.66666666666663</ele><time>2026-04-22T09:35:05.719Z</time></trkpt><trkpt lat="43.6514883" lon="12.0545217"><ele>412.33333333333337</ele><time>2026-04-22T09:35:06.72Z</time></trkpt><trkpt lat="43.6513183" lon="12.0545417"><ele>412.0</ele><time>2026-04-22T09:35:07.719Z</time></trkpt><trkpt lat="43.65115" lon="12.0545633"><ele>412.33333333333337</ele><time>2026-04-22T09:35:08.719Z</time></trkpt><trkpt lat="43.65099" lon="12.0545683"><ele>412.66666666666663</ele><time>2026-04-22T09:35:09.719Z</time></trkpt><trkpt lat="43.650825" lon="12.0545717"><ele>413.0</ele><time>2026-04-22T09:35:10.719Z</time></trkpt><trkpt lat="43.650665" lon="12.0545733"><ele>413.0</ele><time>2026-04-22T09:35:11.72Z</time></trkpt><trkpt lat="43.650505" lon="12.05458"><ele>413.0</ele><time>2026-04-22T09:35:12.719Z</time></trkpt><trkpt lat="43.650345" lon="12.0545817"><ele>413.0</ele><time>2026-04-22T09:35:13.719Z</time></trkpt><trkpt lat="43.650195" lon="12.054585"><ele>412.3333333333333</ele><time>2026-04-22T09:35:14.719Z</time></trkpt><trkpt lat="43.650045" lon="12.0545917"><ele>411.66666666666663</ele><time>2026-04-22T09:35:15.72Z</time></trkpt><trkpt lat="43.6498867" lon="12.0545883"><ele>411.0</ele><time>2026-04-22T09:35:16.719Z</time></trkpt><trkpt lat="43.6497233" lon="12.0545833"><ele>411.0</ele><time>2026-04-22T09:35:17.719Z</time></trkpt><trkpt lat="43.6495583" lon="12.0545783"><ele>411.0</ele><time>2026-04-22T09:35:18.719Z</time></trkpt><trkpt lat="43.6493967" lon="12.05458"><ele>411.0</ele><time>2026-04-22T09:35:19.719Z</time></trkpt><trkpt lat="43.6492367" lon="12.0545883"><ele>410.33333333333337</ele><time>2026-04-22T09:35:20.719Z</time></trkpt><trkpt lat="43.6490783" lon="12.054585"><ele>409.6666666666667</ele><time>2026-04-22T09:35:21.719Z</time></trkpt><trkpt lat="43.6489117" lon="12.0545917"><ele>409.0</ele><time>2026-04-22T09:35:22.719Z</time></trkpt><trkpt lat="43.6487483" lon="12.0545983"><ele>408.33333333333337</ele><time>2026-04-22T09:35:23.719Z</time></trkpt><trkpt lat="43.6485883" lon="12.0546017"><ele>407.66666666666663</ele><time>2026-04-22T09:35:24.719Z</time></trkpt><trkpt lat="43.6484283" lon="12.054605"><ele>407.0</ele><time>2026-04-22T09:35:25.719Z</time></trkpt><trkpt lat="43.6482733" lon="12.0546183"><ele>407.0</ele><time>2026-04-22T09:35:26.719Z</time></trkpt><trkpt lat="43.6481167" lon="12.0546417"><ele>407.0</ele><time>2026-04-22T09:35:27.719Z</time></trkpt><trkpt lat="43.6479567" lon="12.05468"><ele>407.0</ele><time>2026-04-22T09:35:28.719Z</time></trkpt><trkpt lat="43.6477983" lon="12.0547367"><ele>406.3333333333333</ele><time>2026-04-22T09:35:29.719Z</time></trkpt><trkpt lat="43.6476467" lon="12.054805"><ele>405.66666666666663</ele><time>2026-04-22T09:35:30.719Z</time></trkpt><trkpt lat="43.6475033" lon="12.0548783"><ele>405.0</ele><time>2026-04-22T09:35:31.719Z</time></trkpt><trkpt lat="43.6473533" lon="12.0549767"><ele>407.33333333333337</ele><time>2026-04-22T09:35:32.719Z</time></trkpt><trkpt lat="43.6472117" lon="12.0550683"><ele>409.6666666666667</ele><time>2026-04-22T09:35:33.719Z</time></trkpt><trkpt lat="43.6470817" lon="12.0551817"><ele>412.0</ele><time>2026-04-22T09:35:34.719Z</time></trkpt><trkpt lat="43.6469733" lon="12.0553283"><ele>412.0</ele><time>2026-04-22T09:35:35.719Z</time></trkpt><trkpt lat="43.6468767" lon="12.0555"><ele>412.0</ele><time>2026-04-22T09:35:36.719Z</time></trkpt><trkpt lat="43.6468" lon="12.055695"><ele>412.0</ele><time>2026-04-22T09:35:37.719Z</time></trkpt><trkpt lat="43.646735" lon="12.0559083"><ele>412.0</ele><time>2026-04-22T09:35:38.719Z</time></trkpt><trkpt lat="43.6466683" lon="12.0561117"><ele>412.0</ele><time>2026-04-22T09:35:39.72Z</time></trkpt><trkpt lat="43.6466017" lon="12.05632"><ele>412.0</ele><time>2026-04-22T09:35:40.719Z</time></trkpt><trkpt lat="43.6465383" lon="12.05653"><ele>412.33333333333337</ele><time>2026-04-22T09:35:41.72Z</time></trkpt><trkpt lat="43.6464833" lon="12.0567217"><ele>412.66666666666663</ele><time>2026-04-22T09:35:42.719Z</time></trkpt><trkpt lat="43.646425" lon="12.0569317"><ele>413.0</ele><time>2026-04-22T09:35:43.719Z</time></trkpt><trkpt lat="43.6463633" lon="12.0571367"><ele>413.0</ele><time>2026-04-22T09:35:44.72Z</time></trkpt><trkpt lat="43.6463083" lon="12.05735"><ele>413.0</ele><time>2026-04-22T09:35:45.719Z</time></trkpt><trkpt lat="43.64625" lon="12.0575433"><ele>413.0</ele><time>2026-04-22T09:35:46.719Z</time></trkpt><trkpt lat="43.646185" lon="12.057735"><ele>411.75</ele><time>2026-04-22T09:35:47.719Z</time></trkpt><trkpt lat="43.64612" lon="12.0579233"><ele>410.5</ele><time>2026-04-22T09:35:48.719Z</time></trkpt><trkpt lat="43.64607" lon="12.058105"><ele>409.25</ele><time>2026-04-22T09:35:49.719Z</time></trkpt><trkpt lat="43.6460217" lon="12.0582883"><ele>408.0</ele><time>2026-04-22T09:35:50.719Z</time></trkpt><trkpt lat="43.64598" lon="12.0584767"><ele>407.75</ele><time>2026-04-22T09:35:51.719Z</time></trkpt><trkpt lat="43.645955" lon="12.0586583"><ele>407.5</ele><time>2026-04-22T09:35:52.719Z</time></trkpt><trkpt lat="43.6459267" lon="12.0588433"><ele>407.25</ele><time>2026-04-22T09:35:53.719Z</time></trkpt><trkpt lat="43.6459017" lon="12.059035"><ele>407.0</ele><time>2026-04-22T09:35:54.719Z</time></trkpt><trkpt lat="43.6458817" lon="12.05923"><ele>406.66666666666663</ele><time>2026-04-22T09:35:55.719Z</time></trkpt><trkpt lat="43.6458633" lon="12.0594333"><ele>406.33333333333337</ele><time>2026-04-22T09:35:56.719Z</time></trkpt><trkpt lat="43.6458483" lon="12.05964"><ele>406.0</ele><time>2026-04-22T09:35:57.719Z</time></trkpt><trkpt lat="43.6458283" lon="12.05985"><ele>407.0</ele><time>2026-04-22T09:35:58.719Z</time></trkpt><trkpt lat="43.6458067" lon="12.0600633"><ele>408.0</ele><time>2026-04-22T09:35:59.72Z</time></trkpt><trkpt lat="43.6457817" lon="12.0602783"><ele>409.0</ele><time>2026-04-22T09:36:00.719Z</time></trkpt><trkpt lat="43.64575" lon="12.0605"><ele>409.0</ele><time>2026-04-22T09:36:01.719Z</time></trkpt><trkpt lat="43.64572" lon="12.0607183"><ele>409.0</ele><time>2026-04-22T09:36:02.72Z</time></trkpt><trkpt lat="43.6456983" lon="12.06094"><ele>409.0</ele><time>2026-04-22T09:36:03.719Z</time></trkpt><trkpt lat="43.645675" lon="12.06116"><ele>409.0</ele><time>2026-04-22T09:36:04.719Z</time></trkpt><trkpt lat="43.645655" lon="12.0613767"><ele>409.0</ele><time>2026-04-22T09:36:05.719Z</time></trkpt><trkpt lat="43.64563" lon="12.0615917"><ele>409.0</ele><time>2026-04-22T09:36:06.719Z</time></trkpt><trkpt lat="43.645605" lon="12.0618083"><ele>410.33333333333337</ele><time>2026-04-22T09:36:07.719Z</time></trkpt><trkpt lat="43.6455783" lon="12.06202"><ele>411.66666666666663</ele><time>2026-04-22T09:36:08.719Z</time></trkpt><trkpt lat="43.6455583" lon="12.0622233"><ele>413.0</ele><time>2026-04-22T09:36:09.719Z</time></trkpt><trkpt lat="43.645525" lon="12.0624267"><ele>413.25</ele><time>2026-04-22T09:36:10.719Z</time></trkpt><trkpt lat="43.6455" lon="12.06263"><ele>413.5</ele><time>2026-04-22T09:36:11.719Z</time></trkpt><trkpt lat="43.645475" lon="12.062825"><ele>413.75</ele><time>2026-04-22T09:36:12.719Z</time></trkpt><trkpt lat="43.6454533" lon="12.06301"><ele>414.0</ele><time>2026-04-22T09:36:13.719Z</time></trkpt><trkpt lat="43.64543" lon="12.0631917"><ele>414.75</ele><time>2026-04-22T09:36:14.719Z</time></trkpt><trkpt lat="43.6453967" lon="12.0633533"><ele>415.5</ele><time>2026-04-22T09:36:15.719Z</time></trkpt><trkpt lat="43.6453533" lon="12.0635017"><ele>416.25</ele><time>2026-04-22T09:36:16.719Z</time></trkpt><trkpt lat="43.645305" lon="12.0636383"><ele>417.0</ele><time>2026-04-22T09:36:17.719Z</time></trkpt><trkpt lat="43.64524" lon="12.0637583"><ele>414.25</ele><time>2026-04-22T09:36:18.719Z</time></trkpt><trkpt lat="43.6451533" lon="12.0638467"><ele>411.5</ele><time>2026-04-22T09:36:19.719Z</time></trkpt><trkpt lat="43.6450467" lon="12.0639133"><ele>408.75</ele><time>2026-04-22T09:36:20.719Z</time></trkpt><trkpt lat="43.6449267" lon="12.0639483"><ele>406.0</ele><time>2026-04-22T09:36:21.719Z</time></trkpt><trkpt lat="43.6447967" lon="12.0639533"><ele>406.0</ele><time>2026-04-22T09:36:22.719Z</time></trkpt><trkpt lat="43.6446683" lon="12.063925"><ele>406.0</ele><time>2026-04-22T09:36:23.719Z</time></trkpt><trkpt lat="43.64454" lon="12.0638633"><ele>406.0</ele><time>2026-04-22T09:36:24.719Z</time></trkpt><trkpt lat="43.6444017" lon="12.0637967"><ele>406.0</ele><time>2026-04-22T09:36:25.719Z</time></trkpt><trkpt lat="43.644255" lon="12.0637283"><ele>406.0</ele><time>2026-04-22T09:36:26.719Z</time></trkpt><trkpt lat="43.6441217" lon="12.06365"><ele>406.0</ele><time>2026-04-22T09:36:27.719Z</time></trkpt><trkpt lat="43.6439867" lon="12.0635783"><ele>406.0</ele><time>2026-04-22T09:36:28.719Z</time></trkpt><trkpt lat="43.6438633" lon="12.0635033"><ele>406.0</ele><time>2026-04-22T09:36:29.719Z</time></trkpt><trkpt lat="43.64373" lon="12.0634267"><ele>407.0</ele><time>2026-04-22T09:36:30.719Z</time></trkpt><trkpt lat="43.6435917" lon="12.0633533"><ele>408.0</ele><time>2026-04-22T09:36:31.719Z</time></trkpt><trkpt lat="43.64345" lon="12.0633"><ele>409.0</ele><time>2026-04-22T09:36:32.719Z</time></trkpt><trkpt lat="43.64332" lon="12.063265"><ele>410.0</ele><time>2026-04-22T09:36:33.72Z</time></trkpt><trkpt lat="43.6431733" lon="12.0632617"><ele>410.0</ele><time>2026-04-22T09:36:34.719Z</time></trkpt><trkpt lat="43.6430467" lon="12.063305"><ele>410.0</ele><time>2026-04-22T09:36:35.719Z</time></trkpt><trkpt lat="43.6429267" lon="12.0633917"><ele>410.0</ele><time>2026-04-22T09:36:36.719Z</time></trkpt><trkpt lat="43.6428067" lon="12.0635133"><ele>410.0</ele><time>2026-04-22T09:36:37.719Z</time></trkpt><trkpt lat="43.6427" lon="12.0636617"><ele>411.3333333333333</ele><time>2026-04-22T09:36:38.72Z</time></trkpt><trkpt lat="43.642595" lon="12.063825"><ele>412.66666666666663</ele><time>2026-04-22T09:36:39.719Z</time></trkpt><trkpt lat="43.6424917" lon="12.063995"><ele>414.0</ele><time>2026-04-22T09:36:40.719Z</time></trkpt><trkpt lat="43.64239" lon="12.06417"><ele>414.0</ele><time>2026-04-22T09:36:41.72Z</time></trkpt><trkpt lat="43.6422833" lon="12.0643433"><ele>414.0</ele><time>2026-04-22T09:36:42.719Z</time></trkpt><trkpt lat="43.6421717" lon="12.064515"><ele>414.0</ele><time>2026-04-22T09:36:43.719Z</time></trkpt><trkpt lat="43.64207" lon="12.0646917"><ele>412.0</ele><time>2026-04-22T09:36:44.719Z</time></trkpt><trkpt lat="43.641965" lon="12.0648617"><ele>410.0</ele><time>2026-04-22T09:36:45.719Z</time></trkpt><trkpt lat="43.64186" lon="12.0650283"><ele>408.0</ele><time>2026-04-22T09:36:46.719Z</time></trkpt><trkpt lat="43.6417517" lon="12.0652083"><ele>407.0</ele><time>2026-04-22T09:36:47.719Z</time></trkpt><trkpt lat="43.6416417" lon="12.0653767"><ele>406.0</ele><time>2026-04-22T09:36:48.719Z</time></trkpt><trkpt lat="43.6415367" lon="12.065545"><ele>405.0</ele><time>2026-04-22T09:36:49.719Z</time></trkpt><trkpt lat="43.6414317" lon="12.0657183"><ele>404.66666666666663</ele><time>2026-04-22T09:36:50.719Z</time></trkpt><trkpt lat="43.6413133" lon="12.0658783"><ele>404.3333333333333</ele><time>2026-04-22T09:36:51.72Z</time></trkpt><trkpt lat="43.6411867" lon="12.0660367"><ele>404.0</ele><time>2026-04-22T09:36:52.719Z</time></trkpt><trkpt lat="43.6410633" lon="12.06619"><ele>403.66666666666663</ele><time>2026-04-22T09:36:53.719Z</time></trkpt><trkpt lat="43.6409317" lon="12.0663367"><ele>403.33333333333337</ele><time>2026-04-22T09:36:54.719Z</time></trkpt><trkpt lat="43.6407983" lon="12.066465"><ele>403.0</ele><time>2026-04-22T09:36:55.719Z</time></trkpt><trkpt lat="43.6406617" lon="12.0665717"><ele>404.0</ele><time>2026-04-22T09:36:56.719Z</time></trkpt><trkpt lat="43.6405117" lon="12.0666783"><ele>405.0</ele><time>2026-04-22T09:36:57.719Z</time></trkpt><trkpt lat="43.6403533" lon="12.0667817"><ele>406.0</ele><time>2026-04-22T09:36:58.719Z</time></trkpt><trkpt lat="43.6401833" lon="12.0668683"><ele>406.0</ele><time>2026-04-22T09:36:59.72Z</time></trkpt><trkpt lat="43.640005" lon="12.0669517"><ele>406.0</ele><time>2026-04-22T09:37:00.719Z</time></trkpt><trkpt lat="43.6398333" lon="12.0670183"><ele>406.0</ele><time>2026-04-22T09:37:01.719Z</time></trkpt><trkpt lat="43.63965" lon="12.0670717"><ele>406.0</ele><time>2026-04-22T09:37:02.719Z</time></trkpt><trkpt lat="43.6394683" lon="12.06713"><ele>406.0</ele><time>2026-04-22T09:37:03.719Z</time></trkpt><trkpt lat="43.639285" lon="12.06719"><ele>406.0</ele><time>2026-04-22T09:37:04.719Z</time></trkpt><trkpt lat="43.6390967" lon="12.067245"><ele>404.6666666666667</ele><time>2026-04-22T09:37:05.719Z</time></trkpt><trkpt lat="43.63891" lon="12.0672967"><ele>403.33333333333337</ele><time>2026-04-22T09:37:06.719Z</time></trkpt><trkpt lat="43.638725" lon="12.0673483"><ele>402.0</ele><time>2026-04-22T09:37:07.719Z</time></trkpt><trkpt lat="43.6385467" lon="12.0674033"><ele>403.0</ele><time>2026-04-22T09:37:08.719Z</time></trkpt><trkpt lat="43.6383617" lon="12.0674583"><ele>404.0</ele><time>2026-04-22T09:37:09.719Z</time></trkpt><trkpt lat="43.6381783" lon="12.0675183"><ele>405.0</ele><time>2026-04-22T09:37:10.72Z</time></trkpt><trkpt lat="43.63799" lon="12.06758"><ele>405.0</ele><time>2026-04-22T09:37:11.719Z</time></trkpt><trkpt lat="43.6378033" lon="12.067635"><ele>405.0</ele><time>2026-04-22T09:37:12.719Z</time></trkpt><trkpt lat="43.6376167" lon="12.0676867"><ele>405.0</ele><time>2026-04-22T09:37:13.719Z</time></trkpt><trkpt lat="43.637435" lon="12.0677467"><ele>405.0</ele><time>2026-04-22T09:37:14.719Z</time></trkpt><trkpt lat="43.6372533" lon="12.067805"><ele>405.0</ele><time>2026-04-22T09:37:15.719Z</time></trkpt><trkpt lat="43.6370683" lon="12.0678633"><ele>405.0</ele><time>2026-04-22T09:37:16.719Z</time></trkpt><trkpt lat="43.6368817" lon="12.0679233"><ele>404.0</ele><time>2026-04-22T09:37:17.719Z</time></trkpt><trkpt lat="43.6366917" lon="12.06798"><ele>403.0</ele><time>2026-04-22T09:37:18.719Z</time></trkpt><trkpt lat="43.6365117" lon="12.068035"><ele>402.0</ele><time>2026-04-22T09:37:19.72Z</time></trkpt><trkpt lat="43.6363233" lon="12.0680833"><ele>402.0</ele><time>2026-04-22T09:37:20.719Z</time></trkpt><trkpt lat="43.6361383" lon="12.0681467"><ele>402.0</ele><time>2026-04-22T09:37:21.719Z</time></trkpt><trkpt lat="43.6359567" lon="12.0682167"><ele>402.0</ele><time>2026-04-22T09:37:22.719Z</time></trkpt><trkpt lat="43.635785" lon="12.0682983"><ele>403.0</ele><time>2026-04-22T09:37:23.719Z</time></trkpt><trkpt lat="43.6356133" lon="12.0684"><ele>404.0</ele><time>2026-04-22T09:37:24.719Z</time></trkpt><trkpt lat="43.63545" lon="12.0684967"><ele>405.0</ele><time>2026-04-22T09:37:25.719Z</time></trkpt><trkpt lat="43.635285" lon="12.0686"><ele>405.0</ele><time>2026-04-22T09:37:26.719Z</time></trkpt><trkpt lat="43.6351167" lon="12.0687033"><ele>405.0</ele><time>2026-04-22T09:37:27.719Z</time></trkpt><trkpt lat="43.6349383" lon="12.0688083"><ele>405.0</ele><time>2026-04-22T09:37:28.719Z</time></trkpt><trkpt lat="43.6347667" lon="12.0689183"><ele>405.0</ele><time>2026-04-22T09:37:29.719Z</time></trkpt><trkpt lat="43.634605" lon="12.06902"><ele>405.0</ele><time>2026-04-22T09:37:30.719Z</time></trkpt><trkpt lat="43.6344333" lon="12.06913"><ele>405.0</ele><time>2026-04-22T09:37:31.719Z</time></trkpt><trkpt lat="43.6342617" lon="12.0692383"><ele>405.33333333333337</ele><time>2026-04-22T09:37:32.719Z</time></trkpt><trkpt lat="43.63409" lon="12.069345"><ele>405.6666666666667</ele><time>2026-04-22T09:37:33.719Z</time></trkpt><trkpt lat="43.6339233" lon="12.0694583"><ele>406.0</ele><time>2026-04-22T09:37:34.719Z</time></trkpt><trkpt lat="43.6337583" lon="12.06957"><ele>403.33333333333337</ele><time>2026-04-22T09:37:35.719Z</time></trkpt><trkpt lat="43.633595" lon="12.0696717"><ele>400.66666666666663</ele><time>2026-04-22T09:37:36.719Z</time></trkpt><trkpt lat="43.6334267" lon="12.0697767"><ele>398.0</ele><time>2026-04-22T09:37:37.719Z</time></trkpt><trkpt lat="43.633255" lon="12.0698833"><ele>399.3333333333333</ele><time>2026-04-22T09:37:38.719Z</time></trkpt><trkpt lat="43.6330867" lon="12.0699967"><ele>400.66666666666663</ele><time>2026-04-22T09:37:39.719Z</time></trkpt><trkpt lat="43.6329233" lon="12.070105"><ele>402.0</ele><time>2026-04-22T09:37:40.719Z</time></trkpt><trkpt lat="43.6327567" lon="12.070235"><ele>402.0</ele><time>2026-04-22T09:37:41.72Z</time></trkpt><trkpt lat="43.6326033" lon="12.0703883"><ele>402.0</ele><time>2026-04-22T09:37:42.719Z</time></trkpt><trkpt lat="43.6324533" lon="12.0705517"><ele>402.0</ele><time>2026-04-22T09:37:43.719Z</time></trkpt><trkpt lat="43.632305" lon="12.0707133"><ele>401.66666666666663</ele><time>2026-04-22T09:37:44.719Z</time></trkpt><trkpt lat="43.632155" lon="12.07087"><ele>401.3333333333333</ele><time>2026-04-22T09:37:45.719Z</time></trkpt><trkpt lat="43.6320067" lon="12.0710333"><ele>401.0</ele><time>2026-04-22T09:37:46.719Z</time></trkpt><trkpt lat="43.631855" lon="12.0712"><ele>401.0</ele><time>2026-04-22T09:37:47.719Z</time></trkpt><trkpt lat="43.6317017" lon="12.071365"><ele>401.0</ele><time>2026-04-22T09:37:48.72Z</time></trkpt><trkpt lat="43.6315467" lon="12.071525"><ele>401.0</ele><time>2026-04-22T09:37:49.719Z</time></trkpt><trkpt lat="43.6313983" lon="12.0716917"><ele>400.3333333333333</ele><time>2026-04-22T09:37:50.719Z</time></trkpt><trkpt lat="43.6312517" lon="12.0718533"><ele>399.66666666666663</ele><time>2026-04-22T09:37:51.719Z</time></trkpt><trkpt lat="43.6311083" lon="12.072025"><ele>399.0</ele><time>2026-04-22T09:37:52.719Z</time></trkpt><trkpt lat="43.630975" lon="12.07221"><ele>399.0</ele><time>2026-04-22T09:37:53.719Z</time></trkpt><trkpt lat="43.63085" lon="12.0724083"><ele>399.0</ele><time>2026-04-22T09:37:54.719Z</time></trkpt><trkpt lat="43.6307417" lon="12.07262"><ele>399.0</ele><time>2026-04-22T09:37:55.719Z</time></trkpt><trkpt lat="43.63064" lon="12.0728417"><ele>400.66666666666663</ele><time>2026-04-22T09:37:56.719Z</time></trkpt><trkpt lat="43.6305333" lon="12.073065"><ele>402.3333333333333</ele><time>2026-04-22T09:37:57.719Z</time></trkpt><trkpt lat="43.6304183" lon="12.0732817"><ele>404.0</ele><time>2026-04-22T09:37:58.719Z</time></trkpt><trkpt lat="43.6303017" lon="12.0735"><ele>404.0</ele><time>2026-04-22T09:37:59.72Z</time></trkpt><trkpt lat="43.6301717" lon="12.0736933"><ele>404.0</ele><time>2026-04-22T09:38:00.719Z</time></trkpt><trkpt lat="43.630035" lon="12.0738833"><ele>404.0</ele><time>2026-04-22T09:38:01.719Z</time></trkpt><trkpt lat="43.6298917" lon="12.07406"><ele>405.66666666666663</ele><time>2026-04-22T09:38:02.719Z</time></trkpt><trkpt lat="43.629755" lon="12.07424"><ele>407.33333333333337</ele><time>2026-04-22T09:38:03.719Z</time></trkpt><trkpt lat="43.6296267" lon="12.0744317"><ele>409.0</ele><time>2026-04-22T09:38:04.719Z</time></trkpt><trkpt lat="43.62951" lon="12.07463"><ele>407.6666666666667</ele><time>2026-04-22T09:38:05.719Z</time></trkpt><trkpt lat="43.6293933" lon="12.0748317"><ele>406.33333333333337</ele><time>2026-04-22T09:38:06.72Z</time></trkpt><trkpt lat="43.6292817" lon="12.07504"><ele>405.0</ele><time>2026-04-22T09:38:07.719Z</time></trkpt><trkpt lat="43.6291667" lon="12.075245"><ele>405.0</ele><time>2026-04-22T09:38:08.719Z</time></trkpt><trkpt lat="43.6290533" lon="12.0754517"><ele>405.0</ele><time>2026-04-22T09:38:09.719Z</time></trkpt><trkpt lat="43.6289367" lon="12.0756567"><ele>405.0</ele><time>2026-04-22T09:38:10.719Z</time></trkpt><trkpt lat="43.6288217" lon="12.07586"><ele>405.33333333333337</ele><time>2026-04-22T09:38:11.719Z</time></trkpt><trkpt lat="43.62871" lon="12.0760533"><ele>405.6666666666667</ele><time>2026-04-22T09:38:12.719Z</time></trkpt><trkpt lat="43.6286133" lon="12.0762333"><ele>406.0</ele><time>2026-04-22T09:38:13.719Z</time></trkpt><trkpt lat="43.6285333" lon="12.0764117"><ele>406.0</ele><time>2026-04-22T09:38:14.72Z</time></trkpt><trkpt lat="43.628465" lon="12.0765883"><ele>406.0</ele><time>2026-04-22T09:38:15.719Z</time></trkpt><trkpt lat="43.6284283" lon="12.0767717"><ele>406.0</ele><time>2026-04-22T09:38:16.719Z</time></trkpt><trkpt lat="43.62841" lon="12.076955"><ele>406.0</ele><time>2026-04-22T09:38:17.719Z</time></trkpt><trkpt lat="43.62842" lon="12.0771283"><ele>406.0</ele><time>2026-04-22T09:38:18.719Z</time></trkpt><trkpt lat="43.6284583" lon="12.0773083"><ele>406.0</ele><time>2026-04-22T09:38:19.719Z</time></trkpt><trkpt lat="43.6285183" lon="12.0774883"><ele>406.0</ele><time>2026-04-22T09:38:20.719Z</time></trkpt><trkpt lat="43.6286033" lon="12.0776633"><ele>406.0</ele><time>2026-04-22T09:38:21.719Z</time></trkpt><trkpt lat="43.6286967" lon="12.0778483"><ele>408.6666666666667</ele><time>2026-04-22T09:38:22.719Z</time></trkpt><trkpt lat="43.6287917" lon="12.0780483"><ele>411.33333333333337</ele><time>2026-04-22T09:38:23.719Z</time></trkpt><trkpt lat="43.62889" lon="12.0782467"><ele>414.0</ele><time>2026-04-22T09:38:24.719Z</time></trkpt><trkpt lat="43.6289967" lon="12.07846"><ele>414.0</ele><time>2026-04-22T09:38:25.719Z</time></trkpt><trkpt lat="43.629095" lon="12.078675"><ele>414.0</ele><time>2026-04-22T09:38:26.719Z</time></trkpt><trkpt lat="43.6291983" lon="12.0788817"><ele>414.0</ele><time>2026-04-22T09:38:27.72Z</time></trkpt><trkpt lat="43.6292983" lon="12.0790917"><ele>414.0</ele><time>2026-04-22T09:38:28.719Z</time></trkpt><trkpt lat="43.6294033" lon="12.0792967"><ele>414.0</ele><time>2026-04-22T09:38:29.719Z</time></trkpt><trkpt lat="43.6295083" lon="12.0795033"><ele>414.0</ele><time>2026-04-22T09:38:30.719Z</time></trkpt><trkpt lat="43.62961" lon="12.079715"><ele>414.0</ele><time>2026-04-22T09:38:31.719Z</time></trkpt><trkpt lat="43.6297033" lon="12.0799283"><ele>414.0</ele><time>2026-04-22T09:38:32.719Z</time></trkpt><trkpt lat="43.629795" lon="12.0801217"><ele>414.0</ele><time>2026-04-22T09:38:33.719Z</time></trkpt><trkpt lat="43.6298783" lon="12.0803033"><ele>414.0</ele><time>2026-04-22T09:38:34.719Z</time></trkpt><trkpt lat="43.6299567" lon="12.0804717"><ele>414.0</ele><time>2026-04-22T09:38:35.719Z</time></trkpt><trkpt lat="43.63003" lon="12.0806333"><ele>414.0</ele><time>2026-04-22T09:38:36.719Z</time></trkpt><trkpt lat="43.6300967" lon="12.0807933"><ele>414.0</ele><time>2026-04-22T09:38:37.719Z</time></trkpt><trkpt lat="43.6301483" lon="12.0809617"><ele>413.0</ele><time>2026-04-22T09:38:38.719Z</time></trkpt><trkpt lat="43.6301883" lon="12.0811467"><ele>412.0</ele><time>2026-04-22T09:38:39.719Z</time></trkpt><trkpt lat="43.63019" lon="12.0813233"><ele>411.0</ele><time>2026-04-22T09:38:40.719Z</time></trkpt><trkpt lat="43.6301717" lon="12.0814917"><ele>410.0</ele><time>2026-04-22T09:38:41.719Z</time></trkpt><trkpt lat="43.6301117" lon="12.08166"><ele>408.66666666666663</ele><time>2026-04-22T09:38:42.719Z</time></trkpt><trkpt lat="43.63003" lon="12.08182"><ele>407.33333333333337</ele><time>2026-04-22T09:38:43.719Z</time></trkpt><trkpt lat="43.6299217" lon="12.08198"><ele>406.0</ele><time>2026-04-22T09:38:44.719Z</time></trkpt><trkpt lat="43.629805" lon="12.08214"><ele>406.0</ele><time>2026-04-22T09:38:45.719Z</time></trkpt><trkpt lat="43.6296833" lon="12.0822983"><ele>406.0</ele><time>2026-04-22T09:38:46.719Z</time></trkpt><trkpt lat="43.62956" lon="12.0824683"><ele>406.0</ele><time>2026-04-22T09:38:47.719Z</time></trkpt><trkpt lat="43.6294333" lon="12.0826417"><ele>405.25</ele><time>2026-04-22T09:38:48.719Z</time></trkpt><trkpt lat="43.6293133" lon="12.0827933"><ele>404.5</ele><time>2026-04-22T09:38:49.719Z</time></trkpt><trkpt lat="43.629205" lon="12.0829117"><ele>403.75</ele><time>2026-04-22T09:38:50.719Z</time></trkpt><trkpt lat="43.6290933" lon="12.0829817"><ele>403.0</ele><time>2026-04-22T09:38:51.719Z</time></trkpt><trkpt lat="43.6289817" lon="12.083"><ele>403.0</ele><time>2026-04-22T09:38:52.719Z</time></trkpt><trkpt lat="43.62888" lon="12.0829733"><ele>403.0</ele><time>2026-04-22T09:38:53.719Z</time></trkpt><trkpt lat="43.6287733" lon="12.0828883"><ele>403.0</ele><time>2026-04-22T09:38:54.719Z</time></trkpt><trkpt lat="43.6286833" lon="12.0827717"><ele>403.0</ele><time>2026-04-22T09:38:55.72Z</time></trkpt><trkpt lat="43.62859" lon="12.0826433"><ele>404.0</ele><time>2026-04-22T09:38:56.719Z</time></trkpt><trkpt lat="43.6284967" lon="12.082505"><ele>405.0</ele><time>2026-04-22T09:38:57.719Z</time></trkpt><trkpt lat="43.6284017" lon="12.0823617"><ele>406.0</ele><time>2026-04-22T09:38:58.719Z</time></trkpt><trkpt lat="43.6283067" lon="12.0822183"><ele>407.0</ele><time>2026-04-22T09:38:59.719Z</time></trkpt><trkpt lat="43.6281983" lon="12.0820783"><ele>407.0</ele><time>2026-04-22T09:39:00.719Z</time></trkpt><trkpt lat="43.6280917" lon="12.0819217"><ele>407.0</ele><time>2026-04-22T09:39:01.719Z</time></trkpt><trkpt lat="43.6279817" lon="12.0817567"><ele>407.0</ele><time>2026-04-22T09:39:02.72Z</time></trkpt><trkpt lat="43.6278633" lon="12.081595"><ele>411.0</ele><time>2026-04-22T09:39:03.719Z</time></trkpt><trkpt lat="43.6277483" lon="12.081435"><ele>415.0</ele><time>2026-04-22T09:39:04.72Z</time></trkpt><trkpt lat="43.627645" lon="12.0812967"><ele>419.0</ele><time>2026-04-22T09:39:05.72Z</time></trkpt><trkpt lat="43.6275467" lon="12.0811683"><ele>423.0</ele><time>2026-04-22T09:39:06.719Z</time></trkpt><trkpt lat="43.6274367" lon="12.08104"><ele>423.0</ele><time>2026-04-22T09:39:07.719Z</time></trkpt><trkpt lat="43.6273217" lon="12.080915"><ele>423.0</ele><time>2026-04-22T09:39:08.72Z</time></trkpt><trkpt lat="43.627185" lon="12.0807883"><ele>423.0</ele><time>2026-04-22T09:39:09.719Z</time></trkpt><trkpt lat="43.6270467" lon="12.0806683"><ele>421.0</ele><time>2026-04-22T09:39:10.719Z</time></trkpt><trkpt lat="43.6269083" lon="12.0805533"><ele>419.0</ele><time>2026-04-22T09:39:11.719Z</time></trkpt><trkpt lat="43.62677" lon="12.0804417"><ele>417.0</ele><time>2026-04-22T09:39:12.719Z</time></trkpt><trkpt lat="43.62663" lon="12.0803217"><ele>417.0</ele><time>2026-04-22T09:39:13.719Z</time></trkpt><trkpt lat="43.626485" lon="12.0802033"><ele>417.0</ele><time>2026-04-22T09:39:14.719Z</time></trkpt><trkpt lat="43.6263317" lon="12.080085"><ele>417.0</ele><time>2026-04-22T09:39:15.719Z</time></trkpt><trkpt lat="43.62618" lon="12.0799583"><ele>416.0</ele><time>2026-04-22T09:39:16.719Z</time></trkpt><trkpt lat="43.62602" lon="12.079835"><ele>415.0</ele><time>2026-04-22T09:39:17.719Z</time></trkpt><trkpt lat="43.6258617" lon="12.0797117"><ele>414.0</ele><time>2026-04-22T09:39:18.719Z</time></trkpt><trkpt lat="43.6257033" lon="12.07959"><ele>414.0</ele><time>2026-04-22T09:39:19.719Z</time></trkpt><trkpt lat="43.6255533" lon="12.0794717"><ele>414.0</ele><time>2026-04-22T09:39:20.719Z</time></trkpt><trkpt lat="43.6254183" lon="12.0793583"><ele>414.0</ele><time>2026-04-22T09:39:21.719Z</time></trkpt><trkpt lat="43.62529" lon="12.07926"><ele>415.0</ele><time>2026-04-22T09:39:22.719Z</time></trkpt><trkpt lat="43.6251733" lon="12.0791667"><ele>416.0</ele><time>2026-04-22T09:39:23.72Z</time></trkpt><trkpt lat="43.62506" lon="12.079095"><ele>417.0</ele><time>2026-04-22T09:39:24.72Z</time></trkpt><trkpt lat="43.6249483" lon="12.07905"><ele>418.0</ele><time>2026-04-22T09:39:25.719Z</time></trkpt><trkpt lat="43.6248333" lon="12.0790317"><ele>418.0</ele><time>2026-04-22T09:39:26.719Z</time></trkpt><trkpt lat="43.624705" lon="12.0790383"><ele>418.0</ele><time>2026-04-22T09:39:27.719Z</time></trkpt><trkpt lat="43.6245783" lon="12.0790733"><ele>418.0</ele><time>2026-04-22T09:39:28.719Z</time></trkpt><trkpt lat="43.6244533" lon="12.0791233"><ele>418.0</ele><time>2026-04-22T09:39:29.719Z</time></trkpt><trkpt lat="43.6243317" lon="12.079195"><ele>420.0</ele><time>2026-04-22T09:39:30.719Z</time></trkpt><trkpt lat="43.6242083" lon="12.0792783"><ele>422.0</ele><time>2026-04-22T09:39:31.719Z</time></trkpt><trkpt lat="43.6240867" lon="12.07938"><ele>424.0</ele><time>2026-04-22T09:39:32.719Z</time></trkpt><trkpt lat="43.6239683" lon="12.079475"><ele>426.0</ele><time>2026-04-22T09:39:33.719Z</time></trkpt><trkpt lat="43.62384" lon="12.0795833"><ele>426.0</ele><time>2026-04-22T09:39:34.719Z</time></trkpt><trkpt lat="43.6237283" lon="12.079685"><ele>426.0</ele><time>2026-04-22T09:39:35.719Z</time></trkpt><trkpt lat="43.6236117" lon="12.0797983"><ele>426.0</ele><time>2026-04-22T09:39:36.719Z</time></trkpt><trkpt lat="43.62351" lon="12.0799283"><ele>426.0</ele><time>2026-04-22T09:39:37.72Z</time></trkpt><trkpt lat="43.6234367" lon="12.0800833"><ele>427.33333333333337</ele><time>2026-04-22T09:39:38.719Z</time></trkpt><trkpt lat="43.6233833" lon="12.0802683"><ele>428.6666666666667</ele><time>2026-04-22T09:39:39.719Z</time></trkpt><trkpt lat="43.6233383" lon="12.080465"><ele>430.0</ele><time>2026-04-22T09:39:40.719Z</time></trkpt><trkpt lat="43.62329" lon="12.0806733"><ele>434.33333333333337</ele><time>2026-04-22T09:39:41.719Z</time></trkpt><trkpt lat="43.6232367" lon="12.0808867"><ele>438.66666666666663</ele><time>2026-04-22T09:39:42.72Z</time></trkpt><trkpt lat="43.6231917" lon="12.0811067"><ele>443.0</ele><time>2026-04-22T09:39:43.719Z</time></trkpt><trkpt lat="43.6231433" lon="12.0813283"><ele>443.0</ele><time>2026-04-22T09:39:44.719Z</time></trkpt><trkpt lat="43.62309" lon="12.0815467"><ele>443.0</ele><time>2026-04-22T09:39:45.719Z</time></trkpt><trkpt lat="43.6230317" lon="12.08177"><ele>443.0</ele><time>2026-04-22T09:39:46.719Z</time></trkpt><trkpt lat="43.62298" lon="12.0819867"><ele>443.75</ele><time>2026-04-22T09:39:47.719Z</time></trkpt><trkpt lat="43.6229367" lon="12.0821933"><ele>444.5</ele><time>2026-04-22T09:39:48.719Z</time></trkpt><trkpt lat="43.6228867" lon="12.082395"><ele>445.25</ele><time>2026-04-22T09:39:49.719Z</time></trkpt><trkpt lat="43.6228383" lon="12.082575"><ele>446.0</ele><time>2026-04-22T09:39:50.719Z</time></trkpt><trkpt lat="43.6228" lon="12.08273"><ele>446.0</ele><time>2026-04-22T09:39:51.72Z</time></trkpt><trkpt lat="43.6227583" lon="12.0828867"><ele>446.0</ele><time>2026-04-22T09:39:52.719Z</time></trkpt><trkpt lat="43.62271" lon="12.0830367"><ele>446.0</ele><time>2026-04-22T09:39:53.719Z</time></trkpt><trkpt lat="43.6226417" lon="12.083185"><ele>446.0</ele><time>2026-04-22T09:39:54.719Z</time></trkpt><trkpt lat="43.6225667" lon="12.0833167"><ele>448.25</ele><time>2026-04-22T09:39:55.719Z</time></trkpt><trkpt lat="43.6224733" lon="12.0834467"><ele>450.5</ele><time>2026-04-22T09:39:56.719Z</time></trkpt><trkpt lat="43.6223683" lon="12.08356"><ele>452.75</ele><time>2026-04-22T09:39:57.719Z</time></trkpt><trkpt lat="43.622245" lon="12.0836633"><ele>455.0</ele><time>2026-04-22T09:39:58.719Z</time></trkpt><trkpt lat="43.6221083" lon="12.0837483"><ele>455.0</ele><time>2026-04-22T09:39:59.719Z</time></trkpt><trkpt lat="43.62196" lon="12.0838117"><ele>455.0</ele><time>2026-04-22T09:40:00.719Z</time></trkpt><trkpt lat="43.6218117" lon="12.0838783"><ele>455.0</ele><time>2026-04-22T09:40:01.719Z</time></trkpt><trkpt lat="43.62165" lon="12.083935"><ele>455.0</ele><time>2026-04-22T09:40:02.72Z</time></trkpt><trkpt lat="43.6214767" lon="12.0839917"><ele>455.0</ele><time>2026-04-22T09:40:03.719Z</time></trkpt><trkpt lat="43.6213" lon="12.084035"><ele>455.0</ele><time>2026-04-22T09:40:04.719Z</time></trkpt><trkpt lat="43.6211317" lon="12.0840933"><ele>459.3333333333333</ele><time>2026-04-22T09:40:05.719Z</time></trkpt><trkpt lat="43.6209717" lon="12.08414"><ele>463.66666666666663</ele><time>2026-04-22T09:40:06.719Z</time></trkpt><trkpt lat="43.6208183" lon="12.0841983"><ele>468.0</ele><time>2026-04-22T09:40:07.719Z</time></trkpt><trkpt lat="43.6206633" lon="12.0842467"><ele>468.0</ele><time>2026-04-22T09:40:08.719Z</time></trkpt><trkpt lat="43.6205133" lon="12.0842983"><ele>468.0</ele><time>2026-04-22T09:40:09.719Z</time></trkpt><trkpt lat="43.6203683" lon="12.0843717"><ele>468.0</ele><time>2026-04-22T09:40:10.719Z</time></trkpt><trkpt lat="43.62022" lon="12.0844667"><ele>467.0</ele><time>2026-04-22T09:40:11.719Z</time></trkpt><trkpt lat="43.6200717" lon="12.08457"><ele>466.0</ele><time>2026-04-22T09:40:12.719Z</time></trkpt><trkpt lat="43.6199333" lon="12.0846933"><ele>465.0</ele><time>2026-04-22T09:40:13.719Z</time></trkpt><trkpt lat="43.619795" lon="12.0848433"><ele>464.0</ele><time>2026-04-22T09:40:14.719Z</time></trkpt><trkpt lat="43.6196683" lon="12.0850267"><ele>463.0</ele><time>2026-04-22T09:40:15.719Z</time></trkpt><trkpt lat="43.619555" lon="12.08523"><ele>462.0</ele><time>2026-04-22T09:40:16.719Z</time></trkpt><trkpt lat="43.6194433" lon="12.0854517"><ele>462.0</ele><time>2026-04-22T09:40:17.72Z</time></trkpt><trkpt lat="43.6193333" lon="12.0856667"><ele>462.0</ele><time>2026-04-22T09:40:18.719Z</time></trkpt><trkpt lat="43.6192233" lon="12.0858867"><ele>462.0</ele><time>2026-04-22T09:40:19.719Z</time></trkpt><trkpt lat="43.6191117" lon="12.0860983"><ele>464.0</ele><time>2026-04-22T09:40:20.719Z</time></trkpt><trkpt lat="43.6190017" lon="12.08631"><ele>466.0</ele><time>2026-04-22T09:40:21.72Z</time></trkpt><trkpt lat="43.61889" lon="12.086515"><ele>468.0</ele><time>2026-04-22T09:40:22.719Z</time></trkpt><trkpt lat="43.6187883" lon="12.0867233"><ele>468.66666666666663</ele><time>2026-04-22T09:40:23.72Z</time></trkpt><trkpt lat="43.6186817" lon="12.08693"><ele>469.3333333333333</ele><time>2026-04-22T09:40:24.72Z</time></trkpt><trkpt lat="43.6185733" lon="12.0871183"><ele>470.0</ele><time>2026-04-22T09:40:25.719Z</time></trkpt><trkpt lat="43.61847" lon="12.0872567"><ele>470.0</ele><time>2026-04-22T09:40:26.719Z</time></trkpt><trkpt lat="43.6183567" lon="12.0873483"><ele>470.0</ele><time>2026-04-22T09:40:27.719Z</time></trkpt><trkpt lat="43.61824" lon="12.087385"><ele>470.0</ele><time>2026-04-22T09:40:28.719Z</time></trkpt><trkpt lat="43.618115" lon="12.0873683"><ele>470.0</ele><time>2026-04-22T09:40:29.72Z</time></trkpt><trkpt lat="43.6180017" lon="12.0873083"><ele>470.0</ele><time>2026-04-22T09:40:30.719Z</time></trkpt><trkpt lat="43.6178917" lon="12.0872083"><ele>470.0</ele><time>2026-04-22T09:40:31.719Z</time></trkpt><trkpt lat="43.6177817" lon="12.0870683"><ele>470.0</ele><time>2026-04-22T09:40:32.719Z</time></trkpt><trkpt lat="43.6176717" lon="12.0869133"><ele>470.0</ele><time>2026-04-22T09:40:33.719Z</time></trkpt><trkpt lat="43.6175567" lon="12.08674"><ele>469.3333333333333</ele><time>2026-04-22T09:40:34.719Z</time></trkpt><trkpt lat="43.61744" lon="12.0865667"><ele>468.66666666666663</ele><time>2026-04-22T09:40:35.719Z</time></trkpt><trkpt lat="43.61732" lon="12.0863817"><ele>468.0</ele><time>2026-04-22T09:40:36.719Z</time></trkpt><trkpt lat="43.61721" lon="12.0862083"><ele>468.0</ele><time>2026-04-22T09:40:37.719Z</time></trkpt><trkpt lat="43.6171033" lon="12.08604"><ele>468.0</ele><time>2026-04-22T09:40:38.719Z</time></trkpt><trkpt lat="43.616995" lon="12.0858533"><ele>468.0</ele><time>2026-04-22T09:40:39.72Z</time></trkpt><trkpt lat="43.6168817" lon="12.0856533"><ele>470.33333333333337</ele><time>2026-04-22T09:40:40.719Z</time></trkpt><trkpt lat="43.616755" lon="12.08545"><ele>472.6666666666667</ele><time>2026-04-22T09:40:41.719Z</time></trkpt><trkpt lat="43.6166433" lon="12.0852583"><ele>475.0</ele><time>2026-04-22T09:40:42.719Z</time></trkpt><trkpt lat="43.6165333" lon="12.085075"><ele>471.6666666666667</ele><time>2026-04-22T09:40:43.719Z</time></trkpt><trkpt lat="43.6164233" lon="12.084905"><ele>468.33333333333337</ele><time>2026-04-22T09:40:44.719Z</time></trkpt><trkpt lat="43.61631" lon="12.0847483"><ele>465.0</ele><time>2026-04-22T09:40:45.719Z</time></trkpt><trkpt lat="43.6161783" lon="12.0846167"><ele>467.0</ele><time>2026-04-22T09:40:46.719Z</time></trkpt><trkpt lat="43.6160417" lon="12.0845233"><ele>469.0</ele><time>2026-04-22T09:40:47.719Z</time></trkpt><trkpt lat="43.6159167" lon="12.0844817"><ele>471.0</ele><time>2026-04-22T09:40:48.719Z</time></trkpt><trkpt lat="43.6157683" lon="12.0844933"><ele>473.0</ele><time>2026-04-22T09:40:49.719Z</time></trkpt><trkpt lat="43.6156033" lon="12.0845267"><ele>473.0</ele><time>2026-04-22T09:40:50.719Z</time></trkpt><trkpt lat="43.61542" lon="12.0845683"><ele>473.0</ele><time>2026-04-22T09:40:51.719Z</time></trkpt><trkpt lat="43.6152283" lon="12.08459"><ele>473.0</ele><time>2026-04-22T09:40:52.719Z</time></trkpt><trkpt lat="43.61504" lon="12.0846033"><ele>470.66666666666663</ele><time>2026-04-22T09:40:53.719Z</time></trkpt><trkpt lat="43.6148583" lon="12.0846083"><ele>468.33333333333337</ele><time>2026-04-22T09:40:54.719Z</time></trkpt><trkpt lat="43.6146883" lon="12.0845783"><ele>466.0</ele><time>2026-04-22T09:40:55.719Z</time></trkpt><trkpt lat="43.61452" lon="12.084495"><ele>465.0</ele><time>2026-04-22T09:40:56.72Z</time></trkpt><trkpt lat="43.6143533" lon="12.0843867"><ele>464.0</ele><time>2026-04-22T09:40:57.719Z</time></trkpt><trkpt lat="43.6141883" lon="12.0842617"><ele>463.0</ele><time>2026-04-22T09:40:58.719Z</time></trkpt><trkpt lat="43.6140133" lon="12.084135"><ele>464.0</ele><time>2026-04-22T09:40:59.719Z</time></trkpt><trkpt lat="43.6138383" lon="12.084005"><ele>465.0</ele><time>2026-04-22T09:41:00.719Z</time></trkpt><trkpt lat="43.6136717" lon="12.083885"><ele>466.0</ele><time>2026-04-22T09:41:01.719Z</time></trkpt><trkpt lat="43.6135167" lon="12.0837717"><ele>466.0</ele><time>2026-04-22T09:41:02.719Z</time></trkpt><trkpt lat="43.613365" lon="12.0836767"><ele>466.0</ele><time>2026-04-22T09:41:03.719Z</time></trkpt><trkpt lat="43.613225" lon="12.0835883"><ele>466.0</ele><time>2026-04-22T09:41:04.719Z</time></trkpt><trkpt lat="43.6131" lon="12.0835"><ele>466.0</ele><time>2026-04-22T09:41:05.719Z</time></trkpt><trkpt lat="43.6129867" lon="12.0834267"><ele>466.0</ele><time>2026-04-22T09:41:06.719Z</time></trkpt><trkpt lat="43.6128717" lon="12.0833833"><ele>466.0</ele><time>2026-04-22T09:41:07.719Z</time></trkpt><trkpt lat="43.6127517" lon="12.0833733"><ele>466.0</ele><time>2026-04-22T09:41:08.719Z</time></trkpt><trkpt lat="43.6126267" lon="12.0833983"><ele>467.75</ele><time>2026-04-22T09:41:09.719Z</time></trkpt><trkpt lat="43.6124967" lon="12.0834317"><ele>469.5</ele><time>2026-04-22T09:41:10.72Z</time></trkpt><trkpt lat="43.612365" lon="12.08347"><ele>471.25</ele><time>2026-04-22T09:41:11.719Z</time></trkpt><trkpt lat="43.6122367" lon="12.08351"><ele>473.0</ele><time>2026-04-22T09:41:12.719Z</time></trkpt><trkpt lat="43.6121067" lon="12.0835317"><ele>474.75</ele><time>2026-04-22T09:41:13.719Z</time></trkpt><trkpt lat="43.6119783" lon="12.0835367"><ele>476.5</ele><time>2026-04-22T09:41:14.719Z</time></trkpt><trkpt lat="43.611845" lon="12.083525"><ele>478.25</ele><time>2026-04-22T09:41:15.719Z</time></trkpt><trkpt lat="43.61172" lon="12.083495"><ele>480.0</ele><time>2026-04-22T09:41:16.719Z</time></trkpt><trkpt lat="43.6115933" lon="12.0834517"><ele>480.0</ele><time>2026-04-22T09:41:17.719Z</time></trkpt><trkpt lat="43.6114583" lon="12.0834017"><ele>480.0</ele><time>2026-04-22T09:41:18.719Z</time></trkpt><trkpt lat="43.6113283" lon="12.0833533"><ele>480.0</ele><time>2026-04-22T09:41:19.72Z</time></trkpt><trkpt lat="43.6111933" lon="12.08331"><ele>480.0</ele><time>2026-04-22T09:41:20.719Z</time></trkpt><trkpt lat="43.6110567" lon="12.08327"><ele>476.75</ele><time>2026-04-22T09:41:21.719Z</time></trkpt><trkpt lat="43.610925" lon="12.08323"><ele>473.5</ele><time>2026-04-22T09:41:22.719Z</time></trkpt><trkpt lat="43.6107883" lon="12.0831867"><ele>470.25</ele><time>2026-04-22T09:41:23.72Z</time></trkpt><trkpt lat="43.6106483" lon="12.083145"><ele>467.0</ele><time>2026-04-22T09:41:24.719Z</time></trkpt><trkpt lat="43.6105083" lon="12.083105"><ele>467.0</ele><time>2026-04-22T09:41:25.719Z</time></trkpt><trkpt lat="43.6103667" lon="12.083075"><ele>467.0</ele><time>2026-04-22T09:41:26.719Z</time></trkpt><trkpt lat="43.6102217" lon="12.083065"><ele>467.0</ele><time>2026-04-22T09:41:27.719Z</time></trkpt><trkpt lat="43.6100717" lon="12.0830667"><ele>467.0</ele><time>2026-04-22T09:41:28.719Z</time></trkpt><trkpt lat="43.6099233" lon="12.083085"><ele>467.0</ele><time>2026-04-22T09:41:29.719Z</time></trkpt><trkpt lat="43.6097867" lon="12.0831267"><ele>467.0</ele><time>2026-04-22T09:41:30.719Z</time></trkpt><trkpt lat="43.6096583" lon="12.08319"><ele>467.0</ele><time>2026-04-22T09:41:31.719Z</time></trkpt><trkpt lat="43.60953" lon="12.083265"><ele>467.0</ele><time>2026-04-22T09:41:32.719Z</time></trkpt><trkpt lat="43.6094067" lon="12.0833483"><ele>469.5</ele><time>2026-04-22T09:41:33.719Z</time></trkpt><trkpt lat="43.6092883" lon="12.08343"><ele>472.0</ele><time>2026-04-22T09:41:34.719Z</time></trkpt><trkpt lat="43.60918" lon="12.0835083"><ele>474.5</ele><time>2026-04-22T09:41:35.72Z</time></trkpt><trkpt lat="43.6090733" lon="12.083585"><ele>477.0</ele><time>2026-04-22T09:41:36.719Z</time></trkpt><trkpt lat="43.6089667" lon="12.0836533"><ele>477.0</ele><time>2026-04-22T09:41:37.72Z</time></trkpt><trkpt lat="43.6088617" lon="12.083725"><ele>477.0</ele><time>2026-04-22T09:41:38.719Z</time></trkpt><trkpt lat="43.6087567" lon="12.0838033"><ele>477.0</ele><time>2026-04-22T09:41:39.719Z</time></trkpt><trkpt lat="43.6086633" lon="12.083875"><ele>477.0</ele><time>2026-04-22T09:41:40.719Z</time></trkpt><trkpt lat="43.6085717" lon="12.0839633"><ele>477.0</ele><time>2026-04-22T09:41:41.719Z</time></trkpt><trkpt lat="43.6084883" lon="12.084045"><ele>477.0</ele><time>2026-04-22T09:41:42.719Z</time></trkpt><trkpt lat="43.6084067" lon="12.0841217"><ele>477.0</ele><time>2026-04-22T09:41:43.719Z</time></trkpt><trkpt lat="43.60834" lon="12.084175"><ele>477.0</ele><time>2026-04-22T09:41:44.719Z</time></trkpt><trkpt lat="43.60827" lon="12.0842"><ele>477.0</ele><time>2026-04-22T09:41:45.72Z</time></trkpt><trkpt lat="43.608195" lon="12.08419"><ele>477.0</ele><time>2026-04-22T09:41:46.719Z</time></trkpt><trkpt lat="43.60813" lon="12.0841417"><ele>474.6</ele><time>2026-04-22T09:41:47.718Z</time></trkpt><trkpt lat="43.60808" lon="12.0840583"><ele>472.20000000000005</ele><time>2026-04-22T09:41:48.718Z</time></trkpt><trkpt lat="43.6080217" lon="12.0839717"><ele>469.8</ele><time>2026-04-22T09:41:49.719Z</time></trkpt><trkpt lat="43.6079533" lon="12.0838817"><ele>467.4</ele><time>2026-04-22T09:41:50.718Z</time></trkpt><trkpt lat="43.607875" lon="12.08379"><ele>465.0</ele><time>2026-04-22T09:41:51.718Z</time></trkpt><trkpt lat="43.6077933" lon="12.0837033"><ele>463.6</ele><time>2026-04-22T09:41:52.718Z</time></trkpt><trkpt lat="43.6077067" lon="12.0836267"><ele>462.2</ele><time>2026-04-22T09:41:53.718Z</time></trkpt><trkpt lat="43.6076167" lon="12.083545"><ele>460.79999999999995</ele><time>2026-04-22T09:41:54.718Z</time></trkpt><trkpt lat="43.60752" lon="12.083465"><ele>459.4</ele><time>2026-04-22T09:41:55.718Z</time></trkpt><trkpt lat="43.6074267" lon="12.0834083"><ele>458.0</ele><time>2026-04-22T09:41:56.718Z</time></trkpt><trkpt lat="43.6073267" lon="12.0833433"><ele>458.0</ele><time>2026-04-22T09:41:57.718Z</time></trkpt><trkpt lat="43.6072233" lon="12.0832767"><ele>457.99999999999994</ele><time>2026-04-22T09:41:58.718Z</time></trkpt><trkpt lat="43.6071183" lon="12.08321"><ele>457.99999999999994</ele><time>2026-04-22T09:41:59.718Z</time></trkpt><trkpt lat="43.60703" lon="12.08314"><ele>458.0</ele><time>2026-04-22T09:42:00.718Z</time></trkpt><trkpt lat="43.60693" lon="12.0830817"><ele>458.0</ele><time>2026-04-22T09:42:01.718Z</time></trkpt><trkpt lat="43.60683" lon="12.0830233"><ele>456.0</ele><time>2026-04-22T09:42:02.718Z</time></trkpt><trkpt lat="43.6067333" lon="12.0829633"><ele>453.99999999999994</ele><time>2026-04-22T09:42:03.718Z</time></trkpt><trkpt lat="43.606635" lon="12.0829083"><ele>451.99999999999994</ele><time>2026-04-22T09:42:04.719Z</time></trkpt><trkpt lat="43.60654" lon="12.08286"><ele>450.0</ele><time>2026-04-22T09:42:05.718Z</time></trkpt><trkpt lat="43.6064433" lon="12.0828217"><ele>448.0</ele><time>2026-04-22T09:42:06.718Z</time></trkpt><trkpt lat="43.60635" lon="12.0827967"><ele>448.0</ele><time>2026-04-22T09:42:07.718Z</time></trkpt><trkpt lat="43.6062533" lon="12.0827767"><ele>447.99999999999994</ele><time>2026-04-22T09:42:08.718Z</time></trkpt><trkpt lat="43.606155" lon="12.0827617"><ele>447.99999999999994</ele><time>2026-04-22T09:42:09.718Z</time></trkpt><trkpt lat="43.6060583" lon="12.0827717"><ele>448.0</ele><time>2026-04-22T09:42:10.718Z</time></trkpt><trkpt lat="43.60596" lon="12.082775"><ele>448.0</ele><time>2026-04-22T09:42:11.718Z</time></trkpt><trkpt lat="43.6058617" lon="12.0827733"><ele>448.4</ele><time>2026-04-22T09:42:12.718Z</time></trkpt><trkpt lat="43.60577" lon="12.0827533"><ele>448.79999999999995</ele><time>2026-04-22T09:42:13.718Z</time></trkpt><trkpt lat="43.60568" lon="12.082715"><ele>449.2</ele><time>2026-04-22T09:42:14.718Z</time></trkpt><trkpt lat="43.6055933" lon="12.0826733"><ele>449.6</ele><time>2026-04-22T09:42:15.718Z</time></trkpt><trkpt lat="43.6055083" lon="12.0826233"><ele>450.0</ele><time>2026-04-22T09:42:16.718Z</time></trkpt><trkpt lat="43.6054217" lon="12.0825717"><ele>450.0</ele><time>2026-04-22T09:42:17.718Z</time></trkpt><trkpt lat="43.6053333" lon="12.08252"><ele>450.0</ele><time>2026-04-22T09:42:18.718Z</time></trkpt><trkpt lat="43.60525" lon="12.0824633"><ele>450.0</ele><time>2026-04-22T09:42:19.719Z</time></trkpt><trkpt lat="43.6051683" lon="12.08241"><ele>450.0</ele><time>2026-04-22T09:42:20.718Z</time></trkpt><trkpt lat="43.6050917" lon="12.082355"><ele>450.0</ele><time>2026-04-22T09:42:21.718Z</time></trkpt><trkpt lat="43.6050233" lon="12.082295"><ele>450.0</ele><time>2026-04-22T09:42:22.718Z</time></trkpt><trkpt lat="43.60496" lon="12.0822233"><ele>449.3333333333333</ele><time>2026-04-22T09:42:23.718Z</time></trkpt><trkpt lat="43.6048967" lon="12.08214"><ele>448.66666666666663</ele><time>2026-04-22T09:42:24.718Z</time></trkpt><trkpt lat="43.6048417" lon="12.0820483"><ele>448.0</ele><time>2026-04-22T09:42:25.718Z</time></trkpt><trkpt lat="43.6047817" lon="12.0819617"><ele>447.3333333333333</ele><time>2026-04-22T09:42:26.719Z</time></trkpt><trkpt lat="43.604725" lon="12.0818683"><ele>446.66666666666663</ele><time>2026-04-22T09:42:27.718Z</time></trkpt><trkpt lat="43.604665" lon="12.0817617"><ele>446.0</ele><time>2026-04-22T09:42:28.718Z</time></trkpt><trkpt lat="43.6046033" lon="12.081645"><ele>445.75</ele><time>2026-04-22T09:42:29.718Z</time></trkpt><trkpt lat="43.6045333" lon="12.0815133"><ele>445.5</ele><time>2026-04-22T09:42:30.718Z</time></trkpt><trkpt lat="43.6044617" lon="12.0813667"><ele>445.25</ele><time>2026-04-22T09:42:31.718Z</time></trkpt><trkpt lat="43.60439" lon="12.0812283"><ele>445.0</ele><time>2026-04-22T09:42:32.718Z</time></trkpt><trkpt lat="43.6043133" lon="12.0810817"><ele>445.0</ele><time>2026-04-22T09:42:33.718Z</time></trkpt><trkpt lat="43.604235" lon="12.080935"><ele>445.0</ele><time>2026-04-22T09:42:34.718Z</time></trkpt><trkpt lat="43.60415" lon="12.0807733"><ele>445.0</ele><time>2026-04-22T09:42:35.719Z</time></trkpt><trkpt lat="43.6040633" lon="12.080615"><ele>445.0</ele><time>2026-04-22T09:42:36.718Z</time></trkpt><trkpt lat="43.6039833" lon="12.080465"><ele>445.0</ele><time>2026-04-22T09:42:37.718Z</time></trkpt><trkpt lat="43.6039017" lon="12.0803133"><ele>445.0</ele><time>2026-04-22T09:42:38.718Z</time></trkpt><trkpt lat="43.60382" lon="12.080155"><ele>445.0</ele><time>2026-04-22T09:42:39.718Z</time></trkpt><trkpt lat="43.6037417" lon="12.079995"><ele>445.0</ele><time>2026-04-22T09:42:40.718Z</time></trkpt><trkpt lat="43.60366" lon="12.0798467"><ele>445.0</ele><time>2026-04-22T09:42:41.718Z</time></trkpt><trkpt lat="43.603575" lon="12.0796983"><ele>445.0</ele><time>2026-04-22T09:42:42.718Z</time></trkpt><trkpt lat="43.6034917" lon="12.0795467"><ele>445.0</ele><time>2026-04-22T09:42:43.718Z</time></trkpt><trkpt lat="43.60341" lon="12.0793983"><ele>445.0</ele><time>2026-04-22T09:42:44.718Z</time></trkpt><trkpt lat="43.6033333" lon="12.07925"><ele>443.0</ele><time>2026-04-22T09:42:45.718Z</time></trkpt><trkpt lat="43.6032617" lon="12.0790967"><ele>441.0</ele><time>2026-04-22T09:42:46.718Z</time></trkpt><trkpt lat="43.6031933" lon="12.0789533"><ele>439.0</ele><time>2026-04-22T09:42:47.718Z</time></trkpt><trkpt lat="43.60312" lon="12.0788233"><ele>437.0</ele><time>2026-04-22T09:42:48.718Z</time></trkpt><trkpt lat="43.6030433" lon="12.0787017"><ele>437.0</ele><time>2026-04-22T09:42:49.718Z</time></trkpt><trkpt lat="43.6029717" lon="12.078585"><ele>437.00000000000006</ele><time>2026-04-22T09:42:50.719Z</time></trkpt><trkpt lat="43.6028983" lon="12.0784667"><ele>437.00000000000006</ele><time>2026-04-22T09:42:51.718Z</time></trkpt><trkpt lat="43.6028283" lon="12.0783567"><ele>437.0</ele><time>2026-04-22T09:42:52.718Z</time></trkpt><trkpt lat="43.60275" lon="12.0782583"><ele>437.0</ele><time>2026-04-22T09:42:53.718Z</time></trkpt><trkpt lat="43.6026783" lon="12.078165"><ele>436.66666666666663</ele><time>2026-04-22T09:42:54.718Z</time></trkpt><trkpt lat="43.60262" lon="12.0780817"><ele>436.3333333333333</ele><time>2026-04-22T09:42:55.718Z</time></trkpt><trkpt lat="43.602565" lon="12.078005"><ele>436.0</ele><time>2026-04-22T09:42:56.718Z</time></trkpt><trkpt lat="43.6025183" lon="12.0779367"><ele>435.66666666666663</ele><time>2026-04-22T09:42:57.718Z</time></trkpt><trkpt lat="43.602455" lon="12.0778417"><ele>435.3333333333333</ele><time>2026-04-22T09:42:59.719Z</time></trkpt><trkpt lat="43.60239" lon="12.0777683"><ele>435.0</ele><time>2026-04-22T09:45:37.718Z</time></trkpt><trkpt lat="43.602335" lon="12.0776933"><ele>435.0</ele><time>2026-04-22T09:45:39.718Z</time></trkpt><trkpt lat="43.6022567" lon="12.07759"><ele>435.0</ele><time>2026-04-22T09:45:41.719Z</time></trkpt><trkpt lat="43.6022067" lon="12.0775233"><ele>435.0</ele><time>2026-04-22T09:45:42.718Z</time></trkpt><trkpt lat="43.6021567" lon="12.0774433"><ele>435.0</ele><time>2026-04-22T09:45:43.718Z</time></trkpt><trkpt lat="43.6021" lon="12.0773667"><ele>435.0</ele><time>2026-04-22T09:45:44.718Z</time></trkpt><trkpt lat="43.6020467" lon="12.077285"><ele>435.0</ele><time>2026-04-22T09:45:45.718Z</time></trkpt><trkpt lat="43.6019883" lon="12.0772017"><ele>434.0</ele><time>2026-04-22T09:45:46.718Z</time></trkpt><trkpt lat="43.6019267" lon="12.0771217"><ele>433.0</ele><time>2026-04-22T09:45:47.718Z</time></trkpt><trkpt lat="43.601865" lon="12.0770233"><ele>432.0</ele><time>2026-04-22T09:45:48.718Z</time></trkpt><trkpt lat="43.6017967" lon="12.0769267"><ele>431.0</ele><time>2026-04-22T09:45:49.718Z</time></trkpt><trkpt lat="43.60172" lon="12.07683"><ele>430.0</ele><time>2026-04-22T09:45:50.718Z</time></trkpt><trkpt lat="43.60164" lon="12.0767217"><ele>430.0</ele><time>2026-04-22T09:45:51.718Z</time></trkpt><trkpt lat="43.6015633" lon="12.0766133"><ele>430.0</ele><time>2026-04-22T09:45:52.718Z</time></trkpt><trkpt lat="43.60149" lon="12.0765"><ele>430.0</ele><time>2026-04-22T09:45:53.718Z</time></trkpt><trkpt lat="43.601405" lon="12.0763917"><ele>430.0</ele><time>2026-04-22T09:45:54.718Z</time></trkpt><trkpt lat="43.601325" lon="12.0762817"><ele>430.0</ele><time>2026-04-22T09:45:55.718Z</time></trkpt><trkpt lat="43.6012383" lon="12.0761667"><ele>427.75</ele><time>2026-04-22T09:45:56.718Z</time></trkpt><trkpt lat="43.6011533" lon="12.0760467"><ele>425.5</ele><time>2026-04-22T09:45:57.719Z</time></trkpt><trkpt lat="43.60107" lon="12.075935"><ele>423.25</ele><time>2026-04-22T09:45:58.718Z</time></trkpt><trkpt lat="43.6009817" lon="12.0758267"><ele>421.0</ele><time>2026-04-22T09:45:59.718Z</time></trkpt><trkpt lat="43.6008917" lon="12.0757183"><ele>418.5</ele><time>2026-04-22T09:46:00.719Z</time></trkpt><trkpt lat="43.6007883" lon="12.0756117"><ele>416.0</ele><time>2026-04-22T09:46:01.718Z</time></trkpt><trkpt lat="43.60068" lon="12.0755433"><ele>413.5</ele><time>2026-04-22T09:46:02.718Z</time></trkpt><trkpt lat="43.60057" lon="12.07545"><ele>411.0</ele><time>2026-04-22T09:46:03.718Z</time></trkpt><trkpt lat="43.6004483" lon="12.07537"><ele>412.25</ele><time>2026-04-22T09:46:04.718Z</time></trkpt><trkpt lat="43.6003233" lon="12.0753033"><ele>413.5</ele><time>2026-04-22T09:46:05.718Z</time></trkpt><trkpt lat="43.6001967" lon="12.0752367"><ele>414.75</ele><time>2026-04-22T09:46:06.718Z</time></trkpt><trkpt lat="43.6000683" lon="12.07517"><ele>416.0</ele><time>2026-04-22T09:46:07.718Z</time></trkpt><trkpt lat="43.5999383" lon="12.0751"><ele>416.0</ele><time>2026-04-22T09:46:08.719Z</time></trkpt><trkpt lat="43.5998133" lon="12.07503"><ele>416.0</ele><time>2026-04-22T09:46:09.718Z</time></trkpt><trkpt lat="43.5996917" lon="12.0749583"><ele>416.0</ele><time>2026-04-22T09:46:10.718Z</time></trkpt><trkpt lat="43.599565" lon="12.0748833"><ele>416.0</ele><time>2026-04-22T09:46:11.718Z</time></trkpt><trkpt lat="43.59945" lon="12.07482"><ele>414.8</ele><time>2026-04-22T09:46:12.718Z</time></trkpt><trkpt lat="43.5993417" lon="12.0747717"><ele>413.6</ele><time>2026-04-22T09:46:13.718Z</time></trkpt><trkpt lat="43.5992333" lon="12.07473"><ele>412.4</ele><time>2026-04-22T09:46:14.718Z</time></trkpt><trkpt lat="43.5991267" lon="12.074715"><ele>411.2</ele><time>2026-04-22T09:46:15.718Z</time></trkpt><trkpt lat="43.599025" lon="12.0747183"><ele>410.0</ele><time>2026-04-22T09:46:16.718Z</time></trkpt><trkpt lat="43.5989283" lon="12.07475"><ele>410.0</ele><time>2026-04-22T09:46:17.718Z</time></trkpt><trkpt lat="43.5988333" lon="12.0748133"><ele>410.0</ele><time>2026-04-22T09:46:18.719Z</time></trkpt><trkpt lat="43.5987467" lon="12.0748983"><ele>410.0</ele><time>2026-04-22T09:46:19.718Z</time></trkpt><trkpt lat="43.5986717" lon="12.0750033"><ele>410.0</ele><time>2026-04-22T09:46:20.718Z</time></trkpt><trkpt lat="43.59862" lon="12.07513"><ele>410.0</ele><time>2026-04-22T09:46:21.718Z</time></trkpt><trkpt lat="43.598595" lon="12.07527"><ele>409.0</ele><time>2026-04-22T09:46:22.718Z</time></trkpt><trkpt lat="43.5985917" lon="12.075415"><ele>408.0</ele><time>2026-04-22T09:46:23.718Z</time></trkpt><trkpt lat="43.5986033" lon="12.075565"><ele>407.0</ele><time>2026-04-22T09:46:24.719Z</time></trkpt><trkpt lat="43.5986267" lon="12.07572"><ele>406.0</ele><time>2026-04-22T09:46:25.718Z</time></trkpt><trkpt lat="43.598655" lon="12.0758767"><ele>405.0</ele><time>2026-04-22T09:46:26.718Z</time></trkpt><trkpt lat="43.5986983" lon="12.0760267"><ele>409.75</ele><time>2026-04-22T09:46:27.718Z</time></trkpt><trkpt lat="43.5987367" lon="12.0761733"><ele>414.5</ele><time>2026-04-22T09:46:28.718Z</time></trkpt><trkpt lat="43.59877" lon="12.0763367"><ele>419.25</ele><time>2026-04-22T09:46:29.718Z</time></trkpt><trkpt lat="43.5987983" lon="12.0764917"><ele>424.0</ele><time>2026-04-22T09:46:30.718Z</time></trkpt><trkpt lat="43.598825" lon="12.07665"><ele>424.25</ele><time>2026-04-22T09:46:31.718Z</time></trkpt><trkpt lat="43.5988467" lon="12.0768183"><ele>424.5</ele><time>2026-04-22T09:46:32.718Z</time></trkpt><trkpt lat="43.59887" lon="12.0769867"><ele>424.75</ele><time>2026-04-22T09:46:33.718Z</time></trkpt><trkpt lat="43.5988883" lon="12.0771667"><ele>425.0</ele><time>2026-04-22T09:46:34.718Z</time></trkpt><trkpt lat="43.5989117" lon="12.0773467"><ele>425.25</ele><time>2026-04-22T09:46:35.718Z</time></trkpt><trkpt lat="43.59893" lon="12.0775283"><ele>425.5</ele><time>2026-04-22T09:46:36.718Z</time></trkpt><trkpt lat="43.5989567" lon="12.0777117"><ele>425.75</ele><time>2026-04-22T09:46:37.718Z</time></trkpt><trkpt lat="43.59897" lon="12.0778933"><ele>426.0</ele><time>2026-04-22T09:46:38.718Z</time></trkpt><trkpt lat="43.5989883" lon="12.078085"><ele>425.25</ele><time>2026-04-22T09:46:39.718Z</time></trkpt><trkpt lat="43.5990083" lon="12.0782767"><ele>424.5</ele><time>2026-04-22T09:46:40.718Z</time></trkpt><trkpt lat="43.5990283" lon="12.0784683"><ele>423.75</ele><time>2026-04-22T09:46:41.718Z</time></trkpt><trkpt lat="43.5990483" lon="12.0786567"><ele>423.0</ele><time>2026-04-22T09:46:42.718Z</time></trkpt><trkpt lat="43.59906" lon="12.0788483"><ele>423.0</ele><time>2026-04-22T09:46:43.718Z</time></trkpt><trkpt lat="43.5990667" lon="12.07905"><ele>423.0</ele><time>2026-04-22T09:46:44.718Z</time></trkpt><trkpt lat="43.599065" lon="12.07925"><ele>423.0</ele><time>2026-04-22T09:46:45.718Z</time></trkpt><trkpt lat="43.59906" lon="12.0794383"><ele>423.0</ele><time>2026-04-22T09:46:46.718Z</time></trkpt><trkpt lat="43.599045" lon="12.079635"><ele>423.0</ele><time>2026-04-22T09:46:47.718Z</time></trkpt><trkpt lat="43.59903" lon="12.0798267"><ele>423.0</ele><time>2026-04-22T09:46:48.718Z</time></trkpt><trkpt lat="43.599" lon="12.080015"><ele>423.0</ele><time>2026-04-22T09:46:49.718Z</time></trkpt><trkpt lat="43.59896" lon="12.0801983"><ele>423.0</ele><time>2026-04-22T09:46:50.718Z</time></trkpt><trkpt lat="43.598915" lon="12.08038"><ele>423.0</ele><time>2026-04-22T09:46:51.718Z</time></trkpt><trkpt lat="43.59887" lon="12.0805583"><ele>423.0</ele><time>2026-04-22T09:46:52.718Z</time></trkpt><trkpt lat="43.5988283" lon="12.0807417"><ele>423.0</ele><time>2026-04-22T09:46:53.718Z</time></trkpt><trkpt lat="43.5987883" lon="12.0809267"><ele>423.0</ele><time>2026-04-22T09:46:54.718Z</time></trkpt><trkpt lat="43.5987467" lon="12.08111"><ele>422.25</ele><time>2026-04-22T09:46:55.718Z</time></trkpt><trkpt lat="43.598705" lon="12.0812967"><ele>421.5</ele><time>2026-04-22T09:46:56.718Z</time></trkpt><trkpt lat="43.5986683" lon="12.0814833"><ele>420.75</ele><time>2026-04-22T09:46:57.718Z</time></trkpt><trkpt lat="43.598625" lon="12.0816817"><ele>420.0</ele><time>2026-04-22T09:46:58.718Z</time></trkpt><trkpt lat="43.59858" lon="12.08187"><ele>412.75</ele><time>2026-04-22T09:46:59.718Z</time></trkpt><trkpt lat="43.59854" lon="12.0820617"><ele>405.5</ele><time>2026-04-22T09:47:00.719Z</time></trkpt><trkpt lat="43.5985" lon="12.08225"><ele>398.25</ele><time>2026-04-22T09:47:01.718Z</time></trkpt><trkpt lat="43.5984583" lon="12.0824333"><ele>391.0</ele><time>2026-04-22T09:47:02.718Z</time></trkpt><trkpt lat="43.59841" lon="12.0826117"><ele>390.0</ele><time>2026-04-22T09:47:03.718Z</time></trkpt><trkpt lat="43.59837" lon="12.0828067"><ele>389.0</ele><time>2026-04-22T09:47:04.718Z</time></trkpt><trkpt lat="43.5983217" lon="12.083005"><ele>388.0</ele><time>2026-04-22T09:47:05.718Z</time></trkpt><trkpt lat="43.598275" lon="12.083195"><ele>387.0</ele><time>2026-04-22T09:47:06.718Z</time></trkpt><trkpt lat="43.5982333" lon="12.0833833"><ele>390.0</ele><time>2026-04-22T09:47:07.718Z</time></trkpt><trkpt lat="43.598195" lon="12.083575"><ele>393.0</ele><time>2026-04-22T09:47:08.718Z</time></trkpt><trkpt lat="43.5981567" lon="12.0837633"><ele>396.0</ele><time>2026-04-22T09:47:09.718Z</time></trkpt><trkpt lat="43.5981133" lon="12.08396"><ele>399.0</ele><time>2026-04-22T09:47:10.718Z</time></trkpt><trkpt lat="43.5980733" lon="12.0841567"><ele>404.33333333333337</ele><time>2026-04-22T09:47:11.718Z</time></trkpt><trkpt lat="43.598025" lon="12.0843567"><ele>409.6666666666667</ele><time>2026-04-22T09:47:12.718Z</time></trkpt><trkpt lat="43.5979833" lon="12.0845617"><ele>415.0</ele><time>2026-04-22T09:47:13.718Z</time></trkpt><trkpt lat="43.5979383" lon="12.0847733"><ele>411.33333333333337</ele><time>2026-04-22T09:47:14.719Z</time></trkpt><trkpt lat="43.5978967" lon="12.084985"><ele>407.66666666666663</ele><time>2026-04-22T09:47:15.718Z</time></trkpt><trkpt lat="43.5978583" lon="12.0852067"><ele>404.0</ele><time>2026-04-22T09:47:16.718Z</time></trkpt><trkpt lat="43.597835" lon="12.0854183"><ele>404.0</ele><time>2026-04-22T09:47:17.718Z</time></trkpt><trkpt lat="43.597835" lon="12.0856267"><ele>404.0</ele><time>2026-04-22T09:47:18.718Z</time></trkpt><trkpt lat="43.597855" lon="12.0858333"><ele>404.0</ele><time>2026-04-22T09:47:19.718Z</time></trkpt><trkpt lat="43.597885" lon="12.08604"><ele>415.66666666666663</ele><time>2026-04-22T09:47:20.718Z</time></trkpt><trkpt lat="43.5979183" lon="12.0862517"><ele>427.33333333333337</ele><time>2026-04-22T09:47:21.718Z</time></trkpt><trkpt lat="43.5979483" lon="12.0864633"><ele>439.0</ele><time>2026-04-22T09:47:22.718Z</time></trkpt><trkpt lat="43.5979817" lon="12.0866767"><ele>439.0</ele><time>2026-04-22T09:47:23.718Z</time></trkpt><trkpt lat="43.5980083" lon="12.08689"><ele>439.0</ele><time>2026-04-22T09:47:24.718Z</time></trkpt><trkpt lat="43.5980283" lon="12.08709"><ele>439.0</ele><time>2026-04-22T09:47:25.718Z</time></trkpt><trkpt lat="43.59805" lon="12.087305"><ele>438.6666666666667</ele><time>2026-04-22T09:47:26.718Z</time></trkpt><trkpt lat="43.598075" lon="12.087515"><ele>438.33333333333337</ele><time>2026-04-22T09:47:27.718Z</time></trkpt><trkpt lat="43.5981" lon="12.087725"><ele>438.0</ele><time>2026-04-22T09:47:28.718Z</time></trkpt><trkpt lat="43.598125" lon="12.087935"><ele>438.0</ele><time>2026-04-22T09:47:29.718Z</time></trkpt><trkpt lat="43.5981467" lon="12.0881533"><ele>438.0</ele><time>2026-04-22T09:47:30.718Z</time></trkpt><trkpt lat="43.5981767" lon="12.0883533"><ele>438.0</ele><time>2026-04-22T09:47:31.718Z</time></trkpt><trkpt lat="43.5982067" lon="12.0885667"><ele>438.33333333333337</ele><time>2026-04-22T09:47:32.719Z</time></trkpt><trkpt lat="43.598235" lon="12.0887717"><ele>438.6666666666667</ele><time>2026-04-22T09:47:33.718Z</time></trkpt><trkpt lat="43.5982733" lon="12.0889983"><ele>439.0</ele><time>2026-04-22T09:47:34.718Z</time></trkpt><trkpt lat="43.59833" lon="12.0891783"><ele>436.6666666666667</ele><time>2026-04-22T09:47:35.718Z</time></trkpt><trkpt lat="43.5984083" lon="12.089365"><ele>434.33333333333337</ele><time>2026-04-22T09:47:36.718Z</time></trkpt><trkpt lat="43.5984983" lon="12.0895317"><ele>432.0</ele><time>2026-04-22T09:47:37.718Z</time></trkpt><trkpt lat="43.5985833" lon="12.0896983"><ele>434.75</ele><time>2026-04-22T09:47:38.718Z</time></trkpt><trkpt lat="43.5986767" lon="12.0898483"><ele>437.5</ele><time>2026-04-22T09:47:39.718Z</time></trkpt><trkpt lat="43.5987783" lon="12.089995"><ele>440.25</ele><time>2026-04-22T09:47:40.718Z</time></trkpt><trkpt lat="43.5988733" lon="12.09016"><ele>443.0</ele><time>2026-04-22T09:47:41.718Z</time></trkpt><trkpt lat="43.5989733" lon="12.0903167"><ele>443.0</ele><time>2026-04-22T09:47:42.718Z</time></trkpt><trkpt lat="43.5990683" lon="12.0904833"><ele>443.0</ele><time>2026-04-22T09:47:43.718Z</time></trkpt><trkpt lat="43.5991633" lon="12.09066"><ele>443.0</ele><time>2026-04-22T09:47:44.718Z</time></trkpt><trkpt lat="43.5992617" lon="12.09084"><ele>445.0</ele><time>2026-04-22T09:47:45.718Z</time></trkpt><trkpt lat="43.599355" lon="12.0910117"><ele>447.0</ele><time>2026-04-22T09:47:46.718Z</time></trkpt><trkpt lat="43.59945" lon="12.0911883"><ele>449.0</ele><time>2026-04-22T09:47:47.718Z</time></trkpt><trkpt lat="43.59954" lon="12.091365"><ele>449.0</ele><time>2026-04-22T09:47:48.718Z</time></trkpt><trkpt lat="43.59963" lon="12.09154"><ele>449.0</ele><time>2026-04-22T09:47:49.719Z</time></trkpt><trkpt lat="43.5997217" lon="12.0917167"><ele>449.0</ele><time>2026-04-22T09:47:50.718Z</time></trkpt><trkpt lat="43.5998083" lon="12.091905"><ele>443.66666666666663</ele><time>2026-04-22T09:47:51.718Z</time></trkpt><trkpt lat="43.599895" lon="12.0920867"><ele>438.33333333333337</ele><time>2026-04-22T09:47:52.718Z</time></trkpt><trkpt lat="43.59998" lon="12.0922617"><ele>433.0</ele><time>2026-04-22T09:47:53.718Z</time></trkpt><trkpt lat="43.600065" lon="12.0924433"><ele>428.0</ele><time>2026-04-22T09:47:54.718Z</time></trkpt><trkpt lat="43.6001433" lon="12.0926267"><ele>423.0</ele><time>2026-04-22T09:47:55.718Z</time></trkpt><trkpt lat="43.6002217" lon="12.0928017"><ele>418.0</ele><time>2026-04-22T09:47:56.718Z</time></trkpt><trkpt lat="43.6003033" lon="12.09299"><ele>419.33333333333337</ele><time>2026-04-22T09:47:57.718Z</time></trkpt><trkpt lat="43.6003883" lon="12.093165"><ele>420.66666666666663</ele><time>2026-04-22T09:47:58.718Z</time></trkpt><trkpt lat="43.6004733" lon="12.0933433"><ele>422.0</ele><time>2026-04-22T09:47:59.718Z</time></trkpt><trkpt lat="43.600555" lon="12.0935167"><ele>422.0</ele><time>2026-04-22T09:48:00.718Z</time></trkpt><trkpt lat="43.6006333" lon="12.093695"><ele>422.0</ele><time>2026-04-22T09:48:01.718Z</time></trkpt><trkpt lat="43.60071" lon="12.0938667"><ele>422.0</ele><time>2026-04-22T09:48:02.718Z</time></trkpt><trkpt lat="43.6007867" lon="12.0940383"><ele>422.0</ele><time>2026-04-22T09:48:03.718Z</time></trkpt><trkpt lat="43.600875" lon="12.094205"><ele>419.25</ele><time>2026-04-22T09:48:04.718Z</time></trkpt><trkpt lat="43.6009483" lon="12.094385"><ele>416.5</ele><time>2026-04-22T09:48:05.718Z</time></trkpt><trkpt lat="43.6010167" lon="12.094565"><ele>413.75</ele><time>2026-04-22T09:48:06.718Z</time></trkpt><trkpt lat="43.6010717" lon="12.0947467"><ele>411.0</ele><time>2026-04-22T09:48:07.718Z</time></trkpt><trkpt lat="43.6011217" lon="12.094935"><ele>410.25</ele><time>2026-04-22T09:48:08.718Z</time></trkpt><trkpt lat="43.6011567" lon="12.0951317"><ele>409.5</ele><time>2026-04-22T09:48:09.718Z</time></trkpt><trkpt lat="43.6011667" lon="12.0953417"><ele>408.75</ele><time>2026-04-22T09:48:10.718Z</time></trkpt><trkpt lat="43.6011467" lon="12.0955433"><ele>408.0</ele><time>2026-04-22T09:48:11.718Z</time></trkpt><trkpt lat="43.6011067" lon="12.0957433"><ele>405.33333333333337</ele><time>2026-04-22T09:48:12.718Z</time></trkpt><trkpt lat="43.6010517" lon="12.09594"><ele>402.6666666666667</ele><time>2026-04-22T09:48:13.719Z</time></trkpt><trkpt lat="43.6009917" lon="12.0961383"><ele>400.0</ele><time>2026-04-22T09:48:14.718Z</time></trkpt><trkpt lat="43.6009317" lon="12.096345"><ele>400.0</ele><time>2026-04-22T09:48:15.718Z</time></trkpt><trkpt lat="43.60087" lon="12.0965617"><ele>400.0</ele><time>2026-04-22T09:48:16.718Z</time></trkpt><trkpt lat="43.6008033" lon="12.096785"><ele>400.0</ele><time>2026-04-22T09:48:17.718Z</time></trkpt><trkpt lat="43.6007317" lon="12.0970067"><ele>399.33333333333337</ele><time>2026-04-22T09:48:18.718Z</time></trkpt><trkpt lat="43.6006683" lon="12.0972217"><ele>398.66666666666663</ele><time>2026-04-22T09:48:19.719Z</time></trkpt><trkpt lat="43.60061" lon="12.0974367"><ele>398.0</ele><time>2026-04-22T09:48:20.718Z</time></trkpt><trkpt lat="43.6005483" lon="12.0976517"><ele>397.3333333333333</ele><time>2026-04-22T09:48:21.718Z</time></trkpt><trkpt lat="43.6004933" lon="12.097865"><ele>396.66666666666663</ele><time>2026-04-22T09:48:22.718Z</time></trkpt><trkpt lat="43.600435" lon="12.098065"><ele>396.0</ele><time>2026-04-22T09:48:23.718Z</time></trkpt><trkpt lat="43.6003767" lon="12.0982733"><ele>395.33333333333337</ele><time>2026-04-22T09:48:24.719Z</time></trkpt><trkpt lat="43.6003183" lon="12.0984783"><ele>394.6666666666667</ele><time>2026-04-22T09:48:25.718Z</time></trkpt><trkpt lat="43.60026" lon="12.0986833"><ele>394.0</ele><time>2026-04-22T09:48:26.718Z</time></trkpt><trkpt lat="43.6001983" lon="12.098885"><ele>395.0</ele><time>2026-04-22T09:48:27.718Z</time></trkpt><trkpt lat="43.6001383" lon="12.0990883"><ele>396.0</ele><time>2026-04-22T09:48:28.718Z</time></trkpt><trkpt lat="43.600075" lon="12.0992867"><ele>397.0</ele><time>2026-04-22T09:48:29.718Z</time></trkpt><trkpt lat="43.6000133" lon="12.09949"><ele>397.0</ele><time>2026-04-22T09:48:30.718Z</time></trkpt><trkpt lat="43.5999583" lon="12.099705"><ele>397.0</ele><time>2026-04-22T09:48:31.718Z</time></trkpt><trkpt lat="43.5998933" lon="12.0999167"><ele>397.0</ele><time>2026-04-22T09:48:32.718Z</time></trkpt><trkpt lat="43.5998367" lon="12.1001183"><ele>398.33333333333337</ele><time>2026-04-22T09:48:33.719Z</time></trkpt><trkpt lat="43.5997833" lon="12.1003167"><ele>399.66666666666663</ele><time>2026-04-22T09:48:34.718Z</time></trkpt><trkpt lat="43.5997367" lon="12.1005083"><ele>401.0</ele><time>2026-04-22T09:48:35.718Z</time></trkpt><trkpt lat="43.599675" lon="12.100705"><ele>401.66666666666663</ele><time>2026-04-22T09:48:36.719Z</time></trkpt><trkpt lat="43.5995967" lon="12.1008933"><ele>402.33333333333337</ele><time>2026-04-22T09:48:37.718Z</time></trkpt><trkpt lat="43.5995" lon="12.1010567"><ele>403.0</ele><time>2026-04-22T09:48:38.718Z</time></trkpt><trkpt lat="43.5993933" lon="12.1011883"><ele>403.0</ele><time>2026-04-22T09:48:39.718Z</time></trkpt><trkpt lat="43.5992583" lon="12.1012983"><ele>403.0</ele><time>2026-04-22T09:48:40.718Z</time></trkpt><trkpt lat="43.5991117" lon="12.1013767"><ele>403.0</ele><time>2026-04-22T09:48:41.719Z</time></trkpt><trkpt lat="43.598955" lon="12.1014283"><ele>403.0</ele><time>2026-04-22T09:48:42.718Z</time></trkpt><trkpt lat="43.5987933" lon="12.1014417"><ele>403.0</ele><time>2026-04-22T09:48:43.718Z</time></trkpt><trkpt lat="43.5986317" lon="12.1014283"><ele>403.0</ele><time>2026-04-22T09:48:44.718Z</time></trkpt><trkpt lat="43.598475" lon="12.1013833"><ele>403.33333333333337</ele><time>2026-04-22T09:48:45.718Z</time></trkpt><trkpt lat="43.59832" lon="12.1013217"><ele>403.66666666666663</ele><time>2026-04-22T09:48:46.718Z</time></trkpt><trkpt lat="43.5981683" lon="12.101265"><ele>404.0</ele><time>2026-04-22T09:48:47.718Z</time></trkpt><trkpt lat="43.598005" lon="12.1012067"><ele>404.0</ele><time>2026-04-22T09:48:48.718Z</time></trkpt><trkpt lat="43.5978433" lon="12.1011533"><ele>404.0</ele><time>2026-04-22T09:48:49.718Z</time></trkpt><trkpt lat="43.5976833" lon="12.10109"><ele>404.0</ele><time>2026-04-22T09:48:50.719Z</time></trkpt><trkpt lat="43.5975183" lon="12.1010333"><ele>406.0</ele><time>2026-04-22T09:48:51.718Z</time></trkpt><trkpt lat="43.5973617" lon="12.100975"><ele>408.0</ele><time>2026-04-22T09:48:52.718Z</time></trkpt><trkpt lat="43.5971967" lon="12.1009033"><ele>410.0</ele><time>2026-04-22T09:48:53.718Z</time></trkpt><trkpt lat="43.5970333" lon="12.10084"><ele>410.0</ele><time>2026-04-22T09:48:54.718Z</time></trkpt><trkpt lat="43.5968767" lon="12.10077"><ele>410.0</ele><time>2026-04-22T09:48:55.718Z</time></trkpt><trkpt lat="43.59672" lon="12.1006867"><ele>410.0</ele><time>2026-04-22T09:48:56.718Z</time></trkpt><trkpt lat="43.5965633" lon="12.1005983"><ele>408.0</ele><time>2026-04-22T09:48:57.718Z</time></trkpt><trkpt lat="43.5964033" lon="12.10051"><ele>406.0</ele><time>2026-04-22T09:48:58.718Z</time></trkpt><trkpt lat="43.596245" lon="12.1004167"><ele>404.0</ele><time>2026-04-22T09:48:59.718Z</time></trkpt><trkpt lat="43.5960867" lon="12.1003117"><ele>404.0</ele><time>2026-04-22T09:49:00.718Z</time></trkpt><trkpt lat="43.59593" lon="12.1002067"><ele>404.0</ele><time>2026-04-22T09:49:01.718Z</time></trkpt><trkpt lat="43.5957783" lon="12.1001133"><ele>404.0</ele><time>2026-04-22T09:49:02.719Z</time></trkpt><trkpt lat="43.5956267" lon="12.1000233"><ele>404.0</ele><time>2026-04-22T09:49:03.719Z</time></trkpt><trkpt lat="43.5954683" lon="12.09993"><ele>404.0</ele><time>2026-04-22T09:49:04.718Z</time></trkpt><trkpt lat="43.5953117" lon="12.0998317"><ele>404.0</ele><time>2026-04-22T09:49:05.719Z</time></trkpt><trkpt lat="43.5951567" lon="12.0997433"><ele>403.66666666666663</ele><time>2026-04-22T09:49:06.718Z</time></trkpt><trkpt lat="43.59501" lon="12.0996567"><ele>403.33333333333337</ele><time>2026-04-22T09:49:07.718Z</time></trkpt><trkpt lat="43.59487" lon="12.0995733"><ele>403.0</ele><time>2026-04-22T09:49:08.718Z</time></trkpt><trkpt lat="43.5947383" lon="12.0994867"><ele>403.0</ele><time>2026-04-22T09:49:09.718Z</time></trkpt><trkpt lat="43.594605" lon="12.09941"><ele>403.0</ele><time>2026-04-22T09:49:10.718Z</time></trkpt><trkpt lat="43.5944833" lon="12.099335"><ele>403.0</ele><time>2026-04-22T09:49:11.719Z</time></trkpt><trkpt lat="43.5943717" lon="12.09927"><ele>403.0</ele><time>2026-04-22T09:49:12.718Z</time></trkpt><trkpt lat="43.5942733" lon="12.0992133"><ele>403.2</ele><time>2026-04-22T09:49:13.719Z</time></trkpt><trkpt lat="43.59419" lon="12.0991417"><ele>403.4</ele><time>2026-04-22T09:49:14.718Z</time></trkpt><trkpt lat="43.5941133" lon="12.099065"><ele>403.59999999999997</ele><time>2026-04-22T09:49:15.718Z</time></trkpt><trkpt lat="43.5940517" lon="12.098965"><ele>403.79999999999995</ele><time>2026-04-22T09:49:16.718Z</time></trkpt><trkpt lat="43.5939933" lon="12.0988383"><ele>404.0</ele><time>2026-04-22T09:49:17.718Z</time></trkpt><trkpt lat="43.593955" lon="12.0986983"><ele>403.0</ele><time>2026-04-22T09:49:18.718Z</time></trkpt><trkpt lat="43.593925" lon="12.0985567"><ele>402.0</ele><time>2026-04-22T09:49:19.718Z</time></trkpt><trkpt lat="43.593905" lon="12.0984033"><ele>401.0</ele><time>2026-04-22T09:49:20.719Z</time></trkpt><trkpt lat="43.5938767" lon="12.0982533"><ele>400.0</ele><time>2026-04-22T09:49:21.719Z</time></trkpt><trkpt lat="43.593855" lon="12.0980867"><ele>399.25</ele><time>2026-04-22T09:49:22.719Z</time></trkpt><trkpt lat="43.59384" lon="12.097915"><ele>398.5</ele><time>2026-04-22T09:49:23.718Z</time></trkpt><trkpt lat="43.59382" lon="12.09774"><ele>397.75</ele><time>2026-04-22T09:49:24.718Z</time></trkpt><trkpt lat="43.5937883" lon="12.0975667"><ele>397.0</ele><time>2026-04-22T09:49:25.718Z</time></trkpt><trkpt lat="43.593745" lon="12.0973967"><ele>396.40000000000003</ele><time>2026-04-22T09:49:26.719Z</time></trkpt><trkpt lat="43.59369" lon="12.0972517"><ele>395.8</ele><time>2026-04-22T09:49:27.718Z</time></trkpt><trkpt lat="43.5936267" lon="12.0971333"><ele>395.2</ele><time>2026-04-22T09:49:28.718Z</time></trkpt><trkpt lat="43.5935383" lon="12.097045"><ele>394.6</ele><time>2026-04-22T09:49:29.718Z</time></trkpt><trkpt lat="43.5934317" lon="12.0969983"><ele>394.0</ele><time>2026-04-22T09:49:30.718Z</time></trkpt><trkpt lat="43.59333" lon="12.0969883"><ele>394.00000000000006</ele><time>2026-04-22T09:49:31.718Z</time></trkpt><trkpt lat="43.593235" lon="12.0970083"><ele>394.0</ele><time>2026-04-22T09:49:32.719Z</time></trkpt><trkpt lat="43.5931567" lon="12.0970567"><ele>394.0</ele><time>2026-04-22T09:49:33.718Z</time></trkpt><trkpt lat="43.5931033" lon="12.0971267"><ele>394.0</ele><time>2026-04-22T09:49:34.718Z</time></trkpt><trkpt lat="43.5930683" lon="12.0972167"><ele>394.00000000000006</ele><time>2026-04-22T09:49:35.718Z</time></trkpt><trkpt lat="43.5930567" lon="12.097325"><ele>394.0</ele><time>2026-04-22T09:49:36.718Z</time></trkpt><trkpt lat="43.5930717" lon="12.0974667"><ele>394.25</ele><time>2026-04-22T09:49:37.718Z</time></trkpt><trkpt lat="43.59309" lon="12.0976133"><ele>394.5</ele><time>2026-04-22T09:49:38.718Z</time></trkpt><trkpt lat="43.5931067" lon="12.09777"><ele>394.75</ele><time>2026-04-22T09:49:39.718Z</time></trkpt><trkpt lat="43.5931267" lon="12.0979383"><ele>395.0</ele><time>2026-04-22T09:49:40.718Z</time></trkpt><trkpt lat="43.59314" lon="12.0981033"><ele>394.75</ele><time>2026-04-22T09:49:41.718Z</time></trkpt><trkpt lat="43.5931467" lon="12.0982567"><ele>394.5</ele><time>2026-04-22T09:49:42.719Z</time></trkpt><trkpt lat="43.59314" lon="12.0984133"><ele>394.25</ele><time>2026-04-22T09:49:43.718Z</time></trkpt><trkpt lat="43.59312" lon="12.0985667"><ele>394.0</ele><time>2026-04-22T09:49:44.718Z</time></trkpt><trkpt lat="43.5930867" lon="12.098715"><ele>394.0</ele><time>2026-04-22T09:49:45.718Z</time></trkpt><trkpt lat="43.5930383" lon="12.0988533"><ele>394.0</ele><time>2026-04-22T09:49:46.718Z</time></trkpt><trkpt lat="43.592965" lon="12.09897"><ele>394.0</ele><time>2026-04-22T09:49:47.718Z</time></trkpt><trkpt lat="43.5928633" lon="12.099065"><ele>394.0</ele><time>2026-04-22T09:49:48.718Z</time></trkpt><trkpt lat="43.5927383" lon="12.09915"><ele>390.5</ele><time>2026-04-22T09:49:49.718Z</time></trkpt><trkpt lat="43.5926117" lon="12.099225"><ele>387.0</ele><time>2026-04-22T09:49:50.718Z</time></trkpt><trkpt lat="43.5924867" lon="12.0993033"><ele>383.5</ele><time>2026-04-22T09:49:51.718Z</time></trkpt><trkpt lat="43.592365" lon="12.0993783"><ele>380.0</ele><time>2026-04-22T09:49:52.718Z</time></trkpt><trkpt lat="43.5922433" lon="12.0994517"><ele>380.0</ele><time>2026-04-22T09:49:53.718Z</time></trkpt><trkpt lat="43.5921267" lon="12.099535"><ele>380.0</ele><time>2026-04-22T09:49:54.718Z</time></trkpt><trkpt lat="43.59203" lon="12.0996267"><ele>380.0</ele><time>2026-04-22T09:49:55.718Z</time></trkpt><trkpt lat="43.5919417" lon="12.0997367"><ele>380.0</ele><time>2026-04-22T09:49:56.718Z</time></trkpt><trkpt lat="43.5918717" lon="12.0998667"><ele>377.8</ele><time>2026-04-22T09:49:57.718Z</time></trkpt><trkpt lat="43.5918317" lon="12.10001"><ele>375.6</ele><time>2026-04-22T09:49:58.718Z</time></trkpt><trkpt lat="43.5918283" lon="12.1001583"><ele>373.4</ele><time>2026-04-22T09:49:59.718Z</time></trkpt><trkpt lat="43.591845" lon="12.1003117"><ele>371.2</ele><time>2026-04-22T09:50:00.718Z</time></trkpt><trkpt lat="43.5918883" lon="12.1004367"><ele>369.0</ele><time>2026-04-22T09:50:01.719Z</time></trkpt><trkpt lat="43.5919567" lon="12.100575"><ele>373.5</ele><time>2026-04-22T09:50:02.719Z</time></trkpt><trkpt lat="43.5920083" lon="12.1007383"><ele>378.0</ele><time>2026-04-22T09:50:03.718Z</time></trkpt><trkpt lat="43.5920733" lon="12.1008867"><ele>382.5</ele><time>2026-04-22T09:50:04.718Z</time></trkpt><trkpt lat="43.5921467" lon="12.101035"><ele>387.0</ele><time>2026-04-22T09:50:05.719Z</time></trkpt><trkpt lat="43.592215" lon="12.1011883"><ele>387.0</ele><time>2026-04-22T09:50:06.718Z</time></trkpt><trkpt lat="43.5922867" lon="12.1013417"><ele>387.0</ele><time>2026-04-22T09:50:07.718Z</time></trkpt><trkpt lat="43.5923433" lon="12.1014967"><ele>387.0</ele><time>2026-04-22T09:50:08.718Z</time></trkpt><trkpt lat="43.592405" lon="12.101645"><ele>387.0</ele><time>2026-04-22T09:50:09.718Z</time></trkpt><trkpt lat="43.5924767" lon="12.1017933"><ele>385.0</ele><time>2026-04-22T09:50:10.718Z</time></trkpt><trkpt lat="43.592555" lon="12.1019283"><ele>383.0</ele><time>2026-04-22T09:50:11.718Z</time></trkpt><trkpt lat="43.5926367" lon="12.1020533"><ele>381.0</ele><time>2026-04-22T09:50:12.718Z</time></trkpt><trkpt lat="43.592735" lon="12.1021767"><ele>379.0</ele><time>2026-04-22T09:50:13.718Z</time></trkpt><trkpt lat="43.5928283" lon="12.1022967"><ele>382.25</ele><time>2026-04-22T09:50:14.718Z</time></trkpt><trkpt lat="43.59291" lon="12.1024283"><ele>385.5</ele><time>2026-04-22T09:50:15.718Z</time></trkpt><trkpt lat="43.5929983" lon="12.1025583"><ele>388.75</ele><time>2026-04-22T09:50:16.719Z</time></trkpt><trkpt lat="43.5930717" lon="12.1026967"><ele>392.0</ele><time>2026-04-22T09:50:17.718Z</time></trkpt><trkpt lat="43.5931417" lon="12.102845"><ele>392.0</ele><time>2026-04-22T09:50:18.718Z</time></trkpt><trkpt lat="43.5932033" lon="12.10299"><ele>392.0</ele><time>2026-04-22T09:50:19.718Z</time></trkpt><trkpt lat="43.59325" lon="12.10316"><ele>392.0</ele><time>2026-04-22T09:50:20.718Z</time></trkpt><trkpt lat="43.5932683" lon="12.1033333"><ele>392.0</ele><time>2026-04-22T09:50:21.718Z</time></trkpt><trkpt lat="43.5932583" lon="12.1035117"><ele>390.5</ele><time>2026-04-22T09:50:22.718Z</time></trkpt><trkpt lat="43.5932317" lon="12.1036817"><ele>389.0</ele><time>2026-04-22T09:50:23.718Z</time></trkpt><trkpt lat="43.5931867" lon="12.1038433"><ele>387.5</ele><time>2026-04-22T09:50:24.718Z</time></trkpt><trkpt lat="43.5931117" lon="12.1039867"><ele>386.0</ele><time>2026-04-22T09:50:25.718Z</time></trkpt><trkpt lat="43.59301" lon="12.1041017"><ele>385.0</ele><time>2026-04-22T09:50:26.718Z</time></trkpt><trkpt lat="43.592895" lon="12.104185"><ele>384.0</ele><time>2026-04-22T09:50:27.718Z</time></trkpt><trkpt lat="43.5927667" lon="12.10423"><ele>383.0</ele><time>2026-04-22T09:50:28.718Z</time></trkpt><trkpt lat="43.5926333" lon="12.1042533"><ele>382.0</ele><time>2026-04-22T09:50:29.718Z</time></trkpt><trkpt lat="43.5924967" lon="12.1042317"><ele>380.0</ele><time>2026-04-22T09:50:30.718Z</time></trkpt><trkpt lat="43.5923667" lon="12.104195"><ele>378.0</ele><time>2026-04-22T09:50:31.718Z</time></trkpt><trkpt lat="43.5922233" lon="12.1041383"><ele>376.0</ele><time>2026-04-22T09:50:32.718Z</time></trkpt><trkpt lat="43.5920817" lon="12.1040917"><ele>374.0</ele><time>2026-04-22T09:50:33.718Z</time></trkpt><trkpt lat="43.5919433" lon="12.104055"><ele>372.75</ele><time>2026-04-22T09:50:34.718Z</time></trkpt><trkpt lat="43.5918017" lon="12.1040217"><ele>371.5</ele><time>2026-04-22T09:50:35.718Z</time></trkpt><trkpt lat="43.5916617" lon="12.1039983"><ele>370.25</ele><time>2026-04-22T09:50:36.718Z</time></trkpt><trkpt lat="43.591525" lon="12.1040017"><ele>369.0</ele><time>2026-04-22T09:50:37.718Z</time></trkpt><trkpt lat="43.59139" lon="12.1040317"><ele>369.0</ele><time>2026-04-22T09:50:38.718Z</time></trkpt><trkpt lat="43.5912517" lon="12.10409"><ele>369.0</ele><time>2026-04-22T09:50:39.719Z</time></trkpt><trkpt lat="43.591115" lon="12.1041767"><ele>369.0</ele><time>2026-04-22T09:50:40.718Z</time></trkpt><trkpt lat="43.59099" lon="12.104285"><ele>369.0</ele><time>2026-04-22T09:50:41.719Z</time></trkpt><trkpt lat="43.5908717" lon="12.1043933"><ele>369.0</ele><time>2026-04-22T09:50:42.718Z</time></trkpt><trkpt lat="43.59075" lon="12.1045117"><ele>369.0</ele><time>2026-04-22T09:50:43.718Z</time></trkpt><trkpt lat="43.59063" lon="12.104625"><ele>369.0</ele><time>2026-04-22T09:50:44.718Z</time></trkpt><trkpt lat="43.5905" lon="12.1047433"><ele>369.0</ele><time>2026-04-22T09:50:45.718Z</time></trkpt><trkpt lat="43.5903717" lon="12.1048617"><ele>369.0</ele><time>2026-04-22T09:50:46.718Z</time></trkpt><trkpt lat="43.5902333" lon="12.1049783"><ele>369.0</ele><time>2026-04-22T09:50:47.718Z</time></trkpt><trkpt lat="43.5901017" lon="12.1050983"><ele>366.6666666666667</ele><time>2026-04-22T09:50:48.718Z</time></trkpt><trkpt lat="43.5899717" lon="12.105225"><ele>364.33333333333337</ele><time>2026-04-22T09:50:49.719Z</time></trkpt><trkpt lat="43.5898317" lon="12.105345"><ele>362.0</ele><time>2026-04-22T09:50:50.718Z</time></trkpt><trkpt lat="43.5896933" lon="12.1054717"><ele>362.0</ele><time>2026-04-22T09:50:51.718Z</time></trkpt><trkpt lat="43.58956" lon="12.10559"><ele>362.0</ele><time>2026-04-22T09:50:52.718Z</time></trkpt><trkpt lat="43.5894233" lon="12.105715"><ele>362.0</ele><time>2026-04-22T09:50:53.718Z</time></trkpt><trkpt lat="43.5892933" lon="12.1058367"><ele>363.0</ele><time>2026-04-22T09:50:54.719Z</time></trkpt><trkpt lat="43.5891583" lon="12.105955"><ele>364.0</ele><time>2026-04-22T09:50:55.719Z</time></trkpt><trkpt lat="43.5890267" lon="12.1060833"><ele>365.0</ele><time>2026-04-22T09:50:56.718Z</time></trkpt><trkpt lat="43.5888917" lon="12.1062017"><ele>365.0</ele><time>2026-04-22T09:50:57.718Z</time></trkpt><trkpt lat="43.58876" lon="12.106325"><ele>365.0</ele><time>2026-04-22T09:50:58.718Z</time></trkpt><trkpt lat="43.5886317" lon="12.106445"><ele>365.0</ele><time>2026-04-22T09:50:59.718Z</time></trkpt><trkpt lat="43.5885117" lon="12.1065617"><ele>364.0</ele><time>2026-04-22T09:51:00.718Z</time></trkpt><trkpt lat="43.5883883" lon="12.106685"><ele>363.0</ele><time>2026-04-22T09:51:01.718Z</time></trkpt><trkpt lat="43.588275" lon="12.1068233"><ele>362.0</ele><time>2026-04-22T09:51:02.718Z</time></trkpt><trkpt lat="43.5881783" lon="12.106975"><ele>362.0</ele><time>2026-04-22T09:51:03.718Z</time></trkpt><trkpt lat="43.5880817" lon="12.1071467"><ele>362.0</ele><time>2026-04-22T09:51:04.718Z</time></trkpt><trkpt lat="43.588" lon="12.1073183"><ele>362.0</ele><time>2026-04-22T09:51:05.718Z</time></trkpt><trkpt lat="43.5879333" lon="12.10752"><ele>362.6666666666667</ele><time>2026-04-22T09:51:06.718Z</time></trkpt><trkpt lat="43.5878767" lon="12.1077317"><ele>363.3333333333333</ele><time>2026-04-22T09:51:07.718Z</time></trkpt><trkpt lat="43.5878267" lon="12.1079467"><ele>364.0</ele><time>2026-04-22T09:51:08.718Z</time></trkpt><trkpt lat="43.5877717" lon="12.10816"><ele>360.3333333333333</ele><time>2026-04-22T09:51:09.718Z</time></trkpt><trkpt lat="43.5877067" lon="12.108375"><ele>356.6666666666667</ele><time>2026-04-22T09:51:10.718Z</time></trkpt><trkpt lat="43.5876483" lon="12.1085883"><ele>353.0</ele><time>2026-04-22T09:51:11.718Z</time></trkpt><trkpt lat="43.58759" lon="12.108805"><ele>353.0</ele><time>2026-04-22T09:51:12.718Z</time></trkpt><trkpt lat="43.5875367" lon="12.109025"><ele>353.0</ele><time>2026-04-22T09:51:13.718Z</time></trkpt><trkpt lat="43.5874833" lon="12.1092383"><ele>353.0</ele><time>2026-04-22T09:51:14.718Z</time></trkpt><trkpt lat="43.5874283" lon="12.109455"><ele>353.0</ele><time>2026-04-22T09:51:15.718Z</time></trkpt><trkpt lat="43.5873733" lon="12.10967"><ele>353.0</ele><time>2026-04-22T09:51:16.718Z</time></trkpt><trkpt lat="43.5873017" lon="12.10988"><ele>353.0</ele><time>2026-04-22T09:51:17.718Z</time></trkpt><trkpt lat="43.5872383" lon="12.110085"><ele>353.0</ele><time>2026-04-22T09:51:18.718Z</time></trkpt><trkpt lat="43.5871617" lon="12.1102867"><ele>353.0</ele><time>2026-04-22T09:51:19.718Z</time></trkpt><trkpt lat="43.5870767" lon="12.11047"><ele>353.0</ele><time>2026-04-22T09:51:20.718Z</time></trkpt><trkpt lat="43.5869833" lon="12.1106317"><ele>351.33333333333337</ele><time>2026-04-22T09:51:21.718Z</time></trkpt><trkpt lat="43.5868767" lon="12.1107933"><ele>349.6666666666667</ele><time>2026-04-22T09:51:22.719Z</time></trkpt><trkpt lat="43.58677" lon="12.11096"><ele>348.0</ele><time>2026-04-22T09:51:23.718Z</time></trkpt><trkpt lat="43.5866633" lon="12.1111117"><ele>348.0</ele><time>2026-04-22T09:51:24.718Z</time></trkpt><trkpt lat="43.5865567" lon="12.1112633"><ele>348.0</ele><time>2026-04-22T09:51:25.718Z</time></trkpt><trkpt lat="43.5864567" lon="12.1114217"><ele>348.0</ele><time>2026-04-22T09:51:26.718Z</time></trkpt><trkpt lat="43.586365" lon="12.1115983"><ele>349.6666666666667</ele><time>2026-04-22T09:51:27.719Z</time></trkpt><trkpt lat="43.5862783" lon="12.1117933"><ele>351.33333333333337</ele><time>2026-04-22T09:51:28.718Z</time></trkpt><trkpt lat="43.5861983" lon="12.111985"><ele>353.0</ele><time>2026-04-22T09:51:29.718Z</time></trkpt><trkpt lat="43.5861167" lon="12.1121667"><ele>350.33333333333337</ele><time>2026-04-22T09:51:30.719Z</time></trkpt><trkpt lat="43.5860367" lon="12.1123667"><ele>347.6666666666667</ele><time>2026-04-22T09:51:31.718Z</time></trkpt><trkpt lat="43.5859617" lon="12.112575"><ele>345.0</ele><time>2026-04-22T09:51:32.718Z</time></trkpt><trkpt lat="43.5858867" lon="12.1127767"><ele>345.0</ele><time>2026-04-22T09:51:33.718Z</time></trkpt><trkpt lat="43.5858167" lon="12.1129833"><ele>345.0</ele><time>2026-04-22T09:51:34.718Z</time></trkpt><trkpt lat="43.5857517" lon="12.1131883"><ele>345.0</ele><time>2026-04-22T09:51:35.718Z</time></trkpt><trkpt lat="43.5856883" lon="12.1133917"><ele>345.0</ele><time>2026-04-22T09:51:36.718Z</time></trkpt><trkpt lat="43.58562" lon="12.113595"><ele>345.0</ele><time>2026-04-22T09:51:37.718Z</time></trkpt><trkpt lat="43.5855567" lon="12.113805"><ele>345.0</ele><time>2026-04-22T09:51:38.718Z</time></trkpt><trkpt lat="43.5855067" lon="12.114025"><ele>345.6666666666667</ele><time>2026-04-22T09:51:39.718Z</time></trkpt><trkpt lat="43.5854783" lon="12.1142483"><ele>346.33333333333337</ele><time>2026-04-22T09:51:40.718Z</time></trkpt><trkpt lat="43.58546" lon="12.11448"><ele>347.0</ele><time>2026-04-22T09:51:41.718Z</time></trkpt><trkpt lat="43.58545" lon="12.1147133"><ele>346.6666666666667</ele><time>2026-04-22T09:51:42.719Z</time></trkpt><trkpt lat="43.58544" lon="12.11495"><ele>346.3333333333333</ele><time>2026-04-22T09:51:43.718Z</time></trkpt><trkpt lat="43.58543" lon="12.1151867"><ele>346.0</ele><time>2026-04-22T09:51:44.718Z</time></trkpt><trkpt lat="43.58541" lon="12.11543"><ele>346.0</ele><time>2026-04-22T09:51:45.718Z</time></trkpt><trkpt lat="43.58538" lon="12.1156633"><ele>346.0</ele><time>2026-04-22T09:51:46.718Z</time></trkpt><trkpt lat="43.5853367" lon="12.1158983"><ele>346.0</ele><time>2026-04-22T09:51:47.718Z</time></trkpt><trkpt lat="43.5852717" lon="12.1161133"><ele>344.0</ele><time>2026-04-22T09:51:48.718Z</time></trkpt><trkpt lat="43.5851967" lon="12.1163267"><ele>342.0</ele><time>2026-04-22T09:51:49.718Z</time></trkpt><trkpt lat="43.58512" lon="12.1165333"><ele>340.0</ele><time>2026-04-22T09:51:50.718Z</time></trkpt><trkpt lat="43.58504" lon="12.1167383"><ele>340.0</ele><time>2026-04-22T09:51:51.718Z</time></trkpt><trkpt lat="43.58496" lon="12.1169433"><ele>340.0</ele><time>2026-04-22T09:51:52.718Z</time></trkpt><trkpt lat="43.58488" lon="12.1171483"><ele>340.0</ele><time>2026-04-22T09:51:53.718Z</time></trkpt><trkpt lat="43.5848" lon="12.1173533"><ele>341.0</ele><time>2026-04-22T09:51:54.718Z</time></trkpt><trkpt lat="43.58472" lon="12.1175567"><ele>342.0</ele><time>2026-04-22T09:51:55.717Z</time></trkpt><trkpt lat="43.5846433" lon="12.11776"><ele>343.0</ele><time>2026-04-22T09:51:56.717Z</time></trkpt><trkpt lat="43.5845667" lon="12.1179667"><ele>340.66666666666663</ele><time>2026-04-22T09:51:57.718Z</time></trkpt><trkpt lat="43.58449" lon="12.1181717"><ele>338.3333333333333</ele><time>2026-04-22T09:51:58.717Z</time></trkpt><trkpt lat="43.58441" lon="12.1183767"><ele>336.0</ele><time>2026-04-22T09:51:59.717Z</time></trkpt><trkpt lat="43.5843267" lon="12.1185767"><ele>336.0</ele><time>2026-04-22T09:52:00.717Z</time></trkpt><trkpt lat="43.5842317" lon="12.1187617"><ele>336.0</ele><time>2026-04-22T09:52:01.717Z</time></trkpt><trkpt lat="43.58413" lon="12.11894"><ele>336.0</ele><time>2026-04-22T09:52:02.717Z</time></trkpt><trkpt lat="43.5840283" lon="12.1191283"><ele>336.3333333333333</ele><time>2026-04-22T09:52:03.717Z</time></trkpt><trkpt lat="43.5839267" lon="12.119315"><ele>336.66666666666663</ele><time>2026-04-22T09:52:04.717Z</time></trkpt><trkpt lat="43.5838233" lon="12.1194967"><ele>337.0</ele><time>2026-04-22T09:52:05.717Z</time></trkpt><trkpt lat="43.58372" lon="12.11968"><ele>336.66666666666663</ele><time>2026-04-22T09:52:06.717Z</time></trkpt><trkpt lat="43.5836117" lon="12.11986"><ele>336.3333333333333</ele><time>2026-04-22T09:52:07.717Z</time></trkpt><trkpt lat="43.5834967" lon="12.1200467"><ele>336.0</ele><time>2026-04-22T09:52:08.717Z</time></trkpt><trkpt lat="43.583385" lon="12.1202417"><ele>336.0</ele><time>2026-04-22T09:52:09.717Z</time></trkpt><trkpt lat="43.5832767" lon="12.1204267"><ele>336.0</ele><time>2026-04-22T09:52:10.717Z</time></trkpt><trkpt lat="43.5831683" lon="12.1206133"><ele>336.0</ele><time>2026-04-22T09:52:11.717Z</time></trkpt><trkpt lat="43.5830633" lon="12.1207917"><ele>335.6666666666667</ele><time>2026-04-22T09:52:12.717Z</time></trkpt><trkpt lat="43.5829533" lon="12.1209833"><ele>335.33333333333337</ele><time>2026-04-22T09:52:13.717Z</time></trkpt><trkpt lat="43.58284" lon="12.1211733"><ele>335.0</ele><time>2026-04-22T09:52:14.717Z</time></trkpt><trkpt lat="43.5827233" lon="12.121365"><ele>335.6666666666667</ele><time>2026-04-22T09:52:15.717Z</time></trkpt><trkpt lat="43.5826117" lon="12.1215733"><ele>336.3333333333333</ele><time>2026-04-22T09:52:16.717Z</time></trkpt><trkpt lat="43.582495" lon="12.1217633"><ele>337.0</ele><time>2026-04-22T09:52:17.717Z</time></trkpt><trkpt lat="43.5823833" lon="12.1219667"><ele>337.0</ele><time>2026-04-22T09:52:18.717Z</time></trkpt><trkpt lat="43.582255" lon="12.1221683"><ele>337.0</ele><time>2026-04-22T09:52:19.717Z</time></trkpt><trkpt lat="43.5821333" lon="12.1223783"><ele>337.0</ele><time>2026-04-22T09:52:20.717Z</time></trkpt><trkpt lat="43.5820183" lon="12.122575"><ele>336.66666666666663</ele><time>2026-04-22T09:52:21.717Z</time></trkpt><trkpt lat="43.5818967" lon="12.1227783"><ele>336.3333333333333</ele><time>2026-04-22T09:52:22.717Z</time></trkpt><trkpt lat="43.5817733" lon="12.12298"><ele>336.0</ele><time>2026-04-22T09:52:23.718Z</time></trkpt><trkpt lat="43.5816567" lon="12.12318"><ele>336.3333333333333</ele><time>2026-04-22T09:52:24.717Z</time></trkpt><trkpt lat="43.5815367" lon="12.123385"><ele>336.66666666666663</ele><time>2026-04-22T09:52:25.717Z</time></trkpt><trkpt lat="43.5814167" lon="12.1235917"><ele>337.0</ele><time>2026-04-22T09:52:26.717Z</time></trkpt><trkpt lat="43.5813" lon="12.123795"><ele>337.0</ele><time>2026-04-22T09:52:27.717Z</time></trkpt><trkpt lat="43.581195" lon="12.123975"><ele>337.0</ele><time>2026-04-22T09:52:28.718Z</time></trkpt><trkpt lat="43.58109" lon="12.1241517"><ele>337.0</ele><time>2026-04-22T09:52:29.717Z</time></trkpt><trkpt lat="43.5809967" lon="12.124315"><ele>336.75</ele><time>2026-04-22T09:52:30.718Z</time></trkpt><trkpt lat="43.5809083" lon="12.1244567"><ele>336.5</ele><time>2026-04-22T09:52:31.717Z</time></trkpt><trkpt lat="43.5808217" lon="12.1246"><ele>336.25</ele><time>2026-04-22T09:52:32.717Z</time></trkpt><trkpt lat="43.580745" lon="12.1247417"><ele>336.0</ele><time>2026-04-22T09:52:33.717Z</time></trkpt><trkpt lat="43.5806683" lon="12.12487"><ele>336.4</ele><time>2026-04-22T09:52:34.717Z</time></trkpt><trkpt lat="43.5805967" lon="12.12499"><ele>336.8</ele><time>2026-04-22T09:52:35.717Z</time></trkpt><trkpt lat="43.58052" lon="12.1250917"><ele>337.2</ele><time>2026-04-22T09:52:36.717Z</time></trkpt><trkpt lat="43.5804417" lon="12.12519"><ele>337.59999999999997</ele><time>2026-04-22T09:52:37.717Z</time></trkpt><trkpt lat="43.5803683" lon="12.1252917"><ele>338.0</ele><time>2026-04-22T09:52:38.717Z</time></trkpt><trkpt lat="43.580295" lon="12.1254033"><ele>337.5</ele><time>2026-04-22T09:52:39.717Z</time></trkpt><trkpt lat="43.5802417" lon="12.1255333"><ele>337.0</ele><time>2026-04-22T09:52:40.718Z</time></trkpt><trkpt lat="43.580175" lon="12.1256867"><ele>336.5</ele><time>2026-04-22T09:52:41.717Z</time></trkpt><trkpt lat="43.5801" lon="12.1258367"><ele>336.0</ele><time>2026-04-22T09:52:42.717Z</time></trkpt><trkpt lat="43.580015" lon="12.1259867"><ele>336.0</ele><time>2026-04-22T09:52:43.717Z</time></trkpt><trkpt lat="43.5799183" lon="12.1261233"><ele>336.0</ele><time>2026-04-22T09:52:44.718Z</time></trkpt><trkpt lat="43.579835" lon="12.126275"><ele>336.0</ele><time>2026-04-22T09:52:45.718Z</time></trkpt><trkpt lat="43.579745" lon="12.1264283"><ele>336.0</ele><time>2026-04-22T09:52:46.717Z</time></trkpt><trkpt lat="43.5796533" lon="12.126585"><ele>336.0</ele><time>2026-04-22T09:52:47.717Z</time></trkpt><trkpt lat="43.579555" lon="12.1267583"><ele>336.0</ele><time>2026-04-22T09:52:48.717Z</time></trkpt><trkpt lat="43.5794583" lon="12.1269217"><ele>336.0</ele><time>2026-04-22T09:52:49.717Z</time></trkpt><trkpt lat="43.5793583" lon="12.1270783"><ele>336.0</ele><time>2026-04-22T09:52:50.717Z</time></trkpt><trkpt lat="43.5792617" lon="12.12724"><ele>336.0</ele><time>2026-04-22T09:52:51.717Z</time></trkpt><trkpt lat="43.5791667" lon="12.1274017"><ele>336.0</ele><time>2026-04-22T09:52:52.717Z</time></trkpt><trkpt lat="43.5790733" lon="12.1275667"><ele>336.0</ele><time>2026-04-22T09:52:53.717Z</time></trkpt><trkpt lat="43.57898" lon="12.1277317"><ele>336.0</ele><time>2026-04-22T09:52:54.717Z</time></trkpt><trkpt lat="43.5788867" lon="12.127895"><ele>336.0</ele><time>2026-04-22T09:52:55.717Z</time></trkpt><trkpt lat="43.5787917" lon="12.1280583"><ele>336.0</ele><time>2026-04-22T09:52:56.718Z</time></trkpt><trkpt lat="43.5786933" lon="12.1282217"><ele>336.0</ele><time>2026-04-22T09:52:57.717Z</time></trkpt><trkpt lat="43.5785967" lon="12.128385"><ele>336.0</ele><time>2026-04-22T09:52:58.717Z</time></trkpt><trkpt lat="43.5785033" lon="12.1285517"><ele>335.0</ele><time>2026-04-22T09:52:59.717Z</time></trkpt><trkpt lat="43.5784083" lon="12.1287233"><ele>334.0</ele><time>2026-04-22T09:53:00.718Z</time></trkpt><trkpt lat="43.5783233" lon="12.128875"><ele>333.0</ele><time>2026-04-22T09:53:01.717Z</time></trkpt><trkpt lat="43.5782383" lon="12.1290183"><ele>332.0</ele><time>2026-04-22T09:53:02.717Z</time></trkpt><trkpt lat="43.578155" lon="12.1291567"><ele>331.8</ele><time>2026-04-22T09:53:03.717Z</time></trkpt><trkpt lat="43.5780733" lon="12.129285"><ele>331.6</ele><time>2026-04-22T09:53:04.717Z</time></trkpt><trkpt lat="43.5780017" lon="12.1294133"><ele>331.40000000000003</ele><time>2026-04-22T09:53:05.717Z</time></trkpt><trkpt lat="43.5779367" lon="12.1295233"><ele>331.20000000000005</ele><time>2026-04-22T09:53:06.717Z</time></trkpt><trkpt lat="43.5778817" lon="12.12961"><ele>331.0</ele><time>2026-04-22T09:53:07.717Z</time></trkpt><trkpt lat="43.5778383" lon="12.1296867"><ele>331.0</ele><time>2026-04-22T09:53:08.717Z</time></trkpt><trkpt lat="43.5777933" lon="12.1297483"><ele>331.0</ele><time>2026-04-22T09:53:09.717Z</time></trkpt><trkpt lat="43.5776817" lon="12.129835"><ele>331.0</ele><time>2026-04-22T09:53:11.717Z</time></trkpt><trkpt lat="43.57762" lon="12.12988"><ele>331.0</ele><time>2026-04-22T09:53:12.717Z</time></trkpt><trkpt lat="43.5775617" lon="12.12994"><ele>331.0</ele><time>2026-04-22T09:53:13.717Z</time></trkpt><trkpt lat="43.5775117" lon="12.13003"><ele>331.0</ele><time>2026-04-22T09:53:14.717Z</time></trkpt><trkpt lat="43.5774783" lon="12.1301467"><ele>330.8</ele><time>2026-04-22T09:53:15.717Z</time></trkpt><trkpt lat="43.5774533" lon="12.1302833"><ele>330.6</ele><time>2026-04-22T09:53:16.717Z</time></trkpt><trkpt lat="43.5774067" lon="12.1304133"><ele>330.4</ele><time>2026-04-22T09:53:17.717Z</time></trkpt><trkpt lat="43.5773483" lon="12.1305383"><ele>330.2</ele><time>2026-04-22T09:53:18.717Z</time></trkpt><trkpt lat="43.5772783" lon="12.130655"><ele>330.0</ele><time>2026-04-22T09:53:19.718Z</time></trkpt><trkpt lat="43.5772067" lon="12.130775"><ele>330.0</ele><time>2026-04-22T09:53:20.717Z</time></trkpt><trkpt lat="43.5771383" lon="12.1308967"><ele>330.0</ele><time>2026-04-22T09:53:21.717Z</time></trkpt><trkpt lat="43.57707" lon="12.13101"><ele>330.0</ele><time>2026-04-22T09:53:22.717Z</time></trkpt><trkpt lat="43.5770017" lon="12.1311267"><ele>330.0</ele><time>2026-04-22T09:53:23.717Z</time></trkpt><trkpt lat="43.5769317" lon="12.1312467"><ele>330.0</ele><time>2026-04-22T09:53:24.717Z</time></trkpt><trkpt lat="43.5768617" lon="12.1313617"><ele>329.8</ele><time>2026-04-22T09:53:25.717Z</time></trkpt><trkpt lat="43.5767933" lon="12.1314767"><ele>329.6</ele><time>2026-04-22T09:53:26.717Z</time></trkpt><trkpt lat="43.576725" lon="12.1315883"><ele>329.4</ele><time>2026-04-22T09:53:27.718Z</time></trkpt><trkpt lat="43.5766583" lon="12.1317"><ele>329.2</ele><time>2026-04-22T09:53:28.718Z</time></trkpt><trkpt lat="43.576595" lon="12.13181"><ele>329.0</ele><time>2026-04-22T09:53:29.717Z</time></trkpt><trkpt lat="43.5765333" lon="12.1319183"><ele>329.0</ele><time>2026-04-22T09:53:30.717Z</time></trkpt><trkpt lat="43.5764783" lon="12.1320017"><ele>329.0</ele><time>2026-04-22T09:53:31.717Z</time></trkpt><trkpt lat="43.57643" lon="12.13209"><ele>329.0</ele><time>2026-04-22T09:53:32.717Z</time></trkpt><trkpt lat="43.576375" lon="12.1321933"><ele>329.0</ele><time>2026-04-22T09:53:33.717Z</time></trkpt><trkpt lat="43.5763083" lon="12.1323067"><ele>329.0</ele><time>2026-04-22T09:53:34.717Z</time></trkpt><trkpt lat="43.576235" lon="12.1324383"><ele>329.25</ele><time>2026-04-22T09:53:35.717Z</time></trkpt><trkpt lat="43.5761517" lon="12.1325817"><ele>329.5</ele><time>2026-04-22T09:53:36.717Z</time></trkpt><trkpt lat="43.5760667" lon="12.1327233"><ele>329.75</ele><time>2026-04-22T09:53:37.717Z</time></trkpt><trkpt lat="43.5759833" lon="12.1328533"><ele>330.0</ele><time>2026-04-22T09:53:38.717Z</time></trkpt><trkpt lat="43.575905" lon="12.13299"><ele>330.0</ele><time>2026-04-22T09:53:39.717Z</time></trkpt><trkpt lat="43.5758233" lon="12.1331283"><ele>330.0</ele><time>2026-04-22T09:53:40.717Z</time></trkpt><trkpt lat="43.575735" lon="12.1332733"><ele>330.0</ele><time>2026-04-22T09:53:41.718Z</time></trkpt><trkpt lat="43.5756483" lon="12.1334183"><ele>330.0</ele><time>2026-04-22T09:53:42.717Z</time></trkpt><trkpt lat="43.57556" lon="12.13358"><ele>329.75</ele><time>2026-04-22T09:53:43.717Z</time></trkpt><trkpt lat="43.5754683" lon="12.1337433"><ele>329.5</ele><time>2026-04-22T09:53:44.717Z</time></trkpt><trkpt lat="43.5753783" lon="12.133895"><ele>329.25</ele><time>2026-04-22T09:53:45.717Z</time></trkpt><trkpt lat="43.5752917" lon="12.134035"><ele>329.0</ele><time>2026-04-22T09:53:46.717Z</time></trkpt><trkpt lat="43.5752083" lon="12.13419"><ele>328.5</ele><time>2026-04-22T09:53:47.717Z</time></trkpt><trkpt lat="43.5751233" lon="12.1343317"><ele>328.0</ele><time>2026-04-22T09:53:48.717Z</time></trkpt><trkpt lat="43.5750417" lon="12.134465"><ele>327.5</ele><time>2026-04-22T09:53:49.717Z</time></trkpt><trkpt lat="43.5749617" lon="12.134595"><ele>327.0</ele><time>2026-04-22T09:53:50.717Z</time></trkpt><trkpt lat="43.57488" lon="12.1347217"><ele>327.0</ele><time>2026-04-22T09:53:51.717Z</time></trkpt><trkpt lat="43.5748017" lon="12.1348467"><ele>327.0</ele><time>2026-04-22T09:53:52.717Z</time></trkpt><trkpt lat="43.5747183" lon="12.1349767"><ele>327.0</ele><time>2026-04-22T09:53:53.717Z</time></trkpt><trkpt lat="43.5746483" lon="12.1351117"><ele>327.0</ele><time>2026-04-22T09:53:54.717Z</time></trkpt><trkpt lat="43.5745733" lon="12.135245"><ele>327.0</ele><time>2026-04-22T09:53:55.717Z</time></trkpt><trkpt lat="43.57451" lon="12.1353967"><ele>327.0</ele><time>2026-04-22T09:53:56.717Z</time></trkpt><trkpt lat="43.57445" lon="12.1355683"><ele>327.0</ele><time>2026-04-22T09:53:57.717Z</time></trkpt><trkpt lat="43.574405" lon="12.1357517"><ele>327.0</ele><time>2026-04-22T09:53:58.717Z</time></trkpt><trkpt lat="43.5743717" lon="12.1359467"><ele>327.0</ele><time>2026-04-22T09:53:59.717Z</time></trkpt><trkpt lat="43.5743383" lon="12.1361483"><ele>327.0</ele><time>2026-04-22T09:54:00.717Z</time></trkpt><trkpt lat="43.5743033" lon="12.1363483"><ele>327.0</ele><time>2026-04-22T09:54:01.717Z</time></trkpt><trkpt lat="43.5742733" lon="12.1365383"><ele>327.0</ele><time>2026-04-22T09:54:02.717Z</time></trkpt><trkpt lat="43.574245" lon="12.1367317"><ele>327.75</ele><time>2026-04-22T09:54:03.718Z</time></trkpt><trkpt lat="43.5742133" lon="12.1369267"><ele>328.5</ele><time>2026-04-22T09:54:04.718Z</time></trkpt><trkpt lat="43.5741833" lon="12.13711"><ele>329.25</ele><time>2026-04-22T09:54:05.717Z</time></trkpt><trkpt lat="43.5741517" lon="12.13728"><ele>330.0</ele><time>2026-04-22T09:54:06.717Z</time></trkpt><trkpt lat="43.5741267" lon="12.1374317"><ele>330.1666666666667</ele><time>2026-04-22T09:54:07.717Z</time></trkpt><trkpt lat="43.5741033" lon="12.13756"><ele>330.3333333333333</ele><time>2026-04-22T09:54:08.717Z</time></trkpt><trkpt lat="43.574085" lon="12.1376667"><ele>330.5</ele><time>2026-04-22T09:54:09.717Z</time></trkpt><trkpt lat="43.57407" lon="12.13776"><ele>330.66666666666663</ele><time>2026-04-22T09:54:10.717Z</time></trkpt><trkpt lat="43.574055" lon="12.1378517"><ele>330.8333333333333</ele><time>2026-04-22T09:54:11.717Z</time></trkpt><trkpt lat="43.5740317" lon="12.1380217"><ele>331.0</ele><time>2026-04-22T09:54:13.718Z</time></trkpt><trkpt lat="43.574015" lon="12.138115"><ele>331.0</ele><time>2026-04-22T09:54:14.718Z</time></trkpt><trkpt lat="43.573995" lon="12.138215"><ele>331.0</ele><time>2026-04-22T09:54:15.717Z</time></trkpt><trkpt lat="43.5739683" lon="12.138375"><ele>331.0</ele><time>2026-04-22T09:54:17.718Z</time></trkpt><trkpt lat="43.5739333" lon="12.1385483"><ele>331.0</ele><time>2026-04-22T09:54:19.717Z</time></trkpt><trkpt lat="43.5739117" lon="12.1386483"><ele>331.0</ele><time>2026-04-22T09:54:20.717Z</time></trkpt><trkpt lat="43.5738917" lon="12.1387617"><ele>331.8</ele><time>2026-04-22T09:54:21.717Z</time></trkpt><trkpt lat="43.5738683" lon="12.1388767"><ele>332.6</ele><time>2026-04-22T09:54:22.717Z</time></trkpt><trkpt lat="43.573845" lon="12.1389967"><ele>333.4</ele><time>2026-04-22T09:54:23.717Z</time></trkpt><trkpt lat="43.5738183" lon="12.13913"><ele>334.2</ele><time>2026-04-22T09:54:24.717Z</time></trkpt><trkpt lat="43.5737833" lon="12.139265"><ele>335.0</ele><time>2026-04-22T09:54:25.717Z</time></trkpt><trkpt lat="43.573755" lon="12.1393883"><ele>335.0</ele><time>2026-04-22T09:54:26.717Z</time></trkpt><trkpt lat="43.57373" lon="12.1395017"><ele>335.0</ele><time>2026-04-22T09:54:27.717Z</time></trkpt><trkpt lat="43.5737033" lon="12.1396083"><ele>335.0</ele><time>2026-04-22T09:54:28.717Z</time></trkpt><trkpt lat="43.5736783" lon="12.1397117"><ele>335.0</ele><time>2026-04-22T09:54:29.717Z</time></trkpt><trkpt lat="43.5736517" lon="12.1398167"><ele>335.0</ele><time>2026-04-22T09:54:30.717Z</time></trkpt><trkpt lat="43.5736133" lon="12.139925"><ele>335.0</ele><time>2026-04-22T09:54:31.717Z</time></trkpt><trkpt lat="43.5735683" lon="12.1400367"><ele>335.0</ele><time>2026-04-22T09:54:32.717Z</time></trkpt><trkpt lat="43.5735233" lon="12.1401567"><ele>335.0</ele><time>2026-04-22T09:54:33.718Z</time></trkpt><trkpt lat="43.573475" lon="12.140275"><ele>335.0</ele><time>2026-04-22T09:54:34.717Z</time></trkpt><trkpt lat="43.57342" lon="12.1403983"><ele>335.0</ele><time>2026-04-22T09:54:35.717Z</time></trkpt><trkpt lat="43.5733667" lon="12.140525"><ele>335.0</ele><time>2026-04-22T09:54:36.717Z</time></trkpt><trkpt lat="43.5733083" lon="12.140645"><ele>335.4</ele><time>2026-04-22T09:54:37.717Z</time></trkpt><trkpt lat="43.5732517" lon="12.1407617"><ele>335.8</ele><time>2026-04-22T09:54:38.717Z</time></trkpt><trkpt lat="43.5731933" lon="12.14088"><ele>336.20000000000005</ele><time>2026-04-22T09:54:39.717Z</time></trkpt><trkpt lat="43.5731317" lon="12.1409983"><ele>336.6</ele><time>2026-04-22T09:54:40.717Z</time></trkpt><trkpt lat="43.5730783" lon="12.1411167"><ele>337.0</ele><time>2026-04-22T09:54:41.717Z</time></trkpt><trkpt lat="43.5730267" lon="12.14123"><ele>337.0</ele><time>2026-04-22T09:54:42.717Z</time></trkpt><trkpt lat="43.5729733" lon="12.1413333"><ele>337.0</ele><time>2026-04-22T09:54:43.717Z</time></trkpt><trkpt lat="43.57292" lon="12.1414417"><ele>337.0</ele><time>2026-04-22T09:54:44.717Z</time></trkpt><trkpt lat="43.5728667" lon="12.1415583"><ele>337.0</ele><time>2026-04-22T09:54:45.717Z</time></trkpt><trkpt lat="43.5728133" lon="12.1416717"><ele>337.0</ele><time>2026-04-22T09:54:46.717Z</time></trkpt><trkpt lat="43.5727617" lon="12.14177"><ele>337.0</ele><time>2026-04-22T09:54:47.717Z</time></trkpt><trkpt lat="43.572715" lon="12.1418533"><ele>337.0</ele><time>2026-04-22T09:54:48.717Z</time></trkpt><trkpt lat="43.5726767" lon="12.141935"><ele>337.0</ele><time>2026-04-22T09:54:49.717Z</time></trkpt><trkpt lat="43.5726367" lon="12.1420067"><ele>337.0</ele><time>2026-04-22T09:54:50.717Z</time></trkpt><trkpt lat="43.5725733" lon="12.1421233"><ele>337.0</ele><time>2026-04-22T09:54:52.718Z</time></trkpt><trkpt lat="43.5725217" lon="12.1422217"><ele>337.0</ele><time>2026-04-22T09:54:54.717Z</time></trkpt><trkpt lat="43.5724817" lon="12.1423"><ele>338.0</ele><time>2026-04-22T09:54:56.717Z</time></trkpt><trkpt lat="43.572435" lon="12.1424117"><ele>339.0</ele><time>2026-04-22T09:54:59.717Z</time></trkpt><trkpt lat="43.5723967" lon="12.1425317"><ele>340.0</ele><time>2026-04-22T09:55:01.718Z</time></trkpt><trkpt lat="43.572345" lon="12.14265"><ele>341.0</ele><time>2026-04-22T09:55:03.717Z</time></trkpt><trkpt lat="43.5722883" lon="12.14277"><ele>342.0</ele><time>2026-04-22T09:55:05.717Z</time></trkpt><trkpt lat="43.57222" lon="12.1429017"><ele>342.0</ele><time>2026-04-22T09:55:07.717Z</time></trkpt><trkpt lat="43.5721767" lon="12.1429783"><ele>342.0</ele><time>2026-04-22T09:55:08.717Z</time></trkpt><trkpt lat="43.5721283" lon="12.1430717"><ele>342.0</ele><time>2026-04-22T09:55:09.717Z</time></trkpt><trkpt lat="43.5720767" lon="12.143175"><ele>342.0</ele><time>2026-04-22T09:55:10.717Z</time></trkpt><trkpt lat="43.5720283" lon="12.143285"><ele>342.0</ele><time>2026-04-22T09:55:11.717Z</time></trkpt><trkpt lat="43.57198" lon="12.14339"><ele>342.0</ele><time>2026-04-22T09:55:12.717Z</time></trkpt><trkpt lat="43.5719317" lon="12.1434933"><ele>341.8</ele><time>2026-04-22T09:55:13.717Z</time></trkpt><trkpt lat="43.5718783" lon="12.1435967"><ele>341.6</ele><time>2026-04-22T09:55:14.717Z</time></trkpt><trkpt lat="43.5718317" lon="12.143695"><ele>341.40000000000003</ele><time>2026-04-22T09:55:15.717Z</time></trkpt><trkpt lat="43.571775" lon="12.1438"><ele>341.20000000000005</ele><time>2026-04-22T09:55:16.717Z</time></trkpt><trkpt lat="43.5717233" lon="12.14391"><ele>341.0</ele><time>2026-04-22T09:55:17.717Z</time></trkpt><trkpt lat="43.5716683" lon="12.14403"><ele>341.6</ele><time>2026-04-22T09:55:18.717Z</time></trkpt><trkpt lat="43.571615" lon="12.14415"><ele>342.20000000000005</ele><time>2026-04-22T09:55:19.717Z</time></trkpt><trkpt lat="43.57156" lon="12.1442817"><ele>342.79999999999995</ele><time>2026-04-22T09:55:20.717Z</time></trkpt><trkpt lat="43.5715167" lon="12.1444183"><ele>343.4</ele><time>2026-04-22T09:55:21.718Z</time></trkpt><trkpt lat="43.5714633" lon="12.1445533"><ele>344.0</ele><time>2026-04-22T09:55:22.717Z</time></trkpt><trkpt lat="43.57141" lon="12.1446983"><ele>344.0</ele><time>2026-04-22T09:55:23.717Z</time></trkpt><trkpt lat="43.5713533" lon="12.1448417"><ele>344.0</ele><time>2026-04-22T09:55:24.717Z</time></trkpt><trkpt lat="43.5713" lon="12.1449867"><ele>344.0</ele><time>2026-04-22T09:55:25.717Z</time></trkpt><trkpt lat="43.5712467" lon="12.1451333"><ele>344.0</ele><time>2026-04-22T09:55:26.717Z</time></trkpt><trkpt lat="43.5711917" lon="12.14528"><ele>344.0</ele><time>2026-04-22T09:55:27.717Z</time></trkpt><trkpt lat="43.5711367" lon="12.1454283"><ele>344.0</ele><time>2026-04-22T09:55:28.718Z</time></trkpt><trkpt lat="43.5710817" lon="12.14558"><ele>344.0</ele><time>2026-04-22T09:55:29.717Z</time></trkpt><trkpt lat="43.5710267" lon="12.1457317"><ele>344.0</ele><time>2026-04-22T09:55:30.717Z</time></trkpt><trkpt lat="43.5709733" lon="12.145885"><ele>344.4</ele><time>2026-04-22T09:55:31.717Z</time></trkpt><trkpt lat="43.57092" lon="12.1460283"><ele>344.79999999999995</ele><time>2026-04-22T09:55:32.718Z</time></trkpt><trkpt lat="43.5708667" lon="12.1461533"><ele>345.20000000000005</ele><time>2026-04-22T09:55:33.717Z</time></trkpt><trkpt lat="43.5708133" lon="12.146265"><ele>345.6</ele><time>2026-04-22T09:55:34.717Z</time></trkpt><trkpt lat="43.5707667" lon="12.1463633"><ele>346.0</ele><time>2026-04-22T09:55:35.717Z</time></trkpt><trkpt lat="43.5707217" lon="12.1464517"><ele>346.0</ele><time>2026-04-22T09:55:36.717Z</time></trkpt><trkpt lat="43.5706833" lon="12.1465317"><ele>346.0</ele><time>2026-04-22T09:55:37.717Z</time></trkpt><trkpt lat="43.5706067" lon="12.1466567"><ele>346.0</ele><time>2026-04-22T09:55:39.717Z</time></trkpt><trkpt lat="43.5705383" lon="12.14677"><ele>346.0</ele><time>2026-04-22T09:55:41.717Z</time></trkpt><trkpt lat="43.570465" lon="12.1468967"><ele>346.0</ele><time>2026-04-22T09:55:43.717Z</time></trkpt><trkpt lat="43.5704167" lon="12.1469733"><ele>345.66666666666663</ele><time>2026-04-22T09:55:44.717Z</time></trkpt><trkpt lat="43.5703583" lon="12.1470533"><ele>345.3333333333333</ele><time>2026-04-22T09:55:45.718Z</time></trkpt><trkpt lat="43.5702983" lon="12.1471333"><ele>345.0</ele><time>2026-04-22T09:55:46.717Z</time></trkpt><trkpt lat="43.5702333" lon="12.1472233"><ele>344.6666666666667</ele><time>2026-04-22T09:55:47.717Z</time></trkpt><trkpt lat="43.5701633" lon="12.14731"><ele>344.33333333333337</ele><time>2026-04-22T09:55:48.717Z</time></trkpt><trkpt lat="43.5700933" lon="12.1474033"><ele>344.0</ele><time>2026-04-22T09:55:49.717Z</time></trkpt><trkpt lat="43.57002" lon="12.147495"><ele>343.2</ele><time>2026-04-22T09:55:50.717Z</time></trkpt><trkpt lat="43.5699433" lon="12.1475983"><ele>342.4</ele><time>2026-04-22T09:55:51.718Z</time></trkpt><trkpt lat="43.5698667" lon="12.1477033"><ele>341.6</ele><time>2026-04-22T09:55:52.718Z</time></trkpt><trkpt lat="43.5697883" lon="12.14781"><ele>340.8</ele><time>2026-04-22T09:55:53.717Z</time></trkpt><trkpt lat="43.569705" lon="12.1479233"><ele>340.0</ele><time>2026-04-22T09:55:54.717Z</time></trkpt><trkpt lat="43.5696217" lon="12.1480383"><ele>340.0</ele><time>2026-04-22T09:55:55.717Z</time></trkpt><trkpt lat="43.56954" lon="12.1481533"><ele>340.0</ele><time>2026-04-22T09:55:56.717Z</time></trkpt><trkpt lat="43.569455" lon="12.1482683"><ele>340.0</ele><time>2026-04-22T09:55:57.717Z</time></trkpt><trkpt lat="43.56937" lon="12.148385"><ele>340.0</ele><time>2026-04-22T09:55:58.717Z</time></trkpt><trkpt lat="43.5692817" lon="12.1485"><ele>338.75</ele><time>2026-04-22T09:55:59.717Z</time></trkpt><trkpt lat="43.5691967" lon="12.1486117"><ele>337.5</ele><time>2026-04-22T09:56:00.717Z</time></trkpt><trkpt lat="43.569115" lon="12.1487233"><ele>336.25</ele><time>2026-04-22T09:56:01.717Z</time></trkpt><trkpt lat="43.5690317" lon="12.1488367"><ele>335.0</ele><time>2026-04-22T09:56:02.717Z</time></trkpt><trkpt lat="43.56895" lon="12.1489517"><ele>335.25</ele><time>2026-04-22T09:56:03.718Z</time></trkpt><trkpt lat="43.5688617" lon="12.149065"><ele>335.5</ele><time>2026-04-22T09:56:04.717Z</time></trkpt><trkpt lat="43.568775" lon="12.14918"><ele>335.75</ele><time>2026-04-22T09:56:05.717Z</time></trkpt><trkpt lat="43.5686917" lon="12.1492933"><ele>336.0</ele><time>2026-04-22T09:56:06.717Z</time></trkpt><trkpt lat="43.56861" lon="12.14941"><ele>335.5</ele><time>2026-04-22T09:56:07.717Z</time></trkpt><trkpt lat="43.5685267" lon="12.149525"><ele>335.0</ele><time>2026-04-22T09:56:08.717Z</time></trkpt><trkpt lat="43.56844" lon="12.1496383"><ele>334.5</ele><time>2026-04-22T09:56:09.717Z</time></trkpt><trkpt lat="43.5683533" lon="12.14975"><ele>334.0</ele><time>2026-04-22T09:56:10.717Z</time></trkpt><trkpt lat="43.5682667" lon="12.1498667"><ele>334.25</ele><time>2026-04-22T09:56:11.717Z</time></trkpt><trkpt lat="43.56818" lon="12.1499817"><ele>334.5</ele><time>2026-04-22T09:56:12.717Z</time></trkpt><trkpt lat="43.5680933" lon="12.150095"><ele>334.75</ele><time>2026-04-22T09:56:13.717Z</time></trkpt><trkpt lat="43.5680083" lon="12.1502083"><ele>335.0</ele><time>2026-04-22T09:56:14.718Z</time></trkpt><trkpt lat="43.5679283" lon="12.150315"><ele>334.8</ele><time>2026-04-22T09:56:15.717Z</time></trkpt><trkpt lat="43.567855" lon="12.1504167"><ele>334.6</ele><time>2026-04-22T09:56:16.717Z</time></trkpt><trkpt lat="43.567785" lon="12.1505167"><ele>334.4</ele><time>2026-04-22T09:56:17.718Z</time></trkpt><trkpt lat="43.56771" lon="12.15062"><ele>334.2</ele><time>2026-04-22T09:56:18.718Z</time></trkpt><trkpt lat="43.56764" lon="12.150715"><ele>334.0</ele><time>2026-04-22T09:56:19.717Z</time></trkpt><trkpt lat="43.5675717" lon="12.1508017"><ele>334.0</ele><time>2026-04-22T09:56:20.717Z</time></trkpt><trkpt lat="43.5675017" lon="12.1508833"><ele>334.0</ele><time>2026-04-22T09:56:21.717Z</time></trkpt><trkpt lat="43.5674267" lon="12.15095"><ele>334.0</ele><time>2026-04-22T09:56:22.717Z</time></trkpt><trkpt lat="43.567345" lon="12.15101"><ele>334.0</ele><time>2026-04-22T09:56:23.717Z</time></trkpt><trkpt lat="43.56726" lon="12.1510633"><ele>334.0</ele><time>2026-04-22T09:56:24.717Z</time></trkpt><trkpt lat="43.5671683" lon="12.1511183"><ele>334.0</ele><time>2026-04-22T09:56:25.717Z</time></trkpt><trkpt lat="43.567085" lon="12.15118"><ele>334.0</ele><time>2026-04-22T09:56:26.717Z</time></trkpt><trkpt lat="43.5670117" lon="12.1512483"><ele>334.0</ele><time>2026-04-22T09:56:27.717Z</time></trkpt><trkpt lat="43.5669583" lon="12.15133"><ele>334.0</ele><time>2026-04-22T09:56:28.717Z</time></trkpt><trkpt lat="43.56693" lon="12.1514267"><ele>334.0</ele><time>2026-04-22T09:56:29.717Z</time></trkpt><trkpt lat="43.5669233" lon="12.1515367"><ele>334.0</ele><time>2026-04-22T09:56:30.718Z</time></trkpt><trkpt lat="43.5669267" lon="12.1516533"><ele>333.6</ele><time>2026-04-22T09:56:31.717Z</time></trkpt><trkpt lat="43.56692" lon="12.1517717"><ele>333.2</ele><time>2026-04-22T09:56:32.717Z</time></trkpt><trkpt lat="43.5668933" lon="12.1518917"><ele>332.8</ele><time>2026-04-22T09:56:33.717Z</time></trkpt><trkpt lat="43.5668633" lon="12.1520117"><ele>332.40000000000003</ele><time>2026-04-22T09:56:34.717Z</time></trkpt><trkpt lat="43.566825" lon="12.152145"><ele>332.0</ele><time>2026-04-22T09:56:35.717Z</time></trkpt><trkpt lat="43.5667783" lon="12.1522767"><ele>332.20000000000005</ele><time>2026-04-22T09:56:36.717Z</time></trkpt><trkpt lat="43.5667333" lon="12.1524067"><ele>332.4</ele><time>2026-04-22T09:56:37.717Z</time></trkpt><trkpt lat="43.56669" lon="12.1525367"><ele>332.6</ele><time>2026-04-22T09:56:38.717Z</time></trkpt><trkpt lat="43.5666383" lon="12.152665"><ele>332.79999999999995</ele><time>2026-04-22T09:56:39.717Z</time></trkpt><trkpt lat="43.5665933" lon="12.1528"><ele>333.0</ele><time>2026-04-22T09:56:40.717Z</time></trkpt><trkpt lat="43.566545" lon="12.1529417"><ele>333.0</ele><time>2026-04-22T09:56:41.717Z</time></trkpt><trkpt lat="43.5664983" lon="12.15308"><ele>333.0</ele><time>2026-04-22T09:56:42.717Z</time></trkpt><trkpt lat="43.5664467" lon="12.1532217"><ele>333.0</ele><time>2026-04-22T09:56:43.717Z</time></trkpt><trkpt lat="43.5664" lon="12.1533583"><ele>333.0</ele><time>2026-04-22T09:56:44.717Z</time></trkpt><trkpt lat="43.5663583" lon="12.1535"><ele>333.0</ele><time>2026-04-22T09:56:45.717Z</time></trkpt><trkpt lat="43.566315" lon="12.153645"><ele>333.25</ele><time>2026-04-22T09:56:46.718Z</time></trkpt><trkpt lat="43.566275" lon="12.1537883"><ele>333.5</ele><time>2026-04-22T09:56:47.717Z</time></trkpt><trkpt lat="43.5662267" lon="12.1539283"><ele>333.75</ele><time>2026-04-22T09:56:48.718Z</time></trkpt><trkpt lat="43.566175" lon="12.1540667"><ele>334.0</ele><time>2026-04-22T09:56:49.717Z</time></trkpt><trkpt lat="43.5661267" lon="12.1542083"><ele>334.0</ele><time>2026-04-22T09:56:50.717Z</time></trkpt><trkpt lat="43.5660717" lon="12.1543467"><ele>334.0</ele><time>2026-04-22T09:56:51.717Z</time></trkpt><trkpt lat="43.56602" lon="12.1544967"><ele>334.0</ele><time>2026-04-22T09:56:52.717Z</time></trkpt><trkpt lat="43.5659667" lon="12.1546467"><ele>334.0</ele><time>2026-04-22T09:56:53.717Z</time></trkpt><trkpt lat="43.5659117" lon="12.1548"><ele>334.0</ele><time>2026-04-22T09:56:54.717Z</time></trkpt><trkpt lat="43.5658633" lon="12.1549617"><ele>334.0</ele><time>2026-04-22T09:56:55.717Z</time></trkpt><trkpt lat="43.5658117" lon="12.155115"><ele>334.0</ele><time>2026-04-22T09:56:56.717Z</time></trkpt><trkpt lat="43.5657583" lon="12.1552717"><ele>334.0</ele><time>2026-04-22T09:56:57.718Z</time></trkpt><trkpt lat="43.5657" lon="12.15543"><ele>334.0</ele><time>2026-04-22T09:56:58.717Z</time></trkpt><trkpt lat="43.5656483" lon="12.155585"><ele>334.0</ele><time>2026-04-22T09:56:59.717Z</time></trkpt><trkpt lat="43.5655933" lon="12.1557467"><ele>334.0</ele><time>2026-04-22T09:57:00.717Z</time></trkpt><trkpt lat="43.5655383" lon="12.15591"><ele>334.0</ele><time>2026-04-22T09:57:01.718Z</time></trkpt><trkpt lat="43.5654783" lon="12.1560667"><ele>334.25</ele><time>2026-04-22T09:57:02.718Z</time></trkpt><trkpt lat="43.565415" lon="12.15622"><ele>334.5</ele><time>2026-04-22T09:57:03.717Z</time></trkpt><trkpt lat="43.5653567" lon="12.15638"><ele>334.75</ele><time>2026-04-22T09:57:04.717Z</time></trkpt><trkpt lat="43.565295" lon="12.156545"><ele>335.0</ele><time>2026-04-22T09:57:05.717Z</time></trkpt><trkpt lat="43.56524" lon="12.1567133"><ele>334.25</ele><time>2026-04-22T09:57:06.717Z</time></trkpt><trkpt lat="43.5651817" lon="12.156885"><ele>333.5</ele><time>2026-04-22T09:57:07.717Z</time></trkpt><trkpt lat="43.5651233" lon="12.1570617"><ele>332.75</ele><time>2026-04-22T09:57:08.718Z</time></trkpt><trkpt lat="43.565065" lon="12.1572417"><ele>332.0</ele><time>2026-04-22T09:57:09.717Z</time></trkpt><trkpt lat="43.5650067" lon="12.15742"><ele>331.75</ele><time>2026-04-22T09:57:10.717Z</time></trkpt><trkpt lat="43.564955" lon="12.1576"><ele>331.5</ele><time>2026-04-22T09:57:11.717Z</time></trkpt><trkpt lat="43.5649083" lon="12.1577783"><ele>331.25</ele><time>2026-04-22T09:57:12.717Z</time></trkpt><trkpt lat="43.5648583" lon="12.1579517"><ele>331.0</ele><time>2026-04-22T09:57:13.717Z</time></trkpt><trkpt lat="43.56482" lon="12.1581233"><ele>331.25</ele><time>2026-04-22T09:57:14.717Z</time></trkpt><trkpt lat="43.5647667" lon="12.158275"><ele>331.5</ele><time>2026-04-22T09:57:15.717Z</time></trkpt><trkpt lat="43.5646983" lon="12.1584117"><ele>331.75</ele><time>2026-04-22T09:57:16.718Z</time></trkpt><trkpt lat="43.5646167" lon="12.15854"><ele>332.0</ele><time>2026-04-22T09:57:17.717Z</time></trkpt><trkpt lat="43.5645267" lon="12.1586533"><ele>331.5</ele><time>2026-04-22T09:57:18.717Z</time></trkpt><trkpt lat="43.56443" lon="12.1587733"><ele>331.0</ele><time>2026-04-22T09:57:19.718Z</time></trkpt><trkpt lat="43.564325" lon="12.1588933"><ele>330.5</ele><time>2026-04-22T09:57:20.717Z</time></trkpt><trkpt lat="43.5642183" lon="12.1590067"><ele>330.0</ele><time>2026-04-22T09:57:21.717Z</time></trkpt><trkpt lat="43.5641067" lon="12.1591283"><ele>330.0</ele><time>2026-04-22T09:57:22.718Z</time></trkpt><trkpt lat="43.5639933" lon="12.159245"><ele>330.0</ele><time>2026-04-22T09:57:23.717Z</time></trkpt><trkpt lat="43.5638867" lon="12.159355"><ele>330.0</ele><time>2026-04-22T09:57:24.717Z</time></trkpt><trkpt lat="43.56379" lon="12.159455"><ele>330.0</ele><time>2026-04-22T09:57:25.717Z</time></trkpt><trkpt lat="43.563705" lon="12.1595517"><ele>329.75</ele><time>2026-04-22T09:57:26.717Z</time></trkpt><trkpt lat="43.5636167" lon="12.1596517"><ele>329.5</ele><time>2026-04-22T09:57:27.717Z</time></trkpt><trkpt lat="43.5635267" lon="12.159745"><ele>329.25</ele><time>2026-04-22T09:57:28.717Z</time></trkpt><trkpt lat="43.5634367" lon="12.1598367"><ele>329.0</ele><time>2026-04-22T09:57:29.717Z</time></trkpt><trkpt lat="43.5633417" lon="12.159925"><ele>329.5</ele><time>2026-04-22T09:57:30.718Z</time></trkpt><trkpt lat="43.5632467" lon="12.16002"><ele>330.0</ele><time>2026-04-22T09:57:31.717Z</time></trkpt><trkpt lat="43.5631483" lon="12.16012"><ele>330.5</ele><time>2026-04-22T09:57:32.717Z</time></trkpt><trkpt lat="43.56305" lon="12.16022"><ele>331.0</ele><time>2026-04-22T09:57:33.717Z</time></trkpt><trkpt lat="43.56295" lon="12.160325"><ele>331.0</ele><time>2026-04-22T09:57:34.717Z</time></trkpt><trkpt lat="43.562845" lon="12.1604317"><ele>331.0</ele><time>2026-04-22T09:57:35.717Z</time></trkpt><trkpt lat="43.562735" lon="12.1605433"><ele>331.0</ele><time>2026-04-22T09:57:36.717Z</time></trkpt><trkpt lat="43.5626283" lon="12.1606567"><ele>331.0</ele><time>2026-04-22T09:57:37.717Z</time></trkpt><trkpt lat="43.562525" lon="12.160765"><ele>331.0</ele><time>2026-04-22T09:57:38.717Z</time></trkpt><trkpt lat="43.5624183" lon="12.160875"><ele>331.0</ele><time>2026-04-22T09:57:39.718Z</time></trkpt><trkpt lat="43.5623133" lon="12.1609867"><ele>331.0</ele><time>2026-04-22T09:57:40.717Z</time></trkpt><trkpt lat="43.5622133" lon="12.1610917"><ele>331.0</ele><time>2026-04-22T09:57:41.717Z</time></trkpt><trkpt lat="43.562115" lon="12.161195"><ele>330.6</ele><time>2026-04-22T09:57:42.717Z</time></trkpt><trkpt lat="43.562015" lon="12.1612933"><ele>330.20000000000005</ele><time>2026-04-22T09:57:43.717Z</time></trkpt><trkpt lat="43.5619233" lon="12.161385"><ele>329.79999999999995</ele><time>2026-04-22T09:57:44.717Z</time></trkpt><trkpt lat="43.5618367" lon="12.1614783"><ele>329.4</ele><time>2026-04-22T09:57:45.718Z</time></trkpt><trkpt lat="43.561755" lon="12.161565"><ele>329.0</ele><time>2026-04-22T09:57:46.717Z</time></trkpt><trkpt lat="43.5616733" lon="12.1616467"><ele>329.0</ele><time>2026-04-22T09:57:47.717Z</time></trkpt><trkpt lat="43.5615867" lon="12.1617183"><ele>329.0</ele><time>2026-04-22T09:57:48.717Z</time></trkpt><trkpt lat="43.5614967" lon="12.1617783"><ele>329.0</ele><time>2026-04-22T09:57:49.718Z</time></trkpt><trkpt lat="43.5614083" lon="12.161825"><ele>329.0</ele><time>2026-04-22T09:57:50.717Z</time></trkpt><trkpt lat="43.56133" lon="12.1618783"><ele>329.0</ele><time>2026-04-22T09:57:51.717Z</time></trkpt><trkpt lat="43.5612617" lon="12.161955"><ele>329.0</ele><time>2026-04-22T09:57:52.717Z</time></trkpt><trkpt lat="43.5612017" lon="12.16205"><ele>329.0</ele><time>2026-04-22T09:57:53.718Z</time></trkpt><trkpt lat="43.5611433" lon="12.162145"><ele>329.0</ele><time>2026-04-22T09:57:54.717Z</time></trkpt><trkpt lat="43.561075" lon="12.162235"><ele>329.0</ele><time>2026-04-22T09:57:55.717Z</time></trkpt><trkpt lat="43.561" lon="12.1623217"><ele>329.0</ele><time>2026-04-22T09:57:56.717Z</time></trkpt><trkpt lat="43.5609267" lon="12.1624067"><ele>329.2</ele><time>2026-04-22T09:57:57.717Z</time></trkpt><trkpt lat="43.5608483" lon="12.1624817"><ele>329.4</ele><time>2026-04-22T09:57:58.717Z</time></trkpt><trkpt lat="43.56077" lon="12.1625617"><ele>329.6</ele><time>2026-04-22T09:57:59.717Z</time></trkpt><trkpt lat="43.5606883" lon="12.1626467"><ele>329.8</ele><time>2026-04-22T09:58:00.717Z</time></trkpt><trkpt lat="43.5606033" lon="12.1627333"><ele>330.0</ele><time>2026-04-22T09:58:01.718Z</time></trkpt><trkpt lat="43.5605167" lon="12.1628217"><ele>330.0</ele><time>2026-04-22T09:58:02.717Z</time></trkpt><trkpt lat="43.5604267" lon="12.16291"><ele>330.0</ele><time>2026-04-22T09:58:03.717Z</time></trkpt><trkpt lat="43.56034" lon="12.1630017"><ele>330.0</ele><time>2026-04-22T09:58:04.717Z</time></trkpt><trkpt lat="43.56025" lon="12.163095"><ele>330.0</ele><time>2026-04-22T09:58:05.717Z</time></trkpt><trkpt lat="43.560155" lon="12.1631883"><ele>330.0</ele><time>2026-04-22T09:58:06.717Z</time></trkpt><trkpt lat="43.5600567" lon="12.1632867"><ele>329.75</ele><time>2026-04-22T09:58:07.717Z</time></trkpt><trkpt lat="43.5599617" lon="12.1633867"><ele>329.5</ele><time>2026-04-22T09:58:08.717Z</time></trkpt><trkpt lat="43.55986" lon="12.1634883"><ele>329.25</ele><time>2026-04-22T09:58:09.717Z</time></trkpt><trkpt lat="43.5597567" lon="12.16359"><ele>329.0</ele><time>2026-04-22T09:58:10.718Z</time></trkpt><trkpt lat="43.5596517" lon="12.163695"><ele>329.0</ele><time>2026-04-22T09:58:11.718Z</time></trkpt><trkpt lat="43.5595517" lon="12.1638"><ele>329.0</ele><time>2026-04-22T09:58:12.718Z</time></trkpt><trkpt lat="43.55945" lon="12.1639"><ele>329.0</ele><time>2026-04-22T09:58:13.717Z</time></trkpt><trkpt lat="43.5593483" lon="12.1640033"><ele>329.0</ele><time>2026-04-22T09:58:14.717Z</time></trkpt><trkpt lat="43.559245" lon="12.1640983"><ele>328.75</ele><time>2026-04-22T09:58:15.718Z</time></trkpt><trkpt lat="43.5591467" lon="12.164205"><ele>328.5</ele><time>2026-04-22T09:58:16.717Z</time></trkpt><trkpt lat="43.559055" lon="12.1643"><ele>328.25</ele><time>2026-04-22T09:58:17.717Z</time></trkpt><trkpt lat="43.55896" lon="12.1643933"><ele>328.0</ele><time>2026-04-22T09:58:18.717Z</time></trkpt><trkpt lat="43.55887" lon="12.164495"><ele>328.0</ele><time>2026-04-22T09:58:19.717Z</time></trkpt><trkpt lat="43.5587767" lon="12.164595"><ele>328.0</ele><time>2026-04-22T09:58:20.717Z</time></trkpt><trkpt lat="43.5586833" lon="12.1646883"><ele>328.0</ele><time>2026-04-22T09:58:21.717Z</time></trkpt><trkpt lat="43.55859" lon="12.16478"><ele>328.0</ele><time>2026-04-22T09:58:22.717Z</time></trkpt><trkpt lat="43.558495" lon="12.1648733"><ele>328.0</ele><time>2026-04-22T09:58:23.717Z</time></trkpt><trkpt lat="43.5584017" lon="12.16497"><ele>328.0</ele><time>2026-04-22T09:58:24.717Z</time></trkpt><trkpt lat="43.5583083" lon="12.16507"><ele>328.0</ele><time>2026-04-22T09:58:25.717Z</time></trkpt><trkpt lat="43.5582133" lon="12.1651667"><ele>328.0</ele><time>2026-04-22T09:58:26.717Z</time></trkpt><trkpt lat="43.558115" lon="12.1652633"><ele>328.0</ele><time>2026-04-22T09:58:27.717Z</time></trkpt><trkpt lat="43.558015" lon="12.1653617"><ele>328.0</ele><time>2026-04-22T09:58:28.717Z</time></trkpt><trkpt lat="43.5579167" lon="12.1654617"><ele>328.0</ele><time>2026-04-22T09:58:29.718Z</time></trkpt><trkpt lat="43.5578183" lon="12.1655617"><ele>328.0</ele><time>2026-04-22T09:58:30.717Z</time></trkpt><trkpt lat="43.5577183" lon="12.165665"><ele>328.25</ele><time>2026-04-22T09:58:31.717Z</time></trkpt><trkpt lat="43.557615" lon="12.1657583"><ele>328.5</ele><time>2026-04-22T09:58:32.717Z</time></trkpt><trkpt lat="43.5575083" lon="12.1658783"><ele>328.75</ele><time>2026-04-22T09:58:33.717Z</time></trkpt><trkpt lat="43.5574017" lon="12.1659917"><ele>329.0</ele><time>2026-04-22T09:58:34.717Z</time></trkpt><trkpt lat="43.55729" lon="12.1661033"><ele>329.0</ele><time>2026-04-22T09:58:35.717Z</time></trkpt><trkpt lat="43.5571717" lon="12.1662167"><ele>329.0</ele><time>2026-04-22T09:58:36.717Z</time></trkpt><trkpt lat="43.5570567" lon="12.166335"><ele>329.0</ele><time>2026-04-22T09:58:37.717Z</time></trkpt><trkpt lat="43.5569433" lon="12.1664533"><ele>329.0</ele><time>2026-04-22T09:58:38.717Z</time></trkpt><trkpt lat="43.5568317" lon="12.166565"><ele>329.25</ele><time>2026-04-22T09:58:39.717Z</time></trkpt><trkpt lat="43.55672" lon="12.1666733"><ele>329.5</ele><time>2026-04-22T09:58:40.717Z</time></trkpt><trkpt lat="43.5566083" lon="12.166785"><ele>329.75</ele><time>2026-04-22T09:58:41.717Z</time></trkpt><trkpt lat="43.556495" lon="12.1668967"><ele>330.0</ele><time>2026-04-22T09:58:42.717Z</time></trkpt><trkpt lat="43.5563833" lon="12.1670133"><ele>330.0</ele><time>2026-04-22T09:58:43.717Z</time></trkpt><trkpt lat="43.5562733" lon="12.167125"><ele>330.0</ele><time>2026-04-22T09:58:44.717Z</time></trkpt><trkpt lat="43.55616" lon="12.1672383"><ele>330.0</ele><time>2026-04-22T09:58:45.717Z</time></trkpt><trkpt lat="43.5560467" lon="12.1673517"><ele>330.0</ele><time>2026-04-22T09:58:46.717Z</time></trkpt><trkpt lat="43.55593" lon="12.16747"><ele>330.25</ele><time>2026-04-22T09:58:47.717Z</time></trkpt><trkpt lat="43.555815" lon="12.16759"><ele>330.5</ele><time>2026-04-22T09:58:48.717Z</time></trkpt><trkpt lat="43.5557033" lon="12.1677033"><ele>330.75</ele><time>2026-04-22T09:58:49.717Z</time></trkpt><trkpt lat="43.5555917" lon="12.1678133"><ele>331.0</ele><time>2026-04-22T09:58:50.717Z</time></trkpt><trkpt lat="43.5554833" lon="12.1679283"><ele>331.0</ele><time>2026-04-22T09:58:51.717Z</time></trkpt><trkpt lat="43.5553767" lon="12.1680433"><ele>331.0</ele><time>2026-04-22T09:58:52.717Z</time></trkpt><trkpt lat="43.55527" lon="12.16816"><ele>331.0</ele><time>2026-04-22T09:58:53.717Z</time></trkpt><trkpt lat="43.5551617" lon="12.1682733"><ele>331.0</ele><time>2026-04-22T09:58:54.718Z</time></trkpt><trkpt lat="43.5550517" lon="12.16839"><ele>330.75</ele><time>2026-04-22T09:58:55.717Z</time></trkpt><trkpt lat="43.55494" lon="12.1685033"><ele>330.5</ele><time>2026-04-22T09:58:56.717Z</time></trkpt><trkpt lat="43.5548267" lon="12.168615"><ele>330.25</ele><time>2026-04-22T09:58:57.717Z</time></trkpt><trkpt lat="43.5547167" lon="12.168725"><ele>330.0</ele><time>2026-04-22T09:58:58.717Z</time></trkpt><trkpt lat="43.5546133" lon="12.1688317"><ele>330.0</ele><time>2026-04-22T09:58:59.717Z</time></trkpt><trkpt lat="43.5545183" lon="12.168935"><ele>330.0</ele><time>2026-04-22T09:59:00.717Z</time></trkpt><trkpt lat="43.55443" lon="12.1690333"><ele>330.0</ele><time>2026-04-22T09:59:01.717Z</time></trkpt><trkpt lat="43.5543417" lon="12.1691333"><ele>330.0</ele><time>2026-04-22T09:59:02.717Z</time></trkpt><trkpt lat="43.5542417" lon="12.16924"><ele>329.0</ele><time>2026-04-22T09:59:03.717Z</time></trkpt><trkpt lat="43.5541267" lon="12.169355"><ele>328.0</ele><time>2026-04-22T09:59:04.718Z</time></trkpt><trkpt lat="43.5539983" lon="12.1694817"><ele>327.0</ele><time>2026-04-22T09:59:05.717Z</time></trkpt><trkpt lat="43.5538667" lon="12.1696133"><ele>327.0</ele><time>2026-04-22T09:59:06.717Z</time></trkpt><trkpt lat="43.5537317" lon="12.1697433"><ele>327.0</ele><time>2026-04-22T09:59:07.717Z</time></trkpt><trkpt lat="43.5535983" lon="12.16988"><ele>327.0</ele><time>2026-04-22T09:59:08.718Z</time></trkpt><trkpt lat="43.5534617" lon="12.1700267"><ele>327.3333333333333</ele><time>2026-04-22T09:59:09.717Z</time></trkpt><trkpt lat="43.5533183" lon="12.1701833"><ele>327.66666666666663</ele><time>2026-04-22T09:59:10.718Z</time></trkpt><trkpt lat="43.5531833" lon="12.1703433"><ele>328.0</ele><time>2026-04-22T09:59:11.717Z</time></trkpt><trkpt lat="43.553055" lon="12.170505"><ele>328.0</ele><time>2026-04-22T09:59:12.717Z</time></trkpt><trkpt lat="43.5529383" lon="12.1706767"><ele>328.0</ele><time>2026-04-22T09:59:13.717Z</time></trkpt><trkpt lat="43.552825" lon="12.170845"><ele>328.0</ele><time>2026-04-22T09:59:14.717Z</time></trkpt><trkpt lat="43.5527083" lon="12.171025"><ele>328.3333333333333</ele><time>2026-04-22T09:59:15.717Z</time></trkpt><trkpt lat="43.5525883" lon="12.1711967"><ele>328.6666666666667</ele><time>2026-04-22T09:59:16.717Z</time></trkpt><trkpt lat="43.5524667" lon="12.17137"><ele>329.0</ele><time>2026-04-22T09:59:17.717Z</time></trkpt><trkpt lat="43.5523467" lon="12.17154"><ele>328.33333333333337</ele><time>2026-04-22T09:59:18.717Z</time></trkpt><trkpt lat="43.552225" lon="12.1717117"><ele>327.6666666666667</ele><time>2026-04-22T09:59:19.717Z</time></trkpt><trkpt lat="43.5521067" lon="12.1718767"><ele>327.0</ele><time>2026-04-22T09:59:20.717Z</time></trkpt><trkpt lat="43.5519917" lon="12.1720333"><ele>326.6666666666667</ele><time>2026-04-22T09:59:21.717Z</time></trkpt><trkpt lat="43.55188" lon="12.1721883"><ele>326.33333333333337</ele><time>2026-04-22T09:59:22.717Z</time></trkpt><trkpt lat="43.5517683" lon="12.1723417"><ele>326.0</ele><time>2026-04-22T09:59:23.718Z</time></trkpt><trkpt lat="43.5516567" lon="12.1725"><ele>326.6666666666667</ele><time>2026-04-22T09:59:24.717Z</time></trkpt><trkpt lat="43.55155" lon="12.17265"><ele>327.3333333333333</ele><time>2026-04-22T09:59:25.717Z</time></trkpt><trkpt lat="43.551435" lon="12.1728167"><ele>328.0</ele><time>2026-04-22T09:59:26.717Z</time></trkpt><trkpt lat="43.551315" lon="12.1729967"><ele>328.0</ele><time>2026-04-22T09:59:27.718Z</time></trkpt><trkpt lat="43.5511867" lon="12.1731767"><ele>328.0</ele><time>2026-04-22T09:59:28.717Z</time></trkpt><trkpt lat="43.5510567" lon="12.173345"><ele>328.0</ele><time>2026-04-22T09:59:29.717Z</time></trkpt><trkpt lat="43.5509383" lon="12.1735083"><ele>328.0</ele><time>2026-04-22T09:59:30.717Z</time></trkpt><trkpt lat="43.5508367" lon="12.1736617"><ele>328.0</ele><time>2026-04-22T09:59:31.717Z</time></trkpt><trkpt lat="43.5507317" lon="12.1738067"><ele>328.0</ele><time>2026-04-22T09:59:32.717Z</time></trkpt><trkpt lat="43.5506317" lon="12.1739417"><ele>328.0</ele><time>2026-04-22T09:59:33.717Z</time></trkpt><trkpt lat="43.5505433" lon="12.174075"><ele>328.25</ele><time>2026-04-22T09:59:34.717Z</time></trkpt><trkpt lat="43.550455" lon="12.1742067"><ele>328.5</ele><time>2026-04-22T09:59:35.717Z</time></trkpt><trkpt lat="43.5503633" lon="12.17433"><ele>328.75</ele><time>2026-04-22T09:59:36.717Z</time></trkpt><trkpt lat="43.5502833" lon="12.1744517"><ele>329.0</ele><time>2026-04-22T09:59:37.717Z</time></trkpt><trkpt lat="43.5502083" lon="12.1745633"><ele>329.0</ele><time>2026-04-22T09:59:38.716Z</time></trkpt><trkpt lat="43.5501317" lon="12.1746733"><ele>329.0</ele><time>2026-04-22T09:59:39.717Z</time></trkpt><trkpt lat="43.550045" lon="12.1747833"><ele>329.0</ele><time>2026-04-22T09:59:40.716Z</time></trkpt><trkpt lat="43.549975" lon="12.1748983"><ele>329.0</ele><time>2026-04-22T09:59:41.716Z</time></trkpt><trkpt lat="43.549895" lon="12.1750033"><ele>329.0</ele><time>2026-04-22T09:59:42.716Z</time></trkpt><trkpt lat="43.549825" lon="12.1751167"><ele>329.2</ele><time>2026-04-22T09:59:43.716Z</time></trkpt><trkpt lat="43.5497483" lon="12.1752267"><ele>329.4</ele><time>2026-04-22T09:59:44.716Z</time></trkpt><trkpt lat="43.5496733" lon="12.175335"><ele>329.6</ele><time>2026-04-22T09:59:45.716Z</time></trkpt><trkpt lat="43.549595" lon="12.1754383"><ele>329.8</ele><time>2026-04-22T09:59:46.716Z</time></trkpt><trkpt lat="43.5495183" lon="12.175555"><ele>330.0</ele><time>2026-04-22T09:59:47.716Z</time></trkpt><trkpt lat="43.54944" lon="12.17566"><ele>330.4</ele><time>2026-04-22T09:59:48.717Z</time></trkpt><trkpt lat="43.54937" lon="12.17577"><ele>330.8</ele><time>2026-04-22T09:59:49.716Z</time></trkpt><trkpt lat="43.54929" lon="12.175865"><ele>331.20000000000005</ele><time>2026-04-22T09:59:50.716Z</time></trkpt><trkpt lat="43.549215" lon="12.1759467"><ele>331.6</ele><time>2026-04-22T09:59:51.716Z</time></trkpt><trkpt lat="43.54915" lon="12.1760283"><ele>332.0</ele><time>2026-04-22T09:59:52.716Z</time></trkpt><trkpt lat="43.5490883" lon="12.1761117"><ele>332.0</ele><time>2026-04-22T09:59:53.716Z</time></trkpt><trkpt lat="43.54903" lon="12.1761917"><ele>332.0</ele><time>2026-04-22T09:59:54.716Z</time></trkpt><trkpt lat="43.5489783" lon="12.176265"><ele>332.0</ele><time>2026-04-22T09:59:55.716Z</time></trkpt><trkpt lat="43.548895" lon="12.1763717"><ele>332.0</ele><time>2026-04-22T09:59:57.716Z</time></trkpt><trkpt lat="43.5488267" lon="12.176475"><ele>332.0</ele><time>2026-04-22T09:59:59.716Z</time></trkpt><trkpt lat="43.5487583" lon="12.1765833"><ele>332.40000000000003</ele><time>2026-04-22T10:00:01.716Z</time></trkpt><trkpt lat="43.5487067" lon="12.1766833"><ele>332.8</ele><time>2026-04-22T10:00:03.716Z</time></trkpt><trkpt lat="43.5487" lon="12.176775"><ele>333.2</ele><time>2026-04-22T10:00:05.716Z</time></trkpt><trkpt lat="43.5487483" lon="12.176865"><ele>333.6</ele><time>2026-04-22T10:00:07.716Z</time></trkpt><trkpt lat="43.548835" lon="12.176975"><ele>334.0</ele><time>2026-04-22T10:00:09.716Z</time></trkpt><trkpt lat="43.5489067" lon="12.1770917"><ele>334.0</ele><time>2026-04-22T10:00:11.716Z</time></trkpt><trkpt lat="43.5489783" lon="12.1771967"><ele>334.0</ele><time>2026-04-22T10:00:13.716Z</time></trkpt><trkpt lat="43.5490433" lon="12.1772967"><ele>334.0</ele><time>2026-04-22T10:00:15.716Z</time></trkpt><trkpt lat="43.5490833" lon="12.17738"><ele>334.0</ele><time>2026-04-22T10:00:17.717Z</time></trkpt><trkpt lat="43.5490317" lon="12.1775233"><ele>334.0</ele><time>2026-04-22T10:00:20.717Z</time></trkpt><trkpt lat="43.548985" lon="12.1776017"><ele>333.4</ele><time>2026-04-22T10:00:21.716Z</time></trkpt><trkpt lat="43.548935" lon="12.1776983"><ele>332.79999999999995</ele><time>2026-04-22T10:00:22.716Z</time></trkpt><trkpt lat="43.548875" lon="12.17779"><ele>332.20000000000005</ele><time>2026-04-22T10:00:23.717Z</time></trkpt><trkpt lat="43.5488183" lon="12.1779017"><ele>331.6</ele><time>2026-04-22T10:00:24.716Z</time></trkpt><trkpt lat="43.5487533" lon="12.1780367"><ele>331.0</ele><time>2026-04-22T10:00:25.716Z</time></trkpt><trkpt lat="43.5486817" lon="12.1781733"><ele>330.25</ele><time>2026-04-22T10:00:26.717Z</time></trkpt><trkpt lat="43.5486117" lon="12.1783167"><ele>329.5</ele><time>2026-04-22T10:00:27.716Z</time></trkpt><trkpt lat="43.54854" lon="12.1784567"><ele>328.75</ele><time>2026-04-22T10:00:28.717Z</time></trkpt><trkpt lat="43.5484583" lon="12.1786217"><ele>328.0</ele><time>2026-04-22T10:00:29.716Z</time></trkpt><trkpt lat="43.548375" lon="12.17879"><ele>328.0</ele><time>2026-04-22T10:00:30.716Z</time></trkpt><trkpt lat="43.5482933" lon="12.1789633"><ele>328.0</ele><time>2026-04-22T10:00:31.716Z</time></trkpt><trkpt lat="43.5482" lon="12.1791417"><ele>328.0</ele><time>2026-04-22T10:00:32.716Z</time></trkpt><trkpt lat="43.5481167" lon="12.179315"><ele>328.25</ele><time>2026-04-22T10:00:33.716Z</time></trkpt><trkpt lat="43.5480317" lon="12.1794917"><ele>328.5</ele><time>2026-04-22T10:00:34.717Z</time></trkpt><trkpt lat="43.5479517" lon="12.1796533"><ele>328.75</ele><time>2026-04-22T10:00:35.716Z</time></trkpt><trkpt lat="43.54786" lon="12.1798117"><ele>329.0</ele><time>2026-04-22T10:00:36.716Z</time></trkpt><trkpt lat="43.547775" lon="12.1799633"><ele>328.5</ele><time>2026-04-22T10:00:37.717Z</time></trkpt><trkpt lat="43.547685" lon="12.1801283"><ele>328.0</ele><time>2026-04-22T10:00:38.716Z</time></trkpt><trkpt lat="43.547605" lon="12.1802767"><ele>327.5</ele><time>2026-04-22T10:00:39.717Z</time></trkpt><trkpt lat="43.54753" lon="12.1804317"><ele>327.0</ele><time>2026-04-22T10:00:40.716Z</time></trkpt><trkpt lat="43.5474417" lon="12.1806033"><ele>327.5</ele><time>2026-04-22T10:00:41.716Z</time></trkpt><trkpt lat="43.5473633" lon="12.180755"><ele>328.0</ele><time>2026-04-22T10:00:42.716Z</time></trkpt><trkpt lat="43.547275" lon="12.180915"><ele>328.5</ele><time>2026-04-22T10:00:43.716Z</time></trkpt><trkpt lat="43.5471933" lon="12.1810683"><ele>329.0</ele><time>2026-04-22T10:00:44.717Z</time></trkpt><trkpt lat="43.5471067" lon="12.1812183"><ele>328.75</ele><time>2026-04-22T10:00:45.716Z</time></trkpt><trkpt lat="43.5470267" lon="12.1813667"><ele>328.5</ele><time>2026-04-22T10:00:46.716Z</time></trkpt><trkpt lat="43.5469433" lon="12.1815267"><ele>328.25</ele><time>2026-04-22T10:00:47.716Z</time></trkpt><trkpt lat="43.5468667" lon="12.1816817"><ele>328.0</ele><time>2026-04-22T10:00:48.716Z</time></trkpt><trkpt lat="43.5467917" lon="12.18184"><ele>328.0</ele><time>2026-04-22T10:00:49.716Z</time></trkpt><trkpt lat="43.5467183" lon="12.1819817"><ele>328.0</ele><time>2026-04-22T10:00:50.716Z</time></trkpt><trkpt lat="43.5466383" lon="12.182125"><ele>328.0</ele><time>2026-04-22T10:00:51.716Z</time></trkpt><trkpt lat="43.546565" lon="12.1822683"><ele>328.0</ele><time>2026-04-22T10:00:52.716Z</time></trkpt><trkpt lat="43.5464917" lon="12.1824167"><ele>328.25</ele><time>2026-04-22T10:00:53.716Z</time></trkpt><trkpt lat="43.5464117" lon="12.1825617"><ele>328.5</ele><time>2026-04-22T10:00:54.716Z</time></trkpt><trkpt lat="43.546335" lon="12.18271"><ele>328.75</ele><time>2026-04-22T10:00:55.716Z</time></trkpt><trkpt lat="43.5462633" lon="12.1828483"><ele>329.0</ele><time>2026-04-22T10:00:56.716Z</time></trkpt><trkpt lat="43.546195" lon="12.18299"><ele>328.75</ele><time>2026-04-22T10:00:57.716Z</time></trkpt><trkpt lat="43.5461233" lon="12.183135"><ele>328.5</ele><time>2026-04-22T10:00:58.716Z</time></trkpt><trkpt lat="43.5460483" lon="12.1832783"><ele>328.25</ele><time>2026-04-22T10:00:59.716Z</time></trkpt><trkpt lat="43.5459783" lon="12.1834167"><ele>328.0</ele><time>2026-04-22T10:01:00.716Z</time></trkpt><trkpt lat="43.5459033" lon="12.18355"><ele>328.0</ele><time>2026-04-22T10:01:01.716Z</time></trkpt><trkpt lat="43.5458367" lon="12.1836867"><ele>328.0</ele><time>2026-04-22T10:01:02.716Z</time></trkpt><trkpt lat="43.5457683" lon="12.183805"><ele>328.0</ele><time>2026-04-22T10:01:03.716Z</time></trkpt><trkpt lat="43.5457083" lon="12.1839267"><ele>328.0</ele><time>2026-04-22T10:01:04.716Z</time></trkpt><trkpt lat="43.54565" lon="12.1840433"><ele>328.0</ele><time>2026-04-22T10:01:05.717Z</time></trkpt><trkpt lat="43.5455883" lon="12.1841433"><ele>328.0</ele><time>2026-04-22T10:01:06.716Z</time></trkpt><trkpt lat="43.5455283" lon="12.1842317"><ele>328.0</ele><time>2026-04-22T10:01:07.716Z</time></trkpt><trkpt lat="43.5454667" lon="12.184315"><ele>328.0</ele><time>2026-04-22T10:01:08.716Z</time></trkpt><trkpt lat="43.545395" lon="12.184385"><ele>328.0</ele><time>2026-04-22T10:01:09.716Z</time></trkpt><trkpt lat="43.545315" lon="12.1844533"><ele>328.0</ele><time>2026-04-22T10:01:10.716Z</time></trkpt><trkpt lat="43.5452367" lon="12.1845267"><ele>327.8333333333333</ele><time>2026-04-22T10:01:11.716Z</time></trkpt><trkpt lat="43.5451717" lon="12.184605"><ele>327.66666666666663</ele><time>2026-04-22T10:01:12.716Z</time></trkpt><trkpt lat="43.5451183" lon="12.1847033"><ele>327.5</ele><time>2026-04-22T10:01:13.716Z</time></trkpt><trkpt lat="43.5450967" lon="12.184805"><ele>327.3333333333333</ele><time>2026-04-22T10:01:14.716Z</time></trkpt><trkpt lat="43.5450867" lon="12.18493"><ele>327.1666666666667</ele><time>2026-04-22T10:01:15.716Z</time></trkpt><trkpt lat="43.5450767" lon="12.18506"><ele>327.0</ele><time>2026-04-22T10:01:16.716Z</time></trkpt><trkpt lat="43.54503" lon="12.1852"><ele>327.5</ele><time>2026-04-22T10:01:17.716Z</time></trkpt><trkpt lat="43.5449617" lon="12.1853483"><ele>328.0</ele><time>2026-04-22T10:01:18.716Z</time></trkpt><trkpt lat="43.5448883" lon="12.185505"><ele>328.5</ele><time>2026-04-22T10:01:19.716Z</time></trkpt><trkpt lat="43.5448167" lon="12.1856533"><ele>329.0</ele><time>2026-04-22T10:01:20.716Z</time></trkpt><trkpt lat="43.5447317" lon="12.1858167"><ele>329.0</ele><time>2026-04-22T10:01:21.717Z</time></trkpt><trkpt lat="43.5446467" lon="12.18598"><ele>329.0</ele><time>2026-04-22T10:01:22.716Z</time></trkpt><trkpt lat="43.544555" lon="12.18615"><ele>329.0</ele><time>2026-04-22T10:01:23.716Z</time></trkpt><trkpt lat="43.5444467" lon="12.1863233"><ele>329.0</ele><time>2026-04-22T10:01:24.716Z</time></trkpt><trkpt lat="43.5443233" lon="12.1864917"><ele>329.0</ele><time>2026-04-22T10:01:25.716Z</time></trkpt><trkpt lat="43.5442" lon="12.1866433"><ele>329.0</ele><time>2026-04-22T10:01:26.716Z</time></trkpt><trkpt lat="43.544075" lon="12.1867833"><ele>330.0</ele><time>2026-04-22T10:01:27.716Z</time></trkpt><trkpt lat="43.543945" lon="12.1869183"><ele>331.0</ele><time>2026-04-22T10:01:28.716Z</time></trkpt><trkpt lat="43.5438233" lon="12.1870417"><ele>332.0</ele><time>2026-04-22T10:01:29.716Z</time></trkpt><trkpt lat="43.5437033" lon="12.1871617"><ele>332.0</ele><time>2026-04-22T10:01:30.716Z</time></trkpt><trkpt lat="43.543585" lon="12.1872867"><ele>332.0</ele><time>2026-04-22T10:01:31.716Z</time></trkpt><trkpt lat="43.5434583" lon="12.1874083"><ele>332.0</ele><time>2026-04-22T10:01:32.716Z</time></trkpt><trkpt lat="43.543335" lon="12.18752"><ele>332.25</ele><time>2026-04-22T10:01:33.716Z</time></trkpt><trkpt lat="43.5432083" lon="12.1876283"><ele>332.5</ele><time>2026-04-22T10:01:34.716Z</time></trkpt><trkpt lat="43.543085" lon="12.1877317"><ele>332.75</ele><time>2026-04-22T10:01:35.716Z</time></trkpt><trkpt lat="43.54296" lon="12.1878383"><ele>333.0</ele><time>2026-04-22T10:01:36.716Z</time></trkpt><trkpt lat="43.54284" lon="12.1879467"><ele>332.75</ele><time>2026-04-22T10:01:37.717Z</time></trkpt><trkpt lat="43.5427167" lon="12.188045"><ele>332.5</ele><time>2026-04-22T10:01:38.716Z</time></trkpt><trkpt lat="43.542595" lon="12.1881483"><ele>332.25</ele><time>2026-04-22T10:01:39.716Z</time></trkpt><trkpt lat="43.5424733" lon="12.1882683"><ele>332.0</ele><time>2026-04-22T10:01:40.717Z</time></trkpt><trkpt lat="43.5423567" lon="12.1883783"><ele>332.0</ele><time>2026-04-22T10:01:41.716Z</time></trkpt><trkpt lat="43.5422433" lon="12.1884883"><ele>332.0</ele><time>2026-04-22T10:01:42.716Z</time></trkpt><trkpt lat="43.5421383" lon="12.18859"><ele>332.0</ele><time>2026-04-22T10:01:43.716Z</time></trkpt><trkpt lat="43.5420417" lon="12.1886983"><ele>332.0</ele><time>2026-04-22T10:01:44.716Z</time></trkpt><trkpt lat="43.5419517" lon="12.18881"><ele>332.0</ele><time>2026-04-22T10:01:45.716Z</time></trkpt><trkpt lat="43.541865" lon="12.1889217"><ele>332.0</ele><time>2026-04-22T10:01:46.716Z</time></trkpt><trkpt lat="43.5417833" lon="12.1890483"><ele>332.0</ele><time>2026-04-22T10:01:47.716Z</time></trkpt><trkpt lat="43.5417067" lon="12.1891867"><ele>332.0</ele><time>2026-04-22T10:01:48.717Z</time></trkpt><trkpt lat="43.54164" lon="12.18932"><ele>333.25</ele><time>2026-04-22T10:01:49.716Z</time></trkpt><trkpt lat="43.5415667" lon="12.1894483"><ele>334.5</ele><time>2026-04-22T10:01:50.716Z</time></trkpt><trkpt lat="43.541495" lon="12.189565"><ele>335.75</ele><time>2026-04-22T10:01:51.717Z</time></trkpt><trkpt lat="43.5414267" lon="12.1896967"><ele>337.0</ele><time>2026-04-22T10:01:52.716Z</time></trkpt><trkpt lat="43.541355" lon="12.1898267"><ele>336.75</ele><time>2026-04-22T10:01:53.717Z</time></trkpt><trkpt lat="43.5412817" lon="12.1899583"><ele>336.5</ele><time>2026-04-22T10:01:54.716Z</time></trkpt><trkpt lat="43.5412067" lon="12.1900933"><ele>336.25</ele><time>2026-04-22T10:01:55.716Z</time></trkpt><trkpt lat="43.5411417" lon="12.1902217"><ele>336.0</ele><time>2026-04-22T10:01:56.716Z</time></trkpt><trkpt lat="43.5410733" lon="12.1903533"><ele>336.0</ele><time>2026-04-22T10:01:57.716Z</time></trkpt><trkpt lat="43.5410133" lon="12.1904783"><ele>336.0</ele><time>2026-04-22T10:01:58.716Z</time></trkpt><trkpt lat="43.540945" lon="12.1905983"><ele>336.0</ele><time>2026-04-22T10:01:59.716Z</time></trkpt><trkpt lat="43.54088" lon="12.1907167"><ele>336.0</ele><time>2026-04-22T10:02:00.716Z</time></trkpt><trkpt lat="43.5408083" lon="12.19085"><ele>336.0</ele><time>2026-04-22T10:02:01.716Z</time></trkpt><trkpt lat="43.5407417" lon="12.190975"><ele>336.75</ele><time>2026-04-22T10:02:02.716Z</time></trkpt><trkpt lat="43.5406783" lon="12.1911083"><ele>337.5</ele><time>2026-04-22T10:02:03.716Z</time></trkpt><trkpt lat="43.5406133" lon="12.1912283"><ele>338.25</ele><time>2026-04-22T10:02:04.716Z</time></trkpt><trkpt lat="43.5405333" lon="12.19136"><ele>339.0</ele><time>2026-04-22T10:02:05.716Z</time></trkpt><trkpt lat="43.540455" lon="12.1914917"><ele>338.5</ele><time>2026-04-22T10:02:06.716Z</time></trkpt><trkpt lat="43.5403783" lon="12.1916233"><ele>338.0</ele><time>2026-04-22T10:02:07.716Z</time></trkpt><trkpt lat="43.5403017" lon="12.1917533"><ele>337.5</ele><time>2026-04-22T10:02:08.716Z</time></trkpt><trkpt lat="43.5402267" lon="12.191895"><ele>337.0</ele><time>2026-04-22T10:02:09.716Z</time></trkpt><trkpt lat="43.5401517" lon="12.1920317"><ele>337.0</ele><time>2026-04-22T10:02:10.716Z</time></trkpt><trkpt lat="43.5400867" lon="12.1921733"><ele>337.0</ele><time>2026-04-22T10:02:11.716Z</time></trkpt><trkpt lat="43.5400133" lon="12.192315"><ele>337.0</ele><time>2026-04-22T10:02:12.717Z</time></trkpt><trkpt lat="43.539925" lon="12.1924633"><ele>337.0</ele><time>2026-04-22T10:02:13.716Z</time></trkpt><trkpt lat="43.5398467" lon="12.1925967"><ele>337.25</ele><time>2026-04-22T10:02:14.716Z</time></trkpt><trkpt lat="43.5397717" lon="12.1927367"><ele>337.5</ele><time>2026-04-22T10:02:15.716Z</time></trkpt><trkpt lat="43.5397" lon="12.1928833"><ele>337.75</ele><time>2026-04-22T10:02:16.716Z</time></trkpt><trkpt lat="43.539625" lon="12.1930333"><ele>338.0</ele><time>2026-04-22T10:02:17.717Z</time></trkpt><trkpt lat="43.5395517" lon="12.1931733"><ele>336.75</ele><time>2026-04-22T10:02:18.716Z</time></trkpt><trkpt lat="43.5394733" lon="12.1933067"><ele>335.5</ele><time>2026-04-22T10:02:19.716Z</time></trkpt><trkpt lat="43.5394017" lon="12.193455"><ele>334.25</ele><time>2026-04-22T10:02:20.716Z</time></trkpt><trkpt lat="43.53932" lon="12.1936083"><ele>333.0</ele><time>2026-04-22T10:02:21.716Z</time></trkpt><trkpt lat="43.5392383" lon="12.1937567"><ele>333.0</ele><time>2026-04-22T10:02:22.716Z</time></trkpt><trkpt lat="43.5391583" lon="12.1939"><ele>333.0</ele><time>2026-04-22T10:02:23.717Z</time></trkpt><trkpt lat="43.53908" lon="12.1940383"><ele>333.0</ele><time>2026-04-22T10:02:24.717Z</time></trkpt><trkpt lat="43.539005" lon="12.19418"><ele>333.0</ele><time>2026-04-22T10:02:25.717Z</time></trkpt><trkpt lat="43.5389283" lon="12.194325"><ele>332.75</ele><time>2026-04-22T10:02:26.716Z</time></trkpt><trkpt lat="43.538845" lon="12.194475"><ele>332.5</ele><time>2026-04-22T10:02:27.716Z</time></trkpt><trkpt lat="43.5387617" lon="12.194625"><ele>332.25</ele><time>2026-04-22T10:02:28.716Z</time></trkpt><trkpt lat="43.5386717" lon="12.1947783"><ele>332.0</ele><time>2026-04-22T10:02:29.716Z</time></trkpt><trkpt lat="43.5385767" lon="12.1949283"><ele>331.0</ele><time>2026-04-22T10:02:30.716Z</time></trkpt><trkpt lat="43.538485" lon="12.1950717"><ele>330.0</ele><time>2026-04-22T10:02:31.716Z</time></trkpt><trkpt lat="43.5383883" lon="12.1952083"><ele>329.0</ele><time>2026-04-22T10:02:32.716Z</time></trkpt><trkpt lat="43.5382917" lon="12.195335"><ele>328.0</ele><time>2026-04-22T10:02:33.716Z</time></trkpt><trkpt lat="43.5381867" lon="12.1954683"><ele>328.0</ele><time>2026-04-22T10:02:34.716Z</time></trkpt><trkpt lat="43.5380833" lon="12.195595"><ele>328.0</ele><time>2026-04-22T10:02:35.716Z</time></trkpt><trkpt lat="43.5379817" lon="12.1957317"><ele>328.0</ele><time>2026-04-22T10:02:36.716Z</time></trkpt><trkpt lat="43.5378833" lon="12.19587"><ele>328.0</ele><time>2026-04-22T10:02:37.717Z</time></trkpt><trkpt lat="43.53778" lon="12.1959933"><ele>328.0</ele><time>2026-04-22T10:02:38.716Z</time></trkpt><trkpt lat="43.5376817" lon="12.19613"><ele>328.0</ele><time>2026-04-22T10:02:39.717Z</time></trkpt><trkpt lat="43.537585" lon="12.19627"><ele>328.0</ele><time>2026-04-22T10:02:40.716Z</time></trkpt><trkpt lat="43.5374933" lon="12.196415"><ele>328.0</ele><time>2026-04-22T10:02:41.716Z</time></trkpt><trkpt lat="43.5374017" lon="12.1965633"><ele>330.0</ele><time>2026-04-22T10:02:42.716Z</time></trkpt><trkpt lat="43.5373183" lon="12.1967083"><ele>332.0</ele><time>2026-04-22T10:02:43.716Z</time></trkpt><trkpt lat="43.5372333" lon="12.19685"><ele>334.0</ele><time>2026-04-22T10:02:44.716Z</time></trkpt><trkpt lat="43.5371567" lon="12.1969817"><ele>336.0</ele><time>2026-04-22T10:02:45.716Z</time></trkpt><trkpt lat="43.53709" lon="12.1971067"><ele>335.5</ele><time>2026-04-22T10:02:46.717Z</time></trkpt><trkpt lat="43.5370183" lon="12.197235"><ele>335.0</ele><time>2026-04-22T10:02:47.716Z</time></trkpt><trkpt lat="43.5369433" lon="12.197365"><ele>334.5</ele><time>2026-04-22T10:02:48.716Z</time></trkpt><trkpt lat="43.5368683" lon="12.1975"><ele>334.0</ele><time>2026-04-22T10:02:49.717Z</time></trkpt><trkpt lat="43.536795" lon="12.1976383"><ele>334.0</ele><time>2026-04-22T10:02:50.716Z</time></trkpt><trkpt lat="43.536715" lon="12.19777"><ele>334.0</ele><time>2026-04-22T10:02:51.716Z</time></trkpt><trkpt lat="43.5366383" lon="12.197905"><ele>334.0</ele><time>2026-04-22T10:02:52.716Z</time></trkpt><trkpt lat="43.536565" lon="12.198035"><ele>334.0</ele><time>2026-04-22T10:02:53.716Z</time></trkpt><trkpt lat="43.5364933" lon="12.198165"><ele>332.75</ele><time>2026-04-22T10:02:54.716Z</time></trkpt><trkpt lat="43.5364233" lon="12.1982917"><ele>331.5</ele><time>2026-04-22T10:02:55.716Z</time></trkpt><trkpt lat="43.5363533" lon="12.1984167"><ele>330.25</ele><time>2026-04-22T10:02:56.716Z</time></trkpt><trkpt lat="43.5362817" lon="12.19854"><ele>329.0</ele><time>2026-04-22T10:02:57.716Z</time></trkpt><trkpt lat="43.5362117" lon="12.1986667"><ele>329.0</ele><time>2026-04-22T10:02:58.716Z</time></trkpt><trkpt lat="43.5361467" lon="12.19879"><ele>329.0</ele><time>2026-04-22T10:02:59.716Z</time></trkpt><trkpt lat="43.5360917" lon="12.1989167"><ele>329.0</ele><time>2026-04-22T10:03:00.716Z</time></trkpt><trkpt lat="43.5360467" lon="12.19904"><ele>329.0</ele><time>2026-04-22T10:03:01.716Z</time></trkpt><trkpt lat="43.5360083" lon="12.199175"><ele>329.0</ele><time>2026-04-22T10:03:02.716Z</time></trkpt><trkpt lat="43.535975" lon="12.1993167"><ele>330.4</ele><time>2026-04-22T10:03:03.716Z</time></trkpt><trkpt lat="43.5359533" lon="12.1994617"><ele>331.79999999999995</ele><time>2026-04-22T10:03:04.716Z</time></trkpt><trkpt lat="43.5359433" lon="12.1996183"><ele>333.20000000000005</ele><time>2026-04-22T10:03:05.717Z</time></trkpt><trkpt lat="43.535945" lon="12.1997667"><ele>334.6</ele><time>2026-04-22T10:03:06.716Z</time></trkpt><trkpt lat="43.535945" lon="12.1999083"><ele>336.0</ele><time>2026-04-22T10:03:07.716Z</time></trkpt><trkpt lat="43.5359533" lon="12.2000467"><ele>336.4</ele><time>2026-04-22T10:03:08.716Z</time></trkpt><trkpt lat="43.535965" lon="12.2001817"><ele>336.8</ele><time>2026-04-22T10:03:09.716Z</time></trkpt><trkpt lat="43.5359767" lon="12.2003233"><ele>337.2</ele><time>2026-04-22T10:03:10.716Z</time></trkpt><trkpt lat="43.5359883" lon="12.20048"><ele>337.59999999999997</ele><time>2026-04-22T10:03:11.716Z</time></trkpt><trkpt lat="43.5359917" lon="12.2006383"><ele>338.0</ele><time>2026-04-22T10:03:12.716Z</time></trkpt><trkpt lat="43.53599" lon="12.20079"><ele>338.0</ele><time>2026-04-22T10:03:13.716Z</time></trkpt><trkpt lat="43.535985" lon="12.2009383"><ele>338.0</ele><time>2026-04-22T10:03:14.716Z</time></trkpt><trkpt lat="43.5359733" lon="12.2010867"><ele>338.0</ele><time>2026-04-22T10:03:15.717Z</time></trkpt><trkpt lat="43.5359467" lon="12.2012367"><ele>338.0</ele><time>2026-04-22T10:03:16.716Z</time></trkpt><trkpt lat="43.535915" lon="12.2013917"><ele>338.0</ele><time>2026-04-22T10:03:17.716Z</time></trkpt><trkpt lat="43.5358783" lon="12.2015433"><ele>338.25</ele><time>2026-04-22T10:03:18.716Z</time></trkpt><trkpt lat="43.5358333" lon="12.2016967"><ele>338.5</ele><time>2026-04-22T10:03:19.716Z</time></trkpt><trkpt lat="43.5357767" lon="12.2018517"><ele>338.75</ele><time>2026-04-22T10:03:20.717Z</time></trkpt><trkpt lat="43.53572" lon="12.2019917"><ele>339.0</ele><time>2026-04-22T10:03:21.716Z</time></trkpt><trkpt lat="43.5356667" lon="12.2021433"><ele>339.0</ele><time>2026-04-22T10:03:22.716Z</time></trkpt><trkpt lat="43.5356" lon="12.2023133"><ele>339.0</ele><time>2026-04-22T10:03:23.716Z</time></trkpt><trkpt lat="43.5355217" lon="12.2025083"><ele>339.0</ele><time>2026-04-22T10:03:24.717Z</time></trkpt><trkpt lat="43.5354333" lon="12.2027233"><ele>338.3333333333333</ele><time>2026-04-22T10:03:25.716Z</time></trkpt><trkpt lat="43.535345" lon="12.20294"><ele>337.66666666666663</ele><time>2026-04-22T10:03:26.716Z</time></trkpt><trkpt lat="43.5352633" lon="12.20315"><ele>337.0</ele><time>2026-04-22T10:03:27.716Z</time></trkpt><trkpt lat="43.5351883" lon="12.20334"><ele>337.0</ele><time>2026-04-22T10:03:28.716Z</time></trkpt><trkpt lat="43.5351167" lon="12.2035283"><ele>337.0</ele><time>2026-04-22T10:03:29.716Z</time></trkpt><trkpt lat="43.5350383" lon="12.2037083"><ele>337.0</ele><time>2026-04-22T10:03:30.716Z</time></trkpt><trkpt lat="43.53495" lon="12.203875"><ele>337.75</ele><time>2026-04-22T10:03:31.716Z</time></trkpt><trkpt lat="43.5348667" lon="12.20403"><ele>338.5</ele><time>2026-04-22T10:03:32.716Z</time></trkpt><trkpt lat="43.53478" lon="12.2041767"><ele>339.25</ele><time>2026-04-22T10:03:33.716Z</time></trkpt><trkpt lat="43.5346883" lon="12.2043233"><ele>340.0</ele><time>2026-04-22T10:03:34.716Z</time></trkpt><trkpt lat="43.5346017" lon="12.204475"><ele>338.75</ele><time>2026-04-22T10:03:35.716Z</time></trkpt><trkpt lat="43.5345083" lon="12.2046267"><ele>337.5</ele><time>2026-04-22T10:03:36.716Z</time></trkpt><trkpt lat="43.5344117" lon="12.2047783"><ele>336.25</ele><time>2026-04-22T10:03:37.716Z</time></trkpt><trkpt lat="43.53432" lon="12.204925"><ele>335.0</ele><time>2026-04-22T10:03:38.716Z</time></trkpt><trkpt lat="43.53422" lon="12.2050883"><ele>335.0</ele><time>2026-04-22T10:03:39.716Z</time></trkpt><trkpt lat="43.5341133" lon="12.2052583"><ele>335.0</ele><time>2026-04-22T10:03:40.717Z</time></trkpt><trkpt lat="43.53401" lon="12.2054267"><ele>335.0</ele><time>2026-04-22T10:03:41.716Z</time></trkpt><trkpt lat="43.5339017" lon="12.20559"><ele>335.33333333333337</ele><time>2026-04-22T10:03:42.716Z</time></trkpt><trkpt lat="43.5337983" lon="12.20576"><ele>335.6666666666667</ele><time>2026-04-22T10:03:43.717Z</time></trkpt><trkpt lat="43.5336967" lon="12.205925"><ele>336.0</ele><time>2026-04-22T10:03:44.716Z</time></trkpt><trkpt lat="43.5335883" lon="12.20609"><ele>336.0</ele><time>2026-04-22T10:03:45.716Z</time></trkpt><trkpt lat="43.533485" lon="12.2062617"><ele>336.0</ele><time>2026-04-22T10:03:46.716Z</time></trkpt><trkpt lat="43.533375" lon="12.2064267"><ele>336.0</ele><time>2026-04-22T10:03:47.716Z</time></trkpt><trkpt lat="43.53327" lon="12.2065917"><ele>336.0</ele><time>2026-04-22T10:03:48.716Z</time></trkpt><trkpt lat="43.5331617" lon="12.2067517"><ele>336.0</ele><time>2026-04-22T10:03:49.716Z</time></trkpt><trkpt lat="43.5330567" lon="12.20691"><ele>336.0</ele><time>2026-04-22T10:03:50.716Z</time></trkpt><trkpt lat="43.5329533" lon="12.2070667"><ele>336.0</ele><time>2026-04-22T10:03:51.716Z</time></trkpt><trkpt lat="43.53285" lon="12.2072233"><ele>336.0</ele><time>2026-04-22T10:03:52.716Z</time></trkpt><trkpt lat="43.5327517" lon="12.2073833"><ele>336.0</ele><time>2026-04-22T10:03:53.716Z</time></trkpt><trkpt lat="43.5326583" lon="12.2075433"><ele>336.0</ele><time>2026-04-22T10:03:54.716Z</time></trkpt><trkpt lat="43.5325683" lon="12.207705"><ele>336.0</ele><time>2026-04-22T10:03:55.716Z</time></trkpt><trkpt lat="43.5324817" lon="12.2078667"><ele>336.0</ele><time>2026-04-22T10:03:56.716Z</time></trkpt><trkpt lat="43.5323933" lon="12.2080333"><ele>336.0</ele><time>2026-04-22T10:03:57.716Z</time></trkpt><trkpt lat="43.532305" lon="12.208205"><ele>337.3333333333333</ele><time>2026-04-22T10:03:58.716Z</time></trkpt><trkpt lat="43.5322183" lon="12.2083833"><ele>338.66666666666663</ele><time>2026-04-22T10:03:59.716Z</time></trkpt><trkpt lat="43.532135" lon="12.20856"><ele>340.0</ele><time>2026-04-22T10:04:00.716Z</time></trkpt><trkpt lat="43.53205" lon="12.2087333"><ele>340.0</ele><time>2026-04-22T10:04:01.716Z</time></trkpt><trkpt lat="43.531965" lon="12.2089067"><ele>340.0</ele><time>2026-04-22T10:04:02.716Z</time></trkpt><trkpt lat="43.5318833" lon="12.209075"><ele>340.0</ele><time>2026-04-22T10:04:03.716Z</time></trkpt><trkpt lat="43.5318033" lon="12.209235"><ele>340.0</ele><time>2026-04-22T10:04:04.716Z</time></trkpt><trkpt lat="43.5317267" lon="12.209375"><ele>340.5</ele><time>2026-04-22T10:04:05.716Z</time></trkpt><trkpt lat="43.5316467" lon="12.2094817"><ele>341.0</ele><time>2026-04-22T10:04:06.716Z</time></trkpt><trkpt lat="43.5315533" lon="12.209585"><ele>341.5</ele><time>2026-04-22T10:04:07.717Z</time></trkpt><trkpt lat="43.5314583" lon="12.20969"><ele>342.0</ele><time>2026-04-22T10:04:08.716Z</time></trkpt><trkpt lat="43.53136" lon="12.209785"><ele>342.25</ele><time>2026-04-22T10:04:09.716Z</time></trkpt><trkpt lat="43.531255" lon="12.2098733"><ele>342.5</ele><time>2026-04-22T10:04:10.716Z</time></trkpt><trkpt lat="43.531155" lon="12.2099633"><ele>342.75</ele><time>2026-04-22T10:04:11.716Z</time></trkpt><trkpt lat="43.5310467" lon="12.2100517"><ele>343.0</ele><time>2026-04-22T10:04:12.716Z</time></trkpt><trkpt lat="43.530935" lon="12.2101467"><ele>343.0</ele><time>2026-04-22T10:04:13.716Z</time></trkpt><trkpt lat="43.530825" lon="12.210245"><ele>343.0</ele><time>2026-04-22T10:04:14.716Z</time></trkpt><trkpt lat="43.5307183" lon="12.2103433"><ele>343.0</ele><time>2026-04-22T10:04:15.717Z</time></trkpt><trkpt lat="43.5306117" lon="12.2104383"><ele>343.0</ele><time>2026-04-22T10:04:16.716Z</time></trkpt><trkpt lat="43.5304983" lon="12.2105267"><ele>342.75</ele><time>2026-04-22T10:04:17.716Z</time></trkpt><trkpt lat="43.5303833" lon="12.210605"><ele>342.5</ele><time>2026-04-22T10:04:18.716Z</time></trkpt><trkpt lat="43.5302683" lon="12.210695"><ele>342.25</ele><time>2026-04-22T10:04:19.716Z</time></trkpt><trkpt lat="43.53014" lon="12.210775"><ele>342.0</ele><time>2026-04-22T10:04:20.716Z</time></trkpt><trkpt lat="43.5300183" lon="12.2108467"><ele>342.5</ele><time>2026-04-22T10:04:21.717Z</time></trkpt><trkpt lat="43.529895" lon="12.21092"><ele>343.0</ele><time>2026-04-22T10:04:22.716Z</time></trkpt><trkpt lat="43.5297783" lon="12.2109933"><ele>343.5</ele><time>2026-04-22T10:04:23.716Z</time></trkpt><trkpt lat="43.5296633" lon="12.2110583"><ele>344.0</ele><time>2026-04-22T10:04:24.716Z</time></trkpt><trkpt lat="43.52955" lon="12.2111233"><ele>344.0</ele><time>2026-04-22T10:04:25.716Z</time></trkpt><trkpt lat="43.5294383" lon="12.2111967"><ele>344.0</ele><time>2026-04-22T10:04:26.717Z</time></trkpt><trkpt lat="43.5293383" lon="12.21127"><ele>344.0</ele><time>2026-04-22T10:04:27.716Z</time></trkpt><trkpt lat="43.52924" lon="12.21137"><ele>344.0</ele><time>2026-04-22T10:04:28.716Z</time></trkpt><trkpt lat="43.5291567" lon="12.21147"><ele>344.0</ele><time>2026-04-22T10:04:29.716Z</time></trkpt><trkpt lat="43.529085" lon="12.21162"><ele>344.0</ele><time>2026-04-22T10:04:30.717Z</time></trkpt><trkpt lat="43.52904" lon="12.2117633"><ele>344.0</ele><time>2026-04-22T10:04:31.716Z</time></trkpt><trkpt lat="43.5289967" lon="12.2119133"><ele>344.0</ele><time>2026-04-22T10:04:32.716Z</time></trkpt><trkpt lat="43.528955" lon="12.212075"><ele>344.0</ele><time>2026-04-22T10:04:33.716Z</time></trkpt><trkpt lat="43.5289083" lon="12.21223"><ele>344.0</ele><time>2026-04-22T10:04:34.716Z</time></trkpt><trkpt lat="43.5288583" lon="12.2123833"><ele>344.0</ele><time>2026-04-22T10:04:35.716Z</time></trkpt><trkpt lat="43.5288" lon="12.2125383"><ele>344.0</ele><time>2026-04-22T10:04:36.716Z</time></trkpt><trkpt lat="43.528735" lon="12.2126967"><ele>344.25</ele><time>2026-04-22T10:04:37.716Z</time></trkpt><trkpt lat="43.5286617" lon="12.21285"><ele>344.5</ele><time>2026-04-22T10:04:38.716Z</time></trkpt><trkpt lat="43.5285783" lon="12.2130167"><ele>344.75</ele><time>2026-04-22T10:04:39.716Z</time></trkpt><trkpt lat="43.5284933" lon="12.2131883"><ele>345.0</ele><time>2026-04-22T10:04:40.716Z</time></trkpt><trkpt lat="43.52841" lon="12.2133617"><ele>345.0</ele><time>2026-04-22T10:04:41.716Z</time></trkpt><trkpt lat="43.5283267" lon="12.2135367"><ele>345.0</ele><time>2026-04-22T10:04:42.716Z</time></trkpt><trkpt lat="43.5282417" lon="12.2137167"><ele>345.0</ele><time>2026-04-22T10:04:43.716Z</time></trkpt><trkpt lat="43.52816" lon="12.2139"><ele>345.3333333333333</ele><time>2026-04-22T10:04:44.716Z</time></trkpt><trkpt lat="43.5280733" lon="12.2140867"><ele>345.66666666666663</ele><time>2026-04-22T10:04:45.716Z</time></trkpt><trkpt lat="43.5279883" lon="12.2142733"><ele>346.0</ele><time>2026-04-22T10:04:46.716Z</time></trkpt><trkpt lat="43.5279033" lon="12.2144567"><ele>345.66666666666663</ele><time>2026-04-22T10:04:47.716Z</time></trkpt><trkpt lat="43.52782" lon="12.214635"><ele>345.3333333333333</ele><time>2026-04-22T10:04:48.716Z</time></trkpt><trkpt lat="43.52774" lon="12.2148083"><ele>345.0</ele><time>2026-04-22T10:04:49.716Z</time></trkpt><trkpt lat="43.5276633" lon="12.2149833"><ele>345.0</ele><time>2026-04-22T10:04:50.716Z</time></trkpt><trkpt lat="43.5275883" lon="12.215145"><ele>345.0</ele><time>2026-04-22T10:04:51.716Z</time></trkpt><trkpt lat="43.5275117" lon="12.215295"><ele>345.0</ele><time>2026-04-22T10:04:52.716Z</time></trkpt><trkpt lat="43.5274433" lon="12.21544"><ele>345.0</ele><time>2026-04-22T10:04:53.716Z</time></trkpt><trkpt lat="43.527375" lon="12.2155667"><ele>344.8</ele><time>2026-04-22T10:04:54.717Z</time></trkpt><trkpt lat="43.5273133" lon="12.2156683"><ele>344.6</ele><time>2026-04-22T10:04:55.716Z</time></trkpt><trkpt lat="43.527265" lon="12.215755"><ele>344.4</ele><time>2026-04-22T10:04:56.716Z</time></trkpt><trkpt lat="43.5272217" lon="12.215835"><ele>344.2</ele><time>2026-04-22T10:04:57.717Z</time></trkpt><trkpt lat="43.5272" lon="12.2159833"><ele>344.0</ele><time>2026-04-22T10:04:59.717Z</time></trkpt><trkpt lat="43.52727" lon="12.21613"><ele>344.0</ele><time>2026-04-22T10:05:01.716Z</time></trkpt><trkpt lat="43.5273183" lon="12.2161933"><ele>344.0</ele><time>2026-04-22T10:05:02.716Z</time></trkpt><trkpt lat="43.5273733" lon="12.21625"><ele>344.0</ele><time>2026-04-22T10:05:03.716Z</time></trkpt><trkpt lat="43.527435" lon="12.2163117"><ele>344.0</ele><time>2026-04-22T10:05:04.716Z</time></trkpt><trkpt lat="43.5275067" lon="12.216385"><ele>344.0</ele><time>2026-04-22T10:05:05.716Z</time></trkpt><trkpt lat="43.5275833" lon="12.2164633"><ele>344.0</ele><time>2026-04-22T10:05:06.716Z</time></trkpt><trkpt lat="43.5276667" lon="12.2165367"><ele>344.2</ele><time>2026-04-22T10:05:07.716Z</time></trkpt><trkpt lat="43.52775" lon="12.21662"><ele>344.4</ele><time>2026-04-22T10:05:08.716Z</time></trkpt><trkpt lat="43.5278367" lon="12.2167117"><ele>344.6</ele><time>2026-04-22T10:05:09.716Z</time></trkpt><trkpt lat="43.527925" lon="12.2168067"><ele>344.8</ele><time>2026-04-22T10:05:10.716Z</time></trkpt><trkpt lat="43.5280183" lon="12.2169083"><ele>345.0</ele><time>2026-04-22T10:05:11.716Z</time></trkpt><trkpt lat="43.5281133" lon="12.2170167"><ele>346.0</ele><time>2026-04-22T10:05:12.716Z</time></trkpt><trkpt lat="43.5282083" lon="12.21712"><ele>347.0</ele><time>2026-04-22T10:05:13.716Z</time></trkpt><trkpt lat="43.5283067" lon="12.2172233"><ele>348.0</ele><time>2026-04-22T10:05:14.716Z</time></trkpt><trkpt lat="43.52841" lon="12.2173333"><ele>349.0</ele><time>2026-04-22T10:05:15.716Z</time></trkpt><trkpt lat="43.5285117" lon="12.217445"><ele>349.75</ele><time>2026-04-22T10:05:16.716Z</time></trkpt><trkpt lat="43.528615" lon="12.2175567"><ele>350.5</ele><time>2026-04-22T10:05:17.716Z</time></trkpt><trkpt lat="43.52872" lon="12.2176667"><ele>351.25</ele><time>2026-04-22T10:05:18.716Z</time></trkpt><trkpt lat="43.528825" lon="12.2177767"><ele>352.0</ele><time>2026-04-22T10:05:19.716Z</time></trkpt><trkpt lat="43.5289283" lon="12.2178867"><ele>353.75</ele><time>2026-04-22T10:05:20.716Z</time></trkpt><trkpt lat="43.52903" lon="12.2179933"><ele>355.5</ele><time>2026-04-22T10:05:21.716Z</time></trkpt><trkpt lat="43.52913" lon="12.2180967"><ele>357.25</ele><time>2026-04-22T10:05:22.716Z</time></trkpt><trkpt lat="43.5292283" lon="12.2181983"><ele>359.0</ele><time>2026-04-22T10:05:23.716Z</time></trkpt><trkpt lat="43.5293233" lon="12.2182967"><ele>359.75</ele><time>2026-04-22T10:05:24.716Z</time></trkpt><trkpt lat="43.529415" lon="12.2183967"><ele>360.5</ele><time>2026-04-22T10:05:25.716Z</time></trkpt><trkpt lat="43.5295033" lon="12.2185017"><ele>361.25</ele><time>2026-04-22T10:05:26.716Z</time></trkpt><trkpt lat="43.5295933" lon="12.2186083"><ele>362.0</ele><time>2026-04-22T10:05:27.716Z</time></trkpt><trkpt lat="43.52968" lon="12.2187"><ele>363.6666666666667</ele><time>2026-04-22T10:05:28.717Z</time></trkpt><trkpt lat="43.5297467" lon="12.21878"><ele>365.33333333333337</ele><time>2026-04-22T10:05:29.717Z</time></trkpt><trkpt lat="43.529815" lon="12.218855"><ele>367.0</ele><time>2026-04-22T10:05:30.716Z</time></trkpt><trkpt lat="43.5298917" lon="12.21892"><ele>368.6666666666667</ele><time>2026-04-22T10:05:31.716Z</time></trkpt><trkpt lat="43.5299617" lon="12.2189983"><ele>370.3333333333333</ele><time>2026-04-22T10:05:32.716Z</time></trkpt><trkpt lat="43.5300333" lon="12.2190667"><ele>372.0</ele><time>2026-04-22T10:05:33.716Z</time></trkpt><trkpt lat="43.5301" lon="12.2191233"><ele>372.0</ele><time>2026-04-22T10:05:34.716Z</time></trkpt><trkpt lat="43.5301567" lon="12.2191833"><ele>372.0</ele><time>2026-04-22T10:05:35.716Z</time></trkpt><trkpt lat="43.530205" lon="12.2192417"><ele>372.0</ele><time>2026-04-22T10:05:36.716Z</time></trkpt><trkpt lat="43.5303017" lon="12.2193583"><ele>372.0</ele><time>2026-04-22T10:05:38.716Z</time></trkpt><trkpt lat="43.5303617" lon="12.2194267"><ele>372.0</ele><time>2026-04-22T10:05:39.716Z</time></trkpt><trkpt lat="43.5304267" lon="12.2195233"><ele>372.0</ele><time>2026-04-22T10:05:40.716Z</time></trkpt><trkpt lat="43.5304983" lon="12.2196333"><ele>373.0</ele><time>2026-04-22T10:05:41.716Z</time></trkpt><trkpt lat="43.5305717" lon="12.2197317"><ele>374.0</ele><time>2026-04-22T10:05:42.717Z</time></trkpt><trkpt lat="43.5306517" lon="12.2198383"><ele>375.0</ele><time>2026-04-22T10:05:43.716Z</time></trkpt><trkpt lat="43.5307383" lon="12.21994"><ele>376.0</ele><time>2026-04-22T10:05:44.717Z</time></trkpt><trkpt lat="43.530825" lon="12.2200633"><ele>376.0</ele><time>2026-04-22T10:05:45.717Z</time></trkpt><trkpt lat="43.5309183" lon="12.220185"><ele>376.0</ele><time>2026-04-22T10:05:46.717Z</time></trkpt><trkpt lat="43.5310133" lon="12.2203083"><ele>376.0</ele><time>2026-04-22T10:05:47.716Z</time></trkpt><trkpt lat="43.5311183" lon="12.2204333"><ele>376.0</ele><time>2026-04-22T10:05:48.716Z</time></trkpt><trkpt lat="43.5312217" lon="12.22057"><ele>376.25</ele><time>2026-04-22T10:05:49.716Z</time></trkpt><trkpt lat="43.531325" lon="12.2206967"><ele>376.5</ele><time>2026-04-22T10:05:50.716Z</time></trkpt><trkpt lat="43.5314283" lon="12.220825"><ele>376.75</ele><time>2026-04-22T10:05:51.716Z</time></trkpt><trkpt lat="43.5315367" lon="12.2209467"><ele>377.0</ele><time>2026-04-22T10:05:52.716Z</time></trkpt><trkpt lat="43.5316483" lon="12.2210533"><ele>377.0</ele><time>2026-04-22T10:05:53.716Z</time></trkpt><trkpt lat="43.5317633" lon="12.2211583"><ele>377.0</ele><time>2026-04-22T10:05:54.716Z</time></trkpt><trkpt lat="43.5318833" lon="12.2212567"><ele>377.0</ele><time>2026-04-22T10:05:55.716Z</time></trkpt><trkpt lat="43.531995" lon="12.2213683"><ele>377.0</ele><time>2026-04-22T10:05:56.716Z</time></trkpt><trkpt lat="43.5321083" lon="12.2214733"><ele>376.5</ele><time>2026-04-22T10:05:57.716Z</time></trkpt><trkpt lat="43.5322133" lon="12.22159"><ele>376.0</ele><time>2026-04-22T10:05:58.717Z</time></trkpt><trkpt lat="43.5323183" lon="12.2217217"><ele>375.5</ele><time>2026-04-22T10:05:59.716Z</time></trkpt><trkpt lat="43.53242" lon="12.2218583"><ele>375.0</ele><time>2026-04-22T10:06:00.716Z</time></trkpt><trkpt lat="43.5325133" lon="12.2220067"><ele>375.0</ele><time>2026-04-22T10:06:01.716Z</time></trkpt><trkpt lat="43.532605" lon="12.2221567"><ele>375.0</ele><time>2026-04-22T10:06:02.716Z</time></trkpt><trkpt lat="43.5326983" lon="12.2223067"><ele>375.0</ele><time>2026-04-22T10:06:03.716Z</time></trkpt><trkpt lat="43.5327867" lon="12.22245"><ele>375.0</ele><time>2026-04-22T10:06:04.716Z</time></trkpt><trkpt lat="43.5328767" lon="12.2225967"><ele>377.25</ele><time>2026-04-22T10:06:05.716Z</time></trkpt><trkpt lat="43.532965" lon="12.2227367"><ele>379.5</ele><time>2026-04-22T10:06:06.717Z</time></trkpt><trkpt lat="43.5330467" lon="12.2228733"><ele>381.75</ele><time>2026-04-22T10:06:07.716Z</time></trkpt><trkpt lat="43.5331133" lon="12.223"><ele>384.0</ele><time>2026-04-22T10:06:08.716Z</time></trkpt><trkpt lat="43.53317" lon="12.2231283"><ele>381.4</ele><time>2026-04-22T10:06:09.716Z</time></trkpt><trkpt lat="43.5332067" lon="12.2232433"><ele>378.79999999999995</ele><time>2026-04-22T10:06:10.716Z</time></trkpt><trkpt lat="43.53323" lon="12.223365"><ele>376.20000000000005</ele><time>2026-04-22T10:06:11.716Z</time></trkpt><trkpt lat="43.5332317" lon="12.22349"><ele>373.6</ele><time>2026-04-22T10:06:12.716Z</time></trkpt><trkpt lat="43.5331983" lon="12.2236033"><ele>371.0</ele><time>2026-04-22T10:06:13.716Z</time></trkpt><trkpt lat="43.53314" lon="12.2237083"><ele>371.0</ele><time>2026-04-22T10:06:14.716Z</time></trkpt><trkpt lat="43.533055" lon="12.2238033"><ele>371.0</ele><time>2026-04-22T10:06:15.716Z</time></trkpt><trkpt lat="43.5329533" lon="12.2238933"><ele>371.0</ele><time>2026-04-22T10:06:16.716Z</time></trkpt><trkpt lat="43.53285" lon="12.2239783"><ele>371.0</ele><time>2026-04-22T10:06:17.716Z</time></trkpt><trkpt lat="43.53275" lon="12.22406"><ele>368.20000000000005</ele><time>2026-04-22T10:06:18.716Z</time></trkpt><trkpt lat="43.5326583" lon="12.2241417"><ele>365.40000000000003</ele><time>2026-04-22T10:06:19.716Z</time></trkpt><trkpt lat="43.5325767" lon="12.2242333"><ele>362.6</ele><time>2026-04-22T10:06:20.716Z</time></trkpt><trkpt lat="43.5325183" lon="12.2243417"><ele>359.8</ele><time>2026-04-22T10:06:21.716Z</time></trkpt><trkpt lat="43.5324933" lon="12.2244583"><ele>357.0</ele><time>2026-04-22T10:06:22.716Z</time></trkpt><trkpt lat="43.5324983" lon="12.2245783"><ele>357.0</ele><time>2026-04-22T10:06:23.716Z</time></trkpt><trkpt lat="43.5325333" lon="12.2247133"><ele>357.0</ele><time>2026-04-22T10:06:24.716Z</time></trkpt><trkpt lat="43.53258" lon="12.2248617"><ele>357.0</ele><time>2026-04-22T10:06:25.717Z</time></trkpt><trkpt lat="43.5326333" lon="12.2250183"><ele>357.0</ele><time>2026-04-22T10:06:26.716Z</time></trkpt><trkpt lat="43.5326917" lon="12.2251717"><ele>356.75</ele><time>2026-04-22T10:06:27.716Z</time></trkpt><trkpt lat="43.5327417" lon="12.22532"><ele>356.5</ele><time>2026-04-22T10:06:28.716Z</time></trkpt><trkpt lat="43.532795" lon="12.225485"><ele>356.25</ele><time>2026-04-22T10:06:29.716Z</time></trkpt><trkpt lat="43.5328517" lon="12.22565"><ele>356.0</ele><time>2026-04-22T10:06:30.716Z</time></trkpt><trkpt lat="43.53291" lon="12.22581"><ele>356.75</ele><time>2026-04-22T10:06:31.716Z</time></trkpt><trkpt lat="43.53297" lon="12.22597"><ele>357.5</ele><time>2026-04-22T10:06:32.716Z</time></trkpt><trkpt lat="43.5330333" lon="12.22612"><ele>358.25</ele><time>2026-04-22T10:06:33.716Z</time></trkpt><trkpt lat="43.5331067" lon="12.2262633"><ele>359.0</ele><time>2026-04-22T10:06:34.716Z</time></trkpt><trkpt lat="43.53319" lon="12.2263883"><ele>359.0</ele><time>2026-04-22T10:06:35.716Z</time></trkpt><trkpt lat="43.5332783" lon="12.2265217"><ele>359.0</ele><time>2026-04-22T10:06:36.716Z</time></trkpt><trkpt lat="43.5333667" lon="12.226655"><ele>359.0</ele><time>2026-04-22T10:06:37.716Z</time></trkpt><trkpt lat="43.5334517" lon="12.2267783"><ele>359.0</ele><time>2026-04-22T10:06:38.717Z</time></trkpt><trkpt lat="43.53354" lon="12.2269017"><ele>359.0</ele><time>2026-04-22T10:06:39.716Z</time></trkpt><trkpt lat="43.5336267" lon="12.2270233"><ele>359.0</ele><time>2026-04-22T10:06:40.716Z</time></trkpt><trkpt lat="43.5337167" lon="12.227145"><ele>359.0</ele><time>2026-04-22T10:06:41.716Z</time></trkpt><trkpt lat="43.5338" lon="12.2272717"><ele>359.0</ele><time>2026-04-22T10:06:42.716Z</time></trkpt><trkpt lat="43.5338917" lon="12.2273933"><ele>360.25</ele><time>2026-04-22T10:06:43.716Z</time></trkpt><trkpt lat="43.5339867" lon="12.2275183"><ele>361.5</ele><time>2026-04-22T10:06:44.716Z</time></trkpt><trkpt lat="43.53408" lon="12.227645"><ele>362.75</ele><time>2026-04-22T10:06:45.716Z</time></trkpt><trkpt lat="43.5341683" lon="12.2277783"><ele>364.0</ele><time>2026-04-22T10:06:46.716Z</time></trkpt><trkpt lat="43.5342583" lon="12.2279083"><ele>364.0</ele><time>2026-04-22T10:06:47.716Z</time></trkpt><trkpt lat="43.53435" lon="12.2280367"><ele>364.0</ele><time>2026-04-22T10:06:48.716Z</time></trkpt><trkpt lat="43.5344433" lon="12.228165"><ele>364.0</ele><time>2026-04-22T10:06:49.716Z</time></trkpt><trkpt lat="43.534535" lon="12.2282983"><ele>364.0</ele><time>2026-04-22T10:06:50.716Z</time></trkpt><trkpt lat="43.5346267" lon="12.2284383"><ele>365.0</ele><time>2026-04-22T10:06:51.716Z</time></trkpt><trkpt lat="43.534715" lon="12.2285833"><ele>366.0</ele><time>2026-04-22T10:06:52.716Z</time></trkpt><trkpt lat="43.5348" lon="12.228715"><ele>367.0</ele><time>2026-04-22T10:06:53.716Z</time></trkpt><trkpt lat="43.53487" lon="12.228845"><ele>368.0</ele><time>2026-04-22T10:06:54.716Z</time></trkpt><trkpt lat="43.534945" lon="12.228965"><ele>367.25</ele><time>2026-04-22T10:06:55.716Z</time></trkpt><trkpt lat="43.5350333" lon="12.2290667"><ele>366.5</ele><time>2026-04-22T10:06:56.716Z</time></trkpt><trkpt lat="43.535135" lon="12.2291517"><ele>365.75</ele><time>2026-04-22T10:06:57.716Z</time></trkpt><trkpt lat="43.5352333" lon="12.229235"><ele>365.0</ele><time>2026-04-22T10:06:58.716Z</time></trkpt><trkpt lat="43.5353167" lon="12.229335"><ele>366.25</ele><time>2026-04-22T10:06:59.716Z</time></trkpt><trkpt lat="43.53539" lon="12.2294517"><ele>367.5</ele><time>2026-04-22T10:07:00.716Z</time></trkpt><trkpt lat="43.535455" lon="12.2295783"><ele>368.75</ele><time>2026-04-22T10:07:01.717Z</time></trkpt><trkpt lat="43.5355167" lon="12.2297267"><ele>370.0</ele><time>2026-04-22T10:07:02.716Z</time></trkpt><trkpt lat="43.5355683" lon="12.2298817"><ele>370.0</ele><time>2026-04-22T10:07:03.716Z</time></trkpt><trkpt lat="43.5356083" lon="12.2300517"><ele>370.0</ele><time>2026-04-22T10:07:04.716Z</time></trkpt><trkpt lat="43.5356517" lon="12.2302183"><ele>370.0</ele><time>2026-04-22T10:07:05.716Z</time></trkpt><trkpt lat="43.5356933" lon="12.2303917"><ele>370.0</ele><time>2026-04-22T10:07:06.716Z</time></trkpt><trkpt lat="43.53574" lon="12.2305667"><ele>369.25</ele><time>2026-04-22T10:07:07.716Z</time></trkpt><trkpt lat="43.5357883" lon="12.2307367"><ele>368.5</ele><time>2026-04-22T10:07:08.716Z</time></trkpt><trkpt lat="43.5358383" lon="12.2309067"><ele>367.75</ele><time>2026-04-22T10:07:09.716Z</time></trkpt><trkpt lat="43.5358883" lon="12.231075"><ele>367.0</ele><time>2026-04-22T10:07:10.716Z</time></trkpt><trkpt lat="43.5359333" lon="12.23124"><ele>367.0</ele><time>2026-04-22T10:07:11.716Z</time></trkpt><trkpt lat="43.53598" lon="12.231405"><ele>367.0</ele><time>2026-04-22T10:07:12.716Z</time></trkpt><trkpt lat="43.5360283" lon="12.2315783"><ele>367.0</ele><time>2026-04-22T10:07:13.716Z</time></trkpt><trkpt lat="43.53608" lon="12.23175"><ele>367.0</ele><time>2026-04-22T10:07:14.717Z</time></trkpt><trkpt lat="43.5361333" lon="12.2319167"><ele>367.25</ele><time>2026-04-22T10:07:15.716Z</time></trkpt><trkpt lat="43.53618" lon="12.23208"><ele>367.5</ele><time>2026-04-22T10:07:16.716Z</time></trkpt><trkpt lat="43.5362333" lon="12.232235"><ele>367.75</ele><time>2026-04-22T10:07:17.716Z</time></trkpt><trkpt lat="43.5362967" lon="12.232385"><ele>368.0</ele><time>2026-04-22T10:07:18.716Z</time></trkpt><trkpt lat="43.5363633" lon="12.232535"><ele>369.25</ele><time>2026-04-22T10:07:19.717Z</time></trkpt><trkpt lat="43.5364333" lon="12.2326867"><ele>370.5</ele><time>2026-04-22T10:07:20.716Z</time></trkpt><trkpt lat="43.5364983" lon="12.2328417"><ele>371.75</ele><time>2026-04-22T10:07:21.716Z</time></trkpt><trkpt lat="43.53656" lon="12.233"><ele>373.0</ele><time>2026-04-22T10:07:22.716Z</time></trkpt><trkpt lat="43.5366117" lon="12.2331617"><ele>373.25</ele><time>2026-04-22T10:07:23.716Z</time></trkpt><trkpt lat="43.5366533" lon="12.233335"><ele>373.5</ele><time>2026-04-22T10:07:24.716Z</time></trkpt><trkpt lat="43.53668" lon="12.233505"><ele>373.75</ele><time>2026-04-22T10:07:25.716Z</time></trkpt><trkpt lat="43.5367117" lon="12.233685"><ele>374.0</ele><time>2026-04-22T10:07:26.716Z</time></trkpt><trkpt lat="43.5367317" lon="12.233865"><ele>374.75</ele><time>2026-04-22T10:07:27.716Z</time></trkpt><trkpt lat="43.5367467" lon="12.2340417"><ele>375.5</ele><time>2026-04-22T10:07:28.715Z</time></trkpt><trkpt lat="43.5367667" lon="12.2342233"><ele>376.25</ele><time>2026-04-22T10:07:29.715Z</time></trkpt><trkpt lat="43.5367867" lon="12.234405"><ele>377.0</ele><time>2026-04-22T10:07:30.716Z</time></trkpt><trkpt lat="43.5368067" lon="12.2345917"><ele>377.0</ele><time>2026-04-22T10:07:31.715Z</time></trkpt><trkpt lat="43.5368217" lon="12.234775"><ele>377.0</ele><time>2026-04-22T10:07:32.715Z</time></trkpt><trkpt lat="43.5368317" lon="12.23496"><ele>377.0</ele><time>2026-04-22T10:07:33.716Z</time></trkpt><trkpt lat="43.5368483" lon="12.23515"><ele>377.0</ele><time>2026-04-22T10:07:34.715Z</time></trkpt><trkpt lat="43.536865" lon="12.2353433"><ele>377.75</ele><time>2026-04-22T10:07:35.715Z</time></trkpt><trkpt lat="43.536885" lon="12.235525"><ele>378.5</ele><time>2026-04-22T10:07:36.715Z</time></trkpt><trkpt lat="43.5368933" lon="12.2357117"><ele>379.25</ele><time>2026-04-22T10:07:37.715Z</time></trkpt><trkpt lat="43.5368917" lon="12.2358967"><ele>380.0</ele><time>2026-04-22T10:07:38.715Z</time></trkpt><trkpt lat="43.53689" lon="12.236085"><ele>380.75</ele><time>2026-04-22T10:07:39.716Z</time></trkpt><trkpt lat="43.53688" lon="12.23627"><ele>381.5</ele><time>2026-04-22T10:07:40.715Z</time></trkpt><trkpt lat="43.536865" lon="12.2364483"><ele>382.25</ele><time>2026-04-22T10:07:41.715Z</time></trkpt><trkpt lat="43.536855" lon="12.2366283"><ele>383.0</ele><time>2026-04-22T10:07:42.715Z</time></trkpt><trkpt lat="43.5368467" lon="12.2368133"><ele>384.0</ele><time>2026-04-22T10:07:43.715Z</time></trkpt><trkpt lat="43.5368433" lon="12.2369967"><ele>385.0</ele><time>2026-04-22T10:07:44.715Z</time></trkpt><trkpt lat="43.5368617" lon="12.2371917"><ele>386.0</ele><time>2026-04-22T10:07:45.715Z</time></trkpt><trkpt lat="43.53689" lon="12.2373867"><ele>387.0</ele><time>2026-04-22T10:07:46.715Z</time></trkpt><trkpt lat="43.5369317" lon="12.2375683"><ele>387.25</ele><time>2026-04-22T10:07:47.715Z</time></trkpt><trkpt lat="43.53698" lon="12.237745"><ele>387.5</ele><time>2026-04-22T10:07:48.715Z</time></trkpt><trkpt lat="43.5370383" lon="12.2379183"><ele>387.75</ele><time>2026-04-22T10:07:49.715Z</time></trkpt><trkpt lat="43.5371017" lon="12.2380883"><ele>388.0</ele><time>2026-04-22T10:07:50.715Z</time></trkpt><trkpt lat="43.5371683" lon="12.2382533"><ele>388.0</ele><time>2026-04-22T10:07:51.715Z</time></trkpt><trkpt lat="43.5372283" lon="12.2384217"><ele>388.0</ele><time>2026-04-22T10:07:52.715Z</time></trkpt><trkpt lat="43.537295" lon="12.2385867"><ele>388.0</ele><time>2026-04-22T10:07:53.715Z</time></trkpt><trkpt lat="43.5373667" lon="12.2387483"><ele>388.0</ele><time>2026-04-22T10:07:54.716Z</time></trkpt><trkpt lat="43.5374483" lon="12.2389"><ele>388.0</ele><time>2026-04-22T10:07:55.715Z</time></trkpt><trkpt lat="43.5375317" lon="12.2390417"><ele>388.0</ele><time>2026-04-22T10:07:56.715Z</time></trkpt><trkpt lat="43.5376183" lon="12.2391883"><ele>388.0</ele><time>2026-04-22T10:07:57.716Z</time></trkpt><trkpt lat="43.537705" lon="12.2393317"><ele>388.0</ele><time>2026-04-22T10:07:58.715Z</time></trkpt><trkpt lat="43.53779" lon="12.2394717"><ele>388.0</ele><time>2026-04-22T10:07:59.715Z</time></trkpt><trkpt lat="43.5378667" lon="12.2396267"><ele>388.0</ele><time>2026-04-22T10:08:00.715Z</time></trkpt><trkpt lat="43.53792" lon="12.2397917"><ele>388.0</ele><time>2026-04-22T10:08:01.715Z</time></trkpt><trkpt lat="43.5379783" lon="12.2399667"><ele>388.0</ele><time>2026-04-22T10:08:02.716Z</time></trkpt><trkpt lat="43.5380217" lon="12.2401433"><ele>389.5</ele><time>2026-04-22T10:08:03.715Z</time></trkpt><trkpt lat="43.538065" lon="12.24032"><ele>391.0</ele><time>2026-04-22T10:08:04.715Z</time></trkpt><trkpt lat="43.5381083" lon="12.2405"><ele>392.5</ele><time>2026-04-22T10:08:05.715Z</time></trkpt><trkpt lat="43.538155" lon="12.2406683"><ele>394.0</ele><time>2026-04-22T10:08:06.715Z</time></trkpt><trkpt lat="43.5382" lon="12.2408367"><ele>394.0</ele><time>2026-04-22T10:08:07.715Z</time></trkpt><trkpt lat="43.5382517" lon="12.241005"><ele>394.0</ele><time>2026-04-22T10:08:08.715Z</time></trkpt><trkpt lat="43.5383017" lon="12.2411733"><ele>394.0</ele><time>2026-04-22T10:08:09.715Z</time></trkpt><trkpt lat="43.5383517" lon="12.2413433"><ele>394.0</ele><time>2026-04-22T10:08:10.715Z</time></trkpt><trkpt lat="43.5384033" lon="12.2415083"><ele>393.25</ele><time>2026-04-22T10:08:11.715Z</time></trkpt><trkpt lat="43.53846" lon="12.241675"><ele>392.5</ele><time>2026-04-22T10:08:12.715Z</time></trkpt><trkpt lat="43.53853" lon="12.24184"><ele>391.75</ele><time>2026-04-22T10:08:13.715Z</time></trkpt><trkpt lat="43.5385917" lon="12.242"><ele>391.0</ele><time>2026-04-22T10:08:14.716Z</time></trkpt><trkpt lat="43.5386583" lon="12.2421583"><ele>397.0</ele><time>2026-04-22T10:08:15.715Z</time></trkpt><trkpt lat="43.5387217" lon="12.242315"><ele>403.0</ele><time>2026-04-22T10:08:16.715Z</time></trkpt><trkpt lat="43.5387883" lon="12.2424683"><ele>409.0</ele><time>2026-04-22T10:08:17.715Z</time></trkpt><trkpt lat="43.5388583" lon="12.2426267"><ele>415.0</ele><time>2026-04-22T10:08:18.715Z</time></trkpt><trkpt lat="43.5389217" lon="12.2427967"><ele>415.0</ele><time>2026-04-22T10:08:19.715Z</time></trkpt><trkpt lat="43.53899" lon="12.2429667"><ele>415.0</ele><time>2026-04-22T10:08:20.715Z</time></trkpt><trkpt lat="43.539055" lon="12.2431367"><ele>415.0</ele><time>2026-04-22T10:08:21.715Z</time></trkpt><trkpt lat="43.5391183" lon="12.2433067"><ele>415.0</ele><time>2026-04-22T10:08:22.715Z</time></trkpt><trkpt lat="43.539175" lon="12.243475"><ele>412.25</ele><time>2026-04-22T10:08:23.715Z</time></trkpt><trkpt lat="43.5392267" lon="12.243655"><ele>409.5</ele><time>2026-04-22T10:08:24.715Z</time></trkpt><trkpt lat="43.5392833" lon="12.243825"><ele>406.75</ele><time>2026-04-22T10:08:25.715Z</time></trkpt><trkpt lat="43.539345" lon="12.2439967"><ele>404.0</ele><time>2026-04-22T10:08:26.716Z</time></trkpt><trkpt lat="43.5394083" lon="12.24416"><ele>402.25</ele><time>2026-04-22T10:08:27.715Z</time></trkpt><trkpt lat="43.539475" lon="12.2443267"><ele>400.5</ele><time>2026-04-22T10:08:28.715Z</time></trkpt><trkpt lat="43.5395467" lon="12.24449"><ele>398.75</ele><time>2026-04-22T10:08:29.715Z</time></trkpt><trkpt lat="43.5396267" lon="12.244645"><ele>397.0</ele><time>2026-04-22T10:08:30.715Z</time></trkpt><trkpt lat="43.5397117" lon="12.2448"><ele>401.0</ele><time>2026-04-22T10:08:31.715Z</time></trkpt><trkpt lat="43.5398033" lon="12.24494"><ele>405.0</ele><time>2026-04-22T10:08:32.716Z</time></trkpt><trkpt lat="43.5399" lon="12.2450783"><ele>409.0</ele><time>2026-04-22T10:08:33.715Z</time></trkpt><trkpt lat="43.5399983" lon="12.2452067"><ele>413.0</ele><time>2026-04-22T10:08:34.715Z</time></trkpt><trkpt lat="43.5400983" lon="12.245335"><ele>413.0</ele><time>2026-04-22T10:08:35.715Z</time></trkpt><trkpt lat="43.540195" lon="12.24548"><ele>413.0</ele><time>2026-04-22T10:08:36.715Z</time></trkpt><trkpt lat="43.5402783" lon="12.24564"><ele>413.0</ele><time>2026-04-22T10:08:37.715Z</time></trkpt><trkpt lat="43.5403583" lon="12.2458067"><ele>413.0</ele><time>2026-04-22T10:08:38.715Z</time></trkpt><trkpt lat="43.5404217" lon="12.2459883"><ele>412.5</ele><time>2026-04-22T10:08:39.715Z</time></trkpt><trkpt lat="43.5405017" lon="12.24615"><ele>412.0</ele><time>2026-04-22T10:08:40.715Z</time></trkpt><trkpt lat="43.540575" lon="12.2463183"><ele>411.5</ele><time>2026-04-22T10:08:41.715Z</time></trkpt><trkpt lat="43.5406517" lon="12.2464817"><ele>411.0</ele><time>2026-04-22T10:08:42.715Z</time></trkpt><trkpt lat="43.5407317" lon="12.2466433"><ele>411.0</ele><time>2026-04-22T10:08:43.715Z</time></trkpt><trkpt lat="43.540805" lon="12.246805"><ele>411.0</ele><time>2026-04-22T10:08:44.715Z</time></trkpt><trkpt lat="43.54088" lon="12.2469733"><ele>411.0</ele><time>2026-04-22T10:08:45.716Z</time></trkpt><trkpt lat="43.5409533" lon="12.2471433"><ele>411.0</ele><time>2026-04-22T10:08:46.715Z</time></trkpt><trkpt lat="43.5410317" lon="12.247305"><ele>408.75</ele><time>2026-04-22T10:08:47.715Z</time></trkpt><trkpt lat="43.54111" lon="12.2474667"><ele>406.5</ele><time>2026-04-22T10:08:48.715Z</time></trkpt><trkpt lat="43.541185" lon="12.2476267"><ele>404.25</ele><time>2026-04-22T10:08:49.715Z</time></trkpt><trkpt lat="43.541265" lon="12.2477833"><ele>402.0</ele><time>2026-04-22T10:08:50.715Z</time></trkpt><trkpt lat="43.541335" lon="12.247945"><ele>404.25</ele><time>2026-04-22T10:08:51.715Z</time></trkpt><trkpt lat="43.5414183" lon="12.2480983"><ele>406.5</ele><time>2026-04-22T10:08:52.715Z</time></trkpt><trkpt lat="43.5415017" lon="12.2482517"><ele>408.75</ele><time>2026-04-22T10:08:53.715Z</time></trkpt><trkpt lat="43.54159" lon="12.2484033"><ele>411.0</ele><time>2026-04-22T10:08:54.715Z</time></trkpt><trkpt lat="43.54167" lon="12.24856"><ele>411.0</ele><time>2026-04-22T10:08:55.715Z</time></trkpt><trkpt lat="43.5417433" lon="12.2487117"><ele>411.0</ele><time>2026-04-22T10:08:56.716Z</time></trkpt><trkpt lat="43.5418167" lon="12.2488667"><ele>411.0</ele><time>2026-04-22T10:08:57.715Z</time></trkpt><trkpt lat="43.54188" lon="12.24903"><ele>411.0</ele><time>2026-04-22T10:08:58.715Z</time></trkpt><trkpt lat="43.541935" lon="12.2492017"><ele>411.25</ele><time>2026-04-22T10:08:59.716Z</time></trkpt><trkpt lat="43.5419917" lon="12.249375"><ele>411.5</ele><time>2026-04-22T10:09:00.715Z</time></trkpt><trkpt lat="43.5420433" lon="12.2495533"><ele>411.75</ele><time>2026-04-22T10:09:01.715Z</time></trkpt><trkpt lat="43.54209" lon="12.2497383"><ele>412.0</ele><time>2026-04-22T10:09:02.715Z</time></trkpt><trkpt lat="43.5421317" lon="12.24991"><ele>411.40000000000003</ele><time>2026-04-22T10:09:03.715Z</time></trkpt><trkpt lat="43.5421717" lon="12.2500617"><ele>410.8</ele><time>2026-04-22T10:09:04.715Z</time></trkpt><trkpt lat="43.5422033" lon="12.2501983"><ele>410.2</ele><time>2026-04-22T10:09:05.715Z</time></trkpt><trkpt lat="43.54221" lon="12.250335"><ele>409.6</ele><time>2026-04-22T10:09:06.716Z</time></trkpt><trkpt lat="43.5422017" lon="12.2504667"><ele>409.0</ele><time>2026-04-22T10:09:07.715Z</time></trkpt><trkpt lat="43.54217" lon="12.2506"><ele>411.79999999999995</ele><time>2026-04-22T10:09:08.715Z</time></trkpt><trkpt lat="43.5421267" lon="12.2507367"><ele>414.59999999999997</ele><time>2026-04-22T10:09:09.715Z</time></trkpt><trkpt lat="43.5420967" lon="12.2508733"><ele>417.4</ele><time>2026-04-22T10:09:10.715Z</time></trkpt><trkpt lat="43.5420917" lon="12.2510183"><ele>420.2</ele><time>2026-04-22T10:09:11.715Z</time></trkpt><trkpt lat="43.5421083" lon="12.25117"><ele>423.0</ele><time>2026-04-22T10:09:12.715Z</time></trkpt><trkpt lat="43.542125" lon="12.25134"><ele>425.5</ele><time>2026-04-22T10:09:13.715Z</time></trkpt><trkpt lat="43.54215" lon="12.2515117"><ele>428.0</ele><time>2026-04-22T10:09:14.715Z</time></trkpt><trkpt lat="43.5421767" lon="12.2516933"><ele>430.5</ele><time>2026-04-22T10:09:15.715Z</time></trkpt><trkpt lat="43.5421967" lon="12.25187"><ele>433.0</ele><time>2026-04-22T10:09:16.715Z</time></trkpt><trkpt lat="43.5422133" lon="12.2520283"><ele>433.0</ele><time>2026-04-22T10:09:17.715Z</time></trkpt><trkpt lat="43.54223" lon="12.2521733"><ele>432.99999999999994</ele><time>2026-04-22T10:09:18.715Z</time></trkpt><trkpt lat="43.5422433" lon="12.2523217"><ele>432.99999999999994</ele><time>2026-04-22T10:09:19.715Z</time></trkpt><trkpt lat="43.5422517" lon="12.2524533"><ele>433.0</ele><time>2026-04-22T10:09:20.715Z</time></trkpt><trkpt lat="43.5422733" lon="12.252565"><ele>433.0</ele><time>2026-04-22T10:09:21.716Z</time></trkpt><trkpt lat="43.5423133" lon="12.25266"><ele>431.79999999999995</ele><time>2026-04-22T10:09:22.715Z</time></trkpt><trkpt lat="43.542385" lon="12.2527383"><ele>430.59999999999997</ele><time>2026-04-22T10:09:23.715Z</time></trkpt><trkpt lat="43.5424767" lon="12.2527917"><ele>429.40000000000003</ele><time>2026-04-22T10:09:24.715Z</time></trkpt><trkpt lat="43.5425717" lon="12.25285"><ele>428.20000000000005</ele><time>2026-04-22T10:09:25.715Z</time></trkpt><trkpt lat="43.54268" lon="12.2529167"><ele>427.0</ele><time>2026-04-22T10:09:26.716Z</time></trkpt><trkpt lat="43.5427867" lon="12.253005"><ele>431.25</ele><time>2026-04-22T10:09:27.716Z</time></trkpt><trkpt lat="43.542895" lon="12.2530967"><ele>435.5</ele><time>2026-04-22T10:09:28.716Z</time></trkpt><trkpt lat="43.5429983" lon="12.2531917"><ele>439.75</ele><time>2026-04-22T10:09:29.715Z</time></trkpt><trkpt lat="43.5431" lon="12.2532917"><ele>444.0</ele><time>2026-04-22T10:09:30.715Z</time></trkpt><trkpt lat="43.543185" lon="12.2534167"><ele>444.0</ele><time>2026-04-22T10:09:31.716Z</time></trkpt><trkpt lat="43.543255" lon="12.25355"><ele>444.0</ele><time>2026-04-22T10:09:32.715Z</time></trkpt><trkpt lat="43.5433167" lon="12.2536817"><ele>444.0</ele><time>2026-04-22T10:09:33.715Z</time></trkpt><trkpt lat="43.54337" lon="12.25382"><ele>444.0</ele><time>2026-04-22T10:09:34.715Z</time></trkpt><trkpt lat="43.543415" lon="12.253985"><ele>440.0</ele><time>2026-04-22T10:09:35.715Z</time></trkpt><trkpt lat="43.5434617" lon="12.2541433"><ele>436.0</ele><time>2026-04-22T10:09:36.715Z</time></trkpt><trkpt lat="43.5435" lon="12.254305"><ele>432.0</ele><time>2026-04-22T10:09:37.715Z</time></trkpt><trkpt lat="43.54354" lon="12.2544733"><ele>428.0</ele><time>2026-04-22T10:09:38.715Z</time></trkpt><trkpt lat="43.54357" lon="12.25465"><ele>426.75</ele><time>2026-04-22T10:09:39.715Z</time></trkpt><trkpt lat="43.543615" lon="12.25482"><ele>425.5</ele><time>2026-04-22T10:09:40.715Z</time></trkpt><trkpt lat="43.5436733" lon="12.2549983"><ele>424.25</ele><time>2026-04-22T10:09:41.715Z</time></trkpt><trkpt lat="43.54374" lon="12.2551683"><ele>423.0</ele><time>2026-04-22T10:09:42.715Z</time></trkpt><trkpt lat="43.5438067" lon="12.2553317"><ele>427.5</ele><time>2026-04-22T10:09:43.715Z</time></trkpt><trkpt lat="43.5438717" lon="12.2554983"><ele>432.0</ele><time>2026-04-22T10:09:44.715Z</time></trkpt><trkpt lat="43.5439333" lon="12.2556767"><ele>436.5</ele><time>2026-04-22T10:09:45.715Z</time></trkpt><trkpt lat="43.5439933" lon="12.2558533"><ele>441.0</ele><time>2026-04-22T10:09:46.715Z</time></trkpt><trkpt lat="43.5440417" lon="12.256035"><ele>441.0</ele><time>2026-04-22T10:09:47.715Z</time></trkpt><trkpt lat="43.54408" lon="12.2562267"><ele>441.0</ele><time>2026-04-22T10:09:48.716Z</time></trkpt><trkpt lat="43.54412" lon="12.2564183"><ele>441.0</ele><time>2026-04-22T10:09:49.715Z</time></trkpt><trkpt lat="43.5441617" lon="12.2566033"><ele>441.0</ele><time>2026-04-22T10:09:50.715Z</time></trkpt><trkpt lat="43.5442133" lon="12.2567833"><ele>439.5</ele><time>2026-04-22T10:09:51.715Z</time></trkpt><trkpt lat="43.544275" lon="12.2569583"><ele>438.0</ele><time>2026-04-22T10:09:52.715Z</time></trkpt><trkpt lat="43.54433" lon="12.2571317"><ele>436.5</ele><time>2026-04-22T10:09:53.715Z</time></trkpt><trkpt lat="43.544395" lon="12.2572967"><ele>435.0</ele><time>2026-04-22T10:09:54.716Z</time></trkpt><trkpt lat="43.5444533" lon="12.25746"><ele>434.4</ele><time>2026-04-22T10:09:55.715Z</time></trkpt><trkpt lat="43.5445167" lon="12.2576033"><ele>433.8</ele><time>2026-04-22T10:09:56.715Z</time></trkpt><trkpt lat="43.5445933" lon="12.2577183"><ele>433.20000000000005</ele><time>2026-04-22T10:09:57.715Z</time></trkpt><trkpt lat="43.544665" lon="12.2578117"><ele>432.6</ele><time>2026-04-22T10:09:58.715Z</time></trkpt><trkpt lat="43.5447533" lon="12.2578667"><ele>432.0</ele><time>2026-04-22T10:09:59.716Z</time></trkpt><trkpt lat="43.5448467" lon="12.2578817"><ele>436.20000000000005</ele><time>2026-04-22T10:10:00.716Z</time></trkpt><trkpt lat="43.5449517" lon="12.2578683"><ele>440.40000000000003</ele><time>2026-04-22T10:10:01.715Z</time></trkpt><trkpt lat="43.5450633" lon="12.2578583"><ele>444.59999999999997</ele><time>2026-04-22T10:10:02.715Z</time></trkpt><trkpt lat="43.545175" lon="12.2578717"><ele>448.79999999999995</ele><time>2026-04-22T10:10:03.715Z</time></trkpt><trkpt lat="43.5452833" lon="12.2579083"><ele>453.0</ele><time>2026-04-22T10:10:04.716Z</time></trkpt><trkpt lat="43.54538" lon="12.25797"><ele>452.25</ele><time>2026-04-22T10:10:05.715Z</time></trkpt><trkpt lat="43.5454817" lon="12.2580633"><ele>451.5</ele><time>2026-04-22T10:10:06.715Z</time></trkpt><trkpt lat="43.5455667" lon="12.25819"><ele>450.75</ele><time>2026-04-22T10:10:07.715Z</time></trkpt><trkpt lat="43.545665" lon="12.2583183"><ele>450.0</ele><time>2026-04-22T10:10:08.715Z</time></trkpt><trkpt lat="43.545755" lon="12.2584383"><ele>450.0</ele><time>2026-04-22T10:10:09.715Z</time></trkpt><trkpt lat="43.5458383" lon="12.258565"><ele>450.0</ele><time>2026-04-22T10:10:10.715Z</time></trkpt><trkpt lat="43.545925" lon="12.2586933"><ele>450.0</ele><time>2026-04-22T10:10:11.715Z</time></trkpt><trkpt lat="43.5459983" lon="12.2588233"><ele>450.0</ele><time>2026-04-22T10:10:12.715Z</time></trkpt><trkpt lat="43.5460767" lon="12.2589183"><ele>450.8333333333333</ele><time>2026-04-22T10:10:13.715Z</time></trkpt><trkpt lat="43.5461517" lon="12.259"><ele>451.66666666666663</ele><time>2026-04-22T10:10:14.715Z</time></trkpt><trkpt lat="43.5462283" lon="12.2590683"><ele>452.5</ele><time>2026-04-22T10:10:15.715Z</time></trkpt><trkpt lat="43.546305" lon="12.2591267"><ele>453.3333333333333</ele><time>2026-04-22T10:10:16.715Z</time></trkpt><trkpt lat="43.5463767" lon="12.2591733"><ele>454.16666666666663</ele><time>2026-04-22T10:10:17.716Z</time></trkpt><trkpt lat="43.5464467" lon="12.2592083"><ele>455.0</ele><time>2026-04-22T10:10:18.715Z</time></trkpt><trkpt lat="43.54652" lon="12.2592483"><ele>454.99999999999994</ele><time>2026-04-22T10:10:19.715Z</time></trkpt><trkpt lat="43.5465817" lon="12.2593033"><ele>455.0</ele><time>2026-04-22T10:10:20.715Z</time></trkpt><trkpt lat="43.5466217" lon="12.2593783"><ele>455.0</ele><time>2026-04-22T10:10:21.716Z</time></trkpt><trkpt lat="43.54664" lon="12.2594633"><ele>455.0</ele><time>2026-04-22T10:10:22.715Z</time></trkpt><trkpt lat="43.5466433" lon="12.2595633"><ele>454.99999999999994</ele><time>2026-04-22T10:10:23.715Z</time></trkpt><trkpt lat="43.5466117" lon="12.25967"><ele>455.0</ele><time>2026-04-22T10:10:24.715Z</time></trkpt><trkpt lat="43.5465467" lon="12.259775"><ele>457.0</ele><time>2026-04-22T10:10:25.715Z</time></trkpt><trkpt lat="43.5464717" lon="12.25988"><ele>459.0</ele><time>2026-04-22T10:10:26.715Z</time></trkpt><trkpt lat="43.5464033" lon="12.2599833"><ele>461.0</ele><time>2026-04-22T10:10:27.715Z</time></trkpt><trkpt lat="43.546335" lon="12.2600917"><ele>463.0</ele><time>2026-04-22T10:10:28.715Z</time></trkpt><trkpt lat="43.5462783" lon="12.2602017"><ele>465.0</ele><time>2026-04-22T10:10:29.715Z</time></trkpt><trkpt lat="43.5462333" lon="12.2603217"><ele>465.0</ele><time>2026-04-22T10:10:30.715Z</time></trkpt><trkpt lat="43.5462267" lon="12.2604483"><ele>465.0</ele><time>2026-04-22T10:10:31.716Z</time></trkpt><trkpt lat="43.5462467" lon="12.2605683"><ele>465.0</ele><time>2026-04-22T10:10:32.715Z</time></trkpt><trkpt lat="43.5462933" lon="12.2606767"><ele>465.0</ele><time>2026-04-22T10:10:33.715Z</time></trkpt><trkpt lat="43.5463683" lon="12.2607767"><ele>465.0</ele><time>2026-04-22T10:10:34.715Z</time></trkpt><trkpt lat="43.5464533" lon="12.2608667"><ele>466.5</ele><time>2026-04-22T10:10:35.715Z</time></trkpt><trkpt lat="43.54655" lon="12.2609767"><ele>468.0</ele><time>2026-04-22T10:10:36.715Z</time></trkpt><trkpt lat="43.54664" lon="12.2611033"><ele>469.5</ele><time>2026-04-22T10:10:37.716Z</time></trkpt><trkpt lat="43.546715" lon="12.261235"><ele>471.0</ele><time>2026-04-22T10:10:38.716Z</time></trkpt><trkpt lat="43.5467867" lon="12.2613667"><ele>467.0</ele><time>2026-04-22T10:10:39.715Z</time></trkpt><trkpt lat="43.5468583" lon="12.2615083"><ele>463.0</ele><time>2026-04-22T10:10:40.715Z</time></trkpt><trkpt lat="43.5469233" lon="12.2616467"><ele>459.0</ele><time>2026-04-22T10:10:41.715Z</time></trkpt><trkpt lat="43.546985" lon="12.2617933"><ele>455.0</ele><time>2026-04-22T10:10:42.715Z</time></trkpt><trkpt lat="43.5470317" lon="12.2619517"><ele>454.8</ele><time>2026-04-22T10:10:43.715Z</time></trkpt><trkpt lat="43.5470633" lon="12.2621167"><ele>454.6</ele><time>2026-04-22T10:10:44.715Z</time></trkpt><trkpt lat="43.5470817" lon="12.2622717"><ele>454.4</ele><time>2026-04-22T10:10:45.715Z</time></trkpt><trkpt lat="43.5470817" lon="12.2624067"><ele>454.2</ele><time>2026-04-22T10:10:46.715Z</time></trkpt><trkpt lat="43.5470683" lon="12.2625383"><ele>454.0</ele><time>2026-04-22T10:10:47.715Z</time></trkpt><trkpt lat="43.5470333" lon="12.2626667"><ele>454.0</ele><time>2026-04-22T10:10:48.715Z</time></trkpt><trkpt lat="43.546985" lon="12.2627817"><ele>454.0</ele><time>2026-04-22T10:10:49.715Z</time></trkpt><trkpt lat="43.546935" lon="12.2628933"><ele>454.0</ele><time>2026-04-22T10:10:50.715Z</time></trkpt><trkpt lat="43.5468867" lon="12.26302"><ele>454.0</ele><time>2026-04-22T10:10:51.715Z</time></trkpt><trkpt lat="43.54684" lon="12.26316"><ele>454.0</ele><time>2026-04-22T10:10:52.716Z</time></trkpt><trkpt lat="43.546785" lon="12.2633017"><ele>456.79999999999995</ele><time>2026-04-22T10:10:53.715Z</time></trkpt><trkpt lat="43.5467233" lon="12.2634283"><ele>459.59999999999997</ele><time>2026-04-22T10:10:54.715Z</time></trkpt><trkpt lat="43.5466633" lon="12.263545"><ele>462.4</ele><time>2026-04-22T10:10:55.715Z</time></trkpt><trkpt lat="43.54662" lon="12.26366"><ele>465.2</ele><time>2026-04-22T10:10:56.715Z</time></trkpt><trkpt lat="43.54659" lon="12.2637633"><ele>468.0</ele><time>2026-04-22T10:10:57.715Z</time></trkpt><trkpt lat="43.5465817" lon="12.26387"><ele>468.0</ele><time>2026-04-22T10:10:58.715Z</time></trkpt><trkpt lat="43.5465933" lon="12.2639883"><ele>467.99999999999994</ele><time>2026-04-22T10:10:59.715Z</time></trkpt><trkpt lat="43.5466367" lon="12.2640917"><ele>467.99999999999994</ele><time>2026-04-22T10:11:00.715Z</time></trkpt><trkpt lat="43.54669" lon="12.264195"><ele>468.0</ele><time>2026-04-22T10:11:01.715Z</time></trkpt><trkpt lat="43.5467567" lon="12.2642883"><ele>468.0</ele><time>2026-04-22T10:11:02.715Z</time></trkpt><trkpt lat="43.546835" lon="12.2643833"><ele>468.0</ele><time>2026-04-22T10:11:03.715Z</time></trkpt><trkpt lat="43.5469083" lon="12.2644917"><ele>467.99999999999994</ele><time>2026-04-22T10:11:04.716Z</time></trkpt><trkpt lat="43.546985" lon="12.2645883"><ele>467.99999999999994</ele><time>2026-04-22T10:11:05.716Z</time></trkpt><trkpt lat="43.54706" lon="12.264685"><ele>468.0</ele><time>2026-04-22T10:11:06.715Z</time></trkpt><trkpt lat="43.5471333" lon="12.2647817"><ele>468.0</ele><time>2026-04-22T10:11:07.715Z</time></trkpt><trkpt lat="43.5471867" lon="12.2648933"><ele>470.2</ele><time>2026-04-22T10:11:08.715Z</time></trkpt><trkpt lat="43.54724" lon="12.2650067"><ele>472.4</ele><time>2026-04-22T10:11:09.716Z</time></trkpt><trkpt lat="43.547285" lon="12.26513"><ele>474.59999999999997</ele><time>2026-04-22T10:11:10.715Z</time></trkpt><trkpt lat="43.5473183" lon="12.2652467"><ele>476.79999999999995</ele><time>2026-04-22T10:11:11.715Z</time></trkpt><trkpt lat="43.54736" lon="12.2653533"><ele>479.0</ele><time>2026-04-22T10:11:12.715Z</time></trkpt><trkpt lat="43.5474183" lon="12.2654517"><ele>479.0</ele><time>2026-04-22T10:11:13.715Z</time></trkpt><trkpt lat="43.5474817" lon="12.2655483"><ele>479.0</ele><time>2026-04-22T10:11:14.715Z</time></trkpt><trkpt lat="43.5475517" lon="12.2656383"><ele>479.0</ele><time>2026-04-22T10:11:15.716Z</time></trkpt><trkpt lat="43.5476233" lon="12.2657167"><ele>479.0</ele><time>2026-04-22T10:11:16.715Z</time></trkpt><trkpt lat="43.5476917" lon="12.2657967"><ele>479.0</ele><time>2026-04-22T10:11:17.715Z</time></trkpt><trkpt lat="43.5477683" lon="12.2658717"><ele>476.4</ele><time>2026-04-22T10:11:18.715Z</time></trkpt><trkpt lat="43.54785" lon="12.2659367"><ele>473.79999999999995</ele><time>2026-04-22T10:11:19.715Z</time></trkpt><trkpt lat="43.5479333" lon="12.2660017"><ele>471.20000000000005</ele><time>2026-04-22T10:11:20.715Z</time></trkpt><trkpt lat="43.5480167" lon="12.266065"><ele>468.6</ele><time>2026-04-22T10:11:21.715Z</time></trkpt><trkpt lat="43.5480983" lon="12.2661333"><ele>466.0</ele><time>2026-04-22T10:11:22.715Z</time></trkpt><trkpt lat="43.54818" lon="12.2662033"><ele>467.0</ele><time>2026-04-22T10:11:23.715Z</time></trkpt><trkpt lat="43.5482767" lon="12.26628"><ele>468.0</ele><time>2026-04-22T10:11:24.715Z</time></trkpt><trkpt lat="43.5483683" lon="12.2663533"><ele>469.0</ele><time>2026-04-22T10:11:25.715Z</time></trkpt><trkpt lat="43.5484567" lon="12.2664217"><ele>470.0</ele><time>2026-04-22T10:11:26.715Z</time></trkpt><trkpt lat="43.54854" lon="12.26648"><ele>471.0</ele><time>2026-04-22T10:11:27.715Z</time></trkpt><trkpt lat="43.5486283" lon="12.26654"><ele>472.5</ele><time>2026-04-22T10:11:28.716Z</time></trkpt><trkpt lat="43.5487167" lon="12.26659"><ele>474.0</ele><time>2026-04-22T10:11:29.715Z</time></trkpt><trkpt lat="43.548805" lon="12.2666167"><ele>475.5</ele><time>2026-04-22T10:11:30.715Z</time></trkpt><trkpt lat="43.5488867" lon="12.2666433"><ele>477.0</ele><time>2026-04-22T10:11:31.715Z</time></trkpt><trkpt lat="43.5489617" lon="12.2666883"><ele>478.5</ele><time>2026-04-22T10:11:32.715Z</time></trkpt><trkpt lat="43.5490233" lon="12.26676"><ele>480.0</ele><time>2026-04-22T10:11:33.715Z</time></trkpt><trkpt lat="43.5490567" lon="12.2668567"><ele>480.0</ele><time>2026-04-22T10:11:34.715Z</time></trkpt><trkpt lat="43.5490833" lon="12.2669667"><ele>480.0</ele><time>2026-04-22T10:11:35.715Z</time></trkpt><trkpt lat="43.5490967" lon="12.267085"><ele>480.0</ele><time>2026-04-22T10:11:36.715Z</time></trkpt><trkpt lat="43.5490883" lon="12.26721"><ele>480.0</ele><time>2026-04-22T10:11:37.715Z</time></trkpt><trkpt lat="43.5490617" lon="12.2673317"><ele>480.0</ele><time>2026-04-22T10:11:38.716Z</time></trkpt><trkpt lat="43.5490133" lon="12.2674283"><ele>480.0</ele><time>2026-04-22T10:11:39.715Z</time></trkpt><trkpt lat="43.5489417" lon="12.2675"><ele>481.0</ele><time>2026-04-22T10:11:40.716Z</time></trkpt><trkpt lat="43.5488683" lon="12.26756"><ele>482.0</ele><time>2026-04-22T10:11:41.715Z</time></trkpt><trkpt lat="43.5487783" lon="12.2675783"><ele>483.0</ele><time>2026-04-22T10:11:42.715Z</time></trkpt><trkpt lat="43.54868" lon="12.267575"><ele>484.0</ele><time>2026-04-22T10:11:43.715Z</time></trkpt><trkpt lat="43.5485767" lon="12.267555"><ele>485.0</ele><time>2026-04-22T10:11:44.715Z</time></trkpt><trkpt lat="43.5484783" lon="12.26751"><ele>485.0</ele><time>2026-04-22T10:11:45.715Z</time></trkpt><trkpt lat="43.5483817" lon="12.2674467"><ele>485.0</ele><time>2026-04-22T10:11:46.715Z</time></trkpt><trkpt lat="43.54829" lon="12.2673833"><ele>485.0</ele><time>2026-04-22T10:11:47.715Z</time></trkpt><trkpt lat="43.5482017" lon="12.2673333"><ele>485.0</ele><time>2026-04-22T10:11:48.715Z</time></trkpt><trkpt lat="43.5481117" lon="12.2673183"><ele>485.0</ele><time>2026-04-22T10:11:49.715Z</time></trkpt><trkpt lat="43.5480383" lon="12.2673583"><ele>484.99999999999994</ele><time>2026-04-22T10:11:50.715Z</time></trkpt><trkpt lat="43.5479833" lon="12.267435"><ele>485.0</ele><time>2026-04-22T10:11:51.715Z</time></trkpt><trkpt lat="43.5479617" lon="12.26756"><ele>485.0</ele><time>2026-04-22T10:11:52.715Z</time></trkpt><trkpt lat="43.5479733" lon="12.267685"><ele>485.0</ele><time>2026-04-22T10:11:53.715Z</time></trkpt><trkpt lat="43.54799" lon="12.2678133"><ele>484.99999999999994</ele><time>2026-04-22T10:11:54.715Z</time></trkpt><trkpt lat="43.5480117" lon="12.2679367"><ele>485.0</ele><time>2026-04-22T10:11:55.716Z</time></trkpt><trkpt lat="43.5480417" lon="12.26807"><ele>487.8</ele><time>2026-04-22T10:11:56.716Z</time></trkpt><trkpt lat="43.54806" lon="12.2682"><ele>490.6</ele><time>2026-04-22T10:11:57.715Z</time></trkpt><trkpt lat="43.5480717" lon="12.268345"><ele>493.4</ele><time>2026-04-22T10:11:58.716Z</time></trkpt><trkpt lat="43.5480733" lon="12.2684783"><ele>496.2</ele><time>2026-04-22T10:11:59.715Z</time></trkpt><trkpt lat="43.5480717" lon="12.2686117"><ele>499.0</ele><time>2026-04-22T10:12:00.716Z</time></trkpt><trkpt lat="43.548075" lon="12.26875"><ele>499.0</ele><time>2026-04-22T10:12:01.715Z</time></trkpt><trkpt lat="43.5480867" lon="12.2689"><ele>499.0</ele><time>2026-04-22T10:12:02.715Z</time></trkpt><trkpt lat="43.548095" lon="12.2690417"><ele>499.0</ele><time>2026-04-22T10:12:03.715Z</time></trkpt><trkpt lat="43.5481117" lon="12.26919"><ele>499.0</ele><time>2026-04-22T10:12:04.715Z</time></trkpt><trkpt lat="43.54812" lon="12.2693483"><ele>499.0</ele><time>2026-04-22T10:12:05.715Z</time></trkpt><trkpt lat="43.5481383" lon="12.2694917"><ele>499.0</ele><time>2026-04-22T10:12:06.715Z</time></trkpt><trkpt lat="43.54816" lon="12.2696283"><ele>499.0</ele><time>2026-04-22T10:12:07.715Z</time></trkpt><trkpt lat="43.5481733" lon="12.2697733"><ele>499.0</ele><time>2026-04-22T10:12:08.715Z</time></trkpt><trkpt lat="43.5482083" lon="12.2699133"><ele>499.0</ele><time>2026-04-22T10:12:09.715Z</time></trkpt><trkpt lat="43.548265" lon="12.2700583"><ele>499.0</ele><time>2026-04-22T10:12:10.716Z</time></trkpt><trkpt lat="43.5483417" lon="12.2701933"><ele>499.0</ele><time>2026-04-22T10:12:11.715Z</time></trkpt><trkpt lat="43.5484233" lon="12.2703183"><ele>499.0</ele><time>2026-04-22T10:12:12.716Z</time></trkpt><trkpt lat="43.5485" lon="12.2704417"><ele>499.0</ele><time>2026-04-22T10:12:13.715Z</time></trkpt><trkpt lat="43.5485733" lon="12.270575"><ele>499.0</ele><time>2026-04-22T10:12:14.715Z</time></trkpt><trkpt lat="43.548645" lon="12.2707167"><ele>496.75</ele><time>2026-04-22T10:12:15.715Z</time></trkpt><trkpt lat="43.5487017" lon="12.2708683"><ele>494.5</ele><time>2026-04-22T10:12:16.715Z</time></trkpt><trkpt lat="43.5487633" lon="12.2710283"><ele>492.25</ele><time>2026-04-22T10:12:17.715Z</time></trkpt><trkpt lat="43.5488183" lon="12.271195"><ele>490.0</ele><time>2026-04-22T10:12:18.715Z</time></trkpt><trkpt lat="43.54887" lon="12.2713483"><ele>496.75</ele><time>2026-04-22T10:12:19.715Z</time></trkpt><trkpt lat="43.5489067" lon="12.2715017"><ele>503.5</ele><time>2026-04-22T10:12:20.715Z</time></trkpt><trkpt lat="43.548925" lon="12.2716633"><ele>510.25</ele><time>2026-04-22T10:12:21.716Z</time></trkpt><trkpt lat="43.54893" lon="12.2718317"><ele>517.0</ele><time>2026-04-22T10:12:22.716Z</time></trkpt><trkpt lat="43.5489333" lon="12.2719917"><ele>517.0</ele><time>2026-04-22T10:12:23.716Z</time></trkpt><trkpt lat="43.5489583" lon="12.2721433"><ele>517.0</ele><time>2026-04-22T10:12:24.715Z</time></trkpt><trkpt lat="43.548995" lon="12.2722733"><ele>517.0</ele><time>2026-04-22T10:12:25.715Z</time></trkpt><trkpt lat="43.5490367" lon="12.27239"><ele>517.0</ele><time>2026-04-22T10:12:26.715Z</time></trkpt><trkpt lat="43.549105" lon="12.27249"><ele>517.0</ele><time>2026-04-22T10:12:27.716Z</time></trkpt><trkpt lat="43.5491883" lon="12.2725983"><ele>513.75</ele><time>2026-04-22T10:12:28.715Z</time></trkpt><trkpt lat="43.549285" lon="12.2726983"><ele>510.5</ele><time>2026-04-22T10:12:29.715Z</time></trkpt><trkpt lat="43.5493833" lon="12.2728033"><ele>507.25</ele><time>2026-04-22T10:12:30.715Z</time></trkpt><trkpt lat="43.5494883" lon="12.2729033"><ele>504.0</ele><time>2026-04-22T10:12:31.715Z</time></trkpt><trkpt lat="43.5495883" lon="12.2729983"><ele>508.5</ele><time>2026-04-22T10:12:32.715Z</time></trkpt><trkpt lat="43.5496833" lon="12.2731083"><ele>513.0</ele><time>2026-04-22T10:12:33.716Z</time></trkpt><trkpt lat="43.5497733" lon="12.27324"><ele>517.5</ele><time>2026-04-22T10:12:34.715Z</time></trkpt><trkpt lat="43.5498583" lon="12.273375"><ele>522.0</ele><time>2026-04-22T10:12:35.715Z</time></trkpt><trkpt lat="43.5499217" lon="12.2735217"><ele>522.0</ele><time>2026-04-22T10:12:36.715Z</time></trkpt><trkpt lat="43.5499733" lon="12.27367"><ele>522.0</ele><time>2026-04-22T10:12:37.715Z</time></trkpt><trkpt lat="43.55" lon="12.2738333"><ele>522.0</ele><time>2026-04-22T10:12:38.715Z</time></trkpt><trkpt lat="43.550005" lon="12.2740067"><ele>522.0</ele><time>2026-04-22T10:12:39.715Z</time></trkpt><trkpt lat="43.5500033" lon="12.2741867"><ele>521.25</ele><time>2026-04-22T10:12:40.715Z</time></trkpt><trkpt lat="43.549995" lon="12.2743733"><ele>520.5</ele><time>2026-04-22T10:12:41.715Z</time></trkpt><trkpt lat="43.549985" lon="12.2745683"><ele>519.75</ele><time>2026-04-22T10:12:42.715Z</time></trkpt><trkpt lat="43.5499833" lon="12.2747567"><ele>519.0</ele><time>2026-04-22T10:12:43.715Z</time></trkpt><trkpt lat="43.549975" lon="12.2749433"><ele>519.0</ele><time>2026-04-22T10:12:44.715Z</time></trkpt><trkpt lat="43.54997" lon="12.275135"><ele>519.0</ele><time>2026-04-22T10:12:45.715Z</time></trkpt><trkpt lat="43.5499583" lon="12.2753333"><ele>519.0</ele><time>2026-04-22T10:12:46.715Z</time></trkpt><trkpt lat="43.549945" lon="12.2755283"><ele>519.0</ele><time>2026-04-22T10:12:47.715Z</time></trkpt><trkpt lat="43.5499267" lon="12.2757233"><ele>520.25</ele><time>2026-04-22T10:12:48.715Z</time></trkpt><trkpt lat="43.5499133" lon="12.27592"><ele>521.5</ele><time>2026-04-22T10:12:49.715Z</time></trkpt><trkpt lat="43.549895" lon="12.2761117"><ele>522.75</ele><time>2026-04-22T10:12:50.715Z</time></trkpt><trkpt lat="43.5498767" lon="12.2763067"><ele>524.0</ele><time>2026-04-22T10:12:51.715Z</time></trkpt><trkpt lat="43.5498683" lon="12.2764817"><ele>524.75</ele><time>2026-04-22T10:12:52.715Z</time></trkpt><trkpt lat="43.549885" lon="12.276635"><ele>525.5</ele><time>2026-04-22T10:12:53.715Z</time></trkpt><trkpt lat="43.5499217" lon="12.2767783"><ele>526.25</ele><time>2026-04-22T10:12:54.715Z</time></trkpt><trkpt lat="43.5499783" lon="12.2769217"><ele>527.0</ele><time>2026-04-22T10:12:55.715Z</time></trkpt><trkpt lat="43.5500467" lon="12.2770617"><ele>527.0</ele><time>2026-04-22T10:12:56.715Z</time></trkpt><trkpt lat="43.5501267" lon="12.277195"><ele>527.0</ele><time>2026-04-22T10:12:57.715Z</time></trkpt><trkpt lat="43.5501917" lon="12.2773483"><ele>527.0</ele><time>2026-04-22T10:12:58.716Z</time></trkpt><trkpt lat="43.5502483" lon="12.2775183"><ele>527.0</ele><time>2026-04-22T10:12:59.715Z</time></trkpt><trkpt lat="43.5503117" lon="12.2776783"><ele>530.75</ele><time>2026-04-22T10:13:00.715Z</time></trkpt><trkpt lat="43.5503883" lon="12.2778367"><ele>534.5</ele><time>2026-04-22T10:13:01.715Z</time></trkpt><trkpt lat="43.55048" lon="12.2779983"><ele>538.25</ele><time>2026-04-22T10:13:02.716Z</time></trkpt><trkpt lat="43.5505717" lon="12.2781667"><ele>542.0</ele><time>2026-04-22T10:13:03.715Z</time></trkpt><trkpt lat="43.5506633" lon="12.27833"><ele>542.0</ele><time>2026-04-22T10:13:04.715Z</time></trkpt><trkpt lat="43.5507533" lon="12.2785033"><ele>542.0</ele><time>2026-04-22T10:13:05.716Z</time></trkpt><trkpt lat="43.5508383" lon="12.2786833"><ele>542.0</ele><time>2026-04-22T10:13:06.715Z</time></trkpt><trkpt lat="43.55093" lon="12.2788583"><ele>539.75</ele><time>2026-04-22T10:13:07.715Z</time></trkpt><trkpt lat="43.5510183" lon="12.2790317"><ele>537.5</ele><time>2026-04-22T10:13:08.715Z</time></trkpt><trkpt lat="43.5511083" lon="12.2791967"><ele>535.25</ele><time>2026-04-22T10:13:09.715Z</time></trkpt><trkpt lat="43.5511933" lon="12.2793583"><ele>533.0</ele><time>2026-04-22T10:13:10.715Z</time></trkpt><trkpt lat="43.5512717" lon="12.27953"><ele>537.0</ele><time>2026-04-22T10:13:11.716Z</time></trkpt><trkpt lat="43.5513633" lon="12.279705"><ele>541.0</ele><time>2026-04-22T10:13:12.715Z</time></trkpt><trkpt lat="43.551445" lon="12.2798733"><ele>545.0</ele><time>2026-04-22T10:13:13.715Z</time></trkpt><trkpt lat="43.5515267" lon="12.28004"><ele>549.0</ele><time>2026-04-22T10:13:14.715Z</time></trkpt><trkpt lat="43.5516033" lon="12.2801917"><ele>549.0</ele><time>2026-04-22T10:13:15.715Z</time></trkpt><trkpt lat="43.5516733" lon="12.28032"><ele>549.0</ele><time>2026-04-22T10:13:16.715Z</time></trkpt><trkpt lat="43.55176" lon="12.2804333"><ele>549.0</ele><time>2026-04-22T10:13:17.715Z</time></trkpt><trkpt lat="43.55186" lon="12.2805183"><ele>549.0</ele><time>2026-04-22T10:13:18.715Z</time></trkpt><trkpt lat="43.5519783" lon="12.2805967"><ele>551.75</ele><time>2026-04-22T10:13:19.715Z</time></trkpt><trkpt lat="43.552105" lon="12.2806617"><ele>554.5</ele><time>2026-04-22T10:13:20.716Z</time></trkpt><trkpt lat="43.5522367" lon="12.2807417"><ele>557.25</ele><time>2026-04-22T10:13:21.715Z</time></trkpt><trkpt lat="43.5523617" lon="12.28085"><ele>560.0</ele><time>2026-04-22T10:13:22.715Z</time></trkpt><trkpt lat="43.5524833" lon="12.2809733"><ele>560.0</ele><time>2026-04-22T10:13:23.715Z</time></trkpt><trkpt lat="43.552605" lon="12.28111"><ele>560.0</ele><time>2026-04-22T10:13:24.715Z</time></trkpt><trkpt lat="43.5527283" lon="12.2812433"><ele>560.0</ele><time>2026-04-22T10:13:25.715Z</time></trkpt><trkpt lat="43.5528367" lon="12.281405"><ele>563.6666666666666</ele><time>2026-04-22T10:13:26.716Z</time></trkpt><trkpt lat="43.5529383" lon="12.2815633"><ele>567.3333333333334</ele><time>2026-04-22T10:13:27.715Z</time></trkpt><trkpt lat="43.5530383" lon="12.281725"><ele>571.0</ele><time>2026-04-22T10:13:28.715Z</time></trkpt><trkpt lat="43.5531417" lon="12.2818733"><ele>571.0</ele><time>2026-04-22T10:13:29.715Z</time></trkpt><trkpt lat="43.55325" lon="12.2820133"><ele>571.0</ele><time>2026-04-22T10:13:30.715Z</time></trkpt><trkpt lat="43.5533567" lon="12.28211"><ele>571.0</ele><time>2026-04-22T10:13:31.715Z</time></trkpt><trkpt lat="43.5534683" lon="12.282185"><ele>571.0</ele><time>2026-04-22T10:13:32.715Z</time></trkpt><trkpt lat="43.5535817" lon="12.2822283"><ele>571.0</ele><time>2026-04-22T10:13:33.715Z</time></trkpt><trkpt lat="43.553705" lon="12.2822633"><ele>571.0</ele><time>2026-04-22T10:13:34.715Z</time></trkpt><trkpt lat="43.5538333" lon="12.2822883"><ele>571.0</ele><time>2026-04-22T10:13:35.715Z</time></trkpt><trkpt lat="43.55397" lon="12.282315"><ele>571.0</ele><time>2026-04-22T10:13:36.715Z</time></trkpt><trkpt lat="43.5541133" lon="12.28234"><ele>570.0</ele><time>2026-04-22T10:13:37.715Z</time></trkpt><trkpt lat="43.554255" lon="12.2823733"><ele>569.0</ele><time>2026-04-22T10:13:38.715Z</time></trkpt><trkpt lat="43.5544" lon="12.2824133"><ele>568.0</ele><time>2026-04-22T10:13:39.715Z</time></trkpt><trkpt lat="43.554535" lon="12.2824517"><ele>567.0</ele><time>2026-04-22T10:13:40.715Z</time></trkpt><trkpt lat="43.5546783" lon="12.2824833"><ele>567.0</ele><time>2026-04-22T10:13:41.715Z</time></trkpt><trkpt lat="43.5548267" lon="12.2824933"><ele>567.0</ele><time>2026-04-22T10:13:42.715Z</time></trkpt><trkpt lat="43.55497" lon="12.2824917"><ele>567.0</ele><time>2026-04-22T10:13:43.716Z</time></trkpt><trkpt lat="43.5551217" lon="12.2825033"><ele>567.0</ele><time>2026-04-22T10:13:44.715Z</time></trkpt><trkpt lat="43.555265" lon="12.28253"><ele>569.75</ele><time>2026-04-22T10:13:45.715Z</time></trkpt><trkpt lat="43.555395" lon="12.2825583"><ele>572.5</ele><time>2026-04-22T10:13:46.715Z</time></trkpt><trkpt lat="43.5555117" lon="12.2825617"><ele>575.25</ele><time>2026-04-22T10:13:47.715Z</time></trkpt><trkpt lat="43.5556317" lon="12.2825533"><ele>578.0</ele><time>2026-04-22T10:13:48.715Z</time></trkpt><trkpt lat="43.555755" lon="12.282575"><ele>578.0</ele><time>2026-04-22T10:13:49.715Z</time></trkpt><trkpt lat="43.5558833" lon="12.2826267"><ele>578.0</ele><time>2026-04-22T10:13:50.715Z</time></trkpt><trkpt lat="43.5560117" lon="12.2826833"><ele>578.0</ele><time>2026-04-22T10:13:51.715Z</time></trkpt><trkpt lat="43.5561383" lon="12.28276"><ele>578.0</ele><time>2026-04-22T10:13:52.715Z</time></trkpt><trkpt lat="43.5562667" lon="12.2828533"><ele>581.3333333333333</ele><time>2026-04-22T10:13:53.715Z</time></trkpt><trkpt lat="43.5564" lon="12.2829533"><ele>584.6666666666666</ele><time>2026-04-22T10:13:54.715Z</time></trkpt><trkpt lat="43.556535" lon="12.2830567"><ele>588.0</ele><time>2026-04-22T10:13:55.715Z</time></trkpt><trkpt lat="43.5566717" lon="12.2831667"><ele>585.6666666666666</ele><time>2026-04-22T10:13:56.715Z</time></trkpt><trkpt lat="43.5568" lon="12.2832817"><ele>583.3333333333333</ele><time>2026-04-22T10:13:57.715Z</time></trkpt><trkpt lat="43.5569317" lon="12.2833867"><ele>581.0</ele><time>2026-04-22T10:13:58.715Z</time></trkpt><trkpt lat="43.557075" lon="12.28347"><ele>581.0</ele><time>2026-04-22T10:13:59.715Z</time></trkpt><trkpt lat="43.5572083" lon="12.2835333"><ele>581.0</ele><time>2026-04-22T10:14:00.715Z</time></trkpt><trkpt lat="43.5573333" lon="12.2835933"><ele>581.0</ele><time>2026-04-22T10:14:01.715Z</time></trkpt><trkpt lat="43.55745" lon="12.2836667"><ele>581.0</ele><time>2026-04-22T10:14:02.715Z</time></trkpt><trkpt lat="43.5575633" lon="12.2837483"><ele>581.0</ele><time>2026-04-22T10:14:03.715Z</time></trkpt><trkpt lat="43.5576767" lon="12.2838383"><ele>581.0</ele><time>2026-04-22T10:14:04.715Z</time></trkpt><trkpt lat="43.5577717" lon="12.2839433"><ele>581.0</ele><time>2026-04-22T10:14:05.715Z</time></trkpt><trkpt lat="43.5578583" lon="12.284045"><ele>581.0</ele><time>2026-04-22T10:14:06.715Z</time></trkpt><trkpt lat="43.5579517" lon="12.2841383"><ele>581.75</ele><time>2026-04-22T10:14:07.715Z</time></trkpt><trkpt lat="43.558055" lon="12.2842183"><ele>582.5</ele><time>2026-04-22T10:14:08.715Z</time></trkpt><trkpt lat="43.5581683" lon="12.2842867"><ele>583.25</ele><time>2026-04-22T10:14:09.715Z</time></trkpt><trkpt lat="43.5582809" lon="12.2843399"><ele>584.0</ele><time>2026-04-22T10:14:10.715Z</time></trkpt><trkpt lat="43.5584006" lon="12.2844069"><ele>584.0</ele><time>2026-04-22T10:14:11.715Z</time></trkpt><trkpt lat="43.5585119" lon="12.2844801"><ele>584.0</ele><time>2026-04-22T10:14:12.715Z</time></trkpt><trkpt lat="43.5586088" lon="12.284551"><ele>584.0</ele><time>2026-04-22T10:14:13.715Z</time></trkpt><trkpt lat="43.5586935" lon="12.2846258"><ele>584.0</ele><time>2026-04-22T10:14:14.715Z</time></trkpt><trkpt lat="43.5587733" lon="12.2846967"><ele>584.0</ele><time>2026-04-22T10:14:15.715Z</time></trkpt><trkpt lat="43.5588567" lon="12.28476"><ele>583.8333333333333</ele><time>2026-04-22T10:14:16.715Z</time></trkpt><trkpt lat="43.5589383" lon="12.2848233"><ele>583.6666666666666</ele><time>2026-04-22T10:14:17.715Z</time></trkpt><trkpt lat="43.55901" lon="12.28488"><ele>583.5</ele><time>2026-04-22T10:14:18.715Z</time></trkpt><trkpt lat="43.5590783" lon="12.2849433"><ele>583.3333333333334</ele><time>2026-04-22T10:14:19.715Z</time></trkpt><trkpt lat="43.55914" lon="12.2850067"><ele>583.1666666666667</ele><time>2026-04-22T10:14:20.715Z</time></trkpt><trkpt lat="43.5591967" lon="12.2850767"><ele>583.0</ele><time>2026-04-22T10:14:21.715Z</time></trkpt><trkpt lat="43.5592433" lon="12.2851667"><ele>583.0</ele><time>2026-04-22T10:14:22.715Z</time></trkpt><trkpt lat="43.5592917" lon="12.28527"><ele>583.0</ele><time>2026-04-22T10:14:23.715Z</time></trkpt><trkpt lat="43.559335" lon="12.28538"><ele>583.0</ele><time>2026-04-22T10:14:24.716Z</time></trkpt><trkpt lat="43.55939" lon="12.285485"><ele>583.0</ele><time>2026-04-22T10:14:25.715Z</time></trkpt><trkpt lat="43.5594483" lon="12.285585"><ele>583.0</ele><time>2026-04-22T10:14:26.715Z</time></trkpt><trkpt lat="43.5595033" lon="12.2856983"><ele>587.1999999999999</ele><time>2026-04-22T10:14:27.715Z</time></trkpt><trkpt lat="43.5595683" lon="12.28583"><ele>591.4</ele><time>2026-04-22T10:14:28.716Z</time></trkpt><trkpt lat="43.5596333" lon="12.285965"><ele>595.5999999999999</ele><time>2026-04-22T10:14:29.715Z</time></trkpt><trkpt lat="43.55969" lon="12.2860867"><ele>599.8</ele><time>2026-04-22T10:14:30.715Z</time></trkpt><trkpt lat="43.55974" lon="12.2862"><ele>604.0</ele><time>2026-04-22T10:14:31.715Z</time></trkpt><trkpt lat="43.5597867" lon="12.2863067"><ele>604.0</ele><time>2026-04-22T10:14:32.715Z</time></trkpt><trkpt lat="43.5598517" lon="12.2863833"><ele>604.0</ele><time>2026-04-22T10:14:33.715Z</time></trkpt><trkpt lat="43.5599367" lon="12.28644"><ele>604.0</ele><time>2026-04-22T10:14:34.715Z</time></trkpt><trkpt lat="43.5600317" lon="12.2864683"><ele>604.0</ele><time>2026-04-22T10:14:35.715Z</time></trkpt><trkpt lat="43.56014" lon="12.28649"><ele>604.0</ele><time>2026-04-22T10:14:36.715Z</time></trkpt><trkpt lat="43.56025" lon="12.2865233"><ele>603.75</ele><time>2026-04-22T10:14:37.715Z</time></trkpt><trkpt lat="43.5603667" lon="12.2865633"><ele>603.5</ele><time>2026-04-22T10:14:38.715Z</time></trkpt><trkpt lat="43.56048" lon="12.286605"><ele>603.25</ele><time>2026-04-22T10:14:39.716Z</time></trkpt><trkpt lat="43.560595" lon="12.286635"><ele>603.0</ele><time>2026-04-22T10:14:40.715Z</time></trkpt><trkpt lat="43.560715" lon="12.2866533"><ele>603.0</ele><time>2026-04-22T10:14:41.716Z</time></trkpt><trkpt lat="43.5608267" lon="12.2866917"><ele>603.0</ele><time>2026-04-22T10:14:42.716Z</time></trkpt><trkpt lat="43.560935" lon="12.2867333"><ele>603.0</ele><time>2026-04-22T10:14:43.715Z</time></trkpt><trkpt lat="43.56104" lon="12.2867867"><ele>603.0</ele><time>2026-04-22T10:14:44.716Z</time></trkpt><trkpt lat="43.5611317" lon="12.2868467"><ele>603.0</ele><time>2026-04-22T10:14:45.715Z</time></trkpt><trkpt lat="43.5612233" lon="12.2869317"><ele>606.0</ele><time>2026-04-22T10:14:46.715Z</time></trkpt><trkpt lat="43.561325" lon="12.2870117"><ele>609.0</ele><time>2026-04-22T10:14:47.715Z</time></trkpt><trkpt lat="43.561435" lon="12.2870717"><ele>612.0</ele><time>2026-04-22T10:14:48.715Z</time></trkpt><trkpt lat="43.5615467" lon="12.2871267"><ele>615.0</ele><time>2026-04-22T10:14:49.715Z</time></trkpt><trkpt lat="43.5616583" lon="12.287185"><ele>617.0</ele><time>2026-04-22T10:14:50.715Z</time></trkpt><trkpt lat="43.56177" lon="12.2872667"><ele>619.0</ele><time>2026-04-22T10:14:51.715Z</time></trkpt><trkpt lat="43.5618783" lon="12.2873483"><ele>621.0</ele><time>2026-04-22T10:14:52.716Z</time></trkpt><trkpt lat="43.5619883" lon="12.2874317"><ele>623.0</ele><time>2026-04-22T10:14:53.715Z</time></trkpt><trkpt lat="43.5620817" lon="12.287515"><ele>623.0</ele><time>2026-04-22T10:14:54.715Z</time></trkpt><trkpt lat="43.5621833" lon="12.28761"><ele>623.0</ele><time>2026-04-22T10:14:55.715Z</time></trkpt><trkpt lat="43.56228" lon="12.287705"><ele>623.0</ele><time>2026-04-22T10:14:56.715Z</time></trkpt><trkpt lat="43.5623767" lon="12.2878033"><ele>623.0</ele><time>2026-04-22T10:14:57.715Z</time></trkpt><trkpt lat="43.56247" lon="12.2878983"><ele>623.0</ele><time>2026-04-22T10:14:58.715Z</time></trkpt><trkpt lat="43.5625683" lon="12.2879783"><ele>623.0</ele><time>2026-04-22T10:14:59.715Z</time></trkpt><trkpt lat="43.5626667" lon="12.2880567"><ele>623.0</ele><time>2026-04-22T10:15:00.714Z</time></trkpt><trkpt lat="43.56277" lon="12.2881"><ele>623.0</ele><time>2026-04-22T10:15:01.714Z</time></trkpt><trkpt lat="43.562875" lon="12.28813"><ele>623.0</ele><time>2026-04-22T10:15:02.714Z</time></trkpt><trkpt lat="43.5629867" lon="12.2881517"><ele>624.0</ele><time>2026-04-22T10:15:03.714Z</time></trkpt><trkpt lat="43.5630967" lon="12.2881867"><ele>625.0</ele><time>2026-04-22T10:15:04.714Z</time></trkpt><trkpt lat="43.5632033" lon="12.2882333"><ele>626.0</ele><time>2026-04-22T10:15:05.714Z</time></trkpt><trkpt lat="43.563305" lon="12.2882733"><ele>627.0</ele><time>2026-04-22T10:15:06.714Z</time></trkpt><trkpt lat="43.5634067" lon="12.28831"><ele>628.0</ele><time>2026-04-22T10:15:07.714Z</time></trkpt><trkpt lat="43.5634983" lon="12.2883617"><ele>628.0</ele><time>2026-04-22T10:15:08.714Z</time></trkpt><trkpt lat="43.56359" lon="12.2884367"><ele>628.0</ele><time>2026-04-22T10:15:09.714Z</time></trkpt><trkpt lat="43.5636533" lon="12.28855"><ele>628.0</ele><time>2026-04-22T10:15:10.714Z</time></trkpt><trkpt lat="43.56371" lon="12.2886767"><ele>628.0</ele><time>2026-04-22T10:15:11.714Z</time></trkpt><trkpt lat="43.563775" lon="12.2888"><ele>628.0</ele><time>2026-04-22T10:15:12.714Z</time></trkpt><trkpt lat="43.5638467" lon="12.2889083"><ele>628.8</ele><time>2026-04-22T10:15:13.714Z</time></trkpt><trkpt lat="43.563925" lon="12.2889917"><ele>629.5999999999999</ele><time>2026-04-22T10:15:14.714Z</time></trkpt><trkpt lat="43.5640233" lon="12.289045"><ele>630.4000000000001</ele><time>2026-04-22T10:15:15.714Z</time></trkpt><trkpt lat="43.5641233" lon="12.2890767"><ele>631.2</ele><time>2026-04-22T10:15:16.714Z</time></trkpt><trkpt lat="43.5642283" lon="12.28908"><ele>632.0</ele><time>2026-04-22T10:15:17.714Z</time></trkpt><trkpt lat="43.5643317" lon="12.2890867"><ele>632.0</ele><time>2026-04-22T10:15:18.714Z</time></trkpt><trkpt lat="43.56444" lon="12.28911"><ele>632.0</ele><time>2026-04-22T10:15:19.715Z</time></trkpt><trkpt lat="43.564545" lon="12.2891467"><ele>632.0</ele><time>2026-04-22T10:15:20.714Z</time></trkpt><trkpt lat="43.5646483" lon="12.2891617"><ele>632.0</ele><time>2026-04-22T10:15:21.714Z</time></trkpt><trkpt lat="43.5647467" lon="12.2891467"><ele>632.0</ele><time>2026-04-22T10:15:22.714Z</time></trkpt><trkpt lat="43.56483" lon="12.2891"><ele>633.2</ele><time>2026-04-22T10:15:23.714Z</time></trkpt><trkpt lat="43.5649167" lon="12.289015"><ele>634.4000000000001</ele><time>2026-04-22T10:15:24.714Z</time></trkpt><trkpt lat="43.5649983" lon="12.2889217"><ele>635.5999999999999</ele><time>2026-04-22T10:15:25.714Z</time></trkpt><trkpt lat="43.5650567" lon="12.28882"><ele>636.8</ele><time>2026-04-22T10:15:26.715Z</time></trkpt><trkpt lat="43.56511" lon="12.2887183"><ele>638.0</ele><time>2026-04-22T10:15:27.714Z</time></trkpt><trkpt lat="43.5651683" lon="12.28863"><ele>640.8571428571429</ele><time>2026-04-22T10:15:28.714Z</time></trkpt><trkpt lat="43.5652267" lon="12.2885617"><ele>643.7142857142857</ele><time>2026-04-22T10:15:29.715Z</time></trkpt><trkpt lat="43.56529" lon="12.288515"><ele>646.5714285714286</ele><time>2026-04-22T10:15:30.714Z</time></trkpt><trkpt lat="43.5653533" lon="12.2884967"><ele>649.4285714285714</ele><time>2026-04-22T10:15:31.714Z</time></trkpt><trkpt lat="43.5654167" lon="12.288525"><ele>652.2857142857142</ele><time>2026-04-22T10:15:32.714Z</time></trkpt><trkpt lat="43.5654733" lon="12.2885933"><ele>655.1428571428571</ele><time>2026-04-22T10:15:33.714Z</time></trkpt><trkpt lat="43.5655233" lon="12.2886883"><ele>658.0</ele><time>2026-04-22T10:15:34.714Z</time></trkpt><trkpt lat="43.5655567" lon="12.288795"><ele>657.5</ele><time>2026-04-22T10:15:35.714Z</time></trkpt><trkpt lat="43.5655667" lon="12.28891"><ele>657.0</ele><time>2026-04-22T10:15:36.714Z</time></trkpt><trkpt lat="43.565565" lon="12.289025"><ele>656.5</ele><time>2026-04-22T10:15:37.714Z</time></trkpt><trkpt lat="43.5655633" lon="12.2891367"><ele>656.0</ele><time>2026-04-22T10:15:38.714Z</time></trkpt><trkpt lat="43.565575" lon="12.2892367"><ele>655.5</ele><time>2026-04-22T10:15:39.714Z</time></trkpt><trkpt lat="43.5655967" lon="12.289325"><ele>655.0</ele><time>2026-04-22T10:15:40.714Z</time></trkpt><trkpt lat="43.5656317" lon="12.2894017"><ele>655.0</ele><time>2026-04-22T10:15:41.715Z</time></trkpt><trkpt lat="43.5656917" lon="12.289465"><ele>655.0</ele><time>2026-04-22T10:15:42.714Z</time></trkpt><trkpt lat="43.565755" lon="12.289515"><ele>655.0</ele><time>2026-04-22T10:15:43.714Z</time></trkpt><trkpt lat="43.5658217" lon="12.2895617"><ele>655.0</ele><time>2026-04-22T10:15:44.714Z</time></trkpt><trkpt lat="43.5658967" lon="12.28961"><ele>655.0</ele><time>2026-04-22T10:15:45.714Z</time></trkpt><trkpt lat="43.5659833" lon="12.2896667"><ele>655.0</ele><time>2026-04-22T10:15:46.714Z</time></trkpt><trkpt lat="43.566065" lon="12.289725"><ele>653.0</ele><time>2026-04-22T10:15:47.714Z</time></trkpt><trkpt lat="43.5661483" lon="12.2897883"><ele>651.0</ele><time>2026-04-22T10:15:48.714Z</time></trkpt><trkpt lat="43.56623" lon="12.28987"><ele>649.0</ele><time>2026-04-22T10:15:49.714Z</time></trkpt><trkpt lat="43.566325" lon="12.2899567"><ele>647.0</ele><time>2026-04-22T10:15:50.714Z</time></trkpt><trkpt lat="43.56642" lon="12.2900517"><ele>645.0</ele><time>2026-04-22T10:15:51.714Z</time></trkpt><trkpt lat="43.566525" lon="12.2901467"><ele>650.75</ele><time>2026-04-22T10:15:52.714Z</time></trkpt><trkpt lat="43.56663" lon="12.2902383"><ele>656.5</ele><time>2026-04-22T10:15:53.715Z</time></trkpt><trkpt lat="43.5667417" lon="12.2903167"><ele>662.25</ele><time>2026-04-22T10:15:54.714Z</time></trkpt><trkpt lat="43.5668667" lon="12.2903917"><ele>668.0</ele><time>2026-04-22T10:15:55.714Z</time></trkpt><trkpt lat="43.5669917" lon="12.29046"><ele>667.0</ele><time>2026-04-22T10:15:56.714Z</time></trkpt><trkpt lat="43.5671067" lon="12.2905233"><ele>666.0</ele><time>2026-04-22T10:15:57.714Z</time></trkpt><trkpt lat="43.56723" lon="12.2906083"><ele>665.0</ele><time>2026-04-22T10:15:58.714Z</time></trkpt><trkpt lat="43.5673533" lon="12.2907067"><ele>664.0</ele><time>2026-04-22T10:15:59.714Z</time></trkpt><trkpt lat="43.5674733" lon="12.2908133"><ele>664.0</ele><time>2026-04-22T10:16:00.714Z</time></trkpt><trkpt lat="43.56759" lon="12.2909217"><ele>664.0</ele><time>2026-04-22T10:16:01.714Z</time></trkpt><trkpt lat="43.56769" lon="12.29105"><ele>664.0</ele><time>2026-04-22T10:16:02.715Z</time></trkpt><trkpt lat="43.5677833" lon="12.2911767"><ele>664.0</ele><time>2026-04-22T10:16:03.714Z</time></trkpt><trkpt lat="43.5678817" lon="12.2912967"><ele>665.0</ele><time>2026-04-22T10:16:04.714Z</time></trkpt><trkpt lat="43.5679933" lon="12.2914083"><ele>666.0</ele><time>2026-04-22T10:16:05.714Z</time></trkpt><trkpt lat="43.5681033" lon="12.29151"><ele>667.0</ele><time>2026-04-22T10:16:06.714Z</time></trkpt><trkpt lat="43.5682217" lon="12.2916"><ele>668.0</ele><time>2026-04-22T10:16:07.714Z</time></trkpt><trkpt lat="43.568325" lon="12.2916667"><ele>668.0</ele><time>2026-04-22T10:16:08.714Z</time></trkpt><trkpt lat="43.56842" lon="12.2917317"><ele>668.0</ele><time>2026-04-22T10:16:09.714Z</time></trkpt><trkpt lat="43.5684967" lon="12.291815"><ele>668.0</ele><time>2026-04-22T10:16:10.714Z</time></trkpt><trkpt lat="43.5685617" lon="12.291905"><ele>668.0</ele><time>2026-04-22T10:16:11.714Z</time></trkpt><trkpt lat="43.5686067" lon="12.2920117"><ele>668.0</ele><time>2026-04-22T10:16:12.714Z</time></trkpt><trkpt lat="43.568615" lon="12.2921233"><ele>668.0</ele><time>2026-04-22T10:16:13.714Z</time></trkpt><trkpt lat="43.5686033" lon="12.292225"><ele>668.0</ele><time>2026-04-22T10:16:14.714Z</time></trkpt><trkpt lat="43.568555" lon="12.2923167"><ele>668.0</ele><time>2026-04-22T10:16:15.715Z</time></trkpt><trkpt lat="43.56848" lon="12.2924017"><ele>668.0</ele><time>2026-04-22T10:16:16.714Z</time></trkpt><trkpt lat="43.5683883" lon="12.2924833"><ele>668.0</ele><time>2026-04-22T10:16:17.714Z</time></trkpt><trkpt lat="43.5682817" lon="12.292565"><ele>668.0</ele><time>2026-04-22T10:16:18.714Z</time></trkpt><trkpt lat="43.5681733" lon="12.2926683"><ele>668.0</ele><time>2026-04-22T10:16:19.714Z</time></trkpt><trkpt lat="43.5680767" lon="12.2927817"><ele>668.0</ele><time>2026-04-22T10:16:20.714Z</time></trkpt><trkpt lat="43.5679983" lon="12.2929"><ele>668.0</ele><time>2026-04-22T10:16:21.715Z</time></trkpt><trkpt lat="43.56794" lon="12.2930183"><ele>670.5</ele><time>2026-04-22T10:16:22.714Z</time></trkpt><trkpt lat="43.5679017" lon="12.293135"><ele>673.0</ele><time>2026-04-22T10:16:23.715Z</time></trkpt><trkpt lat="43.567875" lon="12.2932383"><ele>675.5</ele><time>2026-04-22T10:16:24.714Z</time></trkpt><trkpt lat="43.567855" lon="12.29334"><ele>678.0</ele><time>2026-04-22T10:16:25.714Z</time></trkpt><trkpt lat="43.5678433" lon="12.29343"><ele>680.5</ele><time>2026-04-22T10:16:26.714Z</time></trkpt><trkpt lat="43.567855" lon="12.2935533"><ele>683.0</ele><time>2026-04-22T10:16:28.714Z</time></trkpt><trkpt lat="43.567875" lon="12.293655"><ele>683.0</ele><time>2026-04-22T10:16:31.714Z</time></trkpt><trkpt lat="43.5678467" lon="12.2937367"><ele>683.0</ele><time>2026-04-22T10:16:33.714Z</time></trkpt><trkpt lat="43.567805" lon="12.2938317"><ele>683.0</ele><time>2026-04-22T10:16:35.714Z</time></trkpt><trkpt lat="43.5677517" lon="12.2939383"><ele>683.0</ele><time>2026-04-22T10:16:37.714Z</time></trkpt><trkpt lat="43.56769" lon="12.2940233"><ele>683.0</ele><time>2026-04-22T10:16:39.715Z</time></trkpt><trkpt lat="43.56763" lon="12.29408"><ele>683.0</ele><time>2026-04-22T10:16:41.715Z</time></trkpt><trkpt lat="43.5677" lon="12.293975"><ele>683.0</ele><time>2026-04-22T10:16:57.714Z</time></trkpt><trkpt lat="43.5677617" lon="12.2938617"><ele>683.0</ele><time>2026-04-22T10:16:59.714Z</time></trkpt><trkpt lat="43.567835" lon="12.2937117"><ele>683.0</ele><time>2026-04-22T10:17:01.714Z</time></trkpt><trkpt lat="43.567875" lon="12.2936333"><ele>683.0</ele><time>2026-04-22T10:17:02.714Z</time></trkpt><trkpt lat="43.5679167" lon="12.29356"><ele>683.0</ele><time>2026-04-22T10:17:03.714Z</time></trkpt><trkpt lat="43.567965" lon="12.29349"><ele>683.0</ele><time>2026-04-22T10:17:04.714Z</time></trkpt><trkpt lat="43.5680183" lon="12.2934267"><ele>683.4285714285714</ele><time>2026-04-22T10:17:05.714Z</time></trkpt><trkpt lat="43.5680667" lon="12.293355"><ele>683.8571428571429</ele><time>2026-04-22T10:17:06.714Z</time></trkpt><trkpt lat="43.568115" lon="12.2932833"><ele>684.2857142857142</ele><time>2026-04-22T10:17:07.715Z</time></trkpt><trkpt lat="43.5681617" lon="12.2932183"><ele>684.7142857142858</ele><time>2026-04-22T10:17:08.714Z</time></trkpt><trkpt lat="43.5682117" lon="12.2931583"><ele>685.1428571428571</ele><time>2026-04-22T10:17:09.715Z</time></trkpt><trkpt lat="43.5682667" lon="12.293115"><ele>685.5714285714286</ele><time>2026-04-22T10:17:10.714Z</time></trkpt><trkpt lat="43.5683283" lon="12.2930867"><ele>686.0</ele><time>2026-04-22T10:17:11.714Z</time></trkpt><trkpt lat="43.5683983" lon="12.293075"><ele>686.0</ele><time>2026-04-22T10:17:12.714Z</time></trkpt><trkpt lat="43.56847" lon="12.293075"><ele>686.0</ele><time>2026-04-22T10:17:13.714Z</time></trkpt><trkpt lat="43.5685517" lon="12.2930933"><ele>686.0</ele><time>2026-04-22T10:17:14.715Z</time></trkpt><trkpt lat="43.5686417" lon="12.293125"><ele>686.0</ele><time>2026-04-22T10:17:15.714Z</time></trkpt><trkpt lat="43.5687267" lon="12.2931617"><ele>686.0</ele><time>2026-04-22T10:17:16.715Z</time></trkpt><trkpt lat="43.5688017" lon="12.2931983"><ele>686.0</ele><time>2026-04-22T10:17:17.714Z</time></trkpt><trkpt lat="43.5688783" lon="12.2932383"><ele>686.0</ele><time>2026-04-22T10:17:18.714Z</time></trkpt><trkpt lat="43.5689483" lon="12.2932967"><ele>686.0</ele><time>2026-04-22T10:17:19.714Z</time></trkpt><trkpt lat="43.5690117" lon="12.2933633"><ele>686.0</ele><time>2026-04-22T10:17:20.714Z</time></trkpt><trkpt lat="43.5690667" lon="12.2934383"><ele>686.0</ele><time>2026-04-22T10:17:21.714Z</time></trkpt><trkpt lat="43.56911" lon="12.2935167"><ele>686.0</ele><time>2026-04-22T10:17:22.714Z</time></trkpt><trkpt lat="43.5691433" lon="12.2936117"><ele>686.0</ele><time>2026-04-22T10:17:23.714Z</time></trkpt><trkpt lat="43.5691733" lon="12.2937167"><ele>686.0</ele><time>2026-04-22T10:17:24.714Z</time></trkpt><trkpt lat="43.5692133" lon="12.293835"><ele>686.0</ele><time>2026-04-22T10:17:25.714Z</time></trkpt><trkpt lat="43.5692483" lon="12.2939533"><ele>686.0</ele><time>2026-04-22T10:17:26.714Z</time></trkpt><trkpt lat="43.5692817" lon="12.29408"><ele>686.0</ele><time>2026-04-22T10:17:27.714Z</time></trkpt><trkpt lat="43.569315" lon="12.2942033"><ele>686.0</ele><time>2026-04-22T10:17:28.714Z</time></trkpt><trkpt lat="43.56935" lon="12.2943267"><ele>688.0</ele><time>2026-04-22T10:17:29.714Z</time></trkpt><trkpt lat="43.569385" lon="12.2944567"><ele>690.0</ele><time>2026-04-22T10:17:30.714Z</time></trkpt><trkpt lat="43.56942" lon="12.2945833"><ele>692.0</ele><time>2026-04-22T10:17:31.714Z</time></trkpt><trkpt lat="43.5694667" lon="12.2947017"><ele>694.0</ele><time>2026-04-22T10:17:32.714Z</time></trkpt><trkpt lat="43.5695183" lon="12.294815"><ele>696.0</ele><time>2026-04-22T10:17:33.714Z</time></trkpt><trkpt lat="43.56956" lon="12.2949283"><ele>696.0</ele><time>2026-04-22T10:17:34.714Z</time></trkpt><trkpt lat="43.5696017" lon="12.2950467"><ele>696.0</ele><time>2026-04-22T10:17:35.714Z</time></trkpt><trkpt lat="43.5696267" lon="12.295175"><ele>696.0</ele><time>2026-04-22T10:17:36.714Z</time></trkpt><trkpt lat="43.5696467" lon="12.295305"><ele>696.0</ele><time>2026-04-22T10:17:37.714Z</time></trkpt><trkpt lat="43.5696683" lon="12.2954317"><ele>696.0</ele><time>2026-04-22T10:17:38.714Z</time></trkpt><trkpt lat="43.5697033" lon="12.295555"><ele>698.8</ele><time>2026-04-22T10:17:39.714Z</time></trkpt><trkpt lat="43.56975" lon="12.2956767"><ele>701.5999999999999</ele><time>2026-04-22T10:17:40.714Z</time></trkpt><trkpt lat="43.5698017" lon="12.2957967"><ele>704.4</ele><time>2026-04-22T10:17:41.714Z</time></trkpt><trkpt lat="43.5698583" lon="12.29592"><ele>707.2</ele><time>2026-04-22T10:17:42.714Z</time></trkpt><trkpt lat="43.5699233" lon="12.2960383"><ele>710.0</ele><time>2026-04-22T10:17:43.714Z</time></trkpt><trkpt lat="43.5699833" lon="12.2961483"><ele>710.0</ele><time>2026-04-22T10:17:44.714Z</time></trkpt><trkpt lat="43.5700417" lon="12.2962567"><ele>710.0</ele><time>2026-04-22T10:17:45.714Z</time></trkpt><trkpt lat="43.5701017" lon="12.2963517"><ele>710.0</ele><time>2026-04-22T10:17:46.714Z</time></trkpt><trkpt lat="43.5701583" lon="12.29646"><ele>710.0</ele><time>2026-04-22T10:17:47.714Z</time></trkpt><trkpt lat="43.5702133" lon="12.2965767"><ele>710.0</ele><time>2026-04-22T10:17:48.714Z</time></trkpt><trkpt lat="43.5702583" lon="12.2967017"><ele>714.4</ele><time>2026-04-22T10:17:49.714Z</time></trkpt><trkpt lat="43.5702817" lon="12.2968383"><ele>718.8</ele><time>2026-04-22T10:17:50.714Z</time></trkpt><trkpt lat="43.5702917" lon="12.2969783"><ele>723.2</ele><time>2026-04-22T10:17:51.714Z</time></trkpt><trkpt lat="43.570295" lon="12.2971217"><ele>727.6</ele><time>2026-04-22T10:17:52.714Z</time></trkpt><trkpt lat="43.5702867" lon="12.2972583"><ele>732.0</ele><time>2026-04-22T10:17:53.714Z</time></trkpt><trkpt lat="43.5702933" lon="12.2973933"><ele>730.2</ele><time>2026-04-22T10:17:54.714Z</time></trkpt><trkpt lat="43.5703217" lon="12.2975217"><ele>728.4000000000001</ele><time>2026-04-22T10:17:55.714Z</time></trkpt><trkpt lat="43.5703567" lon="12.2976417"><ele>726.5999999999999</ele><time>2026-04-22T10:17:56.715Z</time></trkpt><trkpt lat="43.5704067" lon="12.29775"><ele>724.8</ele><time>2026-04-22T10:17:57.714Z</time></trkpt><trkpt lat="43.57047" lon="12.2978633"><ele>723.0</ele><time>2026-04-22T10:17:58.714Z</time></trkpt><trkpt lat="43.570545" lon="12.2979717"><ele>723.0</ele><time>2026-04-22T10:17:59.715Z</time></trkpt><trkpt lat="43.5706267" lon="12.29808"><ele>723.0</ele><time>2026-04-22T10:18:00.714Z</time></trkpt><trkpt lat="43.57071" lon="12.29818"><ele>723.0</ele><time>2026-04-22T10:18:01.714Z</time></trkpt><trkpt lat="43.5708033" lon="12.2982583"><ele>723.0</ele><time>2026-04-22T10:18:02.714Z</time></trkpt><trkpt lat="43.5708976" lon="12.2983335"><ele>723.0</ele><time>2026-04-22T10:18:03.714Z</time></trkpt><trkpt lat="43.5709918" lon="12.2984016"><ele>726.5999999999999</ele><time>2026-04-22T10:18:04.714Z</time></trkpt><trkpt lat="43.5710932" lon="12.2984575"><ele>730.1999999999999</ele><time>2026-04-22T10:18:05.714Z</time></trkpt><trkpt lat="43.5711928" lon="12.2984924"><ele>733.8</ele><time>2026-04-22T10:18:06.714Z</time></trkpt><trkpt lat="43.5712908" lon="12.2984982"><ele>737.4</ele><time>2026-04-22T10:18:07.714Z</time></trkpt><trkpt lat="43.5713869" lon="12.2984922"><ele>741.0</ele><time>2026-04-22T10:18:08.714Z</time></trkpt><trkpt lat="43.5714813" lon="12.2984857"><ele>741.0</ele><time>2026-04-22T10:18:09.714Z</time></trkpt><trkpt lat="43.5715773" lon="12.2984875"><ele>741.0</ele><time>2026-04-22T10:18:10.714Z</time></trkpt><trkpt lat="43.5716574" lon="12.298491"><ele>741.0</ele><time>2026-04-22T10:18:11.715Z</time></trkpt><trkpt lat="43.5717316" lon="12.2985015"><ele>741.0</ele><time>2026-04-22T10:18:12.714Z</time></trkpt><trkpt lat="43.571806" lon="12.2985357"><ele>741.0</ele><time>2026-04-22T10:18:13.714Z</time></trkpt><trkpt lat="43.57188" lon="12.2985792"><ele>741.0</ele><time>2026-04-22T10:18:14.714Z</time></trkpt><trkpt lat="43.5719571" lon="12.2986109"><ele>742.1666666666666</ele><time>2026-04-22T10:18:15.714Z</time></trkpt><trkpt lat="43.5720362" lon="12.2986236"><ele>743.3333333333334</ele><time>2026-04-22T10:18:16.714Z</time></trkpt><trkpt lat="43.5721134" lon="12.2986265"><ele>744.5</ele><time>2026-04-22T10:18:17.715Z</time></trkpt><trkpt lat="43.5721784" lon="12.2986233"><ele>745.6666666666667</ele><time>2026-04-22T10:18:18.714Z</time></trkpt><trkpt lat="43.5722517" lon="12.2986405"><ele>746.8333333333334</ele><time>2026-04-22T10:18:20.715Z</time></trkpt><trkpt lat="43.5722361" lon="12.2987647"><ele>748.0</ele><time>2026-04-22T10:18:23.714Z</time></trkpt><trkpt lat="43.5721481" lon="12.2988338"><ele>748.0</ele><time>2026-04-22T10:18:25.714Z</time></trkpt><trkpt lat="43.5720326" lon="12.2988951"><ele>748.0</ele><time>2026-04-22T10:18:27.714Z</time></trkpt><trkpt lat="43.5719696" lon="12.2989278"><ele>748.0</ele><time>2026-04-22T10:18:28.714Z</time></trkpt><trkpt lat="43.5718976" lon="12.2989631"><ele>748.0</ele><time>2026-04-22T10:18:29.714Z</time></trkpt><trkpt lat="43.5718222" lon="12.298986"><ele>748.0</ele><time>2026-04-22T10:18:30.714Z</time></trkpt><trkpt lat="43.5717499" lon="12.2990137"><ele>748.0</ele><time>2026-04-22T10:18:31.714Z</time></trkpt><trkpt lat="43.5716825" lon="12.2990632"><ele>750.2857142857142</ele><time>2026-04-22T10:18:32.714Z</time></trkpt><trkpt lat="43.5716195" lon="12.2991209"><ele>752.5714285714287</ele><time>2026-04-22T10:18:33.714Z</time></trkpt><trkpt lat="43.5715561" lon="12.2991776"><ele>754.8571428571429</ele><time>2026-04-22T10:18:34.714Z</time></trkpt><trkpt lat="43.5714904" lon="12.2992342"><ele>757.1428571428571</ele><time>2026-04-22T10:18:35.714Z</time></trkpt><trkpt lat="43.5714333" lon="12.29929"><ele>759.4285714285713</ele><time>2026-04-22T10:18:36.714Z</time></trkpt><trkpt lat="43.57138" lon="12.29934"><ele>761.7142857142858</ele><time>2026-04-22T10:18:37.714Z</time></trkpt><trkpt lat="43.571325" lon="12.2993983"><ele>764.0</ele><time>2026-04-22T10:18:38.714Z</time></trkpt><trkpt lat="43.5712183" lon="12.2994983"><ele>764.2857142857143</ele><time>2026-04-22T10:18:40.714Z</time></trkpt><trkpt lat="43.57115" lon="12.2995383"><ele>764.5714285714286</ele><time>2026-04-22T10:18:41.714Z</time></trkpt><trkpt lat="43.5710883" lon="12.2995767"><ele>764.8571428571429</ele><time>2026-04-22T10:18:42.714Z</time></trkpt><trkpt lat="43.5710167" lon="12.2995917"><ele>765.1428571428571</ele><time>2026-04-22T10:18:43.714Z</time></trkpt><trkpt lat="43.57095" lon="12.29959"><ele>765.4285714285713</ele><time>2026-04-22T10:18:44.714Z</time></trkpt><trkpt lat="43.57088" lon="12.299575"><ele>765.7142857142857</ele><time>2026-04-22T10:18:45.714Z</time></trkpt><trkpt lat="43.5708133" lon="12.299535"><ele>766.0</ele><time>2026-04-22T10:18:46.715Z</time></trkpt><trkpt lat="43.570745" lon="12.2994817"><ele>766.0</ele><time>2026-04-22T10:18:47.714Z</time></trkpt><trkpt lat="43.57068" lon="12.29944"><ele>766.0</ele><time>2026-04-22T10:18:48.714Z</time></trkpt><trkpt lat="43.5706117" lon="12.2993967"><ele>766.0</ele><time>2026-04-22T10:18:49.714Z</time></trkpt><trkpt lat="43.5705417" lon="12.29936"><ele>766.0</ele><time>2026-04-22T10:18:50.714Z</time></trkpt><trkpt lat="43.5704683" lon="12.2993233"><ele>766.0</ele><time>2026-04-22T10:18:51.714Z</time></trkpt><trkpt lat="43.5703933" lon="12.29929"><ele>766.0</ele><time>2026-04-22T10:18:52.714Z</time></trkpt><trkpt lat="43.5703283" lon="12.2992433"><ele>767.0</ele><time>2026-04-22T10:18:53.714Z</time></trkpt><trkpt lat="43.57026" lon="12.2992017"><ele>768.0</ele><time>2026-04-22T10:18:54.714Z</time></trkpt><trkpt lat="43.5702033" lon="12.2991467"><ele>769.0</ele><time>2026-04-22T10:18:55.714Z</time></trkpt><trkpt lat="43.57015" lon="12.299095"><ele>770.0</ele><time>2026-04-22T10:18:56.715Z</time></trkpt><trkpt lat="43.5700567" lon="12.2989983"><ele>770.9999999999999</ele><time>2026-04-22T10:18:58.715Z</time></trkpt><trkpt lat="43.5699733" lon="12.298925"><ele>772.0</ele><time>2026-04-22T10:19:00.714Z</time></trkpt><trkpt lat="43.5698633" lon="12.2989033"><ele>774.4000000000001</ele><time>2026-04-22T10:19:02.714Z</time></trkpt><trkpt lat="43.56975" lon="12.2989483"><ele>776.8000000000001</ele><time>2026-04-22T10:19:04.715Z</time></trkpt><trkpt lat="43.5696717" lon="12.29908"><ele>779.2</ele><time>2026-04-22T10:19:06.714Z</time></trkpt><trkpt lat="43.569645" lon="12.299165"><ele>781.6</ele><time>2026-04-22T10:19:07.714Z</time></trkpt><trkpt lat="43.5696367" lon="12.2992683"><ele>784.0</ele><time>2026-04-22T10:19:08.714Z</time></trkpt><trkpt lat="43.5696433" lon="12.2993733"><ele>783.9999999999999</ele><time>2026-04-22T10:19:09.714Z</time></trkpt><trkpt lat="43.5696617" lon="12.2994817"><ele>784.0</ele><time>2026-04-22T10:19:10.714Z</time></trkpt><trkpt lat="43.56968" lon="12.2995717"><ele>784.0</ele><time>2026-04-22T10:19:11.714Z</time></trkpt><trkpt lat="43.569665" lon="12.2997317"><ele>784.0</ele><time>2026-04-22T10:19:13.714Z</time></trkpt><trkpt lat="43.5696133" lon="12.29982"><ele>783.9999999999999</ele><time>2026-04-22T10:19:15.715Z</time></trkpt><trkpt lat="43.5695167" lon="12.2998117"><ele>784.0</ele><time>2026-04-22T10:19:17.714Z</time></trkpt><trkpt lat="43.5694067" lon="12.29973"><ele>784.3333333333333</ele><time>2026-04-22T10:19:19.714Z</time></trkpt><trkpt lat="43.5693517" lon="12.2996717"><ele>784.6666666666666</ele><time>2026-04-22T10:19:20.714Z</time></trkpt><trkpt lat="43.5692967" lon="12.2996117"><ele>785.0</ele><time>2026-04-22T10:19:21.715Z</time></trkpt><trkpt lat="43.56924" lon="12.2995733"><ele>785.3333333333333</ele><time>2026-04-22T10:19:22.714Z</time></trkpt><trkpt lat="43.5691467" lon="12.2995633"><ele>785.6666666666666</ele><time>2026-04-22T10:19:24.714Z</time></trkpt><trkpt lat="43.5690617" lon="12.2996083"><ele>786.0</ele><time>2026-04-22T10:19:26.714Z</time></trkpt><trkpt lat="43.568975" lon="12.2996733"><ele>788.1666666666666</ele><time>2026-04-22T10:19:28.714Z</time></trkpt><trkpt lat="43.568875" lon="12.2997633"><ele>790.3333333333333</ele><time>2026-04-22T10:19:30.714Z</time></trkpt><trkpt lat="43.5687667" lon="12.2998583"><ele>792.5</ele><time>2026-04-22T10:19:32.714Z</time></trkpt><trkpt lat="43.568705" lon="12.2998833"><ele>794.6666666666666</ele><time>2026-04-22T10:19:33.715Z</time></trkpt><trkpt lat="43.5686367" lon="12.2998783"><ele>796.8333333333333</ele><time>2026-04-22T10:19:34.715Z</time></trkpt><trkpt lat="43.5685733" lon="12.2998783"><ele>799.0</ele><time>2026-04-22T10:19:35.714Z</time></trkpt><trkpt lat="43.5684667" lon="12.2998433"><ele>799.8000000000001</ele><time>2026-04-22T10:19:37.714Z</time></trkpt><trkpt lat="43.5684033" lon="12.2998333"><ele>800.6</ele><time>2026-04-22T10:19:38.714Z</time></trkpt><trkpt lat="43.5682867" lon="12.2998617"><ele>801.4</ele><time>2026-04-22T10:19:40.715Z</time></trkpt><trkpt lat="43.568195" lon="12.2999583"><ele>802.2</ele><time>2026-04-22T10:19:42.714Z</time></trkpt><trkpt lat="43.568145" lon="12.3000967"><ele>803.0</ele><time>2026-04-22T10:19:44.715Z</time></trkpt><trkpt lat="43.56815" lon="12.300265"><ele>803.0</ele><time>2026-04-22T10:19:46.715Z</time></trkpt><trkpt lat="43.5681983" lon="12.3004183"><ele>803.0</ele><time>2026-04-22T10:19:48.714Z</time></trkpt><trkpt lat="43.5682117" lon="12.3005517"><ele>803.0</ele><time>2026-04-22T10:19:50.714Z</time></trkpt><trkpt lat="43.5681517" lon="12.300635"><ele>803.0</ele><time>2026-04-22T10:19:52.714Z</time></trkpt><trkpt lat="43.568055" lon="12.3006367"><ele>803.0</ele><time>2026-04-22T10:19:54.714Z</time></trkpt><trkpt lat="43.56795" lon="12.300645"><ele>805.8</ele><time>2026-04-22T10:19:56.714Z</time></trkpt><trkpt lat="43.5678583" lon="12.3007167"><ele>808.5999999999999</ele><time>2026-04-22T10:19:58.714Z</time></trkpt><trkpt lat="43.567805" lon="12.3008633"><ele>811.4000000000001</ele><time>2026-04-22T10:20:00.714Z</time></trkpt><trkpt lat="43.5678017" lon="12.3009567"><ele>814.2</ele><time>2026-04-22T10:20:01.714Z</time></trkpt><trkpt lat="43.5677933" lon="12.3010617"><ele>817.0</ele><time>2026-04-22T10:20:02.714Z</time></trkpt><trkpt lat="43.56774" lon="12.301195"><ele>817.0</ele><time>2026-04-22T10:20:04.714Z</time></trkpt><trkpt lat="43.5676267" lon="12.301235"><ele>817.0</ele><time>2026-04-22T10:20:06.714Z</time></trkpt><trkpt lat="43.5675067" lon="12.3012083"><ele>817.0</ele><time>2026-04-22T10:20:08.715Z</time></trkpt><trkpt lat="43.5674433" lon="12.301195"><ele>817.0</ele><time>2026-04-22T10:20:09.714Z</time></trkpt><trkpt lat="43.56738" lon="12.3011883"><ele>817.0</ele><time>2026-04-22T10:20:10.714Z</time></trkpt><trkpt lat="43.5672517" lon="12.3011817"><ele>817.0</ele><time>2026-04-22T10:20:12.714Z</time></trkpt><trkpt lat="43.5671817" lon="12.3011883"><ele>817.0</ele><time>2026-04-22T10:20:13.714Z</time></trkpt><trkpt lat="43.5671133" lon="12.3012"><ele>817.0</ele><time>2026-04-22T10:20:14.714Z</time></trkpt><trkpt lat="43.5670067" lon="12.30126"><ele>817.0</ele><time>2026-04-22T10:20:16.714Z</time></trkpt><trkpt lat="43.5669183" lon="12.3013583"><ele>817.0</ele><time>2026-04-22T10:20:18.714Z</time></trkpt><trkpt lat="43.56687" lon="12.3014883"><ele>819.6</ele><time>2026-04-22T10:20:20.714Z</time></trkpt><trkpt lat="43.5669" lon="12.301625"><ele>822.2</ele><time>2026-04-22T10:20:22.714Z</time></trkpt><trkpt lat="43.56697" lon="12.3017"><ele>824.8</ele><time>2026-04-22T10:20:24.714Z</time></trkpt><trkpt lat="43.5670617" lon="12.3017633"><ele>827.4</ele><time>2026-04-22T10:20:26.714Z</time></trkpt><trkpt lat="43.5671467" lon="12.301865"><ele>830.0</ele><time>2026-04-22T10:20:28.714Z</time></trkpt><trkpt lat="43.567175" lon="12.3019967"><ele>830.0</ele><time>2026-04-22T10:20:30.714Z</time></trkpt><trkpt lat="43.5671383" lon="12.302115"><ele>830.0</ele><time>2026-04-22T10:20:32.714Z</time></trkpt><trkpt lat="43.5670767" lon="12.3022"><ele>830.0</ele><time>2026-04-22T10:20:34.714Z</time></trkpt><trkpt lat="43.5670283" lon="12.3023183"><ele>830.0</ele><time>2026-04-22T10:20:36.714Z</time></trkpt><trkpt lat="43.5670383" lon="12.3024767"><ele>830.0</ele><time>2026-04-22T10:20:38.714Z</time></trkpt><trkpt lat="43.5670883" lon="12.30261"><ele>832.4</ele><time>2026-04-22T10:20:40.714Z</time></trkpt><trkpt lat="43.567085" lon="12.3027533"><ele>834.8</ele><time>2026-04-22T10:20:42.714Z</time></trkpt><trkpt lat="43.56702" lon="12.30285"><ele>837.2</ele><time>2026-04-22T10:20:44.714Z</time></trkpt><trkpt lat="43.566935" lon="12.30285"><ele>839.6</ele><time>2026-04-22T10:20:46.714Z</time></trkpt><trkpt lat="43.566855" lon="12.3028217"><ele>842.0</ele><time>2026-04-22T10:20:48.714Z</time></trkpt><trkpt lat="43.5667783" lon="12.3027767"><ele>843.0000000000001</ele><time>2026-04-22T10:20:50.715Z</time></trkpt><trkpt lat="43.5667033" lon="12.3027483"><ele>844.0</ele><time>2026-04-22T10:20:52.714Z</time></trkpt><trkpt lat="43.5666183" lon="12.3027183"><ele>845.0</ele><time>2026-04-22T10:20:54.714Z</time></trkpt><trkpt lat="43.56653" lon="12.302705"><ele>846.0</ele><time>2026-04-22T10:20:56.714Z</time></trkpt><trkpt lat="43.5664233" lon="12.3027467"><ele>847.0000000000001</ele><time>2026-04-22T10:20:58.714Z</time></trkpt><trkpt lat="43.5663633" lon="12.302775"><ele>848.0</ele><time>2026-04-22T10:20:59.714Z</time></trkpt><trkpt lat="43.566255" lon="12.3028267"><ele>850.4</ele><time>2026-04-22T10:21:01.714Z</time></trkpt><trkpt lat="43.5661467" lon="12.30285"><ele>852.8</ele><time>2026-04-22T10:21:03.714Z</time></trkpt><trkpt lat="43.5660517" lon="12.3028333"><ele>855.2</ele><time>2026-04-22T10:21:05.714Z</time></trkpt><trkpt lat="43.5659517" lon="12.30276"><ele>857.6</ele><time>2026-04-22T10:21:07.714Z</time></trkpt><trkpt lat="43.56588" lon="12.302645"><ele>860.0</ele><time>2026-04-22T10:21:09.715Z</time></trkpt><trkpt lat="43.5658183" lon="12.30252"><ele>860.0</ele><time>2026-04-22T10:21:11.715Z</time></trkpt><trkpt lat="43.565755" lon="12.302515"><ele>860.0</ele><time>2026-04-22T10:21:12.714Z</time></trkpt><trkpt lat="43.5656433" lon="12.302555"><ele>860.0</ele><time>2026-04-22T10:21:14.714Z</time></trkpt><trkpt lat="43.5655933" lon="12.302645"><ele>860.0</ele><time>2026-04-22T10:21:16.714Z</time></trkpt><trkpt lat="43.5655933" lon="12.302785"><ele>860.0</ele><time>2026-04-22T10:21:18.714Z</time></trkpt><trkpt lat="43.5655533" lon="12.3029233"><ele>860.0000000000001</ele><time>2026-04-22T10:21:20.714Z</time></trkpt><trkpt lat="43.5655" lon="12.3029733"><ele>860.0</ele><time>2026-04-22T10:21:21.715Z</time></trkpt><trkpt lat="43.5654433" lon="12.3030117"><ele>860.0</ele><time>2026-04-22T10:21:22.714Z</time></trkpt><trkpt lat="43.565335" lon="12.30303"><ele>860.0</ele><time>2026-04-22T10:21:24.714Z</time></trkpt><trkpt lat="43.5652317" lon="12.3030617"><ele>860.0000000000001</ele><time>2026-04-22T10:21:26.714Z</time></trkpt><trkpt lat="43.5651467" lon="12.303135"><ele>860.0</ele><time>2026-04-22T10:21:28.714Z</time></trkpt><trkpt lat="43.5650833" lon="12.303245"><ele>862.2</ele><time>2026-04-22T10:21:30.714Z</time></trkpt><trkpt lat="43.5650633" lon="12.30341"><ele>864.4</ele><time>2026-04-22T10:21:32.714Z</time></trkpt><trkpt lat="43.5650583" lon="12.3035"><ele>866.5999999999999</ele><time>2026-04-22T10:21:33.714Z</time></trkpt><trkpt lat="43.564995" lon="12.3036283"><ele>868.8</ele><time>2026-04-22T10:21:35.715Z</time></trkpt><trkpt lat="43.5648917" lon="12.3036967"><ele>871.0</ele><time>2026-04-22T10:21:37.714Z</time></trkpt><trkpt lat="43.5648333" lon="12.30373"><ele>871.0</ele><time>2026-04-22T10:21:38.715Z</time></trkpt><trkpt lat="43.5647317" lon="12.3038017"><ele>870.9999999999999</ele><time>2026-04-22T10:21:40.714Z</time></trkpt><trkpt lat="43.5646467" lon="12.303865"><ele>870.9999999999999</ele><time>2026-04-22T10:21:42.714Z</time></trkpt><trkpt lat="43.5645533" lon="12.3039283"><ele>871.0</ele><time>2026-04-22T10:21:44.714Z</time></trkpt><trkpt lat="43.5644267" lon="12.3039417"><ele>871.0</ele><time>2026-04-22T10:21:46.715Z</time></trkpt><trkpt lat="43.56431" lon="12.303965"><ele>873.6666666666666</ele><time>2026-04-22T10:21:48.715Z</time></trkpt><trkpt lat="43.56421" lon="12.3040567"><ele>876.3333333333333</ele><time>2026-04-22T10:21:50.714Z</time></trkpt><trkpt lat="43.5641533" lon="12.3041117"><ele>879.0</ele><time>2026-04-22T10:21:51.714Z</time></trkpt><trkpt lat="43.5640933" lon="12.304175"><ele>881.6666666666667</ele><time>2026-04-22T10:21:52.714Z</time></trkpt><trkpt lat="43.5640317" lon="12.3042333"><ele>884.3333333333334</ele><time>2026-04-22T10:21:53.714Z</time></trkpt><trkpt lat="43.5639717" lon="12.3042767"><ele>887.0</ele><time>2026-04-22T10:21:54.714Z</time></trkpt><trkpt lat="43.5639033" lon="12.304315"><ele>887.0000000000001</ele><time>2026-04-22T10:21:55.714Z</time></trkpt><trkpt lat="43.5638367" lon="12.3043333"><ele>887.0</ele><time>2026-04-22T10:21:56.714Z</time></trkpt><trkpt lat="43.5637683" lon="12.30434"><ele>887.0</ele><time>2026-04-22T10:21:57.715Z</time></trkpt><trkpt lat="43.563705" lon="12.3043417"><ele>887.0</ele><time>2026-04-22T10:21:58.715Z</time></trkpt><trkpt lat="43.5635933" lon="12.304355"><ele>887.0000000000001</ele><time>2026-04-22T10:22:00.714Z</time></trkpt><trkpt lat="43.5635083" lon="12.3044067"><ele>887.0</ele><time>2026-04-22T10:22:02.715Z</time></trkpt><trkpt lat="43.5634017" lon="12.3044867"><ele>887.1666666666667</ele><time>2026-04-22T10:22:04.714Z</time></trkpt><trkpt lat="43.56335" lon="12.3045367"><ele>887.3333333333334</ele><time>2026-04-22T10:22:05.714Z</time></trkpt><trkpt lat="43.5633" lon="12.3045917"><ele>887.5</ele><time>2026-04-22T10:22:06.714Z</time></trkpt><trkpt lat="43.563245" lon="12.30464"><ele>887.6666666666667</ele><time>2026-04-22T10:22:07.714Z</time></trkpt><trkpt lat="43.5631417" lon="12.30474"><ele>887.8333333333334</ele><time>2026-04-22T10:22:09.714Z</time></trkpt><trkpt lat="43.5630883" lon="12.3047967"><ele>888.0</ele><time>2026-04-22T10:22:10.714Z</time></trkpt><trkpt lat="43.5630283" lon="12.304845"><ele>891.4</ele><time>2026-04-22T10:22:11.714Z</time></trkpt><trkpt lat="43.5629633" lon="12.304885"><ele>894.8</ele><time>2026-04-22T10:22:12.715Z</time></trkpt><trkpt lat="43.5628583" lon="12.3049183"><ele>898.2</ele><time>2026-04-22T10:22:14.714Z</time></trkpt><trkpt lat="43.5627533" lon="12.3048667"><ele>901.6</ele><time>2026-04-22T10:22:16.715Z</time></trkpt><trkpt lat="43.5626717" lon="12.3048083"><ele>905.0</ele><time>2026-04-22T10:22:18.714Z</time></trkpt><trkpt lat="43.562585" lon="12.30476"><ele>903.8</ele><time>2026-04-22T10:22:20.714Z</time></trkpt><trkpt lat="43.5624867" lon="12.3046683"><ele>902.6</ele><time>2026-04-22T10:22:22.714Z</time></trkpt><trkpt lat="43.5624333" lon="12.30462"><ele>901.4000000000001</ele><time>2026-04-22T10:22:23.714Z</time></trkpt><trkpt lat="43.562345" lon="12.3045083"><ele>900.2</ele><time>2026-04-22T10:22:25.714Z</time></trkpt><trkpt lat="43.562285" lon="12.30441"><ele>899.0</ele><time>2026-04-22T10:22:27.714Z</time></trkpt><trkpt lat="43.5622283" lon="12.3043117"><ele>899.0</ele><time>2026-04-22T10:22:29.714Z</time></trkpt><trkpt lat="43.5621633" lon="12.3042033"><ele>899.0000000000001</ele><time>2026-04-22T10:22:31.714Z</time></trkpt><trkpt lat="43.56209" lon="12.3041183"><ele>899.0000000000001</ele><time>2026-04-22T10:22:33.714Z</time></trkpt><trkpt lat="43.56198" lon="12.304075"><ele>899.0</ele><time>2026-04-22T10:22:35.714Z</time></trkpt><trkpt lat="43.5618833" lon="12.3040733"><ele>899.0</ele><time>2026-04-22T10:22:37.714Z</time></trkpt><trkpt lat="43.5618117" lon="12.3041267"><ele>899.5000000000001</ele><time>2026-04-22T10:22:39.714Z</time></trkpt><trkpt lat="43.5617867" lon="12.3042217"><ele>900.0</ele><time>2026-04-22T10:22:41.714Z</time></trkpt><trkpt lat="43.561795" lon="12.3043167"><ele>900.5</ele><time>2026-04-22T10:22:43.715Z</time></trkpt><trkpt lat="43.5618283" lon="12.30444"><ele>901.0</ele><time>2026-04-22T10:22:45.714Z</time></trkpt><trkpt lat="43.5618583" lon="12.30458"><ele>901.5000000000001</ele><time>2026-04-22T10:22:47.714Z</time></trkpt><trkpt lat="43.5619017" lon="12.3047067"><ele>902.0</ele><time>2026-04-22T10:22:49.714Z</time></trkpt><trkpt lat="43.5619733" lon="12.3048"><ele>903.2</ele><time>2026-04-22T10:22:51.714Z</time></trkpt><trkpt lat="43.5620583" lon="12.30486"><ele>904.4000000000001</ele><time>2026-04-22T10:22:53.714Z</time></trkpt><trkpt lat="43.562155" lon="12.3048967"><ele>905.5999999999999</ele><time>2026-04-22T10:22:55.714Z</time></trkpt><trkpt lat="43.5622517" lon="12.3049333"><ele>906.8</ele><time>2026-04-22T10:22:57.714Z</time></trkpt><trkpt lat="43.56236" lon="12.3049967"><ele>908.0</ele><time>2026-04-22T10:22:59.714Z</time></trkpt><trkpt lat="43.5624683" lon="12.3051"><ele>908.0000000000001</ele><time>2026-04-22T10:23:01.715Z</time></trkpt><trkpt lat="43.5625183" lon="12.3051567"><ele>908.0</ele><time>2026-04-22T10:23:02.714Z</time></trkpt><trkpt lat="43.5625633" lon="12.3052183"><ele>908.0</ele><time>2026-04-22T10:23:03.714Z</time></trkpt><trkpt lat="43.562635" lon="12.3053417"><ele>908.0</ele><time>2026-04-22T10:23:05.714Z</time></trkpt><trkpt lat="43.5626833" lon="12.3054567"><ele>908.0000000000001</ele><time>2026-04-22T10:23:07.714Z</time></trkpt><trkpt lat="43.5627" lon="12.30556"><ele>908.0</ele><time>2026-04-22T10:23:09.714Z</time></trkpt><trkpt lat="43.562695" lon="12.305675"><ele>907.6666666666667</ele><time>2026-04-22T10:23:11.714Z</time></trkpt><trkpt lat="43.562675" lon="12.3057917"><ele>907.3333333333334</ele><time>2026-04-22T10:23:13.714Z</time></trkpt><trkpt lat="43.5626467" lon="12.3059117"><ele>907.0</ele><time>2026-04-22T10:23:15.715Z</time></trkpt><trkpt lat="43.5626567" lon="12.306075"><ele>906.6666666666667</ele><time>2026-04-22T10:23:17.715Z</time></trkpt><trkpt lat="43.5626733" lon="12.30616"><ele>906.3333333333334</ele><time>2026-04-22T10:23:18.714Z</time></trkpt><trkpt lat="43.5626983" lon="12.3062433"><ele>906.0</ele><time>2026-04-22T10:23:19.714Z</time></trkpt><trkpt lat="43.56273" lon="12.30632"><ele>904.5999999999999</ele><time>2026-04-22T10:23:20.715Z</time></trkpt><trkpt lat="43.5627933" lon="12.3064717"><ele>903.1999999999999</ele><time>2026-04-22T10:23:22.714Z</time></trkpt><trkpt lat="43.562845" lon="12.3066183"><ele>901.8000000000001</ele><time>2026-04-22T10:23:24.714Z</time></trkpt><trkpt lat="43.5628533" lon="12.3067633"><ele>900.4000000000001</ele><time>2026-04-22T10:23:26.713Z</time></trkpt><trkpt lat="43.5628533" lon="12.3068983"><ele>899.0</ele><time>2026-04-22T10:23:28.713Z</time></trkpt><trkpt lat="43.5628417" lon="12.3070417"><ele>899.0</ele><time>2026-04-22T10:23:30.713Z</time></trkpt><trkpt lat="43.562815" lon="12.3071933"><ele>899.0000000000001</ele><time>2026-04-22T10:23:32.713Z</time></trkpt><trkpt lat="43.5628233" lon="12.3073267"><ele>899.0000000000001</ele><time>2026-04-22T10:23:34.713Z</time></trkpt><trkpt lat="43.5628733" lon="12.3074133"><ele>899.0</ele><time>2026-04-22T10:23:36.713Z</time></trkpt><trkpt lat="43.56293" lon="12.30748"><ele>899.0</ele><time>2026-04-22T10:23:38.713Z</time></trkpt><trkpt lat="43.56298" lon="12.3075817"><ele>906.4000000000001</ele><time>2026-04-22T10:23:40.713Z</time></trkpt><trkpt lat="43.56301" lon="12.3077117"><ele>913.8000000000001</ele><time>2026-04-22T10:23:42.713Z</time></trkpt><trkpt lat="43.5630367" lon="12.307835"><ele>921.1999999999999</ele><time>2026-04-22T10:23:44.713Z</time></trkpt><trkpt lat="43.5630617" lon="12.3079433"><ele>928.5999999999999</ele><time>2026-04-22T10:23:46.713Z</time></trkpt><trkpt lat="43.5630833" lon="12.30807"><ele>936.0</ele><time>2026-04-22T10:23:48.713Z</time></trkpt><trkpt lat="43.5630917" lon="12.3082117"><ele>936.0</ele><time>2026-04-22T10:23:50.713Z</time></trkpt><trkpt lat="43.5630933" lon="12.30834"><ele>936.0</ele><time>2026-04-22T10:23:52.713Z</time></trkpt><trkpt lat="43.5630717" lon="12.3084383"><ele>936.0</ele><time>2026-04-22T10:23:54.713Z</time></trkpt><trkpt lat="43.563045" lon="12.308525"><ele>936.0</ele><time>2026-04-22T10:23:56.714Z</time></trkpt><trkpt lat="43.5630017" lon="12.3086267"><ele>936.0</ele><time>2026-04-22T10:23:58.713Z</time></trkpt><trkpt lat="43.5629483" lon="12.3087433"><ele>936.0</ele><time>2026-04-22T10:24:00.713Z</time></trkpt><trkpt lat="43.562885" lon="12.3088683"><ele>928.5999999999999</ele><time>2026-04-22T10:24:02.713Z</time></trkpt><trkpt lat="43.5628167" lon="12.308995"><ele>921.1999999999999</ele><time>2026-04-22T10:24:04.713Z</time></trkpt><trkpt lat="43.562745" lon="12.3091267"><ele>913.8000000000001</ele><time>2026-04-22T10:24:06.713Z</time></trkpt><trkpt lat="43.5626883" lon="12.3092433"><ele>906.4000000000001</ele><time>2026-04-22T10:24:08.713Z</time></trkpt><trkpt lat="43.5626783" lon="12.30939"><ele>899.0</ele><time>2026-04-22T10:24:10.714Z</time></trkpt><trkpt lat="43.5627033" lon="12.30955"><ele>899.0</ele><time>2026-04-22T10:24:12.714Z</time></trkpt><trkpt lat="43.5627333" lon="12.3097083"><ele>899.0000000000001</ele><time>2026-04-22T10:24:14.713Z</time></trkpt><trkpt lat="43.5627383" lon="12.3098617"><ele>899.0000000000001</ele><time>2026-04-22T10:24:16.713Z</time></trkpt><trkpt lat="43.5627017" lon="12.3099983"><ele>899.0</ele><time>2026-04-22T10:24:18.713Z</time></trkpt><trkpt lat="43.5626567" lon="12.3100983"><ele>899.0</ele><time>2026-04-22T10:24:20.713Z</time></trkpt><trkpt lat="43.5625833" lon="12.3101867"><ele>901.2</ele><time>2026-04-22T10:24:22.713Z</time></trkpt><trkpt lat="43.56249" lon="12.31026"><ele>903.4000000000001</ele><time>2026-04-22T10:24:24.713Z</time></trkpt><trkpt lat="43.5623967" lon="12.310315"><ele>905.6</ele><time>2026-04-22T10:24:26.714Z</time></trkpt><trkpt lat="43.5623017" lon="12.3103733"><ele>907.8</ele><time>2026-04-22T10:24:28.713Z</time></trkpt><trkpt lat="43.562205" lon="12.310415"><ele>910.0</ele><time>2026-04-22T10:24:30.713Z</time></trkpt><trkpt lat="43.5621167" lon="12.310455"><ele>909.9999999999999</ele><time>2026-04-22T10:24:32.713Z</time></trkpt><trkpt lat="43.5620333" lon="12.3105017"><ele>910.0</ele><time>2026-04-22T10:24:34.713Z</time></trkpt><trkpt lat="43.5619633" lon="12.3105617"><ele>910.0</ele><time>2026-04-22T10:24:36.713Z</time></trkpt><trkpt lat="43.5619133" lon="12.310645"><ele>910.0</ele><time>2026-04-22T10:24:38.714Z</time></trkpt><trkpt lat="43.56186" lon="12.3107483"><ele>909.9999999999999</ele><time>2026-04-22T10:24:40.713Z</time></trkpt><trkpt lat="43.561805" lon="12.310855"><ele>910.0</ele><time>2026-04-22T10:24:42.713Z</time></trkpt><trkpt lat="43.561755" lon="12.3109567"><ele>910.4</ele><time>2026-04-22T10:24:44.713Z</time></trkpt><trkpt lat="43.561705" lon="12.3110617"><ele>910.8</ele><time>2026-04-22T10:24:46.714Z</time></trkpt><trkpt lat="43.561655" lon="12.3111767"><ele>911.2</ele><time>2026-04-22T10:24:48.713Z</time></trkpt><trkpt lat="43.5615917" lon="12.3113083"><ele>911.6</ele><time>2026-04-22T10:24:50.713Z</time></trkpt><trkpt lat="43.5615317" lon="12.31145"><ele>912.0</ele><time>2026-04-22T10:24:52.714Z</time></trkpt><trkpt lat="43.561475" lon="12.31157"><ele>912.0</ele><time>2026-04-22T10:24:54.713Z</time></trkpt><trkpt lat="43.5614283" lon="12.3116633"><ele>912.0</ele><time>2026-04-22T10:24:56.713Z</time></trkpt><trkpt lat="43.5613983" lon="12.31174"><ele>912.0</ele><time>2026-04-22T10:24:58.713Z</time></trkpt><trkpt lat="43.5613617" lon="12.3118583"><ele>912.0</ele><time>2026-04-22T10:25:01.713Z</time></trkpt><trkpt lat="43.56134" lon="12.3119783"><ele>912.0</ele><time>2026-04-22T10:25:04.713Z</time></trkpt><trkpt lat="43.5613067" lon="12.3120583"><ele>912.0</ele><time>2026-04-22T10:25:06.713Z</time></trkpt><trkpt lat="43.5612667" lon="12.3121533"><ele>910.8</ele><time>2026-04-22T10:25:08.713Z</time></trkpt><trkpt lat="43.5612167" lon="12.3122817"><ele>909.6</ele><time>2026-04-22T10:25:10.713Z</time></trkpt><trkpt lat="43.561175" lon="12.312395"><ele>908.3999999999999</ele><time>2026-04-22T10:25:12.713Z</time></trkpt><trkpt lat="43.5611567" lon="12.312505"><ele>907.1999999999999</ele><time>2026-04-22T10:25:14.713Z</time></trkpt><trkpt lat="43.5611533" lon="12.3126167"><ele>906.0</ele><time>2026-04-22T10:25:16.713Z</time></trkpt><trkpt lat="43.5611483" lon="12.31274"><ele>904.6666666666666</ele><time>2026-04-22T10:25:18.713Z</time></trkpt><trkpt lat="43.5611267" lon="12.3128633"><ele>903.3333333333333</ele><time>2026-04-22T10:25:20.714Z</time></trkpt><trkpt lat="43.561085" lon="12.3129583"><ele>902.0</ele><time>2026-04-22T10:25:22.713Z</time></trkpt><trkpt lat="43.5610233" lon="12.3130217"><ele>900.6666666666666</ele><time>2026-04-22T10:25:24.713Z</time></trkpt><trkpt lat="43.5609533" lon="12.3130833"><ele>899.3333333333333</ele><time>2026-04-22T10:25:26.713Z</time></trkpt><trkpt lat="43.560875" lon="12.313165"><ele>898.0</ele><time>2026-04-22T10:25:28.713Z</time></trkpt><trkpt lat="43.5608183" lon="12.3132183"><ele>897.9999999999999</ele><time>2026-04-22T10:25:29.713Z</time></trkpt><trkpt lat="43.5607317" lon="12.31329"><ele>898.0</ele><time>2026-04-22T10:25:31.713Z</time></trkpt><trkpt lat="43.5606817" lon="12.313345"><ele>898.0</ele><time>2026-04-22T10:25:32.713Z</time></trkpt><trkpt lat="43.560615" lon="12.3134217"><ele>898.0</ele><time>2026-04-22T10:25:34.714Z</time></trkpt><trkpt lat="43.5605433" lon="12.3135117"><ele>897.9999999999999</ele><time>2026-04-22T10:25:36.713Z</time></trkpt><trkpt lat="43.5604867" lon="12.3135817"><ele>898.0</ele><time>2026-04-22T10:25:38.713Z</time></trkpt><trkpt lat="43.560425" lon="12.3136583"><ele>897.9999999999999</ele><time>2026-04-22T10:25:40.713Z</time></trkpt><trkpt lat="43.5603683" lon="12.31372"><ele>898.0</ele><time>2026-04-22T10:25:42.713Z</time></trkpt><trkpt lat="43.5603083" lon="12.313825"><ele>898.0</ele><time>2026-04-22T10:25:44.713Z</time></trkpt><trkpt lat="43.5602633" lon="12.3139283"><ele>898.0</ele><time>2026-04-22T10:25:46.713Z</time></trkpt><trkpt lat="43.5602183" lon="12.3140233"><ele>897.9999999999999</ele><time>2026-04-22T10:25:48.713Z</time></trkpt><trkpt lat="43.56019" lon="12.3141017"><ele>898.0</ele><time>2026-04-22T10:25:50.713Z</time></trkpt><trkpt lat="43.5601617" lon="12.314185"><ele>897.9999999999999</ele><time>2026-04-22T10:25:52.713Z</time></trkpt><trkpt lat="43.5601283" lon="12.3142683"><ele>898.0</ele><time>2026-04-22T10:25:54.713Z</time></trkpt><trkpt lat="43.56011" lon="12.3143533"><ele>898.0</ele><time>2026-04-22T10:25:56.713Z</time></trkpt><trkpt lat="43.56008" lon="12.3144483"><ele>898.0</ele><time>2026-04-22T10:25:58.713Z</time></trkpt><trkpt lat="43.56003" lon="12.31456"><ele>897.9999999999999</ele><time>2026-04-22T10:26:00.713Z</time></trkpt><trkpt lat="43.559965" lon="12.3146783"><ele>898.0</ele><time>2026-04-22T10:26:02.714Z</time></trkpt><trkpt lat="43.5598933" lon="12.3147767"><ele>898.0</ele><time>2026-04-22T10:26:04.713Z</time></trkpt><trkpt lat="43.55982" lon="12.3148517"><ele>898.0</ele><time>2026-04-22T10:26:06.713Z</time></trkpt><trkpt lat="43.5597583" lon="12.3149317"><ele>898.0</ele><time>2026-04-22T10:26:08.713Z</time></trkpt><trkpt lat="43.5597067" lon="12.3150367"><ele>898.0</ele><time>2026-04-22T10:26:10.713Z</time></trkpt><trkpt lat="43.5596817" lon="12.3151583"><ele>898.0</ele><time>2026-04-22T10:26:12.713Z</time></trkpt><trkpt lat="43.5596667" lon="12.31531"><ele>898.0</ele><time>2026-04-22T10:26:14.713Z</time></trkpt><trkpt lat="43.5596783" lon="12.315485"><ele>898.0</ele><time>2026-04-22T10:26:16.713Z</time></trkpt><trkpt lat="43.55968" lon="12.31565"><ele>898.0</ele><time>2026-04-22T10:26:18.713Z</time></trkpt><trkpt lat="43.5596683" lon="12.3157783"><ele>898.0</ele><time>2026-04-22T10:26:20.713Z</time></trkpt><trkpt lat="43.55964" lon="12.315885"><ele>898.0</ele><time>2026-04-22T10:26:22.713Z</time></trkpt><trkpt lat="43.55959" lon="12.3159767"><ele>896.6666666666666</ele><time>2026-04-22T10:26:24.714Z</time></trkpt><trkpt lat="43.5595133" lon="12.3160183"><ele>895.3333333333333</ele><time>2026-04-22T10:26:26.713Z</time></trkpt><trkpt lat="43.5594167" lon="12.3160083"><ele>894.0</ele><time>2026-04-22T10:26:28.713Z</time></trkpt><trkpt lat="43.5593033" lon="12.3159817"><ele>892.6666666666667</ele><time>2026-04-22T10:26:30.713Z</time></trkpt><trkpt lat="43.5592367" lon="12.3159617"><ele>891.3333333333334</ele><time>2026-04-22T10:26:31.713Z</time></trkpt><trkpt lat="43.5591683" lon="12.3159433"><ele>890.0</ele><time>2026-04-22T10:26:32.713Z</time></trkpt><trkpt lat="43.5590667" lon="12.3159167"><ele>890.0</ele><time>2026-04-22T10:26:34.713Z</time></trkpt><trkpt lat="43.5589817" lon="12.3158967"><ele>890.0</ele><time>2026-04-22T10:26:36.713Z</time></trkpt><trkpt lat="43.5588833" lon="12.3158433"><ele>890.0</ele><time>2026-04-22T10:26:38.713Z</time></trkpt><trkpt lat="43.558785" lon="12.3157917"><ele>890.0</ele><time>2026-04-22T10:26:40.713Z</time></trkpt><trkpt lat="43.55868" lon="12.3157883"><ele>890.0</ele><time>2026-04-22T10:26:42.713Z</time></trkpt><trkpt lat="43.5585817" lon="12.3158283"><ele>890.0</ele><time>2026-04-22T10:26:44.713Z</time></trkpt><trkpt lat="43.5584933" lon="12.3159"><ele>890.0</ele><time>2026-04-22T10:26:46.713Z</time></trkpt><trkpt lat="43.55844" lon="12.3159733"><ele>890.0</ele><time>2026-04-22T10:26:48.713Z</time></trkpt><trkpt lat="43.558395" lon="12.316065"><ele>890.0</ele><time>2026-04-22T10:26:50.713Z</time></trkpt><trkpt lat="43.55833" lon="12.3161783"><ele>890.0</ele><time>2026-04-22T10:26:52.713Z</time></trkpt><trkpt lat="43.558265" lon="12.3163017"><ele>893.0</ele><time>2026-04-22T10:26:54.713Z</time></trkpt><trkpt lat="43.5581867" lon="12.3164383"><ele>896.0</ele><time>2026-04-22T10:26:56.713Z</time></trkpt><trkpt lat="43.55814" lon="12.3165"><ele>899.0</ele><time>2026-04-22T10:26:57.713Z</time></trkpt><trkpt lat="43.55804" lon="12.3165967"><ele>902.0</ele><time>2026-04-22T10:26:59.713Z</time></trkpt><trkpt lat="43.5579467" lon="12.31668"><ele>905.0</ele><time>2026-04-22T10:27:01.713Z</time></trkpt><trkpt lat="43.5578883" lon="12.31672"><ele>900.0</ele><time>2026-04-22T10:27:02.713Z</time></trkpt><trkpt lat="43.5577883" lon="12.3167983"><ele>895.0</ele><time>2026-04-22T10:27:04.713Z</time></trkpt><trkpt lat="43.5577" lon="12.316885"><ele>890.0</ele><time>2026-04-22T10:27:06.713Z</time></trkpt><trkpt lat="43.5576367" lon="12.316965"><ele>885.0</ele><time>2026-04-22T10:27:08.713Z</time></trkpt><trkpt lat="43.557575" lon="12.317055"><ele>880.0</ele><time>2026-04-22T10:27:10.713Z</time></trkpt><trkpt lat="43.55751" lon="12.31716"><ele>883.4</ele><time>2026-04-22T10:27:12.713Z</time></trkpt><trkpt lat="43.5574417" lon="12.317275"><ele>886.8</ele><time>2026-04-22T10:27:14.713Z</time></trkpt><trkpt lat="43.557395" lon="12.3173867"><ele>890.2</ele><time>2026-04-22T10:27:16.713Z</time></trkpt><trkpt lat="43.5573983" lon="12.3175183"><ele>893.6</ele><time>2026-04-22T10:27:18.713Z</time></trkpt><trkpt lat="43.55744" lon="12.317645"><ele>897.0</ele><time>2026-04-22T10:27:20.714Z</time></trkpt><trkpt lat="43.5574967" lon="12.31776"><ele>897.0</ele><time>2026-04-22T10:27:22.714Z</time></trkpt><trkpt lat="43.5575633" lon="12.3178467"><ele>897.0</ele><time>2026-04-22T10:27:24.713Z</time></trkpt><trkpt lat="43.5576483" lon="12.3178983"><ele>897.0</ele><time>2026-04-22T10:27:26.714Z</time></trkpt><trkpt lat="43.5577433" lon="12.3179383"><ele>897.0</ele><time>2026-04-22T10:27:28.713Z</time></trkpt><trkpt lat="43.557835" lon="12.318005"><ele>897.0</ele><time>2026-04-22T10:27:30.713Z</time></trkpt><trkpt lat="43.5579183" lon="12.3181067"><ele>896.6666666666666</ele><time>2026-04-22T10:27:32.713Z</time></trkpt><trkpt lat="43.5579817" lon="12.3182283"><ele>896.3333333333333</ele><time>2026-04-22T10:27:34.713Z</time></trkpt><trkpt lat="43.558045" lon="12.3183383"><ele>896.0</ele><time>2026-04-22T10:27:36.714Z</time></trkpt><trkpt lat="43.5580933" lon="12.3183983"><ele>895.6666666666666</ele><time>2026-04-22T10:27:38.713Z</time></trkpt><trkpt lat="43.558125" lon="12.3184883"><ele>895.3333333333333</ele><time>2026-04-22T10:27:42.713Z</time></trkpt><trkpt lat="43.558045" lon="12.318535"><ele>895.0</ele><time>2026-04-22T10:27:46.713Z</time></trkpt><trkpt lat="43.5579733" lon="12.3185383"><ele>894.9999999999999</ele><time>2026-04-22T10:27:48.713Z</time></trkpt><trkpt lat="43.5578833" lon="12.3185483"><ele>895.0</ele><time>2026-04-22T10:27:50.713Z</time></trkpt><trkpt lat="43.5578017" lon="12.3185533"><ele>895.0</ele><time>2026-04-22T10:27:52.713Z</time></trkpt><trkpt lat="43.55772" lon="12.3185417"><ele>895.0</ele><time>2026-04-22T10:27:54.713Z</time></trkpt><trkpt lat="43.55764" lon="12.3185083"><ele>894.9999999999999</ele><time>2026-04-22T10:27:56.714Z</time></trkpt><trkpt lat="43.55755" lon="12.3184483"><ele>895.0</ele><time>2026-04-22T10:27:58.713Z</time></trkpt><trkpt lat="43.557465" lon="12.3183767"><ele>892.4</ele><time>2026-04-22T10:28:00.713Z</time></trkpt><trkpt lat="43.5573783" lon="12.31833"><ele>889.8</ele><time>2026-04-22T10:28:02.713Z</time></trkpt><trkpt lat="43.5572833" lon="12.3183133"><ele>887.2</ele><time>2026-04-22T10:28:04.713Z</time></trkpt><trkpt lat="43.5571733" lon="12.3183133"><ele>884.6</ele><time>2026-04-22T10:28:06.713Z</time></trkpt><trkpt lat="43.55707" lon="12.3183267"><ele>882.0</ele><time>2026-04-22T10:28:08.713Z</time></trkpt><trkpt lat="43.556985" lon="12.3183383"><ele>880.8571428571429</ele><time>2026-04-22T10:28:10.713Z</time></trkpt><trkpt lat="43.556915" lon="12.3183567"><ele>879.7142857142858</ele><time>2026-04-22T10:28:12.714Z</time></trkpt><trkpt lat="43.5568483" lon="12.3183717"><ele>878.5714285714286</ele><time>2026-04-22T10:28:14.713Z</time></trkpt><trkpt lat="43.556785" lon="12.318365"><ele>877.4285714285714</ele><time>2026-04-22T10:28:16.713Z</time></trkpt><trkpt lat="43.5567133" lon="12.3183517"><ele>876.2857142857143</ele><time>2026-04-22T10:28:34.714Z</time></trkpt><trkpt lat="43.5566467" lon="12.31833"><ele>875.1428571428571</ele><time>2026-04-22T10:28:36.713Z</time></trkpt><trkpt lat="43.5565633" lon="12.318315"><ele>874.0</ele><time>2026-04-22T10:28:38.713Z</time></trkpt><trkpt lat="43.5564983" lon="12.318335"><ele>873.9999999999999</ele><time>2026-04-22T10:28:39.713Z</time></trkpt><trkpt lat="43.5564367" lon="12.3183717"><ele>874.0</ele><time>2026-04-22T10:28:40.713Z</time></trkpt><trkpt lat="43.5563817" lon="12.318415"><ele>874.0</ele><time>2026-04-22T10:28:41.713Z</time></trkpt><trkpt lat="43.5563017" lon="12.318495"><ele>874.0</ele><time>2026-04-22T10:28:43.713Z</time></trkpt><trkpt lat="43.5562317" lon="12.3185867"><ele>873.9999999999999</ele><time>2026-04-22T10:28:45.713Z</time></trkpt><trkpt lat="43.556155" lon="12.31869"><ele>874.0</ele><time>2026-04-22T10:28:47.713Z</time></trkpt><trkpt lat="43.5561067" lon="12.3187483"><ele>872.2</ele><time>2026-04-22T10:28:48.713Z</time></trkpt><trkpt lat="43.5560183" lon="12.31884"><ele>870.4000000000001</ele><time>2026-04-22T10:28:50.713Z</time></trkpt><trkpt lat="43.5559167" lon="12.31888"><ele>868.6</ele><time>2026-04-22T10:28:52.713Z</time></trkpt><trkpt lat="43.5558183" lon="12.3189283"><ele>866.8</ele><time>2026-04-22T10:28:54.713Z</time></trkpt><trkpt lat="43.5557217" lon="12.3189633"><ele>865.0</ele><time>2026-04-22T10:28:56.713Z</time></trkpt><trkpt lat="43.55561" lon="12.318955"><ele>865.0</ele><time>2026-04-22T10:28:58.713Z</time></trkpt><trkpt lat="43.555485" lon="12.318935"><ele>865.0</ele><time>2026-04-22T10:29:00.713Z</time></trkpt><trkpt lat="43.55537" lon="12.3189333"><ele>865.0</ele><time>2026-04-22T10:29:02.713Z</time></trkpt><trkpt lat="43.5552683" lon="12.3189517"><ele>865.0</ele><time>2026-04-22T10:29:04.713Z</time></trkpt><trkpt lat="43.5551917" lon="12.318995"><ele>865.0</ele><time>2026-04-22T10:29:06.713Z</time></trkpt><trkpt lat="43.5551117" lon="12.3190667"><ele>864.9999999999999</ele><time>2026-04-22T10:29:08.713Z</time></trkpt><trkpt lat="43.555025" lon="12.3191433"><ele>865.0</ele><time>2026-04-22T10:29:10.713Z</time></trkpt><trkpt lat="43.5549283" lon="12.31921"><ele>865.0</ele><time>2026-04-22T10:29:12.713Z</time></trkpt><trkpt lat="43.5548717" lon="12.3192683"><ele>865.0</ele><time>2026-04-22T10:29:13.713Z</time></trkpt><trkpt lat="43.55481" lon="12.3193367"><ele>864.9999999999999</ele><time>2026-04-22T10:29:14.714Z</time></trkpt><trkpt lat="43.55476" lon="12.3194"><ele>865.0</ele><time>2026-04-22T10:29:15.713Z</time></trkpt><trkpt lat="43.554685" lon="12.3195317"><ele>865.0</ele><time>2026-04-22T10:29:17.713Z</time></trkpt><trkpt lat="43.5546183" lon="12.3196583"><ele>865.0</ele><time>2026-04-22T10:29:19.713Z</time></trkpt><trkpt lat="43.5545517" lon="12.3197917"><ele>865.0</ele><time>2026-04-22T10:29:21.713Z</time></trkpt><trkpt lat="43.55448" lon="12.3199067"><ele>865.0</ele><time>2026-04-22T10:29:23.713Z</time></trkpt><trkpt lat="43.5544" lon="12.3199767"><ele>865.0</ele><time>2026-04-22T10:29:25.714Z</time></trkpt><trkpt lat="43.554305" lon="12.320045"><ele>868.0</ele><time>2026-04-22T10:29:27.713Z</time></trkpt><trkpt lat="43.5542083" lon="12.3200917"><ele>871.0</ele><time>2026-04-22T10:29:29.713Z</time></trkpt><trkpt lat="43.5541117" lon="12.3201283"><ele>874.0</ele><time>2026-04-22T10:29:31.713Z</time></trkpt><trkpt lat="43.5539917" lon="12.3201533"><ele>877.0</ele><time>2026-04-22T10:29:33.713Z</time></trkpt><trkpt lat="43.5539233" lon="12.320165"><ele>880.0</ele><time>2026-04-22T10:29:34.713Z</time></trkpt><trkpt lat="43.5538517" lon="12.3201783"><ele>880.0</ele><time>2026-04-22T10:29:35.713Z</time></trkpt><trkpt lat="43.553735" lon="12.3202133"><ele>880.0</ele><time>2026-04-22T10:29:37.713Z</time></trkpt><trkpt lat="43.5536317" lon="12.3202367"><ele>880.0</ele><time>2026-04-22T10:29:39.713Z</time></trkpt><trkpt lat="43.553545" lon="12.320295"><ele>880.0</ele><time>2026-04-22T10:29:41.713Z</time></trkpt><trkpt lat="43.553485" lon="12.3204167"><ele>880.0</ele><time>2026-04-22T10:29:43.713Z</time></trkpt><trkpt lat="43.55346" lon="12.3205117"><ele>880.3333333333333</ele><time>2026-04-22T10:29:44.713Z</time></trkpt><trkpt lat="43.5534333" lon="12.3206033"><ele>880.6666666666666</ele><time>2026-04-22T10:29:45.713Z</time></trkpt><trkpt lat="43.5534" lon="12.3207167"><ele>881.0</ele><time>2026-04-22T10:29:46.713Z</time></trkpt><trkpt lat="43.5533683" lon="12.3208267"><ele>881.3333333333333</ele><time>2026-04-22T10:29:47.713Z</time></trkpt><trkpt lat="43.5533483" lon="12.3209183"><ele>881.6666666666666</ele><time>2026-04-22T10:29:48.713Z</time></trkpt><trkpt lat="43.55333" lon="12.3210483"><ele>882.0</ele><time>2026-04-22T10:29:50.713Z</time></trkpt><trkpt lat="43.5533167" lon="12.3211717"><ele>882.0</ele><time>2026-04-22T10:29:52.714Z</time></trkpt><trkpt lat="43.5533067" lon="12.3213067"><ele>882.0</ele><time>2026-04-22T10:29:54.713Z</time></trkpt><trkpt lat="43.55329" lon="12.321445"><ele>882.0</ele><time>2026-04-22T10:29:56.713Z</time></trkpt><trkpt lat="43.5532433" lon="12.321545"><ele>882.0</ele><time>2026-04-22T10:29:58.713Z</time></trkpt><trkpt lat="43.5531867" lon="12.3216433"><ele>882.0</ele><time>2026-04-22T10:31:28.713Z</time></trkpt><trkpt lat="43.5531483" lon="12.32175"><ele>881.5</ele><time>2026-04-22T10:31:31.713Z</time></trkpt><trkpt lat="43.55313" lon="12.3218383"><ele>881.0</ele><time>2026-04-22T10:31:33.713Z</time></trkpt><trkpt lat="43.55312" lon="12.3219317"><ele>880.5</ele><time>2026-04-22T10:31:35.713Z</time></trkpt><trkpt lat="43.5531283" lon="12.3220517"><ele>880.0</ele><time>2026-04-22T10:31:38.714Z</time></trkpt><trkpt lat="43.55313" lon="12.3221617"><ele>879.5</ele><time>2026-04-22T10:31:40.713Z</time></trkpt><trkpt lat="43.5531083" lon="12.3222683"><ele>879.0</ele><time>2026-04-22T10:31:42.714Z</time></trkpt><trkpt lat="43.5530767" lon="12.3223683"><ele>876.4000000000001</ele><time>2026-04-22T10:31:44.713Z</time></trkpt><trkpt lat="43.553015" lon="12.3224733"><ele>873.8000000000001</ele><time>2026-04-22T10:31:46.713Z</time></trkpt><trkpt lat="43.5529417" lon="12.3225833"><ele>871.1999999999999</ele><time>2026-04-22T10:31:48.713Z</time></trkpt><trkpt lat="43.5528717" lon="12.3226817"><ele>868.5999999999999</ele><time>2026-04-22T10:31:50.713Z</time></trkpt><trkpt lat="43.552815" lon="12.3227783"><ele>866.0</ele><time>2026-04-22T10:31:52.714Z</time></trkpt><trkpt lat="43.5527667" lon="12.3228867"><ele>865.1999999999999</ele><time>2026-04-22T10:31:54.713Z</time></trkpt><trkpt lat="43.5527117" lon="12.3230083"><ele>864.3999999999999</ele><time>2026-04-22T10:31:56.714Z</time></trkpt><trkpt lat="43.552655" lon="12.3231133"><ele>863.6</ele><time>2026-04-22T10:31:58.714Z</time></trkpt><trkpt lat="43.5525817" lon="12.32321"><ele>862.8</ele><time>2026-04-22T10:32:00.713Z</time></trkpt><trkpt lat="43.5525133" lon="12.32331"><ele>862.0</ele><time>2026-04-22T10:32:02.713Z</time></trkpt><trkpt lat="43.55244" lon="12.3233983"><ele>862.0</ele><time>2026-04-22T10:32:04.713Z</time></trkpt><trkpt lat="43.5523483" lon="12.32347"><ele>862.0</ele><time>2026-04-22T10:32:06.713Z</time></trkpt><trkpt lat="43.5522533" lon="12.32353"><ele>862.0</ele><time>2026-04-22T10:32:08.713Z</time></trkpt><trkpt lat="43.552175" lon="12.3236033"><ele>862.0</ele><time>2026-04-22T10:32:10.713Z</time></trkpt><trkpt lat="43.552105" lon="12.3237"><ele>862.0</ele><time>2026-04-22T10:32:12.713Z</time></trkpt><trkpt lat="43.5520783" lon="12.3238"><ele>862.4999999999999</ele><time>2026-04-22T10:32:14.713Z</time></trkpt><trkpt lat="43.552095" lon="12.32391"><ele>863.0</ele><time>2026-04-22T10:32:16.713Z</time></trkpt><trkpt lat="43.5521067" lon="12.3240083"><ele>863.5</ele><time>2026-04-22T10:32:18.713Z</time></trkpt><trkpt lat="43.55212" lon="12.324125"><ele>864.0</ele><time>2026-04-22T10:32:20.713Z</time></trkpt><trkpt lat="43.5521167" lon="12.32425"><ele>864.4999999999999</ele><time>2026-04-22T10:32:22.713Z</time></trkpt><trkpt lat="43.5520833" lon="12.32436"><ele>865.0</ele><time>2026-04-22T10:32:24.713Z</time></trkpt><trkpt lat="43.552025" lon="12.3244483"><ele>863.0</ele><time>2026-04-22T10:32:26.714Z</time></trkpt><trkpt lat="43.551945" lon="12.324505"><ele>861.0</ele><time>2026-04-22T10:32:28.714Z</time></trkpt><trkpt lat="43.5518367" lon="12.3245317"><ele>859.0</ele><time>2026-04-22T10:32:30.713Z</time></trkpt><trkpt lat="43.55172" lon="12.32456"><ele>857.0</ele><time>2026-04-22T10:32:32.714Z</time></trkpt><trkpt lat="43.5516067" lon="12.3245717"><ele>855.0</ele><time>2026-04-22T10:32:34.713Z</time></trkpt><trkpt lat="43.5515417" lon="12.32458"><ele>855.0</ele><time>2026-04-22T10:32:35.713Z</time></trkpt><trkpt lat="43.551435" lon="12.3245917"><ele>855.0</ele><time>2026-04-22T10:32:37.713Z</time></trkpt><trkpt lat="43.5513333" lon="12.32461"><ele>855.0</ele><time>2026-04-22T10:32:39.714Z</time></trkpt><trkpt lat="43.5512267" lon="12.3246283"><ele>855.0</ele><time>2026-04-22T10:32:41.713Z</time></trkpt><trkpt lat="43.5511183" lon="12.3246617"><ele>855.0</ele><time>2026-04-22T10:32:43.713Z</time></trkpt><trkpt lat="43.5510617" lon="12.3247533"><ele>853.2</ele><time>2026-04-22T10:32:45.713Z</time></trkpt><trkpt lat="43.5510817" lon="12.32489"><ele>851.4</ele><time>2026-04-22T10:32:47.713Z</time></trkpt><trkpt lat="43.5511333" lon="12.3250233"><ele>849.5999999999999</ele><time>2026-04-22T10:32:49.713Z</time></trkpt><trkpt lat="43.5511717" lon="12.3251517"><ele>847.8</ele><time>2026-04-22T10:32:51.713Z</time></trkpt><trkpt lat="43.5512" lon="12.3252867"><ele>846.0</ele><time>2026-04-22T10:32:53.713Z</time></trkpt><trkpt lat="43.5512033" lon="12.3254283"><ele>846.0</ele><time>2026-04-22T10:32:55.713Z</time></trkpt><trkpt lat="43.551195" lon="12.325555"><ele>846.0</ele><time>2026-04-22T10:32:57.713Z</time></trkpt><trkpt lat="43.5511783" lon="12.325695"><ele>846.0</ele><time>2026-04-22T10:32:59.713Z</time></trkpt><trkpt lat="43.5511517" lon="12.325835"><ele>846.0</ele><time>2026-04-22T10:33:01.713Z</time></trkpt><trkpt lat="43.5511017" lon="12.32596"><ele>846.0</ele><time>2026-04-22T10:33:03.713Z</time></trkpt><trkpt lat="43.5510417" lon="12.32608"><ele>846.0</ele><time>2026-04-22T10:33:05.714Z</time></trkpt><trkpt lat="43.55101" lon="12.3262017"><ele>846.0</ele><time>2026-04-22T10:33:07.714Z</time></trkpt><trkpt lat="43.5510217" lon="12.3263283"><ele>846.0</ele><time>2026-04-22T10:33:09.713Z</time></trkpt><trkpt lat="43.55108" lon="12.3264283"><ele>846.0</ele><time>2026-04-22T10:33:11.713Z</time></trkpt><trkpt lat="43.5511733" lon="12.3265"><ele>846.0</ele><time>2026-04-22T10:33:13.713Z</time></trkpt><trkpt lat="43.5512783" lon="12.3265567"><ele>848.5</ele><time>2026-04-22T10:33:15.713Z</time></trkpt><trkpt lat="43.55138" lon="12.326615"><ele>851.0</ele><time>2026-04-22T10:33:17.713Z</time></trkpt><trkpt lat="43.5514383" lon="12.3267483"><ele>853.5</ele><time>2026-04-22T10:33:19.713Z</time></trkpt><trkpt lat="43.5515067" lon="12.3268933"><ele>856.0</ele><time>2026-04-22T10:33:21.714Z</time></trkpt><trkpt lat="43.5515817" lon="12.3270183"><ele>856.0</ele><time>2026-04-22T10:33:23.713Z</time></trkpt><trkpt lat="43.5516467" lon="12.3271367"><ele>856.0</ele><time>2026-04-22T10:33:25.713Z</time></trkpt><trkpt lat="43.55173" lon="12.3272483"><ele>856.0</ele><time>2026-04-22T10:33:27.714Z</time></trkpt><trkpt lat="43.5518367" lon="12.32731"><ele>856.0</ele><time>2026-04-22T10:33:29.713Z</time></trkpt><trkpt lat="43.5519533" lon="12.3273333"><ele>852.4</ele><time>2026-04-22T10:33:31.713Z</time></trkpt><trkpt lat="43.5520667" lon="12.3273367"><ele>848.8</ele><time>2026-04-22T10:33:33.713Z</time></trkpt><trkpt lat="43.55217" lon="12.3273917"><ele>845.1999999999999</ele><time>2026-04-22T10:33:35.713Z</time></trkpt><trkpt lat="43.5522483" lon="12.3275017"><ele>841.5999999999999</ele><time>2026-04-22T10:33:37.714Z</time></trkpt><trkpt lat="43.5523233" lon="12.3276183"><ele>838.0</ele><time>2026-04-22T10:33:39.713Z</time></trkpt><trkpt lat="43.5524033" lon="12.3277483"><ele>837.9999999999999</ele><time>2026-04-22T10:33:41.713Z</time></trkpt><trkpt lat="43.55248" lon="12.327885"><ele>838.0</ele><time>2026-04-22T10:33:43.713Z</time></trkpt><trkpt lat="43.5525133" lon="12.32796"><ele>838.0</ele><time>2026-04-22T10:33:44.713Z</time></trkpt><trkpt lat="43.5525483" lon="12.3280383"><ele>838.0</ele><time>2026-04-22T10:33:45.713Z</time></trkpt><trkpt lat="43.552585" lon="12.3281183"><ele>837.9999999999999</ele><time>2026-04-22T10:33:46.713Z</time></trkpt><trkpt lat="43.55262" lon="12.3281967"><ele>838.0</ele><time>2026-04-22T10:33:47.713Z</time></trkpt><trkpt lat="43.5526567" lon="12.32828"><ele>837.4999999999999</ele><time>2026-04-22T10:33:48.713Z</time></trkpt><trkpt lat="43.5526933" lon="12.32836"><ele>837.0</ele><time>2026-04-22T10:33:49.713Z</time></trkpt><trkpt lat="43.5527633" lon="12.3285083"><ele>836.5</ele><time>2026-04-22T10:33:51.714Z</time></trkpt><trkpt lat="43.552785" lon="12.328595"><ele>836.0</ele><time>2026-04-22T10:33:52.713Z</time></trkpt><trkpt lat="43.5528033" lon="12.3286833"><ele>835.4999999999999</ele><time>2026-04-22T10:33:53.713Z</time></trkpt><trkpt lat="43.55281" lon="12.3287717"><ele>835.0</ele><time>2026-04-22T10:33:54.713Z</time></trkpt><trkpt lat="43.5528017" lon="12.328865"><ele>833.8333333333333</ele><time>2026-04-22T10:33:55.713Z</time></trkpt><trkpt lat="43.5527933" lon="12.3289583"><ele>832.6666666666666</ele><time>2026-04-22T10:33:56.713Z</time></trkpt><trkpt lat="43.5527833" lon="12.3290517"><ele>831.5</ele><time>2026-04-22T10:33:57.713Z</time></trkpt><trkpt lat="43.552775" lon="12.3291467"><ele>830.3333333333333</ele><time>2026-04-22T10:33:58.713Z</time></trkpt><trkpt lat="43.5527683" lon="12.32924"><ele>829.1666666666666</ele><time>2026-04-22T10:33:59.713Z</time></trkpt><trkpt lat="43.55276" lon="12.32934"><ele>828.0</ele><time>2026-04-22T10:34:00.713Z</time></trkpt><trkpt lat="43.5527333" lon="12.3295133"><ele>828.0</ele><time>2026-04-22T10:34:02.713Z</time></trkpt><trkpt lat="43.5527183" lon="12.3296017"><ele>828.0</ele><time>2026-04-22T10:34:03.713Z</time></trkpt><trkpt lat="43.5526983" lon="12.3296933"><ele>828.0</ele><time>2026-04-22T10:34:04.713Z</time></trkpt><trkpt lat="43.5526733" lon="12.3297817"><ele>828.0</ele><time>2026-04-22T10:34:05.713Z</time></trkpt><trkpt lat="43.552655" lon="12.3298667"><ele>828.0</ele><time>2026-04-22T10:34:06.713Z</time></trkpt><trkpt lat="43.5526283" lon="12.3300333"><ele>828.0</ele><time>2026-04-22T10:34:08.713Z</time></trkpt><trkpt lat="43.5526117" lon="12.330205"><ele>827.6666666666666</ele><time>2026-04-22T10:34:10.713Z</time></trkpt><trkpt lat="43.5526117" lon="12.3302967"><ele>827.3333333333333</ele><time>2026-04-22T10:34:11.713Z</time></trkpt><trkpt lat="43.5526067" lon="12.3303867"><ele>827.0</ele><time>2026-04-22T10:34:12.713Z</time></trkpt><trkpt lat="43.5525967" lon="12.330475"><ele>826.6666666666666</ele><time>2026-04-22T10:34:13.713Z</time></trkpt><trkpt lat="43.5525867" lon="12.330565"><ele>826.3333333333333</ele><time>2026-04-22T10:34:14.713Z</time></trkpt><trkpt lat="43.5525667" lon="12.3307183"><ele>826.0</ele><time>2026-04-22T10:34:16.713Z</time></trkpt><trkpt lat="43.5525733" lon="12.330855"><ele>826.0</ele><time>2026-04-22T10:34:18.713Z</time></trkpt><trkpt lat="43.5526083" lon="12.3309767"><ele>826.0</ele><time>2026-04-22T10:34:20.713Z</time></trkpt><trkpt lat="43.55265" lon="12.3310983"><ele>826.0</ele><time>2026-04-22T10:34:22.714Z</time></trkpt><trkpt lat="43.5527117" lon="12.331205"><ele>826.0</ele><time>2026-04-22T10:34:24.714Z</time></trkpt><trkpt lat="43.5527783" lon="12.3313067"><ele>826.0</ele><time>2026-04-22T10:34:26.713Z</time></trkpt><trkpt lat="43.5528367" lon="12.331405"><ele>824.6666666666666</ele><time>2026-04-22T10:34:28.713Z</time></trkpt><trkpt lat="43.5529183" lon="12.3314733"><ele>823.3333333333333</ele><time>2026-04-22T10:34:30.713Z</time></trkpt><trkpt lat="43.5529917" lon="12.3315217"><ele>822.0</ele><time>2026-04-22T10:34:32.714Z</time></trkpt><trkpt lat="43.553065" lon="12.3315567"><ele>820.6666666666667</ele><time>2026-04-22T10:34:34.713Z</time></trkpt><trkpt lat="43.553135" lon="12.3316233"><ele>819.3333333333334</ele><time>2026-04-22T10:34:36.713Z</time></trkpt><trkpt lat="43.5532133" lon="12.3316917"><ele>818.0</ele><time>2026-04-22T10:34:38.713Z</time></trkpt><trkpt lat="43.5532867" lon="12.331795"><ele>818.0</ele><time>2026-04-22T10:34:40.714Z</time></trkpt><trkpt lat="43.553335" lon="12.3319183"><ele>818.0</ele><time>2026-04-22T10:34:42.713Z</time></trkpt><trkpt lat="43.5533883" lon="12.3320467"><ele>818.0</ele><time>2026-04-22T10:34:44.713Z</time></trkpt><trkpt lat="43.553455" lon="12.3321633"><ele>818.0</ele><time>2026-04-22T10:34:46.713Z</time></trkpt><trkpt lat="43.5535317" lon="12.3322783"><ele>818.0</ele><time>2026-04-22T10:34:48.713Z</time></trkpt><trkpt lat="43.5536133" lon="12.332385"><ele>817.5999999999999</ele><time>2026-04-22T10:34:50.713Z</time></trkpt><trkpt lat="43.5536883" lon="12.332485"><ele>817.1999999999999</ele><time>2026-04-22T10:34:52.713Z</time></trkpt><trkpt lat="43.55375" lon="12.3325983"><ele>816.8</ele><time>2026-04-22T10:34:54.713Z</time></trkpt><trkpt lat="43.553785" lon="12.3327283"><ele>816.4</ele><time>2026-04-22T10:34:56.713Z</time></trkpt><trkpt lat="43.5538083" lon="12.3328933"><ele>816.0</ele><time>2026-04-22T10:34:58.713Z</time></trkpt><trkpt lat="43.5538233" lon="12.3329833"><ele>814.4</ele><time>2026-04-22T10:34:59.713Z</time></trkpt><trkpt lat="43.55383" lon="12.33307"><ele>812.8</ele><time>2026-04-22T10:35:00.714Z</time></trkpt><trkpt lat="43.5538367" lon="12.3332267"><ele>811.1999999999999</ele><time>2026-04-22T10:35:02.713Z</time></trkpt><trkpt lat="43.553825" lon="12.3333883"><ele>809.5999999999999</ele><time>2026-04-22T10:35:04.713Z</time></trkpt><trkpt lat="43.5537883" lon="12.3335267"><ele>808.0</ele><time>2026-04-22T10:35:06.713Z</time></trkpt><trkpt lat="43.553745" lon="12.3336567"><ele>808.0</ele><time>2026-04-22T10:35:08.713Z</time></trkpt><trkpt lat="43.5537083" lon="12.333805"><ele>808.0</ele><time>2026-04-22T10:35:10.714Z</time></trkpt><trkpt lat="43.5536733" lon="12.3339383"><ele>808.0</ele><time>2026-04-22T10:35:12.713Z</time></trkpt><trkpt lat="43.55363" lon="12.334085"><ele>808.0</ele><time>2026-04-22T10:35:14.713Z</time></trkpt><trkpt lat="43.55359" lon="12.3342467"><ele>807.8</ele><time>2026-04-22T10:35:16.713Z</time></trkpt><trkpt lat="43.55354" lon="12.3343933"><ele>807.5999999999999</ele><time>2026-04-22T10:35:18.713Z</time></trkpt><trkpt lat="43.5534883" lon="12.3345417"><ele>807.4000000000001</ele><time>2026-04-22T10:35:20.713Z</time></trkpt><trkpt lat="43.5534517" lon="12.3346167"><ele>807.2</ele><time>2026-04-22T10:35:21.713Z</time></trkpt><trkpt lat="43.55342" lon="12.3346967"><ele>807.0</ele><time>2026-04-22T10:35:22.713Z</time></trkpt><trkpt lat="43.5533467" lon="12.33485"><ele>807.6</ele><time>2026-04-22T10:35:24.713Z</time></trkpt><trkpt lat="43.5533117" lon="12.3349283"><ele>808.2</ele><time>2026-04-22T10:35:25.714Z</time></trkpt><trkpt lat="43.5532633" lon="12.3350733"><ele>808.8</ele><time>2026-04-22T10:35:27.713Z</time></trkpt><trkpt lat="43.5532167" lon="12.3352133"><ele>809.4</ele><time>2026-04-22T10:35:29.713Z</time></trkpt><trkpt lat="43.5531933" lon="12.3353717"><ele>810.0</ele><time>2026-04-22T10:35:31.713Z</time></trkpt><trkpt lat="43.5531967" lon="12.3355167"><ele>809.0</ele><time>2026-04-22T10:35:33.713Z</time></trkpt><trkpt lat="43.5532183" lon="12.3356833"><ele>808.0</ele><time>2026-04-22T10:35:35.712Z</time></trkpt><trkpt lat="43.5532267" lon="12.3358467"><ele>807.0</ele><time>2026-04-22T10:35:37.712Z</time></trkpt><trkpt lat="43.5532217" lon="12.3360017"><ele>806.0</ele><time>2026-04-22T10:35:39.712Z</time></trkpt><trkpt lat="43.553215" lon="12.3360883"><ele>805.0</ele><time>2026-04-22T10:35:40.712Z</time></trkpt><trkpt lat="43.5532083" lon="12.336175"><ele>805.0</ele><time>2026-04-22T10:35:41.712Z</time></trkpt><trkpt lat="43.553185" lon="12.3363317"><ele>805.0</ele><time>2026-04-22T10:35:43.712Z</time></trkpt><trkpt lat="43.5531483" lon="12.33647"><ele>805.0</ele><time>2026-04-22T10:35:45.712Z</time></trkpt><trkpt lat="43.553085" lon="12.3365933"><ele>805.0</ele><time>2026-04-22T10:35:47.712Z</time></trkpt><trkpt lat="43.553" lon="12.33669"><ele>805.0</ele><time>2026-04-22T10:35:49.712Z</time></trkpt><trkpt lat="43.5529133" lon="12.3367717"><ele>802.8333333333333</ele><time>2026-04-22T10:35:51.712Z</time></trkpt><trkpt lat="43.5528233" lon="12.33683"><ele>800.6666666666666</ele><time>2026-04-22T10:35:53.712Z</time></trkpt><trkpt lat="43.552745" lon="12.3368867"><ele>798.5</ele><time>2026-04-22T10:35:55.712Z</time></trkpt><trkpt lat="43.552715" lon="12.336985"><ele>796.3333333333333</ele><time>2026-04-22T10:35:57.712Z</time></trkpt><trkpt lat="43.5527433" lon="12.3370933"><ele>794.1666666666666</ele><time>2026-04-22T10:35:59.712Z</time></trkpt><trkpt lat="43.552775" lon="12.3372133"><ele>792.0</ele><time>2026-04-22T10:36:01.712Z</time></trkpt><trkpt lat="43.5528083" lon="12.3373233"><ele>792.4000000000001</ele><time>2026-04-22T10:36:03.712Z</time></trkpt><trkpt lat="43.55284" lon="12.337445"><ele>792.8000000000001</ele><time>2026-04-22T10:36:05.712Z</time></trkpt><trkpt lat="43.55287" lon="12.3375733"><ele>793.2</ele><time>2026-04-22T10:36:07.712Z</time></trkpt><trkpt lat="43.5528917" lon="12.3376917"><ele>793.6</ele><time>2026-04-22T10:36:09.712Z</time></trkpt><trkpt lat="43.5529233" lon="12.33781"><ele>794.0</ele><time>2026-04-22T10:36:11.712Z</time></trkpt><trkpt lat="43.5529617" lon="12.337935"><ele>792.2</ele><time>2026-04-22T10:36:13.712Z</time></trkpt><trkpt lat="43.553005" lon="12.3380583"><ele>790.4000000000001</ele><time>2026-04-22T10:36:15.712Z</time></trkpt><trkpt lat="43.5530383" lon="12.3381833"><ele>788.6</ele><time>2026-04-22T10:36:17.713Z</time></trkpt><trkpt lat="43.5530583" lon="12.3383417"><ele>786.8</ele><time>2026-04-22T10:36:19.712Z</time></trkpt><trkpt lat="43.5530533" lon="12.338505"><ele>785.0</ele><time>2026-04-22T10:36:21.712Z</time></trkpt><trkpt lat="43.5530533" lon="12.3386717"><ele>785.0</ele><time>2026-04-22T10:36:23.712Z</time></trkpt><trkpt lat="43.5530383" lon="12.3388317"><ele>785.0</ele><time>2026-04-22T10:36:25.713Z</time></trkpt><trkpt lat="43.553025" lon="12.33899"><ele>785.0</ele><time>2026-04-22T10:36:27.712Z</time></trkpt><trkpt lat="43.5530233" lon="12.3391417"><ele>785.0</ele><time>2026-04-22T10:36:29.712Z</time></trkpt><trkpt lat="43.553015" lon="12.3393083"><ele>785.1666666666667</ele><time>2026-04-22T10:36:31.712Z</time></trkpt><trkpt lat="43.5530083" lon="12.339475"><ele>785.3333333333334</ele><time>2026-04-22T10:36:33.712Z</time></trkpt><trkpt lat="43.5529883" lon="12.3396283"><ele>785.5</ele><time>2026-04-22T10:36:35.712Z</time></trkpt><trkpt lat="43.552955" lon="12.339715"><ele>785.6666666666667</ele><time>2026-04-22T10:36:37.712Z</time></trkpt><trkpt lat="43.5528883" lon="12.33973"><ele>785.8333333333334</ele><time>2026-04-22T10:36:39.712Z</time></trkpt><trkpt lat="43.5528483" lon="12.3396533"><ele>786.0</ele><time>2026-04-22T10:36:41.712Z</time></trkpt><trkpt lat="43.552835" lon="12.3395683"><ele>784.5999999999999</ele><time>2026-04-22T10:36:42.713Z</time></trkpt><trkpt lat="43.55283" lon="12.33948"><ele>783.2</ele><time>2026-04-22T10:36:43.712Z</time></trkpt><trkpt lat="43.5528233" lon="12.3393233"><ele>781.8</ele><time>2026-04-22T10:36:45.712Z</time></trkpt><trkpt lat="43.5528283" lon="12.339175"><ele>780.4000000000001</ele><time>2026-04-22T10:36:47.713Z</time></trkpt><trkpt lat="43.5528283" lon="12.3389983"><ele>779.0</ele><time>2026-04-22T10:36:49.712Z</time></trkpt><trkpt lat="43.5528217" lon="12.3389067"><ele>778.8333333333334</ele><time>2026-04-22T10:36:50.712Z</time></trkpt><trkpt lat="43.5528117" lon="12.3388167"><ele>778.6666666666667</ele><time>2026-04-22T10:36:51.712Z</time></trkpt><trkpt lat="43.552785" lon="12.33867"><ele>778.5</ele><time>2026-04-22T10:36:53.712Z</time></trkpt><trkpt lat="43.552745" lon="12.3385217"><ele>778.3333333333333</ele><time>2026-04-22T10:36:55.712Z</time></trkpt><trkpt lat="43.5527283" lon="12.338415"><ele>778.1666666666666</ele><time>2026-04-22T10:36:57.712Z</time></trkpt><trkpt lat="43.5526717" lon="12.3383717"><ele>778.0</ele><time>2026-04-22T10:37:00.712Z</time></trkpt><trkpt lat="43.5526433" lon="12.338465"><ele>777.9999999999999</ele><time>2026-04-22T10:37:03.712Z</time></trkpt><trkpt lat="43.5526767" lon="12.3385417"><ele>778.0</ele><time>2026-04-22T10:37:05.712Z</time></trkpt><trkpt lat="43.5527133" lon="12.33865"><ele>778.0</ele><time>2026-04-22T10:37:08.712Z</time></trkpt><trkpt lat="43.5527283" lon="12.3387583"><ele>778.0</ele><time>2026-04-22T10:37:11.712Z</time></trkpt><trkpt lat="43.5527267" lon="12.33887"><ele>777.9999999999999</ele><time>2026-04-22T10:37:14.712Z</time></trkpt><trkpt lat="43.5526967" lon="12.3389983"><ele>778.0</ele><time>2026-04-22T10:37:17.712Z</time></trkpt><trkpt lat="43.5526583" lon="12.339105"><ele>778.1666666666666</ele><time>2026-04-22T10:37:19.712Z</time></trkpt><trkpt lat="43.5526133" lon="12.3392017"><ele>778.3333333333333</ele><time>2026-04-22T10:37:21.712Z</time></trkpt><trkpt lat="43.5525767" lon="12.3392817"><ele>778.5</ele><time>2026-04-22T10:37:23.712Z</time></trkpt><trkpt lat="43.5525283" lon="12.339395"><ele>778.6666666666667</ele><time>2026-04-22T10:37:26.712Z</time></trkpt><trkpt lat="43.5524783" lon="12.3394483"><ele>778.8333333333334</ele><time>2026-04-22T10:37:28.712Z</time></trkpt><trkpt lat="43.552395" lon="12.3395117"><ele>779.0</ele><time>2026-04-22T10:37:31.712Z</time></trkpt><trkpt lat="43.5523233" lon="12.339535"><ele>779.0</ele><time>2026-04-22T10:37:33.713Z</time></trkpt><trkpt lat="43.5522333" lon="12.3395183"><ele>779.0</ele><time>2026-04-22T10:37:35.712Z</time></trkpt><trkpt lat="43.5521333" lon="12.3394867"><ele>779.0</ele><time>2026-04-22T10:37:37.712Z</time></trkpt><trkpt lat="43.5520317" lon="12.3394467"><ele>779.0</ele><time>2026-04-22T10:37:39.712Z</time></trkpt><trkpt lat="43.5519567" lon="12.3393733"><ele>779.0</ele><time>2026-04-22T10:37:41.712Z</time></trkpt><trkpt lat="43.5518967" lon="12.3392983"><ele>776.8000000000001</ele><time>2026-04-22T10:37:43.712Z</time></trkpt><trkpt lat="43.551825" lon="12.3392167"><ele>774.6</ele><time>2026-04-22T10:37:46.712Z</time></trkpt><trkpt lat="43.551755" lon="12.3391567"><ele>772.4</ele><time>2026-04-22T10:37:48.712Z</time></trkpt><trkpt lat="43.5516733" lon="12.33908"><ele>770.2</ele><time>2026-04-22T10:37:50.712Z</time></trkpt><trkpt lat="43.5515767" lon="12.3390317"><ele>768.0</ele><time>2026-04-22T10:37:52.712Z</time></trkpt><trkpt lat="43.5514867" lon="12.3390617"><ele>768.0</ele><time>2026-04-22T10:37:54.712Z</time></trkpt><trkpt lat="43.55142" lon="12.339185"><ele>768.0</ele><time>2026-04-22T10:37:56.712Z</time></trkpt><trkpt lat="43.5513783" lon="12.3393033"><ele>768.0</ele><time>2026-04-22T10:37:58.712Z</time></trkpt><trkpt lat="43.5513183" lon="12.3394033"><ele>768.0</ele><time>2026-04-22T10:38:00.712Z</time></trkpt><trkpt lat="43.5512383" lon="12.33947"><ele>768.0</ele><time>2026-04-22T10:38:02.713Z</time></trkpt><trkpt lat="43.5511467" lon="12.33952"><ele>765.8</ele><time>2026-04-22T10:38:04.713Z</time></trkpt><trkpt lat="43.55106" lon="12.3395283"><ele>763.5999999999999</ele><time>2026-04-22T10:38:06.713Z</time></trkpt><trkpt lat="43.5509633" lon="12.3395233"><ele>761.4000000000001</ele><time>2026-04-22T10:38:08.712Z</time></trkpt><trkpt lat="43.55086" lon="12.3395117"><ele>759.2</ele><time>2026-04-22T10:38:10.713Z</time></trkpt><trkpt lat="43.5507567" lon="12.3395467"><ele>757.0</ele><time>2026-04-22T10:38:12.713Z</time></trkpt><trkpt lat="43.550655" lon="12.3395933"><ele>757.0</ele><time>2026-04-22T10:38:14.712Z</time></trkpt><trkpt lat="43.5505533" lon="12.339585"><ele>757.0</ele><time>2026-04-22T10:38:16.712Z</time></trkpt><trkpt lat="43.55048" lon="12.3395517"><ele>757.0</ele><time>2026-04-22T10:38:18.712Z</time></trkpt><trkpt lat="43.5504117" lon="12.33949"><ele>757.0</ele><time>2026-04-22T10:38:21.712Z</time></trkpt><trkpt lat="43.550365" lon="12.3394133"><ele>757.0</ele><time>2026-04-22T10:38:23.712Z</time></trkpt><trkpt lat="43.5503233" lon="12.3393017"><ele>757.0</ele><time>2026-04-22T10:38:25.712Z</time></trkpt><trkpt lat="43.5503" lon="12.339165"><ele>758.2</ele><time>2026-04-22T10:38:27.712Z</time></trkpt><trkpt lat="43.5502933" lon="12.33904"><ele>759.4000000000001</ele><time>2026-04-22T10:38:29.712Z</time></trkpt><trkpt lat="43.5502617" lon="12.3389183"><ele>760.5999999999999</ele><time>2026-04-22T10:38:31.712Z</time></trkpt><trkpt lat="43.550185" lon="12.3388317"><ele>761.8</ele><time>2026-04-22T10:38:33.712Z</time></trkpt><trkpt lat="43.5500717" lon="12.3387883"><ele>763.0</ele><time>2026-04-22T10:38:35.713Z</time></trkpt><trkpt lat="43.54996" lon="12.3387683"><ele>758.8</ele><time>2026-04-22T10:38:37.712Z</time></trkpt><trkpt lat="43.54986" lon="12.3387383"><ele>754.5999999999999</ele><time>2026-04-22T10:38:39.712Z</time></trkpt><trkpt lat="43.5497633" lon="12.33869"><ele>750.4000000000001</ele><time>2026-04-22T10:38:41.712Z</time></trkpt><trkpt lat="43.5496783" lon="12.3386283"><ele>746.2</ele><time>2026-04-22T10:38:43.712Z</time></trkpt><trkpt lat="43.5495867" lon="12.338585"><ele>742.0</ele><time>2026-04-22T10:38:45.712Z</time></trkpt><trkpt lat="43.5494733" lon="12.3385983"><ele>741.4000000000001</ele><time>2026-04-22T10:38:47.712Z</time></trkpt><trkpt lat="43.5493917" lon="12.3386983"><ele>740.8000000000001</ele><time>2026-04-22T10:38:49.712Z</time></trkpt><trkpt lat="43.5493267" lon="12.3388217"><ele>740.2</ele><time>2026-04-22T10:38:51.712Z</time></trkpt><trkpt lat="43.5492583" lon="12.3389067"><ele>739.6</ele><time>2026-04-22T10:38:53.713Z</time></trkpt><trkpt lat="43.54917" lon="12.338945"><ele>739.0</ele><time>2026-04-22T10:38:55.712Z</time></trkpt><trkpt lat="43.549085" lon="12.33894"><ele>742.6</ele><time>2026-04-22T10:38:57.712Z</time></trkpt><trkpt lat="43.548995" lon="12.3389233"><ele>746.2</ele><time>2026-04-22T10:38:59.713Z</time></trkpt><trkpt lat="43.5488883" lon="12.338915"><ele>749.8000000000001</ele><time>2026-04-22T10:39:01.713Z</time></trkpt><trkpt lat="43.54881" lon="12.3389683"><ele>753.4000000000001</ele><time>2026-04-22T10:39:03.712Z</time></trkpt><trkpt lat="43.5487433" lon="12.33908"><ele>757.0</ele><time>2026-04-22T10:39:05.712Z</time></trkpt><trkpt lat="43.5486867" lon="12.3391617"><ele>757.0</ele><time>2026-04-22T10:39:07.712Z</time></trkpt><trkpt lat="43.5485817" lon="12.3391917"><ele>757.0</ele><time>2026-04-22T10:39:09.712Z</time></trkpt><trkpt lat="43.5484567" lon="12.3391817"><ele>757.0</ele><time>2026-04-22T10:39:11.712Z</time></trkpt><trkpt lat="43.5483933" lon="12.33915"><ele>757.0</ele><time>2026-04-22T10:39:12.712Z</time></trkpt><trkpt lat="43.5483317" lon="12.3391033"><ele>757.0</ele><time>2026-04-22T10:39:13.712Z</time></trkpt><trkpt lat="43.548225" lon="12.339015"><ele>757.0</ele><time>2026-04-22T10:39:15.712Z</time></trkpt><trkpt lat="43.5481367" lon="12.338905"><ele>757.0</ele><time>2026-04-22T10:39:17.712Z</time></trkpt><trkpt lat="43.5480267" lon="12.338805"><ele>757.0</ele><time>2026-04-22T10:39:19.712Z</time></trkpt><trkpt lat="43.547915" lon="12.3387433"><ele>757.0</ele><time>2026-04-22T10:39:21.712Z</time></trkpt><trkpt lat="43.5478" lon="12.3387067"><ele>754.0</ele><time>2026-04-22T10:39:23.712Z</time></trkpt><trkpt lat="43.5476983" lon="12.33872"><ele>751.0</ele><time>2026-04-22T10:39:25.712Z</time></trkpt><trkpt lat="43.547625" lon="12.3387917"><ele>748.0</ele><time>2026-04-22T10:39:27.712Z</time></trkpt><trkpt lat="43.547585" lon="12.3389283"><ele>745.0</ele><time>2026-04-22T10:39:29.712Z</time></trkpt><trkpt lat="43.5475733" lon="12.3390783"><ele>742.0</ele><time>2026-04-22T10:39:31.712Z</time></trkpt><trkpt lat="43.54757" lon="12.3392167"><ele>742.0</ele><time>2026-04-22T10:39:33.712Z</time></trkpt><trkpt lat="43.547585" lon="12.339325"><ele>742.0</ele><time>2026-04-22T10:39:35.712Z</time></trkpt><trkpt lat="43.547605" lon="12.3394167"><ele>742.0</ele><time>2026-04-22T10:39:37.712Z</time></trkpt><trkpt lat="43.5476167" lon="12.3395383"><ele>742.0</ele><time>2026-04-22T10:39:39.712Z</time></trkpt><trkpt lat="43.5475867" lon="12.3396717"><ele>742.0</ele><time>2026-04-22T10:39:41.712Z</time></trkpt><trkpt lat="43.5475417" lon="12.3397883"><ele>742.0</ele><time>2026-04-22T10:39:43.712Z</time></trkpt><trkpt lat="43.5474867" lon="12.3398733"><ele>742.0</ele><time>2026-04-22T10:39:45.712Z</time></trkpt><trkpt lat="43.547415" lon="12.3399283"><ele>742.0</ele><time>2026-04-22T10:39:47.712Z</time></trkpt><trkpt lat="43.5473117" lon="12.33998"><ele>742.0</ele><time>2026-04-22T10:39:49.713Z</time></trkpt><trkpt lat="43.5471917" lon="12.3400167"><ele>742.0</ele><time>2026-04-22T10:39:51.712Z</time></trkpt><trkpt lat="43.54713" lon="12.3400367"><ele>742.0</ele><time>2026-04-22T10:39:52.712Z</time></trkpt><trkpt lat="43.5470183" lon="12.34008"><ele>738.4000000000001</ele><time>2026-04-22T10:39:54.712Z</time></trkpt><trkpt lat="43.5469117" lon="12.3401617"><ele>734.8000000000001</ele><time>2026-04-22T10:39:56.712Z</time></trkpt><trkpt lat="43.546825" lon="12.340235"><ele>731.2</ele><time>2026-04-22T10:39:58.712Z</time></trkpt><trkpt lat="43.54674" lon="12.34026"><ele>727.6</ele><time>2026-04-22T10:40:00.713Z</time></trkpt><trkpt lat="43.5466433" lon="12.3402317"><ele>724.0</ele><time>2026-04-22T10:40:02.712Z</time></trkpt><trkpt lat="43.5465467" lon="12.3401833"><ele>724.0</ele><time>2026-04-22T10:40:04.713Z</time></trkpt><trkpt lat="43.5464583" lon="12.3401283"><ele>724.0</ele><time>2026-04-22T10:40:06.712Z</time></trkpt><trkpt lat="43.5463883" lon="12.3401183"><ele>724.0</ele><time>2026-04-22T10:40:08.713Z</time></trkpt><trkpt lat="43.5463033" lon="12.3401617"><ele>724.0</ele><time>2026-04-22T10:40:10.712Z</time></trkpt><trkpt lat="43.5462317" lon="12.3402417"><ele>724.0</ele><time>2026-04-22T10:40:12.712Z</time></trkpt><trkpt lat="43.5462017" lon="12.34035"><ele>724.0</ele><time>2026-04-22T10:40:13.712Z</time></trkpt><trkpt lat="43.546165" lon="12.3404517"><ele>720.6666666666667</ele><time>2026-04-22T10:40:14.712Z</time></trkpt><trkpt lat="43.5461283" lon="12.3405733"><ele>717.3333333333334</ele><time>2026-04-22T10:40:16.712Z</time></trkpt><trkpt lat="43.5460967" lon="12.340665"><ele>714.0</ele><time>2026-04-22T10:40:18.712Z</time></trkpt><trkpt lat="43.546045" lon="12.3407417"><ele>710.6666666666666</ele><time>2026-04-22T10:40:21.712Z</time></trkpt><trkpt lat="43.5459917" lon="12.34079"><ele>707.3333333333333</ele><time>2026-04-22T10:40:23.712Z</time></trkpt><trkpt lat="43.5459317" lon="12.340855"><ele>704.0</ele><time>2026-04-22T10:40:25.712Z</time></trkpt><trkpt lat="43.5458767" lon="12.340945"><ele>704.0</ele><time>2026-04-22T10:40:27.712Z</time></trkpt><trkpt lat="43.5458583" lon="12.341055"><ele>704.0</ele><time>2026-04-22T10:40:29.712Z</time></trkpt><trkpt lat="43.5458967" lon="12.3412133"><ele>704.0</ele><time>2026-04-22T10:40:31.712Z</time></trkpt><trkpt lat="43.5459383" lon="12.3413467"><ele>704.0</ele><time>2026-04-22T10:40:33.712Z</time></trkpt><trkpt lat="43.5459833" lon="12.341435"><ele>704.0</ele><time>2026-04-22T10:40:35.712Z</time></trkpt><trkpt lat="43.5460183" lon="12.341525"><ele>704.0</ele><time>2026-04-22T10:40:37.712Z</time></trkpt><trkpt lat="43.5460633" lon="12.3416083"><ele>704.0</ele><time>2026-04-22T10:40:39.712Z</time></trkpt><trkpt lat="43.5461267" lon="12.3416817"><ele>704.0</ele><time>2026-04-22T10:40:41.712Z</time></trkpt><trkpt lat="43.5462267" lon="12.3417433"><ele>704.0</ele><time>2026-04-22T10:40:43.712Z</time></trkpt><trkpt lat="43.5463217" lon="12.341795"><ele>704.0</ele><time>2026-04-22T10:40:45.712Z</time></trkpt><trkpt lat="43.5464133" lon="12.3418383"><ele>704.0</ele><time>2026-04-22T10:40:47.712Z</time></trkpt><trkpt lat="43.5464917" lon="12.341865"><ele>704.0</ele><time>2026-04-22T10:40:49.712Z</time></trkpt><trkpt lat="43.546615" lon="12.3418283"><ele>704.0</ele><time>2026-04-22T10:40:51.712Z</time></trkpt><trkpt lat="43.54668" lon="12.34181"><ele>704.0</ele><time>2026-04-22T10:40:52.712Z</time></trkpt><trkpt lat="43.5467867" lon="12.341785"><ele>704.0</ele><time>2026-04-22T10:40:54.712Z</time></trkpt><trkpt lat="43.5468967" lon="12.3417883"><ele>704.0</ele><time>2026-04-22T10:40:56.712Z</time></trkpt><trkpt lat="43.5469867" lon="12.3418483"><ele>704.0</ele><time>2026-04-22T10:40:58.712Z</time></trkpt><trkpt lat="43.54702" lon="12.3419617"><ele>704.0</ele><time>2026-04-22T10:41:00.712Z</time></trkpt><trkpt lat="43.5469967" lon="12.3421117"><ele>704.0</ele><time>2026-04-22T10:41:02.712Z</time></trkpt><trkpt lat="43.54696" lon="12.3421917"><ele>704.0</ele><time>2026-04-22T10:41:03.712Z</time></trkpt><trkpt lat="43.546925" lon="12.3422717"><ele>704.0</ele><time>2026-04-22T10:41:04.712Z</time></trkpt><trkpt lat="43.54689" lon="12.3423467"><ele>702.1666666666666</ele><time>2026-04-22T10:41:05.713Z</time></trkpt><trkpt lat="43.54686" lon="12.3424233"><ele>700.3333333333333</ele><time>2026-04-22T10:41:06.712Z</time></trkpt><trkpt lat="43.546825" lon="12.3424983"><ele>698.5</ele><time>2026-04-22T10:41:07.712Z</time></trkpt><trkpt lat="43.546785" lon="12.34257"><ele>696.6666666666666</ele><time>2026-04-22T10:41:08.712Z</time></trkpt><trkpt lat="43.5467283" lon="12.3426483"><ele>694.8333333333334</ele><time>2026-04-22T10:41:09.712Z</time></trkpt><trkpt lat="43.5466533" lon="12.342725"><ele>693.0</ele><time>2026-04-22T10:41:10.712Z</time></trkpt><trkpt lat="43.546585" lon="12.3428"><ele>693.0</ele><time>2026-04-22T10:41:11.712Z</time></trkpt><trkpt lat="43.5465233" lon="12.34286"><ele>693.0</ele><time>2026-04-22T10:41:12.712Z</time></trkpt><trkpt lat="43.54647" lon="12.34291"><ele>693.0</ele><time>2026-04-22T10:41:13.713Z</time></trkpt><trkpt lat="43.5463883" lon="12.3429767"><ele>693.0</ele><time>2026-04-22T10:41:15.712Z</time></trkpt><trkpt lat="43.5463533" lon="12.3430633"><ele>693.0</ele><time>2026-04-22T10:41:17.712Z</time></trkpt><trkpt lat="43.5463833" lon="12.3431617"><ele>693.0</ele><time>2026-04-22T10:41:19.712Z</time></trkpt><trkpt lat="43.5464633" lon="12.3432233"><ele>691.6666666666666</ele><time>2026-04-22T10:41:21.712Z</time></trkpt><trkpt lat="43.54655" lon="12.3432817"><ele>690.3333333333334</ele><time>2026-04-22T10:41:23.712Z</time></trkpt><trkpt lat="43.5466383" lon="12.3433433"><ele>689.0</ele><time>2026-04-22T10:41:25.712Z</time></trkpt><trkpt lat="43.546705" lon="12.3433733"><ele>687.6666666666667</ele><time>2026-04-22T10:41:27.712Z</time></trkpt><trkpt lat="43.5467783" lon="12.343415"><ele>686.3333333333334</ele><time>2026-04-22T10:41:29.712Z</time></trkpt><trkpt lat="43.54686" lon="12.34347"><ele>685.0</ele><time>2026-04-22T10:41:31.712Z</time></trkpt><trkpt lat="43.5469583" lon="12.3435283"><ele>686.5</ele><time>2026-04-22T10:41:33.713Z</time></trkpt><trkpt lat="43.547045" lon="12.34359"><ele>688.0</ele><time>2026-04-22T10:41:35.712Z</time></trkpt><trkpt lat="43.5471367" lon="12.3436833"><ele>689.5</ele><time>2026-04-22T10:41:37.712Z</time></trkpt><trkpt lat="43.54717" lon="12.3437583"><ele>691.0</ele><time>2026-04-22T10:41:39.713Z</time></trkpt><trkpt lat="43.5471583" lon="12.3438617"><ele>692.5</ele><time>2026-04-22T10:41:41.712Z</time></trkpt><trkpt lat="43.5471183" lon="12.343955"><ele>694.0</ele><time>2026-04-22T10:41:43.712Z</time></trkpt><trkpt lat="43.5470583" lon="12.34402"><ele>691.6</ele><time>2026-04-22T10:41:45.712Z</time></trkpt><trkpt lat="43.54698" lon="12.3440533"><ele>689.2</ele><time>2026-04-22T10:41:47.712Z</time></trkpt><trkpt lat="43.5469067" lon="12.3441367"><ele>686.8000000000001</ele><time>2026-04-22T10:41:49.712Z</time></trkpt><trkpt lat="43.5468533" lon="12.34425"><ele>684.4000000000001</ele><time>2026-04-22T10:41:51.712Z</time></trkpt><trkpt lat="43.546805" lon="12.3443833"><ele>682.0</ele><time>2026-04-22T10:41:53.713Z</time></trkpt><trkpt lat="43.5467417" lon="12.34454"><ele>682.0</ele><time>2026-04-22T10:41:55.712Z</time></trkpt><trkpt lat="43.546715" lon="12.3446233"><ele>682.0</ele><time>2026-04-22T10:41:56.712Z</time></trkpt><trkpt lat="43.5466733" lon="12.344775"><ele>682.0</ele><time>2026-04-22T10:41:58.712Z</time></trkpt><trkpt lat="43.5466483" lon="12.3448567"><ele>682.0</ele><time>2026-04-22T10:41:59.712Z</time></trkpt><trkpt lat="43.5466217" lon="12.3449383"><ele>682.0</ele><time>2026-04-22T10:42:00.712Z</time></trkpt><trkpt lat="43.5465717" lon="12.3450783"><ele>682.0</ele><time>2026-04-22T10:42:02.713Z</time></trkpt><trkpt lat="43.5465533" lon="12.3451733"><ele>682.0</ele><time>2026-04-22T10:42:04.712Z</time></trkpt><trkpt lat="43.5465733" lon="12.3450717"><ele>682.0</ele><time>2026-04-22T10:42:41.712Z</time></trkpt><trkpt lat="43.5466133" lon="12.3449833"><ele>682.0</ele><time>2026-04-22T10:42:43.712Z</time></trkpt><trkpt lat="43.54665" lon="12.3448683"><ele>682.0</ele><time>2026-04-22T10:42:45.712Z</time></trkpt><trkpt lat="43.54669" lon="12.3447433"><ele>682.0</ele><time>2026-04-22T10:42:47.712Z</time></trkpt><trkpt lat="43.5467317" lon="12.3446083"><ele>682.0</ele><time>2026-04-22T10:42:49.712Z</time></trkpt><trkpt lat="43.5467867" lon="12.3444717"><ele>682.0</ele><time>2026-04-22T10:42:51.712Z</time></trkpt><trkpt lat="43.54682" lon="12.3443967"><ele>682.0</ele><time>2026-04-22T10:42:52.712Z</time></trkpt><trkpt lat="43.54688" lon="12.34426"><ele>682.0</ele><time>2026-04-22T10:42:54.712Z</time></trkpt><trkpt lat="43.546925" lon="12.3441333"><ele>682.0</ele><time>2026-04-22T10:42:56.712Z</time></trkpt><trkpt lat="43.5469717" lon="12.3440433"><ele>682.0</ele><time>2026-04-22T10:42:58.712Z</time></trkpt><trkpt lat="43.5469117" lon="12.3440083"><ele>682.0</ele><time>2026-04-22T10:43:03.712Z</time></trkpt><trkpt lat="43.5468683" lon="12.3440717"><ele>682.0</ele><time>2026-04-22T10:43:09.712Z</time></trkpt><trkpt lat="43.5468183" lon="12.3441633"><ele>682.0</ele><time>2026-04-22T10:43:26.712Z</time></trkpt><trkpt lat="43.5467567" lon="12.3442067"><ele>682.0</ele><time>2026-04-22T10:43:29.713Z</time></trkpt><trkpt lat="43.54669" lon="12.344295"><ele>682.0</ele><time>2026-04-22T10:43:41.712Z</time></trkpt><trkpt lat="43.54663" lon="12.34435"><ele>682.0</ele><time>2026-04-22T10:43:44.712Z</time></trkpt><trkpt lat="43.54657" lon="12.3444117"><ele>682.0</ele><time>2026-04-22T10:43:46.712Z</time></trkpt><trkpt lat="43.54649" lon="12.3444617"><ele>682.0</ele><time>2026-04-22T10:43:49.712Z</time></trkpt><trkpt lat="43.546415" lon="12.3445167"><ele>682.0</ele><time>2026-04-22T10:43:52.712Z</time></trkpt><trkpt lat="43.5463383" lon="12.3445833"><ele>682.0</ele><time>2026-04-22T10:43:55.712Z</time></trkpt><trkpt lat="43.5462833" lon="12.3446283"><ele>682.0</ele><time>2026-04-22T10:43:57.712Z</time></trkpt><trkpt lat="43.5462117" lon="12.344665"><ele>682.0</ele><time>2026-04-22T10:44:00.712Z</time></trkpt><trkpt lat="43.5461417" lon="12.3447233"><ele>682.0</ele><time>2026-04-22T10:44:03.712Z</time></trkpt><trkpt lat="43.5460717" lon="12.3447933"><ele>680.5</ele><time>2026-04-22T10:44:06.712Z</time></trkpt><trkpt lat="43.5460217" lon="12.3448517"><ele>679.0</ele><time>2026-04-22T10:44:08.712Z</time></trkpt><trkpt lat="43.54595" lon="12.3449067"><ele>677.5</ele><time>2026-04-22T10:44:10.712Z</time></trkpt><trkpt lat="43.5458933" lon="12.3449667"><ele>676.0</ele><time>2026-04-22T10:44:12.712Z</time></trkpt><trkpt lat="43.5458167" lon="12.34501"><ele>674.5</ele><time>2026-04-22T10:44:15.712Z</time></trkpt><trkpt lat="43.545745" lon="12.34503"><ele>673.0</ele><time>2026-04-22T10:44:17.712Z</time></trkpt><trkpt lat="43.5456617" lon="12.34509"><ele>673.0</ele><time>2026-04-22T10:44:25.712Z</time></trkpt><trkpt lat="43.5455967" lon="12.34512"><ele>673.0</ele><time>2026-04-22T10:44:28.712Z</time></trkpt><trkpt lat="43.5455217" lon="12.3451417"><ele>673.0</ele><time>2026-04-22T10:44:31.712Z</time></trkpt><trkpt lat="43.54543" lon="12.3451583"><ele>673.0</ele><time>2026-04-22T10:44:34.712Z</time></trkpt><trkpt lat="43.5453483" lon="12.3451967"><ele>673.0</ele><time>2026-04-22T10:44:37.712Z</time></trkpt><trkpt lat="43.5452667" lon="12.3452433"><ele>673.0</ele><time>2026-04-22T10:44:40.713Z</time></trkpt><trkpt lat="43.54521" lon="12.34533"><ele>670.2857142857143</ele><time>2026-04-22T10:44:43.712Z</time></trkpt><trkpt lat="43.5451717" lon="12.345405"><ele>667.5714285714286</ele><time>2026-04-22T10:44:46.712Z</time></trkpt><trkpt lat="43.54511" lon="12.3454267"><ele>664.8571428571429</ele><time>2026-04-22T10:44:54.712Z</time></trkpt><trkpt lat="43.5450517" lon="12.3453733"><ele>662.1428571428571</ele><time>2026-04-22T10:44:57.712Z</time></trkpt><trkpt lat="43.54499" lon="12.345265"><ele>659.4285714285714</ele><time>2026-04-22T10:45:05.712Z</time></trkpt><trkpt lat="43.5449467" lon="12.34517"><ele>656.7142857142857</ele><time>2026-04-22T10:45:12.712Z</time></trkpt><trkpt lat="43.5448833" lon="12.34516"><ele>654.0</ele><time>2026-04-22T10:45:23.711Z</time></trkpt><trkpt lat="43.5448033" lon="12.345125"><ele>654.0</ele><time>2026-04-22T10:45:26.711Z</time></trkpt><trkpt lat="43.544735" lon="12.345155"><ele>654.0</ele><time>2026-04-22T10:45:30.711Z</time></trkpt><trkpt lat="43.5447217" lon="12.3450683"><ele>654.0</ele><time>2026-04-22T10:50:01.711Z</time></trkpt><trkpt lat="43.5447833" lon="12.3450967"><ele>654.0</ele><time>2026-04-22T10:50:11.711Z</time></trkpt><trkpt lat="43.5448483" lon="12.345045"><ele>654.0</ele><time>2026-04-22T10:50:53.711Z</time></trkpt><trkpt lat="43.5449083" lon="12.345015"><ele>654.0</ele><time>2026-04-22T10:50:56.712Z</time></trkpt><trkpt lat="43.544975" lon="12.34503"><ele>654.0</ele><time>2026-04-22T10:51:04.711Z</time></trkpt><trkpt lat="43.5450017" lon="12.34511"><ele>654.0</ele><time>2026-04-22T10:51:27.712Z</time></trkpt><trkpt lat="43.54501" lon="12.3451967"><ele>654.0</ele><time>2026-04-22T10:51:59.711Z</time></trkpt><trkpt lat="43.545055" lon="12.3453267"><ele>654.0</ele><time>2026-04-22T10:57:11.709Z</time></trkpt><trkpt lat="43.545105" lon="12.3454167"><ele>654.0</ele><time>2026-04-22T10:57:15.709Z</time></trkpt><trkpt lat="43.5451717" lon="12.3454183"><ele>654.0</ele><time>2026-04-22T10:57:19.709Z</time></trkpt><trkpt lat="43.54521" lon="12.345335"><ele>654.0</ele><time>2026-04-22T10:57:22.71Z</time></trkpt><trkpt lat="43.545255" lon="12.3452583"><ele>654.0</ele><time>2026-04-22T10:57:24.709Z</time></trkpt><trkpt lat="43.5453217" lon="12.3452033"><ele>654.0</ele><time>2026-04-22T10:57:27.709Z</time></trkpt><trkpt lat="43.5453867" lon="12.3451783"><ele>654.0</ele><time>2026-04-22T10:57:30.709Z</time></trkpt><trkpt lat="43.545475" lon="12.3451567"><ele>654.0</ele><time>2026-04-22T10:57:33.709Z</time></trkpt><trkpt lat="43.5455367" lon="12.3451317"><ele>654.0</ele><time>2026-04-22T10:57:35.709Z</time></trkpt><trkpt lat="43.5455983" lon="12.34511"><ele>654.0</ele><time>2026-04-22T10:57:37.709Z</time></trkpt><trkpt lat="43.5456833" lon="12.3450633"><ele>657.1666666666666</ele><time>2026-04-22T10:57:40.709Z</time></trkpt><trkpt lat="43.545745" lon="12.3450383"><ele>660.3333333333334</ele><time>2026-04-22T10:57:42.709Z</time></trkpt><trkpt lat="43.5458067" lon="12.3450067"><ele>663.5</ele><time>2026-04-22T10:57:44.709Z</time></trkpt><trkpt lat="43.5458733" lon="12.3449517"><ele>666.6666666666667</ele><time>2026-04-22T10:57:46.709Z</time></trkpt><trkpt lat="43.5459417" lon="12.3448983"><ele>669.8333333333334</ele><time>2026-04-22T10:57:48.709Z</time></trkpt><trkpt lat="43.54602" lon="12.34483"><ele>673.0</ele><time>2026-04-22T10:57:50.709Z</time></trkpt><trkpt lat="43.546095" lon="12.3447583"><ele>674.0</ele><time>2026-04-22T10:57:52.709Z</time></trkpt><trkpt lat="43.54616" lon="12.3447083"><ele>675.0</ele><time>2026-04-22T10:57:54.709Z</time></trkpt><trkpt lat="43.5462333" lon="12.3446667"><ele>676.0</ele><time>2026-04-22T10:57:56.71Z</time></trkpt><trkpt lat="43.546305" lon="12.3446083"><ele>677.0</ele><time>2026-04-22T10:57:58.71Z</time></trkpt><trkpt lat="43.5463817" lon="12.344555"><ele>678.0</ele><time>2026-04-22T10:58:00.709Z</time></trkpt><trkpt lat="43.5464667" lon="12.3444967"><ele>679.0</ele><time>2026-04-22T10:58:02.709Z</time></trkpt><trkpt lat="43.5465433" lon="12.344435"><ele>679.5</ele><time>2026-04-22T10:58:04.709Z</time></trkpt><trkpt lat="43.5466133" lon="12.34436"><ele>680.0</ele><time>2026-04-22T10:58:06.709Z</time></trkpt><trkpt lat="43.5466933" lon="12.3442767"><ele>680.5</ele><time>2026-04-22T10:58:08.709Z</time></trkpt><trkpt lat="43.5467667" lon="12.3442067"><ele>681.0</ele><time>2026-04-22T10:58:10.709Z</time></trkpt><trkpt lat="43.546825" lon="12.3441417"><ele>681.5</ele><time>2026-04-22T10:58:12.709Z</time></trkpt><trkpt lat="43.5468667" lon="12.344065"><ele>682.0</ele><time>2026-04-22T10:58:14.709Z</time></trkpt><trkpt lat="43.546915" lon="12.3439867"><ele>682.0</ele><time>2026-04-22T10:58:16.709Z</time></trkpt><trkpt lat="43.5469717" lon="12.3440317"><ele>682.0</ele><time>2026-04-22T11:02:35.708Z</time></trkpt><trkpt lat="43.54692" lon="12.344135"><ele>682.0</ele><time>2026-04-22T11:02:38.708Z</time></trkpt><trkpt lat="43.5468767" lon="12.34421"><ele>682.0</ele><time>2026-04-22T11:02:41.708Z</time></trkpt><trkpt lat="43.546825" lon="12.3443267"><ele>682.0</ele><time>2026-04-22T11:02:44.708Z</time></trkpt><trkpt lat="43.5467933" lon="12.3444383"><ele>682.0</ele><time>2026-04-22T11:02:46.708Z</time></trkpt><trkpt lat="43.5467533" lon="12.34456"><ele>682.0</ele><time>2026-04-22T11:02:48.708Z</time></trkpt><trkpt lat="43.54671" lon="12.34467"><ele>682.0</ele><time>2026-04-22T11:02:50.708Z</time></trkpt><trkpt lat="43.54666" lon="12.3448117"><ele>682.0</ele><time>2026-04-22T11:02:52.708Z</time></trkpt><trkpt lat="43.5466" lon="12.344955"><ele>682.0</ele><time>2026-04-22T11:02:54.709Z</time></trkpt><trkpt lat="43.546545" lon="12.3451133"><ele>684.4000000000001</ele><time>2026-04-22T11:02:56.708Z</time></trkpt><trkpt lat="43.5465167" lon="12.345195"><ele>686.8000000000001</ele><time>2026-04-22T11:02:57.708Z</time></trkpt><trkpt lat="43.5464683" lon="12.3453367"><ele>689.2</ele><time>2026-04-22T11:02:59.709Z</time></trkpt><trkpt lat="43.5463983" lon="12.345465"><ele>691.6</ele><time>2026-04-22T11:03:01.708Z</time></trkpt><trkpt lat="43.5463283" lon="12.3455617"><ele>694.0</ele><time>2026-04-22T11:03:03.708Z</time></trkpt><trkpt lat="43.5462733" lon="12.345645"><ele>696.2</ele><time>2026-04-22T11:03:05.708Z</time></trkpt><trkpt lat="43.5462417" lon="12.3457467"><ele>698.4000000000001</ele><time>2026-04-22T11:03:07.708Z</time></trkpt><trkpt lat="43.5462833" lon="12.345875"><ele>700.6</ele><time>2026-04-22T11:03:10.708Z</time></trkpt><trkpt lat="43.546345" lon="12.3459883"><ele>702.8</ele><time>2026-04-22T11:03:12.708Z</time></trkpt><trkpt lat="43.546395" lon="12.3461417"><ele>705.0</ele><time>2026-04-22T11:03:14.708Z</time></trkpt><trkpt lat="43.5464083" lon="12.3462867"><ele>705.3333333333334</ele><time>2026-04-22T11:03:16.708Z</time></trkpt><trkpt lat="43.546385" lon="12.3464117"><ele>705.6666666666666</ele><time>2026-04-22T11:03:18.708Z</time></trkpt><trkpt lat="43.5463483" lon="12.3465383"><ele>706.0</ele><time>2026-04-22T11:03:20.708Z</time></trkpt><trkpt lat="43.5462683" lon="12.3466567"><ele>706.3333333333333</ele><time>2026-04-22T11:03:22.708Z</time></trkpt><trkpt lat="43.5462267" lon="12.34673"><ele>706.6666666666666</ele><time>2026-04-22T11:03:23.708Z</time></trkpt><trkpt lat="43.5461867" lon="12.3468"><ele>707.0</ele><time>2026-04-22T11:03:24.708Z</time></trkpt><trkpt lat="43.5461267" lon="12.3469333"><ele>705.25</ele><time>2026-04-22T11:03:26.709Z</time></trkpt><trkpt lat="43.546115" lon="12.347065"><ele>703.5</ele><time>2026-04-22T11:03:28.708Z</time></trkpt><trkpt lat="43.546165" lon="12.3471917"><ele>701.75</ele><time>2026-04-22T11:03:30.708Z</time></trkpt><trkpt lat="43.5462567" lon="12.34731"><ele>700.0</ele><time>2026-04-22T11:03:32.708Z</time></trkpt><trkpt lat="43.5463483" lon="12.347425"><ele>700.0</ele><time>2026-04-22T11:03:34.709Z</time></trkpt><trkpt lat="43.5463983" lon="12.347495"><ele>700.0</ele><time>2026-04-22T11:03:35.708Z</time></trkpt><trkpt lat="43.5464467" lon="12.347565"><ele>700.0</ele><time>2026-04-22T11:03:36.709Z</time></trkpt><trkpt lat="43.5464967" lon="12.34763"><ele>700.0</ele><time>2026-04-22T11:03:37.708Z</time></trkpt><trkpt lat="43.546545" lon="12.34771"><ele>700.0</ele><time>2026-04-22T11:03:38.708Z</time></trkpt><trkpt lat="43.5465867" lon="12.3477917"><ele>700.0</ele><time>2026-04-22T11:03:39.708Z</time></trkpt><trkpt lat="43.5466367" lon="12.3478867"><ele>700.0</ele><time>2026-04-22T11:03:40.708Z</time></trkpt><trkpt lat="43.5466867" lon="12.3479667"><ele>696.5</ele><time>2026-04-22T11:03:41.708Z</time></trkpt><trkpt lat="43.5467317" lon="12.3480567"><ele>693.0</ele><time>2026-04-22T11:03:42.708Z</time></trkpt><trkpt lat="43.5467767" lon="12.34815"><ele>689.5</ele><time>2026-04-22T11:03:43.708Z</time></trkpt><trkpt lat="43.54682" lon="12.3482383"><ele>686.0</ele><time>2026-04-22T11:03:44.708Z</time></trkpt><trkpt lat="43.54687" lon="12.3483217"><ele>682.5</ele><time>2026-04-22T11:03:45.708Z</time></trkpt><trkpt lat="43.54692" lon="12.3484033"><ele>679.0</ele><time>2026-04-22T11:03:46.708Z</time></trkpt><trkpt lat="43.5469667" lon="12.3484733"><ele>679.0</ele><time>2026-04-22T11:03:47.708Z</time></trkpt><trkpt lat="43.5470417" lon="12.3485733"><ele>679.0</ele><time>2026-04-22T11:03:49.708Z</time></trkpt><trkpt lat="43.547095" lon="12.34865"><ele>679.0</ele><time>2026-04-22T11:03:51.708Z</time></trkpt><trkpt lat="43.54714" lon="12.34875"><ele>679.0</ele><time>2026-04-22T11:03:54.708Z</time></trkpt><trkpt lat="43.5471867" lon="12.3488567"><ele>679.0</ele><time>2026-04-22T11:03:56.708Z</time></trkpt><trkpt lat="43.5472533" lon="12.3489717"><ele>682.2</ele><time>2026-04-22T11:03:58.708Z</time></trkpt><trkpt lat="43.5473483" lon="12.3490867"><ele>685.4000000000001</ele><time>2026-04-22T11:04:00.709Z</time></trkpt><trkpt lat="43.547395" lon="12.349155"><ele>688.6</ele><time>2026-04-22T11:04:01.708Z</time></trkpt><trkpt lat="43.54744" lon="12.349285"><ele>691.8</ele><time>2026-04-22T11:04:03.708Z</time></trkpt><trkpt lat="43.54749" lon="12.3494233"><ele>695.0</ele><time>2026-04-22T11:04:05.708Z</time></trkpt><trkpt lat="43.5475617" lon="12.3495133"><ele>695.0</ele><time>2026-04-22T11:04:07.708Z</time></trkpt><trkpt lat="43.54766" lon="12.34956"><ele>695.0</ele><time>2026-04-22T11:04:09.708Z</time></trkpt><trkpt lat="43.547725" lon="12.34958"><ele>695.0</ele><time>2026-04-22T11:04:10.708Z</time></trkpt><trkpt lat="43.5477967" lon="12.3495983"><ele>695.0</ele><time>2026-04-22T11:04:11.708Z</time></trkpt><trkpt lat="43.54787" lon="12.3496183"><ele>695.0</ele><time>2026-04-22T11:04:12.708Z</time></trkpt><trkpt lat="43.547945" lon="12.3496383"><ele>695.0</ele><time>2026-04-22T11:04:13.708Z</time></trkpt><trkpt lat="43.5480183" lon="12.3496667"><ele>694.1428571428572</ele><time>2026-04-22T11:04:14.708Z</time></trkpt><trkpt lat="43.5480917" lon="12.3496933"><ele>693.2857142857143</ele><time>2026-04-22T11:04:15.708Z</time></trkpt><trkpt lat="43.5481633" lon="12.3497283"><ele>692.4285714285714</ele><time>2026-04-22T11:04:16.708Z</time></trkpt><trkpt lat="43.548235" lon="12.3497533"><ele>691.5714285714287</ele><time>2026-04-22T11:04:17.708Z</time></trkpt><trkpt lat="43.54831" lon="12.349775"><ele>690.7142857142858</ele><time>2026-04-22T11:04:18.708Z</time></trkpt><trkpt lat="43.548375" lon="12.3498083"><ele>689.8571428571429</ele><time>2026-04-22T11:04:19.708Z</time></trkpt><trkpt lat="43.5484417" lon="12.34982"><ele>689.0</ele><time>2026-04-22T11:04:20.708Z</time></trkpt><trkpt lat="43.54851" lon="12.3498233"><ele>689.0</ele><time>2026-04-22T11:04:21.708Z</time></trkpt><trkpt lat="43.548575" lon="12.349815"><ele>689.0</ele><time>2026-04-22T11:04:22.708Z</time></trkpt><trkpt lat="43.5486533" lon="12.3497883"><ele>689.0</ele><time>2026-04-22T11:04:23.709Z</time></trkpt><trkpt lat="43.5487333" lon="12.3497583"><ele>689.0</ele><time>2026-04-22T11:04:24.708Z</time></trkpt><trkpt lat="43.5488017" lon="12.3497283"><ele>689.0</ele><time>2026-04-22T11:04:25.708Z</time></trkpt><trkpt lat="43.548875" lon="12.3496983"><ele>689.0</ele><time>2026-04-22T11:04:26.708Z</time></trkpt><trkpt lat="43.548945" lon="12.3496617"><ele>690.5</ele><time>2026-04-22T11:04:27.709Z</time></trkpt><trkpt lat="43.5490133" lon="12.3496333"><ele>692.0</ele><time>2026-04-22T11:04:28.708Z</time></trkpt><trkpt lat="43.5491417" lon="12.3496"><ele>693.5</ele><time>2026-04-22T11:04:30.708Z</time></trkpt><trkpt lat="43.5492083" lon="12.349585"><ele>695.0</ele><time>2026-04-22T11:04:31.708Z</time></trkpt><trkpt lat="43.5492733" lon="12.3495583"><ele>696.5</ele><time>2026-04-22T11:04:32.709Z</time></trkpt><trkpt lat="43.5493383" lon="12.34953"><ele>698.0</ele><time>2026-04-22T11:04:33.708Z</time></trkpt><trkpt lat="43.5494" lon="12.3495017"><ele>698.0</ele><time>2026-04-22T11:04:34.708Z</time></trkpt><trkpt lat="43.5494633" lon="12.3494717"><ele>698.0</ele><time>2026-04-22T11:04:35.708Z</time></trkpt><trkpt lat="43.5495333" lon="12.3494417"><ele>698.0</ele><time>2026-04-22T11:04:36.708Z</time></trkpt><trkpt lat="43.5496067" lon="12.3494033"><ele>698.0</ele><time>2026-04-22T11:04:37.708Z</time></trkpt><trkpt lat="43.5496817" lon="12.349365"><ele>698.0</ele><time>2026-04-22T11:04:38.708Z</time></trkpt><trkpt lat="43.549755" lon="12.3493267"><ele>698.0</ele><time>2026-04-22T11:04:39.708Z</time></trkpt><trkpt lat="43.549825" lon="12.34929"><ele>697.8</ele><time>2026-04-22T11:04:40.708Z</time></trkpt><trkpt lat="43.54989" lon="12.3492667"><ele>697.5999999999999</ele><time>2026-04-22T11:04:41.708Z</time></trkpt><trkpt lat="43.5499933" lon="12.34925"><ele>697.4000000000001</ele><time>2026-04-22T11:04:43.708Z</time></trkpt><trkpt lat="43.55009" lon="12.3492683"><ele>697.2</ele><time>2026-04-22T11:04:45.708Z</time></trkpt><trkpt lat="43.5501883" lon="12.34929"><ele>697.0</ele><time>2026-04-22T11:04:47.708Z</time></trkpt><trkpt lat="43.5502917" lon="12.3493183"><ele>697.5</ele><time>2026-04-22T11:04:49.708Z</time></trkpt><trkpt lat="43.5503967" lon="12.349375"><ele>698.0</ele><time>2026-04-22T11:04:51.708Z</time></trkpt><trkpt lat="43.5504817" lon="12.3494783"><ele>698.5</ele><time>2026-04-22T11:04:53.708Z</time></trkpt><trkpt lat="43.55054" lon="12.3495967"><ele>699.0</ele><time>2026-04-22T11:04:55.708Z</time></trkpt><trkpt lat="43.55058" lon="12.349755"><ele>699.6</ele><time>2026-04-22T11:04:57.708Z</time></trkpt><trkpt lat="43.5505883" lon="12.349895"><ele>700.2</ele><time>2026-04-22T11:04:59.708Z</time></trkpt><trkpt lat="43.5505583" lon="12.3500033"><ele>700.8000000000001</ele><time>2026-04-22T11:05:01.708Z</time></trkpt><trkpt lat="43.550505" lon="12.350075"><ele>701.4000000000001</ele><time>2026-04-22T11:05:03.708Z</time></trkpt><trkpt lat="43.55042" lon="12.3501467"><ele>702.0</ele><time>2026-04-22T11:05:05.708Z</time></trkpt><trkpt lat="43.5503217" lon="12.3502583"><ele>698.5</ele><time>2026-04-22T11:05:07.708Z</time></trkpt><trkpt lat="43.5502633" lon="12.35033"><ele>695.0</ele><time>2026-04-22T11:05:08.708Z</time></trkpt><trkpt lat="43.55021" lon="12.3503967"><ele>691.5</ele><time>2026-04-22T11:05:09.708Z</time></trkpt><trkpt lat="43.5501583" lon="12.3504783"><ele>688.0</ele><time>2026-04-22T11:05:10.708Z</time></trkpt><trkpt lat="43.5501083" lon="12.3505617"><ele>684.5</ele><time>2026-04-22T11:05:11.708Z</time></trkpt><trkpt lat="43.55006" lon="12.3506383"><ele>681.0</ele><time>2026-04-22T11:05:12.708Z</time></trkpt><trkpt lat="43.5500083" lon="12.3507167"><ele>681.0</ele><time>2026-04-22T11:05:13.708Z</time></trkpt><trkpt lat="43.5499683" lon="12.350795"><ele>681.0</ele><time>2026-04-22T11:05:14.708Z</time></trkpt><trkpt lat="43.5499317" lon="12.3508783"><ele>681.0</ele><time>2026-04-22T11:05:15.708Z</time></trkpt><trkpt lat="43.5499067" lon="12.3509717"><ele>681.0</ele><time>2026-04-22T11:05:16.708Z</time></trkpt><trkpt lat="43.5498867" lon="12.3510733"><ele>681.0</ele><time>2026-04-22T11:05:17.708Z</time></trkpt><trkpt lat="43.5498633" lon="12.3511967"><ele>681.0</ele><time>2026-04-22T11:05:18.709Z</time></trkpt><trkpt lat="43.5498517" lon="12.351335"><ele>682.1666666666666</ele><time>2026-04-22T11:05:19.708Z</time></trkpt><trkpt lat="43.54984" lon="12.35146"><ele>683.3333333333334</ele><time>2026-04-22T11:05:20.708Z</time></trkpt><trkpt lat="43.5498333" lon="12.3515783"><ele>684.5</ele><time>2026-04-22T11:05:21.708Z</time></trkpt><trkpt lat="43.54982" lon="12.351685"><ele>685.6666666666667</ele><time>2026-04-22T11:05:22.708Z</time></trkpt><trkpt lat="43.5497933" lon="12.3517967"><ele>686.8333333333334</ele><time>2026-04-22T11:05:23.708Z</time></trkpt><trkpt lat="43.54976" lon="12.3518933"><ele>688.0</ele><time>2026-04-22T11:05:24.708Z</time></trkpt><trkpt lat="43.54972" lon="12.3519883"><ele>688.0</ele><time>2026-04-22T11:05:25.708Z</time></trkpt><trkpt lat="43.5496817" lon="12.3520867"><ele>688.0</ele><time>2026-04-22T11:05:26.708Z</time></trkpt><trkpt lat="43.5496467" lon="12.3521783"><ele>688.0</ele><time>2026-04-22T11:05:27.709Z</time></trkpt><trkpt lat="43.5496183" lon="12.3522583"><ele>688.0</ele><time>2026-04-22T11:05:28.708Z</time></trkpt><trkpt lat="43.5495933" lon="12.3523883"><ele>688.0</ele><time>2026-04-22T11:05:30.709Z</time></trkpt><trkpt lat="43.5496267" lon="12.3525167"><ele>688.0</ele><time>2026-04-22T11:05:32.708Z</time></trkpt><trkpt lat="43.5497033" lon="12.3526417"><ele>686.5999999999999</ele><time>2026-04-22T11:05:34.709Z</time></trkpt><trkpt lat="43.549795" lon="12.3527283"><ele>685.1999999999999</ele><time>2026-04-22T11:05:36.708Z</time></trkpt><trkpt lat="43.549885" lon="12.3527533"><ele>683.8</ele><time>2026-04-22T11:05:38.708Z</time></trkpt><trkpt lat="43.5499833" lon="12.352725"><ele>682.4</ele><time>2026-04-22T11:05:40.708Z</time></trkpt><trkpt lat="43.5501" lon="12.352685"><ele>681.0</ele><time>2026-04-22T11:05:42.708Z</time></trkpt><trkpt lat="43.5502283" lon="12.352655"><ele>681.0</ele><time>2026-04-22T11:05:44.708Z</time></trkpt><trkpt lat="43.5502933" lon="12.3526433"><ele>681.0</ele><time>2026-04-22T11:05:45.708Z</time></trkpt><trkpt lat="43.550365" lon="12.3526267"><ele>681.0</ele><time>2026-04-22T11:05:46.709Z</time></trkpt><trkpt lat="43.5504333" lon="12.3526167"><ele>681.0</ele><time>2026-04-22T11:05:47.708Z</time></trkpt><trkpt lat="43.5504983" lon="12.352615"><ele>681.0</ele><time>2026-04-22T11:05:48.708Z</time></trkpt><trkpt lat="43.5505683" lon="12.3526217"><ele>681.0</ele><time>2026-04-22T11:05:49.708Z</time></trkpt><trkpt lat="43.5506833" lon="12.35268"><ele>681.8333333333334</ele><time>2026-04-22T11:05:51.708Z</time></trkpt><trkpt lat="43.5507483" lon="12.3527217"><ele>682.6666666666666</ele><time>2026-04-22T11:05:52.709Z</time></trkpt><trkpt lat="43.5508017" lon="12.3527833"><ele>683.5</ele><time>2026-04-22T11:05:53.709Z</time></trkpt><trkpt lat="43.550845" lon="12.3528583"><ele>684.3333333333333</ele><time>2026-04-22T11:05:54.708Z</time></trkpt><trkpt lat="43.5508717" lon="12.3529417"><ele>685.1666666666666</ele><time>2026-04-22T11:05:55.708Z</time></trkpt><trkpt lat="43.5508817" lon="12.3531183"><ele>686.0</ele><time>2026-04-22T11:05:57.709Z</time></trkpt><trkpt lat="43.5508733" lon="12.3532167"><ele>682.5</ele><time>2026-04-22T11:05:58.708Z</time></trkpt><trkpt lat="43.5508617" lon="12.3533167"><ele>679.0</ele><time>2026-04-22T11:05:59.709Z</time></trkpt><trkpt lat="43.5508433" lon="12.3534183"><ele>675.5</ele><time>2026-04-22T11:06:00.708Z</time></trkpt><trkpt lat="43.5508383" lon="12.35352"><ele>672.0</ele><time>2026-04-22T11:06:01.708Z</time></trkpt><trkpt lat="43.5508333" lon="12.3536183"><ele>668.5</ele><time>2026-04-22T11:06:02.708Z</time></trkpt><trkpt lat="43.550855" lon="12.3537617"><ele>665.0</ele><time>2026-04-22T11:06:04.708Z</time></trkpt><trkpt lat="43.5509317" lon="12.353865"><ele>665.0</ele><time>2026-04-22T11:06:06.708Z</time></trkpt><trkpt lat="43.55104" lon="12.35389"><ele>665.0</ele><time>2026-04-22T11:06:08.708Z</time></trkpt><trkpt lat="43.5511083" lon="12.3538717"><ele>665.0</ele><time>2026-04-22T11:06:09.708Z</time></trkpt><trkpt lat="43.551175" lon="12.3538467"><ele>665.0</ele><time>2026-04-22T11:06:10.708Z</time></trkpt><trkpt lat="43.5512417" lon="12.3538317"><ele>665.0</ele><time>2026-04-22T11:06:11.708Z</time></trkpt><trkpt lat="43.551305" lon="12.35382"><ele>665.0</ele><time>2026-04-22T11:06:12.709Z</time></trkpt><trkpt lat="43.5513733" lon="12.353805"><ele>665.0</ele><time>2026-04-22T11:06:13.708Z</time></trkpt><trkpt lat="43.5514433" lon="12.353815"><ele>664.7142857142857</ele><time>2026-04-22T11:06:14.708Z</time></trkpt><trkpt lat="43.55151" lon="12.3538383"><ele>664.4285714285714</ele><time>2026-04-22T11:06:15.708Z</time></trkpt><trkpt lat="43.5515733" lon="12.3538717"><ele>664.1428571428571</ele><time>2026-04-22T11:06:16.708Z</time></trkpt><trkpt lat="43.5516283" lon="12.3539283"><ele>663.8571428571429</ele><time>2026-04-22T11:06:17.708Z</time></trkpt><trkpt lat="43.551675" lon="12.3539967"><ele>663.5714285714286</ele><time>2026-04-22T11:06:18.708Z</time></trkpt><trkpt lat="43.5517067" lon="12.35408"><ele>663.2857142857142</ele><time>2026-04-22T11:06:19.708Z</time></trkpt><trkpt lat="43.5517267" lon="12.3541767"><ele>663.0</ele><time>2026-04-22T11:06:20.708Z</time></trkpt><trkpt lat="43.551745" lon="12.3542767"><ele>662.9999999999999</ele><time>2026-04-22T11:06:21.708Z</time></trkpt><trkpt lat="43.5517417" lon="12.35438"><ele>663.0</ele><time>2026-04-22T11:06:22.708Z</time></trkpt><trkpt lat="43.5517383" lon="12.3544733"><ele>663.0</ele><time>2026-04-22T11:06:23.708Z</time></trkpt><trkpt lat="43.5517333" lon="12.3545617"><ele>663.0</ele><time>2026-04-22T11:06:24.709Z</time></trkpt><trkpt lat="43.551735" lon="12.35465"><ele>663.0</ele><time>2026-04-22T11:06:25.709Z</time></trkpt><trkpt lat="43.5517417" lon="12.354795"><ele>662.9999999999999</ele><time>2026-04-22T11:06:27.708Z</time></trkpt><trkpt lat="43.551775" lon="12.35488"><ele>663.0</ele><time>2026-04-22T11:06:29.708Z</time></trkpt><trkpt lat="43.5518383" lon="12.35493"><ele>662.4285714285713</ele><time>2026-04-22T11:06:31.708Z</time></trkpt><trkpt lat="43.5519333" lon="12.354925"><ele>661.8571428571429</ele><time>2026-04-22T11:06:33.708Z</time></trkpt><trkpt lat="43.5519983" lon="12.3549133"><ele>661.2857142857142</ele><time>2026-04-22T11:06:34.709Z</time></trkpt><trkpt lat="43.5520633" lon="12.3549033"><ele>660.7142857142857</ele><time>2026-04-22T11:06:35.708Z</time></trkpt><trkpt lat="43.5521417" lon="12.3548867"><ele>660.1428571428571</ele><time>2026-04-22T11:06:36.708Z</time></trkpt><trkpt lat="43.552215" lon="12.3548817"><ele>659.5714285714286</ele><time>2026-04-22T11:06:37.708Z</time></trkpt><trkpt lat="43.5522817" lon="12.354905"><ele>659.0</ele><time>2026-04-22T11:06:38.708Z</time></trkpt><trkpt lat="43.552345" lon="12.3549467"><ele>659.6666666666666</ele><time>2026-04-22T11:06:39.708Z</time></trkpt><trkpt lat="43.5524183" lon="12.355095"><ele>660.3333333333333</ele><time>2026-04-22T11:06:41.708Z</time></trkpt><trkpt lat="43.5524517" lon="12.3551767"><ele>661.0</ele><time>2026-04-22T11:06:42.708Z</time></trkpt><trkpt lat="43.5524617" lon="12.3552717"><ele>661.6666666666666</ele><time>2026-04-22T11:06:43.708Z</time></trkpt><trkpt lat="43.5524767" lon="12.355365"><ele>662.3333333333334</ele><time>2026-04-22T11:06:44.708Z</time></trkpt><trkpt lat="43.5524867" lon="12.35546"><ele>663.0</ele><time>2026-04-22T11:06:45.708Z</time></trkpt><trkpt lat="43.552495" lon="12.355565"><ele>663.0</ele><time>2026-04-22T11:06:46.708Z</time></trkpt><trkpt lat="43.5525133" lon="12.3556733"><ele>663.0</ele><time>2026-04-22T11:06:47.708Z</time></trkpt><trkpt lat="43.552525" lon="12.3557733"><ele>663.0</ele><time>2026-04-22T11:06:48.708Z</time></trkpt><trkpt lat="43.5525333" lon="12.3559233"><ele>663.0</ele><time>2026-04-22T11:06:50.708Z</time></trkpt><trkpt lat="43.552575" lon="12.356015"><ele>663.0</ele><time>2026-04-22T11:06:52.708Z</time></trkpt><trkpt lat="43.55265" lon="12.3560633"><ele>663.0</ele><time>2026-04-22T11:06:54.708Z</time></trkpt><trkpt lat="43.5527467" lon="12.356045"><ele>663.0</ele><time>2026-04-22T11:06:56.708Z</time></trkpt><trkpt lat="43.5528517" lon="12.3559683"><ele>663.0</ele><time>2026-04-22T11:06:58.708Z</time></trkpt><trkpt lat="43.5529533" lon="12.355925"><ele>663.0</ele><time>2026-04-22T11:07:00.708Z</time></trkpt><trkpt lat="43.5530717" lon="12.3559717"><ele>663.0</ele><time>2026-04-22T11:07:02.708Z</time></trkpt><trkpt lat="43.5531383" lon="12.3560067"><ele>663.0</ele><time>2026-04-22T11:07:03.708Z</time></trkpt><trkpt lat="43.5531933" lon="12.3560617"><ele>664.1666666666666</ele><time>2026-04-22T11:07:04.707Z</time></trkpt><trkpt lat="43.5532367" lon="12.3561283"><ele>665.3333333333334</ele><time>2026-04-22T11:07:05.707Z</time></trkpt><trkpt lat="43.553265" lon="12.3562083"><ele>666.5</ele><time>2026-04-22T11:07:06.707Z</time></trkpt><trkpt lat="43.5533133" lon="12.3563483"><ele>667.6666666666667</ele><time>2026-04-22T11:07:08.707Z</time></trkpt><trkpt lat="43.5533967" lon="12.3563733"><ele>668.8333333333334</ele><time>2026-04-22T11:07:10.707Z</time></trkpt><trkpt lat="43.5534867" lon="12.3563033"><ele>670.0</ele><time>2026-04-22T11:07:12.707Z</time></trkpt><trkpt lat="43.5535767" lon="12.35623"><ele>670.0</ele><time>2026-04-22T11:07:14.707Z</time></trkpt><trkpt lat="43.55368" lon="12.3562133"><ele>670.0</ele><time>2026-04-22T11:07:16.707Z</time></trkpt><trkpt lat="43.5538017" lon="12.3562533"><ele>670.0</ele><time>2026-04-22T11:07:18.707Z</time></trkpt><trkpt lat="43.5538967" lon="12.3563633"><ele>670.0</ele><time>2026-04-22T11:07:20.707Z</time></trkpt><trkpt lat="43.5539317" lon="12.3564433"><ele>670.0</ele><time>2026-04-22T11:07:21.707Z</time></trkpt><trkpt lat="43.5539617" lon="12.3565233"><ele>664.6</ele><time>2026-04-22T11:07:22.707Z</time></trkpt><trkpt lat="43.5539933" lon="12.3566017"><ele>659.2</ele><time>2026-04-22T11:07:23.707Z</time></trkpt><trkpt lat="43.5540433" lon="12.3567483"><ele>653.8</ele><time>2026-04-22T11:07:25.707Z</time></trkpt><trkpt lat="43.5540967" lon="12.3568533"><ele>648.4</ele><time>2026-04-22T11:07:27.707Z</time></trkpt><trkpt lat="43.5541867" lon="12.35688"><ele>643.0</ele><time>2026-04-22T11:07:29.707Z</time></trkpt><trkpt lat="43.554305" lon="12.3568433"><ele>643.0</ele><time>2026-04-22T11:07:31.707Z</time></trkpt><trkpt lat="43.554375" lon="12.356815"><ele>643.0</ele><time>2026-04-22T11:07:32.707Z</time></trkpt><trkpt lat="43.5544467" lon="12.3567917"><ele>643.0</ele><time>2026-04-22T11:07:33.707Z</time></trkpt><trkpt lat="43.554525" lon="12.3567783"><ele>643.0</ele><time>2026-04-22T11:07:34.707Z</time></trkpt><trkpt lat="43.5545967" lon="12.35677"><ele>643.0</ele><time>2026-04-22T11:07:35.707Z</time></trkpt><trkpt lat="43.5546783" lon="12.3567617"><ele>643.0</ele><time>2026-04-22T11:07:36.707Z</time></trkpt><trkpt lat="43.5547683" lon="12.356735"><ele>641.3333333333334</ele><time>2026-04-22T11:07:37.708Z</time></trkpt><trkpt lat="43.55486" lon="12.3567133"><ele>639.6666666666667</ele><time>2026-04-22T11:07:38.707Z</time></trkpt><trkpt lat="43.5549433" lon="12.3566883"><ele>638.0</ele><time>2026-04-22T11:07:39.707Z</time></trkpt><trkpt lat="43.5550133" lon="12.35665"><ele>636.3333333333334</ele><time>2026-04-22T11:07:40.707Z</time></trkpt><trkpt lat="43.55508" lon="12.3566033"><ele>634.6666666666666</ele><time>2026-04-22T11:07:41.707Z</time></trkpt><trkpt lat="43.5551367" lon="12.3565417"><ele>633.0</ele><time>2026-04-22T11:07:42.707Z</time></trkpt><trkpt lat="43.5551833" lon="12.3564717"><ele>636.2</ele><time>2026-04-22T11:07:43.707Z</time></trkpt><trkpt lat="43.555235" lon="12.3563117"><ele>639.4</ele><time>2026-04-22T11:07:45.707Z</time></trkpt><trkpt lat="43.5552333" lon="12.356215"><ele>642.6</ele><time>2026-04-22T11:07:46.708Z</time></trkpt><trkpt lat="43.555225" lon="12.3560617"><ele>645.8000000000001</ele><time>2026-04-22T11:07:48.707Z</time></trkpt><trkpt lat="43.55528" lon="12.355975"><ele>649.0</ele><time>2026-04-22T11:07:50.707Z</time></trkpt><trkpt lat="43.5553617" lon="12.356015"><ele>650.6</ele><time>2026-04-22T11:07:52.707Z</time></trkpt><trkpt lat="43.5554583" lon="12.3561533"><ele>652.2</ele><time>2026-04-22T11:07:54.707Z</time></trkpt><trkpt lat="43.5555067" lon="12.35626"><ele>653.8000000000001</ele><time>2026-04-22T11:07:55.707Z</time></trkpt><trkpt lat="43.5555567" lon="12.3563667"><ele>655.4000000000001</ele><time>2026-04-22T11:07:56.707Z</time></trkpt><trkpt lat="43.5556033" lon="12.35647"><ele>657.0</ele><time>2026-04-22T11:07:57.708Z</time></trkpt><trkpt lat="43.555645" lon="12.3565667"><ele>653.3333333333334</ele><time>2026-04-22T11:07:58.708Z</time></trkpt><trkpt lat="43.5556783" lon="12.3566633"><ele>649.6666666666666</ele><time>2026-04-22T11:07:59.708Z</time></trkpt><trkpt lat="43.55571" lon="12.35675"><ele>646.0</ele><time>2026-04-22T11:08:00.708Z</time></trkpt><trkpt lat="43.5557467" lon="12.3568283"><ele>642.3333333333333</ele><time>2026-04-22T11:08:01.707Z</time></trkpt><trkpt lat="43.5557917" lon="12.3568917"><ele>638.6666666666666</ele><time>2026-04-22T11:08:02.707Z</time></trkpt><trkpt lat="43.555845" lon="12.3569483"><ele>635.0</ele><time>2026-04-22T11:08:03.708Z</time></trkpt><trkpt lat="43.5559583" lon="12.35702"><ele>634.9999999999999</ele><time>2026-04-22T11:08:05.707Z</time></trkpt><trkpt lat="43.5560267" lon="12.3570433"><ele>635.0</ele><time>2026-04-22T11:08:06.707Z</time></trkpt><trkpt lat="43.5560983" lon="12.3570783"><ele>635.0</ele><time>2026-04-22T11:08:07.707Z</time></trkpt><trkpt lat="43.5561617" lon="12.3571217"><ele>635.0</ele><time>2026-04-22T11:08:08.708Z</time></trkpt><trkpt lat="43.5562283" lon="12.3571617"><ele>635.0</ele><time>2026-04-22T11:08:09.707Z</time></trkpt><trkpt lat="43.556295" lon="12.3571967"><ele>634.9999999999999</ele><time>2026-04-22T11:08:10.707Z</time></trkpt><trkpt lat="43.5563583" lon="12.3572233"><ele>635.0</ele><time>2026-04-22T11:08:11.707Z</time></trkpt><trkpt lat="43.5564383" lon="12.3573033"><ele>635.8</ele><time>2026-04-22T11:08:13.707Z</time></trkpt><trkpt lat="43.55646" lon="12.3574183"><ele>636.6</ele><time>2026-04-22T11:08:15.707Z</time></trkpt><trkpt lat="43.55641" lon="12.3575417"><ele>637.4</ele><time>2026-04-22T11:08:17.707Z</time></trkpt><trkpt lat="43.55632" lon="12.357615"><ele>638.2</ele><time>2026-04-22T11:08:19.707Z</time></trkpt><trkpt lat="43.5562267" lon="12.3576167"><ele>639.0</ele><time>2026-04-22T11:08:21.707Z</time></trkpt><trkpt lat="43.5561117" lon="12.3575817"><ele>637.3333333333334</ele><time>2026-04-22T11:08:23.707Z</time></trkpt><trkpt lat="43.5559983" lon="12.357575"><ele>635.6666666666666</ele><time>2026-04-22T11:08:25.707Z</time></trkpt><trkpt lat="43.555935" lon="12.3575967"><ele>634.0</ele><time>2026-04-22T11:08:26.708Z</time></trkpt><trkpt lat="43.555865" lon="12.35763"><ele>632.3333333333333</ele><time>2026-04-22T11:08:27.707Z</time></trkpt><trkpt lat="43.5557933" lon="12.3576533"><ele>630.6666666666666</ele><time>2026-04-22T11:08:28.707Z</time></trkpt><trkpt lat="43.555725" lon="12.3576567"><ele>629.0</ele><time>2026-04-22T11:08:29.707Z</time></trkpt><trkpt lat="43.555605" lon="12.3576567"><ele>629.0</ele><time>2026-04-22T11:08:31.707Z</time></trkpt><trkpt lat="43.5555017" lon="12.3577367"><ele>629.0</ele><time>2026-04-22T11:08:33.707Z</time></trkpt><trkpt lat="43.55546" lon="12.3578083"><ele>629.0</ele><time>2026-04-22T11:08:34.707Z</time></trkpt><trkpt lat="43.5554317" lon="12.3579083"><ele>629.0</ele><time>2026-04-22T11:08:35.707Z</time></trkpt><trkpt lat="43.5554" lon="12.35802"><ele>629.0</ele><time>2026-04-22T11:08:36.707Z</time></trkpt><trkpt lat="43.5553683" lon="12.3581333"><ele>629.0</ele><time>2026-04-22T11:08:37.707Z</time></trkpt><trkpt lat="43.55533" lon="12.3582567"><ele>629.5</ele><time>2026-04-22T11:08:38.707Z</time></trkpt><trkpt lat="43.5552917" lon="12.35838"><ele>630.0</ele><time>2026-04-22T11:08:39.707Z</time></trkpt><trkpt lat="43.5552617" lon="12.3584667"><ele>630.5</ele><time>2026-04-22T11:08:40.707Z</time></trkpt><trkpt lat="43.55517" lon="12.3585867"><ele>631.0</ele><time>2026-04-22T11:08:42.707Z</time></trkpt><trkpt lat="43.55511" lon="12.3586217"><ele>631.5</ele><time>2026-04-22T11:08:43.707Z</time></trkpt><trkpt lat="43.5550383" lon="12.3586283"><ele>632.0</ele><time>2026-04-22T11:08:44.707Z</time></trkpt><trkpt lat="43.5549533" lon="12.35863"><ele>632.0</ele><time>2026-04-22T11:08:45.707Z</time></trkpt><trkpt lat="43.55488" lon="12.3586317"><ele>632.0</ele><time>2026-04-22T11:08:46.707Z</time></trkpt><trkpt lat="43.5548117" lon="12.3586433"><ele>632.0</ele><time>2026-04-22T11:08:47.707Z</time></trkpt><trkpt lat="43.5547417" lon="12.3586667"><ele>632.0</ele><time>2026-04-22T11:08:48.708Z</time></trkpt><trkpt lat="43.55467" lon="12.3587033"><ele>632.0</ele><time>2026-04-22T11:08:49.707Z</time></trkpt><trkpt lat="43.5545967" lon="12.3587517"><ele>632.0</ele><time>2026-04-22T11:08:50.707Z</time></trkpt><trkpt lat="43.5545217" lon="12.35882"><ele>636.3333333333333</ele><time>2026-04-22T11:08:51.707Z</time></trkpt><trkpt lat="43.55445" lon="12.358895"><ele>640.6666666666666</ele><time>2026-04-22T11:08:52.707Z</time></trkpt><trkpt lat="43.5543783" lon="12.358985"><ele>645.0</ele><time>2026-04-22T11:08:53.707Z</time></trkpt><trkpt lat="43.5543117" lon="12.3590683"><ele>649.3333333333334</ele><time>2026-04-22T11:08:54.707Z</time></trkpt><trkpt lat="43.5542383" lon="12.35912"><ele>653.6666666666667</ele><time>2026-04-22T11:08:55.707Z</time></trkpt><trkpt lat="43.55417" lon="12.35915"><ele>658.0</ele><time>2026-04-22T11:08:56.707Z</time></trkpt><trkpt lat="43.5540917" lon="12.3591683"><ele>658.0</ele><time>2026-04-22T11:08:57.708Z</time></trkpt><trkpt lat="43.554" lon="12.3591783"><ele>658.0</ele><time>2026-04-22T11:08:58.707Z</time></trkpt><trkpt lat="43.5539067" lon="12.3591783"><ele>658.0</ele><time>2026-04-22T11:08:59.707Z</time></trkpt><trkpt lat="43.5538333" lon="12.359185"><ele>658.0</ele><time>2026-04-22T11:09:00.707Z</time></trkpt><trkpt lat="43.5537617" lon="12.359195"><ele>658.0</ele><time>2026-04-22T11:09:01.707Z</time></trkpt><trkpt lat="43.5536867" lon="12.3592267"><ele>658.0</ele><time>2026-04-22T11:09:02.707Z</time></trkpt><trkpt lat="43.55362" lon="12.359265"><ele>657.1666666666667</ele><time>2026-04-22T11:09:03.707Z</time></trkpt><trkpt lat="43.5535483" lon="12.359315"><ele>656.3333333333334</ele><time>2026-04-22T11:09:04.707Z</time></trkpt><trkpt lat="43.5534833" lon="12.3593717"><ele>655.5</ele><time>2026-04-22T11:09:05.707Z</time></trkpt><trkpt lat="43.5534183" lon="12.35944"><ele>654.6666666666666</ele><time>2026-04-22T11:09:06.707Z</time></trkpt><trkpt lat="43.5533633" lon="12.35952"><ele>653.8333333333333</ele><time>2026-04-22T11:09:07.707Z</time></trkpt><trkpt lat="43.5533267" lon="12.3596"><ele>653.0</ele><time>2026-04-22T11:09:08.707Z</time></trkpt><trkpt lat="43.5533033" lon="12.359765"><ele>653.0</ele><time>2026-04-22T11:09:10.707Z</time></trkpt><trkpt lat="43.553345" lon="12.35993"><ele>653.0</ele><time>2026-04-22T11:09:12.707Z</time></trkpt><trkpt lat="43.5534267" lon="12.3600483"><ele>653.0</ele><time>2026-04-22T11:09:14.708Z</time></trkpt><trkpt lat="43.5534917" lon="12.3600917"><ele>653.0</ele><time>2026-04-22T11:09:15.708Z</time></trkpt><trkpt lat="43.5535583" lon="12.360115"><ele>653.0</ele><time>2026-04-22T11:09:16.707Z</time></trkpt><trkpt lat="43.5536367" lon="12.360125"><ele>656.5999999999999</ele><time>2026-04-22T11:09:17.707Z</time></trkpt><trkpt lat="43.553735" lon="12.3601233"><ele>660.1999999999999</ele><time>2026-04-22T11:09:18.707Z</time></trkpt><trkpt lat="43.5538417" lon="12.360115"><ele>663.8</ele><time>2026-04-22T11:09:19.707Z</time></trkpt><trkpt lat="43.5539383" lon="12.3601283"><ele>667.4</ele><time>2026-04-22T11:09:20.707Z</time></trkpt><trkpt lat="43.55402" lon="12.3601383"><ele>671.0</ele><time>2026-04-22T11:09:21.708Z</time></trkpt><trkpt lat="43.554105" lon="12.3601433"><ele>671.0</ele><time>2026-04-22T11:09:22.707Z</time></trkpt><trkpt lat="43.5541917" lon="12.3601533"><ele>671.0</ele><time>2026-04-22T11:09:23.707Z</time></trkpt><trkpt lat="43.5542867" lon="12.3601583"><ele>671.0</ele><time>2026-04-22T11:09:24.707Z</time></trkpt><trkpt lat="43.554385" lon="12.3601567"><ele>671.0</ele><time>2026-04-22T11:09:25.707Z</time></trkpt><trkpt lat="43.5544833" lon="12.3601433"><ele>671.0</ele><time>2026-04-22T11:09:26.707Z</time></trkpt><trkpt lat="43.55459" lon="12.36013"><ele>672.5</ele><time>2026-04-22T11:09:27.707Z</time></trkpt><trkpt lat="43.5546867" lon="12.360125"><ele>674.0</ele><time>2026-04-22T11:09:28.707Z</time></trkpt><trkpt lat="43.554775" lon="12.3601217"><ele>675.5</ele><time>2026-04-22T11:09:29.707Z</time></trkpt><trkpt lat="43.5548533" lon="12.3601367"><ele>677.0</ele><time>2026-04-22T11:09:30.707Z</time></trkpt><trkpt lat="43.5549167" lon="12.3601617"><ele>678.5</ele><time>2026-04-22T11:09:31.707Z</time></trkpt><trkpt lat="43.5549733" lon="12.3602017"><ele>680.0</ele><time>2026-04-22T11:09:32.707Z</time></trkpt><trkpt lat="43.555025" lon="12.36026"><ele>680.0</ele><time>2026-04-22T11:09:33.707Z</time></trkpt><trkpt lat="43.555075" lon="12.36033"><ele>680.0</ele><time>2026-04-22T11:09:34.707Z</time></trkpt><trkpt lat="43.5551283" lon="12.3604033"><ele>680.0</ele><time>2026-04-22T11:09:35.707Z</time></trkpt><trkpt lat="43.5551867" lon="12.3604617"><ele>680.0</ele><time>2026-04-22T11:09:36.707Z</time></trkpt><trkpt lat="43.555255" lon="12.3605117"><ele>680.0</ele><time>2026-04-22T11:09:37.707Z</time></trkpt><trkpt lat="43.5553283" lon="12.360545"><ele>680.0</ele><time>2026-04-22T11:09:38.707Z</time></trkpt><trkpt lat="43.5554083" lon="12.3605633"><ele>681.0</ele><time>2026-04-22T11:09:39.707Z</time></trkpt><trkpt lat="43.5555" lon="12.360575"><ele>682.0</ele><time>2026-04-22T11:09:40.707Z</time></trkpt><trkpt lat="43.5556033" lon="12.360585"><ele>683.0</ele><time>2026-04-22T11:09:41.707Z</time></trkpt><trkpt lat="43.5557117" lon="12.3605983"><ele>684.0</ele><time>2026-04-22T11:09:42.707Z</time></trkpt><trkpt lat="43.5558133" lon="12.3606233"><ele>685.0</ele><time>2026-04-22T11:09:43.707Z</time></trkpt><trkpt lat="43.5559083" lon="12.36066"><ele>685.0</ele><time>2026-04-22T11:09:44.707Z</time></trkpt><trkpt lat="43.556" lon="12.3607117"><ele>685.0</ele><time>2026-04-22T11:09:45.707Z</time></trkpt><trkpt lat="43.556085" lon="12.3607767"><ele>685.0</ele><time>2026-04-22T11:09:46.707Z</time></trkpt><trkpt lat="43.5561683" lon="12.36085"><ele>685.0</ele><time>2026-04-22T11:09:47.707Z</time></trkpt><trkpt lat="43.5562417" lon="12.360925"><ele>685.0</ele><time>2026-04-22T11:09:48.707Z</time></trkpt><trkpt lat="43.55631" lon="12.3609967"><ele>686.8</ele><time>2026-04-22T11:09:49.707Z</time></trkpt><trkpt lat="43.5563833" lon="12.3610767"><ele>688.6</ele><time>2026-04-22T11:09:50.707Z</time></trkpt><trkpt lat="43.556455" lon="12.361165"><ele>690.4000000000001</ele><time>2026-04-22T11:09:51.707Z</time></trkpt><trkpt lat="43.5565167" lon="12.3612667"><ele>692.2</ele><time>2026-04-22T11:09:52.707Z</time></trkpt><trkpt lat="43.5565683" lon="12.3613667"><ele>694.0</ele><time>2026-04-22T11:09:53.707Z</time></trkpt><trkpt lat="43.5566217" lon="12.3614733"><ele>694.0</ele><time>2026-04-22T11:09:54.707Z</time></trkpt><trkpt lat="43.5566767" lon="12.3615867"><ele>694.0</ele><time>2026-04-22T11:09:55.708Z</time></trkpt><trkpt lat="43.5567217" lon="12.36171"><ele>694.0</ele><time>2026-04-22T11:09:56.707Z</time></trkpt><trkpt lat="43.556765" lon="12.3618417"><ele>694.0</ele><time>2026-04-22T11:09:57.707Z</time></trkpt><trkpt lat="43.5567983" lon="12.3619817"><ele>694.0</ele><time>2026-04-22T11:09:58.707Z</time></trkpt><trkpt lat="43.5568233" lon="12.3621117"><ele>693.8333333333334</ele><time>2026-04-22T11:09:59.708Z</time></trkpt><trkpt lat="43.5568467" lon="12.362225"><ele>693.6666666666667</ele><time>2026-04-22T11:10:00.708Z</time></trkpt><trkpt lat="43.55685" lon="12.3623383"><ele>693.5</ele><time>2026-04-22T11:10:01.707Z</time></trkpt><trkpt lat="43.556825" lon="12.3624517"><ele>693.3333333333334</ele><time>2026-04-22T11:10:02.707Z</time></trkpt><trkpt lat="43.5567917" lon="12.3625617"><ele>693.1666666666666</ele><time>2026-04-22T11:10:03.708Z</time></trkpt><trkpt lat="43.5567583" lon="12.36267"><ele>693.0</ele><time>2026-04-22T11:10:04.707Z</time></trkpt><trkpt lat="43.5567167" lon="12.362765"><ele>693.0</ele><time>2026-04-22T11:10:05.708Z</time></trkpt><trkpt lat="43.556655" lon="12.36285"><ele>693.0</ele><time>2026-04-22T11:10:06.707Z</time></trkpt><trkpt lat="43.556585" lon="12.3629317"><ele>693.0</ele><time>2026-04-22T11:10:07.707Z</time></trkpt><trkpt lat="43.5564983" lon="12.363015"><ele>693.0</ele><time>2026-04-22T11:10:08.707Z</time></trkpt><trkpt lat="43.55641" lon="12.3630967"><ele>693.0</ele><time>2026-04-22T11:10:09.707Z</time></trkpt><trkpt lat="43.5563317" lon="12.3631717"><ele>691.8</ele><time>2026-04-22T11:10:10.707Z</time></trkpt><trkpt lat="43.55627" lon="12.3632383"><ele>690.5999999999999</ele><time>2026-04-22T11:10:11.707Z</time></trkpt><trkpt lat="43.5562217" lon="12.3633017"><ele>689.4000000000001</ele><time>2026-04-22T11:10:12.707Z</time></trkpt><trkpt lat="43.5561917" lon="12.3634417"><ele>688.2</ele><time>2026-04-22T11:10:14.707Z</time></trkpt><trkpt lat="43.55624" lon="12.363575"><ele>687.0</ele><time>2026-04-22T11:10:16.707Z</time></trkpt><trkpt lat="43.5563433" lon="12.3636867"><ele>689.1666666666666</ele><time>2026-04-22T11:10:18.707Z</time></trkpt><trkpt lat="43.5564183" lon="12.3637317"><ele>691.3333333333334</ele><time>2026-04-22T11:10:19.707Z</time></trkpt><trkpt lat="43.5565033" lon="12.3637633"><ele>693.5</ele><time>2026-04-22T11:10:20.707Z</time></trkpt><trkpt lat="43.5565933" lon="12.36379"><ele>695.6666666666667</ele><time>2026-04-22T11:10:21.707Z</time></trkpt><trkpt lat="43.5566833" lon="12.3638183"><ele>697.8333333333334</ele><time>2026-04-22T11:10:22.708Z</time></trkpt><trkpt lat="43.55676" lon="12.36384"><ele>700.0</ele><time>2026-04-22T11:10:23.707Z</time></trkpt><trkpt lat="43.5568233" lon="12.3638433"><ele>700.0</ele><time>2026-04-22T11:10:24.707Z</time></trkpt><trkpt lat="43.5569017" lon="12.3638267"><ele>700.0</ele><time>2026-04-22T11:10:25.707Z</time></trkpt><trkpt lat="43.5569883" lon="12.3638"><ele>700.0</ele><time>2026-04-22T11:10:26.707Z</time></trkpt><trkpt lat="43.55709" lon="12.3637767"><ele>700.0</ele><time>2026-04-22T11:10:27.707Z</time></trkpt><trkpt lat="43.5571983" lon="12.3637717"><ele>700.0</ele><time>2026-04-22T11:10:28.707Z</time></trkpt><trkpt lat="43.5573067" lon="12.363775"><ele>702.8</ele><time>2026-04-22T11:10:29.707Z</time></trkpt><trkpt lat="43.5574067" lon="12.363795"><ele>705.6</ele><time>2026-04-22T11:10:30.707Z</time></trkpt><trkpt lat="43.5574967" lon="12.363815"><ele>708.4000000000001</ele><time>2026-04-22T11:10:31.707Z</time></trkpt><trkpt lat="43.5575883" lon="12.363825"><ele>711.2</ele><time>2026-04-22T11:10:32.707Z</time></trkpt><trkpt lat="43.5576717" lon="12.3638133"><ele>714.0</ele><time>2026-04-22T11:10:33.707Z</time></trkpt><trkpt lat="43.5577583" lon="12.3637833"><ele>714.0</ele><time>2026-04-22T11:10:34.708Z</time></trkpt><trkpt lat="43.55784" lon="12.36376"><ele>714.0</ele><time>2026-04-22T11:10:35.707Z</time></trkpt><trkpt lat="43.55792" lon="12.363725"><ele>714.0</ele><time>2026-04-22T11:10:36.707Z</time></trkpt><trkpt lat="43.5579983" lon="12.3636867"><ele>714.0</ele><time>2026-04-22T11:10:37.707Z</time></trkpt><trkpt lat="43.5580733" lon="12.36366"><ele>714.0</ele><time>2026-04-22T11:10:38.707Z</time></trkpt><trkpt lat="43.55815" lon="12.3636567"><ele>714.0</ele><time>2026-04-22T11:10:39.707Z</time></trkpt><trkpt lat="43.55823" lon="12.3636783"><ele>714.8000000000001</ele><time>2026-04-22T11:10:40.707Z</time></trkpt><trkpt lat="43.5583017" lon="12.363725"><ele>715.6</ele><time>2026-04-22T11:10:41.707Z</time></trkpt><trkpt lat="43.5583817" lon="12.3638"><ele>716.4</ele><time>2026-04-22T11:10:42.707Z</time></trkpt><trkpt lat="43.558465" lon="12.3638833"><ele>717.2</ele><time>2026-04-22T11:10:43.707Z</time></trkpt><trkpt lat="43.5585483" lon="12.363945"><ele>718.0</ele><time>2026-04-22T11:10:44.708Z</time></trkpt><trkpt lat="43.5586367" lon="12.3639933"><ele>715.6666666666667</ele><time>2026-04-22T11:10:45.708Z</time></trkpt><trkpt lat="43.55872" lon="12.3640417"><ele>713.3333333333334</ele><time>2026-04-22T11:10:46.707Z</time></trkpt><trkpt lat="43.5587917" lon="12.3640683"><ele>711.0</ele><time>2026-04-22T11:10:47.707Z</time></trkpt><trkpt lat="43.55886" lon="12.36409"><ele>708.6666666666666</ele><time>2026-04-22T11:10:48.707Z</time></trkpt><trkpt lat="43.558925" lon="12.36411"><ele>706.3333333333333</ele><time>2026-04-22T11:10:49.707Z</time></trkpt><trkpt lat="43.5589933" lon="12.3641317"><ele>704.0</ele><time>2026-04-22T11:10:50.707Z</time></trkpt><trkpt lat="43.55907" lon="12.36418"><ele>704.0</ele><time>2026-04-22T11:10:51.707Z</time></trkpt><trkpt lat="43.5591567" lon="12.3642567"><ele>704.0</ele><time>2026-04-22T11:10:52.707Z</time></trkpt><trkpt lat="43.5592433" lon="12.3643333"><ele>704.0</ele><time>2026-04-22T11:10:53.707Z</time></trkpt><trkpt lat="43.559325" lon="12.3644233"><ele>704.0</ele><time>2026-04-22T11:10:54.707Z</time></trkpt><trkpt lat="43.5594117" lon="12.3645183"><ele>704.0</ele><time>2026-04-22T11:10:55.707Z</time></trkpt><trkpt lat="43.5594883" lon="12.364605"><ele>703.0</ele><time>2026-04-22T11:10:56.707Z</time></trkpt><trkpt lat="43.5595633" lon="12.3647"><ele>702.0</ele><time>2026-04-22T11:10:57.708Z</time></trkpt><trkpt lat="43.5596383" lon="12.3647967"><ele>701.0</ele><time>2026-04-22T11:10:58.707Z</time></trkpt><trkpt lat="43.55971" lon="12.3648867"><ele>700.0</ele><time>2026-04-22T11:10:59.707Z</time></trkpt><trkpt lat="43.559785" lon="12.3649617"><ele>699.0</ele><time>2026-04-22T11:11:00.707Z</time></trkpt><trkpt lat="43.5598683" lon="12.3650167"><ele>699.0</ele><time>2026-04-22T11:11:01.707Z</time></trkpt><trkpt lat="43.5599667" lon="12.3650717"><ele>699.0</ele><time>2026-04-22T11:11:02.707Z</time></trkpt><trkpt lat="43.560055" lon="12.365145"><ele>699.0</ele><time>2026-04-22T11:11:03.707Z</time></trkpt><trkpt lat="43.5601383" lon="12.3652083"><ele>699.0</ele><time>2026-04-22T11:11:04.707Z</time></trkpt><trkpt lat="43.5602083" lon="12.3652667"><ele>699.0</ele><time>2026-04-22T11:11:05.707Z</time></trkpt><trkpt lat="43.5602833" lon="12.365315"><ele>699.0</ele><time>2026-04-22T11:11:06.707Z</time></trkpt><trkpt lat="43.5603533" lon="12.365355"><ele>699.0</ele><time>2026-04-22T11:11:07.707Z</time></trkpt><trkpt lat="43.5604267" lon="12.3653833"><ele>699.0</ele><time>2026-04-22T11:11:08.707Z</time></trkpt><trkpt lat="43.5605017" lon="12.3653933"><ele>699.0</ele><time>2026-04-22T11:11:09.707Z</time></trkpt><trkpt lat="43.56059" lon="12.36538"><ele>699.0</ele><time>2026-04-22T11:11:10.707Z</time></trkpt><trkpt lat="43.56069" lon="12.36537"><ele>699.0</ele><time>2026-04-22T11:11:11.707Z</time></trkpt><trkpt lat="43.5607917" lon="12.3653567"><ele>699.0</ele><time>2026-04-22T11:11:12.707Z</time></trkpt><trkpt lat="43.5608867" lon="12.3653533"><ele>699.0</ele><time>2026-04-22T11:11:13.707Z</time></trkpt><trkpt lat="43.5609833" lon="12.36537"><ele>699.0</ele><time>2026-04-22T11:11:14.707Z</time></trkpt><trkpt lat="43.5610817" lon="12.3653983"><ele>699.0</ele><time>2026-04-22T11:11:15.707Z</time></trkpt><trkpt lat="43.5611833" lon="12.3654233"><ele>699.0</ele><time>2026-04-22T11:11:16.707Z</time></trkpt><trkpt lat="43.56129" lon="12.3654533"><ele>699.0</ele><time>2026-04-22T11:11:17.707Z</time></trkpt><trkpt lat="43.5613917" lon="12.3654833"><ele>699.0</ele><time>2026-04-22T11:11:18.707Z</time></trkpt><trkpt lat="43.5614933" lon="12.3655083"><ele>699.0</ele><time>2026-04-22T11:11:19.707Z</time></trkpt><trkpt lat="43.5615833" lon="12.3655333"><ele>699.0</ele><time>2026-04-22T11:11:20.707Z</time></trkpt><trkpt lat="43.56167" lon="12.3655583"><ele>699.0</ele><time>2026-04-22T11:11:21.707Z</time></trkpt><trkpt lat="43.5617583" lon="12.365595"><ele>697.4000000000001</ele><time>2026-04-22T11:11:22.707Z</time></trkpt><trkpt lat="43.56184" lon="12.3656567"><ele>695.8</ele><time>2026-04-22T11:11:23.707Z</time></trkpt><trkpt lat="43.561915" lon="12.3657267"><ele>694.2</ele><time>2026-04-22T11:11:24.707Z</time></trkpt><trkpt lat="43.5619783" lon="12.3657967"><ele>692.5999999999999</ele><time>2026-04-22T11:11:25.707Z</time></trkpt><trkpt lat="43.5620317" lon="12.3658583"><ele>691.0</ele><time>2026-04-22T11:11:26.708Z</time></trkpt><trkpt lat="43.56211" lon="12.36598"><ele>691.0</ele><time>2026-04-22T11:11:28.708Z</time></trkpt><trkpt lat="43.5621367" lon="12.3661333"><ele>691.0</ele><time>2026-04-22T11:11:30.707Z</time></trkpt><trkpt lat="43.5620917" lon="12.36628"><ele>691.0</ele><time>2026-04-22T11:11:32.707Z</time></trkpt><trkpt lat="43.5619683" lon="12.366355"><ele>691.0</ele><time>2026-04-22T11:11:34.707Z</time></trkpt><trkpt lat="43.561885" lon="12.366355"><ele>691.0</ele><time>2026-04-22T11:11:35.707Z</time></trkpt><trkpt lat="43.561795" lon="12.3663633"><ele>689.8</ele><time>2026-04-22T11:11:36.707Z</time></trkpt><trkpt lat="43.5616967" lon="12.3663883"><ele>688.5999999999999</ele><time>2026-04-22T11:11:37.707Z</time></trkpt><trkpt lat="43.561595" lon="12.3664267"><ele>687.4</ele><time>2026-04-22T11:11:38.707Z</time></trkpt><trkpt lat="43.5614983" lon="12.3664683"><ele>686.2</ele><time>2026-04-22T11:11:39.707Z</time></trkpt><trkpt lat="43.561405" lon="12.3665067"><ele>685.0</ele><time>2026-04-22T11:11:40.707Z</time></trkpt><trkpt lat="43.561315" lon="12.366545"><ele>685.0</ele><time>2026-04-22T11:11:41.707Z</time></trkpt><trkpt lat="43.5612217" lon="12.3665783"><ele>685.0</ele><time>2026-04-22T11:11:42.707Z</time></trkpt><trkpt lat="43.5611333" lon="12.3666067"><ele>685.0</ele><time>2026-04-22T11:11:43.707Z</time></trkpt><trkpt lat="43.5610433" lon="12.36663"><ele>685.0</ele><time>2026-04-22T11:11:44.707Z</time></trkpt><trkpt lat="43.5609617" lon="12.36666"><ele>685.0</ele><time>2026-04-22T11:11:45.707Z</time></trkpt><trkpt lat="43.5608833" lon="12.366685"><ele>685.0</ele><time>2026-04-22T11:11:46.707Z</time></trkpt><trkpt lat="43.56081" lon="12.3667217"><ele>683.5</ele><time>2026-04-22T11:11:47.707Z</time></trkpt><trkpt lat="43.5607417" lon="12.3667733"><ele>682.0</ele><time>2026-04-22T11:11:48.707Z</time></trkpt><trkpt lat="43.56068" lon="12.3668367"><ele>680.5</ele><time>2026-04-22T11:11:49.707Z</time></trkpt><trkpt lat="43.5606217" lon="12.36691"><ele>679.0</ele><time>2026-04-22T11:11:50.707Z</time></trkpt><trkpt lat="43.5605733" lon="12.3670017"><ele>677.5</ele><time>2026-04-22T11:11:51.707Z</time></trkpt><trkpt lat="43.5605267" lon="12.3671083"><ele>676.0</ele><time>2026-04-22T11:11:52.707Z</time></trkpt><trkpt lat="43.5604783" lon="12.367215"><ele>675.5</ele><time>2026-04-22T11:11:53.707Z</time></trkpt><trkpt lat="43.5604267" lon="12.36731"><ele>675.0</ele><time>2026-04-22T11:11:54.707Z</time></trkpt><trkpt lat="43.56036" lon="12.36739"><ele>674.5</ele><time>2026-04-22T11:11:55.707Z</time></trkpt><trkpt lat="43.560295" lon="12.3674417"><ele>674.0</ele><time>2026-04-22T11:11:56.707Z</time></trkpt><trkpt lat="43.5602217" lon="12.36748"><ele>673.5</ele><time>2026-04-22T11:11:57.707Z</time></trkpt><trkpt lat="43.5601417" lon="12.3675"><ele>673.0</ele><time>2026-04-22T11:11:58.707Z</time></trkpt><trkpt lat="43.5600517" lon="12.3675083"><ele>673.0</ele><time>2026-04-22T11:11:59.707Z</time></trkpt><trkpt lat="43.55994" lon="12.3675317"><ele>673.0</ele><time>2026-04-22T11:12:00.707Z</time></trkpt><trkpt lat="43.5598233" lon="12.3675667"><ele>673.0</ele><time>2026-04-22T11:12:01.708Z</time></trkpt><trkpt lat="43.5597133" lon="12.3676033"><ele>673.0</ele><time>2026-04-22T11:12:02.707Z</time></trkpt><trkpt lat="43.5596083" lon="12.36764"><ele>672.0</ele><time>2026-04-22T11:12:03.707Z</time></trkpt><trkpt lat="43.5595033" lon="12.36767"><ele>671.0</ele><time>2026-04-22T11:12:04.707Z</time></trkpt><trkpt lat="43.559395" lon="12.3676933"><ele>670.0</ele><time>2026-04-22T11:12:05.707Z</time></trkpt><trkpt lat="43.5592783" lon="12.3677017"><ele>669.0</ele><time>2026-04-22T11:12:06.707Z</time></trkpt><trkpt lat="43.5591583" lon="12.3677067"><ele>669.0</ele><time>2026-04-22T11:12:07.707Z</time></trkpt><trkpt lat="43.559025" lon="12.367705"><ele>669.0</ele><time>2026-04-22T11:12:08.707Z</time></trkpt><trkpt lat="43.55889" lon="12.3677133"><ele>669.0</ele><time>2026-04-22T11:12:09.708Z</time></trkpt><trkpt lat="43.5587567" lon="12.3677267"><ele>669.0</ele><time>2026-04-22T11:12:10.707Z</time></trkpt><trkpt lat="43.5586267" lon="12.3677383"><ele>668.4000000000001</ele><time>2026-04-22T11:12:11.708Z</time></trkpt><trkpt lat="43.5585083" lon="12.3677467"><ele>667.8</ele><time>2026-04-22T11:12:12.708Z</time></trkpt><trkpt lat="43.5584033" lon="12.3677617"><ele>667.2</ele><time>2026-04-22T11:12:13.707Z</time></trkpt><trkpt lat="43.5582967" lon="12.3677733"><ele>666.5999999999999</ele><time>2026-04-22T11:12:14.707Z</time></trkpt><trkpt lat="43.5581933" lon="12.3677867"><ele>666.0</ele><time>2026-04-22T11:12:15.707Z</time></trkpt><trkpt lat="43.558095" lon="12.367805"><ele>666.0</ele><time>2026-04-22T11:12:16.707Z</time></trkpt><trkpt lat="43.5580017" lon="12.3678367"><ele>666.0</ele><time>2026-04-22T11:12:17.707Z</time></trkpt><trkpt lat="43.5579083" lon="12.367875"><ele>666.0</ele><time>2026-04-22T11:12:18.707Z</time></trkpt><trkpt lat="43.5578117" lon="12.367915"><ele>666.0</ele><time>2026-04-22T11:12:19.707Z</time></trkpt><trkpt lat="43.5577217" lon="12.367945"><ele>666.0</ele><time>2026-04-22T11:12:20.708Z</time></trkpt><trkpt lat="43.5576267" lon="12.367975"><ele>665.3333333333334</ele><time>2026-04-22T11:12:21.707Z</time></trkpt><trkpt lat="43.5575367" lon="12.3679983"><ele>664.6666666666666</ele><time>2026-04-22T11:12:22.708Z</time></trkpt><trkpt lat="43.55745" lon="12.3680233"><ele>664.0</ele><time>2026-04-22T11:12:23.707Z</time></trkpt><trkpt lat="43.5573633" lon="12.3680433"><ele>663.3333333333333</ele><time>2026-04-22T11:12:24.707Z</time></trkpt><trkpt lat="43.55728" lon="12.3680583"><ele>662.6666666666666</ele><time>2026-04-22T11:12:25.707Z</time></trkpt><trkpt lat="43.55721" lon="12.3680733"><ele>662.0</ele><time>2026-04-22T11:12:26.707Z</time></trkpt><trkpt lat="43.55715" lon="12.3681033"><ele>663.3333333333333</ele><time>2026-04-22T11:12:27.707Z</time></trkpt><trkpt lat="43.5570817" lon="12.3682083"><ele>664.6666666666666</ele><time>2026-04-22T11:12:29.708Z</time></trkpt><trkpt lat="43.5570433" lon="12.3683583"><ele>666.0</ele><time>2026-04-22T11:12:31.707Z</time></trkpt><trkpt lat="43.5570233" lon="12.3684533"><ele>667.3333333333334</ele><time>2026-04-22T11:12:32.707Z</time></trkpt><trkpt lat="43.5569917" lon="12.3685467"><ele>668.6666666666667</ele><time>2026-04-22T11:12:33.707Z</time></trkpt><trkpt lat="43.5569483" lon="12.3686333"><ele>670.0</ele><time>2026-04-22T11:12:34.707Z</time></trkpt><trkpt lat="43.5568883" lon="12.36872"><ele>670.0</ele><time>2026-04-22T11:12:35.707Z</time></trkpt><trkpt lat="43.5568233" lon="12.3688017"><ele>670.0</ele><time>2026-04-22T11:12:36.707Z</time></trkpt><trkpt lat="43.5567567" lon="12.3688717"><ele>670.0</ele><time>2026-04-22T11:12:37.708Z</time></trkpt><trkpt lat="43.556695" lon="12.36894"><ele>670.0</ele><time>2026-04-22T11:12:38.707Z</time></trkpt><trkpt lat="43.556635" lon="12.3690033"><ele>670.0</ele><time>2026-04-22T11:12:39.707Z</time></trkpt><trkpt lat="43.5565867" lon="12.3690817"><ele>670.0</ele><time>2026-04-22T11:12:40.707Z</time></trkpt><trkpt lat="43.5565426" lon="12.3691783"><ele>674.1666666666667</ele><time>2026-04-22T11:12:41.708Z</time></trkpt><trkpt lat="43.5565072" lon="12.3692821"><ele>678.3333333333334</ele><time>2026-04-22T11:12:42.707Z</time></trkpt><trkpt lat="43.5564783" lon="12.3693857"><ele>682.5</ele><time>2026-04-22T11:12:43.707Z</time></trkpt><trkpt lat="43.5564556" lon="12.3694752"><ele>686.6666666666666</ele><time>2026-04-22T11:12:44.707Z</time></trkpt><trkpt lat="43.5564289" lon="12.3695547"><ele>690.8333333333333</ele><time>2026-04-22T11:12:45.707Z</time></trkpt><trkpt lat="43.5563625" lon="12.3696905"><ele>695.0</ele><time>2026-04-22T11:12:47.707Z</time></trkpt><trkpt lat="43.5562951" lon="12.3697777"><ele>694.4</ele><time>2026-04-22T11:12:49.707Z</time></trkpt><trkpt lat="43.556195" lon="12.3698533"><ele>693.8</ele><time>2026-04-22T11:13:01.707Z</time></trkpt><trkpt lat="43.55608" lon="12.3699233"><ele>693.2</ele><time>2026-04-22T11:13:03.707Z</time></trkpt><trkpt lat="43.5560133" lon="12.36997"><ele>692.6</ele><time>2026-04-22T11:13:04.707Z</time></trkpt><trkpt lat="43.55594" lon="12.37002"><ele>692.0</ele><time>2026-04-22T11:13:05.707Z</time></trkpt><trkpt lat="43.5558667" lon="12.3700717"><ele>692.0</ele><time>2026-04-22T11:13:06.707Z</time></trkpt><trkpt lat="43.5557917" lon="12.37013"><ele>692.0</ele><time>2026-04-22T11:13:07.707Z</time></trkpt><trkpt lat="43.5557183" lon="12.3702"><ele>692.0</ele><time>2026-04-22T11:13:08.708Z</time></trkpt><trkpt lat="43.5556467" lon="12.3702683"><ele>692.0</ele><time>2026-04-22T11:13:09.707Z</time></trkpt><trkpt lat="43.55557" lon="12.370335"><ele>692.0</ele><time>2026-04-22T11:13:10.707Z</time></trkpt><trkpt lat="43.5554817" lon="12.37041"><ele>692.0</ele><time>2026-04-22T11:13:11.707Z</time></trkpt><trkpt lat="43.5554" lon="12.3704883"><ele>692.0</ele><time>2026-04-22T11:13:12.707Z</time></trkpt><trkpt lat="43.5553217" lon="12.3705533"><ele>692.0</ele><time>2026-04-22T11:13:13.707Z</time></trkpt><trkpt lat="43.55525" lon="12.3706133"><ele>692.0</ele><time>2026-04-22T11:13:14.707Z</time></trkpt><trkpt lat="43.5551683" lon="12.370675"><ele>692.0</ele><time>2026-04-22T11:13:15.707Z</time></trkpt><trkpt lat="43.5550983" lon="12.3707417"><ele>690.6</ele><time>2026-04-22T11:13:16.708Z</time></trkpt><trkpt lat="43.5550233" lon="12.3708067"><ele>689.2</ele><time>2026-04-22T11:13:17.707Z</time></trkpt><trkpt lat="43.5549533" lon="12.3708683"><ele>687.8</ele><time>2026-04-22T11:13:18.708Z</time></trkpt><trkpt lat="43.5548817" lon="12.37094"><ele>686.4</ele><time>2026-04-22T11:13:19.707Z</time></trkpt><trkpt lat="43.5548" lon="12.3710083"><ele>685.0</ele><time>2026-04-22T11:13:20.707Z</time></trkpt><trkpt lat="43.5547167" lon="12.3710833"><ele>685.0</ele><time>2026-04-22T11:13:21.707Z</time></trkpt><trkpt lat="43.554635" lon="12.3711733"><ele>685.0</ele><time>2026-04-22T11:13:22.707Z</time></trkpt><trkpt lat="43.554555" lon="12.37126"><ele>685.0</ele><time>2026-04-22T11:13:23.707Z</time></trkpt><trkpt lat="43.5544817" lon="12.3713467"><ele>685.0</ele><time>2026-04-22T11:13:24.707Z</time></trkpt><trkpt lat="43.554415" lon="12.3714333"><ele>685.0</ele><time>2026-04-22T11:13:25.707Z</time></trkpt><trkpt lat="43.5543517" lon="12.3714933"><ele>683.0</ele><time>2026-04-22T11:13:26.707Z</time></trkpt><trkpt lat="43.5542883" lon="12.37153"><ele>681.0</ele><time>2026-04-22T11:13:27.708Z</time></trkpt><trkpt lat="43.5542217" lon="12.3715567"><ele>679.0</ele><time>2026-04-22T11:13:28.707Z</time></trkpt><trkpt lat="43.5540917" lon="12.3715217"><ele>677.0</ele><time>2026-04-22T11:13:30.707Z</time></trkpt><trkpt lat="43.5540267" lon="12.3714533"><ele>675.0</ele><time>2026-04-22T11:13:31.707Z</time></trkpt><trkpt lat="43.5539717" lon="12.371385"><ele>673.0</ele><time>2026-04-22T11:13:32.707Z</time></trkpt><trkpt lat="43.5538633" lon="12.3713317"><ele>673.0</ele><time>2026-04-22T11:13:34.707Z</time></trkpt><trkpt lat="43.5538" lon="12.371345"><ele>673.0</ele><time>2026-04-22T11:13:35.707Z</time></trkpt><trkpt lat="43.5537217" lon="12.3713833"><ele>673.0</ele><time>2026-04-22T11:13:36.707Z</time></trkpt><trkpt lat="43.5536483" lon="12.3714433"><ele>673.0</ele><time>2026-04-22T11:13:37.707Z</time></trkpt><trkpt lat="43.553575" lon="12.3715067"><ele>673.0</ele><time>2026-04-22T11:13:38.707Z</time></trkpt><trkpt lat="43.55348" lon="12.37158"><ele>673.0</ele><time>2026-04-22T11:13:39.707Z</time></trkpt><trkpt lat="43.55339" lon="12.3716633"><ele>671.3333333333334</ele><time>2026-04-22T11:13:40.707Z</time></trkpt><trkpt lat="43.553305" lon="12.3717283"><ele>669.6666666666667</ele><time>2026-04-22T11:13:41.707Z</time></trkpt><trkpt lat="43.5532233" lon="12.371795"><ele>668.0</ele><time>2026-04-22T11:13:42.707Z</time></trkpt><trkpt lat="43.5531483" lon="12.37186"><ele>666.3333333333334</ele><time>2026-04-22T11:13:43.708Z</time></trkpt><trkpt lat="43.553085" lon="12.3719317"><ele>664.6666666666666</ele><time>2026-04-22T11:13:44.707Z</time></trkpt><trkpt lat="43.55302" lon="12.3719933"><ele>663.0</ele><time>2026-04-22T11:13:45.707Z</time></trkpt><trkpt lat="43.5529583" lon="12.37206"><ele>663.0</ele><time>2026-04-22T11:13:46.708Z</time></trkpt><trkpt lat="43.5528967" lon="12.372135"><ele>663.0</ele><time>2026-04-22T11:13:47.707Z</time></trkpt><trkpt lat="43.5528333" lon="12.3722083"><ele>663.0</ele><time>2026-04-22T11:13:48.708Z</time></trkpt><trkpt lat="43.5527767" lon="12.3722817"><ele>663.0</ele><time>2026-04-22T11:13:49.707Z</time></trkpt><trkpt lat="43.5527083" lon="12.3723567"><ele>663.0</ele><time>2026-04-22T11:13:50.707Z</time></trkpt><trkpt lat="43.552645" lon="12.37243"><ele>663.0</ele><time>2026-04-22T11:13:51.707Z</time></trkpt><trkpt lat="43.55258" lon="12.3725033"><ele>662.3333333333334</ele><time>2026-04-22T11:13:52.707Z</time></trkpt><trkpt lat="43.5525133" lon="12.372565"><ele>661.6666666666666</ele><time>2026-04-22T11:13:53.708Z</time></trkpt><trkpt lat="43.5524533" lon="12.3726367"><ele>661.0</ele><time>2026-04-22T11:13:54.707Z</time></trkpt><trkpt lat="43.552385" lon="12.372715"><ele>660.3333333333333</ele><time>2026-04-22T11:13:55.707Z</time></trkpt><trkpt lat="43.5523167" lon="12.3727833"><ele>659.6666666666666</ele><time>2026-04-22T11:13:56.707Z</time></trkpt><trkpt lat="43.552255" lon="12.372865"><ele>659.0</ele><time>2026-04-22T11:13:57.707Z</time></trkpt><trkpt lat="43.5521883" lon="12.372945"><ele>659.0</ele><time>2026-04-22T11:13:58.707Z</time></trkpt><trkpt lat="43.552115" lon="12.373015"><ele>659.0</ele><time>2026-04-22T11:13:59.707Z</time></trkpt><trkpt lat="43.5520433" lon="12.3730867"><ele>659.0</ele><time>2026-04-22T11:14:00.707Z</time></trkpt><trkpt lat="43.5519783" lon="12.37317"><ele>659.0</ele><time>2026-04-22T11:14:01.707Z</time></trkpt><trkpt lat="43.55192" lon="12.3732567"><ele>659.0</ele><time>2026-04-22T11:14:02.707Z</time></trkpt><trkpt lat="43.5518517" lon="12.37334"><ele>659.0</ele><time>2026-04-22T11:14:03.707Z</time></trkpt><trkpt lat="43.5517817" lon="12.3734183"><ele>657.8333333333333</ele><time>2026-04-22T11:14:04.707Z</time></trkpt><trkpt lat="43.5517167" lon="12.373495"><ele>656.6666666666666</ele><time>2026-04-22T11:14:05.707Z</time></trkpt><trkpt lat="43.5516533" lon="12.3735717"><ele>655.5</ele><time>2026-04-22T11:14:06.707Z</time></trkpt><trkpt lat="43.5515917" lon="12.3736533"><ele>654.3333333333334</ele><time>2026-04-22T11:14:07.707Z</time></trkpt><trkpt lat="43.551535" lon="12.3737333"><ele>653.1666666666667</ele><time>2026-04-22T11:14:08.707Z</time></trkpt><trkpt lat="43.55148" lon="12.37382"><ele>652.0</ele><time>2026-04-22T11:14:09.707Z</time></trkpt><trkpt lat="43.55144" lon="12.3739133"><ele>651.2857142857143</ele><time>2026-04-22T11:14:10.707Z</time></trkpt><trkpt lat="43.551415" lon="12.3740133"><ele>650.5714285714286</ele><time>2026-04-22T11:14:11.707Z</time></trkpt><trkpt lat="43.5513967" lon="12.3741117"><ele>649.8571428571429</ele><time>2026-04-22T11:14:12.707Z</time></trkpt><trkpt lat="43.5513883" lon="12.3742033"><ele>649.1428571428571</ele><time>2026-04-22T11:14:13.707Z</time></trkpt><trkpt lat="43.5514" lon="12.374295"><ele>648.4285714285714</ele><time>2026-04-22T11:14:14.707Z</time></trkpt><trkpt lat="43.551425" lon="12.37439"><ele>647.7142857142857</ele><time>2026-04-22T11:14:15.707Z</time></trkpt><trkpt lat="43.55146" lon="12.3744767"><ele>647.0</ele><time>2026-04-22T11:14:16.707Z</time></trkpt><trkpt lat="43.5515017" lon="12.3745617"><ele>647.0</ele><time>2026-04-22T11:14:17.707Z</time></trkpt><trkpt lat="43.5515533" lon="12.374645"><ele>647.0</ele><time>2026-04-22T11:14:18.707Z</time></trkpt><trkpt lat="43.5516117" lon="12.374725"><ele>647.0</ele><time>2026-04-22T11:14:19.707Z</time></trkpt><trkpt lat="43.5516717" lon="12.3748"><ele>647.0</ele><time>2026-04-22T11:14:20.707Z</time></trkpt><trkpt lat="43.5517367" lon="12.3748683"><ele>647.0</ele><time>2026-04-22T11:14:21.707Z</time></trkpt><trkpt lat="43.551805" lon="12.3749233"><ele>647.0</ele><time>2026-04-22T11:14:22.707Z</time></trkpt><trkpt lat="43.5518817" lon="12.3749817"><ele>644.6666666666666</ele><time>2026-04-22T11:14:23.707Z</time></trkpt><trkpt lat="43.5519617" lon="12.37502"><ele>642.3333333333333</ele><time>2026-04-22T11:14:24.707Z</time></trkpt><trkpt lat="43.55204" lon="12.37505"><ele>640.0</ele><time>2026-04-22T11:14:25.708Z</time></trkpt><trkpt lat="43.5521233" lon="12.375065"><ele>637.6666666666666</ele><time>2026-04-22T11:14:26.707Z</time></trkpt><trkpt lat="43.5522067" lon="12.3750633"><ele>635.3333333333334</ele><time>2026-04-22T11:14:27.707Z</time></trkpt><trkpt lat="43.5522883" lon="12.375045"><ele>633.0</ele><time>2026-04-22T11:14:28.707Z</time></trkpt><trkpt lat="43.5523717" lon="12.3750217"><ele>633.0</ele><time>2026-04-22T11:14:29.707Z</time></trkpt><trkpt lat="43.5524617" lon="12.374995"><ele>633.0</ele><time>2026-04-22T11:14:30.707Z</time></trkpt><trkpt lat="43.552545" lon="12.37496"><ele>633.0</ele><time>2026-04-22T11:14:31.707Z</time></trkpt><trkpt lat="43.5526283" lon="12.3749133"><ele>633.0</ele><time>2026-04-22T11:14:32.707Z</time></trkpt><trkpt lat="43.5527" lon="12.37486"><ele>633.0</ele><time>2026-04-22T11:14:33.707Z</time></trkpt><trkpt lat="43.5527717" lon="12.374805"><ele>633.0</ele><time>2026-04-22T11:14:34.707Z</time></trkpt><trkpt lat="43.5528433" lon="12.3747533"><ele>632.5</ele><time>2026-04-22T11:14:35.708Z</time></trkpt><trkpt lat="43.552915" lon="12.374695"><ele>632.0</ele><time>2026-04-22T11:14:36.708Z</time></trkpt><trkpt lat="43.552985" lon="12.374635"><ele>631.5</ele><time>2026-04-22T11:14:37.707Z</time></trkpt><trkpt lat="43.5530483" lon="12.3745817"><ele>631.0</ele><time>2026-04-22T11:14:38.707Z</time></trkpt><trkpt lat="43.55311" lon="12.374545"><ele>630.5</ele><time>2026-04-22T11:14:39.707Z</time></trkpt><trkpt lat="43.5531817" lon="12.3745217"><ele>630.0</ele><time>2026-04-22T11:14:40.707Z</time></trkpt><trkpt lat="43.553255" lon="12.3745217"><ele>630.0</ele><time>2026-04-22T11:14:41.708Z</time></trkpt><trkpt lat="43.5533283" lon="12.3745483"><ele>630.0</ele><time>2026-04-22T11:14:42.707Z</time></trkpt><trkpt lat="43.553405" lon="12.3745867"><ele>630.0</ele><time>2026-04-22T11:14:43.707Z</time></trkpt><trkpt lat="43.5534783" lon="12.3746233"><ele>630.0</ele><time>2026-04-22T11:14:44.707Z</time></trkpt><trkpt lat="43.5535567" lon="12.374665"><ele>630.0</ele><time>2026-04-22T11:14:45.707Z</time></trkpt><trkpt lat="43.5536317" lon="12.3747033"><ele>630.0</ele><time>2026-04-22T11:14:46.707Z</time></trkpt><trkpt lat="43.5537017" lon="12.3747383"><ele>627.8333333333334</ele><time>2026-04-22T11:14:47.708Z</time></trkpt><trkpt lat="43.5537767" lon="12.3747617"><ele>625.6666666666666</ele><time>2026-04-22T11:14:48.707Z</time></trkpt><trkpt lat="43.5538667" lon="12.37478"><ele>623.5</ele><time>2026-04-22T11:14:49.707Z</time></trkpt><trkpt lat="43.5539567" lon="12.3747933"><ele>621.3333333333333</ele><time>2026-04-22T11:14:50.708Z</time></trkpt><trkpt lat="43.5540417" lon="12.3747883"><ele>619.1666666666666</ele><time>2026-04-22T11:14:51.707Z</time></trkpt><trkpt lat="43.55412" lon="12.3747767"><ele>617.0</ele><time>2026-04-22T11:14:52.707Z</time></trkpt><trkpt lat="43.5541933" lon="12.3747483"><ele>617.0</ele><time>2026-04-22T11:14:53.707Z</time></trkpt><trkpt lat="43.5542717" lon="12.374725"><ele>617.0</ele><time>2026-04-22T11:14:54.707Z</time></trkpt><trkpt lat="43.5543533" lon="12.374725"><ele>617.0</ele><time>2026-04-22T11:14:55.707Z</time></trkpt><trkpt lat="43.5544367" lon="12.3747483"><ele>617.0</ele><time>2026-04-22T11:14:56.707Z</time></trkpt><trkpt lat="43.5545167" lon="12.37478"><ele>617.0</ele><time>2026-04-22T11:14:57.707Z</time></trkpt><trkpt lat="43.5545933" lon="12.3748267"><ele>617.0</ele><time>2026-04-22T11:14:58.707Z</time></trkpt><trkpt lat="43.5546733" lon="12.3748817"><ele>617.6666666666666</ele><time>2026-04-22T11:14:59.707Z</time></trkpt><trkpt lat="43.5547533" lon="12.37493"><ele>618.3333333333333</ele><time>2026-04-22T11:15:00.707Z</time></trkpt><trkpt lat="43.5548367" lon="12.374975"><ele>619.0</ele><time>2026-04-22T11:15:01.707Z</time></trkpt><trkpt lat="43.5549217" lon="12.375015"><ele>619.6666666666666</ele><time>2026-04-22T11:15:02.707Z</time></trkpt><trkpt lat="43.555005" lon="12.3750517"><ele>620.3333333333334</ele><time>2026-04-22T11:15:03.707Z</time></trkpt><trkpt lat="43.5550883" lon="12.375085"><ele>621.0</ele><time>2026-04-22T11:15:04.707Z</time></trkpt><trkpt lat="43.55517" lon="12.375115"><ele>621.0</ele><time>2026-04-22T11:15:05.707Z</time></trkpt><trkpt lat="43.5552533" lon="12.3751483"><ele>621.0</ele><time>2026-04-22T11:15:06.707Z</time></trkpt><trkpt lat="43.5553333" lon="12.3751833"><ele>621.0</ele><time>2026-04-22T11:15:07.707Z</time></trkpt><trkpt lat="43.5554083" lon="12.3752183"><ele>621.0</ele><time>2026-04-22T11:15:08.707Z</time></trkpt><trkpt lat="43.555485" lon="12.3752433"><ele>621.0</ele><time>2026-04-22T11:15:09.707Z</time></trkpt><trkpt lat="43.5555583" lon="12.3752667"><ele>621.0</ele><time>2026-04-22T11:15:10.707Z</time></trkpt><trkpt lat="43.5556533" lon="12.375315"><ele>619.5</ele><time>2026-04-22T11:15:12.707Z</time></trkpt><trkpt lat="43.5556633" lon="12.375405"><ele>618.0</ele><time>2026-04-22T11:15:14.707Z</time></trkpt><trkpt lat="43.5556167" lon="12.3754933"><ele>616.5</ele><time>2026-04-22T11:15:16.707Z</time></trkpt><trkpt lat="43.55554" lon="12.3755267"><ele>615.0</ele><time>2026-04-22T11:15:17.708Z</time></trkpt><trkpt lat="43.5554517" lon="12.3755633"><ele>613.5</ele><time>2026-04-22T11:15:18.707Z</time></trkpt><trkpt lat="43.555365" lon="12.3756083"><ele>612.0</ele><time>2026-04-22T11:15:19.707Z</time></trkpt><trkpt lat="43.555265" lon="12.3756467"><ele>609.0</ele><time>2026-04-22T11:15:20.707Z</time></trkpt><trkpt lat="43.55516" lon="12.3756933"><ele>606.0</ele><time>2026-04-22T11:15:21.707Z</time></trkpt><trkpt lat="43.5550367" lon="12.3757433"><ele>603.0</ele><time>2026-04-22T11:15:22.708Z</time></trkpt><trkpt lat="43.5549217" lon="12.375795"><ele>600.0</ele><time>2026-04-22T11:15:23.707Z</time></trkpt><trkpt lat="43.5548067" lon="12.375855"><ele>600.0</ele><time>2026-04-22T11:15:24.707Z</time></trkpt><trkpt lat="43.5547017" lon="12.3759067"><ele>600.0</ele><time>2026-04-22T11:15:25.707Z</time></trkpt><trkpt lat="43.5546" lon="12.375955"><ele>600.0</ele><time>2026-04-22T11:15:26.708Z</time></trkpt><trkpt lat="43.5545" lon="12.37599"><ele>600.0</ele><time>2026-04-22T11:15:27.707Z</time></trkpt><trkpt lat="43.5544033" lon="12.3760217"><ele>600.0</ele><time>2026-04-22T11:15:28.708Z</time></trkpt><trkpt lat="43.5543083" lon="12.376055"><ele>602.0</ele><time>2026-04-22T11:15:29.707Z</time></trkpt><trkpt lat="43.554205" lon="12.3760883"><ele>604.0</ele><time>2026-04-22T11:15:30.708Z</time></trkpt><trkpt lat="43.554105" lon="12.3761267"><ele>606.0</ele><time>2026-04-22T11:15:31.707Z</time></trkpt><trkpt lat="43.5539917" lon="12.3761583"><ele>608.0</ele><time>2026-04-22T11:15:32.708Z</time></trkpt><trkpt lat="43.55387" lon="12.376195"><ele>608.0</ele><time>2026-04-22T11:15:33.707Z</time></trkpt><trkpt lat="43.553745" lon="12.3762383"><ele>608.0</ele><time>2026-04-22T11:15:34.707Z</time></trkpt><trkpt lat="43.5536167" lon="12.3762967"><ele>608.0</ele><time>2026-04-22T11:15:35.707Z</time></trkpt><trkpt lat="43.553495" lon="12.3763667"><ele>608.0</ele><time>2026-04-22T11:15:36.707Z</time></trkpt><trkpt lat="43.5533783" lon="12.3764417"><ele>603.25</ele><time>2026-04-22T11:15:37.707Z</time></trkpt><trkpt lat="43.5532667" lon="12.3765167"><ele>598.5</ele><time>2026-04-22T11:15:38.707Z</time></trkpt><trkpt lat="43.55316" lon="12.3765933"><ele>593.75</ele><time>2026-04-22T11:15:39.707Z</time></trkpt><trkpt lat="43.55305" lon="12.3766783"><ele>589.0</ele><time>2026-04-22T11:15:40.707Z</time></trkpt><trkpt lat="43.5529467" lon="12.3767633"><ele>589.2</ele><time>2026-04-22T11:15:41.707Z</time></trkpt><trkpt lat="43.5528433" lon="12.3768467"><ele>589.4</ele><time>2026-04-22T11:15:42.707Z</time></trkpt><trkpt lat="43.5527517" lon="12.3769267"><ele>589.6</ele><time>2026-04-22T11:15:43.707Z</time></trkpt><trkpt lat="43.5526667" lon="12.3770017"><ele>589.8</ele><time>2026-04-22T11:15:44.707Z</time></trkpt><trkpt lat="43.55259" lon="12.3770833"><ele>590.0</ele><time>2026-04-22T11:15:45.707Z</time></trkpt><trkpt lat="43.55252" lon="12.3771533"><ele>590.0</ele><time>2026-04-22T11:15:46.707Z</time></trkpt><trkpt lat="43.552455" lon="12.3772133"><ele>590.0</ele><time>2026-04-22T11:15:47.707Z</time></trkpt><trkpt lat="43.5523917" lon="12.3772683"><ele>590.0</ele><time>2026-04-22T11:15:48.708Z</time></trkpt><trkpt lat="43.5522833" lon="12.3773383"><ele>590.0</ele><time>2026-04-22T11:15:50.707Z</time></trkpt><trkpt lat="43.552195" lon="12.3773617"><ele>590.0</ele><time>2026-04-22T11:15:52.707Z</time></trkpt><trkpt lat="43.5521317" lon="12.37728"><ele>590.0</ele><time>2026-04-22T11:15:54.707Z</time></trkpt><trkpt lat="43.5520967" lon="12.3771233"><ele>588.8333333333333</ele><time>2026-04-22T11:15:56.707Z</time></trkpt><trkpt lat="43.5520067" lon="12.3770167"><ele>587.6666666666666</ele><time>2026-04-22T11:15:58.707Z</time></trkpt><trkpt lat="43.5519267" lon="12.377"><ele>586.5</ele><time>2026-04-22T11:15:59.707Z</time></trkpt><trkpt lat="43.5518533" lon="12.376995"><ele>585.3333333333334</ele><time>2026-04-22T11:16:00.707Z</time></trkpt><trkpt lat="43.5517733" lon="12.3769983"><ele>584.1666666666667</ele><time>2026-04-22T11:16:01.707Z</time></trkpt><trkpt lat="43.55169" lon="12.3770017"><ele>583.0</ele><time>2026-04-22T11:16:02.707Z</time></trkpt><trkpt lat="43.5516067" lon="12.37702"><ele>583.0</ele><time>2026-04-22T11:16:03.708Z</time></trkpt><trkpt lat="43.551515" lon="12.3770517"><ele>583.0</ele><time>2026-04-22T11:16:04.707Z</time></trkpt><trkpt lat="43.551425" lon="12.3770717"><ele>583.0</ele><time>2026-04-22T11:16:05.707Z</time></trkpt><trkpt lat="43.551335" lon="12.37709"><ele>583.0</ele><time>2026-04-22T11:16:06.708Z</time></trkpt><trkpt lat="43.55125" lon="12.3771083"><ele>583.0</ele><time>2026-04-22T11:16:07.707Z</time></trkpt><trkpt lat="43.55117" lon="12.377125"><ele>583.0</ele><time>2026-04-22T11:16:08.706Z</time></trkpt><trkpt lat="43.55109" lon="12.3771433"><ele>580.1666666666667</ele><time>2026-04-22T11:16:09.706Z</time></trkpt><trkpt lat="43.55101" lon="12.3771617"><ele>577.3333333333334</ele><time>2026-04-22T11:16:10.706Z</time></trkpt><trkpt lat="43.550935" lon="12.3771783"><ele>574.5</ele><time>2026-04-22T11:16:11.706Z</time></trkpt><trkpt lat="43.5508667" lon="12.37719"><ele>571.6666666666666</ele><time>2026-04-22T11:16:12.706Z</time></trkpt><trkpt lat="43.5507567" lon="12.3772267"><ele>568.8333333333333</ele><time>2026-04-22T11:16:14.706Z</time></trkpt><trkpt lat="43.5506933" lon="12.377265"><ele>566.0</ele><time>2026-04-22T11:16:16.707Z</time></trkpt><trkpt lat="43.5506967" lon="12.3773767"><ele>562.6</ele><time>2026-04-22T11:16:19.706Z</time></trkpt><trkpt lat="43.5507667" lon="12.3775033"><ele>559.2</ele><time>2026-04-22T11:16:21.706Z</time></trkpt><trkpt lat="43.5508333" lon="12.377575"><ele>555.8</ele><time>2026-04-22T11:16:22.706Z</time></trkpt><trkpt lat="43.550905" lon="12.37766"><ele>552.4</ele><time>2026-04-22T11:16:23.706Z</time></trkpt><trkpt lat="43.5509817" lon="12.3777617"><ele>549.0</ele><time>2026-04-22T11:16:24.706Z</time></trkpt><trkpt lat="43.5510667" lon="12.37788"><ele>549.0</ele><time>2026-04-22T11:16:25.706Z</time></trkpt><trkpt lat="43.551155" lon="12.378"><ele>549.0</ele><time>2026-04-22T11:16:26.706Z</time></trkpt><trkpt lat="43.5512483" lon="12.3781233"><ele>549.0</ele><time>2026-04-22T11:16:27.707Z</time></trkpt><trkpt lat="43.5513533" lon="12.3782583"><ele>549.0</ele><time>2026-04-22T11:16:28.706Z</time></trkpt><trkpt lat="43.5514533" lon="12.3783967"><ele>548.75</ele><time>2026-04-22T11:16:29.706Z</time></trkpt><trkpt lat="43.5515533" lon="12.3785333"><ele>548.5</ele><time>2026-04-22T11:16:30.707Z</time></trkpt><trkpt lat="43.5516383" lon="12.3786617"><ele>548.25</ele><time>2026-04-22T11:16:31.707Z</time></trkpt><trkpt lat="43.55173" lon="12.3787833"><ele>548.0</ele><time>2026-04-22T11:16:32.707Z</time></trkpt><trkpt lat="43.55182" lon="12.3788967"><ele>548.75</ele><time>2026-04-22T11:16:33.707Z</time></trkpt><trkpt lat="43.5519067" lon="12.3790033"><ele>549.5</ele><time>2026-04-22T11:16:34.706Z</time></trkpt><trkpt lat="43.5519967" lon="12.37912"><ele>550.25</ele><time>2026-04-22T11:16:35.706Z</time></trkpt><trkpt lat="43.5520867" lon="12.379235"><ele>551.0</ele><time>2026-04-22T11:16:36.706Z</time></trkpt><trkpt lat="43.5521817" lon="12.379355"><ele>551.0</ele><time>2026-04-22T11:16:37.706Z</time></trkpt><trkpt lat="43.5522867" lon="12.3794817"><ele>551.0</ele><time>2026-04-22T11:16:38.706Z</time></trkpt><trkpt lat="43.5523933" lon="12.3796117"><ele>551.0</ele><time>2026-04-22T11:16:39.706Z</time></trkpt><trkpt lat="43.5525033" lon="12.379735"><ele>551.0</ele><time>2026-04-22T11:16:40.706Z</time></trkpt><trkpt lat="43.552615" lon="12.3798667"><ele>550.0</ele><time>2026-04-22T11:16:41.706Z</time></trkpt><trkpt lat="43.5527233" lon="12.379995"><ele>549.0</ele><time>2026-04-22T11:16:42.706Z</time></trkpt><trkpt lat="43.552825" lon="12.3801233"><ele>548.0</ele><time>2026-04-22T11:16:43.706Z</time></trkpt><trkpt lat="43.552925" lon="12.38025"><ele>547.0</ele><time>2026-04-22T11:16:44.706Z</time></trkpt><trkpt lat="43.5530117" lon="12.3803917"><ele>543.25</ele><time>2026-04-22T11:16:45.706Z</time></trkpt><trkpt lat="43.553085" lon="12.3805417"><ele>539.5</ele><time>2026-04-22T11:16:46.706Z</time></trkpt><trkpt lat="43.55315" lon="12.3806983"><ele>535.75</ele><time>2026-04-22T11:16:47.706Z</time></trkpt><trkpt lat="43.5532067" lon="12.3808633"><ele>532.0</ele><time>2026-04-22T11:16:48.706Z</time></trkpt><trkpt lat="43.55326" lon="12.381035"><ele>532.0</ele><time>2026-04-22T11:16:49.706Z</time></trkpt><trkpt lat="43.5533133" lon="12.3812017"><ele>532.0</ele><time>2026-04-22T11:16:50.706Z</time></trkpt><trkpt lat="43.5533733" lon="12.381375"><ele>532.0</ele><time>2026-04-22T11:16:51.706Z</time></trkpt><trkpt lat="43.55342" lon="12.3815533"><ele>532.0</ele><time>2026-04-22T11:16:52.706Z</time></trkpt><trkpt lat="43.5534433" lon="12.3817367"><ele>531.5</ele><time>2026-04-22T11:16:53.707Z</time></trkpt><trkpt lat="43.553445" lon="12.3819217"><ele>531.0</ele><time>2026-04-22T11:16:54.706Z</time></trkpt><trkpt lat="43.553415" lon="12.3820983"><ele>530.5</ele><time>2026-04-22T11:16:55.707Z</time></trkpt><trkpt lat="43.5533667" lon="12.38226"><ele>530.0</ele><time>2026-04-22T11:16:56.706Z</time></trkpt><trkpt lat="43.553305" lon="12.38242"><ele>532.25</ele><time>2026-04-22T11:16:57.707Z</time></trkpt><trkpt lat="43.553225" lon="12.3825717"><ele>534.5</ele><time>2026-04-22T11:16:58.706Z</time></trkpt><trkpt lat="43.5531417" lon="12.382725"><ele>536.75</ele><time>2026-04-22T11:16:59.706Z</time></trkpt><trkpt lat="43.553055" lon="12.3828817"><ele>539.0</ele><time>2026-04-22T11:17:00.706Z</time></trkpt><trkpt lat="43.5529717" lon="12.3830467"><ele>538.0</ele><time>2026-04-22T11:17:01.706Z</time></trkpt><trkpt lat="43.5529017" lon="12.3832217"><ele>537.0</ele><time>2026-04-22T11:17:02.706Z</time></trkpt><trkpt lat="43.5528533" lon="12.3834083"><ele>536.0</ele><time>2026-04-22T11:17:03.706Z</time></trkpt><trkpt lat="43.5528333" lon="12.3836067"><ele>535.0</ele><time>2026-04-22T11:17:04.706Z</time></trkpt><trkpt lat="43.5528333" lon="12.3838067"><ele>534.0</ele><time>2026-04-22T11:17:05.706Z</time></trkpt><trkpt lat="43.5528383" lon="12.3840233"><ele>533.0</ele><time>2026-04-22T11:17:06.706Z</time></trkpt><trkpt lat="43.5528417" lon="12.38424"><ele>532.0</ele><time>2026-04-22T11:17:07.706Z</time></trkpt><trkpt lat="43.5528467" lon="12.38445"><ele>532.0</ele><time>2026-04-22T11:17:08.706Z</time></trkpt><trkpt lat="43.5528567" lon="12.38466"><ele>532.0</ele><time>2026-04-22T11:17:09.707Z</time></trkpt><trkpt lat="43.55286" lon="12.3848717"><ele>532.0</ele><time>2026-04-22T11:17:10.706Z</time></trkpt><trkpt lat="43.5528633" lon="12.3850867"><ele>544.0</ele><time>2026-04-22T11:17:11.706Z</time></trkpt><trkpt lat="43.5528733" lon="12.385305"><ele>556.0</ele><time>2026-04-22T11:17:12.706Z</time></trkpt><trkpt lat="43.5528833" lon="12.38552"><ele>568.0</ele><time>2026-04-22T11:17:13.706Z</time></trkpt><trkpt lat="43.5528767" lon="12.3857317"><ele>556.6666666666667</ele><time>2026-04-22T11:17:14.706Z</time></trkpt><trkpt lat="43.552865" lon="12.3859483"><ele>545.3333333333334</ele><time>2026-04-22T11:17:15.706Z</time></trkpt><trkpt lat="43.55284" lon="12.38616"><ele>534.0</ele><time>2026-04-22T11:17:16.706Z</time></trkpt><trkpt lat="43.55281" lon="12.3863733"><ele>534.0</ele><time>2026-04-22T11:17:17.707Z</time></trkpt><trkpt lat="43.55277" lon="12.386585"><ele>534.0</ele><time>2026-04-22T11:17:18.707Z</time></trkpt><trkpt lat="43.5527367" lon="12.3867967"><ele>534.0</ele><time>2026-04-22T11:17:19.707Z</time></trkpt><trkpt lat="43.552695" lon="12.387015"><ele>537.6666666666666</ele><time>2026-04-22T11:17:20.706Z</time></trkpt><trkpt lat="43.5526383" lon="12.387225"><ele>541.3333333333333</ele><time>2026-04-22T11:17:21.706Z</time></trkpt><trkpt lat="43.55258" lon="12.38743"><ele>545.0</ele><time>2026-04-22T11:17:22.706Z</time></trkpt><trkpt lat="43.5525083" lon="12.3876233"><ele>545.0</ele><time>2026-04-22T11:17:23.706Z</time></trkpt><trkpt lat="43.552435" lon="12.387805"><ele>545.0</ele><time>2026-04-22T11:17:24.707Z</time></trkpt><trkpt lat="43.5523817" lon="12.387985"><ele>545.0</ele><time>2026-04-22T11:17:25.706Z</time></trkpt><trkpt lat="43.5523517" lon="12.3881767"><ele>545.0</ele><time>2026-04-22T11:17:26.706Z</time></trkpt><trkpt lat="43.5523433" lon="12.3883783"><ele>546.75</ele><time>2026-04-22T11:17:27.706Z</time></trkpt><trkpt lat="43.5523567" lon="12.38858"><ele>548.5</ele><time>2026-04-22T11:17:28.706Z</time></trkpt><trkpt lat="43.5523733" lon="12.38878"><ele>550.25</ele><time>2026-04-22T11:17:29.706Z</time></trkpt><trkpt lat="43.552385" lon="12.3889883"><ele>552.0</ele><time>2026-04-22T11:17:30.706Z</time></trkpt><trkpt lat="43.5523783" lon="12.3891867"><ele>552.0</ele><time>2026-04-22T11:17:31.706Z</time></trkpt><trkpt lat="43.5523617" lon="12.3893933"><ele>552.0</ele><time>2026-04-22T11:17:32.706Z</time></trkpt><trkpt lat="43.5523083" lon="12.3895933"><ele>552.0</ele><time>2026-04-22T11:17:33.707Z</time></trkpt><trkpt lat="43.5522433" lon="12.3897883"><ele>554.3333333333334</ele><time>2026-04-22T11:17:34.707Z</time></trkpt><trkpt lat="43.5521667" lon="12.38998"><ele>556.6666666666667</ele><time>2026-04-22T11:17:35.706Z</time></trkpt><trkpt lat="43.5520783" lon="12.3901667"><ele>559.0</ele><time>2026-04-22T11:17:36.706Z</time></trkpt><trkpt lat="43.5519917" lon="12.390345"><ele>551.6666666666667</ele><time>2026-04-22T11:17:37.707Z</time></trkpt><trkpt lat="43.5518917" lon="12.3905217"><ele>544.3333333333334</ele><time>2026-04-22T11:17:38.706Z</time></trkpt><trkpt lat="43.5517933" lon="12.3906933"><ele>537.0</ele><time>2026-04-22T11:17:39.707Z</time></trkpt><trkpt lat="43.5516867" lon="12.3908617"><ele>537.0</ele><time>2026-04-22T11:17:40.707Z</time></trkpt><trkpt lat="43.5515717" lon="12.3910083"><ele>537.0</ele><time>2026-04-22T11:17:41.706Z</time></trkpt><trkpt lat="43.5514483" lon="12.3911367"><ele>537.0</ele><time>2026-04-22T11:17:42.706Z</time></trkpt><trkpt lat="43.5513217" lon="12.3912633"><ele>533.3333333333334</ele><time>2026-04-22T11:17:43.707Z</time></trkpt><trkpt lat="43.55121" lon="12.3914133"><ele>529.6666666666667</ele><time>2026-04-22T11:17:44.706Z</time></trkpt><trkpt lat="43.5511" lon="12.3915717"><ele>526.0</ele><time>2026-04-22T11:17:45.706Z</time></trkpt><trkpt lat="43.5509817" lon="12.3917333"><ele>526.0</ele><time>2026-04-22T11:17:46.706Z</time></trkpt><trkpt lat="43.5508683" lon="12.3918883"><ele>526.0</ele><time>2026-04-22T11:17:47.706Z</time></trkpt><trkpt lat="43.55075" lon="12.39205"><ele>526.0</ele><time>2026-04-22T11:17:48.706Z</time></trkpt><trkpt lat="43.550645" lon="12.3922167"><ele>524.0</ele><time>2026-04-22T11:17:49.706Z</time></trkpt><trkpt lat="43.55054" lon="12.3923717"><ele>522.0</ele><time>2026-04-22T11:17:50.706Z</time></trkpt><trkpt lat="43.55044" lon="12.39253"><ele>520.0</ele><time>2026-04-22T11:17:51.706Z</time></trkpt><trkpt lat="43.5503533" lon="12.3926833"><ele>518.0</ele><time>2026-04-22T11:17:52.706Z</time></trkpt><trkpt lat="43.5502767" lon="12.3928483"><ele>519.5</ele><time>2026-04-22T11:17:53.707Z</time></trkpt><trkpt lat="43.550205" lon="12.39302"><ele>521.0</ele><time>2026-04-22T11:17:54.706Z</time></trkpt><trkpt lat="43.5501517" lon="12.3931933"><ele>522.5</ele><time>2026-04-22T11:17:55.707Z</time></trkpt><trkpt lat="43.550125" lon="12.3933817"><ele>524.0</ele><time>2026-04-22T11:17:56.706Z</time></trkpt><trkpt lat="43.55011" lon="12.3935817"><ele>524.0</ele><time>2026-04-22T11:17:57.706Z</time></trkpt><trkpt lat="43.5501167" lon="12.3937783"><ele>524.0</ele><time>2026-04-22T11:17:58.706Z</time></trkpt><trkpt lat="43.55013" lon="12.3939783"><ele>524.0</ele><time>2026-04-22T11:17:59.706Z</time></trkpt><trkpt lat="43.55017" lon="12.3941717"><ele>524.0</ele><time>2026-04-22T11:18:00.706Z</time></trkpt><trkpt lat="43.5502217" lon="12.3943633"><ele>525.0</ele><time>2026-04-22T11:18:01.706Z</time></trkpt><trkpt lat="43.5502783" lon="12.39455"><ele>526.0</ele><time>2026-04-22T11:18:02.706Z</time></trkpt><trkpt lat="43.5503417" lon="12.3947417"><ele>527.0</ele><time>2026-04-22T11:18:03.707Z</time></trkpt><trkpt lat="43.5504033" lon="12.3949367"><ele>529.3333333333333</ele><time>2026-04-22T11:18:04.706Z</time></trkpt><trkpt lat="43.55046" lon="12.395135"><ele>531.6666666666666</ele><time>2026-04-22T11:18:05.706Z</time></trkpt><trkpt lat="43.550515" lon="12.3953417"><ele>534.0</ele><time>2026-04-22T11:18:06.706Z</time></trkpt><trkpt lat="43.5505667" lon="12.3955567"><ele>534.0</ele><time>2026-04-22T11:18:07.706Z</time></trkpt><trkpt lat="43.5506083" lon="12.3957767"><ele>534.0</ele><time>2026-04-22T11:18:08.706Z</time></trkpt><trkpt lat="43.5506383" lon="12.3960033"><ele>534.0</ele><time>2026-04-22T11:18:09.706Z</time></trkpt><trkpt lat="43.5506717" lon="12.3962283"><ele>530.6666666666666</ele><time>2026-04-22T11:18:10.706Z</time></trkpt><trkpt lat="43.5507083" lon="12.3964583"><ele>527.3333333333333</ele><time>2026-04-22T11:18:11.706Z</time></trkpt><trkpt lat="43.5507633" lon="12.39668"><ele>524.0</ele><time>2026-04-22T11:18:12.706Z</time></trkpt><trkpt lat="43.5508233" lon="12.3969017"><ele>524.0</ele><time>2026-04-22T11:18:13.706Z</time></trkpt><trkpt lat="43.5508833" lon="12.39712"><ele>524.0</ele><time>2026-04-22T11:18:14.706Z</time></trkpt><trkpt lat="43.5509483" lon="12.3973383"><ele>524.0</ele><time>2026-04-22T11:18:15.706Z</time></trkpt><trkpt lat="43.55101" lon="12.3975467"><ele>520.0</ele><time>2026-04-22T11:18:16.706Z</time></trkpt><trkpt lat="43.5510617" lon="12.397765"><ele>516.0</ele><time>2026-04-22T11:18:17.706Z</time></trkpt><trkpt lat="43.551105" lon="12.3979717"><ele>512.0</ele><time>2026-04-22T11:18:18.706Z</time></trkpt><trkpt lat="43.5511333" lon="12.3981767"><ele>509.0</ele><time>2026-04-22T11:18:19.706Z</time></trkpt><trkpt lat="43.5511533" lon="12.3983933"><ele>506.0</ele><time>2026-04-22T11:18:20.706Z</time></trkpt><trkpt lat="43.551165" lon="12.3986167"><ele>503.0</ele><time>2026-04-22T11:18:21.706Z</time></trkpt><trkpt lat="43.5511733" lon="12.39884"><ele>502.3333333333333</ele><time>2026-04-22T11:18:22.707Z</time></trkpt><trkpt lat="43.55118" lon="12.39906"><ele>501.66666666666663</ele><time>2026-04-22T11:18:23.706Z</time></trkpt><trkpt lat="43.5511867" lon="12.3992833"><ele>501.0</ele><time>2026-04-22T11:18:24.706Z</time></trkpt><trkpt lat="43.5512067" lon="12.3994983"><ele>506.66666666666663</ele><time>2026-04-22T11:18:25.706Z</time></trkpt><trkpt lat="43.5512367" lon="12.3997083"><ele>512.3333333333333</ele><time>2026-04-22T11:18:26.706Z</time></trkpt><trkpt lat="43.5512783" lon="12.3999133"><ele>518.0</ele><time>2026-04-22T11:18:27.706Z</time></trkpt><trkpt lat="43.5513317" lon="12.4001083"><ele>518.0</ele><time>2026-04-22T11:18:28.706Z</time></trkpt><trkpt lat="43.5514033" lon="12.4002917"><ele>518.0</ele><time>2026-04-22T11:18:29.706Z</time></trkpt><trkpt lat="43.5514783" lon="12.40048"><ele>518.0</ele><time>2026-04-22T11:18:30.706Z</time></trkpt><trkpt lat="43.55156" lon="12.40066"><ele>514.6666666666666</ele><time>2026-04-22T11:18:31.706Z</time></trkpt><trkpt lat="43.5516533" lon="12.4008383"><ele>511.33333333333337</ele><time>2026-04-22T11:18:32.706Z</time></trkpt><trkpt lat="43.5517433" lon="12.4010183"><ele>508.0</ele><time>2026-04-22T11:18:33.706Z</time></trkpt><trkpt lat="43.55185" lon="12.40119"><ele>510.6666666666667</ele><time>2026-04-22T11:18:34.706Z</time></trkpt><trkpt lat="43.5519517" lon="12.40136"><ele>513.3333333333334</ele><time>2026-04-22T11:18:35.706Z</time></trkpt><trkpt lat="43.5520667" lon="12.401525"><ele>516.0</ele><time>2026-04-22T11:18:36.706Z</time></trkpt><trkpt lat="43.5521917" lon="12.4016767"><ele>516.0</ele><time>2026-04-22T11:18:37.706Z</time></trkpt><trkpt lat="43.5523383" lon="12.4018"><ele>516.0</ele><time>2026-04-22T11:18:38.706Z</time></trkpt><trkpt lat="43.5524867" lon="12.4019"><ele>516.0</ele><time>2026-04-22T11:18:39.706Z</time></trkpt><trkpt lat="43.5526383" lon="12.402015"><ele>516.0</ele><time>2026-04-22T11:18:40.706Z</time></trkpt><trkpt lat="43.5527867" lon="12.402125"><ele>516.0</ele><time>2026-04-22T11:18:41.706Z</time></trkpt><trkpt lat="43.5529433" lon="12.4022433"><ele>516.0</ele><time>2026-04-22T11:18:42.706Z</time></trkpt><trkpt lat="43.55309" lon="12.4023717"><ele>516.0</ele><time>2026-04-22T11:18:43.706Z</time></trkpt><trkpt lat="43.5532167" lon="12.4025267"><ele>516.0</ele><time>2026-04-22T11:18:44.707Z</time></trkpt><trkpt lat="43.553325" lon="12.4026967"><ele>516.0</ele><time>2026-04-22T11:18:45.706Z</time></trkpt><trkpt lat="43.553405" lon="12.40291"><ele>511.66666666666663</ele><time>2026-04-22T11:18:46.706Z</time></trkpt><trkpt lat="43.5534583" lon="12.403135"><ele>507.3333333333333</ele><time>2026-04-22T11:18:47.706Z</time></trkpt><trkpt lat="43.553495" lon="12.4033633"><ele>503.0</ele><time>2026-04-22T11:18:48.706Z</time></trkpt><trkpt lat="43.553545" lon="12.4035967"><ele>503.0</ele><time>2026-04-22T11:18:49.706Z</time></trkpt><trkpt lat="43.5536067" lon="12.4038183"><ele>503.0</ele><time>2026-04-22T11:18:50.706Z</time></trkpt><trkpt lat="43.5536667" lon="12.40404"><ele>503.0</ele><time>2026-04-22T11:18:51.706Z</time></trkpt><trkpt lat="43.5537317" lon="12.404255"><ele>502.3333333333333</ele><time>2026-04-22T11:18:52.706Z</time></trkpt><trkpt lat="43.5538017" lon="12.4044583"><ele>501.66666666666663</ele><time>2026-04-22T11:18:53.706Z</time></trkpt><trkpt lat="43.5538817" lon="12.4046367"><ele>501.0</ele><time>2026-04-22T11:18:54.706Z</time></trkpt><trkpt lat="43.5539867" lon="12.4047917"><ele>501.0</ele><time>2026-04-22T11:18:55.706Z</time></trkpt><trkpt lat="43.5541017" lon="12.404935"><ele>501.0</ele><time>2026-04-22T11:18:56.706Z</time></trkpt><trkpt lat="43.55422" lon="12.40508"><ele>501.0</ele><time>2026-04-22T11:18:57.706Z</time></trkpt><trkpt lat="43.55434" lon="12.4052267"><ele>501.0</ele><time>2026-04-22T11:18:58.706Z</time></trkpt><trkpt lat="43.55446" lon="12.40538"><ele>501.0</ele><time>2026-04-22T11:18:59.706Z</time></trkpt><trkpt lat="43.5545817" lon="12.4055283"><ele>501.0</ele><time>2026-04-22T11:19:00.706Z</time></trkpt><trkpt lat="43.554695" lon="12.40569"><ele>502.33333333333337</ele><time>2026-04-22T11:19:01.706Z</time></trkpt><trkpt lat="43.5548167" lon="12.4058617"><ele>503.6666666666667</ele><time>2026-04-22T11:19:02.706Z</time></trkpt><trkpt lat="43.5549167" lon="12.406045"><ele>505.0</ele><time>2026-04-22T11:19:03.706Z</time></trkpt><trkpt lat="43.554995" lon="12.4062533"><ele>502.0</ele><time>2026-04-22T11:19:04.706Z</time></trkpt><trkpt lat="43.5550717" lon="12.4064567"><ele>499.0</ele><time>2026-04-22T11:19:05.706Z</time></trkpt><trkpt lat="43.55515" lon="12.406665"><ele>496.0</ele><time>2026-04-22T11:19:06.707Z</time></trkpt><trkpt lat="43.55525" lon="12.40686"><ele>496.0</ele><time>2026-04-22T11:19:07.706Z</time></trkpt><trkpt lat="43.5553567" lon="12.4070567"><ele>496.0</ele><time>2026-04-22T11:19:08.706Z</time></trkpt><trkpt lat="43.5554683" lon="12.407235"><ele>496.0</ele><time>2026-04-22T11:19:09.707Z</time></trkpt><trkpt lat="43.5555783" lon="12.4074183"><ele>496.33333333333337</ele><time>2026-04-22T11:19:10.706Z</time></trkpt><trkpt lat="43.555695" lon="12.4075883"><ele>496.66666666666663</ele><time>2026-04-22T11:19:11.706Z</time></trkpt><trkpt lat="43.5558083" lon="12.407765"><ele>497.0</ele><time>2026-04-22T11:19:12.706Z</time></trkpt><trkpt lat="43.5559217" lon="12.407945"><ele>495.66666666666663</ele><time>2026-04-22T11:19:13.706Z</time></trkpt><trkpt lat="43.5560517" lon="12.4081"><ele>494.33333333333337</ele><time>2026-04-22T11:19:14.706Z</time></trkpt><trkpt lat="43.55618" lon="12.4082533"><ele>493.0</ele><time>2026-04-22T11:19:15.706Z</time></trkpt><trkpt lat="43.5563017" lon="12.4084117"><ele>493.0</ele><time>2026-04-22T11:19:16.706Z</time></trkpt><trkpt lat="43.55643" lon="12.4085667"><ele>493.0</ele><time>2026-04-22T11:19:17.706Z</time></trkpt><trkpt lat="43.5565633" lon="12.408715"><ele>493.0</ele><time>2026-04-22T11:19:18.707Z</time></trkpt><trkpt lat="43.5567" lon="12.408845"><ele>493.0</ele><time>2026-04-22T11:19:19.706Z</time></trkpt><trkpt lat="43.5568317" lon="12.408985"><ele>493.0</ele><time>2026-04-22T11:19:20.707Z</time></trkpt><trkpt lat="43.556975" lon="12.4091267"><ele>493.0</ele><time>2026-04-22T11:19:21.707Z</time></trkpt><trkpt lat="43.55712" lon="12.409255"><ele>493.0</ele><time>2026-04-22T11:19:22.707Z</time></trkpt><trkpt lat="43.5572633" lon="12.4093817"><ele>493.0</ele><time>2026-04-22T11:19:23.706Z</time></trkpt><trkpt lat="43.5574083" lon="12.40951"><ele>493.0</ele><time>2026-04-22T11:19:24.707Z</time></trkpt><trkpt lat="43.5575517" lon="12.40964"><ele>492.0</ele><time>2026-04-22T11:19:25.706Z</time></trkpt><trkpt lat="43.5576817" lon="12.4097667"><ele>491.0</ele><time>2026-04-22T11:19:26.706Z</time></trkpt><trkpt lat="43.5578" lon="12.4098883"><ele>490.0</ele><time>2026-04-22T11:19:27.706Z</time></trkpt><trkpt lat="43.5579117" lon="12.4100033"><ele>489.0</ele><time>2026-04-22T11:19:28.707Z</time></trkpt><trkpt lat="43.5580267" lon="12.4101233"><ele>489.0</ele><time>2026-04-22T11:19:29.706Z</time></trkpt><trkpt lat="43.5581383" lon="12.41024"><ele>489.0</ele><time>2026-04-22T11:19:30.707Z</time></trkpt><trkpt lat="43.5582517" lon="12.4103483"><ele>489.0</ele><time>2026-04-22T11:19:31.706Z</time></trkpt><trkpt lat="43.5583517" lon="12.410455"><ele>489.0</ele><time>2026-04-22T11:19:32.707Z</time></trkpt><trkpt lat="43.55845" lon="12.4105717"><ele>488.75</ele><time>2026-04-22T11:19:33.706Z</time></trkpt><trkpt lat="43.5585367" lon="12.410695"><ele>488.5</ele><time>2026-04-22T11:19:34.706Z</time></trkpt><trkpt lat="43.5586283" lon="12.4108267"><ele>488.25</ele><time>2026-04-22T11:19:35.706Z</time></trkpt><trkpt lat="43.558705" lon="12.4109667"><ele>488.0</ele><time>2026-04-22T11:19:36.706Z</time></trkpt><trkpt lat="43.5587733" lon="12.41111"><ele>492.0</ele><time>2026-04-22T11:19:37.706Z</time></trkpt><trkpt lat="43.558835" lon="12.4112683"><ele>496.0</ele><time>2026-04-22T11:19:38.706Z</time></trkpt><trkpt lat="43.558885" lon="12.4114283"><ele>500.0</ele><time>2026-04-22T11:19:39.706Z</time></trkpt><trkpt lat="43.558935" lon="12.4116"><ele>504.0</ele><time>2026-04-22T11:19:40.707Z</time></trkpt><trkpt lat="43.55898" lon="12.4117733"><ele>504.0</ele><time>2026-04-22T11:19:41.707Z</time></trkpt><trkpt lat="43.5590233" lon="12.4119533"><ele>504.0</ele><time>2026-04-22T11:19:42.706Z</time></trkpt><trkpt lat="43.5590667" lon="12.4121317"><ele>504.0</ele><time>2026-04-22T11:19:43.706Z</time></trkpt><trkpt lat="43.5591133" lon="12.412305"><ele>504.0</ele><time>2026-04-22T11:19:44.706Z</time></trkpt><trkpt lat="43.559155" lon="12.41247"><ele>501.25</ele><time>2026-04-22T11:19:45.707Z</time></trkpt><trkpt lat="43.5592" lon="12.41265"><ele>498.5</ele><time>2026-04-22T11:19:46.706Z</time></trkpt><trkpt lat="43.559245" lon="12.4128283"><ele>495.75</ele><time>2026-04-22T11:19:47.706Z</time></trkpt><trkpt lat="43.5592917" lon="12.4129917"><ele>493.0</ele><time>2026-04-22T11:19:48.706Z</time></trkpt><trkpt lat="43.559335" lon="12.413155"><ele>491.25</ele><time>2026-04-22T11:19:49.706Z</time></trkpt><trkpt lat="43.55938" lon="12.4133133"><ele>489.5</ele><time>2026-04-22T11:19:50.706Z</time></trkpt><trkpt lat="43.5594233" lon="12.4134733"><ele>487.75</ele><time>2026-04-22T11:19:51.706Z</time></trkpt><trkpt lat="43.5594617" lon="12.4136283"><ele>486.0</ele><time>2026-04-22T11:19:52.706Z</time></trkpt><trkpt lat="43.5594933" lon="12.4137867"><ele>484.5</ele><time>2026-04-22T11:19:53.707Z</time></trkpt><trkpt lat="43.5595267" lon="12.4139417"><ele>483.0</ele><time>2026-04-22T11:19:54.706Z</time></trkpt><trkpt lat="43.5595567" lon="12.4140967"><ele>481.5</ele><time>2026-04-22T11:19:55.707Z</time></trkpt><trkpt lat="43.5595683" lon="12.4142483"><ele>480.0</ele><time>2026-04-22T11:19:56.706Z</time></trkpt><trkpt lat="43.55957" lon="12.4143983"><ele>480.2</ele><time>2026-04-22T11:19:57.706Z</time></trkpt><trkpt lat="43.5595617" lon="12.4145533"><ele>480.4</ele><time>2026-04-22T11:19:58.707Z</time></trkpt><trkpt lat="43.559555" lon="12.414695"><ele>480.6</ele><time>2026-04-22T11:19:59.707Z</time></trkpt><trkpt lat="43.5595483" lon="12.4148333"><ele>480.8</ele><time>2026-04-22T11:20:00.706Z</time></trkpt><trkpt lat="43.55954" lon="12.4149617"><ele>481.0</ele><time>2026-04-22T11:20:01.706Z</time></trkpt><trkpt lat="43.5595333" lon="12.4150817"><ele>481.0</ele><time>2026-04-22T11:20:02.706Z</time></trkpt><trkpt lat="43.5595333" lon="12.41521"><ele>481.0</ele><time>2026-04-22T11:20:03.706Z</time></trkpt><trkpt lat="43.559545" lon="12.4153383"><ele>481.0</ele><time>2026-04-22T11:20:04.706Z</time></trkpt><trkpt lat="43.5595733" lon="12.4154567"><ele>481.0</ele><time>2026-04-22T11:20:05.706Z</time></trkpt><trkpt lat="43.559615" lon="12.4155767"><ele>481.0</ele><time>2026-04-22T11:20:06.706Z</time></trkpt><trkpt lat="43.5596617" lon="12.41569"><ele>483.8</ele><time>2026-04-22T11:20:07.706Z</time></trkpt><trkpt lat="43.5597133" lon="12.4158033"><ele>486.6</ele><time>2026-04-22T11:20:08.707Z</time></trkpt><trkpt lat="43.5597633" lon="12.4159133"><ele>489.4</ele><time>2026-04-22T11:20:09.706Z</time></trkpt><trkpt lat="43.559815" lon="12.416025"><ele>492.2</ele><time>2026-04-22T11:20:10.706Z</time></trkpt><trkpt lat="43.5598617" lon="12.4161367"><ele>495.0</ele><time>2026-04-22T11:20:11.707Z</time></trkpt><trkpt lat="43.5598983" lon="12.4162483"><ele>494.1666666666667</ele><time>2026-04-22T11:20:12.706Z</time></trkpt><trkpt lat="43.5599233" lon="12.41637"><ele>493.33333333333337</ele><time>2026-04-22T11:20:13.707Z</time></trkpt><trkpt lat="43.5599333" lon="12.4164833"><ele>492.5</ele><time>2026-04-22T11:20:14.706Z</time></trkpt><trkpt lat="43.5599333" lon="12.4166"><ele>491.6666666666667</ele><time>2026-04-22T11:20:15.707Z</time></trkpt><trkpt lat="43.5599133" lon="12.4167033"><ele>490.83333333333337</ele><time>2026-04-22T11:20:16.707Z</time></trkpt><trkpt lat="43.5598783" lon="12.4167967"><ele>490.0</ele><time>2026-04-22T11:20:17.706Z</time></trkpt><trkpt lat="43.5598367" lon="12.4168967"><ele>490.00000000000006</ele><time>2026-04-22T11:20:18.706Z</time></trkpt><trkpt lat="43.5597883" lon="12.41699"><ele>490.0</ele><time>2026-04-22T11:20:19.706Z</time></trkpt><trkpt lat="43.559735" lon="12.41708"><ele>490.0</ele><time>2026-04-22T11:20:20.706Z</time></trkpt><trkpt lat="43.5596733" lon="12.41716"><ele>490.0</ele><time>2026-04-22T11:20:21.706Z</time></trkpt><trkpt lat="43.5596083" lon="12.4172383"><ele>490.00000000000006</ele><time>2026-04-22T11:20:22.706Z</time></trkpt><trkpt lat="43.559545" lon="12.4173133"><ele>490.0</ele><time>2026-04-22T11:20:23.706Z</time></trkpt><trkpt lat="43.5594817" lon="12.41739"><ele>488.83333333333337</ele><time>2026-04-22T11:20:24.706Z</time></trkpt><trkpt lat="43.55942" lon="12.4174667"><ele>487.6666666666667</ele><time>2026-04-22T11:20:25.707Z</time></trkpt><trkpt lat="43.559355" lon="12.41754"><ele>486.5</ele><time>2026-04-22T11:20:26.706Z</time></trkpt><trkpt lat="43.5592917" lon="12.4176167"><ele>485.33333333333337</ele><time>2026-04-22T11:20:27.706Z</time></trkpt><trkpt lat="43.5592317" lon="12.41769"><ele>484.1666666666667</ele><time>2026-04-22T11:20:28.706Z</time></trkpt><trkpt lat="43.55918" lon="12.4177633"><ele>483.0</ele><time>2026-04-22T11:20:29.706Z</time></trkpt><trkpt lat="43.5591267" lon="12.4178517"><ele>483.0</ele><time>2026-04-22T11:20:30.706Z</time></trkpt><trkpt lat="43.5590883" lon="12.4179583"><ele>483.0</ele><time>2026-04-22T11:20:31.706Z</time></trkpt><trkpt lat="43.5590583" lon="12.41806"><ele>483.0</ele><time>2026-04-22T11:20:32.706Z</time></trkpt><trkpt lat="43.559045" lon="12.4181683"><ele>483.0</ele><time>2026-04-22T11:20:33.707Z</time></trkpt><trkpt lat="43.5590317" lon="12.41827"><ele>483.0</ele><time>2026-04-22T11:20:34.707Z</time></trkpt><trkpt lat="43.5590217" lon="12.418365"><ele>483.0</ele><time>2026-04-22T11:20:35.706Z</time></trkpt><trkpt lat="43.5590117" lon="12.4184517"><ele>482.79999999999995</ele><time>2026-04-22T11:20:36.706Z</time></trkpt><trkpt lat="43.559" lon="12.41854"><ele>482.59999999999997</ele><time>2026-04-22T11:20:37.706Z</time></trkpt><trkpt lat="43.5589967" lon="12.4186333"><ele>482.40000000000003</ele><time>2026-04-22T11:20:38.706Z</time></trkpt><trkpt lat="43.5590033" lon="12.4187933"><ele>482.20000000000005</ele><time>2026-04-22T11:20:40.706Z</time></trkpt><trkpt lat="43.5590167" lon="12.4189617"><ele>482.0</ele><time>2026-04-22T11:20:42.706Z</time></trkpt><trkpt lat="43.559015" lon="12.4191267"><ele>481.66666666666663</ele><time>2026-04-22T11:20:44.706Z</time></trkpt><trkpt lat="43.5590117" lon="12.419215"><ele>481.3333333333333</ele><time>2026-04-22T11:20:45.706Z</time></trkpt><trkpt lat="43.5590067" lon="12.4193033"><ele>481.0</ele><time>2026-04-22T11:20:46.707Z</time></trkpt><trkpt lat="43.558995" lon="12.4194517"><ele>480.66666666666663</ele><time>2026-04-22T11:20:48.707Z</time></trkpt><trkpt lat="43.5589717" lon="12.4195483"><ele>480.3333333333333</ele><time>2026-04-22T11:20:51.706Z</time></trkpt><trkpt lat="43.5590367" lon="12.41963"><ele>480.0</ele><time>2026-04-22T11:25:55.706Z</time></trkpt><trkpt lat="43.5590433" lon="12.4197417"><ele>479.6666666666667</ele><time>2026-04-22T11:25:57.706Z</time></trkpt><trkpt lat="43.55906" lon="12.4198783"><ele>479.33333333333337</ele><time>2026-04-22T11:25:59.706Z</time></trkpt><trkpt lat="43.559075" lon="12.41999"><ele>479.0</ele><time>2026-04-22T11:26:01.706Z</time></trkpt><trkpt lat="43.55904" lon="12.4200883"><ele>478.6666666666667</ele><time>2026-04-22T11:26:04.706Z</time></trkpt><trkpt lat="43.5589767" lon="12.4201267"><ele>478.33333333333337</ele><time>2026-04-22T11:26:07.706Z</time></trkpt><trkpt lat="43.5589217" lon="12.4202033"><ele>478.0</ele><time>2026-04-22T11:26:18.706Z</time></trkpt><trkpt lat="43.5588383" lon="12.4202883"><ele>478.00000000000006</ele><time>2026-04-22T11:26:34.706Z</time></trkpt><trkpt lat="43.55879" lon="12.4203483"><ele>478.0</ele><time>2026-04-22T11:26:38.707Z</time></trkpt><trkpt lat="43.55886" lon="12.4202967"><ele>478.00000000000006</ele><time>2026-04-22T11:26:45.706Z</time></trkpt><trkpt lat="43.5589083" lon="12.420235"><ele>478.00000000000006</ele><time>2026-04-22T11:26:47.706Z</time></trkpt><trkpt lat="43.5589617" lon="12.42018"><ele>478.0</ele><time>2026-04-22T11:26:49.706Z</time></trkpt><trkpt lat="43.5590217" lon="12.4200933"><ele>478.00000000000006</ele><time>2026-04-22T11:26:52.706Z</time></trkpt><trkpt lat="43.5590367" lon="12.419985"><ele>478.00000000000006</ele><time>2026-04-22T11:26:54.707Z</time></trkpt><trkpt lat="43.5590367" lon="12.4198317"><ele>478.0</ele><time>2026-04-22T11:26:56.706Z</time></trkpt><trkpt lat="43.55902" lon="12.41967"><ele>477.99999999999994</ele><time>2026-04-22T11:26:58.706Z</time></trkpt><trkpt lat="43.5590083" lon="12.4195817"><ele>477.99999999999994</ele><time>2026-04-22T11:26:59.706Z</time></trkpt><trkpt lat="43.5590083" lon="12.4194083"><ele>478.0</ele><time>2026-04-22T11:27:01.706Z</time></trkpt><trkpt lat="43.5590133" lon="12.4192467"><ele>478.0</ele><time>2026-04-22T11:27:03.706Z</time></trkpt><trkpt lat="43.5590217" lon="12.4191067"><ele>480.0</ele><time>2026-04-22T11:27:05.707Z</time></trkpt><trkpt lat="43.55903" lon="12.4190117"><ele>480.0</ele><time>2026-04-22T11:27:07.706Z</time></trkpt><trkpt lat="43.5590183" lon="12.418925"><ele>480.0</ele><time>2026-04-22T11:27:10.706Z</time></trkpt><trkpt lat="43.559025" lon="12.4188133"><ele>482.0</ele><time>2026-04-22T11:27:26.706Z</time></trkpt><trkpt lat="43.55902" lon="12.4186967"><ele>482.0</ele><time>2026-04-22T11:27:29.706Z</time></trkpt><trkpt lat="43.5590317" lon="12.4185817"><ele>482.0</ele><time>2026-04-22T11:27:32.706Z</time></trkpt><trkpt lat="43.5590417" lon="12.418495"><ele>482.0</ele><time>2026-04-22T11:27:34.706Z</time></trkpt></trkseg><trkseg><trkpt lat="43.559004" lon="12.4190252"><ele>480.0</ele><time>2026-04-22T12:26:40.649Z</time></trkpt><trkpt lat="43.5590826" lon="12.4190646"><ele>480.0</ele><time>2026-04-22T12:29:46.615Z</time></trkpt><trkpt lat="43.5590533" lon="12.4191467"><ele>480.0</ele><time>2026-04-22T12:29:51.622Z</time></trkpt><trkpt lat="43.55902" lon="12.4192717"><ele>480.0</ele><time>2026-04-22T12:29:54.623Z</time></trkpt><trkpt lat="43.55901" lon="12.4193667"><ele>480.0</ele><time>2026-04-22T12:29:56.622Z</time></trkpt><trkpt lat="43.5589983" lon="12.4194767"><ele>480.0</ele><time>2026-04-22T12:29:58.622Z</time></trkpt><trkpt lat="43.5589933" lon="12.419605"><ele>479.6</ele><time>2026-04-22T12:30:00.622Z</time></trkpt><trkpt lat="43.5590117" lon="12.41975"><ele>479.2</ele><time>2026-04-22T12:30:02.622Z</time></trkpt><trkpt lat="43.55902" lon="12.4198883"><ele>478.79999999999995</ele><time>2026-04-22T12:30:04.622Z</time></trkpt><trkpt lat="43.55903" lon="12.4200117"><ele>478.4</ele><time>2026-04-22T12:30:06.622Z</time></trkpt><trkpt lat="43.5589933" lon="12.420105"><ele>478.0</ele><time>2026-04-22T12:30:08.622Z</time></trkpt><trkpt lat="43.5589183" lon="12.4201917"><ele>478.00000000000006</ele><time>2026-04-22T12:30:10.623Z</time></trkpt><trkpt lat="43.5588383" lon="12.420285"><ele>478.0</ele><time>2026-04-22T12:30:12.622Z</time></trkpt><trkpt lat="43.5587633" lon="12.4203733"><ele>478.0</ele><time>2026-04-22T12:30:14.622Z</time></trkpt><trkpt lat="43.5587083" lon="12.420425"><ele>478.0</ele><time>2026-04-22T12:30:15.622Z</time></trkpt><trkpt lat="43.5586583" lon="12.420485"><ele>478.00000000000006</ele><time>2026-04-22T12:30:16.622Z</time></trkpt><trkpt lat="43.5586083" lon="12.4205483"><ele>478.0</ele><time>2026-04-22T12:30:17.622Z</time></trkpt><trkpt lat="43.5585467" lon="12.4206233"><ele>477.59999999999997</ele><time>2026-04-22T12:30:18.622Z</time></trkpt><trkpt lat="43.558485" lon="12.4207017"><ele>477.19999999999993</ele><time>2026-04-22T12:30:19.622Z</time></trkpt><trkpt lat="43.5584083" lon="12.42077"><ele>476.8</ele><time>2026-04-22T12:30:20.623Z</time></trkpt><trkpt lat="43.5583283" lon="12.4208317"><ele>476.4</ele><time>2026-04-22T12:30:21.623Z</time></trkpt><trkpt lat="43.5582483" lon="12.4208983"><ele>476.0</ele><time>2026-04-22T12:30:22.622Z</time></trkpt><trkpt lat="43.558165" lon="12.42096"><ele>475.99999999999994</ele><time>2026-04-22T12:30:23.623Z</time></trkpt><trkpt lat="43.558085" lon="12.4210217"><ele>476.0</ele><time>2026-04-22T12:30:24.622Z</time></trkpt><trkpt lat="43.5580017" lon="12.4210783"><ele>476.0</ele><time>2026-04-22T12:30:25.622Z</time></trkpt><trkpt lat="43.55792" lon="12.4211267"><ele>476.0</ele><time>2026-04-22T12:30:26.622Z</time></trkpt><trkpt lat="43.5578383" lon="12.4211667"><ele>475.99999999999994</ele><time>2026-04-22T12:30:27.622Z</time></trkpt><trkpt lat="43.5577567" lon="12.4211767"><ele>476.0</ele><time>2026-04-22T12:30:28.622Z</time></trkpt><trkpt lat="43.5576667" lon="12.421175"><ele>476.0</ele><time>2026-04-22T12:30:29.622Z</time></trkpt><trkpt lat="43.5575683" lon="12.421165"><ele>476.0</ele><time>2026-04-22T12:30:30.622Z</time></trkpt><trkpt lat="43.5574733" lon="12.4211333"><ele>476.0</ele><time>2026-04-22T12:30:31.622Z</time></trkpt><trkpt lat="43.5573783" lon="12.4211067"><ele>476.0</ele><time>2026-04-22T12:30:32.622Z</time></trkpt><trkpt lat="43.5572833" lon="12.4210883"><ele>476.0</ele><time>2026-04-22T12:30:33.622Z</time></trkpt><trkpt lat="43.5571917" lon="12.4210617"><ele>476.0</ele><time>2026-04-22T12:30:34.622Z</time></trkpt><trkpt lat="43.557095" lon="12.4210317"><ele>476.0</ele><time>2026-04-22T12:30:35.622Z</time></trkpt><trkpt lat="43.557005" lon="12.4209933"><ele>476.0</ele><time>2026-04-22T12:30:36.622Z</time></trkpt><trkpt lat="43.5569083" lon="12.4209567"><ele>476.0</ele><time>2026-04-22T12:30:37.622Z</time></trkpt><trkpt lat="43.5568083" lon="12.420925"><ele>476.0</ele><time>2026-04-22T12:30:38.622Z</time></trkpt><trkpt lat="43.5567117" lon="12.420875"><ele>475.8</ele><time>2026-04-22T12:30:39.622Z</time></trkpt><trkpt lat="43.556615" lon="12.42082"><ele>475.6</ele><time>2026-04-22T12:30:40.622Z</time></trkpt><trkpt lat="43.5565133" lon="12.420745"><ele>475.4</ele><time>2026-04-22T12:30:41.622Z</time></trkpt><trkpt lat="43.556425" lon="12.420665"><ele>475.2</ele><time>2026-04-22T12:30:42.622Z</time></trkpt><trkpt lat="43.5563283" lon="12.42057"><ele>475.0</ele><time>2026-04-22T12:30:43.622Z</time></trkpt><trkpt lat="43.55622" lon="12.4204867"><ele>475.25</ele><time>2026-04-22T12:30:44.622Z</time></trkpt><trkpt lat="43.55612" lon="12.4203917"><ele>475.5</ele><time>2026-04-22T12:30:45.622Z</time></trkpt><trkpt lat="43.5560117" lon="12.4203067"><ele>475.75</ele><time>2026-04-22T12:30:46.622Z</time></trkpt><trkpt lat="43.5559067" lon="12.420225"><ele>476.0</ele><time>2026-04-22T12:30:47.622Z</time></trkpt><trkpt lat="43.5558017" lon="12.4201383"><ele>476.0</ele><time>2026-04-22T12:30:48.622Z</time></trkpt><trkpt lat="43.5556933" lon="12.4200467"><ele>476.0</ele><time>2026-04-22T12:30:49.622Z</time></trkpt><trkpt lat="43.5555883" lon="12.4199617"><ele>476.0</ele><time>2026-04-22T12:30:50.623Z</time></trkpt><trkpt lat="43.5554883" lon="12.419885"><ele>476.0</ele><time>2026-04-22T12:30:51.622Z</time></trkpt><trkpt lat="43.555405" lon="12.4198"><ele>476.66666666666663</ele><time>2026-04-22T12:30:52.622Z</time></trkpt><trkpt lat="43.5553183" lon="12.4197367"><ele>477.3333333333333</ele><time>2026-04-22T12:30:53.622Z</time></trkpt><trkpt lat="43.5552383" lon="12.4196717"><ele>478.0</ele><time>2026-04-22T12:30:54.623Z</time></trkpt><trkpt lat="43.55518" lon="12.419615"><ele>478.66666666666663</ele><time>2026-04-22T12:30:55.623Z</time></trkpt><trkpt lat="43.5551317" lon="12.4195467"><ele>479.3333333333333</ele><time>2026-04-22T12:30:56.622Z</time></trkpt><trkpt lat="43.5550867" lon="12.41942"><ele>480.0</ele><time>2026-04-22T12:30:58.622Z</time></trkpt><trkpt lat="43.5550667" lon="12.4193217"><ele>481.1666666666667</ele><time>2026-04-22T12:31:00.622Z</time></trkpt><trkpt lat="43.5549667" lon="12.41926"><ele>482.33333333333337</ele><time>2026-04-22T12:31:03.622Z</time></trkpt><trkpt lat="43.5548983" lon="12.4192617"><ele>483.5</ele><time>2026-04-22T12:31:04.622Z</time></trkpt><trkpt lat="43.5548233" lon="12.4192867"><ele>484.6666666666667</ele><time>2026-04-22T12:31:05.623Z</time></trkpt><trkpt lat="43.5547367" lon="12.4193117"><ele>485.83333333333337</ele><time>2026-04-22T12:31:06.622Z</time></trkpt><trkpt lat="43.5546383" lon="12.4193333"><ele>487.0</ele><time>2026-04-22T12:31:07.622Z</time></trkpt><trkpt lat="43.5545417" lon="12.419345"><ele>488.0</ele><time>2026-04-22T12:31:08.622Z</time></trkpt><trkpt lat="43.5544433" lon="12.4193633"><ele>489.00000000000006</ele><time>2026-04-22T12:31:09.622Z</time></trkpt><trkpt lat="43.5543383" lon="12.4193933"><ele>490.00000000000006</ele><time>2026-04-22T12:31:10.623Z</time></trkpt><trkpt lat="43.5542217" lon="12.41943"><ele>491.0</ele><time>2026-04-22T12:31:11.622Z</time></trkpt><trkpt lat="43.554105" lon="12.4194733"><ele>492.0</ele><time>2026-04-22T12:31:12.622Z</time></trkpt><trkpt lat="43.5539883" lon="12.4195267"><ele>492.0</ele><time>2026-04-22T12:31:13.622Z</time></trkpt><trkpt lat="43.55388" lon="12.4195717"><ele>492.0</ele><time>2026-04-22T12:31:14.622Z</time></trkpt><trkpt lat="43.5537633" lon="12.4196233"><ele>492.0</ele><time>2026-04-22T12:31:15.622Z</time></trkpt><trkpt lat="43.553655" lon="12.419685"><ele>492.0</ele><time>2026-04-22T12:31:16.622Z</time></trkpt><trkpt lat="43.5535567" lon="12.4197467"><ele>491.0</ele><time>2026-04-22T12:31:17.622Z</time></trkpt><trkpt lat="43.5534617" lon="12.41981"><ele>490.00000000000006</ele><time>2026-04-22T12:31:18.622Z</time></trkpt><trkpt lat="43.5533667" lon="12.4198667"><ele>489.00000000000006</ele><time>2026-04-22T12:31:19.622Z</time></trkpt><trkpt lat="43.5532733" lon="12.4199083"><ele>488.0</ele><time>2026-04-22T12:31:20.623Z</time></trkpt><trkpt lat="43.5531733" lon="12.4199317"><ele>487.0</ele><time>2026-04-22T12:31:21.622Z</time></trkpt><trkpt lat="43.5530817" lon="12.4199433"><ele>487.0</ele><time>2026-04-22T12:31:22.623Z</time></trkpt><trkpt lat="43.5529933" lon="12.4199483"><ele>487.00000000000006</ele><time>2026-04-22T12:31:23.622Z</time></trkpt><trkpt lat="43.5528967" lon="12.4199467"><ele>487.00000000000006</ele><time>2026-04-22T12:31:24.622Z</time></trkpt><trkpt lat="43.5528033" lon="12.4199483"><ele>487.0</ele><time>2026-04-22T12:31:25.622Z</time></trkpt><trkpt lat="43.552705" lon="12.4199433"><ele>487.0</ele><time>2026-04-22T12:31:26.622Z</time></trkpt><trkpt lat="43.552605" lon="12.4199317"><ele>487.0</ele><time>2026-04-22T12:31:27.622Z</time></trkpt><trkpt lat="43.5524967" lon="12.419925"><ele>487.00000000000006</ele><time>2026-04-22T12:31:28.622Z</time></trkpt><trkpt lat="43.5523933" lon="12.419925"><ele>487.00000000000006</ele><time>2026-04-22T12:31:29.622Z</time></trkpt><trkpt lat="43.5522783" lon="12.4199183"><ele>487.0</ele><time>2026-04-22T12:31:30.622Z</time></trkpt><trkpt lat="43.5521683" lon="12.419895"><ele>487.0</ele><time>2026-04-22T12:31:31.623Z</time></trkpt><trkpt lat="43.55206" lon="12.4198583"><ele>486.25</ele><time>2026-04-22T12:31:32.622Z</time></trkpt><trkpt lat="43.5519517" lon="12.4198267"><ele>485.5</ele><time>2026-04-22T12:31:33.622Z</time></trkpt><trkpt lat="43.55184" lon="12.4197867"><ele>484.75</ele><time>2026-04-22T12:31:34.622Z</time></trkpt><trkpt lat="43.55173" lon="12.4197483"><ele>484.0</ele><time>2026-04-22T12:31:35.622Z</time></trkpt><trkpt lat="43.551615" lon="12.4197"><ele>484.0</ele><time>2026-04-22T12:31:36.622Z</time></trkpt><trkpt lat="43.5514967" lon="12.41966"><ele>484.0</ele><time>2026-04-22T12:31:37.622Z</time></trkpt><trkpt lat="43.55138" lon="12.4196333"><ele>484.0</ele><time>2026-04-22T12:31:38.622Z</time></trkpt><trkpt lat="43.55125" lon="12.4196017"><ele>484.0</ele><time>2026-04-22T12:31:39.622Z</time></trkpt><trkpt lat="43.551125" lon="12.41957"><ele>487.6</ele><time>2026-04-22T12:31:40.623Z</time></trkpt><trkpt lat="43.5510067" lon="12.4195383"><ele>491.2</ele><time>2026-04-22T12:31:41.622Z</time></trkpt><trkpt lat="43.5509" lon="12.4195183"><ele>494.80000000000007</ele><time>2026-04-22T12:31:42.623Z</time></trkpt><trkpt lat="43.5507917" lon="12.419495"><ele>498.40000000000003</ele><time>2026-04-22T12:31:43.623Z</time></trkpt><trkpt lat="43.5506817" lon="12.419505"><ele>502.0</ele><time>2026-04-22T12:31:44.622Z</time></trkpt><trkpt lat="43.5505733" lon="12.4195033"><ele>502.0</ele><time>2026-04-22T12:31:45.622Z</time></trkpt><trkpt lat="43.5504583" lon="12.4195133"><ele>502.0</ele><time>2026-04-22T12:31:46.622Z</time></trkpt><trkpt lat="43.5503467" lon="12.4195383"><ele>502.0</ele><time>2026-04-22T12:31:47.623Z</time></trkpt><trkpt lat="43.55024" lon="12.4195767"><ele>502.0</ele><time>2026-04-22T12:31:48.622Z</time></trkpt><trkpt lat="43.5501267" lon="12.4196183"><ele>497.75</ele><time>2026-04-22T12:31:49.622Z</time></trkpt><trkpt lat="43.5500217" lon="12.4196683"><ele>493.5</ele><time>2026-04-22T12:31:50.622Z</time></trkpt><trkpt lat="43.5499117" lon="12.4197317"><ele>489.25</ele><time>2026-04-22T12:31:51.622Z</time></trkpt><trkpt lat="43.54981" lon="12.4198083"><ele>485.0</ele><time>2026-04-22T12:31:52.622Z</time></trkpt><trkpt lat="43.54971" lon="12.4199017"><ele>485.0</ele><time>2026-04-22T12:31:53.622Z</time></trkpt><trkpt lat="43.5496067" lon="12.42001"><ele>485.0</ele><time>2026-04-22T12:31:54.622Z</time></trkpt><trkpt lat="43.549505" lon="12.420105"><ele>485.0</ele><time>2026-04-22T12:31:55.622Z</time></trkpt><trkpt lat="43.5493967" lon="12.4202133"><ele>485.0</ele><time>2026-04-22T12:31:56.622Z</time></trkpt><trkpt lat="43.54929" lon="12.4203167"><ele>485.5</ele><time>2026-04-22T12:31:57.622Z</time></trkpt><trkpt lat="43.5491883" lon="12.4204133"><ele>486.0</ele><time>2026-04-22T12:31:58.622Z</time></trkpt><trkpt lat="43.5490883" lon="12.42052"><ele>486.5</ele><time>2026-04-22T12:31:59.622Z</time></trkpt><trkpt lat="43.5489917" lon="12.420615"><ele>487.0</ele><time>2026-04-22T12:32:00.623Z</time></trkpt><trkpt lat="43.548895" lon="12.4207067"><ele>487.0</ele><time>2026-04-22T12:32:01.622Z</time></trkpt><trkpt lat="43.5487983" lon="12.4208"><ele>487.0</ele><time>2026-04-22T12:32:02.622Z</time></trkpt><trkpt lat="43.5487017" lon="12.4208917"><ele>487.0</ele><time>2026-04-22T12:32:03.622Z</time></trkpt><trkpt lat="43.5486083" lon="12.4210017"><ele>487.0</ele><time>2026-04-22T12:32:04.622Z</time></trkpt><trkpt lat="43.5485067" lon="12.42111"><ele>487.0</ele><time>2026-04-22T12:32:05.622Z</time></trkpt><trkpt lat="43.5483967" lon="12.421215"><ele>487.0</ele><time>2026-04-22T12:32:06.622Z</time></trkpt><trkpt lat="43.5482933" lon="12.421325"><ele>487.0</ele><time>2026-04-22T12:32:07.622Z</time></trkpt><trkpt lat="43.5481833" lon="12.4214333"><ele>487.0</ele><time>2026-04-22T12:32:08.623Z</time></trkpt><trkpt lat="43.5480783" lon="12.4215267"><ele>487.75</ele><time>2026-04-22T12:32:09.622Z</time></trkpt><trkpt lat="43.5479733" lon="12.4216383"><ele>488.5</ele><time>2026-04-22T12:32:10.622Z</time></trkpt><trkpt lat="43.5478733" lon="12.4217467"><ele>489.25</ele><time>2026-04-22T12:32:11.622Z</time></trkpt><trkpt lat="43.547765" lon="12.4218533"><ele>490.0</ele><time>2026-04-22T12:32:12.622Z</time></trkpt><trkpt lat="43.54766" lon="12.4219583"><ele>490.0</ele><time>2026-04-22T12:32:13.622Z</time></trkpt><trkpt lat="43.54756" lon="12.422055"><ele>490.0</ele><time>2026-04-22T12:32:14.622Z</time></trkpt><trkpt lat="43.547455" lon="12.42216"><ele>490.0</ele><time>2026-04-22T12:32:15.622Z</time></trkpt><trkpt lat="43.5473583" lon="12.4222617"><ele>490.0</ele><time>2026-04-22T12:32:16.622Z</time></trkpt><trkpt lat="43.5472633" lon="12.42236"><ele>491.0</ele><time>2026-04-22T12:32:17.622Z</time></trkpt><trkpt lat="43.5471633" lon="12.4224583"><ele>492.0</ele><time>2026-04-22T12:32:18.622Z</time></trkpt><trkpt lat="43.5470617" lon="12.4225633"><ele>493.0</ele><time>2026-04-22T12:32:19.622Z</time></trkpt><trkpt lat="43.5469583" lon="12.4226717"><ele>494.0</ele><time>2026-04-22T12:32:20.622Z</time></trkpt><trkpt lat="43.546855" lon="12.422775"><ele>494.25</ele><time>2026-04-22T12:32:21.622Z</time></trkpt><trkpt lat="43.54675" lon="12.4228817"><ele>494.5</ele><time>2026-04-22T12:32:22.622Z</time></trkpt><trkpt lat="43.546645" lon="12.4229833"><ele>494.75</ele><time>2026-04-22T12:32:23.622Z</time></trkpt><trkpt lat="43.5465467" lon="12.4230867"><ele>495.0</ele><time>2026-04-22T12:32:24.622Z</time></trkpt><trkpt lat="43.5464533" lon="12.4231817"><ele>495.0</ele><time>2026-04-22T12:32:25.622Z</time></trkpt><trkpt lat="43.5463683" lon="12.4232767"><ele>495.0</ele><time>2026-04-22T12:32:26.622Z</time></trkpt><trkpt lat="43.5462783" lon="12.42337"><ele>495.0</ele><time>2026-04-22T12:32:27.622Z</time></trkpt><trkpt lat="43.54618" lon="12.4234633"><ele>495.0</ele><time>2026-04-22T12:32:28.623Z</time></trkpt><trkpt lat="43.5460567" lon="12.4235383"><ele>497.0</ele><time>2026-04-22T12:32:29.623Z</time></trkpt><trkpt lat="43.5459333" lon="12.4235783"><ele>499.0</ele><time>2026-04-22T12:32:30.622Z</time></trkpt><trkpt lat="43.5458167" lon="12.4236"><ele>501.0</ele><time>2026-04-22T12:32:31.622Z</time></trkpt><trkpt lat="43.5456867" lon="12.4236167"><ele>503.0</ele><time>2026-04-22T12:32:32.622Z</time></trkpt><trkpt lat="43.5455667" lon="12.4235967"><ele>503.0</ele><time>2026-04-22T12:32:33.622Z</time></trkpt><trkpt lat="43.54544" lon="12.4235717"><ele>503.0</ele><time>2026-04-22T12:32:34.622Z</time></trkpt><trkpt lat="43.545315" lon="12.423545"><ele>503.0</ele><time>2026-04-22T12:32:35.623Z</time></trkpt><trkpt lat="43.5451917" lon="12.4235083"><ele>503.0</ele><time>2026-04-22T12:32:36.622Z</time></trkpt><trkpt lat="43.5450633" lon="12.423485"><ele>502.5</ele><time>2026-04-22T12:32:37.622Z</time></trkpt><trkpt lat="43.5449333" lon="12.4234633"><ele>502.0</ele><time>2026-04-22T12:32:38.622Z</time></trkpt><trkpt lat="43.5448083" lon="12.4234367"><ele>501.5</ele><time>2026-04-22T12:32:39.622Z</time></trkpt><trkpt lat="43.54468" lon="12.4234067"><ele>501.0</ele><time>2026-04-22T12:32:40.622Z</time></trkpt><trkpt lat="43.544555" lon="12.423385"><ele>501.0</ele><time>2026-04-22T12:32:41.622Z</time></trkpt><trkpt lat="43.5444267" lon="12.4233567"><ele>501.0</ele><time>2026-04-22T12:32:42.622Z</time></trkpt><trkpt lat="43.5443033" lon="12.42332"><ele>501.0</ele><time>2026-04-22T12:32:43.622Z</time></trkpt><trkpt lat="43.544185" lon="12.4232733"><ele>501.0</ele><time>2026-04-22T12:32:44.622Z</time></trkpt><trkpt lat="43.5440633" lon="12.4232033"><ele>501.0</ele><time>2026-04-22T12:32:45.622Z</time></trkpt><trkpt lat="43.5439483" lon="12.42313"><ele>501.0</ele><time>2026-04-22T12:32:46.622Z</time></trkpt><trkpt lat="43.5438483" lon="12.42302"><ele>501.0</ele><time>2026-04-22T12:32:47.622Z</time></trkpt><trkpt lat="43.543765" lon="12.4228967"><ele>501.0</ele><time>2026-04-22T12:32:48.622Z</time></trkpt><trkpt lat="43.543685" lon="12.42276"><ele>501.25</ele><time>2026-04-22T12:32:49.622Z</time></trkpt><trkpt lat="43.54362" lon="12.4226133"><ele>501.5</ele><time>2026-04-22T12:32:50.623Z</time></trkpt><trkpt lat="43.54356" lon="12.422465"><ele>501.75</ele><time>2026-04-22T12:32:51.622Z</time></trkpt><trkpt lat="43.54352" lon="12.422295"><ele>502.0</ele><time>2026-04-22T12:32:52.622Z</time></trkpt><trkpt lat="43.5434683" lon="12.42213"><ele>501.25</ele><time>2026-04-22T12:32:53.622Z</time></trkpt><trkpt lat="43.5434383" lon="12.42196"><ele>500.5</ele><time>2026-04-22T12:32:54.622Z</time></trkpt><trkpt lat="43.5434133" lon="12.42179"><ele>499.75</ele><time>2026-04-22T12:32:55.622Z</time></trkpt><trkpt lat="43.5433767" lon="12.4216183"><ele>499.0</ele><time>2026-04-22T12:32:56.622Z</time></trkpt><trkpt lat="43.5433383" lon="12.421445"><ele>500.0</ele><time>2026-04-22T12:32:57.622Z</time></trkpt><trkpt lat="43.543305" lon="12.4212717"><ele>501.0</ele><time>2026-04-22T12:32:58.622Z</time></trkpt><trkpt lat="43.5432733" lon="12.4211"><ele>502.0</ele><time>2026-04-22T12:32:59.622Z</time></trkpt><trkpt lat="43.54323" lon="12.4209217"><ele>503.0</ele><time>2026-04-22T12:33:00.623Z</time></trkpt><trkpt lat="43.5432" lon="12.42074"><ele>503.0</ele><time>2026-04-22T12:33:01.622Z</time></trkpt><trkpt lat="43.54316" lon="12.420545"><ele>503.0</ele><time>2026-04-22T12:33:02.623Z</time></trkpt><trkpt lat="43.5431317" lon="12.4203467"><ele>503.0</ele><time>2026-04-22T12:33:03.622Z</time></trkpt><trkpt lat="43.5430933" lon="12.4201483"><ele>503.0</ele><time>2026-04-22T12:33:04.623Z</time></trkpt><trkpt lat="43.5430383" lon="12.4199617"><ele>503.5</ele><time>2026-04-22T12:33:05.622Z</time></trkpt><trkpt lat="43.542965" lon="12.419795"><ele>504.0</ele><time>2026-04-22T12:33:06.622Z</time></trkpt><trkpt lat="43.5428767" lon="12.4196567"><ele>504.5</ele><time>2026-04-22T12:33:07.622Z</time></trkpt><trkpt lat="43.542775" lon="12.4195217"><ele>505.0</ele><time>2026-04-22T12:33:08.622Z</time></trkpt><trkpt lat="43.5426767" lon="12.4193867"><ele>506.25</ele><time>2026-04-22T12:33:09.622Z</time></trkpt><trkpt lat="43.54258" lon="12.419245"><ele>507.5</ele><time>2026-04-22T12:33:10.623Z</time></trkpt><trkpt lat="43.5424833" lon="12.419095"><ele>508.75</ele><time>2026-04-22T12:33:11.622Z</time></trkpt><trkpt lat="43.5423783" lon="12.418925"><ele>510.0</ele><time>2026-04-22T12:33:12.623Z</time></trkpt><trkpt lat="43.542265" lon="12.4187717"><ele>510.0</ele><time>2026-04-22T12:33:13.622Z</time></trkpt><trkpt lat="43.5421717" lon="12.4186317"><ele>510.0</ele><time>2026-04-22T12:33:14.622Z</time></trkpt><trkpt lat="43.54209" lon="12.4184967"><ele>510.0</ele><time>2026-04-22T12:33:15.622Z</time></trkpt><trkpt lat="43.5420217" lon="12.418355"><ele>510.0</ele><time>2026-04-22T12:33:16.622Z</time></trkpt><trkpt lat="43.541975" lon="12.418195"><ele>513.5</ele><time>2026-04-22T12:33:17.623Z</time></trkpt><trkpt lat="43.5419533" lon="12.41801"><ele>517.0</ele><time>2026-04-22T12:33:18.622Z</time></trkpt><trkpt lat="43.5419567" lon="12.417805"><ele>520.5</ele><time>2026-04-22T12:33:19.622Z</time></trkpt><trkpt lat="43.5419533" lon="12.41758"><ele>524.0</ele><time>2026-04-22T12:33:20.622Z</time></trkpt><trkpt lat="43.5419517" lon="12.417355"><ele>524.0</ele><time>2026-04-22T12:33:21.622Z</time></trkpt><trkpt lat="43.5419367" lon="12.4171567"><ele>524.0</ele><time>2026-04-22T12:33:22.622Z</time></trkpt><trkpt lat="43.54189" lon="12.4169933"><ele>524.0</ele><time>2026-04-22T12:33:23.622Z</time></trkpt><trkpt lat="43.541825" lon="12.4168467"><ele>524.0</ele><time>2026-04-22T12:33:24.622Z</time></trkpt><trkpt lat="43.5417517" lon="12.4167"><ele>522.5</ele><time>2026-04-22T12:33:25.622Z</time></trkpt><trkpt lat="43.54169" lon="12.4165283"><ele>521.0</ele><time>2026-04-22T12:33:26.623Z</time></trkpt><trkpt lat="43.5416467" lon="12.41636"><ele>519.5</ele><time>2026-04-22T12:33:27.621Z</time></trkpt><trkpt lat="43.54161" lon="12.41622"><ele>518.0</ele><time>2026-04-22T12:33:28.621Z</time></trkpt><trkpt lat="43.541535" lon="12.416115"><ele>517.4</ele><time>2026-04-22T12:33:29.621Z</time></trkpt><trkpt lat="43.5414517" lon="12.4160317"><ele>516.8</ele><time>2026-04-22T12:33:30.621Z</time></trkpt><trkpt lat="43.5413467" lon="12.4159833"><ele>516.2</ele><time>2026-04-22T12:33:31.622Z</time></trkpt><trkpt lat="43.5412367" lon="12.41594"><ele>515.6</ele><time>2026-04-22T12:33:32.621Z</time></trkpt><trkpt lat="43.5411367" lon="12.415915"><ele>515.0</ele><time>2026-04-22T12:33:33.622Z</time></trkpt><trkpt lat="43.5410567" lon="12.4158833"><ele>516.6</ele><time>2026-04-22T12:33:34.621Z</time></trkpt><trkpt lat="43.5409917" lon="12.4158617"><ele>518.2</ele><time>2026-04-22T12:33:35.621Z</time></trkpt><trkpt lat="43.5409017" lon="12.4159283"><ele>519.8</ele><time>2026-04-22T12:33:37.621Z</time></trkpt><trkpt lat="43.540895" lon="12.416045"><ele>521.4</ele><time>2026-04-22T12:33:39.621Z</time></trkpt><trkpt lat="43.54099" lon="12.4161533"><ele>523.0</ele><time>2026-04-22T12:33:41.621Z</time></trkpt><trkpt lat="43.541065" lon="12.4161917"><ele>523.0</ele><time>2026-04-22T12:33:42.622Z</time></trkpt><trkpt lat="43.5411567" lon="12.416245"><ele>523.0</ele><time>2026-04-22T12:33:43.621Z</time></trkpt><trkpt lat="43.5412383" lon="12.4163217"><ele>523.0</ele><time>2026-04-22T12:33:44.621Z</time></trkpt><trkpt lat="43.5413067" lon="12.4164133"><ele>523.0</ele><time>2026-04-22T12:33:45.621Z</time></trkpt><trkpt lat="43.5413533" lon="12.4165183"><ele>523.0</ele><time>2026-04-22T12:33:46.621Z</time></trkpt><trkpt lat="43.54138" lon="12.416635"><ele>523.1999999999999</ele><time>2026-04-22T12:33:47.621Z</time></trkpt><trkpt lat="43.541385" lon="12.4167633"><ele>523.4</ele><time>2026-04-22T12:33:48.622Z</time></trkpt><trkpt lat="43.54137" lon="12.4168983"><ele>523.5999999999999</ele><time>2026-04-22T12:33:49.621Z</time></trkpt><trkpt lat="43.5413517" lon="12.4170417"><ele>523.8</ele><time>2026-04-22T12:33:50.621Z</time></trkpt><trkpt lat="43.5413367" lon="12.417195"><ele>524.0</ele><time>2026-04-22T12:33:51.621Z</time></trkpt><trkpt lat="43.5413367" lon="12.417345"><ele>524.0</ele><time>2026-04-22T12:33:52.622Z</time></trkpt><trkpt lat="43.5413433" lon="12.4175"><ele>524.0</ele><time>2026-04-22T12:33:53.621Z</time></trkpt><trkpt lat="43.541355" lon="12.4176583"><ele>524.0</ele><time>2026-04-22T12:33:54.621Z</time></trkpt><trkpt lat="43.541365" lon="12.41782"><ele>524.0</ele><time>2026-04-22T12:33:55.621Z</time></trkpt><trkpt lat="43.54137" lon="12.41798"><ele>524.5</ele><time>2026-04-22T12:33:56.621Z</time></trkpt><trkpt lat="43.5413667" lon="12.4181483"><ele>525.0</ele><time>2026-04-22T12:33:57.621Z</time></trkpt><trkpt lat="43.5413533" lon="12.4183067"><ele>525.5</ele><time>2026-04-22T12:33:58.621Z</time></trkpt><trkpt lat="43.5413383" lon="12.4184667"><ele>526.0</ele><time>2026-04-22T12:33:59.621Z</time></trkpt><trkpt lat="43.541305" lon="12.4186217"><ele>526.0</ele><time>2026-04-22T12:34:00.621Z</time></trkpt><trkpt lat="43.5412617" lon="12.4187617"><ele>526.0</ele><time>2026-04-22T12:34:01.621Z</time></trkpt><trkpt lat="43.5412367" lon="12.418915"><ele>526.0</ele><time>2026-04-22T12:34:02.621Z</time></trkpt><trkpt lat="43.5412433" lon="12.4190567"><ele>526.0</ele><time>2026-04-22T12:34:03.621Z</time></trkpt><trkpt lat="43.5412783" lon="12.419175"><ele>526.0</ele><time>2026-04-22T12:34:04.622Z</time></trkpt><trkpt lat="43.541295" lon="12.4192833"><ele>527.6666666666667</ele><time>2026-04-22T12:34:05.621Z</time></trkpt><trkpt lat="43.54128" lon="12.4193717"><ele>529.3333333333334</ele><time>2026-04-22T12:34:06.621Z</time></trkpt><trkpt lat="43.5412" lon="12.4194217"><ele>531.0</ele><time>2026-04-22T12:34:08.621Z</time></trkpt><trkpt lat="43.5411117" lon="12.4193"><ele>532.6666666666666</ele><time>2026-04-22T12:34:10.621Z</time></trkpt><trkpt lat="43.5410783" lon="12.419205"><ele>534.3333333333333</ele><time>2026-04-22T12:34:11.621Z</time></trkpt><trkpt lat="43.5410417" lon="12.4191033"><ele>536.0</ele><time>2026-04-22T12:34:12.621Z</time></trkpt><trkpt lat="43.5409883" lon="12.4190017"><ele>541.0</ele><time>2026-04-22T12:34:13.621Z</time></trkpt><trkpt lat="43.5409267" lon="12.41891"><ele>546.0</ele><time>2026-04-22T12:34:14.621Z</time></trkpt><trkpt lat="43.5408567" lon="12.418835"><ele>551.0</ele><time>2026-04-22T12:34:15.621Z</time></trkpt><trkpt lat="43.54078" lon="12.4187667"><ele>556.0</ele><time>2026-04-22T12:34:16.621Z</time></trkpt><trkpt lat="43.5407" lon="12.418705"><ele>561.0</ele><time>2026-04-22T12:34:17.621Z</time></trkpt><trkpt lat="43.5406217" lon="12.418635"><ele>561.0</ele><time>2026-04-22T12:34:18.621Z</time></trkpt><trkpt lat="43.5405717" lon="12.4185383"><ele>561.0</ele><time>2026-04-22T12:34:19.621Z</time></trkpt><trkpt lat="43.540545" lon="12.4184217"><ele>561.0</ele><time>2026-04-22T12:34:20.621Z</time></trkpt><trkpt lat="43.5405483" lon="12.4182983"><ele>561.0</ele><time>2026-04-22T12:34:21.621Z</time></trkpt><trkpt lat="43.5405817" lon="12.4181683"><ele>561.0</ele><time>2026-04-22T12:34:22.621Z</time></trkpt><trkpt lat="43.5405883" lon="12.418035"><ele>560.0</ele><time>2026-04-22T12:34:23.621Z</time></trkpt><trkpt lat="43.54056" lon="12.4179017"><ele>559.0</ele><time>2026-04-22T12:34:24.622Z</time></trkpt><trkpt lat="43.5405033" lon="12.4177817"><ele>558.0</ele><time>2026-04-22T12:34:25.621Z</time></trkpt><trkpt lat="43.5404383" lon="12.4176917"><ele>557.0</ele><time>2026-04-22T12:34:26.621Z</time></trkpt><trkpt lat="43.5403517" lon="12.4176317"><ele>556.0</ele><time>2026-04-22T12:34:27.621Z</time></trkpt><trkpt lat="43.5402567" lon="12.4175883"><ele>559.4</ele><time>2026-04-22T12:34:28.621Z</time></trkpt><trkpt lat="43.540155" lon="12.417545"><ele>562.8</ele><time>2026-04-22T12:34:29.621Z</time></trkpt><trkpt lat="43.5400567" lon="12.417495"><ele>566.1999999999999</ele><time>2026-04-22T12:34:30.621Z</time></trkpt><trkpt lat="43.5399517" lon="12.4174417"><ele>569.6</ele><time>2026-04-22T12:34:31.621Z</time></trkpt><trkpt lat="43.5398467" lon="12.4173833"><ele>573.0</ele><time>2026-04-22T12:34:32.621Z</time></trkpt><trkpt lat="43.53974" lon="12.4173183"><ele>573.0</ele><time>2026-04-22T12:34:33.621Z</time></trkpt><trkpt lat="43.539635" lon="12.41724"><ele>573.0</ele><time>2026-04-22T12:34:34.621Z</time></trkpt><trkpt lat="43.539535" lon="12.417155"><ele>573.0</ele><time>2026-04-22T12:34:35.622Z</time></trkpt><trkpt lat="43.5394367" lon="12.4170717"><ele>573.0</ele><time>2026-04-22T12:34:36.621Z</time></trkpt><trkpt lat="43.5393417" lon="12.4169833"><ele>573.8</ele><time>2026-04-22T12:34:37.621Z</time></trkpt><trkpt lat="43.5392533" lon="12.4168917"><ele>574.5999999999999</ele><time>2026-04-22T12:34:38.621Z</time></trkpt><trkpt lat="43.5391617" lon="12.4168033"><ele>575.4000000000001</ele><time>2026-04-22T12:34:39.621Z</time></trkpt><trkpt lat="43.5390717" lon="12.4167417"><ele>576.2</ele><time>2026-04-22T12:34:40.621Z</time></trkpt><trkpt lat="43.5389917" lon="12.4167017"><ele>577.0</ele><time>2026-04-22T12:34:41.621Z</time></trkpt><trkpt lat="43.5389283" lon="12.41669"><ele>577.0</ele><time>2026-04-22T12:34:42.621Z</time></trkpt><trkpt lat="43.538845" lon="12.4167933"><ele>577.0</ele><time>2026-04-22T12:34:44.621Z</time></trkpt><trkpt lat="43.5388433" lon="12.4168833"><ele>577.0</ele><time>2026-04-22T12:34:45.621Z</time></trkpt><trkpt lat="43.5388817" lon="12.4169867"><ele>577.0</ele><time>2026-04-22T12:34:46.622Z</time></trkpt><trkpt lat="43.538955" lon="12.417095"><ele>577.0</ele><time>2026-04-22T12:34:47.622Z</time></trkpt><trkpt lat="43.5390233" lon="12.4172133"><ele>580.0</ele><time>2026-04-22T12:34:48.621Z</time></trkpt><trkpt lat="43.539085" lon="12.4173333"><ele>583.0</ele><time>2026-04-22T12:34:49.622Z</time></trkpt><trkpt lat="43.5391433" lon="12.417465"><ele>586.0</ele><time>2026-04-22T12:34:50.622Z</time></trkpt><trkpt lat="43.5391983" lon="12.4176017"><ele>589.0</ele><time>2026-04-22T12:34:51.621Z</time></trkpt><trkpt lat="43.5392483" lon="12.4177367"><ele>592.0</ele><time>2026-04-22T12:34:52.621Z</time></trkpt><trkpt lat="43.5393083" lon="12.4178633"><ele>592.0</ele><time>2026-04-22T12:34:53.621Z</time></trkpt><trkpt lat="43.5393833" lon="12.4179783"><ele>592.0</ele><time>2026-04-22T12:34:54.621Z</time></trkpt><trkpt lat="43.539455" lon="12.4180817"><ele>592.0</ele><time>2026-04-22T12:34:55.621Z</time></trkpt><trkpt lat="43.5395217" lon="12.41819"><ele>592.0</ele><time>2026-04-22T12:34:56.621Z</time></trkpt><trkpt lat="43.53958" lon="12.41831"><ele>592.0</ele><time>2026-04-22T12:34:57.621Z</time></trkpt><trkpt lat="43.53961" lon="12.4184283"><ele>590.5</ele><time>2026-04-22T12:34:58.621Z</time></trkpt><trkpt lat="43.5396167" lon="12.4185483"><ele>589.0</ele><time>2026-04-22T12:34:59.621Z</time></trkpt><trkpt lat="43.5396067" lon="12.41866"><ele>587.5</ele><time>2026-04-22T12:35:00.621Z</time></trkpt><trkpt lat="43.5395767" lon="12.4187367"><ele>586.0</ele><time>2026-04-22T12:35:01.622Z</time></trkpt><trkpt lat="43.5394633" lon="12.4187317"><ele>584.5</ele><time>2026-04-22T12:35:03.621Z</time></trkpt><trkpt lat="43.5394117" lon="12.41866"><ele>583.0</ele><time>2026-04-22T12:35:04.621Z</time></trkpt><trkpt lat="43.5393533" lon="12.4185917"><ele>588.1999999999999</ele><time>2026-04-22T12:35:05.621Z</time></trkpt><trkpt lat="43.53928" lon="12.4185483"><ele>593.4</ele><time>2026-04-22T12:35:06.621Z</time></trkpt><trkpt lat="43.5391967" lon="12.4185333"><ele>598.5999999999999</ele><time>2026-04-22T12:35:07.621Z</time></trkpt><trkpt lat="43.5391017" lon="12.4185433"><ele>603.8</ele><time>2026-04-22T12:35:08.621Z</time></trkpt><trkpt lat="43.5390033" lon="12.4185783"><ele>609.0</ele><time>2026-04-22T12:35:09.621Z</time></trkpt><trkpt lat="43.5389067" lon="12.41861"><ele>609.0</ele><time>2026-04-22T12:35:10.621Z</time></trkpt><trkpt lat="43.5387983" lon="12.418595"><ele>609.0</ele><time>2026-04-22T12:35:11.621Z</time></trkpt><trkpt lat="43.5386933" lon="12.418535"><ele>609.0</ele><time>2026-04-22T12:35:12.621Z</time></trkpt><trkpt lat="43.5386183" lon="12.418455"><ele>609.0</ele><time>2026-04-22T12:35:13.622Z</time></trkpt><trkpt lat="43.5385567" lon="12.4184"><ele>609.0</ele><time>2026-04-22T12:35:14.621Z</time></trkpt><trkpt lat="43.5384417" lon="12.41839"><ele>611.2</ele><time>2026-04-22T12:35:16.621Z</time></trkpt><trkpt lat="43.53841" lon="12.4185333"><ele>613.4</ele><time>2026-04-22T12:35:18.621Z</time></trkpt><trkpt lat="43.5384433" lon="12.4186233"><ele>615.6</ele><time>2026-04-22T12:35:19.621Z</time></trkpt><trkpt lat="43.538505" lon="12.4187217"><ele>617.8</ele><time>2026-04-22T12:35:20.621Z</time></trkpt><trkpt lat="43.5385817" lon="12.41883"><ele>620.0</ele><time>2026-04-22T12:35:21.621Z</time></trkpt><trkpt lat="43.5386417" lon="12.4189217"><ele>623.0</ele><time>2026-04-22T12:35:22.621Z</time></trkpt><trkpt lat="43.53867" lon="12.4190017"><ele>626.0</ele><time>2026-04-22T12:35:23.621Z</time></trkpt><trkpt lat="43.5386183" lon="12.4191283"><ele>629.0</ele><time>2026-04-22T12:35:25.621Z</time></trkpt><trkpt lat="43.538505" lon="12.4190833"><ele>632.0</ele><time>2026-04-22T12:35:27.622Z</time></trkpt><trkpt lat="43.5384383" lon="12.419"><ele>635.0</ele><time>2026-04-22T12:35:28.621Z</time></trkpt><trkpt lat="43.5383467" lon="12.4189167"><ele>635.0</ele><time>2026-04-22T12:35:29.621Z</time></trkpt><trkpt lat="43.538255" lon="12.4188417"><ele>635.0</ele><time>2026-04-22T12:35:30.621Z</time></trkpt><trkpt lat="43.53815" lon="12.4187817"><ele>635.0</ele><time>2026-04-22T12:35:31.621Z</time></trkpt><trkpt lat="43.5380367" lon="12.418735"><ele>635.0</ele><time>2026-04-22T12:35:32.621Z</time></trkpt><trkpt lat="43.5379333" lon="12.4187"><ele>635.0</ele><time>2026-04-22T12:35:33.621Z</time></trkpt><trkpt lat="43.5378283" lon="12.4186817"><ele>633.25</ele><time>2026-04-22T12:35:34.621Z</time></trkpt><trkpt lat="43.5377217" lon="12.41868"><ele>631.5</ele><time>2026-04-22T12:35:35.621Z</time></trkpt><trkpt lat="43.5376117" lon="12.4187033"><ele>629.75</ele><time>2026-04-22T12:35:36.621Z</time></trkpt><trkpt lat="43.5374917" lon="12.4187533"><ele>628.0</ele><time>2026-04-22T12:35:37.621Z</time></trkpt><trkpt lat="43.53738" lon="12.4188217"><ele>632.4</ele><time>2026-04-22T12:35:38.621Z</time></trkpt><trkpt lat="43.5372917" lon="12.4189083"><ele>636.8</ele><time>2026-04-22T12:35:39.621Z</time></trkpt><trkpt lat="43.537215" lon="12.4190133"><ele>641.2</ele><time>2026-04-22T12:35:40.621Z</time></trkpt><trkpt lat="43.537155" lon="12.4191467"><ele>645.6</ele><time>2026-04-22T12:35:41.621Z</time></trkpt><trkpt lat="43.5371183" lon="12.4192883"><ele>650.0</ele><time>2026-04-22T12:35:42.622Z</time></trkpt><trkpt lat="43.5370983" lon="12.41944"><ele>650.0</ele><time>2026-04-22T12:35:43.621Z</time></trkpt><trkpt lat="43.5370783" lon="12.4195917"><ele>650.0</ele><time>2026-04-22T12:35:44.621Z</time></trkpt><trkpt lat="43.5370583" lon="12.4197433"><ele>650.0</ele><time>2026-04-22T12:35:45.621Z</time></trkpt><trkpt lat="43.5370233" lon="12.4198867"><ele>650.0</ele><time>2026-04-22T12:35:46.621Z</time></trkpt><trkpt lat="43.5369683" lon="12.4200167"><ele>650.0</ele><time>2026-04-22T12:35:47.621Z</time></trkpt><trkpt lat="43.536885" lon="12.4201383"><ele>650.0</ele><time>2026-04-22T12:35:48.621Z</time></trkpt><trkpt lat="43.53679" lon="12.42025"><ele>650.0</ele><time>2026-04-22T12:35:49.621Z</time></trkpt><trkpt lat="43.536675" lon="12.4203583"><ele>650.0</ele><time>2026-04-22T12:35:50.622Z</time></trkpt><trkpt lat="43.5365583" lon="12.420475"><ele>650.0</ele><time>2026-04-22T12:35:51.621Z</time></trkpt><trkpt lat="43.53644" lon="12.420595"><ele>650.0</ele><time>2026-04-22T12:35:52.621Z</time></trkpt><trkpt lat="43.5363183" lon="12.4207083"><ele>650.0</ele><time>2026-04-22T12:35:53.621Z</time></trkpt><trkpt lat="43.53619" lon="12.4208283"><ele>650.0</ele><time>2026-04-22T12:35:54.621Z</time></trkpt><trkpt lat="43.5360583" lon="12.420965"><ele>647.6666666666666</ele><time>2026-04-22T12:35:55.621Z</time></trkpt><trkpt lat="43.5359233" lon="12.421125"><ele>645.3333333333334</ele><time>2026-04-22T12:35:56.621Z</time></trkpt><trkpt lat="43.5357983" lon="12.42129"><ele>643.0</ele><time>2026-04-22T12:35:57.621Z</time></trkpt><trkpt lat="43.5357017" lon="12.421465"><ele>647.0</ele><time>2026-04-22T12:35:58.621Z</time></trkpt><trkpt lat="43.5356417" lon="12.4216417"><ele>651.0</ele><time>2026-04-22T12:35:59.621Z</time></trkpt><trkpt lat="43.5356217" lon="12.421825"><ele>655.0</ele><time>2026-04-22T12:36:00.621Z</time></trkpt><trkpt lat="43.5356117" lon="12.4220083"><ele>659.0</ele><time>2026-04-22T12:36:01.621Z</time></trkpt><trkpt lat="43.5356167" lon="12.4221933"><ele>660.5</ele><time>2026-04-22T12:36:02.621Z</time></trkpt><trkpt lat="43.5356233" lon="12.4223817"><ele>662.0</ele><time>2026-04-22T12:36:03.621Z</time></trkpt><trkpt lat="43.535615" lon="12.4225683"><ele>663.5</ele><time>2026-04-22T12:36:04.621Z</time></trkpt><trkpt lat="43.5355817" lon="12.422725"><ele>665.0</ele><time>2026-04-22T12:36:05.621Z</time></trkpt><trkpt lat="43.535515" lon="12.4228733"><ele>664.0</ele><time>2026-04-22T12:36:06.621Z</time></trkpt><trkpt lat="43.53544" lon="12.423035"><ele>663.0</ele><time>2026-04-22T12:36:07.621Z</time></trkpt><trkpt lat="43.535355" lon="12.4232083"><ele>662.0</ele><time>2026-04-22T12:36:08.621Z</time></trkpt><trkpt lat="43.535275" lon="12.4233883"><ele>661.0</ele><time>2026-04-22T12:36:09.621Z</time></trkpt><trkpt lat="43.535185" lon="12.4235667"><ele>666.0</ele><time>2026-04-22T12:36:10.622Z</time></trkpt><trkpt lat="43.53508" lon="12.4237383"><ele>671.0</ele><time>2026-04-22T12:36:11.621Z</time></trkpt><trkpt lat="43.5349533" lon="12.4239083"><ele>676.0</ele><time>2026-04-22T12:36:12.621Z</time></trkpt><trkpt lat="43.534835" lon="12.4240917"><ele>676.6666666666667</ele><time>2026-04-22T12:36:13.621Z</time></trkpt><trkpt lat="43.5347267" lon="12.42426"><ele>677.3333333333334</ele><time>2026-04-22T12:36:14.621Z</time></trkpt><trkpt lat="43.534625" lon="12.4244167"><ele>678.0</ele><time>2026-04-22T12:36:15.621Z</time></trkpt><trkpt lat="43.5345333" lon="12.424555"><ele>681.0</ele><time>2026-04-22T12:36:16.621Z</time></trkpt><trkpt lat="43.5344533" lon="12.4246867"><ele>684.0</ele><time>2026-04-22T12:36:17.621Z</time></trkpt><trkpt lat="43.5343767" lon="12.424805"><ele>687.0</ele><time>2026-04-22T12:36:18.622Z</time></trkpt><trkpt lat="43.5343" lon="12.4249283"><ele>690.0</ele><time>2026-04-22T12:36:19.621Z</time></trkpt><trkpt lat="43.5342517" lon="12.42507"><ele>690.0</ele><time>2026-04-22T12:36:20.622Z</time></trkpt><trkpt lat="43.5342317" lon="12.4252267"><ele>690.0</ele><time>2026-04-22T12:36:21.621Z</time></trkpt><trkpt lat="43.5342467" lon="12.4254067"><ele>690.0</ele><time>2026-04-22T12:36:22.621Z</time></trkpt><trkpt lat="43.5342717" lon="12.4255967"><ele>690.0</ele><time>2026-04-22T12:36:23.621Z</time></trkpt><trkpt lat="43.53432" lon="12.4257967"><ele>691.0</ele><time>2026-04-22T12:36:24.622Z</time></trkpt><trkpt lat="43.5343717" lon="12.4259833"><ele>692.0</ele><time>2026-04-22T12:36:25.621Z</time></trkpt><trkpt lat="43.534425" lon="12.4261483"><ele>693.0</ele><time>2026-04-22T12:36:26.621Z</time></trkpt><trkpt lat="43.534465" lon="12.4262983"><ele>694.0</ele><time>2026-04-22T12:36:27.621Z</time></trkpt><trkpt lat="43.5344933" lon="12.4264267"><ele>694.2</ele><time>2026-04-22T12:36:28.621Z</time></trkpt><trkpt lat="43.5344817" lon="12.4265467"><ele>694.4000000000001</ele><time>2026-04-22T12:36:29.621Z</time></trkpt><trkpt lat="43.5344417" lon="12.4266417"><ele>694.6</ele><time>2026-04-22T12:36:30.621Z</time></trkpt><trkpt lat="43.5343517" lon="12.4267033"><ele>694.8</ele><time>2026-04-22T12:36:31.621Z</time></trkpt><trkpt lat="43.534245" lon="12.4267567"><ele>695.0</ele><time>2026-04-22T12:36:32.621Z</time></trkpt><trkpt lat="43.5341167" lon="12.4268417"><ele>695.0</ele><time>2026-04-22T12:36:33.621Z</time></trkpt><trkpt lat="43.5339917" lon="12.4269667"><ele>695.0</ele><time>2026-04-22T12:36:34.621Z</time></trkpt><trkpt lat="43.5338833" lon="12.4270983"><ele>695.0</ele><time>2026-04-22T12:36:35.621Z</time></trkpt><trkpt lat="43.5337833" lon="12.427215"><ele>695.0</ele><time>2026-04-22T12:36:36.622Z</time></trkpt><trkpt lat="43.5336767" lon="12.4273183"><ele>696.5</ele><time>2026-04-22T12:36:37.621Z</time></trkpt><trkpt lat="43.53357" lon="12.427415"><ele>698.0</ele><time>2026-04-22T12:36:38.621Z</time></trkpt><trkpt lat="43.5334667" lon="12.4275167"><ele>699.5</ele><time>2026-04-22T12:36:39.621Z</time></trkpt><trkpt lat="43.5333683" lon="12.4276217"><ele>701.0</ele><time>2026-04-22T12:36:40.621Z</time></trkpt><trkpt lat="43.5332633" lon="12.427735"><ele>701.0</ele><time>2026-04-22T12:36:41.621Z</time></trkpt><trkpt lat="43.5331683" lon="12.427855"><ele>701.0</ele><time>2026-04-22T12:36:42.621Z</time></trkpt><trkpt lat="43.533065" lon="12.42798"><ele>701.0</ele><time>2026-04-22T12:36:43.622Z</time></trkpt><trkpt lat="43.5329683" lon="12.4281017"><ele>701.0</ele><time>2026-04-22T12:36:44.621Z</time></trkpt><trkpt lat="43.53286" lon="12.4282133"><ele>703.0</ele><time>2026-04-22T12:36:45.621Z</time></trkpt><trkpt lat="43.53275" lon="12.4283317"><ele>705.0</ele><time>2026-04-22T12:36:46.621Z</time></trkpt><trkpt lat="43.5326433" lon="12.4284383"><ele>707.0</ele><time>2026-04-22T12:36:47.622Z</time></trkpt><trkpt lat="43.53254" lon="12.4285483"><ele>709.0</ele><time>2026-04-22T12:36:48.621Z</time></trkpt><trkpt lat="43.5324467" lon="12.42867"><ele>711.75</ele><time>2026-04-22T12:36:49.621Z</time></trkpt><trkpt lat="43.5323733" lon="12.4288133"><ele>714.5</ele><time>2026-04-22T12:36:50.621Z</time></trkpt><trkpt lat="43.5323217" lon="12.4289717"><ele>717.25</ele><time>2026-04-22T12:36:51.621Z</time></trkpt><trkpt lat="43.5322883" lon="12.429145"><ele>720.0</ele><time>2026-04-22T12:36:52.622Z</time></trkpt><trkpt lat="43.5322417" lon="12.42931"><ele>720.0</ele><time>2026-04-22T12:36:53.621Z</time></trkpt><trkpt lat="43.5321867" lon="12.4294517"><ele>720.0</ele><time>2026-04-22T12:36:54.621Z</time></trkpt><trkpt lat="43.5321083" lon="12.4295783"><ele>720.0</ele><time>2026-04-22T12:36:55.621Z</time></trkpt><trkpt lat="43.5320117" lon="12.4296783"><ele>720.0</ele><time>2026-04-22T12:36:56.621Z</time></trkpt><trkpt lat="43.5318917" lon="12.4297583"><ele>717.5</ele><time>2026-04-22T12:36:57.621Z</time></trkpt><trkpt lat="43.5317583" lon="12.4298067"><ele>715.0</ele><time>2026-04-22T12:36:58.621Z</time></trkpt><trkpt lat="43.53163" lon="12.4298433"><ele>712.5</ele><time>2026-04-22T12:36:59.621Z</time></trkpt><trkpt lat="43.5315117" lon="12.4298833"><ele>710.0</ele><time>2026-04-22T12:37:00.621Z</time></trkpt><trkpt lat="43.5314167" lon="12.429935"><ele>710.0</ele><time>2026-04-22T12:37:01.621Z</time></trkpt><trkpt lat="43.5313467" lon="12.4300167"><ele>710.0</ele><time>2026-04-22T12:37:02.622Z</time></trkpt><trkpt lat="43.5313167" lon="12.43013"><ele>710.0</ele><time>2026-04-22T12:37:03.621Z</time></trkpt><trkpt lat="43.5313317" lon="12.430285"><ele>710.0</ele><time>2026-04-22T12:37:04.621Z</time></trkpt><trkpt lat="43.5313683" lon="12.43046"><ele>710.0</ele><time>2026-04-22T12:37:05.622Z</time></trkpt><trkpt lat="43.5314083" lon="12.4306467"><ele>709.5</ele><time>2026-04-22T12:37:06.621Z</time></trkpt><trkpt lat="43.53143" lon="12.430825"><ele>709.0</ele><time>2026-04-22T12:37:07.621Z</time></trkpt><trkpt lat="43.5314217" lon="12.431"><ele>708.5</ele><time>2026-04-22T12:37:08.621Z</time></trkpt><trkpt lat="43.5313867" lon="12.4311633"><ele>708.0</ele><time>2026-04-22T12:37:09.621Z</time></trkpt><trkpt lat="43.531335" lon="12.4313167"><ele>707.75</ele><time>2026-04-22T12:37:10.621Z</time></trkpt><trkpt lat="43.531245" lon="12.4314467"><ele>707.5</ele><time>2026-04-22T12:37:11.621Z</time></trkpt><trkpt lat="43.5311367" lon="12.43157"><ele>707.25</ele><time>2026-04-22T12:37:12.621Z</time></trkpt><trkpt lat="43.531015" lon="12.431685"><ele>707.0</ele><time>2026-04-22T12:37:13.621Z</time></trkpt><trkpt lat="43.5308967" lon="12.43179"><ele>707.0</ele><time>2026-04-22T12:37:14.621Z</time></trkpt><trkpt lat="43.5307633" lon="12.4318583"><ele>707.0</ele><time>2026-04-22T12:37:15.621Z</time></trkpt><trkpt lat="43.5306317" lon="12.431875"><ele>707.0</ele><time>2026-04-22T12:37:16.621Z</time></trkpt><trkpt lat="43.5305017" lon="12.4318267"><ele>707.0</ele><time>2026-04-22T12:37:17.622Z</time></trkpt><trkpt lat="43.53039" lon="12.43173"><ele>707.6</ele><time>2026-04-22T12:37:18.622Z</time></trkpt><trkpt lat="43.5302983" lon="12.4316333"><ele>708.2</ele><time>2026-04-22T12:37:19.621Z</time></trkpt><trkpt lat="43.5302133" lon="12.4315733"><ele>708.8</ele><time>2026-04-22T12:37:20.621Z</time></trkpt><trkpt lat="43.5301317" lon="12.43156"><ele>709.4</ele><time>2026-04-22T12:37:21.622Z</time></trkpt><trkpt lat="43.5300433" lon="12.4316"><ele>710.0</ele><time>2026-04-22T12:37:22.621Z</time></trkpt><trkpt lat="43.529955" lon="12.4316967"><ele>710.0</ele><time>2026-04-22T12:37:23.621Z</time></trkpt><trkpt lat="43.5298583" lon="12.431815"><ele>710.0</ele><time>2026-04-22T12:37:24.621Z</time></trkpt><trkpt lat="43.52977" lon="12.4319567"><ele>710.0</ele><time>2026-04-22T12:37:25.621Z</time></trkpt><trkpt lat="43.52968" lon="12.4321133"><ele>710.0</ele><time>2026-04-22T12:37:26.621Z</time></trkpt><trkpt lat="43.5295933" lon="12.43228"><ele>713.25</ele><time>2026-04-22T12:37:27.622Z</time></trkpt><trkpt lat="43.5295167" lon="12.43243"><ele>716.5</ele><time>2026-04-22T12:37:28.621Z</time></trkpt><trkpt lat="43.5294267" lon="12.4325667"><ele>719.75</ele><time>2026-04-22T12:37:29.621Z</time></trkpt><trkpt lat="43.5293283" lon="12.4327017"><ele>723.0</ele><time>2026-04-22T12:37:30.622Z</time></trkpt><trkpt lat="43.5292233" lon="12.4328283"><ele>723.0</ele><time>2026-04-22T12:37:31.621Z</time></trkpt><trkpt lat="43.5291133" lon="12.4329467"><ele>723.0</ele><time>2026-04-22T12:37:32.621Z</time></trkpt><trkpt lat="43.5290067" lon="12.433045"><ele>723.0</ele><time>2026-04-22T12:37:33.621Z</time></trkpt><trkpt lat="43.5288967" lon="12.43313"><ele>723.0</ele><time>2026-04-22T12:37:34.621Z</time></trkpt><trkpt lat="43.528785" lon="12.4332017"><ele>723.25</ele><time>2026-04-22T12:37:35.621Z</time></trkpt><trkpt lat="43.5286683" lon="12.4332783"><ele>723.5</ele><time>2026-04-22T12:37:36.621Z</time></trkpt><trkpt lat="43.5285533" lon="12.4333433"><ele>723.75</ele><time>2026-04-22T12:37:37.622Z</time></trkpt><trkpt lat="43.52844" lon="12.4334067"><ele>724.0</ele><time>2026-04-22T12:37:38.621Z</time></trkpt><trkpt lat="43.5283217" lon="12.43346"><ele>724.0</ele><time>2026-04-22T12:37:39.621Z</time></trkpt><trkpt lat="43.5282083" lon="12.4335067"><ele>724.0</ele><time>2026-04-22T12:37:40.621Z</time></trkpt><trkpt lat="43.528095" lon="12.43354"><ele>724.0</ele><time>2026-04-22T12:37:41.621Z</time></trkpt><trkpt lat="43.5279783" lon="12.4335517"><ele>724.0</ele><time>2026-04-22T12:37:42.621Z</time></trkpt><trkpt lat="43.5278567" lon="12.4335333"><ele>723.25</ele><time>2026-04-22T12:37:43.621Z</time></trkpt><trkpt lat="43.5277367" lon="12.433505"><ele>722.5</ele><time>2026-04-22T12:37:44.621Z</time></trkpt><trkpt lat="43.5276133" lon="12.4334867"><ele>721.75</ele><time>2026-04-22T12:37:45.621Z</time></trkpt><trkpt lat="43.5274833" lon="12.4335"><ele>721.0</ele><time>2026-04-22T12:37:46.621Z</time></trkpt><trkpt lat="43.5273583" lon="12.43354"><ele>721.0</ele><time>2026-04-22T12:37:47.622Z</time></trkpt><trkpt lat="43.5272383" lon="12.43359"><ele>721.0</ele><time>2026-04-22T12:37:48.621Z</time></trkpt><trkpt lat="43.5271183" lon="12.4336517"><ele>721.0</ele><time>2026-04-22T12:37:49.621Z</time></trkpt><trkpt lat="43.5270033" lon="12.4337317"><ele>721.0</ele><time>2026-04-22T12:37:50.621Z</time></trkpt><trkpt lat="43.526895" lon="12.433815"><ele>720.25</ele><time>2026-04-22T12:37:51.621Z</time></trkpt><trkpt lat="43.5267983" lon="12.433905"><ele>719.5</ele><time>2026-04-22T12:37:52.622Z</time></trkpt><trkpt lat="43.5267017" lon="12.4339983"><ele>718.75</ele><time>2026-04-22T12:37:53.621Z</time></trkpt><trkpt lat="43.5266117" lon="12.4341033"><ele>718.0</ele><time>2026-04-22T12:37:54.621Z</time></trkpt><trkpt lat="43.5265233" lon="12.4342017"><ele>718.0</ele><time>2026-04-22T12:37:55.621Z</time></trkpt><trkpt lat="43.526435" lon="12.43429"><ele>718.0</ele><time>2026-04-22T12:37:56.621Z</time></trkpt><trkpt lat="43.5263467" lon="12.4343633"><ele>718.0</ele><time>2026-04-22T12:37:57.621Z</time></trkpt><trkpt lat="43.5262433" lon="12.43442"><ele>718.0</ele><time>2026-04-22T12:37:58.621Z</time></trkpt><trkpt lat="43.5261333" lon="12.4344517"><ele>718.0</ele><time>2026-04-22T12:37:59.621Z</time></trkpt><trkpt lat="43.5260233" lon="12.4344667"><ele>714.25</ele><time>2026-04-22T12:38:00.621Z</time></trkpt><trkpt lat="43.5259083" lon="12.4344733"><ele>710.5</ele><time>2026-04-22T12:38:01.621Z</time></trkpt><trkpt lat="43.525795" lon="12.4344883"><ele>706.75</ele><time>2026-04-22T12:38:02.621Z</time></trkpt><trkpt lat="43.52567" lon="12.4345383"><ele>703.0</ele><time>2026-04-22T12:38:03.621Z</time></trkpt><trkpt lat="43.52555" lon="12.434615"><ele>702.25</ele><time>2026-04-22T12:38:04.621Z</time></trkpt><trkpt lat="43.5254317" lon="12.4346983"><ele>701.5</ele><time>2026-04-22T12:38:05.621Z</time></trkpt><trkpt lat="43.5253083" lon="12.4347783"><ele>700.75</ele><time>2026-04-22T12:38:06.621Z</time></trkpt><trkpt lat="43.5251817" lon="12.4348667"><ele>700.0</ele><time>2026-04-22T12:38:07.621Z</time></trkpt><trkpt lat="43.5250517" lon="12.4349417"><ele>702.25</ele><time>2026-04-22T12:38:08.621Z</time></trkpt><trkpt lat="43.5249133" lon="12.4350167"><ele>704.5</ele><time>2026-04-22T12:38:09.622Z</time></trkpt><trkpt lat="43.5247667" lon="12.4350933"><ele>706.75</ele><time>2026-04-22T12:38:10.621Z</time></trkpt><trkpt lat="43.524635" lon="12.4351733"><ele>709.0</ele><time>2026-04-22T12:38:11.622Z</time></trkpt><trkpt lat="43.524495" lon="12.4352617"><ele>709.0</ele><time>2026-04-22T12:38:12.621Z</time></trkpt><trkpt lat="43.5243567" lon="12.4353683"><ele>709.0</ele><time>2026-04-22T12:38:13.621Z</time></trkpt><trkpt lat="43.5242217" lon="12.4354883"><ele>709.0</ele><time>2026-04-22T12:38:14.621Z</time></trkpt><trkpt lat="43.524095" lon="12.435565"><ele>710.75</ele><time>2026-04-22T12:38:15.621Z</time></trkpt><trkpt lat="43.52395" lon="12.4356183"><ele>712.5</ele><time>2026-04-22T12:38:16.621Z</time></trkpt><trkpt lat="43.5237983" lon="12.4356667"><ele>714.25</ele><time>2026-04-22T12:38:17.621Z</time></trkpt><trkpt lat="43.5236617" lon="12.4357117"><ele>716.0</ele><time>2026-04-22T12:38:18.621Z</time></trkpt><trkpt lat="43.52354" lon="12.43578"><ele>716.0</ele><time>2026-04-22T12:38:19.622Z</time></trkpt><trkpt lat="43.52344" lon="12.4358783"><ele>716.0</ele><time>2026-04-22T12:38:20.621Z</time></trkpt><trkpt lat="43.52338" lon="12.436"><ele>716.0</ele><time>2026-04-22T12:38:21.621Z</time></trkpt><trkpt lat="43.5233317" lon="12.43613"><ele>716.0</ele><time>2026-04-22T12:38:22.621Z</time></trkpt><trkpt lat="43.523265" lon="12.4362283"><ele>716.0</ele><time>2026-04-22T12:38:23.621Z</time></trkpt><trkpt lat="43.5231667" lon="12.4362783"><ele>716.0</ele><time>2026-04-22T12:38:24.621Z</time></trkpt><trkpt lat="43.523045" lon="12.436295"><ele>716.0</ele><time>2026-04-22T12:38:25.621Z</time></trkpt><trkpt lat="43.5229067" lon="12.4363067"><ele>716.0</ele><time>2026-04-22T12:38:26.621Z</time></trkpt><trkpt lat="43.5227767" lon="12.4363367"><ele>716.0</ele><time>2026-04-22T12:38:27.621Z</time></trkpt><trkpt lat="43.52266" lon="12.4363933"><ele>718.5</ele><time>2026-04-22T12:38:28.621Z</time></trkpt><trkpt lat="43.5225617" lon="12.4364833"><ele>721.0</ele><time>2026-04-22T12:38:29.621Z</time></trkpt><trkpt lat="43.5224833" lon="12.4366133"><ele>723.5</ele><time>2026-04-22T12:38:30.622Z</time></trkpt><trkpt lat="43.5224117" lon="12.4367483"><ele>726.0</ele><time>2026-04-22T12:38:31.621Z</time></trkpt><trkpt lat="43.5223017" lon="12.4368433"><ele>726.0</ele><time>2026-04-22T12:38:32.621Z</time></trkpt><trkpt lat="43.5221717" lon="12.4368667"><ele>726.0</ele><time>2026-04-22T12:38:33.622Z</time></trkpt><trkpt lat="43.5220317" lon="12.4368633"><ele>726.0</ele><time>2026-04-22T12:38:34.621Z</time></trkpt><trkpt lat="43.521905" lon="12.43686"><ele>726.0</ele><time>2026-04-22T12:38:35.621Z</time></trkpt><trkpt lat="43.5217667" lon="12.4368567"><ele>725.25</ele><time>2026-04-22T12:38:36.621Z</time></trkpt><trkpt lat="43.521625" lon="12.436865"><ele>724.5</ele><time>2026-04-22T12:38:37.622Z</time></trkpt><trkpt lat="43.5214783" lon="12.43688"><ele>723.75</ele><time>2026-04-22T12:38:38.621Z</time></trkpt><trkpt lat="43.52133" lon="12.4369033"><ele>723.0</ele><time>2026-04-22T12:38:39.622Z</time></trkpt><trkpt lat="43.52119" lon="12.43695"><ele>723.0</ele><time>2026-04-22T12:38:40.621Z</time></trkpt><trkpt lat="43.5210483" lon="12.4370117"><ele>723.0</ele><time>2026-04-22T12:38:41.621Z</time></trkpt><trkpt lat="43.520905" lon="12.4370933"><ele>723.0</ele><time>2026-04-22T12:38:42.621Z</time></trkpt><trkpt lat="43.5207667" lon="12.437175"><ele>723.0</ele><time>2026-04-22T12:38:43.621Z</time></trkpt><trkpt lat="43.5206183" lon="12.4372167"><ele>723.0</ele><time>2026-04-22T12:38:44.621Z</time></trkpt><trkpt lat="43.520465" lon="12.437225"><ele>723.0</ele><time>2026-04-22T12:38:45.621Z</time></trkpt><trkpt lat="43.5203017" lon="12.437225"><ele>725.3333333333334</ele><time>2026-04-22T12:38:46.622Z</time></trkpt><trkpt lat="43.5201333" lon="12.4372167"><ele>727.6666666666667</ele><time>2026-04-22T12:38:47.621Z</time></trkpt><trkpt lat="43.5199667" lon="12.4372283"><ele>730.0</ele><time>2026-04-22T12:38:48.621Z</time></trkpt><trkpt lat="43.5198183" lon="12.4372483"><ele>730.0</ele><time>2026-04-22T12:38:49.621Z</time></trkpt><trkpt lat="43.519685" lon="12.437275"><ele>730.0</ele><time>2026-04-22T12:38:50.621Z</time></trkpt><trkpt lat="43.5195467" lon="12.4373017"><ele>730.0</ele><time>2026-04-22T12:38:51.621Z</time></trkpt><trkpt lat="43.51942" lon="12.437275"><ele>730.0</ele><time>2026-04-22T12:38:52.621Z</time></trkpt><trkpt lat="43.5193067" lon="12.437215"><ele>731.25</ele><time>2026-04-22T12:38:53.621Z</time></trkpt><trkpt lat="43.5192017" lon="12.4371767"><ele>732.5</ele><time>2026-04-22T12:38:54.621Z</time></trkpt><trkpt lat="43.5190933" lon="12.43716"><ele>733.75</ele><time>2026-04-22T12:38:55.621Z</time></trkpt><trkpt lat="43.5189783" lon="12.43718"><ele>735.0</ele><time>2026-04-22T12:38:56.62Z</time></trkpt><trkpt lat="43.5188617" lon="12.4372383"><ele>735.0</ele><time>2026-04-22T12:38:57.62Z</time></trkpt><trkpt lat="43.5187367" lon="12.4373267"><ele>735.0</ele><time>2026-04-22T12:38:58.62Z</time></trkpt><trkpt lat="43.5186067" lon="12.437385"><ele>735.0</ele><time>2026-04-22T12:38:59.62Z</time></trkpt><trkpt lat="43.51848" lon="12.4374133"><ele>735.0</ele><time>2026-04-22T12:39:00.62Z</time></trkpt><trkpt lat="43.5183733" lon="12.4374467"><ele>733.2</ele><time>2026-04-22T12:39:01.62Z</time></trkpt><trkpt lat="43.5182783" lon="12.437485"><ele>731.4</ele><time>2026-04-22T12:39:02.62Z</time></trkpt><trkpt lat="43.5181917" lon="12.4375483"><ele>729.5999999999999</ele><time>2026-04-22T12:39:03.62Z</time></trkpt><trkpt lat="43.5181167" lon="12.437645"><ele>727.8</ele><time>2026-04-22T12:39:04.62Z</time></trkpt><trkpt lat="43.5180667" lon="12.4377583"><ele>726.0</ele><time>2026-04-22T12:39:05.62Z</time></trkpt><trkpt lat="43.5180183" lon="12.4378867"><ele>726.25</ele><time>2026-04-22T12:39:06.62Z</time></trkpt><trkpt lat="43.5179633" lon="12.4380267"><ele>726.5</ele><time>2026-04-22T12:39:07.62Z</time></trkpt><trkpt lat="43.5178833" lon="12.4381617"><ele>726.75</ele><time>2026-04-22T12:39:08.62Z</time></trkpt><trkpt lat="43.5177667" lon="12.4382683"><ele>727.0</ele><time>2026-04-22T12:39:09.62Z</time></trkpt><trkpt lat="43.5176517" lon="12.4383467"><ele>727.0</ele><time>2026-04-22T12:39:10.621Z</time></trkpt><trkpt lat="43.517555" lon="12.4384317"><ele>727.0</ele><time>2026-04-22T12:39:11.62Z</time></trkpt><trkpt lat="43.51749" lon="12.4385417"><ele>727.0</ele><time>2026-04-22T12:39:12.62Z</time></trkpt><trkpt lat="43.5174667" lon="12.4386717"><ele>727.0</ele><time>2026-04-22T12:39:13.62Z</time></trkpt><trkpt lat="43.5174833" lon="12.438835"><ele>727.0</ele><time>2026-04-22T12:39:14.62Z</time></trkpt><trkpt lat="43.517515" lon="12.4390167"><ele>728.25</ele><time>2026-04-22T12:39:15.62Z</time></trkpt><trkpt lat="43.51755" lon="12.439205"><ele>729.5</ele><time>2026-04-22T12:39:16.62Z</time></trkpt><trkpt lat="43.517585" lon="12.4393683"><ele>730.75</ele><time>2026-04-22T12:39:17.62Z</time></trkpt><trkpt lat="43.51761" lon="12.4395217"><ele>732.0</ele><time>2026-04-22T12:39:18.62Z</time></trkpt><trkpt lat="43.51764" lon="12.4396733"><ele>732.0</ele><time>2026-04-22T12:39:19.621Z</time></trkpt><trkpt lat="43.5176733" lon="12.4398333"><ele>732.0</ele><time>2026-04-22T12:39:20.621Z</time></trkpt><trkpt lat="43.51772" lon="12.4400017"><ele>732.0</ele><time>2026-04-22T12:39:21.62Z</time></trkpt><trkpt lat="43.517785" lon="12.4401667"><ele>732.0</ele><time>2026-04-22T12:39:22.62Z</time></trkpt><trkpt lat="43.5178533" lon="12.4403283"><ele>734.0</ele><time>2026-04-22T12:39:23.62Z</time></trkpt><trkpt lat="43.517925" lon="12.4404933"><ele>736.0</ele><time>2026-04-22T12:39:24.62Z</time></trkpt><trkpt lat="43.5179817" lon="12.4406633"><ele>738.0</ele><time>2026-04-22T12:39:25.62Z</time></trkpt><trkpt lat="43.5180333" lon="12.4408317"><ele>740.0</ele><time>2026-04-22T12:39:26.62Z</time></trkpt><trkpt lat="43.5180717" lon="12.44102"><ele>740.0</ele><time>2026-04-22T12:39:27.62Z</time></trkpt><trkpt lat="43.518105" lon="12.4412167"><ele>740.0</ele><time>2026-04-22T12:39:28.62Z</time></trkpt><trkpt lat="43.5181267" lon="12.441415"><ele>740.0</ele><time>2026-04-22T12:39:29.62Z</time></trkpt><trkpt lat="43.5181367" lon="12.441605"><ele>740.0</ele><time>2026-04-22T12:39:30.62Z</time></trkpt><trkpt lat="43.5181583" lon="12.4417883"><ele>739.5</ele><time>2026-04-22T12:39:31.62Z</time></trkpt><trkpt lat="43.5181783" lon="12.44196"><ele>739.0</ele><time>2026-04-22T12:39:32.62Z</time></trkpt><trkpt lat="43.5181967" lon="12.4421217"><ele>738.5</ele><time>2026-04-22T12:39:33.62Z</time></trkpt><trkpt lat="43.5182017" lon="12.44229"><ele>738.0</ele><time>2026-04-22T12:39:34.62Z</time></trkpt><trkpt lat="43.518195" lon="12.44246"><ele>736.8</ele><time>2026-04-22T12:39:35.62Z</time></trkpt><trkpt lat="43.5181767" lon="12.442625"><ele>735.5999999999999</ele><time>2026-04-22T12:39:36.62Z</time></trkpt><trkpt lat="43.5181517" lon="12.4427767"><ele>734.4000000000001</ele><time>2026-04-22T12:39:37.62Z</time></trkpt><trkpt lat="43.5181117" lon="12.44291"><ele>733.2</ele><time>2026-04-22T12:39:38.621Z</time></trkpt><trkpt lat="43.5180483" lon="12.4430217"><ele>732.0</ele><time>2026-04-22T12:39:39.62Z</time></trkpt><trkpt lat="43.5179633" lon="12.443095"><ele>733.25</ele><time>2026-04-22T12:39:40.62Z</time></trkpt><trkpt lat="43.5178533" lon="12.443155"><ele>734.5</ele><time>2026-04-22T12:39:41.62Z</time></trkpt><trkpt lat="43.51773" lon="12.4431917"><ele>735.75</ele><time>2026-04-22T12:39:42.62Z</time></trkpt><trkpt lat="43.5175917" lon="12.4432217"><ele>737.0</ele><time>2026-04-22T12:39:43.62Z</time></trkpt><trkpt lat="43.5174533" lon="12.44325"><ele>737.0</ele><time>2026-04-22T12:39:44.621Z</time></trkpt><trkpt lat="43.5173367" lon="12.4433"><ele>737.0</ele><time>2026-04-22T12:39:45.621Z</time></trkpt><trkpt lat="43.5172467" lon="12.44337"><ele>737.0</ele><time>2026-04-22T12:39:46.62Z</time></trkpt><trkpt lat="43.5171783" lon="12.443455"><ele>737.0</ele><time>2026-04-22T12:39:47.62Z</time></trkpt><trkpt lat="43.517125" lon="12.44357"><ele>737.0</ele><time>2026-04-22T12:39:48.62Z</time></trkpt><trkpt lat="43.5170867" lon="12.44371"><ele>738.4000000000001</ele><time>2026-04-22T12:39:49.62Z</time></trkpt><trkpt lat="43.51705" lon="12.4438517"><ele>739.8000000000001</ele><time>2026-04-22T12:39:50.62Z</time></trkpt><trkpt lat="43.5170133" lon="12.44399"><ele>741.2</ele><time>2026-04-22T12:39:51.62Z</time></trkpt><trkpt lat="43.5169833" lon="12.4441283"><ele>742.6</ele><time>2026-04-22T12:39:52.62Z</time></trkpt><trkpt lat="43.51696" lon="12.4442567"><ele>744.0</ele><time>2026-04-22T12:39:53.62Z</time></trkpt><trkpt lat="43.51693" lon="12.4443767"><ele>744.0</ele><time>2026-04-22T12:39:54.62Z</time></trkpt><trkpt lat="43.5169" lon="12.4444917"><ele>744.0</ele><time>2026-04-22T12:39:55.62Z</time></trkpt><trkpt lat="43.5168667" lon="12.444595"><ele>744.0</ele><time>2026-04-22T12:39:56.62Z</time></trkpt><trkpt lat="43.5168367" lon="12.4446967"><ele>744.0</ele><time>2026-04-22T12:39:57.62Z</time></trkpt><trkpt lat="43.5168083" lon="12.4448083"><ele>744.0</ele><time>2026-04-22T12:39:58.62Z</time></trkpt><trkpt lat="43.516785" lon="12.4449217"><ele>744.0</ele><time>2026-04-22T12:39:59.62Z</time></trkpt><trkpt lat="43.516765" lon="12.4450367"><ele>745.5714285714287</ele><time>2026-04-22T12:40:00.62Z</time></trkpt><trkpt lat="43.5167533" lon="12.44514"><ele>747.1428571428571</ele><time>2026-04-22T12:40:01.621Z</time></trkpt><trkpt lat="43.51675" lon="12.44524"><ele>748.7142857142858</ele><time>2026-04-22T12:40:02.62Z</time></trkpt><trkpt lat="43.516765" lon="12.4453333"><ele>750.2857142857143</ele><time>2026-04-22T12:40:03.62Z</time></trkpt><trkpt lat="43.5167933" lon="12.4454217"><ele>751.8571428571429</ele><time>2026-04-22T12:40:04.62Z</time></trkpt><trkpt lat="43.516835" lon="12.4454983"><ele>753.4285714285714</ele><time>2026-04-22T12:40:05.62Z</time></trkpt><trkpt lat="43.5168983" lon="12.4455617"><ele>755.0</ele><time>2026-04-22T12:40:06.62Z</time></trkpt><trkpt lat="43.5169717" lon="12.4456217"><ele>756.4</ele><time>2026-04-22T12:40:07.621Z</time></trkpt><trkpt lat="43.51705" lon="12.4456867"><ele>757.8</ele><time>2026-04-22T12:40:08.62Z</time></trkpt><trkpt lat="43.5171317" lon="12.4457617"><ele>759.2</ele><time>2026-04-22T12:40:09.62Z</time></trkpt><trkpt lat="43.51721" lon="12.4458417"><ele>760.6</ele><time>2026-04-22T12:40:10.62Z</time></trkpt><trkpt lat="43.5173" lon="12.44591"><ele>762.0</ele><time>2026-04-22T12:40:11.62Z</time></trkpt><trkpt lat="43.5174" lon="12.4459733"><ele>762.0</ele><time>2026-04-22T12:40:12.62Z</time></trkpt><trkpt lat="43.5174983" lon="12.44603"><ele>762.0</ele><time>2026-04-22T12:40:13.62Z</time></trkpt><trkpt lat="43.5176017" lon="12.4460717"><ele>762.0</ele><time>2026-04-22T12:40:14.62Z</time></trkpt><trkpt lat="43.5176983" lon="12.4460967"><ele>762.0</ele><time>2026-04-22T12:40:15.62Z</time></trkpt><trkpt lat="43.5177967" lon="12.446095"><ele>762.0</ele><time>2026-04-22T12:40:16.62Z</time></trkpt><trkpt lat="43.5179" lon="12.4460667"><ele>762.4000000000001</ele><time>2026-04-22T12:40:17.621Z</time></trkpt><trkpt lat="43.5180083" lon="12.4460633"><ele>762.8000000000001</ele><time>2026-04-22T12:40:18.62Z</time></trkpt><trkpt lat="43.51811" lon="12.446075"><ele>763.2</ele><time>2026-04-22T12:40:19.621Z</time></trkpt><trkpt lat="43.51819" lon="12.4461167"><ele>763.6</ele><time>2026-04-22T12:40:20.62Z</time></trkpt><trkpt lat="43.5182633" lon="12.4461717"><ele>764.0</ele><time>2026-04-22T12:40:21.62Z</time></trkpt><trkpt lat="43.518305" lon="12.4463067"><ele>767.2</ele><time>2026-04-22T12:40:23.62Z</time></trkpt><trkpt lat="43.518235" lon="12.4463967"><ele>770.4000000000001</ele><time>2026-04-22T12:40:25.62Z</time></trkpt><trkpt lat="43.5181067" lon="12.4464083"><ele>773.6</ele><time>2026-04-22T12:40:27.62Z</time></trkpt><trkpt lat="43.5180233" lon="12.446425"><ele>776.8</ele><time>2026-04-22T12:40:28.62Z</time></trkpt><trkpt lat="43.5179233" lon="12.44645"><ele>780.0</ele><time>2026-04-22T12:40:29.62Z</time></trkpt><trkpt lat="43.5178233" lon="12.4464833"><ele>780.0</ele><time>2026-04-22T12:40:30.62Z</time></trkpt><trkpt lat="43.5177083" lon="12.4465233"><ele>780.0</ele><time>2026-04-22T12:40:31.62Z</time></trkpt><trkpt lat="43.51759" lon="12.4465617"><ele>780.0</ele><time>2026-04-22T12:40:32.62Z</time></trkpt><trkpt lat="43.5174683" lon="12.446585"><ele>780.0</ele><time>2026-04-22T12:40:33.62Z</time></trkpt><trkpt lat="43.51736" lon="12.4465983"><ele>780.0</ele><time>2026-04-22T12:40:34.62Z</time></trkpt><trkpt lat="43.5172783" lon="12.446615"><ele>780.0</ele><time>2026-04-22T12:40:35.62Z</time></trkpt><trkpt lat="43.5171867" lon="12.4466933"><ele>780.0</ele><time>2026-04-22T12:40:37.62Z</time></trkpt><trkpt lat="43.5171817" lon="12.4468417"><ele>780.0</ele><time>2026-04-22T12:40:39.62Z</time></trkpt><trkpt lat="43.5172833" lon="12.446935"><ele>780.0</ele><time>2026-04-22T12:40:41.62Z</time></trkpt><trkpt lat="43.517365" lon="12.4469383"><ele>780.0</ele><time>2026-04-22T12:40:42.62Z</time></trkpt><trkpt lat="43.5174617" lon="12.4469383"><ele>780.0</ele><time>2026-04-22T12:40:43.62Z</time></trkpt><trkpt lat="43.5175733" lon="12.446935"><ele>780.0</ele><time>2026-04-22T12:40:44.62Z</time></trkpt><trkpt lat="43.5176883" lon="12.4469267"><ele>780.0</ele><time>2026-04-22T12:40:45.621Z</time></trkpt><trkpt lat="43.51781" lon="12.4469133"><ele>780.0</ele><time>2026-04-22T12:40:46.62Z</time></trkpt><trkpt lat="43.5179367" lon="12.44692"><ele>780.4</ele><time>2026-04-22T12:40:47.62Z</time></trkpt><trkpt lat="43.5180617" lon="12.446935"><ele>780.8</ele><time>2026-04-22T12:40:48.62Z</time></trkpt><trkpt lat="43.51817" lon="12.4469533"><ele>781.2</ele><time>2026-04-22T12:40:49.62Z</time></trkpt><trkpt lat="43.5182617" lon="12.4469867"><ele>781.6</ele><time>2026-04-22T12:40:50.62Z</time></trkpt><trkpt lat="43.5183367" lon="12.4470133"><ele>782.0</ele><time>2026-04-22T12:40:51.62Z</time></trkpt><trkpt lat="43.51841" lon="12.4471317"><ele>783.0</ele><time>2026-04-22T12:40:53.62Z</time></trkpt><trkpt lat="43.51841" lon="12.4472817"><ele>784.0</ele><time>2026-04-22T12:40:55.621Z</time></trkpt><trkpt lat="43.5183417" lon="12.4474267"><ele>785.0</ele><time>2026-04-22T12:40:57.62Z</time></trkpt><trkpt lat="43.5182833" lon="12.4474867"><ele>786.0</ele><time>2026-04-22T12:40:58.62Z</time></trkpt><trkpt lat="43.5182083" lon="12.447525"><ele>787.0</ele><time>2026-04-22T12:40:59.62Z</time></trkpt><trkpt lat="43.5181183" lon="12.4475517"><ele>787.0</ele><time>2026-04-22T12:41:00.62Z</time></trkpt><trkpt lat="43.5180117" lon="12.4475683"><ele>787.0</ele><time>2026-04-22T12:41:01.62Z</time></trkpt><trkpt lat="43.5179" lon="12.44759"><ele>787.0</ele><time>2026-04-22T12:41:02.62Z</time></trkpt><trkpt lat="43.5177883" lon="12.4475933"><ele>787.0</ele><time>2026-04-22T12:41:03.62Z</time></trkpt><trkpt lat="43.51768" lon="12.44758"><ele>787.0</ele><time>2026-04-22T12:41:04.62Z</time></trkpt><trkpt lat="43.5175717" lon="12.447555"><ele>788.4000000000001</ele><time>2026-04-22T12:41:05.62Z</time></trkpt><trkpt lat="43.5174717" lon="12.44755"><ele>789.8000000000001</ele><time>2026-04-22T12:41:06.62Z</time></trkpt><trkpt lat="43.5173783" lon="12.4475867"><ele>791.2</ele><time>2026-04-22T12:41:07.62Z</time></trkpt><trkpt lat="43.5172933" lon="12.4476533"><ele>792.6</ele><time>2026-04-22T12:41:08.62Z</time></trkpt><trkpt lat="43.5172017" lon="12.4477633"><ele>794.0</ele><time>2026-04-22T12:41:09.62Z</time></trkpt><trkpt lat="43.5171" lon="12.4478967"><ele>795.2</ele><time>2026-04-22T12:41:10.62Z</time></trkpt><trkpt lat="43.5170067" lon="12.4480233"><ele>796.4000000000001</ele><time>2026-04-22T12:41:11.62Z</time></trkpt><trkpt lat="43.5169283" lon="12.4481383"><ele>797.6</ele><time>2026-04-22T12:41:12.62Z</time></trkpt><trkpt lat="43.51685" lon="12.448215"><ele>798.8</ele><time>2026-04-22T12:41:13.62Z</time></trkpt><trkpt lat="43.5167667" lon="12.4482733"><ele>800.0</ele><time>2026-04-22T12:41:14.62Z</time></trkpt><trkpt lat="43.51668" lon="12.44833"><ele>800.0</ele><time>2026-04-22T12:41:15.62Z</time></trkpt><trkpt lat="43.51659" lon="12.4484017"><ele>800.0</ele><time>2026-04-22T12:41:16.621Z</time></trkpt><trkpt lat="43.5165017" lon="12.4485033"><ele>800.0</ele><time>2026-04-22T12:41:17.62Z</time></trkpt><trkpt lat="43.516425" lon="12.4485917"><ele>800.0</ele><time>2026-04-22T12:41:18.62Z</time></trkpt><trkpt lat="43.5163617" lon="12.448655"><ele>800.0</ele><time>2026-04-22T12:41:19.62Z</time></trkpt><trkpt lat="43.51629" lon="12.4486967"><ele>802.4</ele><time>2026-04-22T12:41:20.62Z</time></trkpt><trkpt lat="43.5161983" lon="12.4487367"><ele>804.8</ele><time>2026-04-22T12:41:21.62Z</time></trkpt><trkpt lat="43.5161033" lon="12.4487917"><ele>807.2</ele><time>2026-04-22T12:41:22.62Z</time></trkpt><trkpt lat="43.5160183" lon="12.4488783"><ele>809.6</ele><time>2026-04-22T12:41:23.62Z</time></trkpt><trkpt lat="43.515945" lon="12.4489983"><ele>812.0</ele><time>2026-04-22T12:41:24.62Z</time></trkpt><trkpt lat="43.51589" lon="12.4491467"><ele>812.0</ele><time>2026-04-22T12:41:25.62Z</time></trkpt><trkpt lat="43.51585" lon="12.44928"><ele>812.0</ele><time>2026-04-22T12:41:26.621Z</time></trkpt><trkpt lat="43.5158167" lon="12.4494"><ele>812.0</ele><time>2026-04-22T12:41:27.62Z</time></trkpt><trkpt lat="43.5158067" lon="12.4495083"><ele>812.0</ele><time>2026-04-22T12:41:28.62Z</time></trkpt><trkpt lat="43.5158167" lon="12.44962"><ele>812.0</ele><time>2026-04-22T12:41:29.62Z</time></trkpt><trkpt lat="43.5158633" lon="12.44975"><ele>810.4000000000001</ele><time>2026-04-22T12:41:30.62Z</time></trkpt><trkpt lat="43.515895" lon="12.449865"><ele>808.8000000000001</ele><time>2026-04-22T12:41:31.62Z</time></trkpt><trkpt lat="43.5158967" lon="12.4499667"><ele>807.2</ele><time>2026-04-22T12:41:32.62Z</time></trkpt><trkpt lat="43.5158233" lon="12.4501017"><ele>805.6</ele><time>2026-04-22T12:41:34.621Z</time></trkpt><trkpt lat="43.515745" lon="12.45014"><ele>804.0</ele><time>2026-04-22T12:41:35.62Z</time></trkpt><trkpt lat="43.5156483" lon="12.450185"><ele>804.0</ele><time>2026-04-22T12:41:36.621Z</time></trkpt><trkpt lat="43.515555" lon="12.4502517"><ele>804.0</ele><time>2026-04-22T12:41:37.62Z</time></trkpt><trkpt lat="43.5154633" lon="12.4503617"><ele>804.0</ele><time>2026-04-22T12:41:38.62Z</time></trkpt><trkpt lat="43.5154017" lon="12.45048"><ele>804.0</ele><time>2026-04-22T12:41:39.621Z</time></trkpt><trkpt lat="43.51536" lon="12.4506167"><ele>804.0</ele><time>2026-04-22T12:41:40.62Z</time></trkpt><trkpt lat="43.515335" lon="12.45076"><ele>803.0</ele><time>2026-04-22T12:41:41.62Z</time></trkpt><trkpt lat="43.5153333" lon="12.4509"><ele>802.0</ele><time>2026-04-22T12:41:42.62Z</time></trkpt><trkpt lat="43.515355" lon="12.45103"><ele>801.0</ele><time>2026-04-22T12:41:43.62Z</time></trkpt><trkpt lat="43.5153733" lon="12.4511567"><ele>800.0</ele><time>2026-04-22T12:41:44.62Z</time></trkpt><trkpt lat="43.515395" lon="12.4512767"><ele>799.0</ele><time>2026-04-22T12:41:45.62Z</time></trkpt><trkpt lat="43.5154267" lon="12.4513967"><ele>796.1666666666666</ele><time>2026-04-22T12:41:46.62Z</time></trkpt><trkpt lat="43.5154533" lon="12.4515017"><ele>793.3333333333333</ele><time>2026-04-22T12:41:47.62Z</time></trkpt><trkpt lat="43.5154667" lon="12.4516033"><ele>790.5</ele><time>2026-04-22T12:41:48.62Z</time></trkpt><trkpt lat="43.515465" lon="12.4517067"><ele>787.6666666666667</ele><time>2026-04-22T12:41:49.62Z</time></trkpt><trkpt lat="43.51545" lon="12.4518217"><ele>784.8333333333334</ele><time>2026-04-22T12:41:50.62Z</time></trkpt><trkpt lat="43.5154283" lon="12.45195"><ele>782.0</ele><time>2026-04-22T12:41:51.62Z</time></trkpt><trkpt lat="43.5154017" lon="12.4521017"><ele>780.75</ele><time>2026-04-22T12:41:52.62Z</time></trkpt><trkpt lat="43.515365" lon="12.4522717"><ele>779.5</ele><time>2026-04-22T12:41:53.62Z</time></trkpt><trkpt lat="43.515335" lon="12.4524583"><ele>778.25</ele><time>2026-04-22T12:41:54.62Z</time></trkpt><trkpt lat="43.5153" lon="12.4526283"><ele>777.0</ele><time>2026-04-22T12:41:55.62Z</time></trkpt><trkpt lat="43.51527" lon="12.4527817"><ele>777.0</ele><time>2026-04-22T12:41:56.621Z</time></trkpt><trkpt lat="43.5152283" lon="12.4529233"><ele>777.0</ele><time>2026-04-22T12:41:57.62Z</time></trkpt><trkpt lat="43.5151883" lon="12.453035"><ele>777.0</ele><time>2026-04-22T12:41:58.621Z</time></trkpt><trkpt lat="43.5151483" lon="12.4531317"><ele>777.0</ele><time>2026-04-22T12:41:59.62Z</time></trkpt><trkpt lat="43.51514" lon="12.45328"><ele>777.0</ele><time>2026-04-22T12:42:01.62Z</time></trkpt><trkpt lat="43.5152167" lon="12.4533633"><ele>776.2</ele><time>2026-04-22T12:42:03.62Z</time></trkpt><trkpt lat="43.5152833" lon="12.453355"><ele>775.4000000000001</ele><time>2026-04-22T12:42:04.62Z</time></trkpt><trkpt lat="43.51537" lon="12.4533333"><ele>774.5999999999999</ele><time>2026-04-22T12:42:05.62Z</time></trkpt><trkpt lat="43.51547" lon="12.4533317"><ele>773.8</ele><time>2026-04-22T12:42:06.62Z</time></trkpt><trkpt lat="43.515565" lon="12.45336"><ele>773.0</ele><time>2026-04-22T12:42:07.62Z</time></trkpt><trkpt lat="43.515655" lon="12.4534133"><ele>772.0</ele><time>2026-04-22T12:42:08.62Z</time></trkpt><trkpt lat="43.5157267" lon="12.4534967"><ele>771.0</ele><time>2026-04-22T12:42:09.62Z</time></trkpt><trkpt lat="43.515775" lon="12.4536133"><ele>770.0</ele><time>2026-04-22T12:42:10.62Z</time></trkpt><trkpt lat="43.5158183" lon="12.4537583"><ele>769.0</ele><time>2026-04-22T12:42:11.62Z</time></trkpt><trkpt lat="43.5158617" lon="12.4538817"><ele>768.0</ele><time>2026-04-22T12:42:12.62Z</time></trkpt><trkpt lat="43.515905" lon="12.453955"><ele>768.0</ele><time>2026-04-22T12:42:13.62Z</time></trkpt><trkpt lat="43.5160133" lon="12.4540217"><ele>768.0</ele><time>2026-04-22T12:42:15.62Z</time></trkpt><trkpt lat="43.5160883" lon="12.4539883"><ele>768.0</ele><time>2026-04-22T12:42:16.62Z</time></trkpt><trkpt lat="43.516175" lon="12.4539317"><ele>768.0</ele><time>2026-04-22T12:42:17.62Z</time></trkpt><trkpt lat="43.5162683" lon="12.4539033"><ele>768.0</ele><time>2026-04-22T12:42:18.62Z</time></trkpt><trkpt lat="43.5163567" lon="12.4539217"><ele>770.8</ele><time>2026-04-22T12:42:19.62Z</time></trkpt><trkpt lat="43.5164567" lon="12.4539733"><ele>773.5999999999999</ele><time>2026-04-22T12:42:20.62Z</time></trkpt><trkpt lat="43.5165567" lon="12.4540317"><ele>776.4000000000001</ele><time>2026-04-22T12:42:21.62Z</time></trkpt><trkpt lat="43.5166683" lon="12.454085"><ele>779.2</ele><time>2026-04-22T12:42:22.62Z</time></trkpt><trkpt lat="43.516775" lon="12.454125"><ele>782.0</ele><time>2026-04-22T12:42:23.62Z</time></trkpt><trkpt lat="43.5168867" lon="12.4541483"><ele>782.0</ele><time>2026-04-22T12:42:24.62Z</time></trkpt><trkpt lat="43.5169983" lon="12.4541767"><ele>782.0</ele><time>2026-04-22T12:42:25.621Z</time></trkpt><trkpt lat="43.5170967" lon="12.454215"><ele>782.0</ele><time>2026-04-22T12:42:26.62Z</time></trkpt><trkpt lat="43.5171883" lon="12.4542617"><ele>782.0</ele><time>2026-04-22T12:42:27.62Z</time></trkpt><trkpt lat="43.5172583" lon="12.4543083"><ele>782.0</ele><time>2026-04-22T12:42:28.62Z</time></trkpt><trkpt lat="43.5173167" lon="12.4543567"><ele>782.1666666666667</ele><time>2026-04-22T12:42:29.62Z</time></trkpt><trkpt lat="43.5173917" lon="12.45447"><ele>782.3333333333334</ele><time>2026-04-22T12:42:31.62Z</time></trkpt><trkpt lat="43.51742" lon="12.454575"><ele>782.5</ele><time>2026-04-22T12:42:33.62Z</time></trkpt><trkpt lat="43.517405" lon="12.4546867"><ele>782.6666666666667</ele><time>2026-04-22T12:42:35.62Z</time></trkpt><trkpt lat="43.5173833" lon="12.4547933"><ele>782.8333333333334</ele><time>2026-04-22T12:42:37.621Z</time></trkpt><trkpt lat="43.5173483" lon="12.45491"><ele>783.0</ele><time>2026-04-22T12:42:39.62Z</time></trkpt><trkpt lat="43.5173217" lon="12.45505"><ele>783.0</ele><time>2026-04-22T12:42:41.62Z</time></trkpt><trkpt lat="43.5173567" lon="12.45521"><ele>783.0</ele><time>2026-04-22T12:42:43.62Z</time></trkpt><trkpt lat="43.51741" lon="12.4553083"><ele>783.0</ele><time>2026-04-22T12:42:44.62Z</time></trkpt><trkpt lat="43.5174633" lon="12.455415"><ele>783.0</ele><time>2026-04-22T12:42:45.62Z</time></trkpt><trkpt lat="43.5175033" lon="12.4555267"><ele>783.0</ele><time>2026-04-22T12:42:46.62Z</time></trkpt><trkpt lat="43.517515" lon="12.455645"><ele>782.1666666666666</ele><time>2026-04-22T12:42:47.62Z</time></trkpt><trkpt lat="43.5175017" lon="12.455755"><ele>781.3333333333333</ele><time>2026-04-22T12:42:48.621Z</time></trkpt><trkpt lat="43.5174633" lon="12.4558567"><ele>780.5</ele><time>2026-04-22T12:42:49.62Z</time></trkpt><trkpt lat="43.5174133" lon="12.4559583"><ele>779.6666666666666</ele><time>2026-04-22T12:42:50.621Z</time></trkpt><trkpt lat="43.5173717" lon="12.4560667"><ele>778.8333333333333</ele><time>2026-04-22T12:42:51.62Z</time></trkpt><trkpt lat="43.5173567" lon="12.45618"><ele>778.0</ele><time>2026-04-22T12:42:52.62Z</time></trkpt><trkpt lat="43.5173567" lon="12.4562917"><ele>776.5999999999999</ele><time>2026-04-22T12:42:53.62Z</time></trkpt><trkpt lat="43.5173817" lon="12.4563967"><ele>775.1999999999999</ele><time>2026-04-22T12:42:54.62Z</time></trkpt><trkpt lat="43.5174267" lon="12.4565133"><ele>773.8</ele><time>2026-04-22T12:42:55.62Z</time></trkpt><trkpt lat="43.517475" lon="12.4566317"><ele>772.4</ele><time>2026-04-22T12:42:56.62Z</time></trkpt><trkpt lat="43.5175067" lon="12.4567533"><ele>771.0</ele><time>2026-04-22T12:42:57.62Z</time></trkpt><trkpt lat="43.5175267" lon="12.4568717"><ele>771.0</ele><time>2026-04-22T12:42:58.62Z</time></trkpt><trkpt lat="43.5175483" lon="12.4569717"><ele>771.0</ele><time>2026-04-22T12:42:59.62Z</time></trkpt><trkpt lat="43.51758" lon="12.4570617"><ele>771.0</ele><time>2026-04-22T12:43:00.621Z</time></trkpt><trkpt lat="43.5176283" lon="12.4571367"><ele>771.0</ele><time>2026-04-22T12:43:01.62Z</time></trkpt><trkpt lat="43.5177" lon="12.4572067"><ele>771.0</ele><time>2026-04-22T12:43:02.62Z</time></trkpt><trkpt lat="43.5177867" lon="12.4572783"><ele>771.0</ele><time>2026-04-22T12:43:03.62Z</time></trkpt><trkpt lat="43.5178733" lon="12.457355"><ele>773.0</ele><time>2026-04-22T12:43:04.62Z</time></trkpt><trkpt lat="43.51796" lon="12.457435"><ele>775.0</ele><time>2026-04-22T12:43:05.62Z</time></trkpt><trkpt lat="43.5180383" lon="12.4575233"><ele>777.0</ele><time>2026-04-22T12:43:06.62Z</time></trkpt><trkpt lat="43.5181083" lon="12.4576317"><ele>779.0</ele><time>2026-04-22T12:43:07.62Z</time></trkpt><trkpt lat="43.5181767" lon="12.4577667"><ele>781.0</ele><time>2026-04-22T12:43:08.62Z</time></trkpt><trkpt lat="43.5182267" lon="12.4579033"><ele>775.8</ele><time>2026-04-22T12:43:09.62Z</time></trkpt><trkpt lat="43.518265" lon="12.4580417"><ele>770.5999999999999</ele><time>2026-04-22T12:43:10.62Z</time></trkpt><trkpt lat="43.5182817" lon="12.4581783"><ele>765.4</ele><time>2026-04-22T12:43:11.621Z</time></trkpt><trkpt lat="43.518285" lon="12.4583133"><ele>760.2</ele><time>2026-04-22T12:43:12.62Z</time></trkpt><trkpt lat="43.518285" lon="12.4584383"><ele>755.0</ele><time>2026-04-22T12:43:13.62Z</time></trkpt><trkpt lat="43.5182867" lon="12.4585667"><ele>755.0</ele><time>2026-04-22T12:43:14.62Z</time></trkpt><trkpt lat="43.5182983" lon="12.4586933"><ele>755.0</ele><time>2026-04-22T12:43:15.621Z</time></trkpt><trkpt lat="43.5183167" lon="12.4588083"><ele>755.0</ele><time>2026-04-22T12:43:16.62Z</time></trkpt><trkpt lat="43.5183217" lon="12.4589183"><ele>755.0</ele><time>2026-04-22T12:43:17.62Z</time></trkpt><trkpt lat="43.5183417" lon="12.45902"><ele>755.0</ele><time>2026-04-22T12:43:18.62Z</time></trkpt><trkpt lat="43.5183817" lon="12.45911"><ele>755.0</ele><time>2026-04-22T12:43:19.62Z</time></trkpt><trkpt lat="43.5184383" lon="12.4591917"><ele>755.3333333333333</ele><time>2026-04-22T12:43:20.62Z</time></trkpt><trkpt lat="43.5185083" lon="12.4592667"><ele>755.6666666666666</ele><time>2026-04-22T12:43:21.621Z</time></trkpt><trkpt lat="43.5185767" lon="12.4593383"><ele>756.0</ele><time>2026-04-22T12:43:22.62Z</time></trkpt><trkpt lat="43.51865" lon="12.4594067"><ele>756.3333333333334</ele><time>2026-04-22T12:43:23.62Z</time></trkpt><trkpt lat="43.5187217" lon="12.459475"><ele>756.6666666666667</ele><time>2026-04-22T12:43:24.62Z</time></trkpt><trkpt lat="43.518785" lon="12.4595567"><ele>757.0</ele><time>2026-04-22T12:43:25.62Z</time></trkpt><trkpt lat="43.5188383" lon="12.45965"><ele>754.8</ele><time>2026-04-22T12:43:26.62Z</time></trkpt><trkpt lat="43.5188817" lon="12.4597383"><ele>752.6</ele><time>2026-04-22T12:43:27.62Z</time></trkpt><trkpt lat="43.5189183" lon="12.4598267"><ele>750.4</ele><time>2026-04-22T12:43:28.62Z</time></trkpt><trkpt lat="43.5189167" lon="12.459985"><ele>748.1999999999999</ele><time>2026-04-22T12:43:30.62Z</time></trkpt><trkpt lat="43.5188483" lon="12.4600717"><ele>746.0</ele><time>2026-04-22T12:43:32.62Z</time></trkpt><trkpt lat="43.5187367" lon="12.4600833"><ele>742.8</ele><time>2026-04-22T12:43:34.62Z</time></trkpt><trkpt lat="43.5186133" lon="12.4600283"><ele>739.5999999999999</ele><time>2026-04-22T12:43:36.62Z</time></trkpt><trkpt lat="43.5185367" lon="12.45999"><ele>736.4</ele><time>2026-04-22T12:43:37.621Z</time></trkpt><trkpt lat="43.5184433" lon="12.459945"><ele>733.2</ele><time>2026-04-22T12:43:38.621Z</time></trkpt><trkpt lat="43.5183433" lon="12.4599033"><ele>730.0</ele><time>2026-04-22T12:43:39.62Z</time></trkpt><trkpt lat="43.5182467" lon="12.45987"><ele>730.0</ele><time>2026-04-22T12:43:40.62Z</time></trkpt><trkpt lat="43.5181533" lon="12.4598233"><ele>730.0</ele><time>2026-04-22T12:43:41.62Z</time></trkpt><trkpt lat="43.5180633" lon="12.4597683"><ele>730.0</ele><time>2026-04-22T12:43:42.621Z</time></trkpt><trkpt lat="43.51797" lon="12.4596983"><ele>730.0</ele><time>2026-04-22T12:43:43.62Z</time></trkpt><trkpt lat="43.5178767" lon="12.4596117"><ele>730.0</ele><time>2026-04-22T12:43:44.62Z</time></trkpt><trkpt lat="43.5177883" lon="12.4595283"><ele>727.6</ele><time>2026-04-22T12:43:45.62Z</time></trkpt><trkpt lat="43.5177067" lon="12.45944"><ele>725.2</ele><time>2026-04-22T12:43:46.621Z</time></trkpt><trkpt lat="43.5176217" lon="12.4593433"><ele>722.8</ele><time>2026-04-22T12:43:47.62Z</time></trkpt><trkpt lat="43.5175517" lon="12.4592217"><ele>720.4</ele><time>2026-04-22T12:43:48.621Z</time></trkpt><trkpt lat="43.5174883" lon="12.4590917"><ele>718.0</ele><time>2026-04-22T12:43:49.62Z</time></trkpt><trkpt lat="43.5174317" lon="12.4589633"><ele>718.0</ele><time>2026-04-22T12:43:50.62Z</time></trkpt><trkpt lat="43.51738" lon="12.4588333"><ele>718.0</ele><time>2026-04-22T12:43:51.62Z</time></trkpt><trkpt lat="43.5173133" lon="12.4587133"><ele>718.0</ele><time>2026-04-22T12:43:52.621Z</time></trkpt><trkpt lat="43.5172417" lon="12.4586017"><ele>718.0</ele><time>2026-04-22T12:43:53.62Z</time></trkpt><trkpt lat="43.5171617" lon="12.4585083"><ele>718.0</ele><time>2026-04-22T12:43:54.62Z</time></trkpt><trkpt lat="43.5170717" lon="12.45843"><ele>716.0</ele><time>2026-04-22T12:43:55.62Z</time></trkpt><trkpt lat="43.5169933" lon="12.45836"><ele>714.0</ele><time>2026-04-22T12:43:56.62Z</time></trkpt><trkpt lat="43.5169133" lon="12.4583067"><ele>712.0</ele><time>2026-04-22T12:43:57.62Z</time></trkpt><trkpt lat="43.516825" lon="12.4582733"><ele>710.0</ele><time>2026-04-22T12:43:58.62Z</time></trkpt><trkpt lat="43.5167317" lon="12.4582633"><ele>708.0</ele><time>2026-04-22T12:43:59.62Z</time></trkpt><trkpt lat="43.5166383" lon="12.45827"><ele>708.0</ele><time>2026-04-22T12:44:00.621Z</time></trkpt><trkpt lat="43.5165433" lon="12.4582867"><ele>708.0</ele><time>2026-04-22T12:44:01.62Z</time></trkpt><trkpt lat="43.5164533" lon="12.458305"><ele>708.0</ele><time>2026-04-22T12:44:02.62Z</time></trkpt><trkpt lat="43.5163633" lon="12.4583383"><ele>708.0</ele><time>2026-04-22T12:44:03.62Z</time></trkpt><trkpt lat="43.5162667" lon="12.4583867"><ele>708.0</ele><time>2026-04-22T12:44:04.62Z</time></trkpt><trkpt lat="43.5161633" lon="12.458455"><ele>706.2</ele><time>2026-04-22T12:44:05.62Z</time></trkpt><trkpt lat="43.51606" lon="12.4585383"><ele>704.4</ele><time>2026-04-22T12:44:06.62Z</time></trkpt><trkpt lat="43.51597" lon="12.458605"><ele>702.6</ele><time>2026-04-22T12:44:07.62Z</time></trkpt><trkpt lat="43.5158883" lon="12.4586583"><ele>700.8000000000001</ele><time>2026-04-22T12:44:08.62Z</time></trkpt><trkpt lat="43.5158167" lon="12.4586967"><ele>699.0</ele><time>2026-04-22T12:44:09.62Z</time></trkpt><trkpt lat="43.5157467" lon="12.4587067"><ele>699.0</ele><time>2026-04-22T12:44:10.62Z</time></trkpt><trkpt lat="43.5156767" lon="12.4586883"><ele>699.0</ele><time>2026-04-22T12:44:11.62Z</time></trkpt><trkpt lat="43.515605" lon="12.4586483"><ele>699.0</ele><time>2026-04-22T12:44:12.62Z</time></trkpt><trkpt lat="43.51553" lon="12.4585933"><ele>699.0</ele><time>2026-04-22T12:44:13.62Z</time></trkpt><trkpt lat="43.5154517" lon="12.4585483"><ele>699.0</ele><time>2026-04-22T12:44:14.62Z</time></trkpt><trkpt lat="43.5153733" lon="12.4585067"><ele>699.0</ele><time>2026-04-22T12:44:15.62Z</time></trkpt><trkpt lat="43.515295" lon="12.4584733"><ele>698.5</ele><time>2026-04-22T12:44:16.62Z</time></trkpt><trkpt lat="43.5152233" lon="12.45845"><ele>698.0</ele><time>2026-04-22T12:44:17.62Z</time></trkpt><trkpt lat="43.5151533" lon="12.4584517"><ele>697.5</ele><time>2026-04-22T12:44:18.62Z</time></trkpt><trkpt lat="43.515085" lon="12.4584817"><ele>697.0</ele><time>2026-04-22T12:44:19.62Z</time></trkpt><trkpt lat="43.5150283" lon="12.4585367"><ele>696.5</ele><time>2026-04-22T12:44:20.62Z</time></trkpt><trkpt lat="43.514975" lon="12.4586267"><ele>696.0</ele><time>2026-04-22T12:44:21.621Z</time></trkpt><trkpt lat="43.514945" lon="12.4587333"><ele>695.8</ele><time>2026-04-22T12:44:22.62Z</time></trkpt><trkpt lat="43.5149333" lon="12.4588517"><ele>695.5999999999999</ele><time>2026-04-22T12:44:23.621Z</time></trkpt><trkpt lat="43.5149467" lon="12.4589767"><ele>695.4</ele><time>2026-04-22T12:44:24.62Z</time></trkpt><trkpt lat="43.5149517" lon="12.459085"><ele>695.2</ele><time>2026-04-22T12:44:25.62Z</time></trkpt><trkpt lat="43.5149717" lon="12.45918"><ele>695.0</ele><time>2026-04-22T12:44:26.62Z</time></trkpt><trkpt lat="43.515045" lon="12.4593183"><ele>695.0</ele><time>2026-04-22T12:44:28.62Z</time></trkpt><trkpt lat="43.515105" lon="12.459395"><ele>695.0</ele><time>2026-04-22T12:44:29.62Z</time></trkpt><trkpt lat="43.5151817" lon="12.4594867"><ele>695.0</ele><time>2026-04-22T12:44:30.62Z</time></trkpt><trkpt lat="43.5152667" lon="12.45958"><ele>695.0</ele><time>2026-04-22T12:44:31.62Z</time></trkpt><trkpt lat="43.51536" lon="12.4596817"><ele>695.0</ele><time>2026-04-22T12:44:32.62Z</time></trkpt><trkpt lat="43.5154617" lon="12.459775"><ele>692.75</ele><time>2026-04-22T12:44:33.62Z</time></trkpt><trkpt lat="43.5155617" lon="12.45988"><ele>690.5</ele><time>2026-04-22T12:44:34.62Z</time></trkpt><trkpt lat="43.5156667" lon="12.4599967"><ele>688.25</ele><time>2026-04-22T12:44:35.62Z</time></trkpt><trkpt lat="43.5157617" lon="12.4601083"><ele>686.0</ele><time>2026-04-22T12:44:36.62Z</time></trkpt><trkpt lat="43.5158433" lon="12.4602417"><ele>686.0</ele><time>2026-04-22T12:44:37.62Z</time></trkpt><trkpt lat="43.5159117" lon="12.4603883"><ele>686.0</ele><time>2026-04-22T12:44:38.62Z</time></trkpt><trkpt lat="43.5159767" lon="12.4605467"><ele>686.0</ele><time>2026-04-22T12:44:39.621Z</time></trkpt><trkpt lat="43.51604" lon="12.460715"><ele>686.0</ele><time>2026-04-22T12:44:40.62Z</time></trkpt><trkpt lat="43.5161133" lon="12.4608833"><ele>686.0</ele><time>2026-04-22T12:44:41.62Z</time></trkpt><trkpt lat="43.5161967" lon="12.461055"><ele>686.0</ele><time>2026-04-22T12:44:42.62Z</time></trkpt><trkpt lat="43.5162783" lon="12.461215"><ele>686.0</ele><time>2026-04-22T12:44:43.62Z</time></trkpt><trkpt lat="43.5163533" lon="12.461365"><ele>686.0</ele><time>2026-04-22T12:44:44.62Z</time></trkpt><trkpt lat="43.5163983" lon="12.461495"><ele>686.0</ele><time>2026-04-22T12:44:45.62Z</time></trkpt><trkpt lat="43.5164233" lon="12.46163"><ele>686.0</ele><time>2026-04-22T12:44:46.621Z</time></trkpt><trkpt lat="43.5164067" lon="12.4617517"><ele>686.0</ele><time>2026-04-22T12:44:47.62Z</time></trkpt><trkpt lat="43.5163633" lon="12.4618567"><ele>686.0</ele><time>2026-04-22T12:44:48.62Z</time></trkpt><trkpt lat="43.516285" lon="12.4619583"><ele>686.0</ele><time>2026-04-22T12:44:49.62Z</time></trkpt><trkpt lat="43.516215" lon="12.46208"><ele>691.25</ele><time>2026-04-22T12:44:50.62Z</time></trkpt><trkpt lat="43.51616" lon="12.4622267"><ele>696.5</ele><time>2026-04-22T12:44:51.621Z</time></trkpt><trkpt lat="43.516125" lon="12.4623783"><ele>701.75</ele><time>2026-04-22T12:44:52.62Z</time></trkpt><trkpt lat="43.5161117" lon="12.4625483"><ele>707.0</ele><time>2026-04-22T12:44:53.62Z</time></trkpt><trkpt lat="43.5161067" lon="12.46272"><ele>707.0</ele><time>2026-04-22T12:44:54.62Z</time></trkpt><trkpt lat="43.5160933" lon="12.4628733"><ele>707.0</ele><time>2026-04-22T12:44:55.62Z</time></trkpt><trkpt lat="43.516075" lon="12.4630133"><ele>707.0</ele><time>2026-04-22T12:44:56.62Z</time></trkpt><trkpt lat="43.5160667" lon="12.4631467"><ele>707.0</ele><time>2026-04-22T12:44:57.62Z</time></trkpt><trkpt lat="43.5160633" lon="12.463285"><ele>707.0</ele><time>2026-04-22T12:44:58.62Z</time></trkpt><trkpt lat="43.516065" lon="12.4634267"><ele>707.6</ele><time>2026-04-22T12:44:59.62Z</time></trkpt><trkpt lat="43.5160483" lon="12.4635667"><ele>708.2</ele><time>2026-04-22T12:45:00.62Z</time></trkpt><trkpt lat="43.5160367" lon="12.4637083"><ele>708.8</ele><time>2026-04-22T12:45:01.62Z</time></trkpt><trkpt lat="43.51602" lon="12.46385"><ele>709.4</ele><time>2026-04-22T12:45:02.62Z</time></trkpt><trkpt lat="43.51598" lon="12.4639783"><ele>710.0</ele><time>2026-04-22T12:45:03.62Z</time></trkpt><trkpt lat="43.5159233" lon="12.46411"><ele>710.0</ele><time>2026-04-22T12:45:04.62Z</time></trkpt><trkpt lat="43.515865" lon="12.4642667"><ele>710.0</ele><time>2026-04-22T12:45:05.62Z</time></trkpt><trkpt lat="43.5158067" lon="12.464435"><ele>710.0</ele><time>2026-04-22T12:45:06.62Z</time></trkpt><trkpt lat="43.5157483" lon="12.4645867"><ele>710.0</ele><time>2026-04-22T12:45:07.62Z</time></trkpt><trkpt lat="43.51572" lon="12.464745"><ele>707.8</ele><time>2026-04-22T12:45:08.621Z</time></trkpt><trkpt lat="43.5157233" lon="12.4649017"><ele>705.6</ele><time>2026-04-22T12:45:09.62Z</time></trkpt><trkpt lat="43.5157233" lon="12.4650433"><ele>703.4000000000001</ele><time>2026-04-22T12:45:10.621Z</time></trkpt><trkpt lat="43.5156983" lon="12.4651717"><ele>701.2</ele><time>2026-04-22T12:45:11.62Z</time></trkpt><trkpt lat="43.51566" lon="12.4652867"><ele>699.0</ele><time>2026-04-22T12:45:12.62Z</time></trkpt><trkpt lat="43.5156133" lon="12.4653717"><ele>699.0</ele><time>2026-04-22T12:45:13.62Z</time></trkpt><trkpt lat="43.51556" lon="12.4654267"><ele>699.0</ele><time>2026-04-22T12:45:14.62Z</time></trkpt><trkpt lat="43.5154917" lon="12.4654733"><ele>699.0</ele><time>2026-04-22T12:45:15.62Z</time></trkpt><trkpt lat="43.5154133" lon="12.4655167"><ele>699.0</ele><time>2026-04-22T12:45:16.621Z</time></trkpt><trkpt lat="43.5153333" lon="12.4655717"><ele>699.0</ele><time>2026-04-22T12:45:17.62Z</time></trkpt><trkpt lat="43.5152367" lon="12.4656167"><ele>699.0</ele><time>2026-04-22T12:45:18.62Z</time></trkpt><trkpt lat="43.5151233" lon="12.46565"><ele>699.0</ele><time>2026-04-22T12:45:19.62Z</time></trkpt><trkpt lat="43.51501" lon="12.465685"><ele>699.0</ele><time>2026-04-22T12:45:20.621Z</time></trkpt><trkpt lat="43.5149" lon="12.4657117"><ele>699.0</ele><time>2026-04-22T12:45:21.62Z</time></trkpt><trkpt lat="43.514795" lon="12.46577"><ele>699.0</ele><time>2026-04-22T12:45:22.62Z</time></trkpt><trkpt lat="43.5146983" lon="12.4658733"><ele>699.0</ele><time>2026-04-22T12:45:23.621Z</time></trkpt><trkpt lat="43.5146217" lon="12.466005"><ele>699.0</ele><time>2026-04-22T12:45:24.62Z</time></trkpt><trkpt lat="43.5145583" lon="12.4661533"><ele>699.0</ele><time>2026-04-22T12:45:25.62Z</time></trkpt><trkpt lat="43.514495" lon="12.466295"><ele>699.0</ele><time>2026-04-22T12:45:26.62Z</time></trkpt><trkpt lat="43.5144217" lon="12.4664417"><ele>700.5</ele><time>2026-04-22T12:45:27.62Z</time></trkpt><trkpt lat="43.5143467" lon="12.4665967"><ele>702.0</ele><time>2026-04-22T12:45:28.62Z</time></trkpt><trkpt lat="43.51426" lon="12.466765"><ele>703.5</ele><time>2026-04-22T12:45:29.62Z</time></trkpt><trkpt lat="43.514165" lon="12.46693"><ele>705.0</ele><time>2026-04-22T12:45:30.62Z</time></trkpt><trkpt lat="43.5140783" lon="12.467095"><ele>703.25</ele><time>2026-04-22T12:45:31.62Z</time></trkpt><trkpt lat="43.5139967" lon="12.4672333"><ele>701.5</ele><time>2026-04-22T12:45:32.62Z</time></trkpt><trkpt lat="43.51393" lon="12.46737"><ele>699.75</ele><time>2026-04-22T12:45:33.62Z</time></trkpt><trkpt lat="43.51387" lon="12.4674967"><ele>698.0</ele><time>2026-04-22T12:45:34.62Z</time></trkpt><trkpt lat="43.5138033" lon="12.4676083"><ele>699.5</ele><time>2026-04-22T12:45:35.62Z</time></trkpt><trkpt lat="43.513735" lon="12.4676883"><ele>701.0</ele><time>2026-04-22T12:45:36.62Z</time></trkpt><trkpt lat="43.5136567" lon="12.467735"><ele>702.5</ele><time>2026-04-22T12:45:37.62Z</time></trkpt><trkpt lat="43.5135717" lon="12.4677567"><ele>704.0</ele><time>2026-04-22T12:45:38.62Z</time></trkpt><trkpt lat="43.5134833" lon="12.46776"><ele>705.5</ele><time>2026-04-22T12:45:39.62Z</time></trkpt><trkpt lat="43.5133867" lon="12.4677433"><ele>707.0</ele><time>2026-04-22T12:45:40.621Z</time></trkpt><trkpt lat="43.5132767" lon="12.4677033"><ele>707.0</ele><time>2026-04-22T12:45:41.621Z</time></trkpt><trkpt lat="43.5131567" lon="12.4676517"><ele>707.0</ele><time>2026-04-22T12:45:42.62Z</time></trkpt><trkpt lat="43.51302" lon="12.46762"><ele>707.0</ele><time>2026-04-22T12:45:43.62Z</time></trkpt><trkpt lat="43.512885" lon="12.467595"><ele>707.0</ele><time>2026-04-22T12:45:44.62Z</time></trkpt><trkpt lat="43.51274" lon="12.4675983"><ele>707.6666666666666</ele><time>2026-04-22T12:45:45.62Z</time></trkpt><trkpt lat="43.5125883" lon="12.4676267"><ele>708.3333333333334</ele><time>2026-04-22T12:45:46.62Z</time></trkpt><trkpt lat="43.5124367" lon="12.4676667"><ele>709.0</ele><time>2026-04-22T12:45:47.62Z</time></trkpt><trkpt lat="43.512285" lon="12.4677117"><ele>709.0</ele><time>2026-04-22T12:45:48.621Z</time></trkpt><trkpt lat="43.5121433" lon="12.4677383"><ele>709.0</ele><time>2026-04-22T12:45:49.62Z</time></trkpt><trkpt lat="43.5120183" lon="12.4677633"><ele>709.0</ele><time>2026-04-22T12:45:50.62Z</time></trkpt><trkpt lat="43.5119133" lon="12.46777"><ele>709.0</ele><time>2026-04-22T12:45:51.62Z</time></trkpt><trkpt lat="43.5118233" lon="12.4677333"><ele>705.5</ele><time>2026-04-22T12:45:52.621Z</time></trkpt><trkpt lat="43.511745" lon="12.4676617"><ele>702.0</ele><time>2026-04-22T12:45:53.62Z</time></trkpt><trkpt lat="43.5116783" lon="12.4675483"><ele>698.5</ele><time>2026-04-22T12:45:54.62Z</time></trkpt><trkpt lat="43.5116317" lon="12.4673917"><ele>695.0</ele><time>2026-04-22T12:45:55.62Z</time></trkpt><trkpt lat="43.511585" lon="12.4672217"><ele>698.25</ele><time>2026-04-22T12:45:56.62Z</time></trkpt><trkpt lat="43.5115317" lon="12.4670667"><ele>701.5</ele><time>2026-04-22T12:45:57.62Z</time></trkpt><trkpt lat="43.5114583" lon="12.4669283"><ele>704.75</ele><time>2026-04-22T12:45:58.62Z</time></trkpt><trkpt lat="43.5113783" lon="12.4668033"><ele>708.0</ele><time>2026-04-22T12:45:59.62Z</time></trkpt><trkpt lat="43.5112917" lon="12.4667"><ele>705.0</ele><time>2026-04-22T12:46:00.62Z</time></trkpt><trkpt lat="43.5111983" lon="12.466615"><ele>702.0</ele><time>2026-04-22T12:46:01.62Z</time></trkpt><trkpt lat="43.5111" lon="12.4665533"><ele>699.0</ele><time>2026-04-22T12:46:02.62Z</time></trkpt><trkpt lat="43.51099" lon="12.466515"><ele>696.0</ele><time>2026-04-22T12:46:03.621Z</time></trkpt><trkpt lat="43.5108817" lon="12.4665217"><ele>693.0</ele><time>2026-04-22T12:46:04.62Z</time></trkpt><trkpt lat="43.51078" lon="12.466595"><ele>693.0</ele><time>2026-04-22T12:46:05.62Z</time></trkpt><trkpt lat="43.5106683" lon="12.4666567"><ele>693.0</ele><time>2026-04-22T12:46:06.62Z</time></trkpt><trkpt lat="43.5105733" lon="12.466735"><ele>693.0</ele><time>2026-04-22T12:46:07.62Z</time></trkpt><trkpt lat="43.51049" lon="12.4668033"><ele>693.0</ele><time>2026-04-22T12:46:08.62Z</time></trkpt><trkpt lat="43.5104183" lon="12.4668683"><ele>693.0</ele><time>2026-04-22T12:46:09.62Z</time></trkpt><trkpt lat="43.5103533" lon="12.46696"><ele>694.5999999999999</ele><time>2026-04-22T12:46:10.62Z</time></trkpt><trkpt lat="43.5102933" lon="12.4670433"><ele>696.1999999999999</ele><time>2026-04-22T12:46:11.62Z</time></trkpt><trkpt lat="43.510255" lon="12.46714"><ele>697.8</ele><time>2026-04-22T12:46:12.62Z</time></trkpt><trkpt lat="43.5102133" lon="12.4672433"><ele>699.4</ele><time>2026-04-22T12:46:13.62Z</time></trkpt><trkpt lat="43.5101783" lon="12.4673667"><ele>701.0</ele><time>2026-04-22T12:46:14.62Z</time></trkpt><trkpt lat="43.51015" lon="12.4675117"><ele>701.0</ele><time>2026-04-22T12:46:15.62Z</time></trkpt><trkpt lat="43.5101167" lon="12.4676583"><ele>701.0</ele><time>2026-04-22T12:46:16.621Z</time></trkpt><trkpt lat="43.5100817" lon="12.4678233"><ele>701.0</ele><time>2026-04-22T12:46:17.62Z</time></trkpt><trkpt lat="43.5100767" lon="12.4679883"><ele>701.0</ele><time>2026-04-22T12:46:18.62Z</time></trkpt><trkpt lat="43.5100533" lon="12.46814"><ele>699.1999999999999</ele><time>2026-04-22T12:46:19.62Z</time></trkpt><trkpt lat="43.5100167" lon="12.4682967"><ele>697.4</ele><time>2026-04-22T12:46:20.62Z</time></trkpt><trkpt lat="43.50996" lon="12.4684267"><ele>695.6</ele><time>2026-04-22T12:46:21.621Z</time></trkpt><trkpt lat="43.5098967" lon="12.46854"><ele>693.8</ele><time>2026-04-22T12:46:22.62Z</time></trkpt><trkpt lat="43.509815" lon="12.4686367"><ele>692.0</ele><time>2026-04-22T12:46:23.62Z</time></trkpt><trkpt lat="43.5097217" lon="12.4687183"><ele>694.25</ele><time>2026-04-22T12:46:24.621Z</time></trkpt><trkpt lat="43.5096133" lon="12.4687933"><ele>696.5</ele><time>2026-04-22T12:46:25.62Z</time></trkpt><trkpt lat="43.5095017" lon="12.4688617"><ele>698.75</ele><time>2026-04-22T12:46:26.62Z</time></trkpt><trkpt lat="43.50939" lon="12.4689467"><ele>701.0</ele><time>2026-04-22T12:46:27.62Z</time></trkpt><trkpt lat="43.509295" lon="12.46904"><ele>701.0</ele><time>2026-04-22T12:46:28.62Z</time></trkpt><trkpt lat="43.5092183" lon="12.4691633"><ele>701.0</ele><time>2026-04-22T12:46:29.62Z</time></trkpt><trkpt lat="43.5091617" lon="12.4692983"><ele>701.0</ele><time>2026-04-22T12:46:30.619Z</time></trkpt><trkpt lat="43.5091117" lon="12.46945"><ele>701.0</ele><time>2026-04-22T12:46:31.619Z</time></trkpt><trkpt lat="43.5090567" lon="12.4695883"><ele>699.4</ele><time>2026-04-22T12:46:32.619Z</time></trkpt><trkpt lat="43.5089883" lon="12.4697083"><ele>697.8</ele><time>2026-04-22T12:46:33.619Z</time></trkpt><trkpt lat="43.5088983" lon="12.46981"><ele>696.1999999999999</ele><time>2026-04-22T12:46:34.619Z</time></trkpt><trkpt lat="43.5088117" lon="12.4699083"><ele>694.5999999999999</ele><time>2026-04-22T12:46:35.619Z</time></trkpt><trkpt lat="43.5087617" lon="12.47003"><ele>693.0</ele><time>2026-04-22T12:46:36.619Z</time></trkpt><trkpt lat="43.5087267" lon="12.4701767"><ele>700.4</ele><time>2026-04-22T12:46:37.619Z</time></trkpt><trkpt lat="43.5087017" lon="12.4703367"><ele>707.8</ele><time>2026-04-22T12:46:38.619Z</time></trkpt><trkpt lat="43.50868" lon="12.4704917"><ele>715.2</ele><time>2026-04-22T12:46:39.619Z</time></trkpt><trkpt lat="43.5086533" lon="12.4706283"><ele>722.6</ele><time>2026-04-22T12:46:40.619Z</time></trkpt><trkpt lat="43.508635" lon="12.4707583"><ele>730.0</ele><time>2026-04-22T12:46:41.619Z</time></trkpt><trkpt lat="43.5086167" lon="12.4708833"><ele>730.0</ele><time>2026-04-22T12:46:42.619Z</time></trkpt><trkpt lat="43.5085933" lon="12.4709967"><ele>730.0</ele><time>2026-04-22T12:46:43.619Z</time></trkpt><trkpt lat="43.50857" lon="12.4711233"><ele>730.0</ele><time>2026-04-22T12:46:44.619Z</time></trkpt><trkpt lat="43.5085483" lon="12.4712583"><ele>730.0</ele><time>2026-04-22T12:46:45.619Z</time></trkpt><trkpt lat="43.5085317" lon="12.4714017"><ele>730.0</ele><time>2026-04-22T12:46:46.619Z</time></trkpt><trkpt lat="43.5085083" lon="12.4715333"><ele>728.6</ele><time>2026-04-22T12:46:47.619Z</time></trkpt><trkpt lat="43.5084767" lon="12.4716633"><ele>727.2</ele><time>2026-04-22T12:46:48.619Z</time></trkpt><trkpt lat="43.50842" lon="12.4717817"><ele>725.8</ele><time>2026-04-22T12:46:49.619Z</time></trkpt><trkpt lat="43.50834" lon="12.47188"><ele>724.4</ele><time>2026-04-22T12:46:50.619Z</time></trkpt><trkpt lat="43.50823" lon="12.4719483"><ele>723.0</ele><time>2026-04-22T12:46:51.619Z</time></trkpt><trkpt lat="43.5081083" lon="12.472015"><ele>723.0</ele><time>2026-04-22T12:46:52.62Z</time></trkpt><trkpt lat="43.5079883" lon="12.4720633"><ele>723.0</ele><time>2026-04-22T12:46:53.619Z</time></trkpt><trkpt lat="43.5078567" lon="12.4721"><ele>723.0</ele><time>2026-04-22T12:46:54.619Z</time></trkpt><trkpt lat="43.50773" lon="12.472115"><ele>723.0</ele><time>2026-04-22T12:46:55.619Z</time></trkpt><trkpt lat="43.5075967" lon="12.4721033"><ele>721.5</ele><time>2026-04-22T12:46:56.62Z</time></trkpt><trkpt lat="43.507475" lon="12.47208"><ele>720.0</ele><time>2026-04-22T12:46:57.619Z</time></trkpt><trkpt lat="43.50736" lon="12.4720817"><ele>718.5</ele><time>2026-04-22T12:46:58.62Z</time></trkpt><trkpt lat="43.5072567" lon="12.4721217"><ele>717.0</ele><time>2026-04-22T12:46:59.619Z</time></trkpt><trkpt lat="43.5071667" lon="12.4722067"><ele>717.0</ele><time>2026-04-22T12:47:00.619Z</time></trkpt><trkpt lat="43.5070983" lon="12.4723317"><ele>717.0</ele><time>2026-04-22T12:47:01.62Z</time></trkpt><trkpt lat="43.5070517" lon="12.4724883"><ele>717.0</ele><time>2026-04-22T12:47:02.619Z</time></trkpt><trkpt lat="43.5070167" lon="12.4726683"><ele>717.0</ele><time>2026-04-22T12:47:03.619Z</time></trkpt><trkpt lat="43.5069817" lon="12.4728433"><ele>722.75</ele><time>2026-04-22T12:47:04.619Z</time></trkpt><trkpt lat="43.506945" lon="12.4730183"><ele>728.5</ele><time>2026-04-22T12:47:05.619Z</time></trkpt><trkpt lat="43.5069083" lon="12.4731983"><ele>734.25</ele><time>2026-04-22T12:47:06.619Z</time></trkpt><trkpt lat="43.5068617" lon="12.4733617"><ele>740.0</ele><time>2026-04-22T12:47:07.619Z</time></trkpt><trkpt lat="43.5068067" lon="12.473505"><ele>740.0</ele><time>2026-04-22T12:47:08.619Z</time></trkpt><trkpt lat="43.5067333" lon="12.47362"><ele>740.0</ele><time>2026-04-22T12:47:09.619Z</time></trkpt><trkpt lat="43.5066467" lon="12.47371"><ele>740.0</ele><time>2026-04-22T12:47:10.619Z</time></trkpt><trkpt lat="43.5065267" lon="12.47377"><ele>740.0</ele><time>2026-04-22T12:47:11.619Z</time></trkpt><trkpt lat="43.5063917" lon="12.47381"><ele>736.0</ele><time>2026-04-22T12:47:12.619Z</time></trkpt><trkpt lat="43.506255" lon="12.4738333"><ele>732.0</ele><time>2026-04-22T12:47:13.619Z</time></trkpt><trkpt lat="43.50612" lon="12.4738767"><ele>728.0</ele><time>2026-04-22T12:47:14.619Z</time></trkpt><trkpt lat="43.506005" lon="12.473935"><ele>724.0</ele><time>2026-04-22T12:47:15.62Z</time></trkpt><trkpt lat="43.5058933" lon="12.4739817"><ele>724.0</ele><time>2026-04-22T12:47:16.62Z</time></trkpt><trkpt lat="43.5057633" lon="12.473995"><ele>724.0</ele><time>2026-04-22T12:47:17.619Z</time></trkpt><trkpt lat="43.505625" lon="12.4739717"><ele>724.0</ele><time>2026-04-22T12:47:18.619Z</time></trkpt><trkpt lat="43.5054983" lon="12.47394"><ele>724.0</ele><time>2026-04-22T12:47:19.619Z</time></trkpt><trkpt lat="43.50538" lon="12.47392"><ele>725.0</ele><time>2026-04-22T12:47:20.619Z</time></trkpt><trkpt lat="43.5052767" lon="12.4739083"><ele>726.0</ele><time>2026-04-22T12:47:21.619Z</time></trkpt><trkpt lat="43.50518" lon="12.4739067"><ele>727.0</ele><time>2026-04-22T12:47:22.619Z</time></trkpt><trkpt lat="43.5050817" lon="12.4739167"><ele>728.0</ele><time>2026-04-22T12:47:23.619Z</time></trkpt><trkpt lat="43.5049817" lon="12.473935"><ele>729.0</ele><time>2026-04-22T12:47:24.619Z</time></trkpt><trkpt lat="43.5048817" lon="12.4739633"><ele>729.0</ele><time>2026-04-22T12:47:25.619Z</time></trkpt><trkpt lat="43.504785" lon="12.4740033"><ele>729.0</ele><time>2026-04-22T12:47:26.619Z</time></trkpt><trkpt lat="43.50469" lon="12.4740483"><ele>729.0</ele><time>2026-04-22T12:47:27.619Z</time></trkpt><trkpt lat="43.5045917" lon="12.474095"><ele>729.0</ele><time>2026-04-22T12:47:28.619Z</time></trkpt><trkpt lat="43.5044883" lon="12.47414"><ele>729.0</ele><time>2026-04-22T12:47:29.619Z</time></trkpt><trkpt lat="43.504385" lon="12.4741917"><ele>734.4000000000001</ele><time>2026-04-22T12:47:30.619Z</time></trkpt><trkpt lat="43.504285" lon="12.4742367"><ele>739.8</ele><time>2026-04-22T12:47:31.619Z</time></trkpt><trkpt lat="43.5041917" lon="12.4742917"><ele>745.2</ele><time>2026-04-22T12:47:32.62Z</time></trkpt><trkpt lat="43.5040967" lon="12.4743417"><ele>750.5999999999999</ele><time>2026-04-22T12:47:33.619Z</time></trkpt><trkpt lat="43.5040033" lon="12.4743933"><ele>756.0</ele><time>2026-04-22T12:47:34.62Z</time></trkpt><trkpt lat="43.5039067" lon="12.4744283"><ele>756.0</ele><time>2026-04-22T12:47:35.619Z</time></trkpt><trkpt lat="43.5038067" lon="12.4744617"><ele>756.0</ele><time>2026-04-22T12:47:36.619Z</time></trkpt><trkpt lat="43.5037033" lon="12.4744933"><ele>756.0</ele><time>2026-04-22T12:47:37.619Z</time></trkpt><trkpt lat="43.5035883" lon="12.4745067"><ele>756.0</ele><time>2026-04-22T12:47:38.619Z</time></trkpt><trkpt lat="43.5034783" lon="12.4745033"><ele>756.0</ele><time>2026-04-22T12:47:39.62Z</time></trkpt><trkpt lat="43.5033717" lon="12.4744867"><ele>755.4</ele><time>2026-04-22T12:47:40.619Z</time></trkpt><trkpt lat="43.5032667" lon="12.474465"><ele>754.8</ele><time>2026-04-22T12:47:41.619Z</time></trkpt><trkpt lat="43.5031633" lon="12.4744433"><ele>754.1999999999999</ele><time>2026-04-22T12:47:42.619Z</time></trkpt><trkpt lat="43.50307" lon="12.4744183"><ele>753.5999999999999</ele><time>2026-04-22T12:47:43.619Z</time></trkpt><trkpt lat="43.50298" lon="12.4744017"><ele>753.0</ele><time>2026-04-22T12:47:44.619Z</time></trkpt><trkpt lat="43.50289" lon="12.47439"><ele>753.6666666666666</ele><time>2026-04-22T12:47:45.62Z</time></trkpt><trkpt lat="43.5028067" lon="12.47439"><ele>754.3333333333334</ele><time>2026-04-22T12:47:46.619Z</time></trkpt><trkpt lat="43.5027217" lon="12.4744017"><ele>755.0</ele><time>2026-04-22T12:47:47.619Z</time></trkpt><trkpt lat="43.5026433" lon="12.47444"><ele>755.6666666666667</ele><time>2026-04-22T12:47:48.619Z</time></trkpt><trkpt lat="43.5025683" lon="12.474495"><ele>756.3333333333334</ele><time>2026-04-22T12:47:49.619Z</time></trkpt><trkpt lat="43.502485" lon="12.4745617"><ele>757.0</ele><time>2026-04-22T12:47:50.619Z</time></trkpt><trkpt lat="43.502395" lon="12.4746433"><ele>757.0</ele><time>2026-04-22T12:47:51.619Z</time></trkpt><trkpt lat="43.5022967" lon="12.4747383"><ele>757.0</ele><time>2026-04-22T12:47:52.619Z</time></trkpt><trkpt lat="43.502195" lon="12.474825"><ele>757.0</ele><time>2026-04-22T12:47:53.619Z</time></trkpt><trkpt lat="43.5020983" lon="12.4749117"><ele>757.0</ele><time>2026-04-22T12:47:54.619Z</time></trkpt><trkpt lat="43.502005" lon="12.475"><ele>754.25</ele><time>2026-04-22T12:47:55.619Z</time></trkpt><trkpt lat="43.50191" lon="12.4750883"><ele>751.5</ele><time>2026-04-22T12:47:56.619Z</time></trkpt><trkpt lat="43.5018133" lon="12.475175"><ele>748.75</ele><time>2026-04-22T12:47:57.619Z</time></trkpt><trkpt lat="43.50171" lon="12.4752633"><ele>746.0</ele><time>2026-04-22T12:47:58.62Z</time></trkpt><trkpt lat="43.50161" lon="12.4753517"><ele>749.5</ele><time>2026-04-22T12:47:59.62Z</time></trkpt><trkpt lat="43.5015217" lon="12.4754417"><ele>753.0</ele><time>2026-04-22T12:48:00.619Z</time></trkpt><trkpt lat="43.50144" lon="12.4755567"><ele>756.5</ele><time>2026-04-22T12:48:01.619Z</time></trkpt><trkpt lat="43.50136" lon="12.4756667"><ele>760.0</ele><time>2026-04-22T12:48:02.619Z</time></trkpt><trkpt lat="43.5012767" lon="12.47578"><ele>755.2</ele><time>2026-04-22T12:48:03.619Z</time></trkpt><trkpt lat="43.5011833" lon="12.4758833"><ele>750.4</ele><time>2026-04-22T12:48:04.62Z</time></trkpt><trkpt lat="43.5011" lon="12.475975"><ele>745.5999999999999</ele><time>2026-04-22T12:48:05.619Z</time></trkpt><trkpt lat="43.5010083" lon="12.4760583"><ele>740.8</ele><time>2026-04-22T12:48:06.619Z</time></trkpt><trkpt lat="43.5009183" lon="12.4761017"><ele>736.0</ele><time>2026-04-22T12:48:07.619Z</time></trkpt><trkpt lat="43.5008217" lon="12.4760967"><ele>736.0</ele><time>2026-04-22T12:48:08.62Z</time></trkpt><trkpt lat="43.5007283" lon="12.4760617"><ele>736.0</ele><time>2026-04-22T12:48:09.619Z</time></trkpt><trkpt lat="43.5006433" lon="12.47599"><ele>736.0</ele><time>2026-04-22T12:48:10.619Z</time></trkpt><trkpt lat="43.5005683" lon="12.4758933"><ele>736.0</ele><time>2026-04-22T12:48:11.62Z</time></trkpt><trkpt lat="43.5004967" lon="12.4757983"><ele>736.0</ele><time>2026-04-22T12:48:12.619Z</time></trkpt><trkpt lat="43.5004183" lon="12.4757217"><ele>733.8</ele><time>2026-04-22T12:48:13.62Z</time></trkpt><trkpt lat="43.5003283" lon="12.475675"><ele>731.5999999999999</ele><time>2026-04-22T12:48:14.619Z</time></trkpt><trkpt lat="43.5002333" lon="12.47566"><ele>729.4</ele><time>2026-04-22T12:48:15.619Z</time></trkpt><trkpt lat="43.500135" lon="12.4756817"><ele>727.2</ele><time>2026-04-22T12:48:16.62Z</time></trkpt><trkpt lat="43.5000467" lon="12.4757283"><ele>725.0</ele><time>2026-04-22T12:48:17.619Z</time></trkpt><trkpt lat="43.4999567" lon="12.4757917"><ele>725.0</ele><time>2026-04-22T12:48:18.62Z</time></trkpt><trkpt lat="43.4998667" lon="12.4758683"><ele>725.0</ele><time>2026-04-22T12:48:19.619Z</time></trkpt><trkpt lat="43.499785" lon="12.4759433"><ele>725.0</ele><time>2026-04-22T12:48:20.619Z</time></trkpt><trkpt lat="43.499695" lon="12.476015"><ele>725.0</ele><time>2026-04-22T12:48:21.619Z</time></trkpt><trkpt lat="43.4996067" lon="12.4760917"><ele>725.0</ele><time>2026-04-22T12:48:22.619Z</time></trkpt><trkpt lat="43.499525" lon="12.476165"><ele>725.0</ele><time>2026-04-22T12:48:23.62Z</time></trkpt><trkpt lat="43.499445" lon="12.4762317"><ele>725.0</ele><time>2026-04-22T12:48:24.619Z</time></trkpt><trkpt lat="43.499365" lon="12.4763067"><ele>725.0</ele><time>2026-04-22T12:48:25.619Z</time></trkpt><trkpt lat="43.4992817" lon="12.4763917"><ele>725.0</ele><time>2026-04-22T12:48:26.619Z</time></trkpt><trkpt lat="43.4992017" lon="12.47647"><ele>725.0</ele><time>2026-04-22T12:48:27.619Z</time></trkpt><trkpt lat="43.4991233" lon="12.4765517"><ele>725.0</ele><time>2026-04-22T12:48:28.619Z</time></trkpt><trkpt lat="43.499045" lon="12.476635"><ele>725.0</ele><time>2026-04-22T12:48:29.619Z</time></trkpt><trkpt lat="43.4989667" lon="12.4767267"><ele>725.0</ele><time>2026-04-22T12:48:30.62Z</time></trkpt><trkpt lat="43.4988933" lon="12.4768117"><ele>725.0</ele><time>2026-04-22T12:48:31.619Z</time></trkpt><trkpt lat="43.498825" lon="12.4768933"><ele>725.0</ele><time>2026-04-22T12:48:32.619Z</time></trkpt><trkpt lat="43.4987633" lon="12.4769633"><ele>721.6666666666666</ele><time>2026-04-22T12:48:33.619Z</time></trkpt><trkpt lat="43.4987083" lon="12.477025"><ele>718.3333333333333</ele><time>2026-04-22T12:48:34.619Z</time></trkpt><trkpt lat="43.4986133" lon="12.47708"><ele>715.0</ele><time>2026-04-22T12:48:36.619Z</time></trkpt><trkpt lat="43.4985317" lon="12.4770133"><ele>711.6666666666666</ele><time>2026-04-22T12:48:38.619Z</time></trkpt><trkpt lat="43.498525" lon="12.476925"><ele>708.3333333333334</ele><time>2026-04-22T12:48:39.62Z</time></trkpt><trkpt lat="43.4985417" lon="12.4768333"><ele>705.0</ele><time>2026-04-22T12:48:40.619Z</time></trkpt><trkpt lat="43.4985833" lon="12.4767417"><ele>705.0</ele><time>2026-04-22T12:48:41.619Z</time></trkpt><trkpt lat="43.498645" lon="12.4766283"><ele>705.0</ele><time>2026-04-22T12:48:42.619Z</time></trkpt><trkpt lat="43.49871" lon="12.4765033"><ele>705.0</ele><time>2026-04-22T12:48:43.619Z</time></trkpt><trkpt lat="43.4987783" lon="12.4763733"><ele>705.0</ele><time>2026-04-22T12:48:44.619Z</time></trkpt><trkpt lat="43.4988483" lon="12.4762217"><ele>704.5</ele><time>2026-04-22T12:48:45.619Z</time></trkpt><trkpt lat="43.4989267" lon="12.4760733"><ele>704.0</ele><time>2026-04-22T12:48:46.619Z</time></trkpt><trkpt lat="43.499005" lon="12.4759233"><ele>703.5</ele><time>2026-04-22T12:48:47.619Z</time></trkpt><trkpt lat="43.4990817" lon="12.4757717"><ele>703.0</ele><time>2026-04-22T12:48:48.62Z</time></trkpt><trkpt lat="43.49916" lon="12.4756167"><ele>703.0</ele><time>2026-04-22T12:48:49.619Z</time></trkpt><trkpt lat="43.4992317" lon="12.475455"><ele>703.0</ele><time>2026-04-22T12:48:50.62Z</time></trkpt><trkpt lat="43.4993067" lon="12.4752983"><ele>703.0</ele><time>2026-04-22T12:48:51.619Z</time></trkpt><trkpt lat="43.4993817" lon="12.4751483"><ele>703.0</ele><time>2026-04-22T12:48:52.619Z</time></trkpt><trkpt lat="43.4994617" lon="12.4750033"><ele>703.75</ele><time>2026-04-22T12:48:53.619Z</time></trkpt><trkpt lat="43.4995433" lon="12.4748567"><ele>704.5</ele><time>2026-04-22T12:48:54.62Z</time></trkpt><trkpt lat="43.4996167" lon="12.474705"><ele>705.25</ele><time>2026-04-22T12:48:55.62Z</time></trkpt><trkpt lat="43.4996833" lon="12.4745417"><ele>706.0</ele><time>2026-04-22T12:48:56.619Z</time></trkpt><trkpt lat="43.4997383" lon="12.4743817"><ele>702.0</ele><time>2026-04-22T12:48:57.619Z</time></trkpt><trkpt lat="43.4997867" lon="12.4742283"><ele>698.0</ele><time>2026-04-22T12:48:58.619Z</time></trkpt><trkpt lat="43.4998317" lon="12.4740683"><ele>694.0</ele><time>2026-04-22T12:48:59.619Z</time></trkpt><trkpt lat="43.4998633" lon="12.4739067"><ele>690.0</ele><time>2026-04-22T12:49:00.619Z</time></trkpt><trkpt lat="43.4998817" lon="12.4737467"><ele>687.0</ele><time>2026-04-22T12:49:01.62Z</time></trkpt><trkpt lat="43.4998933" lon="12.473605"><ele>684.0</ele><time>2026-04-22T12:49:02.62Z</time></trkpt><trkpt lat="43.4999" lon="12.473465"><ele>681.0</ele><time>2026-04-22T12:49:03.62Z</time></trkpt><trkpt lat="43.4998983" lon="12.4733333"><ele>678.0</ele><time>2026-04-22T12:49:04.619Z</time></trkpt><trkpt lat="43.4998983" lon="12.47321"><ele>675.0</ele><time>2026-04-22T12:49:05.619Z</time></trkpt><trkpt lat="43.49989" lon="12.4730833"><ele>675.0</ele><time>2026-04-22T12:49:06.619Z</time></trkpt><trkpt lat="43.4998667" lon="12.47296"><ele>675.0</ele><time>2026-04-22T12:49:07.619Z</time></trkpt><trkpt lat="43.4998367" lon="12.4728333"><ele>675.0</ele><time>2026-04-22T12:49:08.619Z</time></trkpt><trkpt lat="43.4997967" lon="12.472715"><ele>675.0</ele><time>2026-04-22T12:49:09.619Z</time></trkpt><trkpt lat="43.4997467" lon="12.4726083"><ele>675.0</ele><time>2026-04-22T12:49:10.62Z</time></trkpt><trkpt lat="43.4997033" lon="12.4725167"><ele>674.6666666666666</ele><time>2026-04-22T12:49:11.619Z</time></trkpt><trkpt lat="43.4996583" lon="12.4724367"><ele>674.3333333333334</ele><time>2026-04-22T12:49:12.619Z</time></trkpt><trkpt lat="43.4996083" lon="12.472375"><ele>674.0</ele><time>2026-04-22T12:49:13.619Z</time></trkpt><trkpt lat="43.49949" lon="12.4723317"><ele>673.6666666666667</ele><time>2026-04-22T12:49:15.619Z</time></trkpt><trkpt lat="43.4994367" lon="12.4723783"><ele>673.3333333333334</ele><time>2026-04-22T12:49:16.619Z</time></trkpt><trkpt lat="43.4994033" lon="12.4724567"><ele>673.0</ele><time>2026-04-22T12:49:17.619Z</time></trkpt><trkpt lat="43.4994" lon="12.47255"><ele>669.8</ele><time>2026-04-22T12:49:18.619Z</time></trkpt><trkpt lat="43.4994067" lon="12.472665"><ele>666.5999999999999</ele><time>2026-04-22T12:49:19.62Z</time></trkpt><trkpt lat="43.49941" lon="12.472795"><ele>663.4000000000001</ele><time>2026-04-22T12:49:20.619Z</time></trkpt><trkpt lat="43.4994" lon="12.4729333"><ele>660.2</ele><time>2026-04-22T12:49:21.619Z</time></trkpt><trkpt lat="43.4993817" lon="12.4730633"><ele>657.0</ele><time>2026-04-22T12:49:22.619Z</time></trkpt><trkpt lat="43.4993533" lon="12.4731833"><ele>657.0</ele><time>2026-04-22T12:49:23.619Z</time></trkpt><trkpt lat="43.4993083" lon="12.4732967"><ele>657.0</ele><time>2026-04-22T12:49:24.62Z</time></trkpt><trkpt lat="43.4992583" lon="12.4734083"><ele>657.0</ele><time>2026-04-22T12:49:25.619Z</time></trkpt><trkpt lat="43.4991933" lon="12.473515"><ele>657.0</ele><time>2026-04-22T12:49:26.619Z</time></trkpt><trkpt lat="43.49912" lon="12.4736"><ele>657.0</ele><time>2026-04-22T12:49:27.619Z</time></trkpt><trkpt lat="43.49903" lon="12.4736633"><ele>657.0</ele><time>2026-04-22T12:49:28.619Z</time></trkpt><trkpt lat="43.49894" lon="12.47372"><ele>657.0</ele><time>2026-04-22T12:49:29.619Z</time></trkpt><trkpt lat="43.4988483" lon="12.4737717"><ele>657.0</ele><time>2026-04-22T12:49:30.619Z</time></trkpt><trkpt lat="43.4987517" lon="12.4738417"><ele>657.0</ele><time>2026-04-22T12:49:31.619Z</time></trkpt><trkpt lat="43.4986617" lon="12.4739133"><ele>657.0</ele><time>2026-04-22T12:49:32.619Z</time></trkpt><trkpt lat="43.4985817" lon="12.47398"><ele>655.3333333333334</ele><time>2026-04-22T12:49:33.619Z</time></trkpt><trkpt lat="43.4985133" lon="12.4740233"><ele>653.6666666666666</ele><time>2026-04-22T12:49:34.619Z</time></trkpt><trkpt lat="43.4984433" lon="12.4740267"><ele>652.0</ele><time>2026-04-22T12:49:35.619Z</time></trkpt><trkpt lat="43.498375" lon="12.4739767"><ele>650.3333333333333</ele><time>2026-04-22T12:49:36.619Z</time></trkpt><trkpt lat="43.4983317" lon="12.4738633"><ele>648.6666666666666</ele><time>2026-04-22T12:49:37.619Z</time></trkpt><trkpt lat="43.4983367" lon="12.4737183"><ele>647.0</ele><time>2026-04-22T12:49:38.619Z</time></trkpt><trkpt lat="43.49835" lon="12.4735717"><ele>644.8000000000001</ele><time>2026-04-22T12:49:39.619Z</time></trkpt><trkpt lat="43.498355" lon="12.4734333"><ele>642.6</ele><time>2026-04-22T12:49:40.619Z</time></trkpt><trkpt lat="43.498365" lon="12.4732883"><ele>640.4000000000001</ele><time>2026-04-22T12:49:41.619Z</time></trkpt><trkpt lat="43.4983717" lon="12.4731533"><ele>638.2</ele><time>2026-04-22T12:49:42.619Z</time></trkpt><trkpt lat="43.4983667" lon="12.473035"><ele>636.0</ele><time>2026-04-22T12:49:43.619Z</time></trkpt><trkpt lat="43.4983417" lon="12.4729383"><ele>636.0</ele><time>2026-04-22T12:49:44.619Z</time></trkpt><trkpt lat="43.4982883" lon="12.47286"><ele>636.0</ele><time>2026-04-22T12:49:45.619Z</time></trkpt><trkpt lat="43.4982133" lon="12.47283"><ele>636.0</ele><time>2026-04-22T12:49:46.62Z</time></trkpt><trkpt lat="43.498125" lon="12.472855"><ele>636.0</ele><time>2026-04-22T12:49:47.619Z</time></trkpt><trkpt lat="43.4980367" lon="12.4729017"><ele>636.0</ele><time>2026-04-22T12:49:48.619Z</time></trkpt><trkpt lat="43.49796" lon="12.472975"><ele>636.0</ele><time>2026-04-22T12:49:49.619Z</time></trkpt><trkpt lat="43.4978917" lon="12.4730783"><ele>632.6</ele><time>2026-04-22T12:49:50.62Z</time></trkpt><trkpt lat="43.497835" lon="12.4731967"><ele>629.2</ele><time>2026-04-22T12:49:51.62Z</time></trkpt><trkpt lat="43.4977783" lon="12.4733167"><ele>625.8</ele><time>2026-04-22T12:49:52.619Z</time></trkpt><trkpt lat="43.4977283" lon="12.47344"><ele>622.4</ele><time>2026-04-22T12:49:53.619Z</time></trkpt><trkpt lat="43.49767" lon="12.4735483"><ele>619.0</ele><time>2026-04-22T12:49:54.619Z</time></trkpt><trkpt lat="43.4976033" lon="12.4736517"><ele>619.0</ele><time>2026-04-22T12:49:55.619Z</time></trkpt><trkpt lat="43.4975267" lon="12.4737467"><ele>619.0</ele><time>2026-04-22T12:49:56.619Z</time></trkpt><trkpt lat="43.49744" lon="12.47382"><ele>619.0</ele><time>2026-04-22T12:49:57.619Z</time></trkpt><trkpt lat="43.4973433" lon="12.4738533"><ele>619.0</ele><time>2026-04-22T12:49:58.619Z</time></trkpt><trkpt lat="43.4972467" lon="12.4738433"><ele>619.0</ele><time>2026-04-22T12:49:59.619Z</time></trkpt><trkpt lat="43.4971567" lon="12.4738117"><ele>618.1666666666667</ele><time>2026-04-22T12:50:00.619Z</time></trkpt><trkpt lat="43.4970617" lon="12.47382"><ele>617.3333333333334</ele><time>2026-04-22T12:50:01.619Z</time></trkpt><trkpt lat="43.496985" lon="12.4738583"><ele>616.5</ele><time>2026-04-22T12:50:02.62Z</time></trkpt><trkpt lat="43.496915" lon="12.47392"><ele>615.6666666666666</ele><time>2026-04-22T12:50:03.619Z</time></trkpt><trkpt lat="43.4968417" lon="12.473995"><ele>614.8333333333333</ele><time>2026-04-22T12:50:04.619Z</time></trkpt><trkpt lat="43.496775" lon="12.4740833"><ele>614.0</ele><time>2026-04-22T12:50:05.62Z</time></trkpt><trkpt lat="43.4967083" lon="12.4741767"><ele>614.0</ele><time>2026-04-22T12:50:06.62Z</time></trkpt><trkpt lat="43.4966317" lon="12.474265"><ele>614.0</ele><time>2026-04-22T12:50:07.619Z</time></trkpt><trkpt lat="43.4965483" lon="12.4743483"><ele>614.0</ele><time>2026-04-22T12:50:08.619Z</time></trkpt><trkpt lat="43.496465" lon="12.4744133"><ele>614.0</ele><time>2026-04-22T12:50:09.62Z</time></trkpt><trkpt lat="43.49637" lon="12.474465"><ele>614.0</ele><time>2026-04-22T12:50:10.619Z</time></trkpt><trkpt lat="43.4962733" lon="12.4744917"><ele>611.0</ele><time>2026-04-22T12:50:11.62Z</time></trkpt><trkpt lat="43.496175" lon="12.4745083"><ele>608.0</ele><time>2026-04-22T12:50:12.619Z</time></trkpt><trkpt lat="43.4960717" lon="12.4745067"><ele>605.0</ele><time>2026-04-22T12:50:13.62Z</time></trkpt><trkpt lat="43.4959683" lon="12.4744883"><ele>602.0</ele><time>2026-04-22T12:50:14.619Z</time></trkpt><trkpt lat="43.4958733" lon="12.47446"><ele>599.0</ele><time>2026-04-22T12:50:15.619Z</time></trkpt><trkpt lat="43.4957817" lon="12.474405"><ele>599.0</ele><time>2026-04-22T12:50:16.619Z</time></trkpt><trkpt lat="43.4957133" lon="12.47434"><ele>599.0</ele><time>2026-04-22T12:50:17.619Z</time></trkpt><trkpt lat="43.4956317" lon="12.4742883"><ele>599.0</ele><time>2026-04-22T12:50:18.619Z</time></trkpt><trkpt lat="43.4955417" lon="12.47426"><ele>599.0</ele><time>2026-04-22T12:50:19.619Z</time></trkpt><trkpt lat="43.4954567" lon="12.4742567"><ele>599.0</ele><time>2026-04-22T12:50:20.619Z</time></trkpt><trkpt lat="43.4953733" lon="12.4742667"><ele>599.0</ele><time>2026-04-22T12:50:21.619Z</time></trkpt><trkpt lat="43.4952883" lon="12.474305"><ele>598.2</ele><time>2026-04-22T12:50:22.619Z</time></trkpt><trkpt lat="43.4951933" lon="12.4743683"><ele>597.4</ele><time>2026-04-22T12:50:23.619Z</time></trkpt><trkpt lat="43.495105" lon="12.4744233"><ele>596.6</ele><time>2026-04-22T12:50:24.619Z</time></trkpt><trkpt lat="43.4950217" lon="12.4744933"><ele>595.8</ele><time>2026-04-22T12:50:25.619Z</time></trkpt><trkpt lat="43.494935" lon="12.4745733"><ele>595.0</ele><time>2026-04-22T12:50:26.62Z</time></trkpt><trkpt lat="43.4948667" lon="12.47467"><ele>595.0</ele><time>2026-04-22T12:50:27.619Z</time></trkpt><trkpt lat="43.4948133" lon="12.4747767"><ele>595.0</ele><time>2026-04-22T12:50:28.619Z</time></trkpt><trkpt lat="43.4947717" lon="12.4748967"><ele>595.0</ele><time>2026-04-22T12:50:29.62Z</time></trkpt><trkpt lat="43.494745" lon="12.4750183"><ele>595.0</ele><time>2026-04-22T12:50:30.619Z</time></trkpt><trkpt lat="43.49471" lon="12.4751417"><ele>595.0</ele><time>2026-04-22T12:50:31.619Z</time></trkpt><trkpt lat="43.49468" lon="12.4752683"><ele>595.0</ele><time>2026-04-22T12:50:32.619Z</time></trkpt><trkpt lat="43.4946433" lon="12.4753983"><ele>595.0</ele><time>2026-04-22T12:50:33.619Z</time></trkpt><trkpt lat="43.49461" lon="12.475535"><ele>595.0</ele><time>2026-04-22T12:50:34.619Z</time></trkpt><trkpt lat="43.4945733" lon="12.4756617"><ele>595.0</ele><time>2026-04-22T12:50:35.62Z</time></trkpt><trkpt lat="43.49454" lon="12.4757967"><ele>595.0</ele><time>2026-04-22T12:50:36.619Z</time></trkpt><trkpt lat="43.49451" lon="12.475935"><ele>589.2</ele><time>2026-04-22T12:50:37.619Z</time></trkpt><trkpt lat="43.49448" lon="12.4760683"><ele>583.4</ele><time>2026-04-22T12:50:38.619Z</time></trkpt><trkpt lat="43.4944567" lon="12.476205"><ele>577.6</ele><time>2026-04-22T12:50:39.619Z</time></trkpt><trkpt lat="43.4944483" lon="12.4763533"><ele>571.8</ele><time>2026-04-22T12:50:40.619Z</time></trkpt><trkpt lat="43.4944483" lon="12.4764917"><ele>566.0</ele><time>2026-04-22T12:50:41.619Z</time></trkpt><trkpt lat="43.49447" lon="12.4766067"><ele>564.6</ele><time>2026-04-22T12:50:42.619Z</time></trkpt><trkpt lat="43.4945" lon="12.4767133"><ele>563.2</ele><time>2026-04-22T12:50:43.619Z</time></trkpt><trkpt lat="43.4945133" lon="12.4768167"><ele>561.8</ele><time>2026-04-22T12:50:44.62Z</time></trkpt><trkpt lat="43.494505" lon="12.4769167"><ele>560.4</ele><time>2026-04-22T12:50:45.619Z</time></trkpt><trkpt lat="43.49444" lon="12.4770317"><ele>559.0</ele><time>2026-04-22T12:50:47.619Z</time></trkpt><trkpt lat="43.494315" lon="12.476975"><ele>559.0</ele><time>2026-04-22T12:50:49.619Z</time></trkpt><trkpt lat="43.4942583" lon="12.47689"><ele>559.0</ele><time>2026-04-22T12:50:50.619Z</time></trkpt><trkpt lat="43.4942117" lon="12.4767767"><ele>559.0</ele><time>2026-04-22T12:50:51.619Z</time></trkpt><trkpt lat="43.4941717" lon="12.4766533"><ele>559.0</ele><time>2026-04-22T12:50:52.619Z</time></trkpt><trkpt lat="43.494125" lon="12.4765283"><ele>559.0</ele><time>2026-04-22T12:50:53.619Z</time></trkpt><trkpt lat="43.494075" lon="12.4764167"><ele>559.0</ele><time>2026-04-22T12:50:54.619Z</time></trkpt><trkpt lat="43.4940133" lon="12.4763167"><ele>559.0</ele><time>2026-04-22T12:50:55.619Z</time></trkpt><trkpt lat="43.4939533" lon="12.476215"><ele>559.0</ele><time>2026-04-22T12:50:56.62Z</time></trkpt><trkpt lat="43.4938867" lon="12.476135"><ele>559.0</ele><time>2026-04-22T12:50:57.619Z</time></trkpt><trkpt lat="43.4938217" lon="12.47605"><ele>559.0</ele><time>2026-04-22T12:50:58.619Z</time></trkpt><trkpt lat="43.49377" lon="12.4759417"><ele>556.8</ele><time>2026-04-22T12:50:59.619Z</time></trkpt><trkpt lat="43.4937183" lon="12.4758283"><ele>554.5999999999999</ele><time>2026-04-22T12:51:00.619Z</time></trkpt><trkpt lat="43.4936767" lon="12.4757117"><ele>552.4</ele><time>2026-04-22T12:51:01.619Z</time></trkpt><trkpt lat="43.4936417" lon="12.475595"><ele>550.1999999999999</ele><time>2026-04-22T12:51:02.619Z</time></trkpt><trkpt lat="43.4936067" lon="12.4754817"><ele>548.0</ele><time>2026-04-22T12:51:03.619Z</time></trkpt><trkpt lat="43.493575" lon="12.475365"><ele>548.0</ele><time>2026-04-22T12:51:04.619Z</time></trkpt><trkpt lat="43.4935383" lon="12.47525"><ele>548.0</ele><time>2026-04-22T12:51:05.619Z</time></trkpt><trkpt lat="43.4934967" lon="12.4751317"><ele>548.0</ele><time>2026-04-22T12:51:06.619Z</time></trkpt><trkpt lat="43.4934533" lon="12.4750217"><ele>548.0</ele><time>2026-04-22T12:51:07.619Z</time></trkpt><trkpt lat="43.4934133" lon="12.4749167"><ele>548.0</ele><time>2026-04-22T12:51:08.619Z</time></trkpt><trkpt lat="43.49336" lon="12.4748333"><ele>548.0</ele><time>2026-04-22T12:51:09.619Z</time></trkpt><trkpt lat="43.4933067" lon="12.474785"><ele>548.0</ele><time>2026-04-22T12:51:10.619Z</time></trkpt><trkpt lat="43.4932317" lon="12.4747633"><ele>548.0</ele><time>2026-04-22T12:51:12.619Z</time></trkpt><trkpt lat="43.4931767" lon="12.4748533"><ele>548.0</ele><time>2026-04-22T12:51:14.619Z</time></trkpt><trkpt lat="43.4931633" lon="12.4749433"><ele>548.0</ele><time>2026-04-22T12:51:15.619Z</time></trkpt><trkpt lat="43.49316" lon="12.4750617"><ele>548.0</ele><time>2026-04-22T12:51:16.619Z</time></trkpt><trkpt lat="43.4931583" lon="12.4752117"><ele>548.0</ele><time>2026-04-22T12:51:17.619Z</time></trkpt><trkpt lat="43.4931533" lon="12.47536"><ele>547.25</ele><time>2026-04-22T12:51:18.619Z</time></trkpt><trkpt lat="43.4931533" lon="12.4755183"><ele>546.5</ele><time>2026-04-22T12:51:19.62Z</time></trkpt><trkpt lat="43.493155" lon="12.4757"><ele>545.75</ele><time>2026-04-22T12:51:20.619Z</time></trkpt><trkpt lat="43.4931483" lon="12.4758883"><ele>545.0</ele><time>2026-04-22T12:51:21.619Z</time></trkpt><trkpt lat="43.49314" lon="12.4760883"><ele>543.6666666666666</ele><time>2026-04-22T12:51:22.619Z</time></trkpt><trkpt lat="43.4931317" lon="12.4763033"><ele>542.3333333333334</ele><time>2026-04-22T12:51:23.619Z</time></trkpt><trkpt lat="43.4931267" lon="12.47653"><ele>541.0</ele><time>2026-04-22T12:51:24.619Z</time></trkpt><trkpt lat="43.4931267" lon="12.4767617"><ele>541.0</ele><time>2026-04-22T12:51:25.619Z</time></trkpt><trkpt lat="43.4931283" lon="12.4769883"><ele>541.0</ele><time>2026-04-22T12:51:26.62Z</time></trkpt><trkpt lat="43.4931267" lon="12.4772117"><ele>541.0</ele><time>2026-04-22T12:51:27.619Z</time></trkpt><trkpt lat="43.4931183" lon="12.4774567"><ele>541.0</ele><time>2026-04-22T12:51:28.619Z</time></trkpt><trkpt lat="43.4931117" lon="12.47771"><ele>541.0</ele><time>2026-04-22T12:51:29.619Z</time></trkpt><trkpt lat="43.4930983" lon="12.4779583"><ele>541.0</ele><time>2026-04-22T12:51:30.619Z</time></trkpt><trkpt lat="43.4930583" lon="12.478175"><ele>541.0</ele><time>2026-04-22T12:51:31.619Z</time></trkpt><trkpt lat="43.4930017" lon="12.4783867"><ele>541.0</ele><time>2026-04-22T12:51:32.619Z</time></trkpt><trkpt lat="43.4929433" lon="12.4786"><ele>541.0</ele><time>2026-04-22T12:51:33.62Z</time></trkpt><trkpt lat="43.492885" lon="12.4788033"><ele>538.6666666666667</ele><time>2026-04-22T12:51:34.619Z</time></trkpt><trkpt lat="43.492825" lon="12.4790117"><ele>536.3333333333334</ele><time>2026-04-22T12:51:35.62Z</time></trkpt><trkpt lat="43.49276" lon="12.4792183"><ele>534.0</ele><time>2026-04-22T12:51:36.619Z</time></trkpt><trkpt lat="43.4927017" lon="12.4794333"><ele>534.0</ele><time>2026-04-22T12:51:37.619Z</time></trkpt><trkpt lat="43.49264" lon="12.4796467"><ele>534.0</ele><time>2026-04-22T12:51:38.619Z</time></trkpt><trkpt lat="43.492575" lon="12.479865"><ele>534.0</ele><time>2026-04-22T12:51:39.62Z</time></trkpt><trkpt lat="43.49251" lon="12.4800733"><ele>534.0</ele><time>2026-04-22T12:51:40.619Z</time></trkpt><trkpt lat="43.4924483" lon="12.4802833"><ele>534.0</ele><time>2026-04-22T12:51:41.619Z</time></trkpt><trkpt lat="43.4923917" lon="12.4804867"><ele>534.0</ele><time>2026-04-22T12:51:42.619Z</time></trkpt><trkpt lat="43.4923283" lon="12.4806883"><ele>536.0</ele><time>2026-04-22T12:51:43.619Z</time></trkpt><trkpt lat="43.4922667" lon="12.4808967"><ele>538.0</ele><time>2026-04-22T12:51:44.619Z</time></trkpt><trkpt lat="43.492205" lon="12.4811017"><ele>540.0</ele><time>2026-04-22T12:51:45.619Z</time></trkpt><trkpt lat="43.4921417" lon="12.4813017"><ele>537.3333333333334</ele><time>2026-04-22T12:51:46.62Z</time></trkpt><trkpt lat="43.4920783" lon="12.4815067"><ele>534.6666666666667</ele><time>2026-04-22T12:51:47.619Z</time></trkpt><trkpt lat="43.4920233" lon="12.4817083"><ele>532.0</ele><time>2026-04-22T12:51:48.619Z</time></trkpt><trkpt lat="43.4919633" lon="12.481905"><ele>532.0</ele><time>2026-04-22T12:51:49.619Z</time></trkpt><trkpt lat="43.4919083" lon="12.4821067"><ele>532.0</ele><time>2026-04-22T12:51:50.619Z</time></trkpt><trkpt lat="43.4918517" lon="12.4823033"><ele>532.0</ele><time>2026-04-22T12:51:51.62Z</time></trkpt><trkpt lat="43.491795" lon="12.4825017"><ele>532.0</ele><time>2026-04-22T12:51:52.619Z</time></trkpt><trkpt lat="43.49174" lon="12.4827017"><ele>532.0</ele><time>2026-04-22T12:51:53.619Z</time></trkpt><trkpt lat="43.4916867" lon="12.4829067"><ele>532.0</ele><time>2026-04-22T12:51:54.62Z</time></trkpt><trkpt lat="43.49164" lon="12.483105"><ele>531.0</ele><time>2026-04-22T12:51:55.619Z</time></trkpt><trkpt lat="43.491605" lon="12.4832983"><ele>530.0</ele><time>2026-04-22T12:51:56.619Z</time></trkpt><trkpt lat="43.4915817" lon="12.4834917"><ele>529.0</ele><time>2026-04-22T12:51:57.618Z</time></trkpt><trkpt lat="43.4915633" lon="12.4836883"><ele>528.0</ele><time>2026-04-22T12:51:58.619Z</time></trkpt><trkpt lat="43.4915467" lon="12.4838917"><ele>528.0</ele><time>2026-04-22T12:51:59.619Z</time></trkpt><trkpt lat="43.491525" lon="12.4841017"><ele>528.0</ele><time>2026-04-22T12:52:00.619Z</time></trkpt><trkpt lat="43.491505" lon="12.484315"><ele>528.0</ele><time>2026-04-22T12:52:01.619Z</time></trkpt><trkpt lat="43.491485" lon="12.4845317"><ele>528.0</ele><time>2026-04-22T12:52:02.619Z</time></trkpt><trkpt lat="43.491465" lon="12.48475"><ele>528.0</ele><time>2026-04-22T12:52:03.619Z</time></trkpt><trkpt lat="43.491455" lon="12.4849767"><ele>528.0</ele><time>2026-04-22T12:52:04.619Z</time></trkpt><trkpt lat="43.4914533" lon="12.485205"><ele>527.6666666666666</ele><time>2026-04-22T12:52:05.619Z</time></trkpt><trkpt lat="43.4914617" lon="12.4854433"><ele>527.3333333333333</ele><time>2026-04-22T12:52:06.619Z</time></trkpt><trkpt lat="43.4914667" lon="12.485675"><ele>527.0</ele><time>2026-04-22T12:52:07.619Z</time></trkpt><trkpt lat="43.4914733" lon="12.4859133"><ele>527.0</ele><time>2026-04-22T12:52:08.619Z</time></trkpt><trkpt lat="43.4914783" lon="12.4861517"><ele>527.0</ele><time>2026-04-22T12:52:09.619Z</time></trkpt><trkpt lat="43.4914883" lon="12.4863933"><ele>527.0</ele><time>2026-04-22T12:52:10.619Z</time></trkpt><trkpt lat="43.4915033" lon="12.4866383"><ele>526.6666666666666</ele><time>2026-04-22T12:52:11.619Z</time></trkpt><trkpt lat="43.49152" lon="12.48688"><ele>526.3333333333334</ele><time>2026-04-22T12:52:12.619Z</time></trkpt><trkpt lat="43.49153" lon="12.4871233"><ele>526.0</ele><time>2026-04-22T12:52:13.62Z</time></trkpt><trkpt lat="43.491525" lon="12.4873617"><ele>526.0</ele><time>2026-04-22T12:52:14.619Z</time></trkpt><trkpt lat="43.4915383" lon="12.4875967"><ele>526.0</ele><time>2026-04-22T12:52:15.619Z</time></trkpt><trkpt lat="43.4915417" lon="12.4878283"><ele>526.0</ele><time>2026-04-22T12:52:16.619Z</time></trkpt><trkpt lat="43.4915417" lon="12.4880683"><ele>525.0</ele><time>2026-04-22T12:52:17.62Z</time></trkpt><trkpt lat="43.4915467" lon="12.4883017"><ele>524.0</ele><time>2026-04-22T12:52:18.619Z</time></trkpt><trkpt lat="43.4915483" lon="12.4885333"><ele>523.0</ele><time>2026-04-22T12:52:19.619Z</time></trkpt><trkpt lat="43.49155" lon="12.48877"><ele>523.0</ele><time>2026-04-22T12:52:20.619Z</time></trkpt><trkpt lat="43.4915517" lon="12.489005"><ele>523.0</ele><time>2026-04-22T12:52:21.619Z</time></trkpt><trkpt lat="43.4915617" lon="12.4892333"><ele>523.0</ele><time>2026-04-22T12:52:22.619Z</time></trkpt><trkpt lat="43.491585" lon="12.4894483"><ele>520.3333333333334</ele><time>2026-04-22T12:52:23.619Z</time></trkpt><trkpt lat="43.4916283" lon="12.4896517"><ele>517.6666666666666</ele><time>2026-04-22T12:52:24.619Z</time></trkpt><trkpt lat="43.4916967" lon="12.489865"><ele>515.0</ele><time>2026-04-22T12:52:25.619Z</time></trkpt><trkpt lat="43.4917717" lon="12.490075"><ele>515.0</ele><time>2026-04-22T12:52:26.619Z</time></trkpt><trkpt lat="43.491855" lon="12.4902767"><ele>515.0</ele><time>2026-04-22T12:52:27.619Z</time></trkpt><trkpt lat="43.49194" lon="12.4904767"><ele>515.0</ele><time>2026-04-22T12:52:28.619Z</time></trkpt><trkpt lat="43.4920217" lon="12.490675"><ele>516.6666666666666</ele><time>2026-04-22T12:52:29.619Z</time></trkpt><trkpt lat="43.4921133" lon="12.49087"><ele>518.3333333333334</ele><time>2026-04-22T12:52:30.619Z</time></trkpt><trkpt lat="43.4922167" lon="12.4910517"><ele>520.0</ele><time>2026-04-22T12:52:31.619Z</time></trkpt><trkpt lat="43.4923183" lon="12.4912433"><ele>517.0</ele><time>2026-04-22T12:52:32.619Z</time></trkpt><trkpt lat="43.4924283" lon="12.4914217"><ele>514.0</ele><time>2026-04-22T12:52:33.619Z</time></trkpt><trkpt lat="43.4925483" lon="12.4916033"><ele>511.0</ele><time>2026-04-22T12:52:34.619Z</time></trkpt><trkpt lat="43.4926817" lon="12.4917817"><ele>511.0</ele><time>2026-04-22T12:52:35.619Z</time></trkpt><trkpt lat="43.4928133" lon="12.4919733"><ele>511.0</ele><time>2026-04-22T12:52:36.619Z</time></trkpt><trkpt lat="43.492955" lon="12.4921783"><ele>511.0</ele><time>2026-04-22T12:52:37.619Z</time></trkpt><trkpt lat="43.4931" lon="12.4923867"><ele>514.0</ele><time>2026-04-22T12:52:38.619Z</time></trkpt><trkpt lat="43.493255" lon="12.4926"><ele>517.0</ele><time>2026-04-22T12:52:39.619Z</time></trkpt><trkpt lat="43.4934083" lon="12.4928233"><ele>520.0</ele><time>2026-04-22T12:52:40.619Z</time></trkpt><trkpt lat="43.4935617" lon="12.4930417"><ele>521.3333333333334</ele><time>2026-04-22T12:52:41.619Z</time></trkpt><trkpt lat="43.4937083" lon="12.4932633"><ele>522.6666666666666</ele><time>2026-04-22T12:52:42.619Z</time></trkpt><trkpt lat="43.4938533" lon="12.493485"><ele>524.0</ele><time>2026-04-22T12:52:43.619Z</time></trkpt><trkpt lat="43.494" lon="12.493695"><ele>517.0</ele><time>2026-04-22T12:52:44.619Z</time></trkpt><trkpt lat="43.4941383" lon="12.4939033"><ele>510.0</ele><time>2026-04-22T12:52:45.619Z</time></trkpt><trkpt lat="43.4942567" lon="12.4941233"><ele>503.0</ele><time>2026-04-22T12:52:46.619Z</time></trkpt><trkpt lat="43.4943667" lon="12.4943533"><ele>500.66666666666663</ele><time>2026-04-22T12:52:47.62Z</time></trkpt><trkpt lat="43.494465" lon="12.4946"><ele>498.33333333333337</ele><time>2026-04-22T12:52:48.619Z</time></trkpt><trkpt lat="43.49454" lon="12.4948667"><ele>496.0</ele><time>2026-04-22T12:52:49.619Z</time></trkpt><trkpt lat="43.494615" lon="12.4951533"><ele>498.5</ele><time>2026-04-22T12:52:50.619Z</time></trkpt><trkpt lat="43.49471" lon="12.4954417"><ele>501.0</ele><time>2026-04-22T12:52:51.619Z</time></trkpt><trkpt lat="43.4948017" lon="12.4957217"><ele>501.0</ele><time>2026-04-22T12:52:52.619Z</time></trkpt><trkpt lat="43.4948933" lon="12.496005"><ele>501.0</ele><time>2026-04-22T12:52:53.619Z</time></trkpt><trkpt lat="43.4949817" lon="12.4962867"><ele>501.0</ele><time>2026-04-22T12:52:54.62Z</time></trkpt><trkpt lat="43.4950683" lon="12.496555"><ele>498.0</ele><time>2026-04-22T12:52:55.619Z</time></trkpt><trkpt lat="43.4951583" lon="12.4968483"><ele>495.0</ele><time>2026-04-22T12:52:56.619Z</time></trkpt><trkpt lat="43.49525" lon="12.4971433"><ele>495.5</ele><time>2026-04-22T12:52:57.619Z</time></trkpt><trkpt lat="43.4953383" lon="12.497435"><ele>496.0</ele><time>2026-04-22T12:52:58.619Z</time></trkpt><trkpt lat="43.49543" lon="12.4977167"><ele>492.5</ele><time>2026-04-22T12:52:59.619Z</time></trkpt><trkpt lat="43.4955083" lon="12.498"><ele>489.0</ele><time>2026-04-22T12:53:00.619Z</time></trkpt><trkpt lat="43.4955983" lon="12.4982917"><ele>489.0</ele><time>2026-04-22T12:53:01.619Z</time></trkpt><trkpt lat="43.4956767" lon="12.4985833"><ele>489.0</ele><time>2026-04-22T12:53:02.619Z</time></trkpt><trkpt lat="43.49575" lon="12.498885"><ele>487.66666666666663</ele><time>2026-04-22T12:53:03.619Z</time></trkpt><trkpt lat="43.4958" lon="12.49919"><ele>486.3333333333333</ele><time>2026-04-22T12:53:04.619Z</time></trkpt><trkpt lat="43.4958283" lon="12.4994917"><ele>485.0</ele><time>2026-04-22T12:53:05.619Z</time></trkpt><trkpt lat="43.495865" lon="12.499805"><ele>484.5</ele><time>2026-04-22T12:53:06.619Z</time></trkpt><trkpt lat="43.495895" lon="12.5001167"><ele>484.0</ele><time>2026-04-22T12:53:07.619Z</time></trkpt><trkpt lat="43.4959267" lon="12.5004233"><ele>486.0</ele><time>2026-04-22T12:53:08.619Z</time></trkpt><trkpt lat="43.4959567" lon="12.5007283"><ele>488.0</ele><time>2026-04-22T12:53:09.619Z</time></trkpt><trkpt lat="43.4959883" lon="12.501045"><ele>488.0</ele><time>2026-04-22T12:53:10.619Z</time></trkpt><trkpt lat="43.4960267" lon="12.5013533"><ele>488.0</ele><time>2026-04-22T12:53:11.62Z</time></trkpt><trkpt lat="43.4960583" lon="12.5016633"><ele>488.0</ele><time>2026-04-22T12:53:12.619Z</time></trkpt><trkpt lat="43.4960967" lon="12.5019733"><ele>488.0</ele><time>2026-04-22T12:53:13.619Z</time></trkpt><trkpt lat="43.4961333" lon="12.50229"><ele>486.5</ele><time>2026-04-22T12:53:14.619Z</time></trkpt><trkpt lat="43.4961633" lon="12.5026"><ele>485.0</ele><time>2026-04-22T12:53:15.619Z</time></trkpt><trkpt lat="43.4961983" lon="12.5029083"><ele>484.5</ele><time>2026-04-22T12:53:16.619Z</time></trkpt><trkpt lat="43.4962283" lon="12.50322"><ele>484.0</ele><time>2026-04-22T12:53:17.619Z</time></trkpt><trkpt lat="43.496265" lon="12.5035433"><ele>481.0</ele><time>2026-04-22T12:53:18.619Z</time></trkpt><trkpt lat="43.4963" lon="12.503875"><ele>478.0</ele><time>2026-04-22T12:53:19.619Z</time></trkpt><trkpt lat="43.4963267" lon="12.504225"><ele>478.0</ele><time>2026-04-22T12:53:20.619Z</time></trkpt><trkpt lat="43.4963567" lon="12.5045867"><ele>478.0</ele><time>2026-04-22T12:53:21.619Z</time></trkpt><trkpt lat="43.496395" lon="12.5049233"><ele>478.0</ele><time>2026-04-22T12:53:22.62Z</time></trkpt><trkpt lat="43.4964317" lon="12.505235"><ele>478.0</ele><time>2026-04-22T12:53:23.619Z</time></trkpt><trkpt lat="43.4964933" lon="12.505525"><ele>478.0</ele><time>2026-04-22T12:53:24.619Z</time></trkpt><trkpt lat="43.4965517" lon="12.5058083"><ele>477.6666666666667</ele><time>2026-04-22T12:53:25.619Z</time></trkpt><trkpt lat="43.496645" lon="12.5060833"><ele>477.33333333333337</ele><time>2026-04-22T12:53:26.619Z</time></trkpt><trkpt lat="43.4967517" lon="12.5063533"><ele>477.0</ele><time>2026-04-22T12:53:27.62Z</time></trkpt><trkpt lat="43.496865" lon="12.506635"><ele>475.0</ele><time>2026-04-22T12:53:28.619Z</time></trkpt><trkpt lat="43.4969833" lon="12.5069233"><ele>473.0</ele><time>2026-04-22T12:53:29.619Z</time></trkpt><trkpt lat="43.497095" lon="12.507235"><ele>482.0</ele><time>2026-04-22T12:53:30.619Z</time></trkpt><trkpt lat="43.497225" lon="12.507555"><ele>491.0</ele><time>2026-04-22T12:53:31.619Z</time></trkpt><trkpt lat="43.4973433" lon="12.507875"><ele>484.5</ele><time>2026-04-22T12:53:32.619Z</time></trkpt><trkpt lat="43.49745" lon="12.5081717"><ele>478.0</ele><time>2026-04-22T12:53:33.619Z</time></trkpt><trkpt lat="43.49756" lon="12.5084417"><ele>478.0</ele><time>2026-04-22T12:53:34.619Z</time></trkpt><trkpt lat="43.4976517" lon="12.5087067"><ele>478.0</ele><time>2026-04-22T12:53:35.619Z</time></trkpt><trkpt lat="43.4977267" lon="12.5089633"><ele>478.0</ele><time>2026-04-22T12:53:36.619Z</time></trkpt><trkpt lat="43.4977983" lon="12.5092283"><ele>476.0</ele><time>2026-04-22T12:53:37.619Z</time></trkpt><trkpt lat="43.49784" lon="12.50949"><ele>474.0</ele><time>2026-04-22T12:53:38.619Z</time></trkpt><trkpt lat="43.4978567" lon="12.5097483"><ele>472.0</ele><time>2026-04-22T12:53:39.619Z</time></trkpt><trkpt lat="43.4978717" lon="12.5100067"><ele>471.33333333333337</ele><time>2026-04-22T12:53:40.619Z</time></trkpt><trkpt lat="43.4978867" lon="12.5102667"><ele>470.66666666666663</ele><time>2026-04-22T12:53:41.619Z</time></trkpt><trkpt lat="43.49789" lon="12.5105367"><ele>470.0</ele><time>2026-04-22T12:53:42.62Z</time></trkpt><trkpt lat="43.4978933" lon="12.5108167"><ele>470.0</ele><time>2026-04-22T12:53:43.619Z</time></trkpt><trkpt lat="43.49791" lon="12.5110833"><ele>470.0</ele><time>2026-04-22T12:53:44.619Z</time></trkpt><trkpt lat="43.4979133" lon="12.5113633"><ele>470.0</ele><time>2026-04-22T12:53:45.619Z</time></trkpt><trkpt lat="43.4979283" lon="12.511645"><ele>473.66666666666663</ele><time>2026-04-22T12:53:46.62Z</time></trkpt><trkpt lat="43.49794" lon="12.511925"><ele>477.33333333333337</ele><time>2026-04-22T12:53:47.62Z</time></trkpt><trkpt lat="43.4979433" lon="12.5121933"><ele>481.0</ele><time>2026-04-22T12:53:48.619Z</time></trkpt><trkpt lat="43.4979483" lon="12.5124533"><ele>481.0</ele><time>2026-04-22T12:53:49.62Z</time></trkpt><trkpt lat="43.49796" lon="12.512705"><ele>481.0</ele><time>2026-04-22T12:53:50.619Z</time></trkpt><trkpt lat="43.4979667" lon="12.5129383"><ele>481.0</ele><time>2026-04-22T12:53:51.619Z</time></trkpt><trkpt lat="43.4979733" lon="12.5131683"><ele>480.0</ele><time>2026-04-22T12:53:52.619Z</time></trkpt><trkpt lat="43.497975" lon="12.5133983"><ele>479.0</ele><time>2026-04-22T12:53:53.62Z</time></trkpt><trkpt lat="43.4979833" lon="12.51363"><ele>478.0</ele><time>2026-04-22T12:53:54.62Z</time></trkpt><trkpt lat="43.4979933" lon="12.5138617"><ele>477.5</ele><time>2026-04-22T12:53:55.619Z</time></trkpt><trkpt lat="43.4980117" lon="12.5140733"><ele>477.0</ele><time>2026-04-22T12:53:56.619Z</time></trkpt><trkpt lat="43.4980467" lon="12.5142717"><ele>476.5</ele><time>2026-04-22T12:53:57.62Z</time></trkpt><trkpt lat="43.4981" lon="12.5144483"><ele>476.0</ele><time>2026-04-22T12:53:58.619Z</time></trkpt><trkpt lat="43.49818" lon="12.5146183"><ele>475.25</ele><time>2026-04-22T12:53:59.619Z</time></trkpt><trkpt lat="43.4982633" lon="12.514785"><ele>474.5</ele><time>2026-04-22T12:54:00.619Z</time></trkpt><trkpt lat="43.4983583" lon="12.51495"><ele>473.75</ele><time>2026-04-22T12:54:01.62Z</time></trkpt><trkpt lat="43.4984583" lon="12.5150983"><ele>473.0</ele><time>2026-04-22T12:54:02.619Z</time></trkpt><trkpt lat="43.4985617" lon="12.5152317"><ele>473.0</ele><time>2026-04-22T12:54:03.619Z</time></trkpt><trkpt lat="43.498675" lon="12.51536"><ele>473.0</ele><time>2026-04-22T12:54:04.619Z</time></trkpt><trkpt lat="43.4988133" lon="12.5154683"><ele>473.0</ele><time>2026-04-22T12:54:05.619Z</time></trkpt><trkpt lat="43.49895" lon="12.51558"><ele>472.66666666666663</ele><time>2026-04-22T12:54:06.619Z</time></trkpt><trkpt lat="43.4990817" lon="12.51569"><ele>472.33333333333337</ele><time>2026-04-22T12:54:07.619Z</time></trkpt><trkpt lat="43.499215" lon="12.51579"><ele>472.0</ele><time>2026-04-22T12:54:08.619Z</time></trkpt><trkpt lat="43.499345" lon="12.515885"><ele>472.0</ele><time>2026-04-22T12:54:09.619Z</time></trkpt><trkpt lat="43.49948" lon="12.5159833"><ele>472.0</ele><time>2026-04-22T12:54:10.619Z</time></trkpt><trkpt lat="43.4996083" lon="12.5160767"><ele>472.0</ele><time>2026-04-22T12:54:11.619Z</time></trkpt><trkpt lat="43.4997167" lon="12.5161683"><ele>472.0</ele><time>2026-04-22T12:54:12.619Z</time></trkpt><trkpt lat="43.4998183" lon="12.5162917"><ele>473.5</ele><time>2026-04-22T12:54:13.619Z</time></trkpt><trkpt lat="43.49988" lon="12.5164433"><ele>475.0</ele><time>2026-04-22T12:54:14.619Z</time></trkpt><trkpt lat="43.4999133" lon="12.5166117"><ele>476.5</ele><time>2026-04-22T12:54:15.619Z</time></trkpt><trkpt lat="43.4999267" lon="12.5168017"><ele>478.0</ele><time>2026-04-22T12:54:16.62Z</time></trkpt><trkpt lat="43.4999133" lon="12.5170183"><ele>476.6666666666667</ele><time>2026-04-22T12:54:17.619Z</time></trkpt><trkpt lat="43.499905" lon="12.5172417"><ele>475.33333333333337</ele><time>2026-04-22T12:54:18.62Z</time></trkpt><trkpt lat="43.4999" lon="12.517455"><ele>474.0</ele><time>2026-04-22T12:54:19.619Z</time></trkpt><trkpt lat="43.4999067" lon="12.5176667"><ele>474.0</ele><time>2026-04-22T12:54:20.619Z</time></trkpt><trkpt lat="43.4999317" lon="12.51789"><ele>474.0</ele><time>2026-04-22T12:54:21.619Z</time></trkpt><trkpt lat="43.4999733" lon="12.518095"><ele>474.0</ele><time>2026-04-22T12:54:22.619Z</time></trkpt><trkpt lat="43.5000283" lon="12.5182883"><ele>471.66666666666663</ele><time>2026-04-22T12:54:23.619Z</time></trkpt><trkpt lat="43.5000983" lon="12.5184617"><ele>469.3333333333333</ele><time>2026-04-22T12:54:24.618Z</time></trkpt><trkpt lat="43.500185" lon="12.5186433"><ele>467.0</ele><time>2026-04-22T12:54:25.618Z</time></trkpt><trkpt lat="43.5002683" lon="12.5188283"><ele>467.0</ele><time>2026-04-22T12:54:26.618Z</time></trkpt><trkpt lat="43.50036" lon="12.5190117"><ele>467.0</ele><time>2026-04-22T12:54:27.618Z</time></trkpt><trkpt lat="43.5004433" lon="12.5192"><ele>467.0</ele><time>2026-04-22T12:54:28.618Z</time></trkpt><trkpt lat="43.500525" lon="12.5193867"><ele>464.0</ele><time>2026-04-22T12:54:29.618Z</time></trkpt><trkpt lat="43.50061" lon="12.5195717"><ele>461.0</ele><time>2026-04-22T12:54:30.618Z</time></trkpt><trkpt lat="43.5006967" lon="12.519765"><ele>458.0</ele><time>2026-04-22T12:54:31.618Z</time></trkpt><trkpt lat="43.5007833" lon="12.5199583"><ele>458.0</ele><time>2026-04-22T12:54:32.618Z</time></trkpt><trkpt lat="43.500865" lon="12.520145"><ele>458.0</ele><time>2026-04-22T12:54:33.618Z</time></trkpt><trkpt lat="43.5009517" lon="12.52034"><ele>458.0</ele><time>2026-04-22T12:54:34.619Z</time></trkpt><trkpt lat="43.5010333" lon="12.520535"><ele>459.3333333333333</ele><time>2026-04-22T12:54:35.618Z</time></trkpt><trkpt lat="43.50111" lon="12.5207317"><ele>460.66666666666663</ele><time>2026-04-22T12:54:36.619Z</time></trkpt><trkpt lat="43.5011817" lon="12.5209333"><ele>462.0</ele><time>2026-04-22T12:54:37.618Z</time></trkpt><trkpt lat="43.50125" lon="12.52114"><ele>461.66666666666663</ele><time>2026-04-22T12:54:38.618Z</time></trkpt><trkpt lat="43.50131" lon="12.52136"><ele>461.3333333333333</ele><time>2026-04-22T12:54:39.618Z</time></trkpt><trkpt lat="43.5013667" lon="12.5215883"><ele>461.0</ele><time>2026-04-22T12:54:40.618Z</time></trkpt><trkpt lat="43.5014083" lon="12.521835"><ele>459.66666666666663</ele><time>2026-04-22T12:54:41.618Z</time></trkpt><trkpt lat="43.5014383" lon="12.522085"><ele>458.33333333333337</ele><time>2026-04-22T12:54:42.619Z</time></trkpt><trkpt lat="43.501475" lon="12.5223367"><ele>457.0</ele><time>2026-04-22T12:54:43.618Z</time></trkpt><trkpt lat="43.5015033" lon="12.5226033"><ele>457.0</ele><time>2026-04-22T12:54:44.618Z</time></trkpt><trkpt lat="43.50153" lon="12.5228617"><ele>457.0</ele><time>2026-04-22T12:54:45.618Z</time></trkpt><trkpt lat="43.5015517" lon="12.5231083"><ele>457.0</ele><time>2026-04-22T12:54:46.618Z</time></trkpt><trkpt lat="43.501585" lon="12.5233567"><ele>457.33333333333337</ele><time>2026-04-22T12:54:47.618Z</time></trkpt><trkpt lat="43.5016167" lon="12.523605"><ele>457.66666666666663</ele><time>2026-04-22T12:54:48.618Z</time></trkpt><trkpt lat="43.5016533" lon="12.52387"><ele>458.0</ele><time>2026-04-22T12:54:49.618Z</time></trkpt><trkpt lat="43.5016917" lon="12.524135"><ele>459.0</ele><time>2026-04-22T12:54:50.618Z</time></trkpt><trkpt lat="43.5017383" lon="12.5243967"><ele>460.0</ele><time>2026-04-22T12:54:51.618Z</time></trkpt><trkpt lat="43.50178" lon="12.5246733"><ele>461.0</ele><time>2026-04-22T12:54:52.618Z</time></trkpt><trkpt lat="43.5018217" lon="12.5249417"><ele>465.3333333333333</ele><time>2026-04-22T12:54:53.618Z</time></trkpt><trkpt lat="43.5018683" lon="12.5251883"><ele>469.66666666666663</ele><time>2026-04-22T12:54:54.618Z</time></trkpt><trkpt lat="43.50192" lon="12.5254317"><ele>474.0</ele><time>2026-04-22T12:54:55.618Z</time></trkpt><trkpt lat="43.501975" lon="12.5256683"><ele>474.0</ele><time>2026-04-22T12:54:56.618Z</time></trkpt><trkpt lat="43.502025" lon="12.5258967"><ele>474.0</ele><time>2026-04-22T12:54:57.619Z</time></trkpt><trkpt lat="43.50204" lon="12.5261433"><ele>474.0</ele><time>2026-04-22T12:54:58.618Z</time></trkpt><trkpt lat="43.502045" lon="12.5264017"><ele>474.0</ele><time>2026-04-22T12:54:59.618Z</time></trkpt><trkpt lat="43.5020467" lon="12.5266683"><ele>474.0</ele><time>2026-04-22T12:55:00.618Z</time></trkpt><trkpt lat="43.502045" lon="12.52693"><ele>474.0</ele><time>2026-04-22T12:55:01.618Z</time></trkpt><trkpt lat="43.5020317" lon="12.5272"><ele>473.66666666666663</ele><time>2026-04-22T12:55:02.618Z</time></trkpt><trkpt lat="43.5020233" lon="12.527475"><ele>473.3333333333333</ele><time>2026-04-22T12:55:03.618Z</time></trkpt><trkpt lat="43.5020167" lon="12.5277567"><ele>473.0</ele><time>2026-04-22T12:55:04.618Z</time></trkpt><trkpt lat="43.5020217" lon="12.5280383"><ele>471.66666666666663</ele><time>2026-04-22T12:55:05.618Z</time></trkpt><trkpt lat="43.5020267" lon="12.528305"><ele>470.33333333333337</ele><time>2026-04-22T12:55:06.618Z</time></trkpt><trkpt lat="43.5020383" lon="12.5285517"><ele>469.0</ele><time>2026-04-22T12:55:07.618Z</time></trkpt><trkpt lat="43.502055" lon="12.5287767"><ele>462.0</ele><time>2026-04-22T12:55:08.618Z</time></trkpt><trkpt lat="43.50209" lon="12.52899"><ele>455.0</ele><time>2026-04-22T12:55:09.618Z</time></trkpt><trkpt lat="43.502155" lon="12.5291883"><ele>448.0</ele><time>2026-04-22T12:55:10.618Z</time></trkpt><trkpt lat="43.502265" lon="12.5293717"><ele>448.0</ele><time>2026-04-22T12:55:11.618Z</time></trkpt><trkpt lat="43.5023983" lon="12.5295283"><ele>448.0</ele><time>2026-04-22T12:55:12.618Z</time></trkpt><trkpt lat="43.5025117" lon="12.52969"><ele>448.0</ele><time>2026-04-22T12:55:13.618Z</time></trkpt><trkpt lat="43.5026167" lon="12.5298267"><ele>449.75</ele><time>2026-04-22T12:55:14.618Z</time></trkpt><trkpt lat="43.5027217" lon="12.5299767"><ele>451.5</ele><time>2026-04-22T12:55:15.618Z</time></trkpt><trkpt lat="43.5028217" lon="12.5301233"><ele>453.25</ele><time>2026-04-22T12:55:16.618Z</time></trkpt><trkpt lat="43.5029133" lon="12.53026"><ele>455.0</ele><time>2026-04-22T12:55:17.618Z</time></trkpt><trkpt lat="43.5030033" lon="12.530395"><ele>451.25</ele><time>2026-04-22T12:55:18.618Z</time></trkpt><trkpt lat="43.5030817" lon="12.5305517"><ele>447.5</ele><time>2026-04-22T12:55:19.618Z</time></trkpt><trkpt lat="43.50314" lon="12.5307183"><ele>443.75</ele><time>2026-04-22T12:55:20.618Z</time></trkpt><trkpt lat="43.50318" lon="12.53091"><ele>440.0</ele><time>2026-04-22T12:55:21.618Z</time></trkpt><trkpt lat="43.5032067" lon="12.5311133"><ele>439.66666666666663</ele><time>2026-04-22T12:55:22.618Z</time></trkpt><trkpt lat="43.503215" lon="12.531325"><ele>439.33333333333337</ele><time>2026-04-22T12:55:23.618Z</time></trkpt><trkpt lat="43.5032317" lon="12.5315617"><ele>439.0</ele><time>2026-04-22T12:55:24.618Z</time></trkpt><trkpt lat="43.5032417" lon="12.53181"><ele>439.0</ele><time>2026-04-22T12:55:25.619Z</time></trkpt><trkpt lat="43.5032533" lon="12.5320467"><ele>439.0</ele><time>2026-04-22T12:55:26.618Z</time></trkpt><trkpt lat="43.503265" lon="12.5322717"><ele>439.0</ele><time>2026-04-22T12:55:27.618Z</time></trkpt><trkpt lat="43.5033033" lon="12.5324883"><ele>440.0</ele><time>2026-04-22T12:55:28.618Z</time></trkpt><trkpt lat="43.5033617" lon="12.532695"><ele>441.0</ele><time>2026-04-22T12:55:29.618Z</time></trkpt><trkpt lat="43.5034467" lon="12.532895"><ele>442.0</ele><time>2026-04-22T12:55:30.619Z</time></trkpt><trkpt lat="43.5035533" lon="12.5330883"><ele>444.33333333333337</ele><time>2026-04-22T12:55:31.618Z</time></trkpt><trkpt lat="43.5036667" lon="12.5332867"><ele>446.66666666666663</ele><time>2026-04-22T12:55:32.618Z</time></trkpt><trkpt lat="43.503785" lon="12.5334833"><ele>449.0</ele><time>2026-04-22T12:55:33.618Z</time></trkpt><trkpt lat="43.503885" lon="12.5336833"><ele>442.66666666666663</ele><time>2026-04-22T12:55:34.618Z</time></trkpt><trkpt lat="43.5039983" lon="12.5338883"><ele>436.33333333333337</ele><time>2026-04-22T12:55:35.618Z</time></trkpt><trkpt lat="43.5041183" lon="12.534095"><ele>430.0</ele><time>2026-04-22T12:55:36.618Z</time></trkpt><trkpt lat="43.5042567" lon="12.5343067"><ele>430.0</ele><time>2026-04-22T12:55:37.618Z</time></trkpt><trkpt lat="43.5044083" lon="12.53451"><ele>430.0</ele><time>2026-04-22T12:55:38.619Z</time></trkpt><trkpt lat="43.504565" lon="12.5347033"><ele>430.0</ele><time>2026-04-22T12:55:39.618Z</time></trkpt><trkpt lat="43.5047233" lon="12.5348933"><ele>429.33333333333337</ele><time>2026-04-22T12:55:40.618Z</time></trkpt><trkpt lat="43.5048817" lon="12.53508"><ele>428.66666666666663</ele><time>2026-04-22T12:55:41.618Z</time></trkpt><trkpt lat="43.50502" lon="12.5352467"><ele>428.0</ele><time>2026-04-22T12:55:42.618Z</time></trkpt><trkpt lat="43.5051533" lon="12.5354067"><ele>426.66666666666663</ele><time>2026-04-22T12:55:43.619Z</time></trkpt><trkpt lat="43.5052783" lon="12.5355633"><ele>425.33333333333337</ele><time>2026-04-22T12:55:44.619Z</time></trkpt><trkpt lat="43.5053967" lon="12.5357267"><ele>424.0</ele><time>2026-04-22T12:55:45.618Z</time></trkpt><trkpt lat="43.5054983" lon="12.5359183"><ele>424.0</ele><time>2026-04-22T12:55:46.618Z</time></trkpt><trkpt lat="43.5055733" lon="12.5361383"><ele>424.0</ele><time>2026-04-22T12:55:47.618Z</time></trkpt><trkpt lat="43.5056233" lon="12.5363933"><ele>424.0</ele><time>2026-04-22T12:55:48.618Z</time></trkpt><trkpt lat="43.5056717" lon="12.5366483"><ele>424.33333333333337</ele><time>2026-04-22T12:55:49.619Z</time></trkpt><trkpt lat="43.5057167" lon="12.536905"><ele>424.66666666666663</ele><time>2026-04-22T12:55:50.618Z</time></trkpt><trkpt lat="43.5057517" lon="12.5371617"><ele>425.0</ele><time>2026-04-22T12:55:51.619Z</time></trkpt><trkpt lat="43.5057933" lon="12.537415"><ele>425.0</ele><time>2026-04-22T12:55:52.618Z</time></trkpt><trkpt lat="43.5058383" lon="12.5376633"><ele>425.0</ele><time>2026-04-22T12:55:53.618Z</time></trkpt><trkpt lat="43.5058817" lon="12.5378983"><ele>425.0</ele><time>2026-04-22T12:55:54.618Z</time></trkpt><trkpt lat="43.5059217" lon="12.5381283"><ele>426.0</ele><time>2026-04-22T12:55:55.618Z</time></trkpt><trkpt lat="43.505965" lon="12.5383583"><ele>427.0</ele><time>2026-04-22T12:55:56.618Z</time></trkpt><trkpt lat="43.50601" lon="12.53859"><ele>428.0</ele><time>2026-04-22T12:55:57.618Z</time></trkpt><trkpt lat="43.5060467" lon="12.5388317"><ele>429.3333333333333</ele><time>2026-04-22T12:55:58.618Z</time></trkpt><trkpt lat="43.50609" lon="12.5390633"><ele>430.66666666666663</ele><time>2026-04-22T12:55:59.618Z</time></trkpt><trkpt lat="43.5061533" lon="12.5392883"><ele>432.0</ele><time>2026-04-22T12:56:00.618Z</time></trkpt><trkpt lat="43.50624" lon="12.539495"><ele>427.66666666666663</ele><time>2026-04-22T12:56:01.618Z</time></trkpt><trkpt lat="43.5063533" lon="12.53969"><ele>423.3333333333333</ele><time>2026-04-22T12:56:02.618Z</time></trkpt><trkpt lat="43.5064767" lon="12.5398717"><ele>419.0</ele><time>2026-04-22T12:56:03.619Z</time></trkpt><trkpt lat="43.50661" lon="12.5400567"><ele>419.0</ele><time>2026-04-22T12:56:04.619Z</time></trkpt><trkpt lat="43.5067483" lon="12.5402467"><ele>419.0</ele><time>2026-04-22T12:56:05.619Z</time></trkpt><trkpt lat="43.50689" lon="12.540435"><ele>419.0</ele><time>2026-04-22T12:56:06.618Z</time></trkpt><trkpt lat="43.5070317" lon="12.54063"><ele>418.0</ele><time>2026-04-22T12:56:07.618Z</time></trkpt><trkpt lat="43.5071617" lon="12.5408167"><ele>417.0</ele><time>2026-04-22T12:56:08.618Z</time></trkpt><trkpt lat="43.5072783" lon="12.5410017"><ele>416.0</ele><time>2026-04-22T12:56:09.618Z</time></trkpt><trkpt lat="43.507395" lon="12.541175"><ele>417.66666666666663</ele><time>2026-04-22T12:56:10.618Z</time></trkpt><trkpt lat="43.5075083" lon="12.54136"><ele>419.33333333333337</ele><time>2026-04-22T12:56:11.618Z</time></trkpt><trkpt lat="43.5076167" lon="12.5415517"><ele>421.0</ele><time>2026-04-22T12:56:12.618Z</time></trkpt><trkpt lat="43.5077233" lon="12.541745"><ele>421.0</ele><time>2026-04-22T12:56:13.618Z</time></trkpt><trkpt lat="43.5078333" lon="12.5419433"><ele>421.0</ele><time>2026-04-22T12:56:14.618Z</time></trkpt><trkpt lat="43.50794" lon="12.5421433"><ele>421.0</ele><time>2026-04-22T12:56:15.618Z</time></trkpt><trkpt lat="43.5080483" lon="12.5423467"><ele>419.33333333333337</ele><time>2026-04-22T12:56:16.618Z</time></trkpt><trkpt lat="43.508155" lon="12.5425483"><ele>417.66666666666663</ele><time>2026-04-22T12:56:17.618Z</time></trkpt><trkpt lat="43.5082583" lon="12.542755"><ele>416.0</ele><time>2026-04-22T12:56:18.618Z</time></trkpt><trkpt lat="43.5083667" lon="12.5429617"><ele>416.0</ele><time>2026-04-22T12:56:19.618Z</time></trkpt><trkpt lat="43.5084717" lon="12.54317"><ele>416.0</ele><time>2026-04-22T12:56:20.618Z</time></trkpt><trkpt lat="43.5085883" lon="12.5433783"><ele>416.0</ele><time>2026-04-22T12:56:21.618Z</time></trkpt><trkpt lat="43.5086967" lon="12.5435833"><ele>413.66666666666663</ele><time>2026-04-22T12:56:22.619Z</time></trkpt><trkpt lat="43.5088067" lon="12.5437883"><ele>411.33333333333337</ele><time>2026-04-22T12:56:23.618Z</time></trkpt><trkpt lat="43.5089117" lon="12.543995"><ele>409.0</ele><time>2026-04-22T12:56:24.618Z</time></trkpt><trkpt lat="43.50902" lon="12.5442017"><ele>409.0</ele><time>2026-04-22T12:56:25.618Z</time></trkpt><trkpt lat="43.5091317" lon="12.5444183"><ele>409.0</ele><time>2026-04-22T12:56:26.618Z</time></trkpt><trkpt lat="43.50923" lon="12.5446283"><ele>409.0</ele><time>2026-04-22T12:56:27.618Z</time></trkpt><trkpt lat="43.5093283" lon="12.544845"><ele>414.0</ele><time>2026-04-22T12:56:28.619Z</time></trkpt><trkpt lat="43.50941" lon="12.5450583"><ele>419.0</ele><time>2026-04-22T12:56:29.618Z</time></trkpt><trkpt lat="43.5094767" lon="12.54527"><ele>424.0</ele><time>2026-04-22T12:56:30.619Z</time></trkpt><trkpt lat="43.5095267" lon="12.5455017"><ele>426.0</ele><time>2026-04-22T12:56:31.618Z</time></trkpt><trkpt lat="43.5095717" lon="12.5457417"><ele>428.0</ele><time>2026-04-22T12:56:32.618Z</time></trkpt><trkpt lat="43.5096217" lon="12.545985"><ele>430.0</ele><time>2026-04-22T12:56:33.618Z</time></trkpt><trkpt lat="43.5096767" lon="12.5462283"><ele>421.33333333333337</ele><time>2026-04-22T12:56:34.618Z</time></trkpt><trkpt lat="43.5097383" lon="12.5464783"><ele>412.66666666666663</ele><time>2026-04-22T12:56:35.618Z</time></trkpt><trkpt lat="43.5098" lon="12.546735"><ele>404.0</ele><time>2026-04-22T12:56:36.618Z</time></trkpt><trkpt lat="43.50986" lon="12.5469917"><ele>405.3333333333333</ele><time>2026-04-22T12:56:37.618Z</time></trkpt><trkpt lat="43.50992" lon="12.5472467"><ele>406.66666666666663</ele><time>2026-04-22T12:56:38.618Z</time></trkpt><trkpt lat="43.5099783" lon="12.5475033"><ele>408.0</ele><time>2026-04-22T12:56:39.618Z</time></trkpt><trkpt lat="43.5100383" lon="12.547755"><ele>408.33333333333337</ele><time>2026-04-22T12:56:40.618Z</time></trkpt><trkpt lat="43.5101" lon="12.5480117"><ele>408.6666666666667</ele><time>2026-04-22T12:56:41.618Z</time></trkpt><trkpt lat="43.51016" lon="12.5482717"><ele>409.0</ele><time>2026-04-22T12:56:42.618Z</time></trkpt><trkpt lat="43.5102283" lon="12.5485283"><ele>409.6666666666667</ele><time>2026-04-22T12:56:43.618Z</time></trkpt><trkpt lat="43.5102967" lon="12.5487883"><ele>410.33333333333337</ele><time>2026-04-22T12:56:44.618Z</time></trkpt><trkpt lat="43.5103567" lon="12.5490467"><ele>411.0</ele><time>2026-04-22T12:56:45.618Z</time></trkpt><trkpt lat="43.510425" lon="12.5493017"><ele>407.0</ele><time>2026-04-22T12:56:46.618Z</time></trkpt><trkpt lat="43.5104917" lon="12.5495533"><ele>403.0</ele><time>2026-04-22T12:56:47.618Z</time></trkpt><trkpt lat="43.5105617" lon="12.549795"><ele>399.0</ele><time>2026-04-22T12:56:48.618Z</time></trkpt><trkpt lat="43.510615" lon="12.5500133"><ele>399.0</ele><time>2026-04-22T12:56:49.618Z</time></trkpt><trkpt lat="43.5106667" lon="12.5502333"><ele>399.0</ele><time>2026-04-22T12:56:50.618Z</time></trkpt><trkpt lat="43.5107117" lon="12.5504367"><ele>399.0</ele><time>2026-04-22T12:56:51.618Z</time></trkpt><trkpt lat="43.5107617" lon="12.5506183"><ele>399.5</ele><time>2026-04-22T12:56:52.618Z</time></trkpt><trkpt lat="43.5108167" lon="12.5507967"><ele>400.0</ele><time>2026-04-22T12:56:53.618Z</time></trkpt><trkpt lat="43.51088" lon="12.55096"><ele>400.5</ele><time>2026-04-22T12:56:54.619Z</time></trkpt><trkpt lat="43.510945" lon="12.55112"><ele>401.0</ele><time>2026-04-22T12:56:55.618Z</time></trkpt><trkpt lat="43.5110217" lon="12.551275"><ele>402.25</ele><time>2026-04-22T12:56:56.618Z</time></trkpt><trkpt lat="43.5111067" lon="12.55142"><ele>403.5</ele><time>2026-04-22T12:56:57.618Z</time></trkpt><trkpt lat="43.5111917" lon="12.5515717"><ele>404.75</ele><time>2026-04-22T12:56:58.618Z</time></trkpt><trkpt lat="43.5112667" lon="12.55173"><ele>406.0</ele><time>2026-04-22T12:56:59.618Z</time></trkpt><trkpt lat="43.5113483" lon="12.551885"><ele>404.5</ele><time>2026-04-22T12:57:00.618Z</time></trkpt><trkpt lat="43.511425" lon="12.55204"><ele>403.0</ele><time>2026-04-22T12:57:01.619Z</time></trkpt><trkpt lat="43.511495" lon="12.5521983"><ele>401.5</ele><time>2026-04-22T12:57:02.618Z</time></trkpt><trkpt lat="43.511565" lon="12.5523683"><ele>400.0</ele><time>2026-04-22T12:57:03.618Z</time></trkpt><trkpt lat="43.5116383" lon="12.5525483"><ele>400.0</ele><time>2026-04-22T12:57:04.618Z</time></trkpt><trkpt lat="43.5117083" lon="12.5527117"><ele>400.0</ele><time>2026-04-22T12:57:05.618Z</time></trkpt><trkpt lat="43.5117767" lon="12.5528817"><ele>400.0</ele><time>2026-04-22T12:57:06.618Z</time></trkpt><trkpt lat="43.5118483" lon="12.5530517"><ele>400.0</ele><time>2026-04-22T12:57:07.618Z</time></trkpt><trkpt lat="43.5119233" lon="12.5532183"><ele>399.25</ele><time>2026-04-22T12:57:08.618Z</time></trkpt><trkpt lat="43.5119967" lon="12.5533867"><ele>398.5</ele><time>2026-04-22T12:57:09.618Z</time></trkpt><trkpt lat="43.51206" lon="12.553555"><ele>397.75</ele><time>2026-04-22T12:57:10.618Z</time></trkpt><trkpt lat="43.512125" lon="12.553715"><ele>397.0</ele><time>2026-04-22T12:57:11.618Z</time></trkpt><trkpt lat="43.5121933" lon="12.5538767"><ele>397.0</ele><time>2026-04-22T12:57:12.618Z</time></trkpt><trkpt lat="43.51226" lon="12.5540333"><ele>397.0</ele><time>2026-04-22T12:57:13.619Z</time></trkpt><trkpt lat="43.5123183" lon="12.55419"><ele>397.0</ele><time>2026-04-22T12:57:14.618Z</time></trkpt><trkpt lat="43.512365" lon="12.5543567"><ele>397.0</ele><time>2026-04-22T12:57:15.618Z</time></trkpt><trkpt lat="43.5123933" lon="12.554515"><ele>396.5</ele><time>2026-04-22T12:57:16.618Z</time></trkpt><trkpt lat="43.5124083" lon="12.5546733"><ele>396.0</ele><time>2026-04-22T12:57:17.618Z</time></trkpt><trkpt lat="43.5124067" lon="12.5548233"><ele>395.5</ele><time>2026-04-22T12:57:18.618Z</time></trkpt><trkpt lat="43.5123867" lon="12.5549817"><ele>395.0</ele><time>2026-04-22T12:57:19.618Z</time></trkpt><trkpt lat="43.5123633" lon="12.5551483"><ele>395.0</ele><time>2026-04-22T12:57:20.618Z</time></trkpt><trkpt lat="43.5123367" lon="12.5553133"><ele>395.0</ele><time>2026-04-22T12:57:21.618Z</time></trkpt><trkpt lat="43.5123117" lon="12.55548"><ele>395.0</ele><time>2026-04-22T12:57:22.618Z</time></trkpt><trkpt lat="43.512285" lon="12.55564"><ele>395.0</ele><time>2026-04-22T12:57:23.618Z</time></trkpt><trkpt lat="43.5122567" lon="12.5558117"><ele>395.25</ele><time>2026-04-22T12:57:24.618Z</time></trkpt><trkpt lat="43.51223" lon="12.5559933"><ele>395.5</ele><time>2026-04-22T12:57:25.618Z</time></trkpt><trkpt lat="43.5122017" lon="12.5561817"><ele>395.75</ele><time>2026-04-22T12:57:26.619Z</time></trkpt><trkpt lat="43.5122033" lon="12.55638"><ele>396.0</ele><time>2026-04-22T12:57:27.618Z</time></trkpt><trkpt lat="43.51222" lon="12.5565867"><ele>396.33333333333337</ele><time>2026-04-22T12:57:28.618Z</time></trkpt><trkpt lat="43.5122633" lon="12.55679"><ele>396.6666666666667</ele><time>2026-04-22T12:57:29.618Z</time></trkpt><trkpt lat="43.51232" lon="12.5569883"><ele>397.0</ele><time>2026-04-22T12:57:30.619Z</time></trkpt><trkpt lat="43.51237" lon="12.5571833"><ele>397.33333333333337</ele><time>2026-04-22T12:57:31.618Z</time></trkpt><trkpt lat="43.5124267" lon="12.5573833"><ele>397.66666666666663</ele><time>2026-04-22T12:57:32.619Z</time></trkpt><trkpt lat="43.5124767" lon="12.5575783"><ele>398.0</ele><time>2026-04-22T12:57:33.618Z</time></trkpt><trkpt lat="43.5125233" lon="12.55778"><ele>398.5</ele><time>2026-04-22T12:57:34.618Z</time></trkpt><trkpt lat="43.5125733" lon="12.5579767"><ele>399.0</ele><time>2026-04-22T12:57:35.618Z</time></trkpt><trkpt lat="43.512615" lon="12.55818"><ele>399.5</ele><time>2026-04-22T12:57:36.618Z</time></trkpt><trkpt lat="43.5126317" lon="12.5583767"><ele>400.0</ele><time>2026-04-22T12:57:37.618Z</time></trkpt><trkpt lat="43.51262" lon="12.558565"><ele>399.5</ele><time>2026-04-22T12:57:38.618Z</time></trkpt><trkpt lat="43.5125733" lon="12.558755"><ele>399.0</ele><time>2026-04-22T12:57:39.618Z</time></trkpt><trkpt lat="43.51251" lon="12.55893"><ele>398.5</ele><time>2026-04-22T12:57:40.618Z</time></trkpt><trkpt lat="43.5124383" lon="12.5591067"><ele>398.0</ele><time>2026-04-22T12:57:41.618Z</time></trkpt><trkpt lat="43.5123717" lon="12.5592883"><ele>398.0</ele><time>2026-04-22T12:57:42.618Z</time></trkpt><trkpt lat="43.5123017" lon="12.55947"><ele>398.0</ele><time>2026-04-22T12:57:43.618Z</time></trkpt><trkpt lat="43.5122417" lon="12.5596533"><ele>398.0</ele><time>2026-04-22T12:57:44.618Z</time></trkpt><trkpt lat="43.5121717" lon="12.5598383"><ele>398.0</ele><time>2026-04-22T12:57:45.619Z</time></trkpt><trkpt lat="43.5121083" lon="12.5600233"><ele>399.5</ele><time>2026-04-22T12:57:46.618Z</time></trkpt><trkpt lat="43.5120383" lon="12.5602133"><ele>401.0</ele><time>2026-04-22T12:57:47.619Z</time></trkpt><trkpt lat="43.511975" lon="12.5603967"><ele>402.5</ele><time>2026-04-22T12:57:48.618Z</time></trkpt><trkpt lat="43.5119117" lon="12.5605767"><ele>404.0</ele><time>2026-04-22T12:57:49.619Z</time></trkpt><trkpt lat="43.51186" lon="12.5607617"><ele>404.75</ele><time>2026-04-22T12:57:50.618Z</time></trkpt><trkpt lat="43.5118367" lon="12.56096"><ele>405.5</ele><time>2026-04-22T12:57:51.619Z</time></trkpt><trkpt lat="43.5118267" lon="12.56117"><ele>406.25</ele><time>2026-04-22T12:57:52.619Z</time></trkpt><trkpt lat="43.5118517" lon="12.5613733"><ele>407.0</ele><time>2026-04-22T12:57:53.618Z</time></trkpt><trkpt lat="43.511915" lon="12.5615667"><ele>410.66666666666663</ele><time>2026-04-22T12:57:54.619Z</time></trkpt><trkpt lat="43.511995" lon="12.561755"><ele>414.33333333333337</ele><time>2026-04-22T12:57:55.618Z</time></trkpt><trkpt lat="43.512085" lon="12.5619283"><ele>418.0</ele><time>2026-04-22T12:57:56.618Z</time></trkpt><trkpt lat="43.5121717" lon="12.5620967"><ele>410.6666666666667</ele><time>2026-04-22T12:57:57.618Z</time></trkpt><trkpt lat="43.5122717" lon="12.562255"><ele>403.33333333333337</ele><time>2026-04-22T12:57:58.618Z</time></trkpt><trkpt lat="43.512385" lon="12.5623967"><ele>396.0</ele><time>2026-04-22T12:57:59.618Z</time></trkpt><trkpt lat="43.5125083" lon="12.5625183"><ele>396.0</ele><time>2026-04-22T12:58:00.618Z</time></trkpt><trkpt lat="43.5126383" lon="12.5626233"><ele>396.0</ele><time>2026-04-22T12:58:01.619Z</time></trkpt><trkpt lat="43.5127417" lon="12.562705"><ele>396.0</ele><time>2026-04-22T12:58:02.619Z</time></trkpt><trkpt lat="43.5128667" lon="12.5627717"><ele>396.0</ele><time>2026-04-22T12:58:03.618Z</time></trkpt><trkpt lat="43.5129867" lon="12.5628383"><ele>394.75</ele><time>2026-04-22T12:58:04.619Z</time></trkpt><trkpt lat="43.513075" lon="12.562955"><ele>393.5</ele><time>2026-04-22T12:58:05.618Z</time></trkpt><trkpt lat="43.5131283" lon="12.563105"><ele>392.25</ele><time>2026-04-22T12:58:06.618Z</time></trkpt><trkpt lat="43.5131633" lon="12.5632783"><ele>391.0</ele><time>2026-04-22T12:58:07.619Z</time></trkpt><trkpt lat="43.5131817" lon="12.5634533"><ele>391.0</ele><time>2026-04-22T12:58:08.618Z</time></trkpt><trkpt lat="43.5132133" lon="12.5636183"><ele>391.0</ele><time>2026-04-22T12:58:09.618Z</time></trkpt><trkpt lat="43.5132533" lon="12.563775"><ele>391.0</ele><time>2026-04-22T12:58:10.618Z</time></trkpt><trkpt lat="43.5133267" lon="12.5639267"><ele>391.0</ele><time>2026-04-22T12:58:11.618Z</time></trkpt><trkpt lat="43.513415" lon="12.5640717"><ele>391.0</ele><time>2026-04-22T12:58:12.618Z</time></trkpt><trkpt lat="43.5135167" lon="12.5642217"><ele>391.0</ele><time>2026-04-22T12:58:13.619Z</time></trkpt><trkpt lat="43.5136183" lon="12.5643733"><ele>391.0</ele><time>2026-04-22T12:58:14.619Z</time></trkpt><trkpt lat="43.51372" lon="12.56452"><ele>391.0</ele><time>2026-04-22T12:58:15.618Z</time></trkpt><trkpt lat="43.5138217" lon="12.564665"><ele>390.0</ele><time>2026-04-22T12:58:16.618Z</time></trkpt><trkpt lat="43.5139183" lon="12.564815"><ele>389.0</ele><time>2026-04-22T12:58:17.618Z</time></trkpt><trkpt lat="43.5140133" lon="12.564965"><ele>388.0</ele><time>2026-04-22T12:58:18.618Z</time></trkpt><trkpt lat="43.514105" lon="12.565115"><ele>387.0</ele><time>2026-04-22T12:58:19.618Z</time></trkpt><trkpt lat="43.5142" lon="12.5652583"><ele>386.6</ele><time>2026-04-22T12:58:20.619Z</time></trkpt><trkpt lat="43.5142883" lon="12.5654083"><ele>386.20000000000005</ele><time>2026-04-22T12:58:21.618Z</time></trkpt><trkpt lat="43.5143667" lon="12.5655433"><ele>385.8</ele><time>2026-04-22T12:58:22.618Z</time></trkpt><trkpt lat="43.5144067" lon="12.5656567"><ele>385.4</ele><time>2026-04-22T12:58:23.618Z</time></trkpt><trkpt lat="43.51444" lon="12.5657583"><ele>385.0</ele><time>2026-04-22T12:58:24.618Z</time></trkpt><trkpt lat="43.5144533" lon="12.5658683"><ele>385.0</ele><time>2026-04-22T12:58:25.618Z</time></trkpt><trkpt lat="43.5144583" lon="12.5659783"><ele>385.0</ele><time>2026-04-22T12:58:26.618Z</time></trkpt><trkpt lat="43.5144417" lon="12.5661"><ele>385.0</ele><time>2026-04-22T12:58:27.618Z</time></trkpt><trkpt lat="43.5144167" lon="12.566225"><ele>385.0</ele><time>2026-04-22T12:58:28.618Z</time></trkpt><trkpt lat="43.51439" lon="12.56636"><ele>385.0</ele><time>2026-04-22T12:58:29.618Z</time></trkpt><trkpt lat="43.5143633" lon="12.5665133"><ele>384.2</ele><time>2026-04-22T12:58:30.618Z</time></trkpt><trkpt lat="43.51433" lon="12.56668"><ele>383.4</ele><time>2026-04-22T12:58:31.618Z</time></trkpt><trkpt lat="43.5143083" lon="12.5668417"><ele>382.6</ele><time>2026-04-22T12:58:32.618Z</time></trkpt><trkpt lat="43.5143017" lon="12.5669917"><ele>381.8</ele><time>2026-04-22T12:58:33.618Z</time></trkpt><trkpt lat="43.5143033" lon="12.567115"><ele>381.0</ele><time>2026-04-22T12:58:34.619Z</time></trkpt><trkpt lat="43.51434" lon="12.5672283"><ele>380.4</ele><time>2026-04-22T12:58:35.618Z</time></trkpt><trkpt lat="43.5143967" lon="12.56731"><ele>379.8</ele><time>2026-04-22T12:58:36.618Z</time></trkpt><trkpt lat="43.51448" lon="12.5673533"><ele>379.2</ele><time>2026-04-22T12:58:37.618Z</time></trkpt><trkpt lat="43.51459" lon="12.5673633"><ele>378.59999999999997</ele><time>2026-04-22T12:58:38.618Z</time></trkpt><trkpt lat="43.514725" lon="12.5673683"><ele>378.0</ele><time>2026-04-22T12:58:39.618Z</time></trkpt><trkpt lat="43.51486" lon="12.5673783"><ele>379.5</ele><time>2026-04-22T12:58:40.618Z</time></trkpt><trkpt lat="43.514985" lon="12.56739"><ele>381.0</ele><time>2026-04-22T12:58:41.618Z</time></trkpt><trkpt lat="43.5151217" lon="12.5674033"><ele>382.5</ele><time>2026-04-22T12:58:42.618Z</time></trkpt><trkpt lat="43.51526" lon="12.5674267"><ele>384.0</ele><time>2026-04-22T12:58:43.618Z</time></trkpt><trkpt lat="43.5154" lon="12.5674467"><ele>384.5</ele><time>2026-04-22T12:58:44.619Z</time></trkpt><trkpt lat="43.5155433" lon="12.5674533"><ele>385.0</ele><time>2026-04-22T12:58:45.618Z</time></trkpt><trkpt lat="43.51569" lon="12.5674717"><ele>385.5</ele><time>2026-04-22T12:58:46.618Z</time></trkpt><trkpt lat="43.5158267" lon="12.567495"><ele>386.0</ele><time>2026-04-22T12:58:47.618Z</time></trkpt><trkpt lat="43.51596" lon="12.5675367"><ele>386.0</ele><time>2026-04-22T12:58:48.619Z</time></trkpt><trkpt lat="43.51609" lon="12.567605"><ele>386.0</ele><time>2026-04-22T12:58:49.618Z</time></trkpt><trkpt lat="43.51622" lon="12.5676983"><ele>386.0</ele><time>2026-04-22T12:58:50.618Z</time></trkpt><trkpt lat="43.5163383" lon="12.5678117"><ele>386.0</ele><time>2026-04-22T12:58:51.618Z</time></trkpt><trkpt lat="43.5164533" lon="12.567935"><ele>388.0</ele><time>2026-04-22T12:58:52.618Z</time></trkpt><trkpt lat="43.5165617" lon="12.5680733"><ele>390.0</ele><time>2026-04-22T12:58:53.618Z</time></trkpt><trkpt lat="43.516645" lon="12.56823"><ele>392.0</ele><time>2026-04-22T12:58:54.618Z</time></trkpt><trkpt lat="43.51671" lon="12.5683933"><ele>394.0</ele><time>2026-04-22T12:58:55.618Z</time></trkpt><trkpt lat="43.516755" lon="12.568555"><ele>392.6</ele><time>2026-04-22T12:58:56.619Z</time></trkpt><trkpt lat="43.516805" lon="12.568715"><ele>391.2</ele><time>2026-04-22T12:58:57.618Z</time></trkpt><trkpt lat="43.51687" lon="12.568845"><ele>389.8</ele><time>2026-04-22T12:58:58.618Z</time></trkpt><trkpt lat="43.5169367" lon="12.5689367"><ele>388.40000000000003</ele><time>2026-04-22T12:58:59.618Z</time></trkpt><trkpt lat="43.5170183" lon="12.5689933"><ele>387.0</ele><time>2026-04-22T12:59:00.618Z</time></trkpt><trkpt lat="43.5171133" lon="12.5690183"><ele>387.0</ele><time>2026-04-22T12:59:01.618Z</time></trkpt><trkpt lat="43.5172167" lon="12.569025"><ele>387.0</ele><time>2026-04-22T12:59:02.618Z</time></trkpt><trkpt lat="43.5173217" lon="12.5690267"><ele>387.0</ele><time>2026-04-22T12:59:03.618Z</time></trkpt><trkpt lat="43.5174317" lon="12.5690417"><ele>387.0</ele><time>2026-04-22T12:59:04.618Z</time></trkpt><trkpt lat="43.5175433" lon="12.5690833"><ele>387.0</ele><time>2026-04-22T12:59:05.618Z</time></trkpt><trkpt lat="43.5176567" lon="12.5691167"><ele>387.0</ele><time>2026-04-22T12:59:06.619Z</time></trkpt><trkpt lat="43.5177783" lon="12.5691583"><ele>387.0</ele><time>2026-04-22T12:59:07.619Z</time></trkpt><trkpt lat="43.5179033" lon="12.5692033"><ele>387.0</ele><time>2026-04-22T12:59:08.618Z</time></trkpt><trkpt lat="43.518025" lon="12.5692367"><ele>387.0</ele><time>2026-04-22T12:59:09.618Z</time></trkpt><trkpt lat="43.51814" lon="12.5692833"><ele>386.75</ele><time>2026-04-22T12:59:10.618Z</time></trkpt><trkpt lat="43.5182533" lon="12.5693533"><ele>386.5</ele><time>2026-04-22T12:59:11.618Z</time></trkpt><trkpt lat="43.51835" lon="12.569455"><ele>386.25</ele><time>2026-04-22T12:59:12.618Z</time></trkpt><trkpt lat="43.5184233" lon="12.56957"><ele>386.0</ele><time>2026-04-22T12:59:13.618Z</time></trkpt><trkpt lat="43.518475" lon="12.56971"><ele>386.0</ele><time>2026-04-22T12:59:14.618Z</time></trkpt><trkpt lat="43.5185183" lon="12.5698633"><ele>386.0</ele><time>2026-04-22T12:59:15.618Z</time></trkpt><trkpt lat="43.5185367" lon="12.5700117"><ele>386.0</ele><time>2026-04-22T12:59:16.618Z</time></trkpt><trkpt lat="43.51853" lon="12.57016"><ele>386.0</ele><time>2026-04-22T12:59:17.619Z</time></trkpt><trkpt lat="43.5185167" lon="12.5703117"><ele>386.0</ele><time>2026-04-22T12:59:18.618Z</time></trkpt><trkpt lat="43.5185167" lon="12.5704617"><ele>384.8</ele><time>2026-04-22T12:59:19.618Z</time></trkpt><trkpt lat="43.5185167" lon="12.5706033"><ele>383.6</ele><time>2026-04-22T12:59:20.618Z</time></trkpt><trkpt lat="43.5185217" lon="12.570755"><ele>382.4</ele><time>2026-04-22T12:59:21.618Z</time></trkpt><trkpt lat="43.5185483" lon="12.5709083"><ele>381.2</ele><time>2026-04-22T12:59:22.618Z</time></trkpt><trkpt lat="43.518605" lon="12.5710483"><ele>380.0</ele><time>2026-04-22T12:59:23.618Z</time></trkpt><trkpt lat="43.51868" lon="12.5711767"><ele>382.0</ele><time>2026-04-22T12:59:24.618Z</time></trkpt><trkpt lat="43.5187683" lon="12.5712917"><ele>384.0</ele><time>2026-04-22T12:59:25.618Z</time></trkpt><trkpt lat="43.5188767" lon="12.5713883"><ele>386.0</ele><time>2026-04-22T12:59:26.619Z</time></trkpt><trkpt lat="43.51899" lon="12.5714767"><ele>388.0</ele><time>2026-04-22T12:59:27.618Z</time></trkpt><trkpt lat="43.519105" lon="12.571555"><ele>388.0</ele><time>2026-04-22T12:59:28.619Z</time></trkpt><trkpt lat="43.519225" lon="12.571635"><ele>388.0</ele><time>2026-04-22T12:59:29.618Z</time></trkpt><trkpt lat="43.519345" lon="12.5717217"><ele>388.0</ele><time>2026-04-22T12:59:30.618Z</time></trkpt><trkpt lat="43.5194617" lon="12.5718167"><ele>388.0</ele><time>2026-04-22T12:59:31.619Z</time></trkpt><trkpt lat="43.5195733" lon="12.5718983"><ele>385.75</ele><time>2026-04-22T12:59:32.618Z</time></trkpt><trkpt lat="43.51969" lon="12.57198"><ele>383.5</ele><time>2026-04-22T12:59:33.618Z</time></trkpt><trkpt lat="43.5198033" lon="12.57206"><ele>381.25</ele><time>2026-04-22T12:59:34.618Z</time></trkpt><trkpt lat="43.5199267" lon="12.5721433"><ele>379.0</ele><time>2026-04-22T12:59:35.618Z</time></trkpt><trkpt lat="43.5200567" lon="12.5722333"><ele>379.0</ele><time>2026-04-22T12:59:36.618Z</time></trkpt><trkpt lat="43.5201933" lon="12.5723433"><ele>379.0</ele><time>2026-04-22T12:59:37.618Z</time></trkpt><trkpt lat="43.52032" lon="12.5724667"><ele>379.0</ele><time>2026-04-22T12:59:38.618Z</time></trkpt><trkpt lat="43.5204367" lon="12.5725917"><ele>379.5</ele><time>2026-04-22T12:59:39.618Z</time></trkpt><trkpt lat="43.5205533" lon="12.5727017"><ele>380.0</ele><time>2026-04-22T12:59:40.618Z</time></trkpt><trkpt lat="43.5206683" lon="12.5727967"><ele>380.5</ele><time>2026-04-22T12:59:41.618Z</time></trkpt><trkpt lat="43.5207783" lon="12.57286"><ele>381.0</ele><time>2026-04-22T12:59:42.618Z</time></trkpt><trkpt lat="43.5208983" lon="12.5728883"><ele>381.0</ele><time>2026-04-22T12:59:43.618Z</time></trkpt><trkpt lat="43.521015" lon="12.5729017"><ele>381.0</ele><time>2026-04-22T12:59:44.618Z</time></trkpt><trkpt lat="43.5211333" lon="12.5728917"><ele>381.0</ele><time>2026-04-22T12:59:45.618Z</time></trkpt><trkpt lat="43.521245" lon="12.5728717"><ele>381.0</ele><time>2026-04-22T12:59:46.618Z</time></trkpt><trkpt lat="43.5213583" lon="12.57286"><ele>380.5</ele><time>2026-04-22T12:59:47.618Z</time></trkpt><trkpt lat="43.5214783" lon="12.5728733"><ele>380.0</ele><time>2026-04-22T12:59:48.618Z</time></trkpt><trkpt lat="43.5215833" lon="12.5729217"><ele>379.5</ele><time>2026-04-22T12:59:49.618Z</time></trkpt><trkpt lat="43.52168" lon="12.573015"><ele>379.0</ele><time>2026-04-22T12:59:50.618Z</time></trkpt><trkpt lat="43.52177" lon="12.5731167"><ele>379.0</ele><time>2026-04-22T12:59:51.618Z</time></trkpt><trkpt lat="43.5218633" lon="12.5732167"><ele>379.0</ele><time>2026-04-22T12:59:52.618Z</time></trkpt><trkpt lat="43.521965" lon="12.5732983"><ele>379.0</ele><time>2026-04-22T12:59:53.618Z</time></trkpt><trkpt lat="43.522075" lon="12.5733483"><ele>379.0</ele><time>2026-04-22T12:59:54.618Z</time></trkpt><trkpt lat="43.522185" lon="12.5733817"><ele>380.25</ele><time>2026-04-22T12:59:55.618Z</time></trkpt><trkpt lat="43.5223117" lon="12.57339"><ele>381.5</ele><time>2026-04-22T12:59:56.618Z</time></trkpt><trkpt lat="43.5224383" lon="12.573395"><ele>382.75</ele><time>2026-04-22T12:59:57.618Z</time></trkpt><trkpt lat="43.5225683" lon="12.5734067"><ele>384.0</ele><time>2026-04-22T12:59:58.618Z</time></trkpt><trkpt lat="43.5226983" lon="12.5734083"><ele>384.0</ele><time>2026-04-22T12:59:59.618Z</time></trkpt><trkpt lat="43.5228317" lon="12.573415"><ele>384.0</ele><time>2026-04-22T13:00:00.618Z</time></trkpt><trkpt lat="43.5229517" lon="12.5734283"><ele>384.0</ele><time>2026-04-22T13:00:01.618Z</time></trkpt><trkpt lat="43.5230583" lon="12.5734517"><ele>384.0</ele><time>2026-04-22T13:00:02.619Z</time></trkpt><trkpt lat="43.5231717" lon="12.5734883"><ele>382.75</ele><time>2026-04-22T13:00:03.618Z</time></trkpt><trkpt lat="43.5232767" lon="12.5735483"><ele>381.5</ele><time>2026-04-22T13:00:04.618Z</time></trkpt><trkpt lat="43.523385" lon="12.57364"><ele>380.25</ele><time>2026-04-22T13:00:05.619Z</time></trkpt><trkpt lat="43.5234783" lon="12.5737667"><ele>379.0</ele><time>2026-04-22T13:00:06.618Z</time></trkpt><trkpt lat="43.5235517" lon="12.5739317"><ele>379.0</ele><time>2026-04-22T13:00:07.618Z</time></trkpt><trkpt lat="43.5236183" lon="12.5741083"><ele>379.0</ele><time>2026-04-22T13:00:08.618Z</time></trkpt><trkpt lat="43.5236783" lon="12.5742933"><ele>379.0</ele><time>2026-04-22T13:00:09.618Z</time></trkpt><trkpt lat="43.5237233" lon="12.5744767"><ele>379.0</ele><time>2026-04-22T13:00:10.618Z</time></trkpt><trkpt lat="43.5237483" lon="12.5746633"><ele>378.5</ele><time>2026-04-22T13:00:11.618Z</time></trkpt><trkpt lat="43.52375" lon="12.5748433"><ele>378.0</ele><time>2026-04-22T13:00:12.618Z</time></trkpt><trkpt lat="43.5237367" lon="12.5750167"><ele>377.5</ele><time>2026-04-22T13:00:13.618Z</time></trkpt><trkpt lat="43.5236867" lon="12.5752033"><ele>377.0</ele><time>2026-04-22T13:00:14.618Z</time></trkpt><trkpt lat="43.5236333" lon="12.5753933"><ele>378.75</ele><time>2026-04-22T13:00:15.618Z</time></trkpt><trkpt lat="43.5235767" lon="12.5755883"><ele>380.5</ele><time>2026-04-22T13:00:16.618Z</time></trkpt><trkpt lat="43.5235317" lon="12.5757783"><ele>382.25</ele><time>2026-04-22T13:00:17.618Z</time></trkpt><trkpt lat="43.5234967" lon="12.5759667"><ele>384.0</ele><time>2026-04-22T13:00:18.618Z</time></trkpt><trkpt lat="43.5234817" lon="12.5761667"><ele>383.75</ele><time>2026-04-22T13:00:19.618Z</time></trkpt><trkpt lat="43.5234633" lon="12.57637"><ele>383.5</ele><time>2026-04-22T13:00:20.618Z</time></trkpt><trkpt lat="43.5234583" lon="12.576565"><ele>383.25</ele><time>2026-04-22T13:00:21.618Z</time></trkpt><trkpt lat="43.52346" lon="12.576745"><ele>383.0</ele><time>2026-04-22T13:00:22.618Z</time></trkpt><trkpt lat="43.5234583" lon="12.5769267"><ele>381.25</ele><time>2026-04-22T13:00:23.618Z</time></trkpt><trkpt lat="43.52347" lon="12.57711"><ele>379.5</ele><time>2026-04-22T13:00:24.618Z</time></trkpt><trkpt lat="43.5235067" lon="12.5772967"><ele>377.75</ele><time>2026-04-22T13:00:25.618Z</time></trkpt><trkpt lat="43.5235517" lon="12.5774933"><ele>376.0</ele><time>2026-04-22T13:00:26.619Z</time></trkpt><trkpt lat="43.5236033" lon="12.5776883"><ele>375.0</ele><time>2026-04-22T13:00:27.618Z</time></trkpt><trkpt lat="43.52366" lon="12.57789"><ele>374.0</ele><time>2026-04-22T13:00:28.618Z</time></trkpt><trkpt lat="43.5237417" lon="12.57806"><ele>373.0</ele><time>2026-04-22T13:00:29.618Z</time></trkpt><trkpt lat="43.5238383" lon="12.5782117"><ele>381.0</ele><time>2026-04-22T13:00:30.618Z</time></trkpt><trkpt lat="43.5239683" lon="12.5783383"><ele>389.0</ele><time>2026-04-22T13:00:31.618Z</time></trkpt><trkpt lat="43.5241017" lon="12.5784483"><ele>397.0</ele><time>2026-04-22T13:00:32.618Z</time></trkpt><trkpt lat="43.5242217" lon="12.5785617"><ele>390.0</ele><time>2026-04-22T13:00:33.619Z</time></trkpt><trkpt lat="43.5243267" lon="12.5786883"><ele>383.0</ele><time>2026-04-22T13:00:34.618Z</time></trkpt><trkpt lat="43.5244117" lon="12.5788217"><ele>376.0</ele><time>2026-04-22T13:00:35.618Z</time></trkpt><trkpt lat="43.5244733" lon="12.5789533"><ele>369.0</ele><time>2026-04-22T13:00:36.618Z</time></trkpt><trkpt lat="43.5245267" lon="12.5790817"><ele>374.4</ele><time>2026-04-22T13:00:37.618Z</time></trkpt><trkpt lat="43.5245767" lon="12.5791917"><ele>379.79999999999995</ele><time>2026-04-22T13:00:38.618Z</time></trkpt><trkpt lat="43.5246283" lon="12.5793033"><ele>385.20000000000005</ele><time>2026-04-22T13:00:39.618Z</time></trkpt><trkpt lat="43.524695" lon="12.5793867"><ele>390.6</ele><time>2026-04-22T13:00:40.618Z</time></trkpt><trkpt lat="43.52478" lon="12.5794467"><ele>396.0</ele><time>2026-04-22T13:00:41.618Z</time></trkpt><trkpt lat="43.524885" lon="12.5794733"><ele>396.0</ele><time>2026-04-22T13:00:42.618Z</time></trkpt><trkpt lat="43.52503" lon="12.57948"><ele>396.0</ele><time>2026-04-22T13:00:43.618Z</time></trkpt><trkpt lat="43.52519" lon="12.57949"><ele>396.0</ele><time>2026-04-22T13:00:44.618Z</time></trkpt><trkpt lat="43.52537" lon="12.57953"><ele>388.6666666666667</ele><time>2026-04-22T13:00:45.619Z</time></trkpt><trkpt lat="43.5255533" lon="12.5796067"><ele>381.33333333333337</ele><time>2026-04-22T13:00:46.618Z</time></trkpt><trkpt lat="43.52573" lon="12.5797067"><ele>374.0</ele><time>2026-04-22T13:00:47.619Z</time></trkpt><trkpt lat="43.5258883" lon="12.5798067"><ele>374.0</ele><time>2026-04-22T13:00:48.619Z</time></trkpt><trkpt lat="43.5260283" lon="12.5798867"><ele>374.0</ele><time>2026-04-22T13:00:49.618Z</time></trkpt><trkpt lat="43.5261517" lon="12.57996"><ele>374.0</ele><time>2026-04-22T13:00:50.618Z</time></trkpt><trkpt lat="43.5262533" lon="12.5800717"><ele>374.0</ele><time>2026-04-22T13:00:51.618Z</time></trkpt><trkpt lat="43.526335" lon="12.5802117"><ele>376.75</ele><time>2026-04-22T13:00:52.619Z</time></trkpt><trkpt lat="43.5264117" lon="12.5803733"><ele>379.5</ele><time>2026-04-22T13:00:53.618Z</time></trkpt><trkpt lat="43.5264833" lon="12.58055"><ele>382.25</ele><time>2026-04-22T13:00:54.618Z</time></trkpt><trkpt lat="43.526545" lon="12.5807283"><ele>385.0</ele><time>2026-04-22T13:00:55.618Z</time></trkpt><trkpt lat="43.5266083" lon="12.5809183"><ele>385.0</ele><time>2026-04-22T13:00:56.618Z</time></trkpt><trkpt lat="43.52667" lon="12.5811117"><ele>385.0</ele><time>2026-04-22T13:00:57.618Z</time></trkpt><trkpt lat="43.5267367" lon="12.58132"><ele>385.0</ele><time>2026-04-22T13:00:58.618Z</time></trkpt><trkpt lat="43.5268083" lon="12.5815467"><ele>380.0</ele><time>2026-04-22T13:00:59.618Z</time></trkpt><trkpt lat="43.5268767" lon="12.5817667"><ele>375.0</ele><time>2026-04-22T13:01:00.618Z</time></trkpt><trkpt lat="43.5269417" lon="12.5819833"><ele>370.0</ele><time>2026-04-22T13:01:01.618Z</time></trkpt><trkpt lat="43.5270017" lon="12.582195"><ele>371.0</ele><time>2026-04-22T13:01:02.619Z</time></trkpt><trkpt lat="43.5270683" lon="12.5823833"><ele>372.0</ele><time>2026-04-22T13:01:03.618Z</time></trkpt><trkpt lat="43.5271267" lon="12.5825767"><ele>373.0</ele><time>2026-04-22T13:01:04.618Z</time></trkpt><trkpt lat="43.5271867" lon="12.5827583"><ele>374.0</ele><time>2026-04-22T13:01:05.618Z</time></trkpt><trkpt lat="43.52724" lon="12.5829367"><ele>374.0</ele><time>2026-04-22T13:01:06.618Z</time></trkpt><trkpt lat="43.5272967" lon="12.583115"><ele>374.0</ele><time>2026-04-22T13:01:07.619Z</time></trkpt><trkpt lat="43.5273467" lon="12.5832833"><ele>374.0</ele><time>2026-04-22T13:01:08.618Z</time></trkpt><trkpt lat="43.52738" lon="12.58347"><ele>374.0</ele><time>2026-04-22T13:01:09.618Z</time></trkpt><trkpt lat="43.5273833" lon="12.58365"><ele>378.25</ele><time>2026-04-22T13:01:10.618Z</time></trkpt><trkpt lat="43.527355" lon="12.5838083"><ele>382.5</ele><time>2026-04-22T13:01:11.618Z</time></trkpt><trkpt lat="43.52731" lon="12.58395"><ele>386.75</ele><time>2026-04-22T13:01:12.618Z</time></trkpt><trkpt lat="43.5272267" lon="12.58407"><ele>391.0</ele><time>2026-04-22T13:01:13.618Z</time></trkpt><trkpt lat="43.5271383" lon="12.584165"><ele>384.6</ele><time>2026-04-22T13:01:14.618Z</time></trkpt><trkpt lat="43.5270433" lon="12.584235"><ele>378.20000000000005</ele><time>2026-04-22T13:01:15.618Z</time></trkpt><trkpt lat="43.5269383" lon="12.5842783"><ele>371.79999999999995</ele><time>2026-04-22T13:01:16.618Z</time></trkpt><trkpt lat="43.526825" lon="12.5842917"><ele>365.4</ele><time>2026-04-22T13:01:17.618Z</time></trkpt><trkpt lat="43.5267083" lon="12.5842967"><ele>359.0</ele><time>2026-04-22T13:01:18.619Z</time></trkpt><trkpt lat="43.5266033" lon="12.5842967"><ele>359.0</ele><time>2026-04-22T13:01:19.618Z</time></trkpt><trkpt lat="43.5265117" lon="12.5843167"><ele>359.0</ele><time>2026-04-22T13:01:20.618Z</time></trkpt><trkpt lat="43.5264333" lon="12.5843633"><ele>359.0</ele><time>2026-04-22T13:01:21.618Z</time></trkpt><trkpt lat="43.5263833" lon="12.5844517"><ele>359.0</ele><time>2026-04-22T13:01:22.618Z</time></trkpt><trkpt lat="43.5263683" lon="12.58456"><ele>359.0</ele><time>2026-04-22T13:01:23.618Z</time></trkpt><trkpt lat="43.526385" lon="12.5846883"><ele>359.0</ele><time>2026-04-22T13:01:24.618Z</time></trkpt><trkpt lat="43.5264333" lon="12.5848217"><ele>360.25</ele><time>2026-04-22T13:01:25.618Z</time></trkpt><trkpt lat="43.5265067" lon="12.5849617"><ele>361.5</ele><time>2026-04-22T13:01:26.618Z</time></trkpt><trkpt lat="43.52659" lon="12.5851083"><ele>362.75</ele><time>2026-04-22T13:01:27.618Z</time></trkpt><trkpt lat="43.5266717" lon="12.585255"><ele>364.0</ele><time>2026-04-22T13:01:28.618Z</time></trkpt><trkpt lat="43.5267383" lon="12.585395"><ele>364.0</ele><time>2026-04-22T13:01:29.618Z</time></trkpt><trkpt lat="43.5267883" lon="12.5855567"><ele>364.0</ele><time>2026-04-22T13:01:30.618Z</time></trkpt><trkpt lat="43.5268067" lon="12.585725"><ele>364.0</ele><time>2026-04-22T13:01:31.618Z</time></trkpt><trkpt lat="43.5267917" lon="12.5858883"><ele>364.0</ele><time>2026-04-22T13:01:32.618Z</time></trkpt><trkpt lat="43.52674" lon="12.5860217"><ele>364.0</ele><time>2026-04-22T13:01:33.618Z</time></trkpt><trkpt lat="43.52667" lon="12.5861433"><ele>364.0</ele><time>2026-04-22T13:01:34.618Z</time></trkpt><trkpt lat="43.5265817" lon="12.5862317"><ele>364.0</ele><time>2026-04-22T13:01:35.618Z</time></trkpt><trkpt lat="43.5264983" lon="12.5862983"><ele>364.0</ele><time>2026-04-22T13:01:36.618Z</time></trkpt><trkpt lat="43.5264267" lon="12.5863417"><ele>364.0</ele><time>2026-04-22T13:01:37.618Z</time></trkpt><trkpt lat="43.526345" lon="12.586395"><ele>362.66666666666663</ele><time>2026-04-22T13:01:39.618Z</time></trkpt><trkpt lat="43.526285" lon="12.586445"><ele>361.3333333333333</ele><time>2026-04-22T13:02:46.618Z</time></trkpt><trkpt lat="43.52621" lon="12.5865183"><ele>360.0</ele><time>2026-04-22T13:02:49.618Z</time></trkpt><trkpt lat="43.5261533" lon="12.5865833"><ele>358.6666666666667</ele><time>2026-04-22T13:02:51.618Z</time></trkpt><trkpt lat="43.5260883" lon="12.5866733"><ele>357.33333333333337</ele><time>2026-04-22T13:02:53.618Z</time></trkpt><trkpt lat="43.5260533" lon="12.5867783"><ele>356.0</ele><time>2026-04-22T13:02:55.618Z</time></trkpt><trkpt lat="43.52604" lon="12.58688"><ele>356.0</ele><time>2026-04-22T13:02:57.618Z</time></trkpt><trkpt lat="43.5260583" lon="12.5870067"><ele>356.0</ele><time>2026-04-22T13:02:59.618Z</time></trkpt><trkpt lat="43.5261117" lon="12.58712"><ele>356.0</ele><time>2026-04-22T13:03:01.618Z</time></trkpt><trkpt lat="43.52616" lon="12.5872267"><ele>356.0</ele><time>2026-04-22T13:03:03.619Z</time></trkpt><trkpt lat="43.52622" lon="12.58734"><ele>356.0</ele><time>2026-04-22T13:03:05.618Z</time></trkpt><trkpt lat="43.5262733" lon="12.5874433"><ele>358.4</ele><time>2026-04-22T13:03:07.618Z</time></trkpt><trkpt lat="43.5263267" lon="12.5875417"><ele>360.8</ele><time>2026-04-22T13:03:09.618Z</time></trkpt><trkpt lat="43.52637" lon="12.5876617"><ele>363.2</ele><time>2026-04-22T13:03:11.619Z</time></trkpt><trkpt lat="43.5264233" lon="12.5877867"><ele>365.59999999999997</ele><time>2026-04-22T13:03:13.618Z</time></trkpt><trkpt lat="43.5264917" lon="12.5879267"><ele>368.0</ele><time>2026-04-22T13:03:15.619Z</time></trkpt><trkpt lat="43.52656" lon="12.5880767"><ele>368.0</ele><time>2026-04-22T13:03:17.618Z</time></trkpt><trkpt lat="43.526595" lon="12.5881633"><ele>368.0</ele><time>2026-04-22T13:03:18.618Z</time></trkpt><trkpt lat="43.526625" lon="12.5882633"><ele>368.0</ele><time>2026-04-22T13:03:19.618Z</time></trkpt><trkpt lat="43.5266417" lon="12.588365"><ele>368.0</ele><time>2026-04-22T13:03:20.618Z</time></trkpt><trkpt lat="43.526665" lon="12.5884617"><ele>368.0</ele><time>2026-04-22T13:03:21.618Z</time></trkpt><trkpt lat="43.5266917" lon="12.58857"><ele>368.0</ele><time>2026-04-22T13:03:22.618Z</time></trkpt><trkpt lat="43.526715" lon="12.58867"><ele>366.5714285714286</ele><time>2026-04-22T13:03:23.618Z</time></trkpt><trkpt lat="43.5267383" lon="12.5887617"><ele>365.1428571428571</ele><time>2026-04-22T13:03:24.618Z</time></trkpt><trkpt lat="43.5267617" lon="12.5888533"><ele>363.7142857142857</ele><time>2026-04-22T13:03:25.618Z</time></trkpt><trkpt lat="43.5267867" lon="12.588945"><ele>362.28571428571433</ele><time>2026-04-22T13:03:26.618Z</time></trkpt><trkpt lat="43.5268083" lon="12.5890383"><ele>360.8571428571429</ele><time>2026-04-22T13:03:27.619Z</time></trkpt><trkpt lat="43.5268317" lon="12.5891333"><ele>359.42857142857144</ele><time>2026-04-22T13:03:28.618Z</time></trkpt><trkpt lat="43.5268433" lon="12.5892333"><ele>358.0</ele><time>2026-04-22T13:03:29.618Z</time></trkpt><trkpt lat="43.5268583" lon="12.5893283"><ele>358.00000000000006</ele><time>2026-04-22T13:03:30.619Z</time></trkpt><trkpt lat="43.5268733" lon="12.5894233"><ele>358.0</ele><time>2026-04-22T13:03:31.618Z</time></trkpt><trkpt lat="43.5268933" lon="12.5895183"><ele>358.0</ele><time>2026-04-22T13:03:32.618Z</time></trkpt><trkpt lat="43.5269167" lon="12.5896167"><ele>358.0</ele><time>2026-04-22T13:03:33.618Z</time></trkpt><trkpt lat="43.5269283" lon="12.589715"><ele>358.0</ele><time>2026-04-22T13:03:34.618Z</time></trkpt><trkpt lat="43.5269533" lon="12.5898083"><ele>358.00000000000006</ele><time>2026-04-22T13:03:35.618Z</time></trkpt><trkpt lat="43.5269767" lon="12.5899033"><ele>358.0</ele><time>2026-04-22T13:03:36.618Z</time></trkpt><trkpt lat="43.5269933" lon="12.5899917"><ele>358.14285714285717</ele><time>2026-04-22T13:03:37.618Z</time></trkpt><trkpt lat="43.5270133" lon="12.5900817"><ele>358.2857142857143</ele><time>2026-04-22T13:03:38.618Z</time></trkpt><trkpt lat="43.52704" lon="12.5901683"><ele>358.42857142857144</ele><time>2026-04-22T13:03:39.618Z</time></trkpt><trkpt lat="43.5270783" lon="12.5902517"><ele>358.57142857142856</ele><time>2026-04-22T13:03:40.618Z</time></trkpt><trkpt lat="43.5271167" lon="12.5903333"><ele>358.7142857142857</ele><time>2026-04-22T13:03:41.619Z</time></trkpt><trkpt lat="43.5271517" lon="12.590415"><ele>358.8571428571429</ele><time>2026-04-22T13:03:42.618Z</time></trkpt><trkpt lat="43.5271917" lon="12.5905017"><ele>359.0</ele><time>2026-04-22T13:03:43.618Z</time></trkpt><trkpt lat="43.527235" lon="12.5905817"><ele>357.33333333333337</ele><time>2026-04-22T13:03:44.618Z</time></trkpt><trkpt lat="43.5272783" lon="12.5906583"><ele>355.6666666666667</ele><time>2026-04-22T13:03:45.618Z</time></trkpt><trkpt lat="43.5273217" lon="12.5907317"><ele>354.0</ele><time>2026-04-22T13:03:46.618Z</time></trkpt><trkpt lat="43.5273617" lon="12.5908083"><ele>352.3333333333333</ele><time>2026-04-22T13:03:47.618Z</time></trkpt><trkpt lat="43.527415" lon="12.590915"><ele>350.66666666666663</ele><time>2026-04-22T13:03:49.618Z</time></trkpt><trkpt lat="43.5274683" lon="12.590985"><ele>349.0</ele><time>2026-04-22T13:03:51.618Z</time></trkpt><trkpt lat="43.5275283" lon="12.5910467"><ele>349.0</ele><time>2026-04-22T13:03:53.619Z</time></trkpt><trkpt lat="43.5276" lon="12.5910883"><ele>349.0</ele><time>2026-04-22T13:03:55.618Z</time></trkpt><trkpt lat="43.5276867" lon="12.5911017"><ele>349.0</ele><time>2026-04-22T13:03:57.618Z</time></trkpt><trkpt lat="43.5277583" lon="12.591075"><ele>349.0</ele><time>2026-04-22T13:03:59.618Z</time></trkpt><trkpt lat="43.527835" lon="12.5910683"><ele>349.0</ele><time>2026-04-22T13:04:01.618Z</time></trkpt><trkpt lat="43.5279333" lon="12.5910683"><ele>349.0</ele><time>2026-04-22T13:04:03.618Z</time></trkpt><trkpt lat="43.5280233" lon="12.5910733"><ele>349.4</ele><time>2026-04-22T13:04:05.618Z</time></trkpt><trkpt lat="43.5281133" lon="12.59106"><ele>349.79999999999995</ele><time>2026-04-22T13:04:07.618Z</time></trkpt><trkpt lat="43.5282417" lon="12.5910467"><ele>350.20000000000005</ele><time>2026-04-22T13:04:09.618Z</time></trkpt><trkpt lat="43.5283233" lon="12.5910533"><ele>350.6</ele><time>2026-04-22T13:04:10.618Z</time></trkpt><trkpt lat="43.5284183" lon="12.5910617"><ele>351.0</ele><time>2026-04-22T13:04:11.618Z</time></trkpt><trkpt lat="43.5285067" lon="12.591075"><ele>351.0</ele><time>2026-04-22T13:04:12.618Z</time></trkpt><trkpt lat="43.528595" lon="12.5910917"><ele>351.0</ele><time>2026-04-22T13:04:13.618Z</time></trkpt><trkpt lat="43.528695" lon="12.591105"><ele>351.0</ele><time>2026-04-22T13:04:14.618Z</time></trkpt><trkpt lat="43.52879" lon="12.5911233"><ele>351.0</ele><time>2026-04-22T13:04:15.618Z</time></trkpt><trkpt lat="43.528885" lon="12.5911483"><ele>351.0</ele><time>2026-04-22T13:04:16.618Z</time></trkpt><trkpt lat="43.5289767" lon="12.5911917"><ele>352.6666666666667</ele><time>2026-04-22T13:04:17.618Z</time></trkpt><trkpt lat="43.5290517" lon="12.5912417"><ele>354.3333333333333</ele><time>2026-04-22T13:04:18.619Z</time></trkpt><trkpt lat="43.5291133" lon="12.591325"><ele>356.0</ele><time>2026-04-22T13:04:19.618Z</time></trkpt><trkpt lat="43.5291633" lon="12.5914183"><ele>357.66666666666663</ele><time>2026-04-22T13:04:20.618Z</time></trkpt><trkpt lat="43.5292117" lon="12.5915117"><ele>359.3333333333333</ele><time>2026-04-22T13:04:21.618Z</time></trkpt><trkpt lat="43.5292433" lon="12.5915983"><ele>361.0</ele><time>2026-04-22T13:04:22.618Z</time></trkpt><trkpt lat="43.529255" lon="12.5916983"><ele>361.0</ele><time>2026-04-22T13:04:23.618Z</time></trkpt><trkpt lat="43.529255" lon="12.59179"><ele>361.0</ele><time>2026-04-22T13:04:24.618Z</time></trkpt><trkpt lat="43.52925" lon="12.591885"><ele>361.0</ele><time>2026-04-22T13:04:25.619Z</time></trkpt><trkpt lat="43.529235" lon="12.5919833"><ele>361.0</ele><time>2026-04-22T13:04:26.618Z</time></trkpt><trkpt lat="43.5292117" lon="12.59208"><ele>361.0</ele><time>2026-04-22T13:04:27.618Z</time></trkpt><trkpt lat="43.52918" lon="12.5921783"><ele>361.0</ele><time>2026-04-22T13:04:28.618Z</time></trkpt><trkpt lat="43.5291467" lon="12.59228"><ele>361.0</ele><time>2026-04-22T13:04:29.618Z</time></trkpt><trkpt lat="43.5291033" lon="12.5923917"><ele>362.5</ele><time>2026-04-22T13:04:30.619Z</time></trkpt><trkpt lat="43.529055" lon="12.5925017"><ele>364.0</ele><time>2026-04-22T13:04:31.619Z</time></trkpt><trkpt lat="43.5290117" lon="12.592615"><ele>365.5</ele><time>2026-04-22T13:04:32.618Z</time></trkpt><trkpt lat="43.52898" lon="12.5927183"><ele>367.0</ele><time>2026-04-22T13:04:33.618Z</time></trkpt><trkpt lat="43.5289517" lon="12.59282"><ele>368.5</ele><time>2026-04-22T13:04:34.618Z</time></trkpt><trkpt lat="43.5289333" lon="12.5929217"><ele>370.0</ele><time>2026-04-22T13:04:35.618Z</time></trkpt><trkpt lat="43.5289067" lon="12.593025"><ele>370.0</ele><time>2026-04-22T13:04:36.618Z</time></trkpt><trkpt lat="43.5288867" lon="12.59314"><ele>370.0</ele><time>2026-04-22T13:04:37.618Z</time></trkpt><trkpt lat="43.5288783" lon="12.5932583"><ele>370.0</ele><time>2026-04-22T13:04:38.619Z</time></trkpt><trkpt lat="43.5288733" lon="12.5933767"><ele>370.0</ele><time>2026-04-22T13:04:39.618Z</time></trkpt><trkpt lat="43.52887" lon="12.5934867"><ele>370.0</ele><time>2026-04-22T13:04:40.619Z</time></trkpt><trkpt lat="43.52888" lon="12.5935983"><ele>370.0</ele><time>2026-04-22T13:04:41.618Z</time></trkpt><trkpt lat="43.5288967" lon="12.5937067"><ele>368.3333333333333</ele><time>2026-04-22T13:04:42.618Z</time></trkpt><trkpt lat="43.52892" lon="12.5938133"><ele>366.66666666666663</ele><time>2026-04-22T13:04:43.618Z</time></trkpt><trkpt lat="43.5289467" lon="12.5939167"><ele>365.0</ele><time>2026-04-22T13:04:44.618Z</time></trkpt><trkpt lat="43.52898" lon="12.5940283"><ele>363.3333333333333</ele><time>2026-04-22T13:04:45.618Z</time></trkpt><trkpt lat="43.5290133" lon="12.5941333"><ele>361.6666666666667</ele><time>2026-04-22T13:04:46.618Z</time></trkpt><trkpt lat="43.5290433" lon="12.5942433"><ele>360.0</ele><time>2026-04-22T13:04:47.619Z</time></trkpt><trkpt lat="43.529085" lon="12.5943533"><ele>360.0</ele><time>2026-04-22T13:04:48.618Z</time></trkpt><trkpt lat="43.5291333" lon="12.5944517"><ele>360.0</ele><time>2026-04-22T13:04:49.618Z</time></trkpt><trkpt lat="43.5291867" lon="12.59455"><ele>360.0</ele><time>2026-04-22T13:04:50.618Z</time></trkpt><trkpt lat="43.5292367" lon="12.5946517"><ele>360.0</ele><time>2026-04-22T13:04:51.619Z</time></trkpt><trkpt lat="43.5292867" lon="12.59476"><ele>360.0</ele><time>2026-04-22T13:04:52.618Z</time></trkpt><trkpt lat="43.5293433" lon="12.5948683"><ele>357.8</ele><time>2026-04-22T13:04:53.619Z</time></trkpt><trkpt lat="43.5293983" lon="12.5949817"><ele>355.6</ele><time>2026-04-22T13:04:54.618Z</time></trkpt><trkpt lat="43.5294533" lon="12.595095"><ele>353.4</ele><time>2026-04-22T13:04:55.618Z</time></trkpt><trkpt lat="43.52951" lon="12.59521"><ele>351.2</ele><time>2026-04-22T13:04:56.618Z</time></trkpt><trkpt lat="43.5295717" lon="12.5953133"><ele>349.0</ele><time>2026-04-22T13:04:57.618Z</time></trkpt><trkpt lat="43.52965" lon="12.595415"><ele>348.0</ele><time>2026-04-22T13:04:58.618Z</time></trkpt><trkpt lat="43.529735" lon="12.59551"><ele>347.0</ele><time>2026-04-22T13:04:59.619Z</time></trkpt><trkpt lat="43.5298267" lon="12.595595"><ele>346.0</ele><time>2026-04-22T13:05:00.618Z</time></trkpt><trkpt lat="43.5299183" lon="12.5956683"><ele>345.0</ele><time>2026-04-22T13:05:01.618Z</time></trkpt><trkpt lat="43.5300117" lon="12.5957383"><ele>344.0</ele><time>2026-04-22T13:05:02.618Z</time></trkpt><trkpt lat="43.5301067" lon="12.5958067"><ele>344.0</ele><time>2026-04-22T13:05:03.618Z</time></trkpt><trkpt lat="43.5302017" lon="12.5958733"><ele>344.0</ele><time>2026-04-22T13:05:04.618Z</time></trkpt><trkpt lat="43.530295" lon="12.5959383"><ele>344.0</ele><time>2026-04-22T13:05:05.618Z</time></trkpt><trkpt lat="43.5303983" lon="12.5959967"><ele>344.0</ele><time>2026-04-22T13:05:06.618Z</time></trkpt><trkpt lat="43.5305017" lon="12.5960417"><ele>344.0</ele><time>2026-04-22T13:05:07.618Z</time></trkpt><trkpt lat="43.5306083" lon="12.5960717"><ele>347.0</ele><time>2026-04-22T13:05:08.619Z</time></trkpt><trkpt lat="43.5307167" lon="12.59609"><ele>350.0</ele><time>2026-04-22T13:05:09.618Z</time></trkpt><trkpt lat="43.5308283" lon="12.5961"><ele>353.0</ele><time>2026-04-22T13:05:10.618Z</time></trkpt><trkpt lat="43.5309467" lon="12.5960983"><ele>356.0</ele><time>2026-04-22T13:05:11.619Z</time></trkpt><trkpt lat="43.5310733" lon="12.5960933"><ele>356.0</ele><time>2026-04-22T13:05:12.618Z</time></trkpt><trkpt lat="43.531205" lon="12.5960917"><ele>356.0</ele><time>2026-04-22T13:05:13.618Z</time></trkpt><trkpt lat="43.53134" lon="12.59609"><ele>356.0</ele><time>2026-04-22T13:05:14.619Z</time></trkpt><trkpt lat="43.5314717" lon="12.5960833"><ele>356.0</ele><time>2026-04-22T13:05:15.619Z</time></trkpt><trkpt lat="43.5316067" lon="12.5960733"><ele>355.0</ele><time>2026-04-22T13:05:16.618Z</time></trkpt><trkpt lat="43.5317383" lon="12.5960633"><ele>354.0</ele><time>2026-04-22T13:05:17.618Z</time></trkpt><trkpt lat="43.5318717" lon="12.5960367"><ele>353.0</ele><time>2026-04-22T13:05:18.618Z</time></trkpt><trkpt lat="43.53203" lon="12.59598"><ele>352.0</ele><time>2026-04-22T13:05:19.618Z</time></trkpt><trkpt lat="43.5321767" lon="12.595925"><ele>350.0</ele><time>2026-04-22T13:05:20.618Z</time></trkpt><trkpt lat="43.532325" lon="12.5958533"><ele>348.0</ele><time>2026-04-22T13:05:21.618Z</time></trkpt><trkpt lat="43.532465" lon="12.5957867"><ele>346.0</ele><time>2026-04-22T13:05:22.618Z</time></trkpt><trkpt lat="43.5326067" lon="12.595715"><ele>346.0</ele><time>2026-04-22T13:05:23.618Z</time></trkpt><trkpt lat="43.532755" lon="12.59565"><ele>346.0</ele><time>2026-04-22T13:05:24.619Z</time></trkpt><trkpt lat="43.532915" lon="12.5955733"><ele>346.0</ele><time>2026-04-22T13:05:25.617Z</time></trkpt><trkpt lat="43.533075" lon="12.59549"><ele>343.3333333333333</ele><time>2026-04-22T13:05:26.617Z</time></trkpt><trkpt lat="43.5332283" lon="12.5954217"><ele>340.6666666666667</ele><time>2026-04-22T13:05:27.617Z</time></trkpt><trkpt lat="43.5333833" lon="12.59537"><ele>338.0</ele><time>2026-04-22T13:05:28.617Z</time></trkpt><trkpt lat="43.5335233" lon="12.5953667"><ele>338.0</ele><time>2026-04-22T13:05:29.617Z</time></trkpt><trkpt lat="43.5336717" lon="12.5954117"><ele>338.0</ele><time>2026-04-22T13:05:30.618Z</time></trkpt><trkpt lat="43.5338233" lon="12.5954817"><ele>338.0</ele><time>2026-04-22T13:05:31.617Z</time></trkpt><trkpt lat="43.533965" lon="12.5955633"><ele>338.6666666666667</ele><time>2026-04-22T13:05:32.617Z</time></trkpt><trkpt lat="43.5341217" lon="12.5956483"><ele>339.3333333333333</ele><time>2026-04-22T13:05:33.618Z</time></trkpt><trkpt lat="43.5342717" lon="12.59573"><ele>340.0</ele><time>2026-04-22T13:05:34.617Z</time></trkpt><trkpt lat="43.5344267" lon="12.595815"><ele>345.3333333333333</ele><time>2026-04-22T13:05:35.617Z</time></trkpt><trkpt lat="43.5345883" lon="12.5958867"><ele>350.6666666666667</ele><time>2026-04-22T13:05:36.618Z</time></trkpt><trkpt lat="43.5347367" lon="12.5959667"><ele>356.0</ele><time>2026-04-22T13:05:37.617Z</time></trkpt><trkpt lat="43.53489" lon="12.5960517"><ele>356.0</ele><time>2026-04-22T13:05:38.617Z</time></trkpt><trkpt lat="43.5350367" lon="12.596135"><ele>356.0</ele><time>2026-04-22T13:05:39.617Z</time></trkpt><trkpt lat="43.5351983" lon="12.59622"><ele>356.0</ele><time>2026-04-22T13:05:40.617Z</time></trkpt><trkpt lat="43.5353533" lon="12.5963167"><ele>351.6666666666667</ele><time>2026-04-22T13:05:41.617Z</time></trkpt><trkpt lat="43.5355117" lon="12.5964117"><ele>347.3333333333333</ele><time>2026-04-22T13:05:42.618Z</time></trkpt><trkpt lat="43.5356583" lon="12.596525"><ele>343.0</ele><time>2026-04-22T13:05:43.617Z</time></trkpt><trkpt lat="43.53578" lon="12.5966483"><ele>343.0</ele><time>2026-04-22T13:05:44.617Z</time></trkpt><trkpt lat="43.53589" lon="12.5967833"><ele>343.0</ele><time>2026-04-22T13:05:45.617Z</time></trkpt><trkpt lat="43.535995" lon="12.596925"><ele>343.0</ele><time>2026-04-22T13:05:46.617Z</time></trkpt><trkpt lat="43.5360933" lon="12.5970483"><ele>343.0</ele><time>2026-04-22T13:05:47.617Z</time></trkpt><trkpt lat="43.5361867" lon="12.5971683"><ele>344.5</ele><time>2026-04-22T13:05:48.617Z</time></trkpt><trkpt lat="43.5362683" lon="12.5972867"><ele>346.0</ele><time>2026-04-22T13:05:49.617Z</time></trkpt><trkpt lat="43.53636" lon="12.5974"><ele>347.5</ele><time>2026-04-22T13:05:50.618Z</time></trkpt><trkpt lat="43.536455" lon="12.5975267"><ele>349.0</ele><time>2026-04-22T13:05:51.617Z</time></trkpt><trkpt lat="43.5365467" lon="12.5976533"><ele>349.0</ele><time>2026-04-22T13:05:52.617Z</time></trkpt><trkpt lat="43.536645" lon="12.597775"><ele>349.0</ele><time>2026-04-22T13:05:53.617Z</time></trkpt><trkpt lat="43.536745" lon="12.5978933"><ele>349.0</ele><time>2026-04-22T13:05:54.617Z</time></trkpt><trkpt lat="43.5368583" lon="12.5980017"><ele>349.0</ele><time>2026-04-22T13:05:55.617Z</time></trkpt><trkpt lat="43.53698" lon="12.5981017"><ele>345.75</ele><time>2026-04-22T13:05:56.618Z</time></trkpt><trkpt lat="43.5370983" lon="12.5982117"><ele>342.5</ele><time>2026-04-22T13:05:57.617Z</time></trkpt><trkpt lat="43.5372233" lon="12.5983267"><ele>339.25</ele><time>2026-04-22T13:05:58.618Z</time></trkpt><trkpt lat="43.537345" lon="12.5984517"><ele>336.0</ele><time>2026-04-22T13:05:59.617Z</time></trkpt><trkpt lat="43.5374517" lon="12.5985817"><ele>334.0</ele><time>2026-04-22T13:06:00.617Z</time></trkpt><trkpt lat="43.537565" lon="12.5987167"><ele>332.0</ele><time>2026-04-22T13:06:01.617Z</time></trkpt><trkpt lat="43.53766" lon="12.59886"><ele>330.0</ele><time>2026-04-22T13:06:02.617Z</time></trkpt><trkpt lat="43.53775" lon="12.599015"><ele>328.0</ele><time>2026-04-22T13:06:03.617Z</time></trkpt><trkpt lat="43.537845" lon="12.5991767"><ele>331.0</ele><time>2026-04-22T13:06:04.618Z</time></trkpt><trkpt lat="43.53794" lon="12.5993433"><ele>334.0</ele><time>2026-04-22T13:06:05.618Z</time></trkpt><trkpt lat="43.538025" lon="12.5995133"><ele>337.0</ele><time>2026-04-22T13:06:06.617Z</time></trkpt><trkpt lat="43.538115" lon="12.5996767"><ele>337.0</ele><time>2026-04-22T13:06:07.617Z</time></trkpt><trkpt lat="43.5382" lon="12.5998633"><ele>337.0</ele><time>2026-04-22T13:06:08.617Z</time></trkpt><trkpt lat="43.5382933" lon="12.6000367"><ele>337.0</ele><time>2026-04-22T13:06:09.617Z</time></trkpt><trkpt lat="43.5384" lon="12.6001867"><ele>337.0</ele><time>2026-04-22T13:06:10.617Z</time></trkpt><trkpt lat="43.5385133" lon="12.60033"><ele>337.0</ele><time>2026-04-22T13:06:11.617Z</time></trkpt><trkpt lat="43.5386433" lon="12.60046"><ele>337.0</ele><time>2026-04-22T13:06:12.617Z</time></trkpt><trkpt lat="43.5387767" lon="12.600585"><ele>334.3333333333333</ele><time>2026-04-22T13:06:13.618Z</time></trkpt><trkpt lat="43.5389133" lon="12.60071"><ele>331.6666666666667</ele><time>2026-04-22T13:06:14.618Z</time></trkpt><trkpt lat="43.53906" lon="12.6008317"><ele>329.0</ele><time>2026-04-22T13:06:15.617Z</time></trkpt><trkpt lat="43.5392083" lon="12.60096"><ele>329.0</ele><time>2026-04-22T13:06:16.617Z</time></trkpt><trkpt lat="43.53936" lon="12.6010783"><ele>329.0</ele><time>2026-04-22T13:06:17.617Z</time></trkpt><trkpt lat="43.5395133" lon="12.6012017"><ele>329.0</ele><time>2026-04-22T13:06:18.618Z</time></trkpt><trkpt lat="43.5396517" lon="12.60132"><ele>327.75</ele><time>2026-04-22T13:06:19.617Z</time></trkpt><trkpt lat="43.5397833" lon="12.6014283"><ele>326.5</ele><time>2026-04-22T13:06:20.617Z</time></trkpt><trkpt lat="43.5399133" lon="12.6015283"><ele>325.25</ele><time>2026-04-22T13:06:21.617Z</time></trkpt><trkpt lat="43.5400467" lon="12.6015983"><ele>324.0</ele><time>2026-04-22T13:06:22.617Z</time></trkpt><trkpt lat="43.540185" lon="12.601655"><ele>324.0</ele><time>2026-04-22T13:06:23.617Z</time></trkpt><trkpt lat="43.5403367" lon="12.60168"><ele>324.0</ele><time>2026-04-22T13:06:24.617Z</time></trkpt><trkpt lat="43.5404817" lon="12.6016717"><ele>324.0</ele><time>2026-04-22T13:06:25.617Z</time></trkpt><trkpt lat="43.54063" lon="12.601665"><ele>324.0</ele><time>2026-04-22T13:06:26.617Z</time></trkpt><trkpt lat="43.5407817" lon="12.6016867"><ele>331.0</ele><time>2026-04-22T13:06:27.617Z</time></trkpt><trkpt lat="43.5409283" lon="12.60176"><ele>338.0</ele><time>2026-04-22T13:06:28.617Z</time></trkpt><trkpt lat="43.5410583" lon="12.60187"><ele>345.0</ele><time>2026-04-22T13:06:29.617Z</time></trkpt><trkpt lat="43.5411867" lon="12.6019967"><ele>342.6666666666667</ele><time>2026-04-22T13:06:30.618Z</time></trkpt><trkpt lat="43.54132" lon="12.602115"><ele>340.33333333333337</ele><time>2026-04-22T13:06:31.617Z</time></trkpt><trkpt lat="43.5414517" lon="12.6022467"><ele>338.0</ele><time>2026-04-22T13:06:32.617Z</time></trkpt><trkpt lat="43.5415833" lon="12.6023717"><ele>338.0</ele><time>2026-04-22T13:06:33.617Z</time></trkpt><trkpt lat="43.5417133" lon="12.6024967"><ele>338.0</ele><time>2026-04-22T13:06:34.618Z</time></trkpt><trkpt lat="43.54184" lon="12.602625"><ele>338.0</ele><time>2026-04-22T13:06:35.617Z</time></trkpt><trkpt lat="43.5419683" lon="12.6027533"><ele>335.33333333333337</ele><time>2026-04-22T13:06:36.617Z</time></trkpt><trkpt lat="43.5420933" lon="12.6028717"><ele>332.6666666666667</ele><time>2026-04-22T13:06:37.617Z</time></trkpt><trkpt lat="43.5422217" lon="12.60299"><ele>330.0</ele><time>2026-04-22T13:06:38.617Z</time></trkpt><trkpt lat="43.5423467" lon="12.6031067"><ele>330.0</ele><time>2026-04-22T13:06:39.618Z</time></trkpt><trkpt lat="43.54247" lon="12.60323"><ele>330.0</ele><time>2026-04-22T13:06:40.618Z</time></trkpt><trkpt lat="43.5425783" lon="12.6033683"><ele>330.0</ele><time>2026-04-22T13:06:41.617Z</time></trkpt><trkpt lat="43.5427017" lon="12.6035017"><ele>330.0</ele><time>2026-04-22T13:06:42.617Z</time></trkpt><trkpt lat="43.5428233" lon="12.6036217"><ele>330.0</ele><time>2026-04-22T13:06:43.617Z</time></trkpt><trkpt lat="43.5429383" lon="12.6037367"><ele>330.0</ele><time>2026-04-22T13:06:44.617Z</time></trkpt><trkpt lat="43.5430417" lon="12.60384"><ele>330.0</ele><time>2026-04-22T13:06:45.617Z</time></trkpt><trkpt lat="43.54314" lon="12.603935"><ele>329.6</ele><time>2026-04-22T13:06:46.617Z</time></trkpt><trkpt lat="43.5432383" lon="12.6040217"><ele>329.2</ele><time>2026-04-22T13:06:47.617Z</time></trkpt><trkpt lat="43.5433233" lon="12.6041"><ele>328.79999999999995</ele><time>2026-04-22T13:06:48.617Z</time></trkpt><trkpt lat="43.5434033" lon="12.604175"><ele>328.4</ele><time>2026-04-22T13:06:49.617Z</time></trkpt><trkpt lat="43.5434833" lon="12.604245"><ele>328.0</ele><time>2026-04-22T13:06:50.617Z</time></trkpt><trkpt lat="43.5435583" lon="12.6043083"><ele>328.0</ele><time>2026-04-22T13:06:51.617Z</time></trkpt><trkpt lat="43.5436367" lon="12.604365"><ele>328.0</ele><time>2026-04-22T13:06:52.617Z</time></trkpt><trkpt lat="43.5437317" lon="12.60442"><ele>328.0</ele><time>2026-04-22T13:06:53.618Z</time></trkpt><trkpt lat="43.5438217" lon="12.604475"><ele>328.0</ele><time>2026-04-22T13:06:54.617Z</time></trkpt><trkpt lat="43.54392" lon="12.6045333"><ele>328.0</ele><time>2026-04-22T13:06:55.617Z</time></trkpt><trkpt lat="43.5440133" lon="12.6045917"><ele>327.0</ele><time>2026-04-22T13:06:56.617Z</time></trkpt><trkpt lat="43.5441167" lon="12.6046333"><ele>326.0</ele><time>2026-04-22T13:06:57.617Z</time></trkpt><trkpt lat="43.5442117" lon="12.6046767"><ele>325.0</ele><time>2026-04-22T13:06:58.617Z</time></trkpt><trkpt lat="43.54431" lon="12.6047183"><ele>324.0</ele><time>2026-04-22T13:06:59.617Z</time></trkpt><trkpt lat="43.544405" lon="12.6047583"><ele>323.0</ele><time>2026-04-22T13:07:00.617Z</time></trkpt><trkpt lat="43.5445033" lon="12.6048017"><ele>323.0</ele><time>2026-04-22T13:07:01.617Z</time></trkpt><trkpt lat="43.5445983" lon="12.60484"><ele>323.0</ele><time>2026-04-22T13:07:02.617Z</time></trkpt><trkpt lat="43.544695" lon="12.6048767"><ele>323.0</ele><time>2026-04-22T13:07:03.617Z</time></trkpt><trkpt lat="43.5447883" lon="12.6049017"><ele>323.0</ele><time>2026-04-22T13:07:04.617Z</time></trkpt><trkpt lat="43.5448667" lon="12.6049367"><ele>323.0</ele><time>2026-04-22T13:07:05.617Z</time></trkpt><trkpt lat="43.5449417" lon="12.6049867"><ele>323.0</ele><time>2026-04-22T13:07:06.617Z</time></trkpt><trkpt lat="43.54503" lon="12.6050233"><ele>323.0</ele><time>2026-04-22T13:07:07.618Z</time></trkpt><trkpt lat="43.5451033" lon="12.6050483"><ele>323.0</ele><time>2026-04-22T13:07:08.617Z</time></trkpt><trkpt lat="43.5451783" lon="12.6050833"><ele>323.0</ele><time>2026-04-22T13:07:09.617Z</time></trkpt><trkpt lat="43.54526" lon="12.60511"><ele>323.0</ele><time>2026-04-22T13:07:10.617Z</time></trkpt><trkpt lat="43.54533" lon="12.6051333"><ele>323.0</ele><time>2026-04-22T13:07:11.618Z</time></trkpt><trkpt lat="43.545405" lon="12.605155"><ele>322.83333333333337</ele><time>2026-04-22T13:07:12.618Z</time></trkpt><trkpt lat="43.545485" lon="12.6051717"><ele>322.6666666666667</ele><time>2026-04-22T13:07:13.617Z</time></trkpt><trkpt lat="43.5455517" lon="12.6051917"><ele>322.5</ele><time>2026-04-22T13:07:14.617Z</time></trkpt><trkpt lat="43.545645" lon="12.6052117"><ele>322.3333333333333</ele><time>2026-04-22T13:07:15.617Z</time></trkpt><trkpt lat="43.5457383" lon="12.605225"><ele>322.16666666666663</ele><time>2026-04-22T13:07:16.617Z</time></trkpt><trkpt lat="43.5458383" lon="12.605235"><ele>322.0</ele><time>2026-04-22T13:07:17.618Z</time></trkpt><trkpt lat="43.5459317" lon="12.6052317"><ele>322.0</ele><time>2026-04-22T13:07:18.617Z</time></trkpt><trkpt lat="43.5460217" lon="12.6052267"><ele>322.0</ele><time>2026-04-22T13:07:19.618Z</time></trkpt><trkpt lat="43.546105" lon="12.6052183"><ele>322.0</ele><time>2026-04-22T13:07:20.618Z</time></trkpt><trkpt lat="43.5461867" lon="12.605205"><ele>322.0</ele><time>2026-04-22T13:07:21.617Z</time></trkpt><trkpt lat="43.546265" lon="12.6051883"><ele>322.0</ele><time>2026-04-22T13:07:22.617Z</time></trkpt><trkpt lat="43.5463467" lon="12.6051767"><ele>322.0</ele><time>2026-04-22T13:07:23.617Z</time></trkpt><trkpt lat="43.54644" lon="12.6051717"><ele>321.6</ele><time>2026-04-22T13:07:24.617Z</time></trkpt><trkpt lat="43.5465367" lon="12.6051683"><ele>321.20000000000005</ele><time>2026-04-22T13:07:25.617Z</time></trkpt><trkpt lat="43.5466183" lon="12.6051733"><ele>320.8</ele><time>2026-04-22T13:07:26.617Z</time></trkpt><trkpt lat="43.54671" lon="12.6051817"><ele>320.4</ele><time>2026-04-22T13:07:27.617Z</time></trkpt><trkpt lat="43.5468033" lon="12.60519"><ele>320.0</ele><time>2026-04-22T13:07:28.617Z</time></trkpt><trkpt lat="43.5468983" lon="12.60521"><ele>320.0</ele><time>2026-04-22T13:07:29.617Z</time></trkpt><trkpt lat="43.5469917" lon="12.60524"><ele>320.0</ele><time>2026-04-22T13:07:30.617Z</time></trkpt><trkpt lat="43.5470833" lon="12.6052733"><ele>320.0</ele><time>2026-04-22T13:07:31.617Z</time></trkpt><trkpt lat="43.5471733" lon="12.6053133"><ele>320.0</ele><time>2026-04-22T13:07:32.617Z</time></trkpt><trkpt lat="43.547265" lon="12.6053567"><ele>320.0</ele><time>2026-04-22T13:07:33.617Z</time></trkpt><trkpt lat="43.5473567" lon="12.6053967"><ele>319.4</ele><time>2026-04-22T13:07:34.617Z</time></trkpt><trkpt lat="43.5474483" lon="12.6054517"><ele>318.8</ele><time>2026-04-22T13:07:35.617Z</time></trkpt><trkpt lat="43.5475333" lon="12.605505"><ele>318.2</ele><time>2026-04-22T13:07:36.617Z</time></trkpt><trkpt lat="43.54762" lon="12.60557"><ele>317.6</ele><time>2026-04-22T13:07:37.617Z</time></trkpt><trkpt lat="43.5477067" lon="12.605645"><ele>317.0</ele><time>2026-04-22T13:07:38.617Z</time></trkpt><trkpt lat="43.5477883" lon="12.6057183"><ele>317.0</ele><time>2026-04-22T13:07:39.618Z</time></trkpt><trkpt lat="43.54787" lon="12.6058033"><ele>317.0</ele><time>2026-04-22T13:07:40.617Z</time></trkpt><trkpt lat="43.5479567" lon="12.6058933"><ele>317.0</ele><time>2026-04-22T13:07:41.617Z</time></trkpt><trkpt lat="43.5480417" lon="12.6059867"><ele>317.0</ele><time>2026-04-22T13:07:42.617Z</time></trkpt><trkpt lat="43.5481217" lon="12.6060683"><ele>317.0</ele><time>2026-04-22T13:07:43.617Z</time></trkpt><trkpt lat="43.5482033" lon="12.606135"><ele>317.4</ele><time>2026-04-22T13:07:44.618Z</time></trkpt><trkpt lat="43.5482783" lon="12.6062267"><ele>317.79999999999995</ele><time>2026-04-22T13:07:45.617Z</time></trkpt><trkpt lat="43.548365" lon="12.6063"><ele>318.2</ele><time>2026-04-22T13:07:46.617Z</time></trkpt><trkpt lat="43.5484383" lon="12.6063633"><ele>318.59999999999997</ele><time>2026-04-22T13:07:47.617Z</time></trkpt><trkpt lat="43.54851" lon="12.6064383"><ele>319.0</ele><time>2026-04-22T13:07:48.617Z</time></trkpt><trkpt lat="43.548565" lon="12.6065233"><ele>319.0</ele><time>2026-04-22T13:07:49.618Z</time></trkpt><trkpt lat="43.5485967" lon="12.60663"><ele>319.0</ele><time>2026-04-22T13:07:50.617Z</time></trkpt><trkpt lat="43.5486033" lon="12.6067483"><ele>319.0</ele><time>2026-04-22T13:07:51.617Z</time></trkpt><trkpt lat="43.548585" lon="12.6068783"><ele>319.0</ele><time>2026-04-22T13:07:52.617Z</time></trkpt><trkpt lat="43.54855" lon="12.60703"><ele>319.0</ele><time>2026-04-22T13:07:53.618Z</time></trkpt><trkpt lat="43.5485017" lon="12.60719"><ele>319.75</ele><time>2026-04-22T13:07:54.617Z</time></trkpt><trkpt lat="43.5484583" lon="12.60735"><ele>320.5</ele><time>2026-04-22T13:07:55.617Z</time></trkpt><trkpt lat="43.5484233" lon="12.6075133"><ele>321.25</ele><time>2026-04-22T13:07:56.617Z</time></trkpt><trkpt lat="43.5483883" lon="12.6076817"><ele>322.0</ele><time>2026-04-22T13:07:57.617Z</time></trkpt><trkpt lat="43.548355" lon="12.607855"><ele>322.25</ele><time>2026-04-22T13:07:58.617Z</time></trkpt><trkpt lat="43.54832" lon="12.6080283"><ele>322.5</ele><time>2026-04-22T13:07:59.617Z</time></trkpt><trkpt lat="43.54829" lon="12.60821"><ele>322.75</ele><time>2026-04-22T13:08:00.617Z</time></trkpt><trkpt lat="43.548265" lon="12.6083867"><ele>323.0</ele><time>2026-04-22T13:08:01.618Z</time></trkpt><trkpt lat="43.5482483" lon="12.6085583"><ele>322.5</ele><time>2026-04-22T13:08:02.617Z</time></trkpt><trkpt lat="43.54825" lon="12.6087317"><ele>322.0</ele><time>2026-04-22T13:08:03.618Z</time></trkpt><trkpt lat="43.5482617" lon="12.60891"><ele>321.5</ele><time>2026-04-22T13:08:04.617Z</time></trkpt><trkpt lat="43.548275" lon="12.609085"><ele>321.0</ele><time>2026-04-22T13:08:05.618Z</time></trkpt><trkpt lat="43.548305" lon="12.60925"><ele>321.0</ele><time>2026-04-22T13:08:06.617Z</time></trkpt><trkpt lat="43.54834" lon="12.6094233"><ele>321.0</ele><time>2026-04-22T13:08:07.617Z</time></trkpt><trkpt lat="43.548375" lon="12.6095933"><ele>321.0</ele><time>2026-04-22T13:08:08.617Z</time></trkpt><trkpt lat="43.5484283" lon="12.6097733"><ele>321.0</ele><time>2026-04-22T13:08:09.617Z</time></trkpt><trkpt lat="43.5484967" lon="12.6099617"><ele>322.6666666666667</ele><time>2026-04-22T13:08:10.617Z</time></trkpt><trkpt lat="43.54858" lon="12.610145"><ele>324.33333333333337</ele><time>2026-04-22T13:08:11.617Z</time></trkpt><trkpt lat="43.5486667" lon="12.6103333"><ele>326.0</ele><time>2026-04-22T13:08:12.618Z</time></trkpt><trkpt lat="43.5487533" lon="12.6105233"><ele>326.0</ele><time>2026-04-22T13:08:13.618Z</time></trkpt><trkpt lat="43.548845" lon="12.610725"><ele>326.0</ele><time>2026-04-22T13:08:14.617Z</time></trkpt><trkpt lat="43.548945" lon="12.6109367"><ele>326.0</ele><time>2026-04-22T13:08:15.618Z</time></trkpt><trkpt lat="43.5490467" lon="12.6111483"><ele>322.0</ele><time>2026-04-22T13:08:16.617Z</time></trkpt><trkpt lat="43.5491533" lon="12.61136"><ele>318.0</ele><time>2026-04-22T13:08:17.617Z</time></trkpt><trkpt lat="43.5492583" lon="12.6115733"><ele>314.0</ele><time>2026-04-22T13:08:18.617Z</time></trkpt><trkpt lat="43.5493533" lon="12.6117917"><ele>312.0</ele><time>2026-04-22T13:08:19.617Z</time></trkpt><trkpt lat="43.5494567" lon="12.6120133"><ele>310.0</ele><time>2026-04-22T13:08:20.617Z</time></trkpt><trkpt lat="43.5495383" lon="12.6122367"><ele>308.0</ele><time>2026-04-22T13:08:21.617Z</time></trkpt><trkpt lat="43.5496083" lon="12.6124617"><ele>312.6666666666667</ele><time>2026-04-22T13:08:22.618Z</time></trkpt><trkpt lat="43.54966" lon="12.6126983"><ele>317.3333333333333</ele><time>2026-04-22T13:08:23.617Z</time></trkpt><trkpt lat="43.5497033" lon="12.6129433"><ele>322.0</ele><time>2026-04-22T13:08:24.617Z</time></trkpt><trkpt lat="43.5497417" lon="12.6131933"><ele>322.0</ele><time>2026-04-22T13:08:25.617Z</time></trkpt><trkpt lat="43.5497783" lon="12.6134433"><ele>322.0</ele><time>2026-04-22T13:08:26.617Z</time></trkpt><trkpt lat="43.54981" lon="12.6136917"><ele>322.0</ele><time>2026-04-22T13:08:27.617Z</time></trkpt><trkpt lat="43.549845" lon="12.6139317"><ele>319.0</ele><time>2026-04-22T13:08:28.617Z</time></trkpt><trkpt lat="43.54988" lon="12.6141567"><ele>316.0</ele><time>2026-04-22T13:08:29.617Z</time></trkpt><trkpt lat="43.549915" lon="12.6143733"><ele>313.0</ele><time>2026-04-22T13:08:30.617Z</time></trkpt><trkpt lat="43.5499467" lon="12.6145767"><ele>311.0</ele><time>2026-04-22T13:08:31.618Z</time></trkpt><trkpt lat="43.549965" lon="12.614775"><ele>309.0</ele><time>2026-04-22T13:08:32.618Z</time></trkpt><trkpt lat="43.5499717" lon="12.614975"><ele>307.0</ele><time>2026-04-22T13:08:33.617Z</time></trkpt><trkpt lat="43.5499533" lon="12.615165"><ele>305.0</ele><time>2026-04-22T13:08:34.617Z</time></trkpt><trkpt lat="43.54991" lon="12.61536"><ele>304.0</ele><time>2026-04-22T13:08:35.617Z</time></trkpt><trkpt lat="43.5498467" lon="12.6155567"><ele>303.0</ele><time>2026-04-22T13:08:36.617Z</time></trkpt><trkpt lat="43.54977" lon="12.6157383"><ele>302.0</ele><time>2026-04-22T13:08:37.617Z</time></trkpt><trkpt lat="43.5496967" lon="12.615915"><ele>302.0</ele><time>2026-04-22T13:08:38.617Z</time></trkpt><trkpt lat="43.5496283" lon="12.61608"><ele>302.0</ele><time>2026-04-22T13:08:39.617Z</time></trkpt><trkpt lat="43.5495583" lon="12.6162383"><ele>302.0</ele><time>2026-04-22T13:08:40.617Z</time></trkpt><trkpt lat="43.549485" lon="12.6163967"><ele>302.0</ele><time>2026-04-22T13:08:41.618Z</time></trkpt><trkpt lat="43.54941" lon="12.61655"><ele>302.5</ele><time>2026-04-22T13:08:42.617Z</time></trkpt><trkpt lat="43.5493417" lon="12.6167083"><ele>303.0</ele><time>2026-04-22T13:08:43.618Z</time></trkpt><trkpt lat="43.54927" lon="12.6168683"><ele>303.5</ele><time>2026-04-22T13:08:44.617Z</time></trkpt><trkpt lat="43.5492033" lon="12.6170233"><ele>304.0</ele><time>2026-04-22T13:08:45.618Z</time></trkpt><trkpt lat="43.5491333" lon="12.6171683"><ele>303.0</ele><time>2026-04-22T13:08:46.617Z</time></trkpt><trkpt lat="43.54905" lon="12.6173033"><ele>302.0</ele><time>2026-04-22T13:08:47.617Z</time></trkpt><trkpt lat="43.54895" lon="12.6174183"><ele>301.0</ele><time>2026-04-22T13:08:48.617Z</time></trkpt><trkpt lat="43.5488367" lon="12.6175183"><ele>300.0</ele><time>2026-04-22T13:08:49.617Z</time></trkpt><trkpt lat="43.5487083" lon="12.617615"><ele>300.25</ele><time>2026-04-22T13:08:50.618Z</time></trkpt><trkpt lat="43.5485717" lon="12.617705"><ele>300.5</ele><time>2026-04-22T13:08:51.617Z</time></trkpt><trkpt lat="43.54844" lon="12.6177883"><ele>300.75</ele><time>2026-04-22T13:08:52.617Z</time></trkpt><trkpt lat="43.5483183" lon="12.61787"><ele>301.0</ele><time>2026-04-22T13:08:53.617Z</time></trkpt><trkpt lat="43.5482067" lon="12.61795"><ele>301.0</ele><time>2026-04-22T13:08:54.617Z</time></trkpt><trkpt lat="43.5481017" lon="12.618045"><ele>301.0</ele><time>2026-04-22T13:08:55.617Z</time></trkpt><trkpt lat="43.5480033" lon="12.618175"><ele>301.0</ele><time>2026-04-22T13:08:56.617Z</time></trkpt><trkpt lat="43.5479167" lon="12.618335"><ele>301.0</ele><time>2026-04-22T13:08:57.617Z</time></trkpt><trkpt lat="43.5478467" lon="12.6185217"><ele>305.25</ele><time>2026-04-22T13:08:58.617Z</time></trkpt><trkpt lat="43.5477967" lon="12.61872"><ele>309.5</ele><time>2026-04-22T13:08:59.617Z</time></trkpt><trkpt lat="43.5477717" lon="12.6189183"><ele>313.75</ele><time>2026-04-22T13:09:00.617Z</time></trkpt><trkpt lat="43.5477533" lon="12.6191167"><ele>318.0</ele><time>2026-04-22T13:09:01.617Z</time></trkpt><trkpt lat="43.5477483" lon="12.6193033"><ele>319.0</ele><time>2026-04-22T13:09:02.617Z</time></trkpt><trkpt lat="43.5477367" lon="12.619495"><ele>320.0</ele><time>2026-04-22T13:09:03.617Z</time></trkpt><trkpt lat="43.5477333" lon="12.61969"><ele>321.0</ele><time>2026-04-22T13:09:04.617Z</time></trkpt><trkpt lat="43.5477283" lon="12.6198817"><ele>322.0</ele><time>2026-04-22T13:09:05.617Z</time></trkpt><trkpt lat="43.5477433" lon="12.6200667"><ele>322.0</ele><time>2026-04-22T13:09:06.618Z</time></trkpt><trkpt lat="43.547755" lon="12.62025"><ele>322.0</ele><time>2026-04-22T13:09:07.617Z</time></trkpt><trkpt lat="43.5477567" lon="12.6204367"><ele>322.0</ele><time>2026-04-22T13:09:08.617Z</time></trkpt><trkpt lat="43.54778" lon="12.6206217"><ele>322.0</ele><time>2026-04-22T13:09:09.617Z</time></trkpt><trkpt lat="43.5478133" lon="12.6207983"><ele>319.5</ele><time>2026-04-22T13:09:10.617Z</time></trkpt><trkpt lat="43.5478867" lon="12.6209517"><ele>317.0</ele><time>2026-04-22T13:09:11.617Z</time></trkpt><trkpt lat="43.5479817" lon="12.62109"><ele>314.5</ele><time>2026-04-22T13:09:12.617Z</time></trkpt><trkpt lat="43.5481017" lon="12.6212133"><ele>312.0</ele><time>2026-04-22T13:09:13.617Z</time></trkpt><trkpt lat="43.5482417" lon="12.62133"><ele>312.0</ele><time>2026-04-22T13:09:14.617Z</time></trkpt><trkpt lat="43.5483883" lon="12.62145"><ele>312.0</ele><time>2026-04-22T13:09:15.617Z</time></trkpt><trkpt lat="43.5485233" lon="12.6215667"><ele>312.0</ele><time>2026-04-22T13:09:16.617Z</time></trkpt><trkpt lat="43.5486517" lon="12.6216967"><ele>310.0</ele><time>2026-04-22T13:09:17.617Z</time></trkpt><trkpt lat="43.5487667" lon="12.62184"><ele>308.0</ele><time>2026-04-22T13:09:18.617Z</time></trkpt><trkpt lat="43.548875" lon="12.6220017"><ele>306.0</ele><time>2026-04-22T13:09:19.617Z</time></trkpt><trkpt lat="43.5489667" lon="12.6221883"><ele>306.0</ele><time>2026-04-22T13:09:20.617Z</time></trkpt><trkpt lat="43.5490567" lon="12.62238"><ele>306.0</ele><time>2026-04-22T13:09:21.617Z</time></trkpt><trkpt lat="43.5491433" lon="12.62258"><ele>306.0</ele><time>2026-04-22T13:09:22.618Z</time></trkpt><trkpt lat="43.5492317" lon="12.6227767"><ele>310.3333333333333</ele><time>2026-04-22T13:09:23.617Z</time></trkpt><trkpt lat="43.54931" lon="12.6229817"><ele>314.66666666666663</ele><time>2026-04-22T13:09:24.617Z</time></trkpt><trkpt lat="43.5493917" lon="12.623185"><ele>319.0</ele><time>2026-04-22T13:09:25.617Z</time></trkpt><trkpt lat="43.5494717" lon="12.6233783"><ele>319.0</ele><time>2026-04-22T13:09:26.617Z</time></trkpt><trkpt lat="43.54954" lon="12.623565"><ele>319.0</ele><time>2026-04-22T13:09:27.617Z</time></trkpt><trkpt lat="43.5495967" lon="12.6237533"><ele>319.0</ele><time>2026-04-22T13:09:28.617Z</time></trkpt><trkpt lat="43.5496317" lon="12.6239433"><ele>319.0</ele><time>2026-04-22T13:09:29.618Z</time></trkpt><trkpt lat="43.5496367" lon="12.6241317"><ele>314.0</ele><time>2026-04-22T13:09:30.618Z</time></trkpt><trkpt lat="43.54963" lon="12.624315"><ele>309.0</ele><time>2026-04-22T13:09:31.617Z</time></trkpt><trkpt lat="43.5495883" lon="12.624495"><ele>304.0</ele><time>2026-04-22T13:09:32.617Z</time></trkpt><trkpt lat="43.5495167" lon="12.62467"><ele>299.0</ele><time>2026-04-22T13:09:33.617Z</time></trkpt><trkpt lat="43.5494217" lon="12.624825"><ele>299.0</ele><time>2026-04-22T13:09:34.617Z</time></trkpt><trkpt lat="43.5493033" lon="12.6249583"><ele>299.0</ele><time>2026-04-22T13:09:35.618Z</time></trkpt><trkpt lat="43.5491683" lon="12.6250683"><ele>299.0</ele><time>2026-04-22T13:09:36.617Z</time></trkpt><trkpt lat="43.5490117" lon="12.625135"><ele>299.0</ele><time>2026-04-22T13:09:37.617Z</time></trkpt><trkpt lat="43.5488433" lon="12.6251767"><ele>299.0</ele><time>2026-04-22T13:09:38.617Z</time></trkpt><trkpt lat="43.5486733" lon="12.625205"><ele>299.0</ele><time>2026-04-22T13:09:39.617Z</time></trkpt><trkpt lat="43.5484983" lon="12.625245"><ele>300.6666666666667</ele><time>2026-04-22T13:09:40.617Z</time></trkpt><trkpt lat="43.5483167" lon="12.6252917"><ele>302.3333333333333</ele><time>2026-04-22T13:09:41.617Z</time></trkpt><trkpt lat="43.5481333" lon="12.6253317"><ele>304.0</ele><time>2026-04-22T13:09:42.617Z</time></trkpt><trkpt lat="43.54796" lon="12.625365"><ele>298.66666666666663</ele><time>2026-04-22T13:09:43.617Z</time></trkpt><trkpt lat="43.547785" lon="12.6254017"><ele>293.3333333333333</ele><time>2026-04-22T13:09:44.617Z</time></trkpt><trkpt lat="43.5475967" lon="12.6254633"><ele>288.0</ele><time>2026-04-22T13:09:45.617Z</time></trkpt><trkpt lat="43.547415" lon="12.6255117"><ele>288.0</ele><time>2026-04-22T13:09:46.617Z</time></trkpt><trkpt lat="43.5472283" lon="12.6255617"><ele>288.0</ele><time>2026-04-22T13:09:47.617Z</time></trkpt><trkpt lat="43.5470333" lon="12.625615"><ele>288.0</ele><time>2026-04-22T13:09:48.617Z</time></trkpt><trkpt lat="43.54683" lon="12.625675"><ele>290.3333333333333</ele><time>2026-04-22T13:09:49.617Z</time></trkpt><trkpt lat="43.54663" lon="12.6257417"><ele>292.66666666666663</ele><time>2026-04-22T13:09:50.617Z</time></trkpt><trkpt lat="43.5464267" lon="12.6258467"><ele>295.0</ele><time>2026-04-22T13:09:51.617Z</time></trkpt><trkpt lat="43.5462317" lon="12.6259617"><ele>293.3333333333333</ele><time>2026-04-22T13:09:52.617Z</time></trkpt><trkpt lat="43.5460433" lon="12.6260917"><ele>291.6666666666667</ele><time>2026-04-22T13:09:53.617Z</time></trkpt><trkpt lat="43.5458533" lon="12.6262217"><ele>290.0</ele><time>2026-04-22T13:09:54.617Z</time></trkpt><trkpt lat="43.54567" lon="12.6263533"><ele>290.0</ele><time>2026-04-22T13:09:55.617Z</time></trkpt><trkpt lat="43.54548" lon="12.6265017"><ele>290.0</ele><time>2026-04-22T13:09:56.617Z</time></trkpt><trkpt lat="43.5453033" lon="12.6266567"><ele>290.0</ele><time>2026-04-22T13:09:57.617Z</time></trkpt><trkpt lat="43.5451267" lon="12.6268117"><ele>290.33333333333337</ele><time>2026-04-22T13:09:58.617Z</time></trkpt><trkpt lat="43.5449567" lon="12.6269817"><ele>290.6666666666667</ele><time>2026-04-22T13:09:59.618Z</time></trkpt><trkpt lat="43.5448033" lon="12.6271717"><ele>291.0</ele><time>2026-04-22T13:10:00.617Z</time></trkpt><trkpt lat="43.5446683" lon="12.6273533"><ele>296.6666666666667</ele><time>2026-04-22T13:10:01.618Z</time></trkpt><trkpt lat="43.5445433" lon="12.6275217"><ele>302.33333333333337</ele><time>2026-04-22T13:10:02.618Z</time></trkpt><trkpt lat="43.5444167" lon="12.6276667"><ele>308.0</ele><time>2026-04-22T13:10:03.617Z</time></trkpt><trkpt lat="43.5442783" lon="12.6277783"><ele>308.0</ele><time>2026-04-22T13:10:04.617Z</time></trkpt><trkpt lat="43.5441433" lon="12.62783"><ele>308.0</ele><time>2026-04-22T13:10:05.617Z</time></trkpt><trkpt lat="43.5440133" lon="12.62784"><ele>308.0</ele><time>2026-04-22T13:10:06.618Z</time></trkpt><trkpt lat="43.5438783" lon="12.62782"><ele>308.0</ele><time>2026-04-22T13:10:07.617Z</time></trkpt><trkpt lat="43.5437317" lon="12.627795"><ele>312.0</ele><time>2026-04-22T13:10:08.617Z</time></trkpt><trkpt lat="43.5435833" lon="12.62777"><ele>316.0</ele><time>2026-04-22T13:10:09.617Z</time></trkpt><trkpt lat="43.5434217" lon="12.62777"><ele>320.0</ele><time>2026-04-22T13:10:10.617Z</time></trkpt><trkpt lat="43.543255" lon="12.62781"><ele>316.0</ele><time>2026-04-22T13:10:11.617Z</time></trkpt><trkpt lat="43.5430717" lon="12.627895"><ele>312.0</ele><time>2026-04-22T13:10:12.617Z</time></trkpt><trkpt lat="43.5428983" lon="12.6280017"><ele>308.0</ele><time>2026-04-22T13:10:13.617Z</time></trkpt><trkpt lat="43.54273" lon="12.6281167"><ele>308.0</ele><time>2026-04-22T13:10:14.617Z</time></trkpt><trkpt lat="43.542575" lon="12.6282167"><ele>308.0</ele><time>2026-04-22T13:10:15.618Z</time></trkpt><trkpt lat="43.5424217" lon="12.6283183"><ele>308.0</ele><time>2026-04-22T13:10:16.617Z</time></trkpt><trkpt lat="43.5422833" lon="12.628475"><ele>301.6666666666667</ele><time>2026-04-22T13:10:17.617Z</time></trkpt><trkpt lat="43.5421617" lon="12.6286583"><ele>295.3333333333333</ele><time>2026-04-22T13:10:18.617Z</time></trkpt><trkpt lat="43.5420567" lon="12.6288717"><ele>289.0</ele><time>2026-04-22T13:10:19.617Z</time></trkpt><trkpt lat="43.5419717" lon="12.62913"><ele>296.0</ele><time>2026-04-22T13:10:20.617Z</time></trkpt><trkpt lat="43.5418817" lon="12.6293933"><ele>303.0</ele><time>2026-04-22T13:10:21.617Z</time></trkpt><trkpt lat="43.541795" lon="12.6296467"><ele>310.0</ele><time>2026-04-22T13:10:22.617Z</time></trkpt><trkpt lat="43.5417067" lon="12.6298983"><ele>310.0</ele><time>2026-04-22T13:10:23.617Z</time></trkpt><trkpt lat="43.54161" lon="12.6301583"><ele>310.0</ele><time>2026-04-22T13:10:24.617Z</time></trkpt><trkpt lat="43.54151" lon="12.630415"><ele>310.0</ele><time>2026-04-22T13:10:25.618Z</time></trkpt><trkpt lat="43.5414017" lon="12.63065"><ele>307.3333333333333</ele><time>2026-04-22T13:10:26.617Z</time></trkpt><trkpt lat="43.5412917" lon="12.6308667"><ele>304.6666666666667</ele><time>2026-04-22T13:10:27.618Z</time></trkpt><trkpt lat="43.5411717" lon="12.6310733"><ele>302.0</ele><time>2026-04-22T13:10:28.618Z</time></trkpt><trkpt lat="43.541045" lon="12.6312733"><ele>302.0</ele><time>2026-04-22T13:10:29.617Z</time></trkpt><trkpt lat="43.5409183" lon="12.6314717"><ele>302.0</ele><time>2026-04-22T13:10:30.617Z</time></trkpt><trkpt lat="43.5407967" lon="12.63166"><ele>302.0</ele><time>2026-04-22T13:10:31.617Z</time></trkpt><trkpt lat="43.5406733" lon="12.6318383"><ele>297.33333333333337</ele><time>2026-04-22T13:10:32.617Z</time></trkpt><trkpt lat="43.5405583" lon="12.6320267"><ele>292.6666666666667</ele><time>2026-04-22T13:10:33.617Z</time></trkpt><trkpt lat="43.5404683" lon="12.63224"><ele>288.0</ele><time>2026-04-22T13:10:34.617Z</time></trkpt><trkpt lat="43.5403917" lon="12.6324833"><ele>297.3333333333333</ele><time>2026-04-22T13:10:35.618Z</time></trkpt><trkpt lat="43.5403317" lon="12.6327467"><ele>306.66666666666663</ele><time>2026-04-22T13:10:36.617Z</time></trkpt><trkpt lat="43.5402783" lon="12.6329967"><ele>316.0</ele><time>2026-04-22T13:10:37.617Z</time></trkpt><trkpt lat="43.5402133" lon="12.6332317"><ele>316.0</ele><time>2026-04-22T13:10:38.617Z</time></trkpt><trkpt lat="43.5401333" lon="12.633465"><ele>316.0</ele><time>2026-04-22T13:10:39.618Z</time></trkpt><trkpt lat="43.5400433" lon="12.6336717"><ele>316.0</ele><time>2026-04-22T13:10:40.617Z</time></trkpt><trkpt lat="43.5399483" lon="12.63386"><ele>310.3333333333333</ele><time>2026-04-22T13:10:41.617Z</time></trkpt><trkpt lat="43.5398583" lon="12.634035"><ele>304.6666666666667</ele><time>2026-04-22T13:10:42.617Z</time></trkpt><trkpt lat="43.5397683" lon="12.634195"><ele>299.0</ele><time>2026-04-22T13:10:43.617Z</time></trkpt><trkpt lat="43.5396883" lon="12.6344033"><ele>296.0</ele><time>2026-04-22T13:10:44.617Z</time></trkpt><trkpt lat="43.539595" lon="12.63464"><ele>293.0</ele><time>2026-04-22T13:10:45.618Z</time></trkpt><trkpt lat="43.5395" lon="12.6349017"><ele>290.0</ele><time>2026-04-22T13:10:46.617Z</time></trkpt><trkpt lat="43.5394083" lon="12.6351433"><ele>292.6666666666667</ele><time>2026-04-22T13:10:47.617Z</time></trkpt><trkpt lat="43.5393167" lon="12.6353717"><ele>295.3333333333333</ele><time>2026-04-22T13:10:48.617Z</time></trkpt><trkpt lat="43.5392183" lon="12.6355933"><ele>298.0</ele><time>2026-04-22T13:10:49.618Z</time></trkpt><trkpt lat="43.5391133" lon="12.635805"><ele>298.0</ele><time>2026-04-22T13:10:50.617Z</time></trkpt><trkpt lat="43.5390067" lon="12.63601"><ele>298.0</ele><time>2026-04-22T13:10:51.617Z</time></trkpt><trkpt lat="43.5389083" lon="12.6361917"><ele>298.0</ele><time>2026-04-22T13:10:52.617Z</time></trkpt><trkpt lat="43.53882" lon="12.636345"><ele>293.75</ele><time>2026-04-22T13:10:53.617Z</time></trkpt><trkpt lat="43.538745" lon="12.6365017"><ele>289.5</ele><time>2026-04-22T13:10:54.617Z</time></trkpt><trkpt lat="43.5386633" lon="12.6366433"><ele>285.25</ele><time>2026-04-22T13:10:55.617Z</time></trkpt><trkpt lat="43.53861" lon="12.636815"><ele>281.0</ele><time>2026-04-22T13:10:56.617Z</time></trkpt><trkpt lat="43.5385733" lon="12.6369917"><ele>295.0</ele><time>2026-04-22T13:10:57.618Z</time></trkpt><trkpt lat="43.5385567" lon="12.637195"><ele>309.0</ele><time>2026-04-22T13:10:58.617Z</time></trkpt><trkpt lat="43.538575" lon="12.637395"><ele>323.0</ele><time>2026-04-22T13:10:59.617Z</time></trkpt><trkpt lat="43.5386433" lon="12.637615"><ele>314.6666666666667</ele><time>2026-04-22T13:11:00.617Z</time></trkpt><trkpt lat="43.538735" lon="12.6378083"><ele>306.3333333333333</ele><time>2026-04-22T13:11:01.617Z</time></trkpt><trkpt lat="43.5388367" lon="12.63797"><ele>298.0</ele><time>2026-04-22T13:11:02.617Z</time></trkpt><trkpt lat="43.5389633" lon="12.638095"><ele>298.0</ele><time>2026-04-22T13:11:03.618Z</time></trkpt><trkpt lat="43.5391117" lon="12.638185"><ele>298.0</ele><time>2026-04-22T13:11:04.617Z</time></trkpt><trkpt lat="43.5392667" lon="12.6382467"><ele>298.0</ele><time>2026-04-22T13:11:05.617Z</time></trkpt><trkpt lat="43.539425" lon="12.63828"><ele>293.0</ele><time>2026-04-22T13:11:06.617Z</time></trkpt><trkpt lat="43.5395733" lon="12.6382983"><ele>288.0</ele><time>2026-04-22T13:11:07.617Z</time></trkpt><trkpt lat="43.539725" lon="12.638325"><ele>283.0</ele><time>2026-04-22T13:11:08.617Z</time></trkpt><trkpt lat="43.5398783" lon="12.6383667"><ele>283.0</ele><time>2026-04-22T13:11:09.617Z</time></trkpt><trkpt lat="43.5400333" lon="12.638435"><ele>283.0</ele><time>2026-04-22T13:11:10.617Z</time></trkpt><trkpt lat="43.5401817" lon="12.6385267"><ele>283.0</ele><time>2026-04-22T13:11:11.617Z</time></trkpt><trkpt lat="43.5403267" lon="12.638625"><ele>284.3333333333333</ele><time>2026-04-22T13:11:12.617Z</time></trkpt><trkpt lat="43.540475" lon="12.6387283"><ele>285.6666666666667</ele><time>2026-04-22T13:11:13.617Z</time></trkpt><trkpt lat="43.5406317" lon="12.6388417"><ele>287.0</ele><time>2026-04-22T13:11:14.617Z</time></trkpt><trkpt lat="43.54079" lon="12.638945"><ele>287.0</ele><time>2026-04-22T13:11:15.618Z</time></trkpt><trkpt lat="43.5409467" lon="12.6390583"><ele>287.0</ele><time>2026-04-22T13:11:16.617Z</time></trkpt><trkpt lat="43.5410967" lon="12.639165"><ele>287.0</ele><time>2026-04-22T13:11:17.617Z</time></trkpt><trkpt lat="43.54126" lon="12.639275"><ele>287.6666666666667</ele><time>2026-04-22T13:11:18.617Z</time></trkpt><trkpt lat="43.5414217" lon="12.63938"><ele>288.3333333333333</ele><time>2026-04-22T13:11:19.617Z</time></trkpt><trkpt lat="43.5415867" lon="12.6394883"><ele>289.0</ele><time>2026-04-22T13:11:20.617Z</time></trkpt><trkpt lat="43.5417383" lon="12.6396"><ele>289.0</ele><time>2026-04-22T13:11:21.617Z</time></trkpt><trkpt lat="43.541895" lon="12.6397167"><ele>289.0</ele><time>2026-04-22T13:11:22.617Z</time></trkpt><trkpt lat="43.5420517" lon="12.63983"><ele>289.0</ele><time>2026-04-22T13:11:23.617Z</time></trkpt><trkpt lat="43.5422067" lon="12.639935"><ele>285.3333333333333</ele><time>2026-04-22T13:11:24.617Z</time></trkpt><trkpt lat="43.5423617" lon="12.6400483"><ele>281.6666666666667</ele><time>2026-04-22T13:11:25.617Z</time></trkpt><trkpt lat="43.54252" lon="12.6401617"><ele>278.0</ele><time>2026-04-22T13:11:26.617Z</time></trkpt><trkpt lat="43.5426683" lon="12.6402683"><ele>280.33333333333337</ele><time>2026-04-22T13:11:27.617Z</time></trkpt><trkpt lat="43.542805" lon="12.6403783"><ele>282.6666666666667</ele><time>2026-04-22T13:11:28.617Z</time></trkpt><trkpt lat="43.5429367" lon="12.6405083"><ele>285.0</ele><time>2026-04-22T13:11:29.617Z</time></trkpt><trkpt lat="43.543065" lon="12.6406417"><ele>285.0</ele><time>2026-04-22T13:11:30.617Z</time></trkpt><trkpt lat="43.5431833" lon="12.64078"><ele>285.0</ele><time>2026-04-22T13:11:31.617Z</time></trkpt><trkpt lat="43.5433067" lon="12.640915"><ele>285.0</ele><time>2026-04-22T13:11:32.617Z</time></trkpt><trkpt lat="43.5434117" lon="12.6410683"><ele>284.0</ele><time>2026-04-22T13:11:33.617Z</time></trkpt><trkpt lat="43.5435183" lon="12.6412233"><ele>283.0</ele><time>2026-04-22T13:11:34.617Z</time></trkpt><trkpt lat="43.54363" lon="12.6413783"><ele>282.0</ele><time>2026-04-22T13:11:35.617Z</time></trkpt><trkpt lat="43.5437417" lon="12.6415383"><ele>282.0</ele><time>2026-04-22T13:11:36.617Z</time></trkpt><trkpt lat="43.54385" lon="12.641695"><ele>282.0</ele><time>2026-04-22T13:11:37.617Z</time></trkpt><trkpt lat="43.543955" lon="12.641845"><ele>282.0</ele><time>2026-04-22T13:11:38.617Z</time></trkpt><trkpt lat="43.5440567" lon="12.6419933"><ele>284.5</ele><time>2026-04-22T13:11:39.617Z</time></trkpt><trkpt lat="43.5441467" lon="12.642135"><ele>287.0</ele><time>2026-04-22T13:11:40.618Z</time></trkpt><trkpt lat="43.544235" lon="12.6422683"><ele>289.5</ele><time>2026-04-22T13:11:41.617Z</time></trkpt><trkpt lat="43.5443183" lon="12.642395"><ele>292.0</ele><time>2026-04-22T13:11:42.617Z</time></trkpt><trkpt lat="43.544395" lon="12.6425183"><ele>292.0</ele><time>2026-04-22T13:11:43.617Z</time></trkpt><trkpt lat="43.5444717" lon="12.6426333"><ele>292.0</ele><time>2026-04-22T13:11:44.617Z</time></trkpt><trkpt lat="43.5445467" lon="12.6427433"><ele>292.0</ele><time>2026-04-22T13:11:45.617Z</time></trkpt><trkpt lat="43.5446217" lon="12.6428683"><ele>292.0</ele><time>2026-04-22T13:11:46.617Z</time></trkpt><trkpt lat="43.5446933" lon="12.642995"><ele>288.75</ele><time>2026-04-22T13:11:47.617Z</time></trkpt><trkpt lat="43.5447683" lon="12.6431133"><ele>285.5</ele><time>2026-04-22T13:11:48.617Z</time></trkpt><trkpt lat="43.54484" lon="12.643245"><ele>282.25</ele><time>2026-04-22T13:11:49.617Z</time></trkpt><trkpt lat="43.5449117" lon="12.64337"><ele>279.0</ele><time>2026-04-22T13:11:50.617Z</time></trkpt><trkpt lat="43.5449867" lon="12.6434833"><ele>279.0</ele><time>2026-04-22T13:11:51.617Z</time></trkpt><trkpt lat="43.5450583" lon="12.6436017"><ele>279.0</ele><time>2026-04-22T13:11:52.618Z</time></trkpt><trkpt lat="43.54513" lon="12.6437283"><ele>279.0</ele><time>2026-04-22T13:11:53.617Z</time></trkpt><trkpt lat="43.5452067" lon="12.64385"><ele>279.0</ele><time>2026-04-22T13:11:54.617Z</time></trkpt><trkpt lat="43.5452817" lon="12.643965"><ele>279.2</ele><time>2026-04-22T13:11:55.617Z</time></trkpt><trkpt lat="43.5453583" lon="12.6440767"><ele>279.4</ele><time>2026-04-22T13:11:56.617Z</time></trkpt><trkpt lat="43.545425" lon="12.6441883"><ele>279.6</ele><time>2026-04-22T13:11:57.617Z</time></trkpt><trkpt lat="43.5454983" lon="12.6442933"><ele>279.8</ele><time>2026-04-22T13:11:58.617Z</time></trkpt><trkpt lat="43.5455617" lon="12.6443933"><ele>280.0</ele><time>2026-04-22T13:11:59.617Z</time></trkpt><trkpt lat="43.54562" lon="12.6444983"><ele>280.0</ele><time>2026-04-22T13:12:00.617Z</time></trkpt><trkpt lat="43.5456667" lon="12.6446067"><ele>280.0</ele><time>2026-04-22T13:12:01.617Z</time></trkpt><trkpt lat="43.545725" lon="12.6447117"><ele>280.0</ele><time>2026-04-22T13:12:02.618Z</time></trkpt><trkpt lat="43.5457833" lon="12.644825"><ele>280.0</ele><time>2026-04-22T13:12:03.617Z</time></trkpt><trkpt lat="43.5458383" lon="12.6449517"><ele>280.0</ele><time>2026-04-22T13:12:04.617Z</time></trkpt><trkpt lat="43.5458883" lon="12.6450717"><ele>280.0</ele><time>2026-04-22T13:12:05.617Z</time></trkpt><trkpt lat="43.5459283" lon="12.64521"><ele>280.0</ele><time>2026-04-22T13:12:06.618Z</time></trkpt><trkpt lat="43.5459567" lon="12.6453467"><ele>280.0</ele><time>2026-04-22T13:12:07.617Z</time></trkpt><trkpt lat="43.5459817" lon="12.64548"><ele>280.0</ele><time>2026-04-22T13:12:08.617Z</time></trkpt><trkpt lat="43.546005" lon="12.64561"><ele>280.0</ele><time>2026-04-22T13:12:09.617Z</time></trkpt><trkpt lat="43.5460333" lon="12.645735"><ele>280.0</ele><time>2026-04-22T13:12:10.617Z</time></trkpt><trkpt lat="43.54604" lon="12.6458483"><ele>280.0</ele><time>2026-04-22T13:12:11.618Z</time></trkpt><trkpt lat="43.5460467" lon="12.645965"><ele>280.0</ele><time>2026-04-22T13:12:12.617Z</time></trkpt><trkpt lat="43.5460383" lon="12.646075"><ele>280.0</ele><time>2026-04-22T13:12:13.618Z</time></trkpt><trkpt lat="43.5460117" lon="12.6461633"><ele>280.0</ele><time>2026-04-22T13:12:14.617Z</time></trkpt><trkpt lat="43.54592" lon="12.6462817"><ele>280.0</ele><time>2026-04-22T13:12:16.617Z</time></trkpt><trkpt lat="43.54586" lon="12.6463117"><ele>280.4</ele><time>2026-04-22T13:12:17.617Z</time></trkpt><trkpt lat="43.5457317" lon="12.6463567"><ele>280.8</ele><time>2026-04-22T13:12:19.617Z</time></trkpt><trkpt lat="43.5456533" lon="12.64639"><ele>281.2</ele><time>2026-04-22T13:12:20.618Z</time></trkpt><trkpt lat="43.5455583" lon="12.6464367"><ele>281.6</ele><time>2026-04-22T13:12:21.617Z</time></trkpt><trkpt lat="43.5454617" lon="12.6464783"><ele>282.0</ele><time>2026-04-22T13:12:22.618Z</time></trkpt><trkpt lat="43.5453567" lon="12.646515"><ele>283.6</ele><time>2026-04-22T13:12:23.617Z</time></trkpt><trkpt lat="43.545255" lon="12.646555"><ele>285.2</ele><time>2026-04-22T13:12:24.617Z</time></trkpt><trkpt lat="43.5451533" lon="12.6465917"><ele>286.8</ele><time>2026-04-22T13:12:25.617Z</time></trkpt><trkpt lat="43.5450517" lon="12.646635"><ele>288.4</ele><time>2026-04-22T13:12:26.617Z</time></trkpt><trkpt lat="43.5449667" lon="12.6466683"><ele>290.0</ele><time>2026-04-22T13:12:27.617Z</time></trkpt><trkpt lat="43.544885" lon="12.646705"><ele>290.0</ele><time>2026-04-22T13:12:28.617Z</time></trkpt><trkpt lat="43.5448083" lon="12.64675"><ele>290.0</ele><time>2026-04-22T13:12:29.617Z</time></trkpt><trkpt lat="43.544735" lon="12.6467883"><ele>290.0</ele><time>2026-04-22T13:12:30.617Z</time></trkpt><trkpt lat="43.5446533" lon="12.6468333"><ele>290.0</ele><time>2026-04-22T13:12:31.617Z</time></trkpt><trkpt lat="43.5445633" lon="12.6468683"><ele>290.0</ele><time>2026-04-22T13:12:32.617Z</time></trkpt><trkpt lat="43.544475" lon="12.64689"><ele>290.0</ele><time>2026-04-22T13:12:33.617Z</time></trkpt><trkpt lat="43.5443783" lon="12.6469183"><ele>290.8</ele><time>2026-04-22T13:12:34.617Z</time></trkpt><trkpt lat="43.5442683" lon="12.6469517"><ele>291.6</ele><time>2026-04-22T13:12:35.617Z</time></trkpt><trkpt lat="43.5441783" lon="12.6469917"><ele>292.4</ele><time>2026-04-22T13:12:36.617Z</time></trkpt><trkpt lat="43.5440817" lon="12.647035"><ele>293.2</ele><time>2026-04-22T13:12:37.617Z</time></trkpt><trkpt lat="43.5440017" lon="12.647065"><ele>294.0</ele><time>2026-04-22T13:12:38.617Z</time></trkpt><trkpt lat="43.543925" lon="12.6470933"><ele>291.8333333333333</ele><time>2026-04-22T13:12:39.617Z</time></trkpt><trkpt lat="43.5438533" lon="12.647135"><ele>289.6666666666667</ele><time>2026-04-22T13:12:40.617Z</time></trkpt><trkpt lat="43.5437867" lon="12.6471883"><ele>287.5</ele><time>2026-04-22T13:12:41.617Z</time></trkpt><trkpt lat="43.5437267" lon="12.6472667"><ele>285.33333333333337</ele><time>2026-04-22T13:12:42.617Z</time></trkpt><trkpt lat="43.54367" lon="12.6473733"><ele>283.1666666666667</ele><time>2026-04-22T13:12:43.617Z</time></trkpt><trkpt lat="43.5436233" lon="12.6474867"><ele>281.0</ele><time>2026-04-22T13:12:44.617Z</time></trkpt><trkpt lat="43.5435933" lon="12.6476117"><ele>280.5</ele><time>2026-04-22T13:12:45.617Z</time></trkpt><trkpt lat="43.54356" lon="12.647735"><ele>280.0</ele><time>2026-04-22T13:12:46.617Z</time></trkpt><trkpt lat="43.543535" lon="12.6478367"><ele>279.5</ele><time>2026-04-22T13:12:47.617Z</time></trkpt><trkpt lat="43.543495" lon="12.64795"><ele>279.0</ele><time>2026-04-22T13:12:48.617Z</time></trkpt><trkpt lat="43.543465" lon="12.6480617"><ele>278.5</ele><time>2026-04-22T13:12:49.618Z</time></trkpt><trkpt lat="43.5434317" lon="12.6481733"><ele>278.0</ele><time>2026-04-22T13:12:50.617Z</time></trkpt><trkpt lat="43.5434017" lon="12.6483"><ele>277.1666666666667</ele><time>2026-04-22T13:12:51.617Z</time></trkpt><trkpt lat="43.5433633" lon="12.6484117"><ele>276.33333333333337</ele><time>2026-04-22T13:12:52.617Z</time></trkpt><trkpt lat="43.5433333" lon="12.6485133"><ele>275.5</ele><time>2026-04-22T13:12:53.617Z</time></trkpt><trkpt lat="43.5433033" lon="12.6486183"><ele>274.6666666666667</ele><time>2026-04-22T13:12:54.618Z</time></trkpt><trkpt lat="43.5432817" lon="12.648725"><ele>273.8333333333333</ele><time>2026-04-22T13:12:55.617Z</time></trkpt><trkpt lat="43.5432733" lon="12.6488267"><ele>273.0</ele><time>2026-04-22T13:12:56.617Z</time></trkpt><trkpt lat="43.5432917" lon="12.6489167"><ele>272.42857142857144</ele><time>2026-04-22T13:12:57.617Z</time></trkpt><trkpt lat="43.5433267" lon="12.6489967"><ele>271.8571428571429</ele><time>2026-04-22T13:12:58.617Z</time></trkpt><trkpt lat="43.5433783" lon="12.6490617"><ele>271.2857142857143</ele><time>2026-04-22T13:12:59.617Z</time></trkpt><trkpt lat="43.5434417" lon="12.64911"><ele>270.7142857142857</ele><time>2026-04-22T13:13:00.617Z</time></trkpt><trkpt lat="43.5435133" lon="12.649135"><ele>270.14285714285717</ele><time>2026-04-22T13:13:01.617Z</time></trkpt><trkpt lat="43.543585" lon="12.6491583"><ele>269.57142857142856</ele><time>2026-04-22T13:13:02.617Z</time></trkpt><trkpt lat="43.54365" lon="12.6491867"><ele>269.0</ele><time>2026-04-22T13:13:03.617Z</time></trkpt><trkpt lat="43.5437183" lon="12.6492067"><ele>269.0</ele><time>2026-04-22T13:13:04.617Z</time></trkpt><trkpt lat="43.5437917" lon="12.64923"><ele>269.0</ele><time>2026-04-22T13:13:05.617Z</time></trkpt><trkpt lat="43.5438667" lon="12.6492633"><ele>269.0</ele><time>2026-04-22T13:13:06.617Z</time></trkpt><trkpt lat="43.5439433" lon="12.6492933"><ele>269.0</ele><time>2026-04-22T13:13:07.617Z</time></trkpt><trkpt lat="43.5440633" lon="12.6493233"><ele>269.0</ele><time>2026-04-22T13:13:09.618Z</time></trkpt><trkpt lat="43.5441917" lon="12.6493533"><ele>269.0</ele><time>2026-04-22T13:13:11.617Z</time></trkpt><trkpt lat="43.5442683" lon="12.6493567"><ele>269.0</ele><time>2026-04-22T13:13:12.617Z</time></trkpt><trkpt lat="43.5443517" lon="12.64937"><ele>269.0</ele><time>2026-04-22T13:13:13.618Z</time></trkpt><trkpt lat="43.5444417" lon="12.6493883"><ele>269.0</ele><time>2026-04-22T13:13:14.617Z</time></trkpt><trkpt lat="43.544525" lon="12.6494067"><ele>269.0</ele><time>2026-04-22T13:13:15.617Z</time></trkpt><trkpt lat="43.5446117" lon="12.6494333"><ele>269.0</ele><time>2026-04-22T13:13:16.617Z</time></trkpt><trkpt lat="43.5446917" lon="12.649485"><ele>266.59999999999997</ele><time>2026-04-22T13:13:17.617Z</time></trkpt><trkpt lat="43.54477" lon="12.649555"><ele>264.2</ele><time>2026-04-22T13:13:18.618Z</time></trkpt><trkpt lat="43.5448417" lon="12.649635"><ele>261.79999999999995</ele><time>2026-04-22T13:13:19.617Z</time></trkpt><trkpt lat="43.5449133" lon="12.6497167"><ele>259.4</ele><time>2026-04-22T13:13:20.617Z</time></trkpt><trkpt lat="43.544985" lon="12.6497933"><ele>257.0</ele><time>2026-04-22T13:13:21.617Z</time></trkpt><trkpt lat="43.54507" lon="12.6498517"><ele>257.0</ele><time>2026-04-22T13:13:22.617Z</time></trkpt><trkpt lat="43.54516" lon="12.6499017"><ele>257.0</ele><time>2026-04-22T13:13:23.617Z</time></trkpt><trkpt lat="43.545255" lon="12.64996"><ele>257.0</ele><time>2026-04-22T13:13:24.617Z</time></trkpt><trkpt lat="43.5453417" lon="12.6500233"><ele>257.0</ele><time>2026-04-22T13:13:25.617Z</time></trkpt><trkpt lat="43.5454367" lon="12.65006"><ele>257.0</ele><time>2026-04-22T13:13:26.617Z</time></trkpt><trkpt lat="43.5455233" lon="12.6501217"><ele>256.83333333333337</ele><time>2026-04-22T13:13:27.617Z</time></trkpt><trkpt lat="43.5456033" lon="12.6501767"><ele>256.6666666666667</ele><time>2026-04-22T13:13:28.618Z</time></trkpt><trkpt lat="43.5456767" lon="12.65022"><ele>256.5</ele><time>2026-04-22T13:13:29.617Z</time></trkpt><trkpt lat="43.5457433" lon="12.650265"><ele>256.3333333333333</ele><time>2026-04-22T13:13:30.617Z</time></trkpt><trkpt lat="43.5458267" lon="12.6503117"><ele>256.16666666666663</ele><time>2026-04-22T13:13:32.617Z</time></trkpt><trkpt lat="43.5458917" lon="12.6503517"><ele>256.0</ele><time>2026-04-22T13:14:32.617Z</time></trkpt><trkpt lat="43.5459267" lon="12.6504467"><ele>256.0</ele><time>2026-04-22T13:14:34.618Z</time></trkpt><trkpt lat="43.5458933" lon="12.6506033"><ele>256.0</ele><time>2026-04-22T13:14:36.617Z</time></trkpt><trkpt lat="43.5458617" lon="12.6506967"><ele>256.0</ele><time>2026-04-22T13:14:37.617Z</time></trkpt><trkpt lat="43.5458233" lon="12.6508083"><ele>256.0</ele><time>2026-04-22T13:14:38.617Z</time></trkpt><trkpt lat="43.54578" lon="12.6509133"><ele>256.0</ele><time>2026-04-22T13:14:39.617Z</time></trkpt><trkpt lat="43.54574" lon="12.6510317"><ele>254.60000000000002</ele><time>2026-04-22T13:14:40.617Z</time></trkpt><trkpt lat="43.5457033" lon="12.65115"><ele>253.20000000000002</ele><time>2026-04-22T13:14:41.617Z</time></trkpt><trkpt lat="43.5456633" lon="12.65127"><ele>251.79999999999998</ele><time>2026-04-22T13:14:42.617Z</time></trkpt><trkpt lat="43.545625" lon="12.6513883"><ele>250.39999999999998</ele><time>2026-04-22T13:14:43.617Z</time></trkpt><trkpt lat="43.545585" lon="12.651505"><ele>249.0</ele><time>2026-04-22T13:14:44.617Z</time></trkpt><trkpt lat="43.5455467" lon="12.651625"><ele>249.0</ele><time>2026-04-22T13:14:45.617Z</time></trkpt><trkpt lat="43.5455117" lon="12.65175"><ele>248.99999999999997</ele><time>2026-04-22T13:14:46.617Z</time></trkpt><trkpt lat="43.5454683" lon="12.6518817"><ele>248.99999999999997</ele><time>2026-04-22T13:14:47.617Z</time></trkpt><trkpt lat="43.54542" lon="12.6520283"><ele>249.0</ele><time>2026-04-22T13:14:48.617Z</time></trkpt><trkpt lat="43.5453733" lon="12.65218"><ele>249.0</ele><time>2026-04-22T13:14:49.617Z</time></trkpt><trkpt lat="43.54533" lon="12.6523233"><ele>254.5</ele><time>2026-04-22T13:14:50.617Z</time></trkpt><trkpt lat="43.5452983" lon="12.6524667"><ele>260.0</ele><time>2026-04-22T13:14:51.617Z</time></trkpt><trkpt lat="43.545285" lon="12.6526267"><ele>265.5</ele><time>2026-04-22T13:14:52.617Z</time></trkpt><trkpt lat="43.5453" lon="12.6527883"><ele>271.0</ele><time>2026-04-22T13:14:53.618Z</time></trkpt><trkpt lat="43.5453283" lon="12.6529517"><ele>270.5</ele><time>2026-04-22T13:14:54.617Z</time></trkpt><trkpt lat="43.5453833" lon="12.6531067"><ele>270.0</ele><time>2026-04-22T13:14:55.617Z</time></trkpt><trkpt lat="43.5454633" lon="12.6532517"><ele>269.5</ele><time>2026-04-22T13:14:56.617Z</time></trkpt><trkpt lat="43.5455517" lon="12.6533883"><ele>269.0</ele><time>2026-04-22T13:14:57.618Z</time></trkpt><trkpt lat="43.5456467" lon="12.6535167"><ele>271.0</ele><time>2026-04-22T13:14:58.617Z</time></trkpt><trkpt lat="43.5457383" lon="12.6536333"><ele>273.0</ele><time>2026-04-22T13:14:59.617Z</time></trkpt><trkpt lat="43.5458367" lon="12.6537583"><ele>275.0</ele><time>2026-04-22T13:15:00.617Z</time></trkpt><trkpt lat="43.54592" lon="12.6538817"><ele>277.0</ele><time>2026-04-22T13:15:01.617Z</time></trkpt><trkpt lat="43.5460167" lon="12.6540183"><ele>277.0</ele><time>2026-04-22T13:15:02.617Z</time></trkpt><trkpt lat="43.5461133" lon="12.6541467"><ele>277.0</ele><time>2026-04-22T13:15:03.617Z</time></trkpt><trkpt lat="43.5462083" lon="12.654285"><ele>277.0</ele><time>2026-04-22T13:15:04.618Z</time></trkpt><trkpt lat="43.546305" lon="12.6544283"><ele>277.0</ele><time>2026-04-22T13:15:05.617Z</time></trkpt><trkpt lat="43.54641" lon="12.654565"><ele>275.5</ele><time>2026-04-22T13:15:06.617Z</time></trkpt><trkpt lat="43.5465067" lon="12.6547"><ele>274.0</ele><time>2026-04-22T13:15:07.617Z</time></trkpt><trkpt lat="43.5465967" lon="12.6548467"><ele>272.5</ele><time>2026-04-22T13:15:08.617Z</time></trkpt><trkpt lat="43.546685" lon="12.6549833"><ele>271.0</ele><time>2026-04-22T13:15:09.617Z</time></trkpt><trkpt lat="43.5467617" lon="12.6551433"><ele>273.0</ele><time>2026-04-22T13:15:10.617Z</time></trkpt><trkpt lat="43.5468317" lon="12.65531"><ele>275.0</ele><time>2026-04-22T13:15:11.617Z</time></trkpt><trkpt lat="43.5468933" lon="12.6554867"><ele>277.0</ele><time>2026-04-22T13:15:12.617Z</time></trkpt><trkpt lat="43.5469467" lon="12.6556683"><ele>279.0</ele><time>2026-04-22T13:15:13.617Z</time></trkpt><trkpt lat="43.546985" lon="12.655855"><ele>279.0</ele><time>2026-04-22T13:15:14.617Z</time></trkpt><trkpt lat="43.5470217" lon="12.6560433"><ele>279.0</ele><time>2026-04-22T13:15:15.617Z</time></trkpt><trkpt lat="43.5470283" lon="12.6562317"><ele>279.0</ele><time>2026-04-22T13:15:16.617Z</time></trkpt><trkpt lat="43.5470367" lon="12.6564283"><ele>279.0</ele><time>2026-04-22T13:15:17.618Z</time></trkpt><trkpt lat="43.54703" lon="12.65663"><ele>279.5</ele><time>2026-04-22T13:15:18.617Z</time></trkpt><trkpt lat="43.5470083" lon="12.6568267"><ele>280.0</ele><time>2026-04-22T13:15:19.617Z</time></trkpt><trkpt lat="43.5469717" lon="12.6570183"><ele>280.5</ele><time>2026-04-22T13:15:20.617Z</time></trkpt><trkpt lat="43.5469217" lon="12.6572017"><ele>281.0</ele><time>2026-04-22T13:15:21.617Z</time></trkpt><trkpt lat="43.54687" lon="12.6573867"><ele>281.25</ele><time>2026-04-22T13:15:22.617Z</time></trkpt><trkpt lat="43.5468183" lon="12.6575783"><ele>281.5</ele><time>2026-04-22T13:15:23.617Z</time></trkpt><trkpt lat="43.5467633" lon="12.65776"><ele>281.75</ele><time>2026-04-22T13:15:24.617Z</time></trkpt><trkpt lat="43.5467017" lon="12.6579283"><ele>282.0</ele><time>2026-04-22T13:15:25.617Z</time></trkpt><trkpt lat="43.5466467" lon="12.6580867"><ele>282.0</ele><time>2026-04-22T13:15:26.617Z</time></trkpt><trkpt lat="43.546595" lon="12.6582333"><ele>282.0</ele><time>2026-04-22T13:15:27.617Z</time></trkpt><trkpt lat="43.546535" lon="12.65838"><ele>282.0</ele><time>2026-04-22T13:15:28.617Z</time></trkpt><trkpt lat="43.546485" lon="12.658535"><ele>282.0</ele><time>2026-04-22T13:15:29.618Z</time></trkpt><trkpt lat="43.5464233" lon="12.6586917"><ele>281.0</ele><time>2026-04-22T13:15:30.617Z</time></trkpt><trkpt lat="43.5463667" lon="12.6588483"><ele>280.0</ele><time>2026-04-22T13:15:31.617Z</time></trkpt><trkpt lat="43.5463067" lon="12.659005"><ele>279.0</ele><time>2026-04-22T13:15:32.617Z</time></trkpt><trkpt lat="43.5462533" lon="12.6591667"><ele>278.0</ele><time>2026-04-22T13:15:33.617Z</time></trkpt><trkpt lat="43.546195" lon="12.6593217"><ele>279.0</ele><time>2026-04-22T13:15:34.617Z</time></trkpt><trkpt lat="43.546135" lon="12.6594767"><ele>280.0</ele><time>2026-04-22T13:15:35.617Z</time></trkpt><trkpt lat="43.5460717" lon="12.65961"><ele>281.0</ele><time>2026-04-22T13:15:36.617Z</time></trkpt><trkpt lat="43.546" lon="12.6597267"><ele>282.0</ele><time>2026-04-22T13:15:37.618Z</time></trkpt><trkpt lat="43.5459417" lon="12.6598267"><ele>283.0</ele><time>2026-04-22T13:15:38.617Z</time></trkpt><trkpt lat="43.54589" lon="12.6599083"><ele>283.0</ele><time>2026-04-22T13:15:39.617Z</time></trkpt><trkpt lat="43.5458283" lon="12.65995"><ele>283.0</ele><time>2026-04-22T13:15:40.617Z</time></trkpt><trkpt lat="43.5457083" lon="12.6599333"><ele>283.0</ele><time>2026-04-22T13:15:42.617Z</time></trkpt><trkpt lat="43.545615" lon="12.66"><ele>283.0</ele><time>2026-04-22T13:15:44.617Z</time></trkpt><trkpt lat="43.545585" lon="12.6600817"><ele>283.0</ele><time>2026-04-22T13:15:45.618Z</time></trkpt><trkpt lat="43.5455517" lon="12.6601933"><ele>283.0</ele><time>2026-04-22T13:15:46.617Z</time></trkpt><trkpt lat="43.54551" lon="12.6603017"><ele>282.2</ele><time>2026-04-22T13:15:47.617Z</time></trkpt><trkpt lat="43.5454567" lon="12.6604"><ele>281.4</ele><time>2026-04-22T13:15:48.617Z</time></trkpt><trkpt lat="43.545385" lon="12.6604817"><ele>280.59999999999997</ele><time>2026-04-22T13:15:49.617Z</time></trkpt><trkpt lat="43.545305" lon="12.6605617"><ele>279.8</ele><time>2026-04-22T13:15:50.617Z</time></trkpt><trkpt lat="43.5452183" lon="12.6606433"><ele>279.0</ele><time>2026-04-22T13:15:51.617Z</time></trkpt><trkpt lat="43.5451317" lon="12.6607317"><ele>280.4</ele><time>2026-04-22T13:15:52.618Z</time></trkpt><trkpt lat="43.545055" lon="12.6608317"><ele>281.79999999999995</ele><time>2026-04-22T13:15:53.617Z</time></trkpt><trkpt lat="43.5449867" lon="12.660945"><ele>283.20000000000005</ele><time>2026-04-22T13:15:54.617Z</time></trkpt><trkpt lat="43.5449233" lon="12.6610667"><ele>284.6</ele><time>2026-04-22T13:15:55.617Z</time></trkpt><trkpt lat="43.5448617" lon="12.661195"><ele>286.0</ele><time>2026-04-22T13:15:56.617Z</time></trkpt><trkpt lat="43.5448067" lon="12.6613383"><ele>286.0</ele><time>2026-04-22T13:15:57.617Z</time></trkpt><trkpt lat="43.544745" lon="12.6614883"><ele>286.0</ele><time>2026-04-22T13:15:58.617Z</time></trkpt><trkpt lat="43.5446917" lon="12.66165"><ele>286.0</ele><time>2026-04-22T13:15:59.618Z</time></trkpt><trkpt lat="43.5446233" lon="12.6618183"><ele>286.0</ele><time>2026-04-22T13:16:00.617Z</time></trkpt><trkpt lat="43.5445617" lon="12.66198"><ele>288.25</ele><time>2026-04-22T13:16:01.618Z</time></trkpt><trkpt lat="43.5444983" lon="12.6621433"><ele>290.5</ele><time>2026-04-22T13:16:02.617Z</time></trkpt><trkpt lat="43.5444333" lon="12.662305"><ele>292.75</ele><time>2026-04-22T13:16:03.618Z</time></trkpt><trkpt lat="43.5443733" lon="12.6624767"><ele>295.0</ele><time>2026-04-22T13:16:04.617Z</time></trkpt><trkpt lat="43.54431" lon="12.662655"><ele>294.75</ele><time>2026-04-22T13:16:05.617Z</time></trkpt><trkpt lat="43.5442467" lon="12.6628317"><ele>294.5</ele><time>2026-04-22T13:16:06.617Z</time></trkpt><trkpt lat="43.544175" lon="12.66301"><ele>294.25</ele><time>2026-04-22T13:16:07.617Z</time></trkpt><trkpt lat="43.5441033" lon="12.66319"><ele>294.0</ele><time>2026-04-22T13:16:08.617Z</time></trkpt><trkpt lat="43.5440417" lon="12.6633733"><ele>294.0</ele><time>2026-04-22T13:16:09.617Z</time></trkpt><trkpt lat="43.54397" lon="12.6635533"><ele>294.0</ele><time>2026-04-22T13:16:10.617Z</time></trkpt><trkpt lat="43.5438983" lon="12.663735"><ele>294.0</ele><time>2026-04-22T13:16:11.618Z</time></trkpt><trkpt lat="43.54382" lon="12.6639233"><ele>294.0</ele><time>2026-04-22T13:16:12.617Z</time></trkpt><trkpt lat="43.5437483" lon="12.6641117"><ele>294.0</ele><time>2026-04-22T13:16:13.618Z</time></trkpt><trkpt lat="43.54367" lon="12.6643033"><ele>294.0</ele><time>2026-04-22T13:16:14.618Z</time></trkpt><trkpt lat="43.5435983" lon="12.6644967"><ele>296.3333333333333</ele><time>2026-04-22T13:16:15.617Z</time></trkpt><trkpt lat="43.5435333" lon="12.6647067"><ele>298.66666666666663</ele><time>2026-04-22T13:16:16.617Z</time></trkpt><trkpt lat="43.543475" lon="12.66491"><ele>301.0</ele><time>2026-04-22T13:16:17.618Z</time></trkpt><trkpt lat="43.54342" lon="12.665105"><ele>301.0</ele><time>2026-04-22T13:16:18.618Z</time></trkpt><trkpt lat="43.5433667" lon="12.6653"><ele>301.0</ele><time>2026-04-22T13:16:19.617Z</time></trkpt><trkpt lat="43.543305" lon="12.6654967"><ele>301.0</ele><time>2026-04-22T13:16:20.617Z</time></trkpt><trkpt lat="43.5432367" lon="12.66569"><ele>301.0</ele><time>2026-04-22T13:16:21.618Z</time></trkpt><trkpt lat="43.5431583" lon="12.6658867"><ele>301.0</ele><time>2026-04-22T13:16:22.617Z</time></trkpt><trkpt lat="43.5430833" lon="12.6660883"><ele>301.0</ele><time>2026-04-22T13:16:23.617Z</time></trkpt><trkpt lat="43.5429967" lon="12.66629"><ele>299.66666666666663</ele><time>2026-04-22T13:16:24.617Z</time></trkpt><trkpt lat="43.5429183" lon="12.6664933"><ele>298.3333333333333</ele><time>2026-04-22T13:16:25.617Z</time></trkpt><trkpt lat="43.54284" lon="12.66669"><ele>297.0</ele><time>2026-04-22T13:16:26.617Z</time></trkpt><trkpt lat="43.5427783" lon="12.6668967"><ele>299.6666666666667</ele><time>2026-04-22T13:16:27.617Z</time></trkpt><trkpt lat="43.54274" lon="12.6671167"><ele>302.33333333333337</ele><time>2026-04-22T13:16:28.617Z</time></trkpt><trkpt lat="43.5427183" lon="12.6673417"><ele>305.0</ele><time>2026-04-22T13:16:29.618Z</time></trkpt><trkpt lat="43.5427033" lon="12.6675633"><ele>304.6666666666667</ele><time>2026-04-22T13:16:30.617Z</time></trkpt><trkpt lat="43.54268" lon="12.6677883"><ele>304.3333333333333</ele><time>2026-04-22T13:16:31.617Z</time></trkpt><trkpt lat="43.54265" lon="12.66801"><ele>304.0</ele><time>2026-04-22T13:16:32.617Z</time></trkpt><trkpt lat="43.5426017" lon="12.66822"><ele>304.0</ele><time>2026-04-22T13:16:33.617Z</time></trkpt><trkpt lat="43.5425417" lon="12.6684267"><ele>304.0</ele><time>2026-04-22T13:16:34.617Z</time></trkpt><trkpt lat="43.5424833" lon="12.6686367"><ele>304.0</ele><time>2026-04-22T13:16:35.618Z</time></trkpt><trkpt lat="43.5424183" lon="12.66884"><ele>304.0</ele><time>2026-04-22T13:16:36.617Z</time></trkpt><trkpt lat="43.54235" lon="12.6690533"><ele>304.0</ele><time>2026-04-22T13:16:37.617Z</time></trkpt><trkpt lat="43.54228" lon="12.6692633"><ele>304.0</ele><time>2026-04-22T13:16:38.617Z</time></trkpt><trkpt lat="43.5421917" lon="12.6694817"><ele>303.3333333333333</ele><time>2026-04-22T13:16:39.618Z</time></trkpt><trkpt lat="43.5421033" lon="12.669705"><ele>302.6666666666667</ele><time>2026-04-22T13:16:40.617Z</time></trkpt><trkpt lat="43.5420183" lon="12.6699167"><ele>302.0</ele><time>2026-04-22T13:16:41.617Z</time></trkpt><trkpt lat="43.5419367" lon="12.6701367"><ele>300.0</ele><time>2026-04-22T13:16:42.617Z</time></trkpt><trkpt lat="43.5418433" lon="12.6703417"><ele>298.0</ele><time>2026-04-22T13:16:43.617Z</time></trkpt><trkpt lat="43.54175" lon="12.67055"><ele>296.0</ele><time>2026-04-22T13:16:44.617Z</time></trkpt><trkpt lat="43.5416617" lon="12.670765"><ele>296.0</ele><time>2026-04-22T13:16:45.617Z</time></trkpt><trkpt lat="43.5415783" lon="12.6709833"><ele>296.0</ele><time>2026-04-22T13:16:46.617Z</time></trkpt><trkpt lat="43.5414833" lon="12.67121"><ele>296.0</ele><time>2026-04-22T13:16:47.617Z</time></trkpt><trkpt lat="43.5413933" lon="12.671425"><ele>298.0</ele><time>2026-04-22T13:16:48.617Z</time></trkpt><trkpt lat="43.5413017" lon="12.6716267"><ele>300.0</ele><time>2026-04-22T13:16:49.617Z</time></trkpt><trkpt lat="43.5412183" lon="12.67184"><ele>302.0</ele><time>2026-04-22T13:16:50.617Z</time></trkpt><trkpt lat="43.5411317" lon="12.67205"><ele>302.0</ele><time>2026-04-22T13:16:51.618Z</time></trkpt><trkpt lat="43.5410533" lon="12.6722617"><ele>302.0</ele><time>2026-04-22T13:16:52.617Z</time></trkpt><trkpt lat="43.54099" lon="12.6724783"><ele>302.0</ele><time>2026-04-22T13:16:53.617Z</time></trkpt><trkpt lat="43.5409433" lon="12.6727"><ele>304.0</ele><time>2026-04-22T13:16:54.617Z</time></trkpt><trkpt lat="43.5409117" lon="12.67293"><ele>306.0</ele><time>2026-04-22T13:16:55.617Z</time></trkpt><trkpt lat="43.5408967" lon="12.67317"><ele>308.0</ele><time>2026-04-22T13:16:56.617Z</time></trkpt><trkpt lat="43.5408817" lon="12.6734033"><ele>309.6666666666667</ele><time>2026-04-22T13:16:57.617Z</time></trkpt><trkpt lat="43.540865" lon="12.6736233"><ele>311.3333333333333</ele><time>2026-04-22T13:16:58.617Z</time></trkpt><trkpt lat="43.54085" lon="12.6738367"><ele>313.0</ele><time>2026-04-22T13:16:59.618Z</time></trkpt><trkpt lat="43.5408317" lon="12.67403"><ele>313.0</ele><time>2026-04-22T13:17:00.617Z</time></trkpt><trkpt lat="43.540815" lon="12.6742117"><ele>313.0</ele><time>2026-04-22T13:17:01.618Z</time></trkpt><trkpt lat="43.5407983" lon="12.6743867"><ele>313.0</ele><time>2026-04-22T13:17:02.618Z</time></trkpt><trkpt lat="43.5407833" lon="12.6745683"><ele>313.0</ele><time>2026-04-22T13:17:03.618Z</time></trkpt><trkpt lat="43.5407717" lon="12.6747483"><ele>313.5</ele><time>2026-04-22T13:17:04.617Z</time></trkpt><trkpt lat="43.5407517" lon="12.6749233"><ele>314.0</ele><time>2026-04-22T13:17:05.617Z</time></trkpt><trkpt lat="43.54074" lon="12.67509"><ele>314.5</ele><time>2026-04-22T13:17:06.617Z</time></trkpt><trkpt lat="43.5407183" lon="12.6752317"><ele>315.0</ele><time>2026-04-22T13:17:07.617Z</time></trkpt><trkpt lat="43.5406867" lon="12.675355"><ele>315.8</ele><time>2026-04-22T13:17:08.617Z</time></trkpt><trkpt lat="43.5406417" lon="12.67547"><ele>316.6</ele><time>2026-04-22T13:17:09.617Z</time></trkpt><trkpt lat="43.5405867" lon="12.6755783"><ele>317.4</ele><time>2026-04-22T13:17:10.617Z</time></trkpt><trkpt lat="43.5405333" lon="12.6756717"><ele>318.2</ele><time>2026-04-22T13:17:11.617Z</time></trkpt><trkpt lat="43.54048" lon="12.67577"><ele>319.0</ele><time>2026-04-22T13:17:12.617Z</time></trkpt><trkpt lat="43.54042" lon="12.6758733"><ele>320.0</ele><time>2026-04-22T13:17:13.617Z</time></trkpt><trkpt lat="43.540345" lon="12.6759633"><ele>321.0</ele><time>2026-04-22T13:17:14.617Z</time></trkpt><trkpt lat="43.540255" lon="12.67605"><ele>322.0</ele><time>2026-04-22T13:17:15.617Z</time></trkpt><trkpt lat="43.5401483" lon="12.6761417"><ele>323.0</ele><time>2026-04-22T13:17:16.617Z</time></trkpt><trkpt lat="43.540035" lon="12.67624"><ele>323.25</ele><time>2026-04-22T13:17:17.617Z</time></trkpt><trkpt lat="43.5399233" lon="12.67633"><ele>323.5</ele><time>2026-04-22T13:17:18.618Z</time></trkpt><trkpt lat="43.5398117" lon="12.6764283"><ele>323.75</ele><time>2026-04-22T13:17:19.617Z</time></trkpt><trkpt lat="43.5396883" lon="12.6765333"><ele>324.0</ele><time>2026-04-22T13:17:20.617Z</time></trkpt><trkpt lat="43.539565" lon="12.6766383"><ele>326.3333333333333</ele><time>2026-04-22T13:17:21.617Z</time></trkpt><trkpt lat="43.5394317" lon="12.6767467"><ele>328.66666666666663</ele><time>2026-04-22T13:17:22.617Z</time></trkpt><trkpt lat="43.53929" lon="12.6768633"><ele>331.0</ele><time>2026-04-22T13:17:23.617Z</time></trkpt><trkpt lat="43.53915" lon="12.6769983"><ele>332.3333333333333</ele><time>2026-04-22T13:17:24.618Z</time></trkpt><trkpt lat="43.53901" lon="12.677125"><ele>333.6666666666667</ele><time>2026-04-22T13:17:25.617Z</time></trkpt><trkpt lat="43.5388767" lon="12.6772517"><ele>335.0</ele><time>2026-04-22T13:17:26.617Z</time></trkpt><trkpt lat="43.5387383" lon="12.67738"><ele>336.33333333333337</ele><time>2026-04-22T13:17:27.617Z</time></trkpt><trkpt lat="43.5385967" lon="12.6775083"><ele>337.6666666666667</ele><time>2026-04-22T13:17:28.617Z</time></trkpt><trkpt lat="43.5384583" lon="12.6776317"><ele>339.0</ele><time>2026-04-22T13:17:29.617Z</time></trkpt><trkpt lat="43.5383183" lon="12.6777433"><ele>341.0</ele><time>2026-04-22T13:17:30.617Z</time></trkpt><trkpt lat="43.538175" lon="12.6778683"><ele>343.0</ele><time>2026-04-22T13:17:31.617Z</time></trkpt><trkpt lat="43.538035" lon="12.6779933"><ele>345.0</ele><time>2026-04-22T13:17:32.617Z</time></trkpt><trkpt lat="43.5378983" lon="12.67812"><ele>343.6666666666667</ele><time>2026-04-22T13:17:33.617Z</time></trkpt><trkpt lat="43.5377683" lon="12.6782417"><ele>342.33333333333337</ele><time>2026-04-22T13:17:34.617Z</time></trkpt><trkpt lat="43.53765" lon="12.678375"><ele>341.0</ele><time>2026-04-22T13:17:35.617Z</time></trkpt><trkpt lat="43.5375433" lon="12.678515"><ele>343.0</ele><time>2026-04-22T13:17:36.617Z</time></trkpt><trkpt lat="43.5374517" lon="12.6786767"><ele>345.0</ele><time>2026-04-22T13:17:37.617Z</time></trkpt><trkpt lat="43.53737" lon="12.6788567"><ele>347.0</ele><time>2026-04-22T13:17:38.617Z</time></trkpt><trkpt lat="43.5373017" lon="12.6790533"><ele>347.0</ele><time>2026-04-22T13:17:39.617Z</time></trkpt><trkpt lat="43.5372533" lon="12.6792617"><ele>347.0</ele><time>2026-04-22T13:17:40.617Z</time></trkpt><trkpt lat="43.537215" lon="12.67948"><ele>347.0</ele><time>2026-04-22T13:17:41.617Z</time></trkpt><trkpt lat="43.53719" lon="12.6797067"><ele>346.6666666666667</ele><time>2026-04-22T13:17:42.617Z</time></trkpt><trkpt lat="43.5371633" lon="12.6799383"><ele>346.3333333333333</ele><time>2026-04-22T13:17:43.617Z</time></trkpt><trkpt lat="43.5371317" lon="12.68017"><ele>346.0</ele><time>2026-04-22T13:17:44.617Z</time></trkpt><trkpt lat="43.5370933" lon="12.6804067"><ele>346.0</ele><time>2026-04-22T13:17:45.618Z</time></trkpt><trkpt lat="43.53705" lon="12.6806383"><ele>346.0</ele><time>2026-04-22T13:17:46.617Z</time></trkpt><trkpt lat="43.5370033" lon="12.6808667"><ele>346.0</ele><time>2026-04-22T13:17:47.617Z</time></trkpt><trkpt lat="43.5369583" lon="12.6811"><ele>346.3333333333333</ele><time>2026-04-22T13:17:48.617Z</time></trkpt><trkpt lat="43.5368983" lon="12.6813283"><ele>346.6666666666667</ele><time>2026-04-22T13:17:49.617Z</time></trkpt><trkpt lat="43.53683" lon="12.6815567"><ele>347.0</ele><time>2026-04-22T13:17:50.617Z</time></trkpt><trkpt lat="43.53674" lon="12.681785"><ele>346.0</ele><time>2026-04-22T13:17:51.617Z</time></trkpt><trkpt lat="43.536645" lon="12.6820017"><ele>345.0</ele><time>2026-04-22T13:17:52.617Z</time></trkpt><trkpt lat="43.5365517" lon="12.6822183"><ele>344.0</ele><time>2026-04-22T13:17:53.617Z</time></trkpt><trkpt lat="43.5364533" lon="12.682435"><ele>344.0</ele><time>2026-04-22T13:17:54.617Z</time></trkpt><trkpt lat="43.5363567" lon="12.682645"><ele>344.0</ele><time>2026-04-22T13:17:55.617Z</time></trkpt><trkpt lat="43.5362583" lon="12.68285"><ele>344.0</ele><time>2026-04-22T13:17:56.617Z</time></trkpt><trkpt lat="43.5361583" lon="12.6830617"><ele>347.0</ele><time>2026-04-22T13:17:57.617Z</time></trkpt><trkpt lat="43.536065" lon="12.6832633"><ele>350.0</ele><time>2026-04-22T13:17:58.618Z</time></trkpt><trkpt lat="43.5359667" lon="12.6834817"><ele>353.0</ele><time>2026-04-22T13:17:59.618Z</time></trkpt><trkpt lat="43.5358683" lon="12.6836917"><ele>355.0</ele><time>2026-04-22T13:18:00.617Z</time></trkpt><trkpt lat="43.5357733" lon="12.683905"><ele>357.0</ele><time>2026-04-22T13:18:01.617Z</time></trkpt><trkpt lat="43.5356767" lon="12.6841117"><ele>359.0</ele><time>2026-04-22T13:18:02.618Z</time></trkpt><trkpt lat="43.5355817" lon="12.68432"><ele>361.0</ele><time>2026-04-22T13:18:03.617Z</time></trkpt><trkpt lat="43.5354883" lon="12.6845383"><ele>363.0</ele><time>2026-04-22T13:18:04.618Z</time></trkpt><trkpt lat="43.5353817" lon="12.6847517"><ele>365.0</ele><time>2026-04-22T13:18:05.617Z</time></trkpt><trkpt lat="43.53528" lon="12.6849483"><ele>365.6666666666667</ele><time>2026-04-22T13:18:06.617Z</time></trkpt><trkpt lat="43.5351667" lon="12.68512"><ele>366.3333333333333</ele><time>2026-04-22T13:18:07.617Z</time></trkpt><trkpt lat="43.5350433" lon="12.6852717"><ele>367.0</ele><time>2026-04-22T13:18:08.617Z</time></trkpt><trkpt lat="43.5349083" lon="12.6854083"><ele>365.3333333333333</ele><time>2026-04-22T13:18:09.617Z</time></trkpt><trkpt lat="43.534765" lon="12.6855483"><ele>363.6666666666667</ele><time>2026-04-22T13:18:10.617Z</time></trkpt><trkpt lat="43.534615" lon="12.6856867"><ele>362.0</ele><time>2026-04-22T13:18:11.618Z</time></trkpt><trkpt lat="43.5344583" lon="12.68583"><ele>365.33333333333337</ele><time>2026-04-22T13:18:12.617Z</time></trkpt><trkpt lat="43.5343033" lon="12.6859783"><ele>368.6666666666667</ele><time>2026-04-22T13:18:13.617Z</time></trkpt><trkpt lat="43.5341533" lon="12.6861267"><ele>372.0</ele><time>2026-04-22T13:18:14.618Z</time></trkpt><trkpt lat="43.5339983" lon="12.6862717"><ele>372.0</ele><time>2026-04-22T13:18:15.617Z</time></trkpt><trkpt lat="43.5338383" lon="12.6864283"><ele>372.0</ele><time>2026-04-22T13:18:16.617Z</time></trkpt><trkpt lat="43.5336833" lon="12.6865817"><ele>372.0</ele><time>2026-04-22T13:18:17.617Z</time></trkpt><trkpt lat="43.5335283" lon="12.686735"><ele>373.6666666666667</ele><time>2026-04-22T13:18:18.617Z</time></trkpt><trkpt lat="43.5333733" lon="12.68688"><ele>375.33333333333337</ele><time>2026-04-22T13:18:19.618Z</time></trkpt><trkpt lat="43.5332167" lon="12.68703"><ele>377.0</ele><time>2026-04-22T13:18:20.617Z</time></trkpt><trkpt lat="43.5330533" lon="12.6871783"><ele>377.0</ele><time>2026-04-22T13:18:21.617Z</time></trkpt><trkpt lat="43.532895" lon="12.6873167"><ele>377.0</ele><time>2026-04-22T13:18:22.617Z</time></trkpt><trkpt lat="43.5327317" lon="12.687445"><ele>377.0</ele><time>2026-04-22T13:18:23.617Z</time></trkpt><trkpt lat="43.5325667" lon="12.687575"><ele>377.33333333333337</ele><time>2026-04-22T13:18:24.617Z</time></trkpt><trkpt lat="43.53241" lon="12.6877017"><ele>377.6666666666667</ele><time>2026-04-22T13:18:25.618Z</time></trkpt><trkpt lat="43.5322483" lon="12.6878283"><ele>378.0</ele><time>2026-04-22T13:18:26.617Z</time></trkpt><trkpt lat="43.532085" lon="12.6879583"><ele>376.3333333333333</ele><time>2026-04-22T13:18:27.617Z</time></trkpt><trkpt lat="43.5319283" lon="12.6880833"><ele>374.66666666666663</ele><time>2026-04-22T13:18:28.617Z</time></trkpt><trkpt lat="43.5317667" lon="12.688215"><ele>373.0</ele><time>2026-04-22T13:18:29.617Z</time></trkpt><trkpt lat="43.53162" lon="12.6883333"><ele>373.0</ele><time>2026-04-22T13:18:30.617Z</time></trkpt><trkpt lat="43.5314733" lon="12.6884483"><ele>373.0</ele><time>2026-04-22T13:18:31.617Z</time></trkpt><trkpt lat="43.5313333" lon="12.6885517"><ele>373.0</ele><time>2026-04-22T13:18:32.617Z</time></trkpt><trkpt lat="43.5311983" lon="12.6886233"><ele>373.0</ele><time>2026-04-22T13:18:33.617Z</time></trkpt><trkpt lat="43.5310733" lon="12.6886367"><ele>373.0</ele><time>2026-04-22T13:18:34.617Z</time></trkpt><trkpt lat="43.53096" lon="12.6886017"><ele>373.0</ele><time>2026-04-22T13:18:35.617Z</time></trkpt><trkpt lat="43.5308433" lon="12.6885333"><ele>373.0</ele><time>2026-04-22T13:18:36.617Z</time></trkpt><trkpt lat="43.5307267" lon="12.6884417"><ele>373.5</ele><time>2026-04-22T13:18:37.617Z</time></trkpt><trkpt lat="43.530605" lon="12.688345"><ele>374.0</ele><time>2026-04-22T13:18:38.618Z</time></trkpt><trkpt lat="43.530475" lon="12.6882417"><ele>374.5</ele><time>2026-04-22T13:18:39.617Z</time></trkpt><trkpt lat="43.53034" lon="12.6881367"><ele>375.0</ele><time>2026-04-22T13:18:40.617Z</time></trkpt><trkpt lat="43.530215" lon="12.6880267"><ele>375.25</ele><time>2026-04-22T13:18:41.617Z</time></trkpt><trkpt lat="43.5300983" lon="12.687925"><ele>375.5</ele><time>2026-04-22T13:18:42.618Z</time></trkpt><trkpt lat="43.529985" lon="12.6878483"><ele>375.75</ele><time>2026-04-22T13:18:43.617Z</time></trkpt><trkpt lat="43.5298817" lon="12.6877583"><ele>376.0</ele><time>2026-04-22T13:18:44.617Z</time></trkpt><trkpt lat="43.5297817" lon="12.6876717"><ele>376.0</ele><time>2026-04-22T13:18:45.618Z</time></trkpt><trkpt lat="43.52968" lon="12.68759"><ele>376.0</ele><time>2026-04-22T13:18:46.617Z</time></trkpt><trkpt lat="43.5295833" lon="12.6875067"><ele>376.0</ele><time>2026-04-22T13:18:47.617Z</time></trkpt><trkpt lat="43.52948" lon="12.687425"><ele>376.0</ele><time>2026-04-22T13:18:48.617Z</time></trkpt><trkpt lat="43.5293767" lon="12.6873383"><ele>376.75</ele><time>2026-04-22T13:18:49.617Z</time></trkpt><trkpt lat="43.5292783" lon="12.6872433"><ele>377.5</ele><time>2026-04-22T13:18:50.617Z</time></trkpt><trkpt lat="43.5291833" lon="12.6871267"><ele>378.25</ele><time>2026-04-22T13:18:51.617Z</time></trkpt><trkpt lat="43.52909" lon="12.686995"><ele>379.0</ele><time>2026-04-22T13:18:52.618Z</time></trkpt><trkpt lat="43.5289817" lon="12.6868617"><ele>379.0</ele><time>2026-04-22T13:18:53.617Z</time></trkpt><trkpt lat="43.5288533" lon="12.6867283"><ele>379.0</ele><time>2026-04-22T13:18:54.617Z</time></trkpt><trkpt lat="43.5287217" lon="12.6866"><ele>379.0</ele><time>2026-04-22T13:18:55.617Z</time></trkpt><trkpt lat="43.528585" lon="12.68649"><ele>374.75</ele><time>2026-04-22T13:18:56.617Z</time></trkpt><trkpt lat="43.528445" lon="12.6863983"><ele>370.5</ele><time>2026-04-22T13:18:57.617Z</time></trkpt><trkpt lat="43.52831" lon="12.6863233"><ele>366.25</ele><time>2026-04-22T13:18:58.617Z</time></trkpt><trkpt lat="43.5281867" lon="12.6862567"><ele>362.0</ele><time>2026-04-22T13:18:59.618Z</time></trkpt><trkpt lat="43.5280817" lon="12.68619"><ele>362.0</ele><time>2026-04-22T13:19:00.617Z</time></trkpt><trkpt lat="43.5279833" lon="12.686105"><ele>362.0</ele><time>2026-04-22T13:19:01.617Z</time></trkpt><trkpt lat="43.52792" lon="12.6859767"><ele>362.0</ele><time>2026-04-22T13:19:02.617Z</time></trkpt><trkpt lat="43.5278767" lon="12.6858167"><ele>362.0</ele><time>2026-04-22T13:19:03.618Z</time></trkpt><trkpt lat="43.5278433" lon="12.6856567"><ele>362.5</ele><time>2026-04-22T13:19:04.617Z</time></trkpt><trkpt lat="43.527815" lon="12.6854867"><ele>363.0</ele><time>2026-04-22T13:19:05.617Z</time></trkpt><trkpt lat="43.5277833" lon="12.6853233"><ele>363.5</ele><time>2026-04-22T13:19:06.617Z</time></trkpt><trkpt lat="43.5277433" lon="12.6851683"><ele>364.0</ele><time>2026-04-22T13:19:07.617Z</time></trkpt><trkpt lat="43.5277" lon="12.6850217"><ele>364.0</ele><time>2026-04-22T13:19:08.617Z</time></trkpt><trkpt lat="43.5276417" lon="12.6848917"><ele>364.0</ele><time>2026-04-22T13:19:09.617Z</time></trkpt><trkpt lat="43.5275667" lon="12.6847883"><ele>364.0</ele><time>2026-04-22T13:19:10.617Z</time></trkpt><trkpt lat="43.527465" lon="12.684705"><ele>364.0</ele><time>2026-04-22T13:19:11.617Z</time></trkpt><trkpt lat="43.5273567" lon="12.6846567"><ele>364.0</ele><time>2026-04-22T13:19:12.617Z</time></trkpt><trkpt lat="43.5272533" lon="12.6846217"><ele>364.0</ele><time>2026-04-22T13:19:13.618Z</time></trkpt><trkpt lat="43.5271517" lon="12.6845883"><ele>364.0</ele><time>2026-04-22T13:19:14.617Z</time></trkpt><trkpt lat="43.5270383" lon="12.6845867"><ele>364.0</ele><time>2026-04-22T13:19:15.617Z</time></trkpt><trkpt lat="43.526935" lon="12.6846117"><ele>364.0</ele><time>2026-04-22T13:19:16.617Z</time></trkpt><trkpt lat="43.52682" lon="12.68467"><ele>364.0</ele><time>2026-04-22T13:19:17.617Z</time></trkpt><trkpt lat="43.5267017" lon="12.68475"><ele>362.5</ele><time>2026-04-22T13:19:18.617Z</time></trkpt><trkpt lat="43.5265817" lon="12.6848467"><ele>361.0</ele><time>2026-04-22T13:19:19.617Z</time></trkpt><trkpt lat="43.5264683" lon="12.6849533"><ele>359.5</ele><time>2026-04-22T13:19:20.617Z</time></trkpt><trkpt lat="43.5263733" lon="12.6850617"><ele>358.0</ele><time>2026-04-22T13:19:21.618Z</time></trkpt><trkpt lat="43.5263" lon="12.6851883"><ele>358.5</ele><time>2026-04-22T13:19:22.617Z</time></trkpt><trkpt lat="43.5262667" lon="12.6853267"><ele>359.0</ele><time>2026-04-22T13:19:23.617Z</time></trkpt><trkpt lat="43.5262633" lon="12.6854817"><ele>359.5</ele><time>2026-04-22T13:19:24.617Z</time></trkpt><trkpt lat="43.52629" lon="12.685645"><ele>360.0</ele><time>2026-04-22T13:19:25.617Z</time></trkpt><trkpt lat="43.52633" lon="12.6858283"><ele>360.0</ele><time>2026-04-22T13:19:26.617Z</time></trkpt><trkpt lat="43.5263667" lon="12.6860233"><ele>360.0</ele><time>2026-04-22T13:19:27.617Z</time></trkpt><trkpt lat="43.5264067" lon="12.68624"><ele>360.0</ele><time>2026-04-22T13:19:28.617Z</time></trkpt><trkpt lat="43.526445" lon="12.6864683"><ele>362.0</ele><time>2026-04-22T13:19:29.618Z</time></trkpt><trkpt lat="43.5265" lon="12.68668"><ele>364.0</ele><time>2026-04-22T13:19:30.618Z</time></trkpt><trkpt lat="43.52658" lon="12.6868683"><ele>366.0</ele><time>2026-04-22T13:19:31.617Z</time></trkpt><trkpt lat="43.5266833" lon="12.6870367"><ele>370.3333333333333</ele><time>2026-04-22T13:19:32.617Z</time></trkpt><trkpt lat="43.52678" lon="12.6871967"><ele>374.66666666666663</ele><time>2026-04-22T13:19:33.617Z</time></trkpt><trkpt lat="43.52689" lon="12.6873517"><ele>379.0</ele><time>2026-04-22T13:19:34.617Z</time></trkpt><trkpt lat="43.5270133" lon="12.6874917"><ele>379.25</ele><time>2026-04-22T13:19:35.617Z</time></trkpt><trkpt lat="43.5271317" lon="12.6876333"><ele>379.5</ele><time>2026-04-22T13:19:36.617Z</time></trkpt><trkpt lat="43.527235" lon="12.6877633"><ele>379.75</ele><time>2026-04-22T13:19:37.617Z</time></trkpt><trkpt lat="43.527325" lon="12.6878917"><ele>380.0</ele><time>2026-04-22T13:19:38.618Z</time></trkpt><trkpt lat="43.527405" lon="12.6880133"><ele>380.0</ele><time>2026-04-22T13:19:39.617Z</time></trkpt><trkpt lat="43.52746" lon="12.6881367"><ele>380.0</ele><time>2026-04-22T13:19:40.617Z</time></trkpt><trkpt lat="43.5274983" lon="12.6882617"><ele>380.0</ele><time>2026-04-22T13:19:41.618Z</time></trkpt><trkpt lat="43.52751" lon="12.688395"><ele>380.0</ele><time>2026-04-22T13:19:42.617Z</time></trkpt><trkpt lat="43.52749" lon="12.6885333"><ele>380.0</ele><time>2026-04-22T13:19:43.617Z</time></trkpt><trkpt lat="43.52743" lon="12.688665"><ele>380.0</ele><time>2026-04-22T13:19:44.618Z</time></trkpt><trkpt lat="43.5273417" lon="12.6888083"><ele>380.0</ele><time>2026-04-22T13:19:45.617Z</time></trkpt><trkpt lat="43.52724" lon="12.6889483"><ele>380.0</ele><time>2026-04-22T13:19:46.617Z</time></trkpt><trkpt lat="43.52714" lon="12.6890933"><ele>380.0</ele><time>2026-04-22T13:19:47.617Z</time></trkpt><trkpt lat="43.5270417" lon="12.6892383"><ele>380.0</ele><time>2026-04-22T13:19:48.617Z</time></trkpt><trkpt lat="43.5269333" lon="12.6893983"><ele>380.0</ele><time>2026-04-22T13:19:49.617Z</time></trkpt><trkpt lat="43.5268167" lon="12.6895767"><ele>380.0</ele><time>2026-04-22T13:19:50.617Z</time></trkpt><trkpt lat="43.5266983" lon="12.689765"><ele>378.6666666666667</ele><time>2026-04-22T13:19:51.617Z</time></trkpt><trkpt lat="43.526565" lon="12.6899433"><ele>377.3333333333333</ele><time>2026-04-22T13:19:52.618Z</time></trkpt><trkpt lat="43.526435" lon="12.6901367"><ele>376.0</ele><time>2026-04-22T13:19:53.617Z</time></trkpt><trkpt lat="43.5262917" lon="12.690335"><ele>376.66666666666663</ele><time>2026-04-22T13:19:54.617Z</time></trkpt><trkpt lat="43.52615" lon="12.69054"><ele>377.3333333333333</ele><time>2026-04-22T13:19:55.617Z</time></trkpt><trkpt lat="43.5260133" lon="12.6907467"><ele>378.0</ele><time>2026-04-22T13:19:56.617Z</time></trkpt><trkpt lat="43.52589" lon="12.69094"><ele>378.3333333333333</ele><time>2026-04-22T13:19:57.617Z</time></trkpt><trkpt lat="43.5257783" lon="12.691115"><ele>378.66666666666663</ele><time>2026-04-22T13:19:58.617Z</time></trkpt><trkpt lat="43.5256617" lon="12.69127"><ele>379.0</ele><time>2026-04-22T13:19:59.617Z</time></trkpt><trkpt lat="43.5255467" lon="12.6914117"><ele>379.0</ele><time>2026-04-22T13:20:00.617Z</time></trkpt><trkpt lat="43.525405" lon="12.6915367"><ele>379.0</ele><time>2026-04-22T13:20:01.617Z</time></trkpt><trkpt lat="43.525255" lon="12.6916417"><ele>379.0</ele><time>2026-04-22T13:20:02.617Z</time></trkpt><trkpt lat="43.525095" lon="12.6917167"><ele>380.3333333333333</ele><time>2026-04-22T13:20:03.617Z</time></trkpt><trkpt lat="43.524935" lon="12.691775"><ele>381.6666666666667</ele><time>2026-04-22T13:20:04.617Z</time></trkpt><trkpt lat="43.5247667" lon="12.691805"><ele>383.0</ele><time>2026-04-22T13:20:05.617Z</time></trkpt><trkpt lat="43.5245933" lon="12.69182"><ele>384.0</ele><time>2026-04-22T13:20:06.617Z</time></trkpt><trkpt lat="43.5244133" lon="12.69183"><ele>385.0</ele><time>2026-04-22T13:20:07.617Z</time></trkpt><trkpt lat="43.5242183" lon="12.69183"><ele>386.0</ele><time>2026-04-22T13:20:08.617Z</time></trkpt><trkpt lat="43.52401" lon="12.6918383"><ele>386.0</ele><time>2026-04-22T13:20:09.617Z</time></trkpt><trkpt lat="43.523815" lon="12.691845"><ele>386.0</ele><time>2026-04-22T13:20:10.617Z</time></trkpt><trkpt lat="43.5236217" lon="12.6918417"><ele>386.0</ele><time>2026-04-22T13:20:11.617Z</time></trkpt><trkpt lat="43.5234183" lon="12.69184"><ele>387.0</ele><time>2026-04-22T13:20:12.617Z</time></trkpt><trkpt lat="43.5232117" lon="12.6918417"><ele>388.0</ele><time>2026-04-22T13:20:13.617Z</time></trkpt><trkpt lat="43.5230033" lon="12.6918383"><ele>389.0</ele><time>2026-04-22T13:20:14.617Z</time></trkpt><trkpt lat="43.5227933" lon="12.69185"><ele>387.66666666666663</ele><time>2026-04-22T13:20:15.617Z</time></trkpt><trkpt lat="43.522585" lon="12.6918617"><ele>386.33333333333337</ele><time>2026-04-22T13:20:16.617Z</time></trkpt><trkpt lat="43.52237" lon="12.6919017"><ele>385.0</ele><time>2026-04-22T13:20:17.617Z</time></trkpt><trkpt lat="43.5221533" lon="12.69196"><ele>386.6666666666667</ele><time>2026-04-22T13:20:18.616Z</time></trkpt><trkpt lat="43.5219467" lon="12.692015"><ele>388.33333333333337</ele><time>2026-04-22T13:20:19.616Z</time></trkpt><trkpt lat="43.5217567" lon="12.6920733"><ele>390.0</ele><time>2026-04-22T13:20:20.616Z</time></trkpt><trkpt lat="43.5215767" lon="12.6921183"><ele>390.0</ele><time>2026-04-22T13:20:21.616Z</time></trkpt><trkpt lat="43.5214033" lon="12.6921683"><ele>390.0</ele><time>2026-04-22T13:20:22.616Z</time></trkpt><trkpt lat="43.52125" lon="12.692235"><ele>390.0</ele><time>2026-04-22T13:20:23.617Z</time></trkpt><trkpt lat="43.5211133" lon="12.6923133"><ele>389.75</ele><time>2026-04-22T13:20:24.616Z</time></trkpt><trkpt lat="43.52099" lon="12.6924167"><ele>389.5</ele><time>2026-04-22T13:20:25.616Z</time></trkpt><trkpt lat="43.5208833" lon="12.6925433"><ele>389.25</ele><time>2026-04-22T13:20:26.616Z</time></trkpt><trkpt lat="43.5207833" lon="12.6927017"><ele>389.0</ele><time>2026-04-22T13:20:27.617Z</time></trkpt><trkpt lat="43.52067" lon="12.692845"><ele>389.0</ele><time>2026-04-22T13:20:28.616Z</time></trkpt><trkpt lat="43.5205283" lon="12.69296"><ele>389.0</ele><time>2026-04-22T13:20:29.616Z</time></trkpt><trkpt lat="43.5203783" lon="12.6930467"><ele>389.0</ele><time>2026-04-22T13:20:30.616Z</time></trkpt><trkpt lat="43.520225" lon="12.6930917"><ele>391.5</ele><time>2026-04-22T13:20:31.616Z</time></trkpt><trkpt lat="43.52009" lon="12.6931133"><ele>394.0</ele><time>2026-04-22T13:20:32.616Z</time></trkpt><trkpt lat="43.5199533" lon="12.6931667"><ele>396.5</ele><time>2026-04-22T13:20:33.616Z</time></trkpt><trkpt lat="43.51984" lon="12.6932567"><ele>399.0</ele><time>2026-04-22T13:20:34.617Z</time></trkpt><trkpt lat="43.519745" lon="12.6933783"><ele>399.0</ele><time>2026-04-22T13:20:35.617Z</time></trkpt><trkpt lat="43.519675" lon="12.6935233"><ele>399.0</ele><time>2026-04-22T13:20:36.617Z</time></trkpt><trkpt lat="43.519635" lon="12.6936983"><ele>399.0</ele><time>2026-04-22T13:20:37.617Z</time></trkpt><trkpt lat="43.519605" lon="12.6939017"><ele>399.0</ele><time>2026-04-22T13:20:38.617Z</time></trkpt><trkpt lat="43.519585" lon="12.69413"><ele>397.33333333333337</ele><time>2026-04-22T13:20:39.616Z</time></trkpt><trkpt lat="43.51957" lon="12.69438"><ele>395.6666666666667</ele><time>2026-04-22T13:20:40.616Z</time></trkpt><trkpt lat="43.51955" lon="12.6946383"><ele>394.0</ele><time>2026-04-22T13:20:41.616Z</time></trkpt><trkpt lat="43.519525" lon="12.6949217"><ele>399.6666666666667</ele><time>2026-04-22T13:20:42.616Z</time></trkpt><trkpt lat="43.5195" lon="12.6951933"><ele>405.33333333333337</ele><time>2026-04-22T13:20:43.616Z</time></trkpt><trkpt lat="43.5194833" lon="12.6954733"><ele>411.0</ele><time>2026-04-22T13:20:44.616Z</time></trkpt><trkpt lat="43.5194583" lon="12.6957683"><ele>411.0</ele><time>2026-04-22T13:20:45.616Z</time></trkpt><trkpt lat="43.5194333" lon="12.6960583"><ele>411.0</ele><time>2026-04-22T13:20:46.616Z</time></trkpt><trkpt lat="43.519405" lon="12.6963517"><ele>411.0</ele><time>2026-04-22T13:20:47.616Z</time></trkpt><trkpt lat="43.51938" lon="12.6966217"><ele>410.0</ele><time>2026-04-22T13:20:48.616Z</time></trkpt><trkpt lat="43.519355" lon="12.6968667"><ele>409.0</ele><time>2026-04-22T13:20:49.616Z</time></trkpt><trkpt lat="43.5193267" lon="12.6970817"><ele>408.0</ele><time>2026-04-22T13:20:50.616Z</time></trkpt><trkpt lat="43.5192933" lon="12.6972783"><ele>407.66666666666663</ele><time>2026-04-22T13:20:51.616Z</time></trkpt><trkpt lat="43.5192533" lon="12.69747"><ele>407.3333333333333</ele><time>2026-04-22T13:20:52.616Z</time></trkpt><trkpt lat="43.519185" lon="12.697665"><ele>407.0</ele><time>2026-04-22T13:20:53.616Z</time></trkpt><trkpt lat="43.5191033" lon="12.6978633"><ele>406.3333333333333</ele><time>2026-04-22T13:20:54.617Z</time></trkpt><trkpt lat="43.5189983" lon="12.6980567"><ele>405.66666666666663</ele><time>2026-04-22T13:20:55.616Z</time></trkpt><trkpt lat="43.51888" lon="12.69827"><ele>405.0</ele><time>2026-04-22T13:20:56.616Z</time></trkpt><trkpt lat="43.5187767" lon="12.6985033"><ele>403.66666666666663</ele><time>2026-04-22T13:20:57.616Z</time></trkpt><trkpt lat="43.5186633" lon="12.6987367"><ele>402.3333333333333</ele><time>2026-04-22T13:20:58.616Z</time></trkpt><trkpt lat="43.5185467" lon="12.6989583"><ele>401.0</ele><time>2026-04-22T13:20:59.616Z</time></trkpt><trkpt lat="43.51844" lon="12.6991783"><ele>401.0</ele><time>2026-04-22T13:21:00.616Z</time></trkpt><trkpt lat="43.5183317" lon="12.69938"><ele>401.0</ele><time>2026-04-22T13:21:01.616Z</time></trkpt><trkpt lat="43.5182433" lon="12.69959"><ele>401.0</ele><time>2026-04-22T13:21:02.616Z</time></trkpt><trkpt lat="43.5181717" lon="12.699815"><ele>400.3333333333333</ele><time>2026-04-22T13:21:03.616Z</time></trkpt><trkpt lat="43.51811" lon="12.70006"><ele>399.66666666666663</ele><time>2026-04-22T13:21:04.616Z</time></trkpt><trkpt lat="43.5180517" lon="12.7003033"><ele>399.0</ele><time>2026-04-22T13:21:05.616Z</time></trkpt><trkpt lat="43.5179883" lon="12.70054"><ele>398.33333333333337</ele><time>2026-04-22T13:21:06.616Z</time></trkpt><trkpt lat="43.51792" lon="12.700785"><ele>397.6666666666667</ele><time>2026-04-22T13:21:07.616Z</time></trkpt><trkpt lat="43.5178583" lon="12.7010233"><ele>397.0</ele><time>2026-04-22T13:21:08.617Z</time></trkpt><trkpt lat="43.5177917" lon="12.701275"><ele>395.6666666666667</ele><time>2026-04-22T13:21:09.616Z</time></trkpt><trkpt lat="43.5177217" lon="12.70153"><ele>394.33333333333337</ele><time>2026-04-22T13:21:10.616Z</time></trkpt><trkpt lat="43.5176517" lon="12.7017917"><ele>393.0</ele><time>2026-04-22T13:21:11.616Z</time></trkpt><trkpt lat="43.5175767" lon="12.7020583"><ele>392.0</ele><time>2026-04-22T13:21:12.616Z</time></trkpt><trkpt lat="43.5175033" lon="12.702325"><ele>391.0</ele><time>2026-04-22T13:21:13.616Z</time></trkpt><trkpt lat="43.5174267" lon="12.7025833"><ele>390.0</ele><time>2026-04-22T13:21:14.617Z</time></trkpt><trkpt lat="43.5173483" lon="12.70284"><ele>389.33333333333337</ele><time>2026-04-22T13:21:15.616Z</time></trkpt><trkpt lat="43.5172617" lon="12.7031"><ele>388.6666666666667</ele><time>2026-04-22T13:21:16.616Z</time></trkpt><trkpt lat="43.5171767" lon="12.7033467"><ele>388.0</ele><time>2026-04-22T13:21:17.616Z</time></trkpt><trkpt lat="43.5170817" lon="12.70359"><ele>390.6666666666667</ele><time>2026-04-22T13:21:18.617Z</time></trkpt><trkpt lat="43.5169967" lon="12.7038267"><ele>393.33333333333337</ele><time>2026-04-22T13:21:19.617Z</time></trkpt><trkpt lat="43.5169167" lon="12.7040467"><ele>396.0</ele><time>2026-04-22T13:21:20.616Z</time></trkpt><trkpt lat="43.5168333" lon="12.7042317"><ele>396.0</ele><time>2026-04-22T13:21:21.616Z</time></trkpt><trkpt lat="43.5167333" lon="12.7043933"><ele>396.0</ele><time>2026-04-22T13:21:22.616Z</time></trkpt><trkpt lat="43.5166283" lon="12.70452"><ele>396.0</ele><time>2026-04-22T13:21:23.616Z</time></trkpt><trkpt lat="43.5165133" lon="12.704615"><ele>396.0</ele><time>2026-04-22T13:21:24.616Z</time></trkpt><trkpt lat="43.51639" lon="12.7047017"><ele>394.33333333333337</ele><time>2026-04-22T13:21:25.616Z</time></trkpt><trkpt lat="43.51625" lon="12.704775"><ele>392.6666666666667</ele><time>2026-04-22T13:21:26.616Z</time></trkpt><trkpt lat="43.5161017" lon="12.70484"><ele>391.0</ele><time>2026-04-22T13:21:27.616Z</time></trkpt><trkpt lat="43.5159433" lon="12.7048933"><ele>394.33333333333337</ele><time>2026-04-22T13:21:28.617Z</time></trkpt><trkpt lat="43.515785" lon="12.7049583"><ele>397.66666666666663</ele><time>2026-04-22T13:21:29.616Z</time></trkpt><trkpt lat="43.515625" lon="12.70505"><ele>401.0</ele><time>2026-04-22T13:21:30.616Z</time></trkpt><trkpt lat="43.51546" lon="12.70518"><ele>402.3333333333333</ele><time>2026-04-22T13:21:31.616Z</time></trkpt><trkpt lat="43.5153" lon="12.70534"><ele>403.66666666666663</ele><time>2026-04-22T13:21:32.616Z</time></trkpt><trkpt lat="43.5151383" lon="12.7055"><ele>405.0</ele><time>2026-04-22T13:21:33.616Z</time></trkpt><trkpt lat="43.51499" lon="12.7056533"><ele>405.0</ele><time>2026-04-22T13:21:34.617Z</time></trkpt><trkpt lat="43.5148567" lon="12.7057917"><ele>405.0</ele><time>2026-04-22T13:21:35.616Z</time></trkpt><trkpt lat="43.5147417" lon="12.7059333"><ele>405.0</ele><time>2026-04-22T13:21:36.617Z</time></trkpt><trkpt lat="43.51466" lon="12.7060767"><ele>406.66666666666663</ele><time>2026-04-22T13:21:37.616Z</time></trkpt><trkpt lat="43.51459" lon="12.70627"><ele>408.3333333333333</ele><time>2026-04-22T13:21:38.616Z</time></trkpt><trkpt lat="43.5145433" lon="12.7064833"><ele>410.0</ele><time>2026-04-22T13:21:39.616Z</time></trkpt><trkpt lat="43.514495" lon="12.70671"><ele>411.0</ele><time>2026-04-22T13:21:40.616Z</time></trkpt><trkpt lat="43.5144367" lon="12.7069333"><ele>412.0</ele><time>2026-04-22T13:21:41.616Z</time></trkpt><trkpt lat="43.5143833" lon="12.7071533"><ele>413.0</ele><time>2026-04-22T13:21:42.616Z</time></trkpt><trkpt lat="43.5143483" lon="12.7073717"><ele>413.0</ele><time>2026-04-22T13:21:43.617Z</time></trkpt><trkpt lat="43.5143333" lon="12.7075917"><ele>413.0</ele><time>2026-04-22T13:21:44.616Z</time></trkpt><trkpt lat="43.51435" lon="12.7078183"><ele>413.0</ele><time>2026-04-22T13:21:45.616Z</time></trkpt><trkpt lat="43.5143867" lon="12.70805"><ele>414.0</ele><time>2026-04-22T13:21:46.616Z</time></trkpt><trkpt lat="43.5144333" lon="12.70828"><ele>415.0</ele><time>2026-04-22T13:21:47.616Z</time></trkpt><trkpt lat="43.514475" lon="12.70851"><ele>416.0</ele><time>2026-04-22T13:21:48.616Z</time></trkpt><trkpt lat="43.51452" lon="12.70873"><ele>417.66666666666663</ele><time>2026-04-22T13:21:49.616Z</time></trkpt><trkpt lat="43.514565" lon="12.708955"><ele>419.33333333333337</ele><time>2026-04-22T13:21:50.616Z</time></trkpt><trkpt lat="43.5146117" lon="12.70918"><ele>421.0</ele><time>2026-04-22T13:21:51.616Z</time></trkpt><trkpt lat="43.514655" lon="12.7094017"><ele>423.33333333333337</ele><time>2026-04-22T13:21:52.616Z</time></trkpt><trkpt lat="43.5147183" lon="12.7096217"><ele>425.66666666666663</ele><time>2026-04-22T13:21:53.616Z</time></trkpt><trkpt lat="43.514795" lon="12.7098417"><ele>428.0</ele><time>2026-04-22T13:21:54.616Z</time></trkpt><trkpt lat="43.5148733" lon="12.710065"><ele>428.3333333333333</ele><time>2026-04-22T13:21:55.617Z</time></trkpt><trkpt lat="43.5149567" lon="12.7102817"><ele>428.66666666666663</ele><time>2026-04-22T13:21:56.616Z</time></trkpt><trkpt lat="43.5150333" lon="12.7104917"><ele>429.0</ele><time>2026-04-22T13:21:57.616Z</time></trkpt><trkpt lat="43.5151083" lon="12.7107067"><ele>429.0</ele><time>2026-04-22T13:21:58.616Z</time></trkpt><trkpt lat="43.5151867" lon="12.7109167"><ele>429.0</ele><time>2026-04-22T13:21:59.616Z</time></trkpt><trkpt lat="43.5152667" lon="12.711135"><ele>429.0</ele><time>2026-04-22T13:22:00.616Z</time></trkpt><trkpt lat="43.5153383" lon="12.7113533"><ele>429.66666666666663</ele><time>2026-04-22T13:22:01.616Z</time></trkpt><trkpt lat="43.515395" lon="12.711575"><ele>430.3333333333333</ele><time>2026-04-22T13:22:02.616Z</time></trkpt><trkpt lat="43.5154367" lon="12.7118083"><ele>431.0</ele><time>2026-04-22T13:22:03.616Z</time></trkpt><trkpt lat="43.51548" lon="12.7120517"><ele>436.66666666666663</ele><time>2026-04-22T13:22:04.617Z</time></trkpt><trkpt lat="43.5155067" lon="12.7123017"><ele>442.33333333333337</ele><time>2026-04-22T13:22:05.616Z</time></trkpt><trkpt lat="43.515525" lon="12.7125617"><ele>448.0</ele><time>2026-04-22T13:22:06.616Z</time></trkpt><trkpt lat="43.5155383" lon="12.7128217"><ele>448.6666666666667</ele><time>2026-04-22T13:22:07.616Z</time></trkpt><trkpt lat="43.5155533" lon="12.713085"><ele>449.33333333333337</ele><time>2026-04-22T13:22:08.616Z</time></trkpt><trkpt lat="43.515575" lon="12.7133483"><ele>450.0</ele><time>2026-04-22T13:22:09.616Z</time></trkpt><trkpt lat="43.5155983" lon="12.713605"><ele>452.0</ele><time>2026-04-22T13:22:10.617Z</time></trkpt><trkpt lat="43.515615" lon="12.7138633"><ele>454.0</ele><time>2026-04-22T13:22:11.616Z</time></trkpt><trkpt lat="43.5156367" lon="12.7141067"><ele>456.0</ele><time>2026-04-22T13:22:12.616Z</time></trkpt><trkpt lat="43.5156683" lon="12.7143383"><ele>456.33333333333337</ele><time>2026-04-22T13:22:13.616Z</time></trkpt><trkpt lat="43.5157033" lon="12.71456"><ele>456.6666666666667</ele><time>2026-04-22T13:22:14.616Z</time></trkpt><trkpt lat="43.5157517" lon="12.714775"><ele>457.0</ele><time>2026-04-22T13:22:15.616Z</time></trkpt><trkpt lat="43.515805" lon="12.7149783"><ele>457.0</ele><time>2026-04-22T13:22:16.616Z</time></trkpt><trkpt lat="43.5158633" lon="12.71519"><ele>457.0</ele><time>2026-04-22T13:22:17.616Z</time></trkpt><trkpt lat="43.5159133" lon="12.7154"><ele>457.0</ele><time>2026-04-22T13:22:18.616Z</time></trkpt><trkpt lat="43.515955" lon="12.7156117"><ele>457.6666666666667</ele><time>2026-04-22T13:22:19.616Z</time></trkpt><trkpt lat="43.5159733" lon="12.7158217"><ele>458.33333333333337</ele><time>2026-04-22T13:22:20.616Z</time></trkpt><trkpt lat="43.5159783" lon="12.71604"><ele>459.0</ele><time>2026-04-22T13:22:21.616Z</time></trkpt><trkpt lat="43.51598" lon="12.716265"><ele>459.66666666666663</ele><time>2026-04-22T13:22:22.616Z</time></trkpt><trkpt lat="43.5159833" lon="12.71649"><ele>460.3333333333333</ele><time>2026-04-22T13:22:23.616Z</time></trkpt><trkpt lat="43.5159767" lon="12.7167233"><ele>461.0</ele><time>2026-04-22T13:22:24.616Z</time></trkpt><trkpt lat="43.5159667" lon="12.7169517"><ele>461.25</ele><time>2026-04-22T13:22:25.617Z</time></trkpt><trkpt lat="43.5159733" lon="12.717165"><ele>461.5</ele><time>2026-04-22T13:22:26.616Z</time></trkpt><trkpt lat="43.5159817" lon="12.7173667"><ele>461.75</ele><time>2026-04-22T13:22:27.616Z</time></trkpt><trkpt lat="43.5159917" lon="12.7175567"><ele>462.0</ele><time>2026-04-22T13:22:28.616Z</time></trkpt><trkpt lat="43.516015" lon="12.71774"><ele>460.5</ele><time>2026-04-22T13:22:29.616Z</time></trkpt><trkpt lat="43.5160417" lon="12.71791"><ele>459.0</ele><time>2026-04-22T13:22:30.617Z</time></trkpt><trkpt lat="43.5160517" lon="12.7180967"><ele>457.5</ele><time>2026-04-22T13:22:31.616Z</time></trkpt><trkpt lat="43.516055" lon="12.7182767"><ele>456.0</ele><time>2026-04-22T13:22:32.616Z</time></trkpt><trkpt lat="43.51606" lon="12.7184433"><ele>453.75</ele><time>2026-04-22T13:22:33.616Z</time></trkpt><trkpt lat="43.5160767" lon="12.7186117"><ele>451.5</ele><time>2026-04-22T13:22:34.616Z</time></trkpt><trkpt lat="43.51611" lon="12.718775"><ele>449.25</ele><time>2026-04-22T13:22:35.616Z</time></trkpt><trkpt lat="43.5161467" lon="12.71893"><ele>447.0</ele><time>2026-04-22T13:22:36.616Z</time></trkpt><trkpt lat="43.5161833" lon="12.7190817"><ele>447.0</ele><time>2026-04-22T13:22:37.616Z</time></trkpt><trkpt lat="43.516225" lon="12.7192367"><ele>447.0</ele><time>2026-04-22T13:22:38.616Z</time></trkpt><trkpt lat="43.5162617" lon="12.7193983"><ele>447.0</ele><time>2026-04-22T13:22:39.616Z</time></trkpt><trkpt lat="43.5162967" lon="12.7195567"><ele>447.0</ele><time>2026-04-22T13:22:40.616Z</time></trkpt><trkpt lat="43.5163367" lon="12.719715"><ele>449.0</ele><time>2026-04-22T13:22:41.617Z</time></trkpt><trkpt lat="43.516375" lon="12.7198767"><ele>451.0</ele><time>2026-04-22T13:22:42.616Z</time></trkpt><trkpt lat="43.5163917" lon="12.72004"><ele>453.0</ele><time>2026-04-22T13:22:43.616Z</time></trkpt><trkpt lat="43.5163933" lon="12.720195"><ele>455.0</ele><time>2026-04-22T13:22:44.616Z</time></trkpt><trkpt lat="43.51638" lon="12.72036"><ele>455.0</ele><time>2026-04-22T13:22:45.617Z</time></trkpt><trkpt lat="43.51637" lon="12.7205283"><ele>455.0</ele><time>2026-04-22T13:22:46.616Z</time></trkpt><trkpt lat="43.5163717" lon="12.7206983"><ele>455.0</ele><time>2026-04-22T13:22:47.616Z</time></trkpt><trkpt lat="43.516375" lon="12.720865"><ele>455.0</ele><time>2026-04-22T13:22:48.616Z</time></trkpt><trkpt lat="43.5163883" lon="12.7210217"><ele>452.5</ele><time>2026-04-22T13:22:49.616Z</time></trkpt><trkpt lat="43.5164133" lon="12.7211717"><ele>450.0</ele><time>2026-04-22T13:22:50.616Z</time></trkpt><trkpt lat="43.51646" lon="12.72131"><ele>447.5</ele><time>2026-04-22T13:22:51.616Z</time></trkpt><trkpt lat="43.5165217" lon="12.7214417"><ele>445.0</ele><time>2026-04-22T13:22:52.616Z</time></trkpt><trkpt lat="43.516585" lon="12.721585"><ele>445.0</ele><time>2026-04-22T13:22:53.616Z</time></trkpt><trkpt lat="43.5166517" lon="12.7217167"><ele>445.0</ele><time>2026-04-22T13:22:54.616Z</time></trkpt><trkpt lat="43.51671" lon="12.7218467"><ele>445.0</ele><time>2026-04-22T13:22:55.617Z</time></trkpt><trkpt lat="43.516765" lon="12.7219817"><ele>445.0</ele><time>2026-04-22T13:22:56.616Z</time></trkpt><trkpt lat="43.5168017" lon="12.7221367"><ele>443.75</ele><time>2026-04-22T13:22:57.617Z</time></trkpt><trkpt lat="43.5168233" lon="12.722305"><ele>442.5</ele><time>2026-04-22T13:22:58.616Z</time></trkpt><trkpt lat="43.5168267" lon="12.7224783"><ele>441.25</ele><time>2026-04-22T13:22:59.616Z</time></trkpt><trkpt lat="43.5168283" lon="12.7226467"><ele>440.0</ele><time>2026-04-22T13:23:00.616Z</time></trkpt><trkpt lat="43.5168483" lon="12.7228117"><ele>439.0</ele><time>2026-04-22T13:23:01.616Z</time></trkpt><trkpt lat="43.5168783" lon="12.722955"><ele>438.0</ele><time>2026-04-22T13:23:02.616Z</time></trkpt><trkpt lat="43.5169217" lon="12.7231"><ele>437.0</ele><time>2026-04-22T13:23:03.616Z</time></trkpt><trkpt lat="43.51696" lon="12.72324"><ele>436.0</ele><time>2026-04-22T13:23:04.616Z</time></trkpt><trkpt lat="43.516975" lon="12.7233783"><ele>435.0</ele><time>2026-04-22T13:23:05.616Z</time></trkpt><trkpt lat="43.5169717" lon="12.7235333"><ele>437.0</ele><time>2026-04-22T13:23:06.616Z</time></trkpt><trkpt lat="43.5169433" lon="12.7236833"><ele>439.0</ele><time>2026-04-22T13:23:07.616Z</time></trkpt><trkpt lat="43.5168983" lon="12.7238417"><ele>441.0</ele><time>2026-04-22T13:23:08.616Z</time></trkpt><trkpt lat="43.516845" lon="12.7240017"><ele>443.0</ele><time>2026-04-22T13:23:09.617Z</time></trkpt><trkpt lat="43.5167933" lon="12.7241817"><ele>443.0</ele><time>2026-04-22T13:23:10.616Z</time></trkpt><trkpt lat="43.5167383" lon="12.7243633"><ele>443.0</ele><time>2026-04-22T13:23:11.616Z</time></trkpt><trkpt lat="43.5166683" lon="12.7245517"><ele>443.0</ele><time>2026-04-22T13:23:12.616Z</time></trkpt><trkpt lat="43.516585" lon="12.724725"><ele>443.0</ele><time>2026-04-22T13:23:13.616Z</time></trkpt><trkpt lat="43.5165033" lon="12.7248883"><ele>443.0</ele><time>2026-04-22T13:23:14.616Z</time></trkpt><trkpt lat="43.5164233" lon="12.7250417"><ele>443.0</ele><time>2026-04-22T13:23:15.617Z</time></trkpt><trkpt lat="43.51634" lon="12.7251867"><ele>443.0</ele><time>2026-04-22T13:23:16.616Z</time></trkpt><trkpt lat="43.5162467" lon="12.7253333"><ele>443.0</ele><time>2026-04-22T13:23:17.616Z</time></trkpt><trkpt lat="43.51614" lon="12.7254583"><ele>443.0</ele><time>2026-04-22T13:23:18.616Z</time></trkpt><trkpt lat="43.51603" lon="12.725585"><ele>443.0</ele><time>2026-04-22T13:23:19.616Z</time></trkpt><trkpt lat="43.5159167" lon="12.7257"><ele>443.0</ele><time>2026-04-22T13:23:20.616Z</time></trkpt><trkpt lat="43.5158067" lon="12.7258283"><ele>443.0</ele><time>2026-04-22T13:23:21.617Z</time></trkpt><trkpt lat="43.5157083" lon="12.7259717"><ele>440.5</ele><time>2026-04-22T13:23:22.616Z</time></trkpt><trkpt lat="43.5156067" lon="12.7261233"><ele>438.0</ele><time>2026-04-22T13:23:23.616Z</time></trkpt><trkpt lat="43.5155183" lon="12.7262917"><ele>435.5</ele><time>2026-04-22T13:23:24.616Z</time></trkpt><trkpt lat="43.5154483" lon="12.7264717"><ele>433.0</ele><time>2026-04-22T13:23:25.616Z</time></trkpt><trkpt lat="43.5153733" lon="12.726645"><ele>433.0</ele><time>2026-04-22T13:23:26.616Z</time></trkpt><trkpt lat="43.515285" lon="12.7268067"><ele>433.0</ele><time>2026-04-22T13:23:27.616Z</time></trkpt><trkpt lat="43.5151883" lon="12.7269567"><ele>433.0</ele><time>2026-04-22T13:23:28.616Z</time></trkpt><trkpt lat="43.5150867" lon="12.7270867"><ele>433.0</ele><time>2026-04-22T13:23:29.616Z</time></trkpt><trkpt lat="43.5149817" lon="12.7272267"><ele>432.0</ele><time>2026-04-22T13:23:30.616Z</time></trkpt><trkpt lat="43.5148733" lon="12.7273667"><ele>431.0</ele><time>2026-04-22T13:23:31.616Z</time></trkpt><trkpt lat="43.51477" lon="12.7274967"><ele>430.0</ele><time>2026-04-22T13:23:32.616Z</time></trkpt><trkpt lat="43.514665" lon="12.7276283"><ele>429.0</ele><time>2026-04-22T13:23:33.616Z</time></trkpt><trkpt lat="43.5145633" lon="12.72775"><ele>429.0</ele><time>2026-04-22T13:23:34.616Z</time></trkpt><trkpt lat="43.514465" lon="12.7278733"><ele>429.0</ele><time>2026-04-22T13:23:35.616Z</time></trkpt><trkpt lat="43.5143733" lon="12.728015"><ele>429.0</ele><time>2026-04-22T13:23:36.616Z</time></trkpt><trkpt lat="43.5142867" lon="12.7281467"><ele>429.0</ele><time>2026-04-22T13:23:37.616Z</time></trkpt><trkpt lat="43.5142117" lon="12.7282817"><ele>429.0</ele><time>2026-04-22T13:23:38.616Z</time></trkpt><trkpt lat="43.5141517" lon="12.728435"><ele>429.0</ele><time>2026-04-22T13:23:39.616Z</time></trkpt><trkpt lat="43.5141133" lon="12.728595"><ele>429.0</ele><time>2026-04-22T13:23:40.616Z</time></trkpt><trkpt lat="43.5140767" lon="12.728765"><ele>429.0</ele><time>2026-04-22T13:23:41.616Z</time></trkpt><trkpt lat="43.5140467" lon="12.728935"><ele>430.5</ele><time>2026-04-22T13:23:42.616Z</time></trkpt><trkpt lat="43.514005" lon="12.7291067"><ele>432.0</ele><time>2026-04-22T13:23:43.617Z</time></trkpt><trkpt lat="43.51396" lon="12.7292767"><ele>433.5</ele><time>2026-04-22T13:23:44.616Z</time></trkpt><trkpt lat="43.51392" lon="12.729445"><ele>435.0</ele><time>2026-04-22T13:23:45.616Z</time></trkpt><trkpt lat="43.51388" lon="12.7296083"><ele>435.0</ele><time>2026-04-22T13:23:46.616Z</time></trkpt><trkpt lat="43.5138333" lon="12.7297633"><ele>435.0</ele><time>2026-04-22T13:23:47.616Z</time></trkpt><trkpt lat="43.5137883" lon="12.7299133"><ele>435.0</ele><time>2026-04-22T13:23:48.616Z</time></trkpt><trkpt lat="43.5137467" lon="12.730045"><ele>435.0</ele><time>2026-04-22T13:23:49.616Z</time></trkpt><trkpt lat="43.5137017" lon="12.730155"><ele>435.0</ele><time>2026-04-22T13:23:50.616Z</time></trkpt><trkpt lat="43.5136583" lon="12.7302483"><ele>432.8</ele><time>2026-04-22T13:23:51.616Z</time></trkpt><trkpt lat="43.5136033" lon="12.7303217"><ele>430.6</ele><time>2026-04-22T13:23:52.616Z</time></trkpt><trkpt lat="43.51354" lon="12.7303567"><ele>428.4</ele><time>2026-04-22T13:23:53.616Z</time></trkpt><trkpt lat="43.5134333" lon="12.7303267"><ele>426.2</ele><time>2026-04-22T13:23:55.616Z</time></trkpt><trkpt lat="43.5133983" lon="12.73021"><ele>424.0</ele><time>2026-04-22T13:23:57.617Z</time></trkpt><trkpt lat="43.51344" lon="12.73004"><ele>424.0</ele><time>2026-04-22T13:23:59.616Z</time></trkpt><trkpt lat="43.5134833" lon="12.729945"><ele>424.0</ele><time>2026-04-22T13:24:00.616Z</time></trkpt><trkpt lat="43.5135217" lon="12.729825"><ele>424.0</ele><time>2026-04-22T13:24:01.616Z</time></trkpt><trkpt lat="43.51356" lon="12.7297017"><ele>424.0</ele><time>2026-04-22T13:24:02.616Z</time></trkpt><trkpt lat="43.5135967" lon="12.7295833"><ele>424.0</ele><time>2026-04-22T13:24:03.616Z</time></trkpt><trkpt lat="43.5136267" lon="12.7294617"><ele>424.4</ele><time>2026-04-22T13:24:04.616Z</time></trkpt><trkpt lat="43.5136583" lon="12.729345"><ele>424.79999999999995</ele><time>2026-04-22T13:24:05.616Z</time></trkpt><trkpt lat="43.51366" lon="12.729225"><ele>425.20000000000005</ele><time>2026-04-22T13:24:06.616Z</time></trkpt><trkpt lat="43.5136483" lon="12.729105"><ele>425.6</ele><time>2026-04-22T13:24:07.616Z</time></trkpt><trkpt lat="43.5136083" lon="12.728985"><ele>426.0</ele><time>2026-04-22T13:24:08.616Z</time></trkpt><trkpt lat="43.5135567" lon="12.7288717"><ele>426.0</ele><time>2026-04-22T13:24:09.617Z</time></trkpt><trkpt lat="43.5135083" lon="12.72876"><ele>426.0</ele><time>2026-04-22T13:24:10.616Z</time></trkpt><trkpt lat="43.5134617" lon="12.728655"><ele>426.0</ele><time>2026-04-22T13:24:11.616Z</time></trkpt><trkpt lat="43.5134233" lon="12.7285583"><ele>426.0</ele><time>2026-04-22T13:24:12.616Z</time></trkpt><trkpt lat="43.5133933" lon="12.7284683"><ele>426.0</ele><time>2026-04-22T13:24:13.616Z</time></trkpt><trkpt lat="43.51332" lon="12.728355"><ele>426.0</ele><time>2026-04-22T13:24:15.617Z</time></trkpt><trkpt lat="43.51323" lon="12.7283833"><ele>426.0</ele><time>2026-04-22T13:24:17.616Z</time></trkpt><trkpt lat="43.5131667" lon="12.7284833"><ele>426.0</ele><time>2026-04-22T13:24:19.616Z</time></trkpt><trkpt lat="43.51314" lon="12.7285683"><ele>426.0</ele><time>2026-04-22T13:24:20.616Z</time></trkpt><trkpt lat="43.5131033" lon="12.7286633"><ele>426.0</ele><time>2026-04-22T13:24:21.616Z</time></trkpt><trkpt lat="43.5130517" lon="12.7287767"><ele>426.0</ele><time>2026-04-22T13:24:22.616Z</time></trkpt><trkpt lat="43.5129983" lon="12.7288933"><ele>426.0</ele><time>2026-04-22T13:24:23.616Z</time></trkpt><trkpt lat="43.512945" lon="12.729015"><ele>425.75</ele><time>2026-04-22T13:24:24.616Z</time></trkpt><trkpt lat="43.512895" lon="12.7291533"><ele>425.5</ele><time>2026-04-22T13:24:25.616Z</time></trkpt><trkpt lat="43.5128533" lon="12.7293083"><ele>425.25</ele><time>2026-04-22T13:24:26.616Z</time></trkpt><trkpt lat="43.51282" lon="12.729475"><ele>425.0</ele><time>2026-04-22T13:24:27.616Z</time></trkpt><trkpt lat="43.512785" lon="12.7296317"><ele>425.0</ele><time>2026-04-22T13:24:28.616Z</time></trkpt><trkpt lat="43.5127433" lon="12.7297867"><ele>425.0</ele><time>2026-04-22T13:24:29.616Z</time></trkpt><trkpt lat="43.5127" lon="12.7299483"><ele>425.0</ele><time>2026-04-22T13:24:30.616Z</time></trkpt><trkpt lat="43.512665" lon="12.7301083"><ele>425.0</ele><time>2026-04-22T13:24:31.616Z</time></trkpt><trkpt lat="43.5126233" lon="12.730265"><ele>424.75</ele><time>2026-04-22T13:24:32.616Z</time></trkpt><trkpt lat="43.5125817" lon="12.7304217"><ele>424.5</ele><time>2026-04-22T13:24:33.616Z</time></trkpt><trkpt lat="43.5125383" lon="12.73059"><ele>424.25</ele><time>2026-04-22T13:24:34.616Z</time></trkpt><trkpt lat="43.51249" lon="12.7307567"><ele>424.0</ele><time>2026-04-22T13:24:35.616Z</time></trkpt><trkpt lat="43.512455" lon="12.7309333"><ele>423.0</ele><time>2026-04-22T13:24:36.616Z</time></trkpt><trkpt lat="43.5124117" lon="12.7311"><ele>422.0</ele><time>2026-04-22T13:24:37.616Z</time></trkpt><trkpt lat="43.51237" lon="12.7312717"><ele>421.0</ele><time>2026-04-22T13:24:38.617Z</time></trkpt><trkpt lat="43.5123283" lon="12.7314433"><ele>420.0</ele><time>2026-04-22T13:24:39.616Z</time></trkpt><trkpt lat="43.5122883" lon="12.7316183"><ele>420.0</ele><time>2026-04-22T13:24:40.616Z</time></trkpt><trkpt lat="43.5122533" lon="12.7318017"><ele>420.0</ele><time>2026-04-22T13:24:41.616Z</time></trkpt><trkpt lat="43.5122183" lon="12.73198"><ele>420.0</ele><time>2026-04-22T13:24:42.616Z</time></trkpt><trkpt lat="43.5121933" lon="12.732155"><ele>420.0</ele><time>2026-04-22T13:24:43.616Z</time></trkpt><trkpt lat="43.5121683" lon="12.732335"><ele>419.75</ele><time>2026-04-22T13:24:44.616Z</time></trkpt><trkpt lat="43.5121467" lon="12.7325133"><ele>419.5</ele><time>2026-04-22T13:24:45.616Z</time></trkpt><trkpt lat="43.5121317" lon="12.732695"><ele>419.25</ele><time>2026-04-22T13:24:46.617Z</time></trkpt><trkpt lat="43.5121233" lon="12.7328717"><ele>419.0</ele><time>2026-04-22T13:24:47.616Z</time></trkpt><trkpt lat="43.5121233" lon="12.7330417"><ele>419.25</ele><time>2026-04-22T13:24:48.616Z</time></trkpt><trkpt lat="43.5121317" lon="12.73322"><ele>419.5</ele><time>2026-04-22T13:24:49.616Z</time></trkpt><trkpt lat="43.5121433" lon="12.7333917"><ele>419.75</ele><time>2026-04-22T13:24:50.616Z</time></trkpt><trkpt lat="43.5121583" lon="12.7335567"><ele>420.0</ele><time>2026-04-22T13:24:51.616Z</time></trkpt><trkpt lat="43.51218" lon="12.7337217"><ele>420.0</ele><time>2026-04-22T13:24:52.616Z</time></trkpt><trkpt lat="43.5122167" lon="12.7338933"><ele>420.0</ele><time>2026-04-22T13:24:53.616Z</time></trkpt><trkpt lat="43.5122617" lon="12.73407"><ele>420.0</ele><time>2026-04-22T13:24:54.616Z</time></trkpt><trkpt lat="43.5123083" lon="12.73425"><ele>420.0</ele><time>2026-04-22T13:24:55.616Z</time></trkpt><trkpt lat="43.512365" lon="12.7344333"><ele>421.0</ele><time>2026-04-22T13:24:56.616Z</time></trkpt><trkpt lat="43.5124217" lon="12.7346217"><ele>422.0</ele><time>2026-04-22T13:24:57.616Z</time></trkpt><trkpt lat="43.5124867" lon="12.734805"><ele>423.0</ele><time>2026-04-22T13:24:58.616Z</time></trkpt><trkpt lat="43.51255" lon="12.734985"><ele>424.0</ele><time>2026-04-22T13:24:59.617Z</time></trkpt><trkpt lat="43.51262" lon="12.7351617"><ele>427.0</ele><time>2026-04-22T13:25:00.616Z</time></trkpt><trkpt lat="43.5126933" lon="12.7353467"><ele>430.0</ele><time>2026-04-22T13:25:01.616Z</time></trkpt><trkpt lat="43.5127633" lon="12.7355267"><ele>433.0</ele><time>2026-04-22T13:25:02.617Z</time></trkpt><trkpt lat="43.5128267" lon="12.7356967"><ele>436.0</ele><time>2026-04-22T13:25:03.616Z</time></trkpt><trkpt lat="43.5128833" lon="12.7358533"><ele>432.75</ele><time>2026-04-22T13:25:04.616Z</time></trkpt><trkpt lat="43.512945" lon="12.7359967"><ele>429.5</ele><time>2026-04-22T13:25:05.616Z</time></trkpt><trkpt lat="43.5129983" lon="12.7361417"><ele>426.25</ele><time>2026-04-22T13:25:06.616Z</time></trkpt><trkpt lat="43.5130533" lon="12.7362917"><ele>423.0</ele><time>2026-04-22T13:25:07.616Z</time></trkpt><trkpt lat="43.5131067" lon="12.73643"><ele>423.0</ele><time>2026-04-22T13:25:08.617Z</time></trkpt><trkpt lat="43.5131517" lon="12.7365483"><ele>423.0</ele><time>2026-04-22T13:25:09.616Z</time></trkpt><trkpt lat="43.5132067" lon="12.7366767"><ele>423.0</ele><time>2026-04-22T13:25:10.616Z</time></trkpt><trkpt lat="43.5132567" lon="12.7368"><ele>423.0</ele><time>2026-04-22T13:25:11.616Z</time></trkpt><trkpt lat="43.5133" lon="12.7369283"><ele>423.0</ele><time>2026-04-22T13:25:12.616Z</time></trkpt><trkpt lat="43.51334" lon="12.737055"><ele>422.4</ele><time>2026-04-22T13:25:13.617Z</time></trkpt><trkpt lat="43.5133833" lon="12.7371867"><ele>421.79999999999995</ele><time>2026-04-22T13:25:14.616Z</time></trkpt><trkpt lat="43.5134167" lon="12.7373133"><ele>421.2</ele><time>2026-04-22T13:25:15.616Z</time></trkpt><trkpt lat="43.5134617" lon="12.7374517"><ele>420.6</ele><time>2026-04-22T13:25:16.616Z</time></trkpt><trkpt lat="43.5135167" lon="12.7375783"><ele>420.0</ele><time>2026-04-22T13:25:17.616Z</time></trkpt><trkpt lat="43.513565" lon="12.737695"><ele>420.3333333333333</ele><time>2026-04-22T13:25:18.616Z</time></trkpt><trkpt lat="43.51361" lon="12.7378133"><ele>420.66666666666663</ele><time>2026-04-22T13:25:19.617Z</time></trkpt><trkpt lat="43.513655" lon="12.7379217"><ele>421.0</ele><time>2026-04-22T13:25:20.616Z</time></trkpt><trkpt lat="43.5137017" lon="12.738015"><ele>421.3333333333333</ele><time>2026-04-22T13:25:21.616Z</time></trkpt><trkpt lat="43.5137433" lon="12.738095"><ele>421.66666666666663</ele><time>2026-04-22T13:25:22.616Z</time></trkpt><trkpt lat="43.513785" lon="12.7381633"><ele>422.0</ele><time>2026-04-22T13:25:23.616Z</time></trkpt><trkpt lat="43.513855" lon="12.7382133"><ele>420.49999999999994</ele><time>2026-04-22T13:25:25.616Z</time></trkpt><trkpt lat="43.513945" lon="12.738225"><ele>419.0</ele><time>2026-04-22T13:25:27.617Z</time></trkpt><trkpt lat="43.5140567" lon="12.7382717"><ele>417.5</ele><time>2026-04-22T13:25:29.616Z</time></trkpt><trkpt lat="43.5141117" lon="12.7383267"><ele>416.0</ele><time>2026-04-22T13:25:30.617Z</time></trkpt><trkpt lat="43.5141683" lon="12.738405"><ele>414.49999999999994</ele><time>2026-04-22T13:25:31.616Z</time></trkpt><trkpt lat="43.5142233" lon="12.7385033"><ele>413.0</ele><time>2026-04-22T13:25:32.616Z</time></trkpt><trkpt lat="43.5142617" lon="12.7386217"><ele>412.79999999999995</ele><time>2026-04-22T13:25:33.617Z</time></trkpt><trkpt lat="43.5143" lon="12.738745"><ele>412.6</ele><time>2026-04-22T13:25:34.616Z</time></trkpt><trkpt lat="43.5143417" lon="12.7388883"><ele>412.4</ele><time>2026-04-22T13:25:35.616Z</time></trkpt><trkpt lat="43.5143933" lon="12.7390383"><ele>412.20000000000005</ele><time>2026-04-22T13:25:36.617Z</time></trkpt><trkpt lat="43.5144433" lon="12.7391883"><ele>412.0</ele><time>2026-04-22T13:25:37.616Z</time></trkpt><trkpt lat="43.51449" lon="12.739345"><ele>411.75</ele><time>2026-04-22T13:25:38.616Z</time></trkpt><trkpt lat="43.51455" lon="12.7395033"><ele>411.5</ele><time>2026-04-22T13:25:39.616Z</time></trkpt><trkpt lat="43.5146117" lon="12.7396733"><ele>411.25</ele><time>2026-04-22T13:25:40.616Z</time></trkpt><trkpt lat="43.514675" lon="12.7398583"><ele>411.0</ele><time>2026-04-22T13:25:41.617Z</time></trkpt><trkpt lat="43.5147433" lon="12.7400367"><ele>411.0</ele><time>2026-04-22T13:25:42.616Z</time></trkpt><trkpt lat="43.5148" lon="12.7402133"><ele>411.0</ele><time>2026-04-22T13:25:43.616Z</time></trkpt><trkpt lat="43.514865" lon="12.7403967"><ele>411.0</ele><time>2026-04-22T13:25:44.616Z</time></trkpt><trkpt lat="43.514925" lon="12.74059"><ele>411.0</ele><time>2026-04-22T13:25:45.616Z</time></trkpt><trkpt lat="43.514985" lon="12.7407767"><ele>410.33333333333337</ele><time>2026-04-22T13:25:46.616Z</time></trkpt><trkpt lat="43.5150483" lon="12.740965"><ele>409.6666666666667</ele><time>2026-04-22T13:25:47.616Z</time></trkpt><trkpt lat="43.5151133" lon="12.7411583"><ele>409.0</ele><time>2026-04-22T13:25:48.616Z</time></trkpt><trkpt lat="43.5151817" lon="12.7413483"><ele>408.75</ele><time>2026-04-22T13:25:49.616Z</time></trkpt><trkpt lat="43.5152467" lon="12.74154"><ele>408.5</ele><time>2026-04-22T13:25:50.616Z</time></trkpt><trkpt lat="43.5153133" lon="12.7417233"><ele>408.25</ele><time>2026-04-22T13:25:51.617Z</time></trkpt><trkpt lat="43.5153733" lon="12.7419067"><ele>408.0</ele><time>2026-04-22T13:25:52.616Z</time></trkpt><trkpt lat="43.515435" lon="12.7420867"><ele>407.75</ele><time>2026-04-22T13:25:53.616Z</time></trkpt><trkpt lat="43.5154983" lon="12.74227"><ele>407.5</ele><time>2026-04-22T13:25:54.617Z</time></trkpt><trkpt lat="43.51556" lon="12.742445"><ele>407.25</ele><time>2026-04-22T13:25:55.616Z</time></trkpt><trkpt lat="43.5156217" lon="12.7426283"><ele>407.0</ele><time>2026-04-22T13:25:56.616Z</time></trkpt><trkpt lat="43.5156833" lon="12.74281"><ele>406.5</ele><time>2026-04-22T13:25:57.616Z</time></trkpt><trkpt lat="43.515745" lon="12.742985"><ele>406.0</ele><time>2026-04-22T13:25:58.616Z</time></trkpt><trkpt lat="43.5158167" lon="12.743165"><ele>405.5</ele><time>2026-04-22T13:25:59.616Z</time></trkpt><trkpt lat="43.5158867" lon="12.7433433"><ele>405.0</ele><time>2026-04-22T13:26:00.616Z</time></trkpt><trkpt lat="43.5159617" lon="12.743505"><ele>405.25</ele><time>2026-04-22T13:26:01.617Z</time></trkpt><trkpt lat="43.516055" lon="12.7436683"><ele>405.5</ele><time>2026-04-22T13:26:02.616Z</time></trkpt><trkpt lat="43.5161483" lon="12.743825"><ele>405.75</ele><time>2026-04-22T13:26:03.616Z</time></trkpt><trkpt lat="43.5162467" lon="12.743975"><ele>406.0</ele><time>2026-04-22T13:26:04.616Z</time></trkpt><trkpt lat="43.5163433" lon="12.744115"><ele>404.75</ele><time>2026-04-22T13:26:05.616Z</time></trkpt><trkpt lat="43.51644" lon="12.7442617"><ele>403.5</ele><time>2026-04-22T13:26:06.616Z</time></trkpt><trkpt lat="43.5165383" lon="12.7444117"><ele>402.25</ele><time>2026-04-22T13:26:07.616Z</time></trkpt><trkpt lat="43.51663" lon="12.74455"><ele>401.0</ele><time>2026-04-22T13:26:08.616Z</time></trkpt><trkpt lat="43.516725" lon="12.744685"><ele>400.75</ele><time>2026-04-22T13:26:09.616Z</time></trkpt><trkpt lat="43.5168167" lon="12.7448133"><ele>400.5</ele><time>2026-04-22T13:26:10.616Z</time></trkpt><trkpt lat="43.5169033" lon="12.7449467"><ele>400.25</ele><time>2026-04-22T13:26:11.616Z</time></trkpt><trkpt lat="43.516985" lon="12.7450683"><ele>400.0</ele><time>2026-04-22T13:26:12.616Z</time></trkpt><trkpt lat="43.517065" lon="12.7451917"><ele>399.25</ele><time>2026-04-22T13:26:13.617Z</time></trkpt><trkpt lat="43.517145" lon="12.7453217"><ele>398.5</ele><time>2026-04-22T13:26:14.616Z</time></trkpt><trkpt lat="43.5172283" lon="12.7454467"><ele>397.75</ele><time>2026-04-22T13:26:15.616Z</time></trkpt><trkpt lat="43.517315" lon="12.745575"><ele>397.0</ele><time>2026-04-22T13:26:16.616Z</time></trkpt><trkpt lat="43.5174017" lon="12.74571"><ele>397.0</ele><time>2026-04-22T13:26:17.616Z</time></trkpt><trkpt lat="43.5174867" lon="12.7458367"><ele>397.0</ele><time>2026-04-22T13:26:18.616Z</time></trkpt><trkpt lat="43.5175683" lon="12.745975"><ele>397.0</ele><time>2026-04-22T13:26:19.616Z</time></trkpt><trkpt lat="43.51765" lon="12.7461067"><ele>397.0</ele><time>2026-04-22T13:26:20.616Z</time></trkpt><trkpt lat="43.5177333" lon="12.7462283"><ele>397.25</ele><time>2026-04-22T13:26:21.616Z</time></trkpt><trkpt lat="43.5178167" lon="12.7463517"><ele>397.5</ele><time>2026-04-22T13:26:22.616Z</time></trkpt><trkpt lat="43.5178983" lon="12.7464783"><ele>397.75</ele><time>2026-04-22T13:26:23.616Z</time></trkpt><trkpt lat="43.51798" lon="12.746605"><ele>398.0</ele><time>2026-04-22T13:26:24.616Z</time></trkpt><trkpt lat="43.5180617" lon="12.74674"><ele>398.0</ele><time>2026-04-22T13:26:25.616Z</time></trkpt><trkpt lat="43.5181433" lon="12.7468667"><ele>398.0</ele><time>2026-04-22T13:26:26.616Z</time></trkpt><trkpt lat="43.5182333" lon="12.7470017"><ele>398.0</ele><time>2026-04-22T13:26:27.616Z</time></trkpt><trkpt lat="43.5183267" lon="12.7471367"><ele>398.0</ele><time>2026-04-22T13:26:28.616Z</time></trkpt><trkpt lat="43.5184183" lon="12.7472783"><ele>398.5</ele><time>2026-04-22T13:26:29.616Z</time></trkpt><trkpt lat="43.5185067" lon="12.7474133"><ele>399.0</ele><time>2026-04-22T13:26:30.617Z</time></trkpt><trkpt lat="43.5185983" lon="12.7475483"><ele>399.5</ele><time>2026-04-22T13:26:31.616Z</time></trkpt><trkpt lat="43.5186867" lon="12.74769"><ele>400.0</ele><time>2026-04-22T13:26:32.616Z</time></trkpt><trkpt lat="43.5187767" lon="12.7478333"><ele>399.0</ele><time>2026-04-22T13:26:33.616Z</time></trkpt><trkpt lat="43.5188683" lon="12.7479733"><ele>398.0</ele><time>2026-04-22T13:26:34.616Z</time></trkpt><trkpt lat="43.5189633" lon="12.74811"><ele>397.0</ele><time>2026-04-22T13:26:35.617Z</time></trkpt><trkpt lat="43.5190517" lon="12.7482433"><ele>396.0</ele><time>2026-04-22T13:26:36.616Z</time></trkpt><trkpt lat="43.5191483" lon="12.7483867"><ele>396.0</ele><time>2026-04-22T13:26:37.616Z</time></trkpt><trkpt lat="43.51924" lon="12.7485333"><ele>396.0</ele><time>2026-04-22T13:26:38.616Z</time></trkpt><trkpt lat="43.519345" lon="12.74868"><ele>396.0</ele><time>2026-04-22T13:26:39.616Z</time></trkpt><trkpt lat="43.51944" lon="12.748825"><ele>396.0</ele><time>2026-04-22T13:26:40.616Z</time></trkpt><trkpt lat="43.5195383" lon="12.7489683"><ele>395.25</ele><time>2026-04-22T13:26:41.616Z</time></trkpt><trkpt lat="43.5196433" lon="12.7491067"><ele>394.5</ele><time>2026-04-22T13:26:42.616Z</time></trkpt><trkpt lat="43.51975" lon="12.749245"><ele>393.75</ele><time>2026-04-22T13:26:43.616Z</time></trkpt><trkpt lat="43.519865" lon="12.7493667"><ele>393.0</ele><time>2026-04-22T13:26:44.617Z</time></trkpt><trkpt lat="43.5199833" lon="12.7494733"><ele>393.0</ele><time>2026-04-22T13:26:45.616Z</time></trkpt><trkpt lat="43.52011" lon="12.749565"><ele>393.0</ele><time>2026-04-22T13:26:46.616Z</time></trkpt><trkpt lat="43.52024" lon="12.7496467"><ele>393.0</ele><time>2026-04-22T13:26:47.616Z</time></trkpt><trkpt lat="43.520365" lon="12.749725"><ele>393.0</ele><time>2026-04-22T13:26:48.616Z</time></trkpt><trkpt lat="43.520495" lon="12.7498017"><ele>392.0</ele><time>2026-04-22T13:26:49.616Z</time></trkpt><trkpt lat="43.5206167" lon="12.7498817"><ele>391.0</ele><time>2026-04-22T13:26:50.616Z</time></trkpt><trkpt lat="43.52074" lon="12.7499633"><ele>390.0</ele><time>2026-04-22T13:26:51.616Z</time></trkpt><trkpt lat="43.520865" lon="12.7500433"><ele>389.0</ele><time>2026-04-22T13:26:52.617Z</time></trkpt><trkpt lat="43.5209917" lon="12.7501267"><ele>388.75</ele><time>2026-04-22T13:26:53.616Z</time></trkpt><trkpt lat="43.5211133" lon="12.7502117"><ele>388.5</ele><time>2026-04-22T13:26:54.616Z</time></trkpt><trkpt lat="43.52124" lon="12.750295"><ele>388.25</ele><time>2026-04-22T13:26:55.617Z</time></trkpt><trkpt lat="43.5213667" lon="12.7503767"><ele>388.0</ele><time>2026-04-22T13:26:56.616Z</time></trkpt><trkpt lat="43.521495" lon="12.75046"><ele>387.75</ele><time>2026-04-22T13:26:57.616Z</time></trkpt><trkpt lat="43.5216217" lon="12.7505433"><ele>387.5</ele><time>2026-04-22T13:26:58.616Z</time></trkpt><trkpt lat="43.521755" lon="12.7506267"><ele>387.25</ele><time>2026-04-22T13:26:59.616Z</time></trkpt><trkpt lat="43.52189" lon="12.7507067"><ele>387.0</ele><time>2026-04-22T13:27:00.616Z</time></trkpt><trkpt lat="43.52202" lon="12.750785"><ele>386.0</ele><time>2026-04-22T13:27:01.616Z</time></trkpt><trkpt lat="43.5221533" lon="12.7508683"><ele>385.0</ele><time>2026-04-22T13:27:02.616Z</time></trkpt><trkpt lat="43.5222883" lon="12.750955"><ele>384.0</ele><time>2026-04-22T13:27:03.616Z</time></trkpt><trkpt lat="43.52242" lon="12.7510433"><ele>383.0</ele><time>2026-04-22T13:27:04.616Z</time></trkpt><trkpt lat="43.5225483" lon="12.7511283"><ele>382.75</ele><time>2026-04-22T13:27:05.616Z</time></trkpt><trkpt lat="43.52268" lon="12.751215"><ele>382.5</ele><time>2026-04-22T13:27:06.616Z</time></trkpt><trkpt lat="43.522815" lon="12.7513"><ele>382.25</ele><time>2026-04-22T13:27:07.616Z</time></trkpt><trkpt lat="43.52294" lon="12.7513883"><ele>382.0</ele><time>2026-04-22T13:27:08.616Z</time></trkpt><trkpt lat="43.5230767" lon="12.75148"><ele>381.66666666666663</ele><time>2026-04-22T13:27:09.617Z</time></trkpt><trkpt lat="43.5232117" lon="12.751575"><ele>381.3333333333333</ele><time>2026-04-22T13:27:10.616Z</time></trkpt><trkpt lat="43.5233467" lon="12.7516733"><ele>381.0</ele><time>2026-04-22T13:27:11.616Z</time></trkpt><trkpt lat="43.52348" lon="12.7517733"><ele>381.0</ele><time>2026-04-22T13:27:12.616Z</time></trkpt><trkpt lat="43.523615" lon="12.7518733"><ele>381.0</ele><time>2026-04-22T13:27:13.616Z</time></trkpt><trkpt lat="43.523755" lon="12.7519817"><ele>381.0</ele><time>2026-04-22T13:27:14.617Z</time></trkpt><trkpt lat="43.5238933" lon="12.75208"><ele>378.5</ele><time>2026-04-22T13:27:15.616Z</time></trkpt><trkpt lat="43.5240233" lon="12.75218"><ele>376.0</ele><time>2026-04-22T13:27:16.617Z</time></trkpt><trkpt lat="43.52415" lon="12.7522767"><ele>373.5</ele><time>2026-04-22T13:27:17.616Z</time></trkpt><trkpt lat="43.5242783" lon="12.7523717"><ele>371.0</ele><time>2026-04-22T13:27:18.616Z</time></trkpt><trkpt lat="43.5243933" lon="12.7524667"><ele>371.0</ele><time>2026-04-22T13:27:19.616Z</time></trkpt><trkpt lat="43.5245067" lon="12.7525533"><ele>371.0</ele><time>2026-04-22T13:27:20.616Z</time></trkpt><trkpt lat="43.5246183" lon="12.7526483"><ele>371.0</ele><time>2026-04-22T13:27:21.616Z</time></trkpt><trkpt lat="43.5247133" lon="12.7527617"><ele>371.0</ele><time>2026-04-22T13:27:22.616Z</time></trkpt><trkpt lat="43.5247933" lon="12.7528933"><ele>368.75</ele><time>2026-04-22T13:27:23.616Z</time></trkpt><trkpt lat="43.5248433" lon="12.75305"><ele>366.5</ele><time>2026-04-22T13:27:24.616Z</time></trkpt><trkpt lat="43.524875" lon="12.753205"><ele>364.25</ele><time>2026-04-22T13:27:25.616Z</time></trkpt><trkpt lat="43.5248833" lon="12.7533733"><ele>362.0</ele><time>2026-04-22T13:27:26.616Z</time></trkpt><trkpt lat="43.5248817" lon="12.7535417"><ele>361.5</ele><time>2026-04-22T13:27:27.616Z</time></trkpt><trkpt lat="43.5248683" lon="12.7537083"><ele>361.0</ele><time>2026-04-22T13:27:28.616Z</time></trkpt><trkpt lat="43.524855" lon="12.75387"><ele>360.5</ele><time>2026-04-22T13:27:29.617Z</time></trkpt><trkpt lat="43.524845" lon="12.7540283"><ele>360.0</ele><time>2026-04-22T13:27:30.616Z</time></trkpt><trkpt lat="43.52483" lon="12.7541817"><ele>360.0</ele><time>2026-04-22T13:27:31.617Z</time></trkpt><trkpt lat="43.5248267" lon="12.754335"><ele>360.0</ele><time>2026-04-22T13:27:32.616Z</time></trkpt><trkpt lat="43.52482" lon="12.75449"><ele>360.0</ele><time>2026-04-22T13:27:33.616Z</time></trkpt><trkpt lat="43.5248083" lon="12.75466"><ele>360.0</ele><time>2026-04-22T13:27:34.616Z</time></trkpt><trkpt lat="43.52482" lon="12.7548417"><ele>360.75</ele><time>2026-04-22T13:27:35.616Z</time></trkpt><trkpt lat="43.5248567" lon="12.75503"><ele>361.5</ele><time>2026-04-22T13:27:36.616Z</time></trkpt><trkpt lat="43.524915" lon="12.7552133"><ele>362.25</ele><time>2026-04-22T13:27:37.616Z</time></trkpt><trkpt lat="43.5249933" lon="12.7553867"><ele>363.0</ele><time>2026-04-22T13:27:38.616Z</time></trkpt><trkpt lat="43.5250817" lon="12.7555583"><ele>363.0</ele><time>2026-04-22T13:27:39.617Z</time></trkpt><trkpt lat="43.52516" lon="12.7557333"><ele>363.0</ele><time>2026-04-22T13:27:40.616Z</time></trkpt><trkpt lat="43.5252417" lon="12.7559017"><ele>363.0</ele><time>2026-04-22T13:27:41.616Z</time></trkpt><trkpt lat="43.5253283" lon="12.7560667"><ele>363.0</ele><time>2026-04-22T13:27:42.616Z</time></trkpt><trkpt lat="43.5254117" lon="12.75623"><ele>363.0</ele><time>2026-04-22T13:27:43.616Z</time></trkpt><trkpt lat="43.525495" lon="12.7563933"><ele>363.0</ele><time>2026-04-22T13:27:44.617Z</time></trkpt><trkpt lat="43.5255683" lon="12.7565583"><ele>363.0</ele><time>2026-04-22T13:27:45.617Z</time></trkpt><trkpt lat="43.525655" lon="12.75671"><ele>363.0</ele><time>2026-04-22T13:27:46.616Z</time></trkpt><trkpt lat="43.5257367" lon="12.7568683"><ele>364.75</ele><time>2026-04-22T13:27:47.617Z</time></trkpt><trkpt lat="43.5258117" lon="12.7570283"><ele>366.5</ele><time>2026-04-22T13:27:48.616Z</time></trkpt><trkpt lat="43.525885" lon="12.7571917"><ele>368.25</ele><time>2026-04-22T13:27:49.616Z</time></trkpt><trkpt lat="43.525965" lon="12.7573567"><ele>370.0</ele><time>2026-04-22T13:27:50.617Z</time></trkpt><trkpt lat="43.5260483" lon="12.75752"><ele>370.0</ele><time>2026-04-22T13:27:51.616Z</time></trkpt><trkpt lat="43.52614" lon="12.7576833"><ele>370.0</ele><time>2026-04-22T13:27:52.616Z</time></trkpt><trkpt lat="43.526235" lon="12.75784"><ele>370.0</ele><time>2026-04-22T13:27:53.616Z</time></trkpt><trkpt lat="43.526345" lon="12.757975"><ele>370.0</ele><time>2026-04-22T13:27:54.616Z</time></trkpt><trkpt lat="43.52646" lon="12.7581033"><ele>369.75</ele><time>2026-04-22T13:27:55.616Z</time></trkpt><trkpt lat="43.5265733" lon="12.7582233"><ele>369.5</ele><time>2026-04-22T13:27:56.616Z</time></trkpt><trkpt lat="43.5266817" lon="12.7583433"><ele>369.25</ele><time>2026-04-22T13:27:57.616Z</time></trkpt><trkpt lat="43.5267983" lon="12.7584567"><ele>369.0</ele><time>2026-04-22T13:27:58.616Z</time></trkpt><trkpt lat="43.5269117" lon="12.7585733"><ele>370.25</ele><time>2026-04-22T13:27:59.616Z</time></trkpt><trkpt lat="43.52703" lon="12.7586833"><ele>371.5</ele><time>2026-04-22T13:28:00.616Z</time></trkpt><trkpt lat="43.5271533" lon="12.7588083"><ele>372.75</ele><time>2026-04-22T13:28:01.616Z</time></trkpt><trkpt lat="43.527275" lon="12.7589083"><ele>374.0</ele><time>2026-04-22T13:28:02.616Z</time></trkpt><trkpt lat="43.5274183" lon="12.7589967"><ele>374.0</ele><time>2026-04-22T13:28:03.616Z</time></trkpt><trkpt lat="43.5275567" lon="12.7590533"><ele>374.0</ele><time>2026-04-22T13:28:04.616Z</time></trkpt><trkpt lat="43.5277083" lon="12.7591017"><ele>374.0</ele><time>2026-04-22T13:28:05.616Z</time></trkpt><trkpt lat="43.5278567" lon="12.7591133"><ele>374.0</ele><time>2026-04-22T13:28:06.617Z</time></trkpt><trkpt lat="43.5280067" lon="12.7591117"><ele>372.33333333333337</ele><time>2026-04-22T13:28:07.616Z</time></trkpt><trkpt lat="43.52817" lon="12.7591183"><ele>370.6666666666667</ele><time>2026-04-22T13:28:08.616Z</time></trkpt><trkpt lat="43.5283217" lon="12.7591133"><ele>369.0</ele><time>2026-04-22T13:28:09.616Z</time></trkpt><trkpt lat="43.5284833" lon="12.759125"><ele>369.0</ele><time>2026-04-22T13:28:10.616Z</time></trkpt><trkpt lat="43.5286567" lon="12.7591317"><ele>369.0</ele><time>2026-04-22T13:28:11.616Z</time></trkpt><trkpt lat="43.5288283" lon="12.759135"><ele>369.0</ele><time>2026-04-22T13:28:12.616Z</time></trkpt><trkpt lat="43.5289967" lon="12.759125"><ele>367.0</ele><time>2026-04-22T13:28:13.616Z</time></trkpt><trkpt lat="43.5291633" lon="12.7591333"><ele>365.0</ele><time>2026-04-22T13:28:14.616Z</time></trkpt><trkpt lat="43.5293183" lon="12.759125"><ele>363.0</ele><time>2026-04-22T13:28:15.616Z</time></trkpt><trkpt lat="43.5294617" lon="12.7591067"><ele>362.75</ele><time>2026-04-22T13:28:16.617Z</time></trkpt><trkpt lat="43.5295967" lon="12.7590867"><ele>362.5</ele><time>2026-04-22T13:28:17.616Z</time></trkpt><trkpt lat="43.5297333" lon="12.7590633"><ele>362.25</ele><time>2026-04-22T13:28:18.616Z</time></trkpt><trkpt lat="43.5298683" lon="12.75905"><ele>362.0</ele><time>2026-04-22T13:28:19.616Z</time></trkpt><trkpt lat="43.5300033" lon="12.7590333"><ele>362.0</ele><time>2026-04-22T13:28:20.616Z</time></trkpt><trkpt lat="43.530145" lon="12.7590233"><ele>362.0</ele><time>2026-04-22T13:28:21.617Z</time></trkpt><trkpt lat="43.5302867" lon="12.75903"><ele>362.0</ele><time>2026-04-22T13:28:22.616Z</time></trkpt><trkpt lat="43.5304317" lon="12.759075"><ele>362.0</ele><time>2026-04-22T13:28:23.616Z</time></trkpt><trkpt lat="43.5305733" lon="12.7591467"><ele>361.33333333333337</ele><time>2026-04-22T13:28:24.616Z</time></trkpt><trkpt lat="43.5307167" lon="12.7592233"><ele>360.6666666666667</ele><time>2026-04-22T13:28:25.616Z</time></trkpt><trkpt lat="43.530865" lon="12.759315"><ele>360.0</ele><time>2026-04-22T13:28:26.616Z</time></trkpt><trkpt lat="43.53102" lon="12.7594"><ele>358.3333333333333</ele><time>2026-04-22T13:28:27.616Z</time></trkpt><trkpt lat="43.5311683" lon="12.7594933"><ele>356.66666666666663</ele><time>2026-04-22T13:28:28.616Z</time></trkpt><trkpt lat="43.5313167" lon="12.7595883"><ele>355.0</ele><time>2026-04-22T13:28:29.616Z</time></trkpt><trkpt lat="43.5314683" lon="12.7596817"><ele>355.0</ele><time>2026-04-22T13:28:30.616Z</time></trkpt><trkpt lat="43.5316167" lon="12.7597717"><ele>355.0</ele><time>2026-04-22T13:28:31.617Z</time></trkpt><trkpt lat="43.5317583" lon="12.759875"><ele>355.0</ele><time>2026-04-22T13:28:32.616Z</time></trkpt><trkpt lat="43.53191" lon="12.7599617"><ele>352.0</ele><time>2026-04-22T13:28:33.616Z</time></trkpt><trkpt lat="43.5320567" lon="12.7600583"><ele>349.0</ele><time>2026-04-22T13:28:34.617Z</time></trkpt><trkpt lat="43.5322133" lon="12.7601483"><ele>346.0</ele><time>2026-04-22T13:28:35.616Z</time></trkpt><trkpt lat="43.5323667" lon="12.76024"><ele>353.3333333333333</ele><time>2026-04-22T13:28:36.616Z</time></trkpt><trkpt lat="43.5325217" lon="12.7603283"><ele>360.6666666666667</ele><time>2026-04-22T13:28:37.616Z</time></trkpt><trkpt lat="43.5326833" lon="12.7604267"><ele>368.0</ele><time>2026-04-22T13:28:38.616Z</time></trkpt><trkpt lat="43.5328517" lon="12.760525"><ele>364.33333333333337</ele><time>2026-04-22T13:28:39.616Z</time></trkpt><trkpt lat="43.5330217" lon="12.7605917"><ele>360.6666666666667</ele><time>2026-04-22T13:28:40.616Z</time></trkpt><trkpt lat="43.5331933" lon="12.7606333"><ele>357.0</ele><time>2026-04-22T13:28:41.616Z</time></trkpt><trkpt lat="43.533355" lon="12.76063"><ele>357.0</ele><time>2026-04-22T13:28:42.617Z</time></trkpt><trkpt lat="43.533515" lon="12.760585"><ele>357.0</ele><time>2026-04-22T13:28:43.616Z</time></trkpt><trkpt lat="43.533675" lon="12.76051"><ele>357.0</ele><time>2026-04-22T13:28:44.616Z</time></trkpt><trkpt lat="43.5338367" lon="12.7604417"><ele>357.6666666666667</ele><time>2026-04-22T13:28:45.617Z</time></trkpt><trkpt lat="43.53399" lon="12.760365"><ele>358.33333333333337</ele><time>2026-04-22T13:28:46.616Z</time></trkpt><trkpt lat="43.5341417" lon="12.7602967"><ele>359.0</ele><time>2026-04-22T13:28:47.616Z</time></trkpt><trkpt lat="43.534295" lon="12.7602333"><ele>357.33333333333337</ele><time>2026-04-22T13:28:48.616Z</time></trkpt><trkpt lat="43.5344467" lon="12.76019"><ele>355.6666666666667</ele><time>2026-04-22T13:28:49.616Z</time></trkpt><trkpt lat="43.53461" lon="12.7601917"><ele>354.0</ele><time>2026-04-22T13:28:50.617Z</time></trkpt><trkpt lat="43.5347633" lon="12.7602183"><ele>354.0</ele><time>2026-04-22T13:28:51.615Z</time></trkpt><trkpt lat="43.534915" lon="12.76029"><ele>354.0</ele><time>2026-04-22T13:28:52.616Z</time></trkpt><trkpt lat="43.535075" lon="12.7603867"><ele>354.0</ele><time>2026-04-22T13:28:53.616Z</time></trkpt><trkpt lat="43.535225" lon="12.7605033"><ele>354.0</ele><time>2026-04-22T13:28:54.616Z</time></trkpt><trkpt lat="43.5353833" lon="12.76061"><ele>354.0</ele><time>2026-04-22T13:28:55.616Z</time></trkpt><trkpt lat="43.5355383" lon="12.7607267"><ele>354.0</ele><time>2026-04-22T13:28:56.616Z</time></trkpt><trkpt lat="43.5356883" lon="12.7608317"><ele>354.6666666666667</ele><time>2026-04-22T13:28:57.616Z</time></trkpt><trkpt lat="43.535835" lon="12.760945"><ele>355.33333333333337</ele><time>2026-04-22T13:28:58.617Z</time></trkpt><trkpt lat="43.5359783" lon="12.761065"><ele>356.0</ele><time>2026-04-22T13:28:59.616Z</time></trkpt><trkpt lat="43.5361133" lon="12.76121"><ele>354.0</ele><time>2026-04-22T13:29:00.616Z</time></trkpt><trkpt lat="43.5362383" lon="12.76137"><ele>352.0</ele><time>2026-04-22T13:29:01.616Z</time></trkpt><trkpt lat="43.5363583" lon="12.7615367"><ele>350.0</ele><time>2026-04-22T13:29:02.616Z</time></trkpt><trkpt lat="43.5364733" lon="12.7617183"><ele>354.0</ele><time>2026-04-22T13:29:03.616Z</time></trkpt><trkpt lat="43.5365933" lon="12.7619017"><ele>358.0</ele><time>2026-04-22T13:29:04.616Z</time></trkpt><trkpt lat="43.536715" lon="12.7620867"><ele>362.0</ele><time>2026-04-22T13:29:05.616Z</time></trkpt><trkpt lat="43.5368333" lon="12.7622833"><ele>362.0</ele><time>2026-04-22T13:29:06.616Z</time></trkpt><trkpt lat="43.5369433" lon="12.7624633"><ele>362.0</ele><time>2026-04-22T13:29:07.616Z</time></trkpt><trkpt lat="43.5370567" lon="12.7626367"><ele>362.0</ele><time>2026-04-22T13:29:08.616Z</time></trkpt><trkpt lat="43.5371683" lon="12.7628133"><ele>361.33333333333337</ele><time>2026-04-22T13:29:09.616Z</time></trkpt><trkpt lat="43.5372717" lon="12.76298"><ele>360.6666666666667</ele><time>2026-04-22T13:29:10.616Z</time></trkpt><trkpt lat="43.5373767" lon="12.76314"><ele>360.0</ele><time>2026-04-22T13:29:11.616Z</time></trkpt><trkpt lat="43.53748" lon="12.7633"><ele>360.0</ele><time>2026-04-22T13:29:12.617Z</time></trkpt><trkpt lat="43.5375883" lon="12.763455"><ele>360.0</ele><time>2026-04-22T13:29:13.616Z</time></trkpt><trkpt lat="43.5376883" lon="12.7636167"><ele>360.0</ele><time>2026-04-22T13:29:14.617Z</time></trkpt><trkpt lat="43.5377883" lon="12.7637833"><ele>359.0</ele><time>2026-04-22T13:29:15.616Z</time></trkpt><trkpt lat="43.537885" lon="12.7639417"><ele>358.0</ele><time>2026-04-22T13:29:16.616Z</time></trkpt><trkpt lat="43.5379783" lon="12.7641"><ele>357.0</ele><time>2026-04-22T13:29:17.616Z</time></trkpt><trkpt lat="43.5380633" lon="12.764255"><ele>356.0</ele><time>2026-04-22T13:29:18.617Z</time></trkpt><trkpt lat="43.5381533" lon="12.764415"><ele>356.0</ele><time>2026-04-22T13:29:19.616Z</time></trkpt><trkpt lat="43.5382433" lon="12.764565"><ele>356.0</ele><time>2026-04-22T13:29:20.616Z</time></trkpt><trkpt lat="43.53834" lon="12.7647067"><ele>356.0</ele><time>2026-04-22T13:29:21.616Z</time></trkpt><trkpt lat="43.53845" lon="12.7648433"><ele>356.0</ele><time>2026-04-22T13:29:22.616Z</time></trkpt><trkpt lat="43.53857" lon="12.7649683"><ele>356.0</ele><time>2026-04-22T13:29:23.616Z</time></trkpt><trkpt lat="43.5387083" lon="12.765095"><ele>356.0</ele><time>2026-04-22T13:29:24.616Z</time></trkpt><trkpt lat="43.5388583" lon="12.76523"><ele>356.0</ele><time>2026-04-22T13:29:25.616Z</time></trkpt><trkpt lat="43.5390083" lon="12.765345"><ele>354.0</ele><time>2026-04-22T13:29:26.616Z</time></trkpt><trkpt lat="43.5391583" lon="12.765455"><ele>352.0</ele><time>2026-04-22T13:29:27.616Z</time></trkpt><trkpt lat="43.5393" lon="12.76557"><ele>350.0</ele><time>2026-04-22T13:29:28.616Z</time></trkpt><trkpt lat="43.5394317" lon="12.76568"><ele>346.33333333333337</ele><time>2026-04-22T13:29:29.616Z</time></trkpt><trkpt lat="43.5395667" lon="12.7657883"><ele>342.6666666666667</ele><time>2026-04-22T13:29:30.616Z</time></trkpt><trkpt lat="43.5397017" lon="12.7658967"><ele>339.0</ele><time>2026-04-22T13:29:31.616Z</time></trkpt><trkpt lat="43.53983" lon="12.7660017"><ele>340.75</ele><time>2026-04-22T13:29:32.616Z</time></trkpt><trkpt lat="43.5399583" lon="12.7661133"><ele>342.5</ele><time>2026-04-22T13:29:33.616Z</time></trkpt><trkpt lat="43.5400883" lon="12.76621"><ele>344.25</ele><time>2026-04-22T13:29:34.616Z</time></trkpt><trkpt lat="43.5402167" lon="12.7663017"><ele>346.0</ele><time>2026-04-22T13:29:35.616Z</time></trkpt><trkpt lat="43.5403267" lon="12.7663967"><ele>342.5</ele><time>2026-04-22T13:29:36.616Z</time></trkpt><trkpt lat="43.5404467" lon="12.7664917"><ele>339.0</ele><time>2026-04-22T13:29:37.616Z</time></trkpt><trkpt lat="43.54057" lon="12.7666017"><ele>335.5</ele><time>2026-04-22T13:29:38.616Z</time></trkpt><trkpt lat="43.5407017" lon="12.7667067"><ele>332.0</ele><time>2026-04-22T13:29:39.616Z</time></trkpt><trkpt lat="43.5408317" lon="12.7668133"><ele>331.75</ele><time>2026-04-22T13:29:40.616Z</time></trkpt><trkpt lat="43.54097" lon="12.766925"><ele>331.5</ele><time>2026-04-22T13:29:41.616Z</time></trkpt><trkpt lat="43.541095" lon="12.7670317"><ele>331.25</ele><time>2026-04-22T13:29:42.616Z</time></trkpt><trkpt lat="43.54121" lon="12.767145"><ele>331.0</ele><time>2026-04-22T13:29:43.617Z</time></trkpt><trkpt lat="43.5413317" lon="12.767245"><ele>327.66666666666663</ele><time>2026-04-22T13:29:44.616Z</time></trkpt><trkpt lat="43.5414517" lon="12.7673567"><ele>324.3333333333333</ele><time>2026-04-22T13:29:45.616Z</time></trkpt><trkpt lat="43.5415717" lon="12.767475"><ele>321.0</ele><time>2026-04-22T13:29:46.616Z</time></trkpt><trkpt lat="43.5417067" lon="12.7675983"><ele>321.3333333333333</ele><time>2026-04-22T13:29:47.616Z</time></trkpt><trkpt lat="43.5418433" lon="12.7677083"><ele>321.66666666666663</ele><time>2026-04-22T13:29:48.617Z</time></trkpt><trkpt lat="43.541975" lon="12.76781"><ele>322.0</ele><time>2026-04-22T13:29:49.617Z</time></trkpt><trkpt lat="43.542105" lon="12.7679"><ele>320.75</ele><time>2026-04-22T13:29:50.616Z</time></trkpt><trkpt lat="43.5422333" lon="12.7679867"><ele>319.5</ele><time>2026-04-22T13:29:51.616Z</time></trkpt><trkpt lat="43.5423583" lon="12.7680717"><ele>318.25</ele><time>2026-04-22T13:29:52.616Z</time></trkpt><trkpt lat="43.5424833" lon="12.76816"><ele>317.0</ele><time>2026-04-22T13:29:53.616Z</time></trkpt><trkpt lat="43.5426083" lon="12.76824"><ele>317.0</ele><time>2026-04-22T13:29:54.616Z</time></trkpt><trkpt lat="43.5427417" lon="12.7683167"><ele>317.0</ele><time>2026-04-22T13:29:55.616Z</time></trkpt><trkpt lat="43.5428733" lon="12.7683983"><ele>317.0</ele><time>2026-04-22T13:29:56.616Z</time></trkpt><trkpt lat="43.54301" lon="12.7684733"><ele>317.0</ele><time>2026-04-22T13:29:57.616Z</time></trkpt><trkpt lat="43.5431417" lon="12.7685467"><ele>318.75</ele><time>2026-04-22T13:29:58.616Z</time></trkpt><trkpt lat="43.5432583" lon="12.7686167"><ele>320.5</ele><time>2026-04-22T13:29:59.616Z</time></trkpt><trkpt lat="43.5433633" lon="12.76869"><ele>322.25</ele><time>2026-04-22T13:30:00.616Z</time></trkpt><trkpt lat="43.5434583" lon="12.7687733"><ele>324.0</ele><time>2026-04-22T13:30:01.616Z</time></trkpt><trkpt lat="43.5435183" lon="12.7688767"><ele>324.0</ele><time>2026-04-22T13:30:02.616Z</time></trkpt><trkpt lat="43.543545" lon="12.7689917"><ele>324.0</ele><time>2026-04-22T13:30:03.616Z</time></trkpt><trkpt lat="43.543545" lon="12.7691183"><ele>324.0</ele><time>2026-04-22T13:30:04.616Z</time></trkpt><trkpt lat="43.5435233" lon="12.7692383"><ele>324.0</ele><time>2026-04-22T13:30:05.616Z</time></trkpt><trkpt lat="43.5434783" lon="12.7693617"><ele>324.0</ele><time>2026-04-22T13:30:06.616Z</time></trkpt><trkpt lat="43.5434217" lon="12.769485"><ele>324.4</ele><time>2026-04-22T13:30:07.616Z</time></trkpt><trkpt lat="43.5433717" lon="12.76962"><ele>324.79999999999995</ele><time>2026-04-22T13:30:08.616Z</time></trkpt><trkpt lat="43.543325" lon="12.7697583"><ele>325.20000000000005</ele><time>2026-04-22T13:30:09.616Z</time></trkpt><trkpt lat="43.543295" lon="12.7698933"><ele>325.6</ele><time>2026-04-22T13:30:10.616Z</time></trkpt><trkpt lat="43.543285" lon="12.77004"><ele>326.0</ele><time>2026-04-22T13:30:11.616Z</time></trkpt><trkpt lat="43.5432983" lon="12.77018"><ele>325.20000000000005</ele><time>2026-04-22T13:30:12.616Z</time></trkpt><trkpt lat="43.54333" lon="12.77033"><ele>324.40000000000003</ele><time>2026-04-22T13:30:13.617Z</time></trkpt><trkpt lat="43.5433667" lon="12.770475"><ele>323.6</ele><time>2026-04-22T13:30:14.617Z</time></trkpt><trkpt lat="43.5434067" lon="12.7706033"><ele>322.8</ele><time>2026-04-22T13:30:15.617Z</time></trkpt><trkpt lat="43.54346" lon="12.770715"><ele>322.0</ele><time>2026-04-22T13:30:16.616Z</time></trkpt><trkpt lat="43.5435333" lon="12.7707967"><ele>322.0</ele><time>2026-04-22T13:30:17.616Z</time></trkpt><trkpt lat="43.5436133" lon="12.7708417"><ele>322.0</ele><time>2026-04-22T13:30:18.616Z</time></trkpt><trkpt lat="43.543695" lon="12.7708667"><ele>322.0</ele><time>2026-04-22T13:30:19.617Z</time></trkpt><trkpt lat="43.5437717" lon="12.770905"><ele>322.0</ele><time>2026-04-22T13:30:20.616Z</time></trkpt><trkpt lat="43.5438333" lon="12.7709583"><ele>322.0</ele><time>2026-04-22T13:30:21.616Z</time></trkpt><trkpt lat="43.5438917" lon="12.7710267"><ele>322.0</ele><time>2026-04-22T13:30:22.617Z</time></trkpt><trkpt lat="43.5439533" lon="12.7711267"><ele>323.75</ele><time>2026-04-22T13:30:23.616Z</time></trkpt><trkpt lat="43.5440083" lon="12.7712467"><ele>325.5</ele><time>2026-04-22T13:30:24.616Z</time></trkpt><trkpt lat="43.5440533" lon="12.7713833"><ele>327.25</ele><time>2026-04-22T13:30:25.616Z</time></trkpt><trkpt lat="43.5440983" lon="12.7715467"><ele>329.0</ele><time>2026-04-22T13:30:26.616Z</time></trkpt><trkpt lat="43.54416" lon="12.7717283"><ele>329.0</ele><time>2026-04-22T13:30:27.617Z</time></trkpt><trkpt lat="43.5442217" lon="12.7719083"><ele>329.0</ele><time>2026-04-22T13:30:28.616Z</time></trkpt><trkpt lat="43.5442817" lon="12.7720967"><ele>329.0</ele><time>2026-04-22T13:30:29.616Z</time></trkpt><trkpt lat="43.5443533" lon="12.7723017"><ele>329.0</ele><time>2026-04-22T13:30:30.616Z</time></trkpt><trkpt lat="43.54442" lon="12.7725117"><ele>329.0</ele><time>2026-04-22T13:30:31.617Z</time></trkpt><trkpt lat="43.54449" lon="12.772715"><ele>329.0</ele><time>2026-04-22T13:30:32.616Z</time></trkpt><trkpt lat="43.5445667" lon="12.772935"><ele>330.6666666666667</ele><time>2026-04-22T13:30:33.617Z</time></trkpt><trkpt lat="43.5446417" lon="12.77317"><ele>332.3333333333333</ele><time>2026-04-22T13:30:34.616Z</time></trkpt><trkpt lat="43.5447267" lon="12.7734133"><ele>334.0</ele><time>2026-04-22T13:30:35.616Z</time></trkpt><trkpt lat="43.544805" lon="12.773655"><ele>334.0</ele><time>2026-04-22T13:30:36.616Z</time></trkpt><trkpt lat="43.5448867" lon="12.7739"><ele>334.0</ele><time>2026-04-22T13:30:37.616Z</time></trkpt><trkpt lat="43.5449683" lon="12.7741417"><ele>334.0</ele><time>2026-04-22T13:30:38.616Z</time></trkpt><trkpt lat="43.54505" lon="12.7743983"><ele>333.0</ele><time>2026-04-22T13:30:39.616Z</time></trkpt><trkpt lat="43.5451267" lon="12.7746517"><ele>332.0</ele><time>2026-04-22T13:30:40.616Z</time></trkpt><trkpt lat="43.5452083" lon="12.7749033"><ele>331.0</ele><time>2026-04-22T13:30:41.616Z</time></trkpt><trkpt lat="43.5452867" lon="12.77515"><ele>331.0</ele><time>2026-04-22T13:30:42.616Z</time></trkpt><trkpt lat="43.5453733" lon="12.7753983"><ele>331.0</ele><time>2026-04-22T13:30:43.616Z</time></trkpt><trkpt lat="43.5454583" lon="12.775645"><ele>331.0</ele><time>2026-04-22T13:30:44.616Z</time></trkpt><trkpt lat="43.5455333" lon="12.7758917"><ele>331.0</ele><time>2026-04-22T13:30:45.616Z</time></trkpt><trkpt lat="43.545615" lon="12.7761333"><ele>331.0</ele><time>2026-04-22T13:30:46.616Z</time></trkpt><trkpt lat="43.5457" lon="12.7763767"><ele>331.0</ele><time>2026-04-22T13:30:47.616Z</time></trkpt><trkpt lat="43.5457783" lon="12.7766233"><ele>331.0</ele><time>2026-04-22T13:30:48.616Z</time></trkpt><trkpt lat="43.5458533" lon="12.77687"><ele>331.0</ele><time>2026-04-22T13:30:49.616Z</time></trkpt><trkpt lat="43.545935" lon="12.7771183"><ele>331.0</ele><time>2026-04-22T13:30:50.616Z</time></trkpt><trkpt lat="43.5460167" lon="12.77737"><ele>331.0</ele><time>2026-04-22T13:30:51.616Z</time></trkpt><trkpt lat="43.5461" lon="12.7776167"><ele>331.0</ele><time>2026-04-22T13:30:52.616Z</time></trkpt><trkpt lat="43.5461817" lon="12.7778667"><ele>331.0</ele><time>2026-04-22T13:30:53.616Z</time></trkpt><trkpt lat="43.546265" lon="12.7781217"><ele>331.0</ele><time>2026-04-22T13:30:54.616Z</time></trkpt><trkpt lat="43.5463383" lon="12.7783817"><ele>331.0</ele><time>2026-04-22T13:30:55.617Z</time></trkpt><trkpt lat="43.546405" lon="12.778655"><ele>331.0</ele><time>2026-04-22T13:30:56.617Z</time></trkpt><trkpt lat="43.54647" lon="12.7789267"><ele>331.0</ele><time>2026-04-22T13:30:57.616Z</time></trkpt><trkpt lat="43.5465333" lon="12.7791983"><ele>331.0</ele><time>2026-04-22T13:30:58.616Z</time></trkpt><trkpt lat="43.5465967" lon="12.7794733"><ele>331.0</ele><time>2026-04-22T13:30:59.616Z</time></trkpt><trkpt lat="43.54666" lon="12.779755"><ele>330.0</ele><time>2026-04-22T13:31:00.616Z</time></trkpt><trkpt lat="43.5467217" lon="12.780035"><ele>329.0</ele><time>2026-04-22T13:31:01.617Z</time></trkpt><trkpt lat="43.5467833" lon="12.780315"><ele>328.0</ele><time>2026-04-22T13:31:02.617Z</time></trkpt><trkpt lat="43.54685" lon="12.78059"><ele>327.3333333333333</ele><time>2026-04-22T13:31:03.616Z</time></trkpt><trkpt lat="43.546915" lon="12.7808667"><ele>326.6666666666667</ele><time>2026-04-22T13:31:04.616Z</time></trkpt><trkpt lat="43.5469817" lon="12.781145"><ele>326.0</ele><time>2026-04-22T13:31:05.616Z</time></trkpt><trkpt lat="43.547045" lon="12.7814217"><ele>326.0</ele><time>2026-04-22T13:31:06.616Z</time></trkpt><trkpt lat="43.5471033" lon="12.7817033"><ele>326.0</ele><time>2026-04-22T13:31:07.616Z</time></trkpt><trkpt lat="43.5471617" lon="12.7819817"><ele>326.0</ele><time>2026-04-22T13:31:08.616Z</time></trkpt><trkpt lat="43.547225" lon="12.78226"><ele>325.6666666666667</ele><time>2026-04-22T13:31:09.617Z</time></trkpt><trkpt lat="43.5472833" lon="12.7825367"><ele>325.3333333333333</ele><time>2026-04-22T13:31:10.616Z</time></trkpt><trkpt lat="43.547345" lon="12.7828083"><ele>325.0</ele><time>2026-04-22T13:31:11.616Z</time></trkpt><trkpt lat="43.5474033" lon="12.7830767"><ele>325.0</ele><time>2026-04-22T13:31:12.616Z</time></trkpt><trkpt lat="43.5474333" lon="12.78334"><ele>325.0</ele><time>2026-04-22T13:31:13.616Z</time></trkpt><trkpt lat="43.5474333" lon="12.7836133"><ele>325.0</ele><time>2026-04-22T13:31:14.616Z</time></trkpt><trkpt lat="43.54742" lon="12.7838833"><ele>325.0</ele><time>2026-04-22T13:31:15.616Z</time></trkpt><trkpt lat="43.5474033" lon="12.7841617"><ele>325.0</ele><time>2026-04-22T13:31:16.616Z</time></trkpt><trkpt lat="43.5473733" lon="12.78444"><ele>325.0</ele><time>2026-04-22T13:31:17.616Z</time></trkpt><trkpt lat="43.54735" lon="12.7847167"><ele>324.66666666666663</ele><time>2026-04-22T13:31:18.616Z</time></trkpt><trkpt lat="43.547325" lon="12.7849933"><ele>324.3333333333333</ele><time>2026-04-22T13:31:19.616Z</time></trkpt><trkpt lat="43.5473033" lon="12.7852733"><ele>324.0</ele><time>2026-04-22T13:31:20.616Z</time></trkpt><trkpt lat="43.5472767" lon="12.78555"><ele>324.0</ele><time>2026-04-22T13:31:21.616Z</time></trkpt><trkpt lat="43.54726" lon="12.785825"><ele>324.0</ele><time>2026-04-22T13:31:22.616Z</time></trkpt><trkpt lat="43.5472383" lon="12.7861033"><ele>324.0</ele><time>2026-04-22T13:31:23.616Z</time></trkpt><trkpt lat="43.54722" lon="12.786385"><ele>323.6666666666667</ele><time>2026-04-22T13:31:24.617Z</time></trkpt><trkpt lat="43.547195" lon="12.7866567"><ele>323.33333333333337</ele><time>2026-04-22T13:31:25.616Z</time></trkpt><trkpt lat="43.547175" lon="12.78693"><ele>323.0</ele><time>2026-04-22T13:31:26.616Z</time></trkpt><trkpt lat="43.54716" lon="12.787215"><ele>322.0</ele><time>2026-04-22T13:31:27.617Z</time></trkpt><trkpt lat="43.5471367" lon="12.7874933"><ele>321.0</ele><time>2026-04-22T13:31:28.616Z</time></trkpt><trkpt lat="43.5471133" lon="12.7877683"><ele>320.0</ele><time>2026-04-22T13:31:29.616Z</time></trkpt><trkpt lat="43.54709" lon="12.7880467"><ele>319.6666666666667</ele><time>2026-04-22T13:31:30.616Z</time></trkpt><trkpt lat="43.5470917" lon="12.7883233"><ele>319.3333333333333</ele><time>2026-04-22T13:31:31.616Z</time></trkpt><trkpt lat="43.5471083" lon="12.788605"><ele>319.0</ele><time>2026-04-22T13:31:32.616Z</time></trkpt><trkpt lat="43.5471367" lon="12.7888883"><ele>319.0</ele><time>2026-04-22T13:31:33.617Z</time></trkpt><trkpt lat="43.5471633" lon="12.789175"><ele>319.0</ele><time>2026-04-22T13:31:34.616Z</time></trkpt><trkpt lat="43.5471933" lon="12.7894667"><ele>319.0</ele><time>2026-04-22T13:31:35.616Z</time></trkpt><trkpt lat="43.5472267" lon="12.7897583"><ele>318.66666666666663</ele><time>2026-04-22T13:31:36.616Z</time></trkpt><trkpt lat="43.5472633" lon="12.79005"><ele>318.3333333333333</ele><time>2026-04-22T13:31:37.617Z</time></trkpt><trkpt lat="43.5472967" lon="12.7903383"><ele>318.0</ele><time>2026-04-22T13:31:38.616Z</time></trkpt><trkpt lat="43.5473333" lon="12.790625"><ele>317.0</ele><time>2026-04-22T13:31:39.616Z</time></trkpt><trkpt lat="43.5473667" lon="12.7909167"><ele>316.0</ele><time>2026-04-22T13:31:40.616Z</time></trkpt><trkpt lat="43.5473967" lon="12.7912033"><ele>315.0</ele><time>2026-04-22T13:31:41.616Z</time></trkpt><trkpt lat="43.5474267" lon="12.791495"><ele>314.6666666666667</ele><time>2026-04-22T13:31:42.616Z</time></trkpt><trkpt lat="43.5474567" lon="12.7917817"><ele>314.33333333333337</ele><time>2026-04-22T13:31:43.616Z</time></trkpt><trkpt lat="43.5474833" lon="12.79205"><ele>314.0</ele><time>2026-04-22T13:31:44.616Z</time></trkpt><trkpt lat="43.5475133" lon="12.7923117"><ele>313.0</ele><time>2026-04-22T13:31:45.616Z</time></trkpt><trkpt lat="43.5475517" lon="12.792555"><ele>312.0</ele><time>2026-04-22T13:31:46.616Z</time></trkpt><trkpt lat="43.5475983" lon="12.79278"><ele>311.0</ele><time>2026-04-22T13:31:47.616Z</time></trkpt><trkpt lat="43.5476567" lon="12.7929767"><ele>310.6666666666667</ele><time>2026-04-22T13:31:48.616Z</time></trkpt><trkpt lat="43.5477517" lon="12.7931667"><ele>310.3333333333333</ele><time>2026-04-22T13:31:49.616Z</time></trkpt><trkpt lat="43.5478633" lon="12.7933467"><ele>310.0</ele><time>2026-04-22T13:31:50.616Z</time></trkpt><trkpt lat="43.5480083" lon="12.7935167"><ele>308.3333333333333</ele><time>2026-04-22T13:31:51.616Z</time></trkpt><trkpt lat="43.5481633" lon="12.7936867"><ele>306.6666666666667</ele><time>2026-04-22T13:31:52.617Z</time></trkpt><trkpt lat="43.54833" lon="12.7938583"><ele>305.0</ele><time>2026-04-22T13:31:53.617Z</time></trkpt><trkpt lat="43.5484883" lon="12.7940283"><ele>305.0</ele><time>2026-04-22T13:31:54.616Z</time></trkpt><trkpt lat="43.548645" lon="12.7941933"><ele>305.0</ele><time>2026-04-22T13:31:55.617Z</time></trkpt><trkpt lat="43.5488067" lon="12.7943633"><ele>305.0</ele><time>2026-04-22T13:31:56.616Z</time></trkpt><trkpt lat="43.5489733" lon="12.7945317"><ele>306.6666666666667</ele><time>2026-04-22T13:31:57.616Z</time></trkpt><trkpt lat="43.549145" lon="12.7946783"><ele>308.3333333333333</ele><time>2026-04-22T13:31:58.616Z</time></trkpt><trkpt lat="43.5492967" lon="12.7948117"><ele>310.0</ele><time>2026-04-22T13:31:59.616Z</time></trkpt><trkpt lat="43.54944" lon="12.7949283"><ele>310.66666666666663</ele><time>2026-04-22T13:32:00.616Z</time></trkpt><trkpt lat="43.54958" lon="12.7950383"><ele>311.3333333333333</ele><time>2026-04-22T13:32:01.616Z</time></trkpt><trkpt lat="43.54971" lon="12.7951567"><ele>312.0</ele><time>2026-04-22T13:32:02.616Z</time></trkpt><trkpt lat="43.5498317" lon="12.79529"><ele>312.0</ele><time>2026-04-22T13:32:03.617Z</time></trkpt><trkpt lat="43.5499417" lon="12.7954483"><ele>312.0</ele><time>2026-04-22T13:32:04.616Z</time></trkpt><trkpt lat="43.5500367" lon="12.7956383"><ele>312.0</ele><time>2026-04-22T13:32:05.616Z</time></trkpt><trkpt lat="43.5501117" lon="12.7958583"><ele>311.0</ele><time>2026-04-22T13:32:06.616Z</time></trkpt><trkpt lat="43.5501767" lon="12.7960967"><ele>310.0</ele><time>2026-04-22T13:32:07.616Z</time></trkpt><trkpt lat="43.5502383" lon="12.7963567"><ele>309.0</ele><time>2026-04-22T13:32:08.616Z</time></trkpt><trkpt lat="43.550295" lon="12.79664"><ele>308.3333333333333</ele><time>2026-04-22T13:32:09.617Z</time></trkpt><trkpt lat="43.55036" lon="12.796935"><ele>307.66666666666663</ele><time>2026-04-22T13:32:10.617Z</time></trkpt><trkpt lat="43.55041" lon="12.79723"><ele>307.0</ele><time>2026-04-22T13:32:11.616Z</time></trkpt><trkpt lat="43.5504717" lon="12.7975217"><ele>311.0</ele><time>2026-04-22T13:32:12.616Z</time></trkpt><trkpt lat="43.5505333" lon="12.797815"><ele>315.0</ele><time>2026-04-22T13:32:13.616Z</time></trkpt><trkpt lat="43.5505967" lon="12.7981133"><ele>319.0</ele><time>2026-04-22T13:32:14.616Z</time></trkpt><trkpt lat="43.55066" lon="12.7984083"><ele>318.0</ele><time>2026-04-22T13:32:15.616Z</time></trkpt><trkpt lat="43.55072" lon="12.7987033"><ele>317.0</ele><time>2026-04-22T13:32:16.616Z</time></trkpt><trkpt lat="43.5507883" lon="12.7990033"><ele>317.0</ele><time>2026-04-22T13:32:17.616Z</time></trkpt><trkpt lat="43.5508517" lon="12.799295"><ele>317.0</ele><time>2026-04-22T13:32:18.616Z</time></trkpt><trkpt lat="43.5509167" lon="12.7995933"><ele>317.0</ele><time>2026-04-22T13:32:19.617Z</time></trkpt><trkpt lat="43.5509783" lon="12.7998867"><ele>314.0</ele><time>2026-04-22T13:32:20.616Z</time></trkpt><trkpt lat="43.5510433" lon="12.8001783"><ele>311.0</ele><time>2026-04-22T13:32:21.616Z</time></trkpt><trkpt lat="43.5511" lon="12.8004717"><ele>308.0</ele><time>2026-04-22T13:32:22.616Z</time></trkpt><trkpt lat="43.5511617" lon="12.8007683"><ele>310.6666666666667</ele><time>2026-04-22T13:32:23.616Z</time></trkpt><trkpt lat="43.5512317" lon="12.8010633"><ele>313.3333333333333</ele><time>2026-04-22T13:32:24.616Z</time></trkpt><trkpt lat="43.551295" lon="12.8013567"><ele>316.0</ele><time>2026-04-22T13:32:25.616Z</time></trkpt><trkpt lat="43.55136" lon="12.8016533"><ele>314.3333333333333</ele><time>2026-04-22T13:32:26.616Z</time></trkpt><trkpt lat="43.551425" lon="12.8019517"><ele>312.6666666666667</ele><time>2026-04-22T13:32:27.616Z</time></trkpt><trkpt lat="43.551485" lon="12.8022483"><ele>311.0</ele><time>2026-04-22T13:32:28.616Z</time></trkpt><trkpt lat="43.5515467" lon="12.8025483"><ele>309.0</ele><time>2026-04-22T13:32:29.616Z</time></trkpt><trkpt lat="43.5516067" lon="12.8028433"><ele>307.0</ele><time>2026-04-22T13:32:30.616Z</time></trkpt><trkpt lat="43.5516667" lon="12.8031417"><ele>305.0</ele><time>2026-04-22T13:32:31.616Z</time></trkpt><trkpt lat="43.55173" lon="12.8034333"><ele>303.33333333333337</ele><time>2026-04-22T13:32:32.616Z</time></trkpt><trkpt lat="43.5517933" lon="12.8037217"><ele>301.6666666666667</ele><time>2026-04-22T13:32:33.616Z</time></trkpt><trkpt lat="43.5518383" lon="12.8040017"><ele>300.0</ele><time>2026-04-22T13:32:34.616Z</time></trkpt><trkpt lat="43.5518883" lon="12.8042933"><ele>299.0</ele><time>2026-04-22T13:32:35.616Z</time></trkpt><trkpt lat="43.5519433" lon="12.8045817"><ele>298.0</ele><time>2026-04-22T13:32:36.616Z</time></trkpt><trkpt lat="43.5519883" lon="12.8048583"><ele>297.0</ele><time>2026-04-22T13:32:37.616Z</time></trkpt><trkpt lat="43.5520433" lon="12.8051383"><ele>296.3333333333333</ele><time>2026-04-22T13:32:38.616Z</time></trkpt><trkpt lat="43.5521083" lon="12.8054233"><ele>295.66666666666663</ele><time>2026-04-22T13:32:39.616Z</time></trkpt><trkpt lat="43.5521733" lon="12.8056867"><ele>295.0</ele><time>2026-04-22T13:32:40.616Z</time></trkpt><trkpt lat="43.552235" lon="12.8059433"><ele>294.66666666666663</ele><time>2026-04-22T13:32:41.615Z</time></trkpt><trkpt lat="43.5523" lon="12.806195"><ele>294.3333333333333</ele><time>2026-04-22T13:32:42.615Z</time></trkpt><trkpt lat="43.5523683" lon="12.8064433"><ele>294.0</ele><time>2026-04-22T13:32:43.615Z</time></trkpt><trkpt lat="43.5524417" lon="12.806705"><ele>294.3333333333333</ele><time>2026-04-22T13:32:44.615Z</time></trkpt><trkpt lat="43.5525183" lon="12.8069883"><ele>294.66666666666663</ele><time>2026-04-22T13:32:45.615Z</time></trkpt><trkpt lat="43.5526" lon="12.8072817"><ele>295.0</ele><time>2026-04-22T13:32:46.615Z</time></trkpt><trkpt lat="43.5526767" lon="12.8075767"><ele>293.5</ele><time>2026-04-22T13:32:47.616Z</time></trkpt><trkpt lat="43.552755" lon="12.807875"><ele>292.0</ele><time>2026-04-22T13:32:48.615Z</time></trkpt><trkpt lat="43.5528317" lon="12.8081683"><ele>292.0</ele><time>2026-04-22T13:32:49.615Z</time></trkpt><trkpt lat="43.5529" lon="12.80846"><ele>292.0</ele><time>2026-04-22T13:32:50.615Z</time></trkpt><trkpt lat="43.552975" lon="12.8087567"><ele>292.0</ele><time>2026-04-22T13:32:51.615Z</time></trkpt><trkpt lat="43.5530483" lon="12.80905"><ele>292.0</ele><time>2026-04-22T13:32:52.615Z</time></trkpt><trkpt lat="43.55312" lon="12.8093467"><ele>291.0</ele><time>2026-04-22T13:32:53.615Z</time></trkpt><trkpt lat="43.5531917" lon="12.8096417"><ele>290.0</ele><time>2026-04-22T13:32:54.616Z</time></trkpt><trkpt lat="43.55327" lon="12.8099433"><ele>289.0</ele><time>2026-04-22T13:32:55.615Z</time></trkpt><trkpt lat="43.5533533" lon="12.81025"><ele>288.0</ele><time>2026-04-22T13:32:56.615Z</time></trkpt><trkpt lat="43.553435" lon="12.8105533"><ele>288.0</ele><time>2026-04-22T13:32:57.615Z</time></trkpt><trkpt lat="43.5535067" lon="12.8108383"><ele>288.0</ele><time>2026-04-22T13:32:58.615Z</time></trkpt><trkpt lat="43.55357" lon="12.8111"><ele>288.0</ele><time>2026-04-22T13:32:59.615Z</time></trkpt><trkpt lat="43.55364" lon="12.811355"><ele>288.0</ele><time>2026-04-22T13:33:00.615Z</time></trkpt><trkpt lat="43.5537067" lon="12.8115967"><ele>288.0</ele><time>2026-04-22T13:33:01.616Z</time></trkpt><trkpt lat="43.5537817" lon="12.81184"><ele>288.0</ele><time>2026-04-22T13:33:02.615Z</time></trkpt><trkpt lat="43.5538767" lon="12.8120783"><ele>287.6666666666667</ele><time>2026-04-22T13:33:03.615Z</time></trkpt><trkpt lat="43.553995" lon="12.8123217"><ele>287.33333333333337</ele><time>2026-04-22T13:33:04.615Z</time></trkpt><trkpt lat="43.5541167" lon="12.81257"><ele>287.0</ele><time>2026-04-22T13:33:05.615Z</time></trkpt><trkpt lat="43.55424" lon="12.8128117"><ele>286.0</ele><time>2026-04-22T13:33:06.615Z</time></trkpt><trkpt lat="43.5543733" lon="12.8130583"><ele>285.0</ele><time>2026-04-22T13:33:07.615Z</time></trkpt><trkpt lat="43.5545017" lon="12.8133083"><ele>284.0</ele><time>2026-04-22T13:33:08.615Z</time></trkpt><trkpt lat="43.55463" lon="12.81356"><ele>284.0</ele><time>2026-04-22T13:33:09.615Z</time></trkpt><trkpt lat="43.5547567" lon="12.8138217"><ele>284.0</ele><time>2026-04-22T13:33:10.615Z</time></trkpt><trkpt lat="43.5548683" lon="12.81409"><ele>283.6666666666667</ele><time>2026-04-22T13:33:11.615Z</time></trkpt><trkpt lat="43.5549617" lon="12.8143617"><ele>283.3333333333333</ele><time>2026-04-22T13:33:12.616Z</time></trkpt><trkpt lat="43.5550267" lon="12.8146333"><ele>283.0</ele><time>2026-04-22T13:33:13.615Z</time></trkpt><trkpt lat="43.5550883" lon="12.814895"><ele>283.0</ele><time>2026-04-22T13:33:14.615Z</time></trkpt><trkpt lat="43.5551433" lon="12.8151383"><ele>283.0</ele><time>2026-04-22T13:33:15.615Z</time></trkpt><trkpt lat="43.5552133" lon="12.8153717"><ele>283.0</ele><time>2026-04-22T13:33:16.615Z</time></trkpt><trkpt lat="43.55529" lon="12.8156117"><ele>283.0</ele><time>2026-04-22T13:33:17.615Z</time></trkpt><trkpt lat="43.5553717" lon="12.81585"><ele>283.0</ele><time>2026-04-22T13:33:18.615Z</time></trkpt><trkpt lat="43.555465" lon="12.8161067"><ele>283.0</ele><time>2026-04-22T13:33:19.615Z</time></trkpt><trkpt lat="43.5555617" lon="12.8163733"><ele>282.3333333333333</ele><time>2026-04-22T13:33:20.615Z</time></trkpt><trkpt lat="43.5556583" lon="12.8166367"><ele>281.6666666666667</ele><time>2026-04-22T13:33:21.615Z</time></trkpt><trkpt lat="43.55575" lon="12.816895"><ele>281.0</ele><time>2026-04-22T13:33:22.616Z</time></trkpt><trkpt lat="43.5558367" lon="12.817135"><ele>280.6666666666667</ele><time>2026-04-22T13:33:23.615Z</time></trkpt><trkpt lat="43.5559267" lon="12.8173633"><ele>280.3333333333333</ele><time>2026-04-22T13:33:24.615Z</time></trkpt><trkpt lat="43.55601" lon="12.8175767"><ele>280.0</ele><time>2026-04-22T13:33:25.615Z</time></trkpt><trkpt lat="43.55609" lon="12.817785"><ele>280.0</ele><time>2026-04-22T13:33:26.615Z</time></trkpt><trkpt lat="43.55617" lon="12.8180033"><ele>280.0</ele><time>2026-04-22T13:33:27.615Z</time></trkpt><trkpt lat="43.556255" lon="12.8182067"><ele>280.0</ele><time>2026-04-22T13:33:28.615Z</time></trkpt><trkpt lat="43.5563383" lon="12.818405"><ele>279.3333333333333</ele><time>2026-04-22T13:33:29.615Z</time></trkpt><trkpt lat="43.5564267" lon="12.8185933"><ele>278.6666666666667</ele><time>2026-04-22T13:33:30.615Z</time></trkpt><trkpt lat="43.5565367" lon="12.8187683"><ele>278.0</ele><time>2026-04-22T13:33:31.615Z</time></trkpt><trkpt lat="43.55669" lon="12.8189267"><ele>278.0</ele><time>2026-04-22T13:33:32.615Z</time></trkpt><trkpt lat="43.5568467" lon="12.819075"><ele>278.0</ele><time>2026-04-22T13:33:33.615Z</time></trkpt><trkpt lat="43.5570117" lon="12.819215"><ele>278.0</ele><time>2026-04-22T13:33:34.615Z</time></trkpt><trkpt lat="43.5571733" lon="12.8193533"><ele>275.0</ele><time>2026-04-22T13:33:35.615Z</time></trkpt><trkpt lat="43.5573383" lon="12.8194833"><ele>272.0</ele><time>2026-04-22T13:33:36.615Z</time></trkpt><trkpt lat="43.5574883" lon="12.8196083"><ele>269.0</ele><time>2026-04-22T13:33:37.615Z</time></trkpt><trkpt lat="43.5576283" lon="12.8197283"><ele>269.0</ele><time>2026-04-22T13:33:38.615Z</time></trkpt><trkpt lat="43.55776" lon="12.8198467"><ele>269.0</ele><time>2026-04-22T13:33:39.615Z</time></trkpt><trkpt lat="43.5578783" lon="12.8199783"><ele>269.0</ele><time>2026-04-22T13:33:40.615Z</time></trkpt><trkpt lat="43.5579917" lon="12.8201283"><ele>266.6666666666667</ele><time>2026-04-22T13:33:41.615Z</time></trkpt><trkpt lat="43.55809" lon="12.8203183"><ele>264.3333333333333</ele><time>2026-04-22T13:33:42.616Z</time></trkpt><trkpt lat="43.5581783" lon="12.8205333"><ele>262.0</ele><time>2026-04-22T13:33:43.615Z</time></trkpt><trkpt lat="43.5582533" lon="12.82077"><ele>261.66666666666663</ele><time>2026-04-22T13:33:44.615Z</time></trkpt><trkpt lat="43.5583167" lon="12.8210233"><ele>261.3333333333333</ele><time>2026-04-22T13:33:45.615Z</time></trkpt><trkpt lat="43.5583783" lon="12.82128"><ele>261.0</ele><time>2026-04-22T13:33:46.615Z</time></trkpt><trkpt lat="43.558445" lon="12.821535"><ele>261.0</ele><time>2026-04-22T13:33:47.615Z</time></trkpt><trkpt lat="43.5585" lon="12.821785"><ele>261.0</ele><time>2026-04-22T13:33:48.615Z</time></trkpt><trkpt lat="43.5585633" lon="12.8220317"><ele>261.0</ele><time>2026-04-22T13:33:49.615Z</time></trkpt><trkpt lat="43.5586167" lon="12.82226"><ele>260.3333333333333</ele><time>2026-04-22T13:33:50.616Z</time></trkpt><trkpt lat="43.5586817" lon="12.822495"><ele>259.66666666666663</ele><time>2026-04-22T13:33:51.615Z</time></trkpt><trkpt lat="43.55873" lon="12.8227217"><ele>259.0</ele><time>2026-04-22T13:33:52.615Z</time></trkpt><trkpt lat="43.5587867" lon="12.8229533"><ele>260.0</ele><time>2026-04-22T13:33:53.615Z</time></trkpt><trkpt lat="43.5588383" lon="12.8231733"><ele>261.0</ele><time>2026-04-22T13:33:54.615Z</time></trkpt><trkpt lat="43.5588983" lon="12.8233967"><ele>262.0</ele><time>2026-04-22T13:33:55.615Z</time></trkpt><trkpt lat="43.5589483" lon="12.8236233"><ele>262.0</ele><time>2026-04-22T13:33:56.615Z</time></trkpt><trkpt lat="43.5590033" lon="12.8238367"><ele>262.0</ele><time>2026-04-22T13:33:57.615Z</time></trkpt><trkpt lat="43.5590583" lon="12.82404"><ele>262.0</ele><time>2026-04-22T13:33:58.615Z</time></trkpt><trkpt lat="43.559105" lon="12.82423"><ele>261.0</ele><time>2026-04-22T13:33:59.615Z</time></trkpt><trkpt lat="43.5591583" lon="12.8244217"><ele>260.0</ele><time>2026-04-22T13:34:00.616Z</time></trkpt><trkpt lat="43.5592133" lon="12.824605"><ele>259.0</ele><time>2026-04-22T13:34:01.616Z</time></trkpt><trkpt lat="43.559285" lon="12.824785"><ele>258.0</ele><time>2026-04-22T13:34:02.615Z</time></trkpt><trkpt lat="43.55936" lon="12.8249467"><ele>258.0</ele><time>2026-04-22T13:34:03.615Z</time></trkpt><trkpt lat="43.55944" lon="12.82509"><ele>258.0</ele><time>2026-04-22T13:34:04.615Z</time></trkpt><trkpt lat="43.5595167" lon="12.825225"><ele>258.0</ele><time>2026-04-22T13:34:05.616Z</time></trkpt><trkpt lat="43.5596017" lon="12.825355"><ele>258.0</ele><time>2026-04-22T13:34:06.615Z</time></trkpt><trkpt lat="43.5596867" lon="12.8254733"><ele>257.2</ele><time>2026-04-22T13:34:07.615Z</time></trkpt><trkpt lat="43.559775" lon="12.8255917"><ele>256.4</ele><time>2026-04-22T13:34:08.615Z</time></trkpt><trkpt lat="43.5598733" lon="12.8256967"><ele>255.59999999999997</ele><time>2026-04-22T13:34:09.615Z</time></trkpt><trkpt lat="43.5599633" lon="12.8257917"><ele>254.79999999999998</ele><time>2026-04-22T13:34:10.616Z</time></trkpt><trkpt lat="43.5600317" lon="12.82585"><ele>254.0</ele><time>2026-04-22T13:34:11.615Z</time></trkpt><trkpt lat="43.5600933" lon="12.8258967"><ele>254.00000000000003</ele><time>2026-04-22T13:34:13.615Z</time></trkpt><trkpt lat="43.5601683" lon="12.825925"><ele>254.0</ele><time>2026-04-22T13:34:28.615Z</time></trkpt><trkpt lat="43.5602267" lon="12.8259583"><ele>254.0</ele><time>2026-04-22T13:34:29.615Z</time></trkpt><trkpt lat="43.560295" lon="12.8259933"><ele>254.0</ele><time>2026-04-22T13:34:30.615Z</time></trkpt><trkpt lat="43.5603733" lon="12.8260233"><ele>254.00000000000003</ele><time>2026-04-22T13:34:31.615Z</time></trkpt><trkpt lat="43.56047" lon="12.8260583"><ele>254.0</ele><time>2026-04-22T13:34:32.615Z</time></trkpt><trkpt lat="43.560575" lon="12.82609"><ele>254.25</ele><time>2026-04-22T13:34:33.615Z</time></trkpt><trkpt lat="43.5606867" lon="12.8261117"><ele>254.5</ele><time>2026-04-22T13:34:34.615Z</time></trkpt><trkpt lat="43.56081" lon="12.826135"><ele>254.75</ele><time>2026-04-22T13:34:35.615Z</time></trkpt><trkpt lat="43.5609483" lon="12.8261583"><ele>255.0</ele><time>2026-04-22T13:34:36.615Z</time></trkpt><trkpt lat="43.5610917" lon="12.8261883"><ele>256.3333333333333</ele><time>2026-04-22T13:34:37.615Z</time></trkpt><trkpt lat="43.5612433" lon="12.826215"><ele>257.66666666666663</ele><time>2026-04-22T13:34:38.615Z</time></trkpt><trkpt lat="43.561405" lon="12.8262433"><ele>259.0</ele><time>2026-04-22T13:34:39.615Z</time></trkpt><trkpt lat="43.5615783" lon="12.8262833"><ele>259.0</ele><time>2026-04-22T13:34:40.615Z</time></trkpt><trkpt lat="43.56175" lon="12.8263467"><ele>259.0</ele><time>2026-04-22T13:34:41.615Z</time></trkpt><trkpt lat="43.56191" lon="12.8264167"><ele>259.0</ele><time>2026-04-22T13:34:42.615Z</time></trkpt><trkpt lat="43.5620867" lon="12.8265267"><ele>258.0</ele><time>2026-04-22T13:34:43.615Z</time></trkpt><trkpt lat="43.5622633" lon="12.8266483"><ele>257.0</ele><time>2026-04-22T13:34:44.615Z</time></trkpt><trkpt lat="43.5624433" lon="12.8267883"><ele>256.0</ele><time>2026-04-22T13:34:45.615Z</time></trkpt><trkpt lat="43.56261" lon="12.8269367"><ele>255.66666666666666</ele><time>2026-04-22T13:34:46.615Z</time></trkpt><trkpt lat="43.5627717" lon="12.8271033"><ele>255.33333333333331</ele><time>2026-04-22T13:34:47.615Z</time></trkpt><trkpt lat="43.5629367" lon="12.8272833"><ele>255.0</ele><time>2026-04-22T13:34:48.615Z</time></trkpt><trkpt lat="43.5630967" lon="12.82748"><ele>253.33333333333331</ele><time>2026-04-22T13:34:49.615Z</time></trkpt><trkpt lat="43.5632517" lon="12.82768"><ele>251.66666666666666</ele><time>2026-04-22T13:34:50.615Z</time></trkpt><trkpt lat="43.56341" lon="12.8278783"><ele>250.0</ele><time>2026-04-22T13:34:51.615Z</time></trkpt><trkpt lat="43.5635683" lon="12.8280817"><ele>251.0</ele><time>2026-04-22T13:34:52.615Z</time></trkpt><trkpt lat="43.5637283" lon="12.8282833"><ele>252.0</ele><time>2026-04-22T13:34:53.615Z</time></trkpt><trkpt lat="43.5638917" lon="12.8284867"><ele>253.0</ele><time>2026-04-22T13:34:54.615Z</time></trkpt><trkpt lat="43.56406" lon="12.8286883"><ele>253.0</ele><time>2026-04-22T13:34:55.615Z</time></trkpt><trkpt lat="43.5642267" lon="12.8288967"><ele>253.0</ele><time>2026-04-22T13:34:56.615Z</time></trkpt><trkpt lat="43.5644017" lon="12.8290983"><ele>254.33333333333331</ele><time>2026-04-22T13:34:57.615Z</time></trkpt><trkpt lat="43.5645617" lon="12.8293117"><ele>255.66666666666669</ele><time>2026-04-22T13:34:58.615Z</time></trkpt><trkpt lat="43.5647233" lon="12.829515"><ele>257.0</ele><time>2026-04-22T13:34:59.615Z</time></trkpt><trkpt lat="43.564885" lon="12.8297183"><ele>257.0</ele><time>2026-04-22T13:35:00.615Z</time></trkpt><trkpt lat="43.56505" lon="12.8299217"><ele>257.0</ele><time>2026-04-22T13:35:01.615Z</time></trkpt><trkpt lat="43.5652083" lon="12.8301267"><ele>257.0</ele><time>2026-04-22T13:35:02.615Z</time></trkpt><trkpt lat="43.56536" lon="12.830325"><ele>256.0</ele><time>2026-04-22T13:35:03.615Z</time></trkpt><trkpt lat="43.5655017" lon="12.830515"><ele>255.0</ele><time>2026-04-22T13:35:04.615Z</time></trkpt><trkpt lat="43.565635" lon="12.830695"><ele>254.0</ele><time>2026-04-22T13:35:05.615Z</time></trkpt><trkpt lat="43.5657667" lon="12.8308617"><ele>255.33333333333334</ele><time>2026-04-22T13:35:06.615Z</time></trkpt><trkpt lat="43.5659033" lon="12.83102"><ele>256.6666666666667</ele><time>2026-04-22T13:35:07.615Z</time></trkpt><trkpt lat="43.5660467" lon="12.8311867"><ele>258.0</ele><time>2026-04-22T13:35:08.615Z</time></trkpt><trkpt lat="43.5661967" lon="12.8313533"><ele>258.0</ele><time>2026-04-22T13:35:09.615Z</time></trkpt><trkpt lat="43.5663467" lon="12.83154"><ele>258.0</ele><time>2026-04-22T13:35:10.615Z</time></trkpt><trkpt lat="43.5664917" lon="12.83172"><ele>258.0</ele><time>2026-04-22T13:35:11.615Z</time></trkpt><trkpt lat="43.5666383" lon="12.8319083"><ele>258.3333333333333</ele><time>2026-04-22T13:35:12.615Z</time></trkpt><trkpt lat="43.5667883" lon="12.8321017"><ele>258.66666666666663</ele><time>2026-04-22T13:35:13.615Z</time></trkpt><trkpt lat="43.566935" lon="12.8322867"><ele>259.0</ele><time>2026-04-22T13:35:14.615Z</time></trkpt><trkpt lat="43.567095" lon="12.8324867"><ele>257.3333333333333</ele><time>2026-04-22T13:35:15.616Z</time></trkpt><trkpt lat="43.567245" lon="12.8326767"><ele>255.66666666666669</ele><time>2026-04-22T13:35:16.615Z</time></trkpt><trkpt lat="43.5674" lon="12.83287"><ele>254.0</ele><time>2026-04-22T13:35:17.615Z</time></trkpt><trkpt lat="43.567555" lon="12.833065"><ele>254.0</ele><time>2026-04-22T13:35:18.615Z</time></trkpt><trkpt lat="43.5677133" lon="12.833255"><ele>254.0</ele><time>2026-04-22T13:35:19.615Z</time></trkpt><trkpt lat="43.5678783" lon="12.8334567"><ele>254.0</ele><time>2026-04-22T13:35:20.615Z</time></trkpt><trkpt lat="43.5680333" lon="12.8336467"><ele>256.33333333333337</ele><time>2026-04-22T13:35:21.615Z</time></trkpt><trkpt lat="43.5681883" lon="12.8338417"><ele>258.6666666666667</ele><time>2026-04-22T13:35:22.615Z</time></trkpt><trkpt lat="43.56835" lon="12.834035"><ele>261.0</ele><time>2026-04-22T13:35:23.615Z</time></trkpt><trkpt lat="43.5685133" lon="12.8342333"><ele>260.6666666666667</ele><time>2026-04-22T13:35:24.615Z</time></trkpt><trkpt lat="43.5686683" lon="12.8344367"><ele>260.33333333333337</ele><time>2026-04-22T13:35:25.616Z</time></trkpt><trkpt lat="43.5688233" lon="12.8346483"><ele>260.0</ele><time>2026-04-22T13:35:26.615Z</time></trkpt><trkpt lat="43.5689733" lon="12.8348717"><ele>260.33333333333337</ele><time>2026-04-22T13:35:27.615Z</time></trkpt><trkpt lat="43.5691117" lon="12.8351083"><ele>260.6666666666667</ele><time>2026-04-22T13:35:28.615Z</time></trkpt><trkpt lat="43.569245" lon="12.8353517"><ele>261.0</ele><time>2026-04-22T13:35:29.615Z</time></trkpt><trkpt lat="43.56936" lon="12.8356083"><ele>261.0</ele><time>2026-04-22T13:35:30.615Z</time></trkpt><trkpt lat="43.5694617" lon="12.835875"><ele>261.0</ele><time>2026-04-22T13:35:31.615Z</time></trkpt><trkpt lat="43.56954" lon="12.8361433"><ele>261.0</ele><time>2026-04-22T13:35:32.616Z</time></trkpt><trkpt lat="43.5696067" lon="12.8363917"><ele>260.6666666666667</ele><time>2026-04-22T13:35:33.615Z</time></trkpt><trkpt lat="43.5696483" lon="12.836615"><ele>260.33333333333337</ele><time>2026-04-22T13:35:34.615Z</time></trkpt><trkpt lat="43.5696833" lon="12.8368217"><ele>260.0</ele><time>2026-04-22T13:35:35.615Z</time></trkpt><trkpt lat="43.569695" lon="12.8370267"><ele>259.33333333333337</ele><time>2026-04-22T13:35:36.615Z</time></trkpt><trkpt lat="43.5697083" lon="12.8372267"><ele>258.6666666666667</ele><time>2026-04-22T13:35:37.616Z</time></trkpt><trkpt lat="43.5697283" lon="12.8374383"><ele>258.0</ele><time>2026-04-22T13:35:38.616Z</time></trkpt><trkpt lat="43.569745" lon="12.8376567"><ele>258.0</ele><time>2026-04-22T13:35:39.615Z</time></trkpt><trkpt lat="43.5697467" lon="12.8378933"><ele>258.0</ele><time>2026-04-22T13:35:40.615Z</time></trkpt><trkpt lat="43.569735" lon="12.8381433"><ele>258.0</ele><time>2026-04-22T13:35:41.615Z</time></trkpt><trkpt lat="43.5697067" lon="12.838415"><ele>258.6666666666667</ele><time>2026-04-22T13:35:42.615Z</time></trkpt><trkpt lat="43.5696817" lon="12.8386967"><ele>259.33333333333337</ele><time>2026-04-22T13:35:43.615Z</time></trkpt><trkpt lat="43.5696533" lon="12.8389683"><ele>260.0</ele><time>2026-04-22T13:35:44.615Z</time></trkpt><trkpt lat="43.5696217" lon="12.839245"><ele>260.0</ele><time>2026-04-22T13:35:45.615Z</time></trkpt><trkpt lat="43.56959" lon="12.8395367"><ele>260.0</ele><time>2026-04-22T13:35:46.615Z</time></trkpt><trkpt lat="43.5695583" lon="12.8398417"><ele>260.0</ele><time>2026-04-22T13:35:47.615Z</time></trkpt><trkpt lat="43.5695317" lon="12.8401517"><ele>255.0</ele><time>2026-04-22T13:35:48.615Z</time></trkpt><trkpt lat="43.5695" lon="12.840455"><ele>250.0</ele><time>2026-04-22T13:35:49.615Z</time></trkpt><trkpt lat="43.5694667" lon="12.8407683"><ele>249.0</ele><time>2026-04-22T13:35:50.615Z</time></trkpt><trkpt lat="43.569435" lon="12.8410783"><ele>248.0</ele><time>2026-04-22T13:35:51.615Z</time></trkpt><trkpt lat="43.5694033" lon="12.8413883"><ele>248.0</ele><time>2026-04-22T13:35:52.615Z</time></trkpt><trkpt lat="43.5693683" lon="12.841695"><ele>248.0</ele><time>2026-04-22T13:35:53.615Z</time></trkpt><trkpt lat="43.5693433" lon="12.8419817"><ele>248.0</ele><time>2026-04-22T13:35:54.615Z</time></trkpt><trkpt lat="43.5693267" lon="12.8422617"><ele>247.66666666666669</ele><time>2026-04-22T13:35:55.615Z</time></trkpt><trkpt lat="43.5693167" lon="12.842525"><ele>247.33333333333331</ele><time>2026-04-22T13:35:56.616Z</time></trkpt><trkpt lat="43.5693133" lon="12.8427767"><ele>247.0</ele><time>2026-04-22T13:35:57.615Z</time></trkpt><trkpt lat="43.569335" lon="12.84301"><ele>246.0</ele><time>2026-04-22T13:35:58.615Z</time></trkpt><trkpt lat="43.5693683" lon="12.84323"><ele>245.0</ele><time>2026-04-22T13:35:59.615Z</time></trkpt><trkpt lat="43.5694033" lon="12.843435"><ele>244.0</ele><time>2026-04-22T13:36:00.615Z</time></trkpt><trkpt lat="43.569455" lon="12.8436317"><ele>243.5</ele><time>2026-04-22T13:36:01.615Z</time></trkpt><trkpt lat="43.569515" lon="12.8438067"><ele>243.0</ele><time>2026-04-22T13:36:02.616Z</time></trkpt><trkpt lat="43.5695933" lon="12.84398"><ele>242.5</ele><time>2026-04-22T13:36:03.615Z</time></trkpt><trkpt lat="43.5696783" lon="12.84414"><ele>242.0</ele><time>2026-04-22T13:36:04.615Z</time></trkpt><trkpt lat="43.5697783" lon="12.8443017"><ele>242.0</ele><time>2026-04-22T13:36:05.615Z</time></trkpt><trkpt lat="43.569885" lon="12.8444567"><ele>242.0</ele><time>2026-04-22T13:36:06.615Z</time></trkpt><trkpt lat="43.5699967" lon="12.84461"><ele>242.0</ele><time>2026-04-22T13:36:07.615Z</time></trkpt><trkpt lat="43.5701167" lon="12.8447667"><ele>242.0</ele><time>2026-04-22T13:36:08.615Z</time></trkpt><trkpt lat="43.5702267" lon="12.8449367"><ele>242.0</ele><time>2026-04-22T13:36:09.616Z</time></trkpt><trkpt lat="43.5703283" lon="12.84512"><ele>242.0</ele><time>2026-04-22T13:36:10.615Z</time></trkpt><trkpt lat="43.57041" lon="12.8453267"><ele>241.33333333333334</ele><time>2026-04-22T13:36:11.615Z</time></trkpt><trkpt lat="43.5704767" lon="12.84555"><ele>240.66666666666669</ele><time>2026-04-22T13:36:12.615Z</time></trkpt><trkpt lat="43.5705417" lon="12.845785"><ele>240.0</ele><time>2026-04-22T13:36:13.615Z</time></trkpt><trkpt lat="43.5706067" lon="12.8460333"><ele>240.0</ele><time>2026-04-22T13:36:14.615Z</time></trkpt><trkpt lat="43.5706783" lon="12.8462967"><ele>240.0</ele><time>2026-04-22T13:36:15.615Z</time></trkpt><trkpt lat="43.5707617" lon="12.8465433"><ele>240.0</ele><time>2026-04-22T13:36:16.615Z</time></trkpt><trkpt lat="43.570865" lon="12.8467833"><ele>240.0</ele><time>2026-04-22T13:36:17.616Z</time></trkpt><trkpt lat="43.5709867" lon="12.8470167"><ele>240.0</ele><time>2026-04-22T13:36:18.616Z</time></trkpt><trkpt lat="43.5711167" lon="12.84724"><ele>240.0</ele><time>2026-04-22T13:36:19.615Z</time></trkpt><trkpt lat="43.5712483" lon="12.8474533"><ele>236.33333333333331</ele><time>2026-04-22T13:36:20.615Z</time></trkpt><trkpt lat="43.571395" lon="12.8476533"><ele>232.66666666666666</ele><time>2026-04-22T13:36:21.615Z</time></trkpt><trkpt lat="43.57155" lon="12.8478267"><ele>229.0</ele><time>2026-04-22T13:36:22.615Z</time></trkpt><trkpt lat="43.5717117" lon="12.847985"><ele>229.0</ele><time>2026-04-22T13:36:23.615Z</time></trkpt><trkpt lat="43.5718917" lon="12.848125"><ele>229.0</ele><time>2026-04-22T13:36:24.615Z</time></trkpt><trkpt lat="43.5720767" lon="12.8482417"><ele>229.0</ele><time>2026-04-22T13:36:25.615Z</time></trkpt><trkpt lat="43.572275" lon="12.84835"><ele>229.0</ele><time>2026-04-22T13:36:26.615Z</time></trkpt><trkpt lat="43.57248" lon="12.8484533"><ele>229.0</ele><time>2026-04-22T13:36:27.615Z</time></trkpt><trkpt lat="43.57268" lon="12.8485583"><ele>229.0</ele><time>2026-04-22T13:36:28.615Z</time></trkpt><trkpt lat="43.5728667" lon="12.8486583"><ele>229.33333333333331</ele><time>2026-04-22T13:36:29.615Z</time></trkpt><trkpt lat="43.573055" lon="12.8487633"><ele>229.66666666666669</ele><time>2026-04-22T13:36:30.615Z</time></trkpt><trkpt lat="43.5732367" lon="12.8488833"><ele>230.0</ele><time>2026-04-22T13:36:31.615Z</time></trkpt><trkpt lat="43.5734183" lon="12.849015"><ele>230.0</ele><time>2026-04-22T13:36:32.615Z</time></trkpt><trkpt lat="43.5736" lon="12.84916"><ele>230.0</ele><time>2026-04-22T13:36:33.615Z</time></trkpt><trkpt lat="43.5737717" lon="12.8493217"><ele>230.0</ele><time>2026-04-22T13:36:34.615Z</time></trkpt><trkpt lat="43.573935" lon="12.849495"><ele>230.0</ele><time>2026-04-22T13:36:35.615Z</time></trkpt><trkpt lat="43.5740867" lon="12.8496867"><ele>230.0</ele><time>2026-04-22T13:36:36.615Z</time></trkpt><trkpt lat="43.57423" lon="12.8499"><ele>230.0</ele><time>2026-04-22T13:36:37.615Z</time></trkpt><trkpt lat="43.5743567" lon="12.850135"><ele>229.0</ele><time>2026-04-22T13:36:38.615Z</time></trkpt><trkpt lat="43.57447" lon="12.85039"><ele>228.0</ele><time>2026-04-22T13:36:39.615Z</time></trkpt><trkpt lat="43.57457" lon="12.8506617"><ele>227.0</ele><time>2026-04-22T13:36:40.616Z</time></trkpt><trkpt lat="43.5746633" lon="12.8509433"><ele>227.33333333333334</ele><time>2026-04-22T13:36:41.615Z</time></trkpt><trkpt lat="43.5747567" lon="12.8512083"><ele>227.66666666666669</ele><time>2026-04-22T13:36:42.615Z</time></trkpt><trkpt lat="43.5748583" lon="12.851445"><ele>228.0</ele><time>2026-04-22T13:36:43.615Z</time></trkpt><trkpt lat="43.5749817" lon="12.8516617"><ele>229.33333333333331</ele><time>2026-04-22T13:36:44.615Z</time></trkpt><trkpt lat="43.5751217" lon="12.851865"><ele>230.66666666666666</ele><time>2026-04-22T13:36:45.615Z</time></trkpt><trkpt lat="43.5752667" lon="12.8520517"><ele>232.0</ele><time>2026-04-22T13:36:46.615Z</time></trkpt><trkpt lat="43.575435" lon="12.8522167"><ele>232.0</ele><time>2026-04-22T13:36:47.615Z</time></trkpt><trkpt lat="43.5756083" lon="12.85236"><ele>232.0</ele><time>2026-04-22T13:36:48.615Z</time></trkpt><trkpt lat="43.5757833" lon="12.8524983"><ele>232.0</ele><time>2026-04-22T13:36:49.615Z</time></trkpt><trkpt lat="43.5759617" lon="12.85264"><ele>231.0</ele><time>2026-04-22T13:36:50.616Z</time></trkpt><trkpt lat="43.5761333" lon="12.8527733"><ele>230.0</ele><time>2026-04-22T13:36:51.615Z</time></trkpt><trkpt lat="43.5763167" lon="12.85289"><ele>229.0</ele><time>2026-04-22T13:36:52.615Z</time></trkpt><trkpt lat="43.5765033" lon="12.8529917"><ele>229.0</ele><time>2026-04-22T13:36:53.615Z</time></trkpt><trkpt lat="43.5766883" lon="12.8530883"><ele>229.0</ele><time>2026-04-22T13:36:54.615Z</time></trkpt><trkpt lat="43.57686" lon="12.853225"><ele>229.0</ele><time>2026-04-22T13:36:55.615Z</time></trkpt><trkpt lat="43.577025" lon="12.8533883"><ele>229.66666666666666</ele><time>2026-04-22T13:36:56.615Z</time></trkpt><trkpt lat="43.5771817" lon="12.8535633"><ele>230.33333333333331</ele><time>2026-04-22T13:36:57.615Z</time></trkpt><trkpt lat="43.5773467" lon="12.8537417"><ele>231.0</ele><time>2026-04-22T13:36:58.615Z</time></trkpt><trkpt lat="43.5775217" lon="12.8539183"><ele>231.0</ele><time>2026-04-22T13:36:59.615Z</time></trkpt><trkpt lat="43.5777017" lon="12.8540767"><ele>231.0</ele><time>2026-04-22T13:37:00.615Z</time></trkpt><trkpt lat="43.577885" lon="12.85422"><ele>231.0</ele><time>2026-04-22T13:37:01.615Z</time></trkpt><trkpt lat="43.5780833" lon="12.8543367"><ele>231.66666666666669</ele><time>2026-04-22T13:37:02.615Z</time></trkpt><trkpt lat="43.5782733" lon="12.8544533"><ele>232.33333333333334</ele><time>2026-04-22T13:37:03.615Z</time></trkpt><trkpt lat="43.5784633" lon="12.8545817"><ele>233.0</ele><time>2026-04-22T13:37:04.615Z</time></trkpt><trkpt lat="43.5786433" lon="12.8547183"><ele>233.33333333333334</ele><time>2026-04-22T13:37:05.616Z</time></trkpt><trkpt lat="43.5788017" lon="12.85486"><ele>233.66666666666669</ele><time>2026-04-22T13:37:06.615Z</time></trkpt><trkpt lat="43.578945" lon="12.85502"><ele>234.0</ele><time>2026-04-22T13:37:07.615Z</time></trkpt><trkpt lat="43.5790817" lon="12.8551917"><ele>232.66666666666669</ele><time>2026-04-22T13:37:08.615Z</time></trkpt><trkpt lat="43.5792033" lon="12.855395"><ele>231.33333333333334</ele><time>2026-04-22T13:37:09.615Z</time></trkpt><trkpt lat="43.5793183" lon="12.85561"><ele>230.0</ele><time>2026-04-22T13:37:10.615Z</time></trkpt><trkpt lat="43.579445" lon="12.8558117"><ele>228.66666666666669</ele><time>2026-04-22T13:37:11.615Z</time></trkpt><trkpt lat="43.5795767" lon="12.85601"><ele>227.33333333333331</ele><time>2026-04-22T13:37:12.615Z</time></trkpt><trkpt lat="43.5797333" lon="12.8561833"><ele>226.0</ele><time>2026-04-22T13:37:13.615Z</time></trkpt><trkpt lat="43.5799" lon="12.856345"><ele>226.0</ele><time>2026-04-22T13:37:14.615Z</time></trkpt><trkpt lat="43.5800783" lon="12.8564967"><ele>226.0</ele><time>2026-04-22T13:37:15.615Z</time></trkpt><trkpt lat="43.580255" lon="12.8566233"><ele>226.0</ele><time>2026-04-22T13:37:16.615Z</time></trkpt><trkpt lat="43.5804333" lon="12.85673"><ele>225.0</ele><time>2026-04-22T13:37:17.615Z</time></trkpt><trkpt lat="43.5806033" lon="12.85682"><ele>224.0</ele><time>2026-04-22T13:37:18.615Z</time></trkpt><trkpt lat="43.580765" lon="12.8568967"><ele>223.0</ele><time>2026-04-22T13:37:19.615Z</time></trkpt><trkpt lat="43.5809267" lon="12.85697"><ele>223.0</ele><time>2026-04-22T13:37:20.615Z</time></trkpt><trkpt lat="43.5810767" lon="12.857045"><ele>223.0</ele><time>2026-04-22T13:37:21.615Z</time></trkpt><trkpt lat="43.5812183" lon="12.8571217"><ele>223.0</ele><time>2026-04-22T13:37:22.615Z</time></trkpt><trkpt lat="43.58136" lon="12.8572283"><ele>223.33333333333331</ele><time>2026-04-22T13:37:23.615Z</time></trkpt><trkpt lat="43.5814967" lon="12.8573467"><ele>223.66666666666669</ele><time>2026-04-22T13:37:24.615Z</time></trkpt><trkpt lat="43.581625" lon="12.857485"><ele>224.0</ele><time>2026-04-22T13:37:25.615Z</time></trkpt><trkpt lat="43.5817483" lon="12.8576483"><ele>224.0</ele><time>2026-04-22T13:37:26.615Z</time></trkpt><trkpt lat="43.5818567" lon="12.8578133"><ele>224.0</ele><time>2026-04-22T13:37:27.615Z</time></trkpt><trkpt lat="43.58195" lon="12.8579917"><ele>224.0</ele><time>2026-04-22T13:37:28.615Z</time></trkpt><trkpt lat="43.5820383" lon="12.8581767"><ele>225.0</ele><time>2026-04-22T13:37:29.615Z</time></trkpt><trkpt lat="43.5821133" lon="12.8583633"><ele>226.0</ele><time>2026-04-22T13:37:30.615Z</time></trkpt><trkpt lat="43.5821917" lon="12.8585567"><ele>227.0</ele><time>2026-04-22T13:37:31.615Z</time></trkpt><trkpt lat="43.58227" lon="12.858745"><ele>227.0</ele><time>2026-04-22T13:37:32.615Z</time></trkpt><trkpt lat="43.5823583" lon="12.8589267"><ele>227.0</ele><time>2026-04-22T13:37:33.615Z</time></trkpt><trkpt lat="43.5824567" lon="12.8590933"><ele>227.0</ele><time>2026-04-22T13:37:34.616Z</time></trkpt><trkpt lat="43.5825683" lon="12.85924"><ele>226.66666666666669</ele><time>2026-04-22T13:37:35.615Z</time></trkpt><trkpt lat="43.5826917" lon="12.8593817"><ele>226.33333333333331</ele><time>2026-04-22T13:37:36.616Z</time></trkpt><trkpt lat="43.5828183" lon="12.8595217"><ele>226.0</ele><time>2026-04-22T13:37:37.616Z</time></trkpt><trkpt lat="43.5829533" lon="12.859645"><ele>226.0</ele><time>2026-04-22T13:37:38.615Z</time></trkpt><trkpt lat="43.583085" lon="12.8597733"><ele>226.0</ele><time>2026-04-22T13:37:39.616Z</time></trkpt><trkpt lat="43.5832217" lon="12.8598967"><ele>226.0</ele><time>2026-04-22T13:37:40.615Z</time></trkpt><trkpt lat="43.5833583" lon="12.8600367"><ele>227.33333333333331</ele><time>2026-04-22T13:37:41.615Z</time></trkpt><trkpt lat="43.5834867" lon="12.8601767"><ele>228.66666666666669</ele><time>2026-04-22T13:37:42.615Z</time></trkpt><trkpt lat="43.5836083" lon="12.8603267"><ele>230.0</ele><time>2026-04-22T13:37:43.615Z</time></trkpt><trkpt lat="43.5837233" lon="12.8604833"><ele>230.0</ele><time>2026-04-22T13:37:44.615Z</time></trkpt><trkpt lat="43.5838367" lon="12.8606533"><ele>230.0</ele><time>2026-04-22T13:37:45.615Z</time></trkpt><trkpt lat="43.5839433" lon="12.8608317"><ele>230.0</ele><time>2026-04-22T13:37:46.615Z</time></trkpt><trkpt lat="43.58404" lon="12.8610183"><ele>228.0</ele><time>2026-04-22T13:37:47.615Z</time></trkpt><trkpt lat="43.5841233" lon="12.86121"><ele>226.0</ele><time>2026-04-22T13:37:48.615Z</time></trkpt><trkpt lat="43.5841967" lon="12.86142"><ele>224.0</ele><time>2026-04-22T13:37:49.615Z</time></trkpt><trkpt lat="43.5842633" lon="12.8616183"><ele>222.66666666666669</ele><time>2026-04-22T13:37:50.615Z</time></trkpt><trkpt lat="43.5843233" lon="12.8618217"><ele>221.33333333333331</ele><time>2026-04-22T13:37:51.615Z</time></trkpt><trkpt lat="43.5843817" lon="12.862025"><ele>220.0</ele><time>2026-04-22T13:37:52.616Z</time></trkpt><trkpt lat="43.584445" lon="12.8622333"><ele>220.0</ele><time>2026-04-22T13:37:53.615Z</time></trkpt><trkpt lat="43.5845017" lon="12.86244"><ele>220.0</ele><time>2026-04-22T13:37:54.615Z</time></trkpt><trkpt lat="43.5845667" lon="12.8626517"><ele>220.0</ele><time>2026-04-22T13:37:55.615Z</time></trkpt><trkpt lat="43.584635" lon="12.8628833"><ele>220.0</ele><time>2026-04-22T13:37:56.615Z</time></trkpt><trkpt lat="43.5847133" lon="12.86314"><ele>220.0</ele><time>2026-04-22T13:37:57.615Z</time></trkpt><trkpt lat="43.5847967" lon="12.8634167"><ele>220.0</ele><time>2026-04-22T13:37:58.615Z</time></trkpt><trkpt lat="43.5848883" lon="12.8636983"><ele>220.0</ele><time>2026-04-22T13:37:59.616Z</time></trkpt><trkpt lat="43.58498" lon="12.8639833"><ele>220.0</ele><time>2026-04-22T13:38:00.615Z</time></trkpt><trkpt lat="43.5850733" lon="12.8642867"><ele>220.0</ele><time>2026-04-22T13:38:01.615Z</time></trkpt><trkpt lat="43.5851667" lon="12.86461"><ele>220.0</ele><time>2026-04-22T13:38:02.615Z</time></trkpt><trkpt lat="43.5852583" lon="12.86495"><ele>220.5</ele><time>2026-04-22T13:38:03.615Z</time></trkpt><trkpt lat="43.58535" lon="12.8653"><ele>221.0</ele><time>2026-04-22T13:38:04.615Z</time></trkpt><trkpt lat="43.585435" lon="12.8656417"><ele>221.0</ele><time>2026-04-22T13:38:05.615Z</time></trkpt><trkpt lat="43.5855183" lon="12.8659733"><ele>221.0</ele><time>2026-04-22T13:38:06.615Z</time></trkpt><trkpt lat="43.58561" lon="12.866295"><ele>221.0</ele><time>2026-04-22T13:38:07.615Z</time></trkpt><trkpt lat="43.5856983" lon="12.8666067"><ele>221.0</ele><time>2026-04-22T13:38:08.615Z</time></trkpt><trkpt lat="43.5857817" lon="12.8669117"><ele>221.33333333333334</ele><time>2026-04-22T13:38:09.615Z</time></trkpt><trkpt lat="43.58586" lon="12.8672033"><ele>221.66666666666669</ele><time>2026-04-22T13:38:10.615Z</time></trkpt><trkpt lat="43.585935" lon="12.8674833"><ele>222.0</ele><time>2026-04-22T13:38:11.615Z</time></trkpt><trkpt lat="43.5860083" lon="12.8677533"><ele>222.0</ele><time>2026-04-22T13:38:12.616Z</time></trkpt><trkpt lat="43.5860733" lon="12.8680167"><ele>222.0</ele><time>2026-04-22T13:38:13.615Z</time></trkpt><trkpt lat="43.58614" lon="12.868275"><ele>222.0</ele><time>2026-04-22T13:38:14.615Z</time></trkpt><trkpt lat="43.586205" lon="12.8685283"><ele>221.66666666666669</ele><time>2026-04-22T13:38:15.615Z</time></trkpt><trkpt lat="43.58627" lon="12.8687767"><ele>221.33333333333334</ele><time>2026-04-22T13:38:16.615Z</time></trkpt><trkpt lat="43.5863417" lon="12.869025"><ele>221.0</ele><time>2026-04-22T13:38:17.615Z</time></trkpt><trkpt lat="43.58641" lon="12.86928"><ele>221.0</ele><time>2026-04-22T13:38:18.615Z</time></trkpt><trkpt lat="43.5864767" lon="12.8695317"><ele>221.0</ele><time>2026-04-22T13:38:19.615Z</time></trkpt><trkpt lat="43.5865433" lon="12.869785"><ele>221.0</ele><time>2026-04-22T13:38:20.616Z</time></trkpt><trkpt lat="43.5866067" lon="12.8700333"><ele>220.0</ele><time>2026-04-22T13:38:21.615Z</time></trkpt><trkpt lat="43.5866717" lon="12.8702883"><ele>219.0</ele><time>2026-04-22T13:38:22.616Z</time></trkpt><trkpt lat="43.5867417" lon="12.8705417"><ele>218.0</ele><time>2026-04-22T13:38:23.615Z</time></trkpt><trkpt lat="43.586815" lon="12.8707867"><ele>218.0</ele><time>2026-04-22T13:38:24.616Z</time></trkpt><trkpt lat="43.5868833" lon="12.8710383"><ele>218.0</ele><time>2026-04-22T13:38:25.615Z</time></trkpt><trkpt lat="43.5869533" lon="12.871295"><ele>218.0</ele><time>2026-04-22T13:38:26.615Z</time></trkpt><trkpt lat="43.5870167" lon="12.8715483"><ele>219.0</ele><time>2026-04-22T13:38:27.615Z</time></trkpt><trkpt lat="43.587075" lon="12.87181"><ele>220.0</ele><time>2026-04-22T13:38:28.615Z</time></trkpt><trkpt lat="43.5871317" lon="12.8720767"><ele>221.0</ele><time>2026-04-22T13:38:29.615Z</time></trkpt><trkpt lat="43.5871833" lon="12.8723433"><ele>221.0</ele><time>2026-04-22T13:38:30.615Z</time></trkpt><trkpt lat="43.5872267" lon="12.8726067"><ele>221.0</ele><time>2026-04-22T13:38:31.615Z</time></trkpt><trkpt lat="43.5872717" lon="12.8728717"><ele>221.0</ele><time>2026-04-22T13:38:32.615Z</time></trkpt><trkpt lat="43.5873183" lon="12.8731367"><ele>221.0</ele><time>2026-04-22T13:38:33.615Z</time></trkpt><trkpt lat="43.5873633" lon="12.8734"><ele>221.0</ele><time>2026-04-22T13:38:34.615Z</time></trkpt><trkpt lat="43.587405" lon="12.873665"><ele>221.0</ele><time>2026-04-22T13:38:35.615Z</time></trkpt><trkpt lat="43.5874517" lon="12.873935"><ele>220.66666666666669</ele><time>2026-04-22T13:38:36.616Z</time></trkpt><trkpt lat="43.5874983" lon="12.8741967"><ele>220.33333333333331</ele><time>2026-04-22T13:38:37.615Z</time></trkpt><trkpt lat="43.58754" lon="12.8744667"><ele>220.0</ele><time>2026-04-22T13:38:38.616Z</time></trkpt><trkpt lat="43.5875883" lon="12.87473"><ele>220.0</ele><time>2026-04-22T13:38:39.616Z</time></trkpt><trkpt lat="43.587635" lon="12.8749933"><ele>220.0</ele><time>2026-04-22T13:38:40.615Z</time></trkpt><trkpt lat="43.5876783" lon="12.8752567"><ele>220.0</ele><time>2026-04-22T13:38:41.615Z</time></trkpt><trkpt lat="43.587725" lon="12.8755233"><ele>219.33333333333331</ele><time>2026-04-22T13:38:42.615Z</time></trkpt><trkpt lat="43.58777" lon="12.8757867"><ele>218.66666666666669</ele><time>2026-04-22T13:38:43.615Z</time></trkpt><trkpt lat="43.587815" lon="12.8760483"><ele>218.0</ele><time>2026-04-22T13:38:44.615Z</time></trkpt><trkpt lat="43.5878617" lon="12.876315"><ele>218.0</ele><time>2026-04-22T13:38:45.615Z</time></trkpt><trkpt lat="43.5879083" lon="12.876585"><ele>218.0</ele><time>2026-04-22T13:38:46.615Z</time></trkpt><trkpt lat="43.5879517" lon="12.8768567"><ele>218.0</ele><time>2026-04-22T13:38:47.615Z</time></trkpt><trkpt lat="43.5879967" lon="12.8771333"><ele>218.0</ele><time>2026-04-22T13:38:48.615Z</time></trkpt><trkpt lat="43.5880483" lon="12.8774133"><ele>218.0</ele><time>2026-04-22T13:38:49.615Z</time></trkpt><trkpt lat="43.5881033" lon="12.8776983"><ele>218.0</ele><time>2026-04-22T13:38:50.615Z</time></trkpt><trkpt lat="43.5881533" lon="12.8779817"><ele>217.66666666666669</ele><time>2026-04-22T13:38:51.615Z</time></trkpt><trkpt lat="43.588205" lon="12.8782683"><ele>217.33333333333331</ele><time>2026-04-22T13:38:52.615Z</time></trkpt><trkpt lat="43.5882517" lon="12.87855"><ele>217.0</ele><time>2026-04-22T13:38:53.615Z</time></trkpt><trkpt lat="43.5883033" lon="12.878835"><ele>216.66666666666666</ele><time>2026-04-22T13:38:54.615Z</time></trkpt><trkpt lat="43.5883533" lon="12.8791233"><ele>216.33333333333331</ele><time>2026-04-22T13:38:55.615Z</time></trkpt><trkpt lat="43.5884017" lon="12.8794067"><ele>216.0</ele><time>2026-04-22T13:38:56.615Z</time></trkpt><trkpt lat="43.5884517" lon="12.8796917"><ele>215.66666666666669</ele><time>2026-04-22T13:38:57.615Z</time></trkpt><trkpt lat="43.5885" lon="12.8799683"><ele>215.33333333333334</ele><time>2026-04-22T13:38:58.615Z</time></trkpt><trkpt lat="43.588555" lon="12.88025"><ele>215.0</ele><time>2026-04-22T13:38:59.615Z</time></trkpt><trkpt lat="43.588605" lon="12.8805333"><ele>215.0</ele><time>2026-04-22T13:39:00.615Z</time></trkpt><trkpt lat="43.5886583" lon="12.8808167"><ele>215.0</ele><time>2026-04-22T13:39:01.615Z</time></trkpt><trkpt lat="43.5887033" lon="12.881105"><ele>215.0</ele><time>2026-04-22T13:39:02.615Z</time></trkpt><trkpt lat="43.58875" lon="12.8813983"><ele>215.66666666666669</ele><time>2026-04-22T13:39:03.616Z</time></trkpt><trkpt lat="43.5888" lon="12.8816883"><ele>216.33333333333331</ele><time>2026-04-22T13:39:04.615Z</time></trkpt><trkpt lat="43.5888483" lon="12.88198"><ele>217.0</ele><time>2026-04-22T13:39:05.615Z</time></trkpt><trkpt lat="43.5889" lon="12.8822833"><ele>217.0</ele><time>2026-04-22T13:39:06.615Z</time></trkpt><trkpt lat="43.588955" lon="12.8825783"><ele>217.0</ele><time>2026-04-22T13:39:07.615Z</time></trkpt><trkpt lat="43.5890083" lon="12.8828733"><ele>217.0</ele><time>2026-04-22T13:39:08.615Z</time></trkpt><trkpt lat="43.589075" lon="12.8831667"><ele>216.66666666666666</ele><time>2026-04-22T13:39:09.615Z</time></trkpt><trkpt lat="43.5891467" lon="12.8834583"><ele>216.33333333333331</ele><time>2026-04-22T13:39:10.615Z</time></trkpt><trkpt lat="43.5892217" lon="12.88374"><ele>216.0</ele><time>2026-04-22T13:39:11.615Z</time></trkpt><trkpt lat="43.589305" lon="12.884015"><ele>216.0</ele><time>2026-04-22T13:39:12.615Z</time></trkpt><trkpt lat="43.5893817" lon="12.88427"><ele>216.0</ele><time>2026-04-22T13:39:13.615Z</time></trkpt><trkpt lat="43.589455" lon="12.8845133"><ele>216.0</ele><time>2026-04-22T13:39:14.615Z</time></trkpt><trkpt lat="43.5895183" lon="12.8847483"><ele>217.66666666666669</ele><time>2026-04-22T13:39:15.615Z</time></trkpt><trkpt lat="43.5895633" lon="12.884985"><ele>219.33333333333334</ele><time>2026-04-22T13:39:16.616Z</time></trkpt><trkpt lat="43.589585" lon="12.8852167"><ele>221.0</ele><time>2026-04-22T13:39:17.616Z</time></trkpt><trkpt lat="43.5896" lon="12.8854617"><ele>221.0</ele><time>2026-04-22T13:39:18.615Z</time></trkpt><trkpt lat="43.58959" lon="12.8857133"><ele>221.0</ele><time>2026-04-22T13:39:19.615Z</time></trkpt><trkpt lat="43.5895817" lon="12.8859583"><ele>221.0</ele><time>2026-04-22T13:39:20.615Z</time></trkpt><trkpt lat="43.5895617" lon="12.88622"><ele>220.0</ele><time>2026-04-22T13:39:21.616Z</time></trkpt><trkpt lat="43.5895333" lon="12.886475"><ele>219.0</ele><time>2026-04-22T13:39:22.615Z</time></trkpt><trkpt lat="43.5894933" lon="12.886725"><ele>218.0</ele><time>2026-04-22T13:39:23.616Z</time></trkpt><trkpt lat="43.5894317" lon="12.8869783"><ele>216.33333333333334</ele><time>2026-04-22T13:39:24.615Z</time></trkpt><trkpt lat="43.5893783" lon="12.8872183"><ele>214.66666666666669</ele><time>2026-04-22T13:39:25.615Z</time></trkpt><trkpt lat="43.5893233" lon="12.8874617"><ele>213.0</ele><time>2026-04-22T13:39:26.615Z</time></trkpt><trkpt lat="43.5892883" lon="12.887705"><ele>213.0</ele><time>2026-04-22T13:39:27.615Z</time></trkpt><trkpt lat="43.5892733" lon="12.88796"><ele>213.0</ele><time>2026-04-22T13:39:28.615Z</time></trkpt><trkpt lat="43.589255" lon="12.88822"><ele>213.0</ele><time>2026-04-22T13:39:29.616Z</time></trkpt><trkpt lat="43.5892283" lon="12.8884883"><ele>213.0</ele><time>2026-04-22T13:39:30.615Z</time></trkpt><trkpt lat="43.5891733" lon="12.8887667"><ele>213.0</ele><time>2026-04-22T13:39:31.615Z</time></trkpt><trkpt lat="43.5891233" lon="12.88904"><ele>213.0</ele><time>2026-04-22T13:39:32.615Z</time></trkpt><trkpt lat="43.5890533" lon="12.8893233"><ele>212.0</ele><time>2026-04-22T13:39:33.616Z</time></trkpt><trkpt lat="43.58899" lon="12.8896067"><ele>211.0</ele><time>2026-04-22T13:39:34.615Z</time></trkpt><trkpt lat="43.5889383" lon="12.8898867"><ele>210.0</ele><time>2026-04-22T13:39:35.615Z</time></trkpt><trkpt lat="43.5888933" lon="12.8901583"><ele>208.66666666666669</ele><time>2026-04-22T13:39:36.615Z</time></trkpt><trkpt lat="43.5888667" lon="12.8904233"><ele>207.33333333333334</ele><time>2026-04-22T13:39:37.615Z</time></trkpt><trkpt lat="43.5888617" lon="12.8906917"><ele>206.0</ele><time>2026-04-22T13:39:38.615Z</time></trkpt><trkpt lat="43.5888783" lon="12.8909567"><ele>206.0</ele><time>2026-04-22T13:39:39.615Z</time></trkpt><trkpt lat="43.588915" lon="12.8912017"><ele>206.0</ele><time>2026-04-22T13:39:40.615Z</time></trkpt><trkpt lat="43.588975" lon="12.89144"><ele>206.0</ele><time>2026-04-22T13:39:41.615Z</time></trkpt><trkpt lat="43.58905" lon="12.891685"><ele>205.66666666666669</ele><time>2026-04-22T13:39:42.615Z</time></trkpt><trkpt lat="43.5891367" lon="12.8919233"><ele>205.33333333333331</ele><time>2026-04-22T13:39:43.615Z</time></trkpt><trkpt lat="43.5892283" lon="12.8921583"><ele>205.0</ele><time>2026-04-22T13:39:44.615Z</time></trkpt><trkpt lat="43.5893283" lon="12.89239"><ele>204.66666666666666</ele><time>2026-04-22T13:39:45.615Z</time></trkpt><trkpt lat="43.589425" lon="12.8926217"><ele>204.33333333333331</ele><time>2026-04-22T13:39:46.615Z</time></trkpt><trkpt lat="43.58952" lon="12.8928483"><ele>204.0</ele><time>2026-04-22T13:39:47.615Z</time></trkpt><trkpt lat="43.5896117" lon="12.8930833"><ele>204.66666666666669</ele><time>2026-04-22T13:39:48.615Z</time></trkpt><trkpt lat="43.5897117" lon="12.8933133"><ele>205.33333333333334</ele><time>2026-04-22T13:39:49.615Z</time></trkpt><trkpt lat="43.589805" lon="12.8935417"><ele>206.0</ele><time>2026-04-22T13:39:50.615Z</time></trkpt><trkpt lat="43.589895" lon="12.8937583"><ele>206.0</ele><time>2026-04-22T13:39:51.615Z</time></trkpt><trkpt lat="43.5899817" lon="12.8939583"><ele>206.0</ele><time>2026-04-22T13:39:52.615Z</time></trkpt><trkpt lat="43.5900617" lon="12.8941617"><ele>206.0</ele><time>2026-04-22T13:39:53.616Z</time></trkpt><trkpt lat="43.5901467" lon="12.8943667"><ele>205.33333333333334</ele><time>2026-04-22T13:39:54.615Z</time></trkpt><trkpt lat="43.590235" lon="12.894565"><ele>204.66666666666669</ele><time>2026-04-22T13:39:55.616Z</time></trkpt><trkpt lat="43.5903217" lon="12.8947667"><ele>204.0</ele><time>2026-04-22T13:39:56.615Z</time></trkpt><trkpt lat="43.590405" lon="12.89497"><ele>205.66666666666669</ele><time>2026-04-22T13:39:57.616Z</time></trkpt><trkpt lat="43.59049" lon="12.8951717"><ele>207.33333333333334</ele><time>2026-04-22T13:39:58.616Z</time></trkpt><trkpt lat="43.590575" lon="12.8953733"><ele>209.0</ele><time>2026-04-22T13:39:59.615Z</time></trkpt><trkpt lat="43.5906617" lon="12.8955767"><ele>209.0</ele><time>2026-04-22T13:40:00.615Z</time></trkpt><trkpt lat="43.5907467" lon="12.8957833"><ele>209.0</ele><time>2026-04-22T13:40:01.615Z</time></trkpt><trkpt lat="43.59083" lon="12.8959867"><ele>209.0</ele><time>2026-04-22T13:40:02.615Z</time></trkpt><trkpt lat="43.5909167" lon="12.8961933"><ele>208.66666666666669</ele><time>2026-04-22T13:40:03.616Z</time></trkpt><trkpt lat="43.5910067" lon="12.8963983"><ele>208.33333333333331</ele><time>2026-04-22T13:40:04.615Z</time></trkpt><trkpt lat="43.591095" lon="12.8966117"><ele>208.0</ele><time>2026-04-22T13:40:05.615Z</time></trkpt><trkpt lat="43.591185" lon="12.8968233"><ele>208.0</ele><time>2026-04-22T13:40:06.615Z</time></trkpt><trkpt lat="43.5912717" lon="12.897035"><ele>208.0</ele><time>2026-04-22T13:40:07.616Z</time></trkpt><trkpt lat="43.591355" lon="12.8972367"><ele>208.0</ele><time>2026-04-22T13:40:08.615Z</time></trkpt><trkpt lat="43.59144" lon="12.8974317"><ele>208.0</ele><time>2026-04-22T13:40:09.616Z</time></trkpt><trkpt lat="43.5915267" lon="12.8976317"><ele>208.0</ele><time>2026-04-22T13:40:10.615Z</time></trkpt><trkpt lat="43.5916133" lon="12.89783"><ele>208.0</ele><time>2026-04-22T13:40:11.615Z</time></trkpt><trkpt lat="43.59169" lon="12.8980267"><ele>208.0</ele><time>2026-04-22T13:40:12.616Z</time></trkpt><trkpt lat="43.59177" lon="12.8982133"><ele>208.0</ele><time>2026-04-22T13:40:13.615Z</time></trkpt><trkpt lat="43.5918467" lon="12.89839"><ele>208.0</ele><time>2026-04-22T13:40:14.615Z</time></trkpt><trkpt lat="43.5919167" lon="12.8985633"><ele>208.25</ele><time>2026-04-22T13:40:15.615Z</time></trkpt><trkpt lat="43.5919833" lon="12.8987233"><ele>208.5</ele><time>2026-04-22T13:40:16.615Z</time></trkpt><trkpt lat="43.592045" lon="12.8988817"><ele>208.75</ele><time>2026-04-22T13:40:17.615Z</time></trkpt><trkpt lat="43.5921167" lon="12.8990433"><ele>209.0</ele><time>2026-04-22T13:40:18.615Z</time></trkpt><trkpt lat="43.592195" lon="12.8992167"><ele>208.25</ele><time>2026-04-22T13:40:19.615Z</time></trkpt><trkpt lat="43.5922667" lon="12.8993933"><ele>207.5</ele><time>2026-04-22T13:40:20.615Z</time></trkpt><trkpt lat="43.592335" lon="12.8995717"><ele>206.75</ele><time>2026-04-22T13:40:21.615Z</time></trkpt><trkpt lat="43.5924133" lon="12.899745"><ele>206.0</ele><time>2026-04-22T13:40:22.616Z</time></trkpt><trkpt lat="43.5924917" lon="12.8999183"><ele>205.25</ele><time>2026-04-22T13:40:23.615Z</time></trkpt><trkpt lat="43.59256" lon="12.9000983"><ele>204.5</ele><time>2026-04-22T13:40:24.615Z</time></trkpt><trkpt lat="43.59262" lon="12.9002783"><ele>203.75</ele><time>2026-04-22T13:40:25.615Z</time></trkpt><trkpt lat="43.592675" lon="12.9004717"><ele>203.0</ele><time>2026-04-22T13:40:26.615Z</time></trkpt><trkpt lat="43.5927183" lon="12.90067"><ele>203.0</ele><time>2026-04-22T13:40:27.615Z</time></trkpt><trkpt lat="43.592745" lon="12.9008717"><ele>203.0</ele><time>2026-04-22T13:40:28.615Z</time></trkpt><trkpt lat="43.5927667" lon="12.9010817"><ele>203.0</ele><time>2026-04-22T13:40:29.616Z</time></trkpt><trkpt lat="43.5927933" lon="12.901285"><ele>203.75</ele><time>2026-04-22T13:40:30.615Z</time></trkpt><trkpt lat="43.5928233" lon="12.9014867"><ele>204.5</ele><time>2026-04-22T13:40:31.615Z</time></trkpt><trkpt lat="43.5928483" lon="12.9016867"><ele>205.25</ele><time>2026-04-22T13:40:32.615Z</time></trkpt><trkpt lat="43.59288" lon="12.9018783"><ele>206.0</ele><time>2026-04-22T13:40:33.615Z</time></trkpt><trkpt lat="43.5929083" lon="12.9020783"><ele>206.5</ele><time>2026-04-22T13:40:34.615Z</time></trkpt><trkpt lat="43.5929317" lon="12.90227"><ele>207.0</ele><time>2026-04-22T13:40:35.615Z</time></trkpt><trkpt lat="43.5929617" lon="12.9024633"><ele>207.5</ele><time>2026-04-22T13:40:36.615Z</time></trkpt><trkpt lat="43.592995" lon="12.9026583"><ele>208.0</ele><time>2026-04-22T13:40:37.615Z</time></trkpt><trkpt lat="43.5930217" lon="12.9028517"><ele>208.0</ele><time>2026-04-22T13:40:38.615Z</time></trkpt><trkpt lat="43.5930533" lon="12.9030617"><ele>208.0</ele><time>2026-04-22T13:40:39.615Z</time></trkpt><trkpt lat="43.5930867" lon="12.9032783"><ele>208.0</ele><time>2026-04-22T13:40:40.615Z</time></trkpt><trkpt lat="43.593115" lon="12.9034933"><ele>207.0</ele><time>2026-04-22T13:40:41.615Z</time></trkpt><trkpt lat="43.5931417" lon="12.903705"><ele>206.0</ele><time>2026-04-22T13:40:42.616Z</time></trkpt><trkpt lat="43.5931733" lon="12.9039183"><ele>205.0</ele><time>2026-04-22T13:40:43.616Z</time></trkpt><trkpt lat="43.5932" lon="12.9041267"><ele>204.66666666666666</ele><time>2026-04-22T13:40:44.615Z</time></trkpt><trkpt lat="43.5932233" lon="12.90433"><ele>204.33333333333331</ele><time>2026-04-22T13:40:45.615Z</time></trkpt><trkpt lat="43.593255" lon="12.904535"><ele>204.0</ele><time>2026-04-22T13:40:46.615Z</time></trkpt><trkpt lat="43.5932867" lon="12.9047433"><ele>204.0</ele><time>2026-04-22T13:40:47.616Z</time></trkpt><trkpt lat="43.5933217" lon="12.9049517"><ele>204.0</ele><time>2026-04-22T13:40:48.615Z</time></trkpt><trkpt lat="43.5933517" lon="12.9051567"><ele>204.0</ele><time>2026-04-22T13:40:49.615Z</time></trkpt><trkpt lat="43.59338" lon="12.9053633"><ele>203.33333333333331</ele><time>2026-04-22T13:40:50.615Z</time></trkpt><trkpt lat="43.59341" lon="12.90557"><ele>202.66666666666666</ele><time>2026-04-22T13:40:51.615Z</time></trkpt><trkpt lat="43.593435" lon="12.905775"><ele>202.0</ele><time>2026-04-22T13:40:52.615Z</time></trkpt><trkpt lat="43.5934667" lon="12.9059833"><ele>201.66666666666666</ele><time>2026-04-22T13:40:53.615Z</time></trkpt><trkpt lat="43.5934967" lon="12.9061917"><ele>201.33333333333331</ele><time>2026-04-22T13:40:54.615Z</time></trkpt><trkpt lat="43.5935283" lon="12.9063983"><ele>201.0</ele><time>2026-04-22T13:40:55.616Z</time></trkpt><trkpt lat="43.5935617" lon="12.9066067"><ele>200.0</ele><time>2026-04-22T13:40:56.615Z</time></trkpt><trkpt lat="43.5935933" lon="12.906815"><ele>199.0</ele><time>2026-04-22T13:40:57.616Z</time></trkpt><trkpt lat="43.59362" lon="12.907025"><ele>198.0</ele><time>2026-04-22T13:40:58.615Z</time></trkpt><trkpt lat="43.5936533" lon="12.90723"><ele>198.33333333333331</ele><time>2026-04-22T13:40:59.615Z</time></trkpt><trkpt lat="43.5936817" lon="12.9074383"><ele>198.66666666666666</ele><time>2026-04-22T13:41:00.615Z</time></trkpt><trkpt lat="43.5937117" lon="12.9076433"><ele>199.0</ele><time>2026-04-22T13:41:01.615Z</time></trkpt><trkpt lat="43.593745" lon="12.90785"><ele>199.0</ele><time>2026-04-22T13:41:02.615Z</time></trkpt><trkpt lat="43.593775" lon="12.9080617"><ele>199.0</ele><time>2026-04-22T13:41:03.615Z</time></trkpt><trkpt lat="43.5937983" lon="12.908265"><ele>199.0</ele><time>2026-04-22T13:41:04.615Z</time></trkpt><trkpt lat="43.59382" lon="12.9084717"><ele>198.66666666666666</ele><time>2026-04-22T13:41:05.615Z</time></trkpt><trkpt lat="43.593845" lon="12.908675"><ele>198.33333333333331</ele><time>2026-04-22T13:41:06.616Z</time></trkpt><trkpt lat="43.593875" lon="12.9088833"><ele>198.0</ele><time>2026-04-22T13:41:07.615Z</time></trkpt><trkpt lat="43.5939117" lon="12.9090933"><ele>198.0</ele><time>2026-04-22T13:41:08.615Z</time></trkpt><trkpt lat="43.593945" lon="12.9093"><ele>198.0</ele><time>2026-04-22T13:41:09.615Z</time></trkpt><trkpt lat="43.5939817" lon="12.9095083"><ele>198.0</ele><time>2026-04-22T13:41:10.616Z</time></trkpt><trkpt lat="43.5940133" lon="12.9097133"><ele>198.0</ele><time>2026-04-22T13:41:11.615Z</time></trkpt><trkpt lat="43.5940433" lon="12.90992"><ele>198.0</ele><time>2026-04-22T13:41:12.615Z</time></trkpt><trkpt lat="43.59408" lon="12.910125"><ele>198.0</ele><time>2026-04-22T13:41:13.615Z</time></trkpt><trkpt lat="43.5941067" lon="12.91033"><ele>197.5</ele><time>2026-04-22T13:41:14.615Z</time></trkpt><trkpt lat="43.5941383" lon="12.9105283"><ele>197.0</ele><time>2026-04-22T13:41:15.616Z</time></trkpt><trkpt lat="43.5941683" lon="12.9107283"><ele>196.5</ele><time>2026-04-22T13:41:16.615Z</time></trkpt><trkpt lat="43.5942" lon="12.910925"><ele>196.0</ele><time>2026-04-22T13:41:17.615Z</time></trkpt><trkpt lat="43.59423" lon="12.911125"><ele>195.33333333333331</ele><time>2026-04-22T13:41:18.615Z</time></trkpt><trkpt lat="43.5942567" lon="12.9113283"><ele>194.66666666666669</ele><time>2026-04-22T13:41:19.615Z</time></trkpt><trkpt lat="43.5942883" lon="12.911535"><ele>194.0</ele><time>2026-04-22T13:41:20.615Z</time></trkpt><trkpt lat="43.5943167" lon="12.9117433"><ele>193.66666666666669</ele><time>2026-04-22T13:41:21.615Z</time></trkpt><trkpt lat="43.5943433" lon="12.9119533"><ele>193.33333333333331</ele><time>2026-04-22T13:41:22.615Z</time></trkpt><trkpt lat="43.5943717" lon="12.9121617"><ele>193.0</ele><time>2026-04-22T13:41:23.615Z</time></trkpt><trkpt lat="43.5943967" lon="12.9123667"><ele>193.33333333333331</ele><time>2026-04-22T13:41:24.615Z</time></trkpt><trkpt lat="43.59443" lon="12.9125783"><ele>193.66666666666669</ele><time>2026-04-22T13:41:25.615Z</time></trkpt><trkpt lat="43.5944633" lon="12.9127917"><ele>194.0</ele><time>2026-04-22T13:41:26.616Z</time></trkpt><trkpt lat="43.5944933" lon="12.9130117"><ele>194.33333333333334</ele><time>2026-04-22T13:41:27.615Z</time></trkpt><trkpt lat="43.5945333" lon="12.91324"><ele>194.66666666666669</ele><time>2026-04-22T13:41:28.615Z</time></trkpt><trkpt lat="43.59457" lon="12.9134667"><ele>195.0</ele><time>2026-04-22T13:41:29.615Z</time></trkpt><trkpt lat="43.5945967" lon="12.9136833"><ele>195.0</ele><time>2026-04-22T13:41:30.615Z</time></trkpt><trkpt lat="43.59462" lon="12.9138933"><ele>195.0</ele><time>2026-04-22T13:41:31.615Z</time></trkpt><trkpt lat="43.59465" lon="12.9140917"><ele>195.0</ele><time>2026-04-22T13:41:32.615Z</time></trkpt><trkpt lat="43.5946783" lon="12.9142867"><ele>195.0</ele><time>2026-04-22T13:41:33.615Z</time></trkpt><trkpt lat="43.594705" lon="12.9144767"><ele>194.5</ele><time>2026-04-22T13:41:34.615Z</time></trkpt><trkpt lat="43.5947317" lon="12.9146633"><ele>194.0</ele><time>2026-04-22T13:41:35.616Z</time></trkpt><trkpt lat="43.594755" lon="12.9148383"><ele>193.5</ele><time>2026-04-22T13:41:36.615Z</time></trkpt><trkpt lat="43.5947767" lon="12.9150117"><ele>193.0</ele><time>2026-04-22T13:41:37.616Z</time></trkpt><trkpt lat="43.5948" lon="12.9151817"><ele>192.75</ele><time>2026-04-22T13:41:38.615Z</time></trkpt><trkpt lat="43.5948267" lon="12.9153467"><ele>192.5</ele><time>2026-04-22T13:41:39.615Z</time></trkpt><trkpt lat="43.5948533" lon="12.9155133"><ele>192.25</ele><time>2026-04-22T13:41:40.615Z</time></trkpt><trkpt lat="43.5948717" lon="12.915685"><ele>192.0</ele><time>2026-04-22T13:41:41.615Z</time></trkpt><trkpt lat="43.5948983" lon="12.91585"><ele>191.75</ele><time>2026-04-22T13:41:42.615Z</time></trkpt><trkpt lat="43.59492" lon="12.9160067"><ele>191.5</ele><time>2026-04-22T13:41:43.615Z</time></trkpt><trkpt lat="43.594945" lon="12.9161567"><ele>191.25</ele><time>2026-04-22T13:41:44.615Z</time></trkpt><trkpt lat="43.5949667" lon="12.9163117"><ele>191.0</ele><time>2026-04-22T13:41:45.615Z</time></trkpt><trkpt lat="43.594985" lon="12.9164667"><ele>191.0</ele><time>2026-04-22T13:41:46.615Z</time></trkpt><trkpt lat="43.59501" lon="12.9166167"><ele>191.0</ele><time>2026-04-22T13:41:47.615Z</time></trkpt><trkpt lat="43.59504" lon="12.916765"><ele>191.0</ele><time>2026-04-22T13:41:48.615Z</time></trkpt><trkpt lat="43.595065" lon="12.9168983"><ele>191.0</ele><time>2026-04-22T13:41:49.615Z</time></trkpt><trkpt lat="43.59508" lon="12.9170217"><ele>191.0</ele><time>2026-04-22T13:41:50.615Z</time></trkpt><trkpt lat="43.5950883" lon="12.9171283"><ele>191.0</ele><time>2026-04-22T13:41:51.616Z</time></trkpt><trkpt lat="43.5950883" lon="12.9172217"><ele>191.0</ele><time>2026-04-22T13:41:52.615Z</time></trkpt><trkpt lat="43.595065" lon="12.9173867"><ele>191.0</ele><time>2026-04-22T13:41:54.615Z</time></trkpt><trkpt lat="43.5950683" lon="12.91755"><ele>191.0</ele><time>2026-04-22T13:41:56.615Z</time></trkpt><trkpt lat="43.5951033" lon="12.9176867"><ele>191.0</ele><time>2026-04-22T13:41:58.615Z</time></trkpt><trkpt lat="43.5951633" lon="12.9178233"><ele>191.0</ele><time>2026-04-22T13:42:00.615Z</time></trkpt><trkpt lat="43.59521" lon="12.9179633"><ele>191.0</ele><time>2026-04-22T13:42:02.615Z</time></trkpt><trkpt lat="43.5952317" lon="12.9181267"><ele>191.0</ele><time>2026-04-22T13:42:04.616Z</time></trkpt><trkpt lat="43.5952467" lon="12.918225"><ele>191.0</ele><time>2026-04-22T13:42:05.615Z</time></trkpt><trkpt lat="43.5952633" lon="12.918335"><ele>191.0</ele><time>2026-04-22T13:42:06.615Z</time></trkpt><trkpt lat="43.5952883" lon="12.91846"><ele>190.8</ele><time>2026-04-22T13:42:07.615Z</time></trkpt><trkpt lat="43.5953167" lon="12.9185867"><ele>190.60000000000002</ele><time>2026-04-22T13:42:08.615Z</time></trkpt><trkpt lat="43.5953383" lon="12.918725"><ele>190.4</ele><time>2026-04-22T13:42:09.615Z</time></trkpt><trkpt lat="43.5953567" lon="12.9188767"><ele>190.2</ele><time>2026-04-22T13:42:10.615Z</time></trkpt><trkpt lat="43.5953783" lon="12.9190267"><ele>190.0</ele><time>2026-04-22T13:42:11.615Z</time></trkpt><trkpt lat="43.5954" lon="12.9191817"><ele>189.5</ele><time>2026-04-22T13:42:12.616Z</time></trkpt><trkpt lat="43.5954183" lon="12.919345"><ele>189.0</ele><time>2026-04-22T13:42:13.614Z</time></trkpt><trkpt lat="43.5954367" lon="12.9195067"><ele>188.5</ele><time>2026-04-22T13:42:14.614Z</time></trkpt><trkpt lat="43.5954567" lon="12.9196717"><ele>188.0</ele><time>2026-04-22T13:42:15.614Z</time></trkpt><trkpt lat="43.5954833" lon="12.91983"><ele>188.0</ele><time>2026-04-22T13:42:16.614Z</time></trkpt><trkpt lat="43.5955083" lon="12.9199967"><ele>188.0</ele><time>2026-04-22T13:42:17.614Z</time></trkpt><trkpt lat="43.5955333" lon="12.92017"><ele>188.0</ele><time>2026-04-22T13:42:18.614Z</time></trkpt><trkpt lat="43.5955583" lon="12.920345"><ele>188.0</ele><time>2026-04-22T13:42:19.614Z</time></trkpt><trkpt lat="43.5955817" lon="12.9205217"><ele>188.0</ele><time>2026-04-22T13:42:20.614Z</time></trkpt><trkpt lat="43.5956" lon="12.9207017"><ele>188.0</ele><time>2026-04-22T13:42:21.614Z</time></trkpt><trkpt lat="43.59562" lon="12.92089"><ele>188.0</ele><time>2026-04-22T13:42:22.614Z</time></trkpt><trkpt lat="43.5956417" lon="12.921085"><ele>188.0</ele><time>2026-04-22T13:42:23.614Z</time></trkpt><trkpt lat="43.5956583" lon="12.9212867"><ele>187.33333333333331</ele><time>2026-04-22T13:42:24.615Z</time></trkpt><trkpt lat="43.5956833" lon="12.9214867"><ele>186.66666666666666</ele><time>2026-04-22T13:42:25.614Z</time></trkpt><trkpt lat="43.5956967" lon="12.921695"><ele>186.0</ele><time>2026-04-22T13:42:26.614Z</time></trkpt><trkpt lat="43.59571" lon="12.921905"><ele>185.66666666666666</ele><time>2026-04-22T13:42:27.614Z</time></trkpt><trkpt lat="43.59572" lon="12.9221167"><ele>185.33333333333331</ele><time>2026-04-22T13:42:28.614Z</time></trkpt><trkpt lat="43.5957267" lon="12.9223317"><ele>185.0</ele><time>2026-04-22T13:42:29.614Z</time></trkpt><trkpt lat="43.595735" lon="12.92255"><ele>185.66666666666666</ele><time>2026-04-22T13:42:30.614Z</time></trkpt><trkpt lat="43.5957517" lon="12.9227633"><ele>186.33333333333334</ele><time>2026-04-22T13:42:31.614Z</time></trkpt><trkpt lat="43.59577" lon="12.9229783"><ele>187.0</ele><time>2026-04-22T13:42:32.614Z</time></trkpt><trkpt lat="43.5957917" lon="12.9231917"><ele>186.66666666666669</ele><time>2026-04-22T13:42:33.614Z</time></trkpt><trkpt lat="43.5958117" lon="12.9234117"><ele>186.33333333333334</ele><time>2026-04-22T13:42:34.615Z</time></trkpt><trkpt lat="43.5958367" lon="12.9236283"><ele>186.0</ele><time>2026-04-22T13:42:35.614Z</time></trkpt><trkpt lat="43.5958633" lon="12.9238517"><ele>186.0</ele><time>2026-04-22T13:42:36.614Z</time></trkpt><trkpt lat="43.5958967" lon="12.9240717"><ele>186.0</ele><time>2026-04-22T13:42:37.615Z</time></trkpt><trkpt lat="43.59593" lon="12.9242917"><ele>186.0</ele><time>2026-04-22T13:42:38.614Z</time></trkpt><trkpt lat="43.5959633" lon="12.9245167"><ele>186.0</ele><time>2026-04-22T13:42:39.614Z</time></trkpt><trkpt lat="43.596" lon="12.92474"><ele>186.0</ele><time>2026-04-22T13:42:40.614Z</time></trkpt><trkpt lat="43.596035" lon="12.9249633"><ele>186.0</ele><time>2026-04-22T13:42:41.614Z</time></trkpt><trkpt lat="43.59607" lon="12.925185"><ele>186.33333333333334</ele><time>2026-04-22T13:42:42.614Z</time></trkpt><trkpt lat="43.5961083" lon="12.9253967"><ele>186.66666666666669</ele><time>2026-04-22T13:42:43.614Z</time></trkpt><trkpt lat="43.5961433" lon="12.9256117"><ele>187.0</ele><time>2026-04-22T13:42:44.614Z</time></trkpt><trkpt lat="43.59619" lon="12.92583"><ele>187.0</ele><time>2026-04-22T13:42:45.615Z</time></trkpt><trkpt lat="43.5962233" lon="12.9260583"><ele>187.0</ele><time>2026-04-22T13:42:46.614Z</time></trkpt><trkpt lat="43.5962617" lon="12.92629"><ele>187.0</ele><time>2026-04-22T13:42:47.614Z</time></trkpt><trkpt lat="43.5962967" lon="12.9265217"><ele>186.66666666666669</ele><time>2026-04-22T13:42:48.615Z</time></trkpt><trkpt lat="43.596325" lon="12.926755"><ele>186.33333333333334</ele><time>2026-04-22T13:42:49.614Z</time></trkpt><trkpt lat="43.596355" lon="12.9269917"><ele>186.0</ele><time>2026-04-22T13:42:50.615Z</time></trkpt><trkpt lat="43.5963833" lon="12.927225"><ele>186.0</ele><time>2026-04-22T13:42:51.615Z</time></trkpt><trkpt lat="43.5964183" lon="12.92746"><ele>186.0</ele><time>2026-04-22T13:42:52.614Z</time></trkpt><trkpt lat="43.5964483" lon="12.9277017"><ele>186.0</ele><time>2026-04-22T13:42:53.614Z</time></trkpt><trkpt lat="43.596485" lon="12.927935"><ele>185.66666666666666</ele><time>2026-04-22T13:42:54.614Z</time></trkpt><trkpt lat="43.596525" lon="12.92817"><ele>185.33333333333331</ele><time>2026-04-22T13:42:55.615Z</time></trkpt><trkpt lat="43.5965633" lon="12.9284"><ele>185.0</ele><time>2026-04-22T13:42:56.615Z</time></trkpt><trkpt lat="43.5966017" lon="12.928635"><ele>185.0</ele><time>2026-04-22T13:42:57.614Z</time></trkpt><trkpt lat="43.5966417" lon="12.928875"><ele>185.0</ele><time>2026-04-22T13:42:58.614Z</time></trkpt><trkpt lat="43.5966733" lon="12.9291183"><ele>185.0</ele><time>2026-04-22T13:42:59.614Z</time></trkpt><trkpt lat="43.59671" lon="12.9293583"><ele>184.33333333333331</ele><time>2026-04-22T13:43:00.614Z</time></trkpt><trkpt lat="43.5967467" lon="12.9296"><ele>183.66666666666666</ele><time>2026-04-22T13:43:01.614Z</time></trkpt><trkpt lat="43.596785" lon="12.9298383"><ele>183.0</ele><time>2026-04-22T13:43:02.614Z</time></trkpt><trkpt lat="43.59682" lon="12.9300783"><ele>183.0</ele><time>2026-04-22T13:43:03.614Z</time></trkpt><trkpt lat="43.5968633" lon="12.930315"><ele>183.0</ele><time>2026-04-22T13:43:04.615Z</time></trkpt><trkpt lat="43.5968983" lon="12.9305583"><ele>183.0</ele><time>2026-04-22T13:43:05.614Z</time></trkpt><trkpt lat="43.5969417" lon="12.9307967"><ele>182.33333333333334</ele><time>2026-04-22T13:43:06.614Z</time></trkpt><trkpt lat="43.59698" lon="12.9310317"><ele>181.66666666666669</ele><time>2026-04-22T13:43:07.614Z</time></trkpt><trkpt lat="43.5970133" lon="12.9312717"><ele>181.0</ele><time>2026-04-22T13:43:08.614Z</time></trkpt><trkpt lat="43.597045" lon="12.9315067"><ele>183.0</ele><time>2026-04-22T13:43:09.614Z</time></trkpt><trkpt lat="43.5970717" lon="12.9317417"><ele>185.0</ele><time>2026-04-22T13:43:10.615Z</time></trkpt><trkpt lat="43.5971117" lon="12.9319683"><ele>187.0</ele><time>2026-04-22T13:43:11.614Z</time></trkpt><trkpt lat="43.597155" lon="12.9321967"><ele>187.0</ele><time>2026-04-22T13:43:12.614Z</time></trkpt><trkpt lat="43.5971967" lon="12.9324283"><ele>187.0</ele><time>2026-04-22T13:43:13.614Z</time></trkpt><trkpt lat="43.5972367" lon="12.9326583"><ele>187.0</ele><time>2026-04-22T13:43:14.614Z</time></trkpt><trkpt lat="43.5972833" lon="12.93289"><ele>185.66666666666669</ele><time>2026-04-22T13:43:15.614Z</time></trkpt><trkpt lat="43.59732" lon="12.9331183"><ele>184.33333333333334</ele><time>2026-04-22T13:43:16.614Z</time></trkpt><trkpt lat="43.597365" lon="12.9333433"><ele>183.0</ele><time>2026-04-22T13:43:17.614Z</time></trkpt><trkpt lat="43.597405" lon="12.93357"><ele>182.66666666666666</ele><time>2026-04-22T13:43:18.614Z</time></trkpt><trkpt lat="43.5974317" lon="12.9337933"><ele>182.33333333333331</ele><time>2026-04-22T13:43:19.614Z</time></trkpt><trkpt lat="43.5974517" lon="12.93401"><ele>182.0</ele><time>2026-04-22T13:43:20.614Z</time></trkpt><trkpt lat="43.5974617" lon="12.93422"><ele>182.0</ele><time>2026-04-22T13:43:21.614Z</time></trkpt><trkpt lat="43.5974767" lon="12.9344283"><ele>182.0</ele><time>2026-04-22T13:43:22.615Z</time></trkpt><trkpt lat="43.597495" lon="12.9346283"><ele>182.0</ele><time>2026-04-22T13:43:23.614Z</time></trkpt><trkpt lat="43.59752" lon="12.934825"><ele>182.0</ele><time>2026-04-22T13:43:24.614Z</time></trkpt><trkpt lat="43.5975483" lon="12.9350033"><ele>181.5</ele><time>2026-04-22T13:43:25.614Z</time></trkpt><trkpt lat="43.5975783" lon="12.93518"><ele>181.0</ele><time>2026-04-22T13:43:26.614Z</time></trkpt><trkpt lat="43.59761" lon="12.9353467"><ele>180.5</ele><time>2026-04-22T13:43:27.615Z</time></trkpt><trkpt lat="43.5976383" lon="12.9355033"><ele>180.0</ele><time>2026-04-22T13:43:28.614Z</time></trkpt><trkpt lat="43.5976683" lon="12.9356633"><ele>180.0</ele><time>2026-04-22T13:43:29.614Z</time></trkpt><trkpt lat="43.5977033" lon="12.935815"><ele>180.0</ele><time>2026-04-22T13:43:30.614Z</time></trkpt><trkpt lat="43.597735" lon="12.9359667"><ele>180.0</ele><time>2026-04-22T13:43:31.615Z</time></trkpt><trkpt lat="43.5977517" lon="12.936115"><ele>180.0</ele><time>2026-04-22T13:43:32.614Z</time></trkpt><trkpt lat="43.5977583" lon="12.9362617"><ele>180.0</ele><time>2026-04-22T13:43:33.614Z</time></trkpt><trkpt lat="43.5977433" lon="12.9364183"><ele>179.4</ele><time>2026-04-22T13:43:34.614Z</time></trkpt><trkpt lat="43.5977133" lon="12.9365667"><ele>178.8</ele><time>2026-04-22T13:43:35.614Z</time></trkpt><trkpt lat="43.5976867" lon="12.9367167"><ele>178.2</ele><time>2026-04-22T13:43:36.614Z</time></trkpt><trkpt lat="43.5976517" lon="12.9368633"><ele>177.6</ele><time>2026-04-22T13:43:37.614Z</time></trkpt><trkpt lat="43.5976217" lon="12.9369867"><ele>177.0</ele><time>2026-04-22T13:43:38.614Z</time></trkpt><trkpt lat="43.59758" lon="12.937095"><ele>176.66666666666666</ele><time>2026-04-22T13:43:39.614Z</time></trkpt><trkpt lat="43.5975333" lon="12.9371767"><ele>176.33333333333334</ele><time>2026-04-22T13:43:40.614Z</time></trkpt><trkpt lat="43.5974733" lon="12.9372467"><ele>176.0</ele><time>2026-04-22T13:43:41.614Z</time></trkpt><trkpt lat="43.5974183" lon="12.93731"><ele>175.66666666666669</ele><time>2026-04-22T13:43:42.615Z</time></trkpt><trkpt lat="43.5973783" lon="12.93738"><ele>175.33333333333334</ele><time>2026-04-22T13:43:43.614Z</time></trkpt><trkpt lat="43.5973617" lon="12.9374667"><ele>175.0</ele><time>2026-04-22T13:43:44.614Z</time></trkpt><trkpt lat="43.5974067" lon="12.9376167"><ele>175.0</ele><time>2026-04-22T13:43:46.614Z</time></trkpt><trkpt lat="43.5974567" lon="12.9376783"><ele>175.0</ele><time>2026-04-22T13:43:47.614Z</time></trkpt><trkpt lat="43.5975267" lon="12.9377067"><ele>175.0</ele><time>2026-04-22T13:43:48.614Z</time></trkpt><trkpt lat="43.5975967" lon="12.9377067"><ele>175.0</ele><time>2026-04-22T13:43:49.614Z</time></trkpt><trkpt lat="43.5976717" lon="12.9376667"><ele>175.0</ele><time>2026-04-22T13:43:50.614Z</time></trkpt><trkpt lat="43.59775" lon="12.9376033"><ele>175.0</ele><time>2026-04-22T13:43:51.615Z</time></trkpt><trkpt lat="43.5978333" lon="12.93754"><ele>175.16666666666669</ele><time>2026-04-22T13:43:52.614Z</time></trkpt><trkpt lat="43.5979267" lon="12.9374983"><ele>175.33333333333334</ele><time>2026-04-22T13:43:53.614Z</time></trkpt><trkpt lat="43.5980133" lon="12.937495"><ele>175.5</ele><time>2026-04-22T13:43:54.614Z</time></trkpt><trkpt lat="43.5980833" lon="12.937525"><ele>175.66666666666666</ele><time>2026-04-22T13:43:55.614Z</time></trkpt><trkpt lat="43.598145" lon="12.93759"><ele>175.83333333333331</ele><time>2026-04-22T13:43:56.614Z</time></trkpt><trkpt lat="43.5982017" lon="12.9376817"><ele>176.0</ele><time>2026-04-22T13:43:57.614Z</time></trkpt><trkpt lat="43.5982483" lon="12.9377933"><ele>176.0</ele><time>2026-04-22T13:43:58.615Z</time></trkpt><trkpt lat="43.59829" lon="12.93793"><ele>176.0</ele><time>2026-04-22T13:43:59.614Z</time></trkpt><trkpt lat="43.59834" lon="12.938075"><ele>176.0</ele><time>2026-04-22T13:44:00.614Z</time></trkpt><trkpt lat="43.5983967" lon="12.9382283"><ele>176.0</ele><time>2026-04-22T13:44:01.615Z</time></trkpt><trkpt lat="43.598455" lon="12.9383767"><ele>176.25</ele><time>2026-04-22T13:44:02.614Z</time></trkpt><trkpt lat="43.59852" lon="12.93852"><ele>176.5</ele><time>2026-04-22T13:44:03.614Z</time></trkpt><trkpt lat="43.5985867" lon="12.9386667"><ele>176.75</ele><time>2026-04-22T13:44:04.614Z</time></trkpt><trkpt lat="43.5986667" lon="12.9388083"><ele>177.0</ele><time>2026-04-22T13:44:05.614Z</time></trkpt><trkpt lat="43.5987533" lon="12.938945"><ele>177.0</ele><time>2026-04-22T13:44:06.614Z</time></trkpt><trkpt lat="43.5988383" lon="12.9390817"><ele>177.0</ele><time>2026-04-22T13:44:07.614Z</time></trkpt><trkpt lat="43.59893" lon="12.93922"><ele>177.0</ele><time>2026-04-22T13:44:08.614Z</time></trkpt><trkpt lat="43.5990183" lon="12.9393633"><ele>177.0</ele><time>2026-04-22T13:44:09.614Z</time></trkpt><trkpt lat="43.5991133" lon="12.9395017"><ele>176.5</ele><time>2026-04-22T13:44:10.614Z</time></trkpt><trkpt lat="43.5992033" lon="12.9396433"><ele>176.0</ele><time>2026-04-22T13:44:11.614Z</time></trkpt><trkpt lat="43.59929" lon="12.9397933"><ele>175.5</ele><time>2026-04-22T13:44:12.614Z</time></trkpt><trkpt lat="43.5993667" lon="12.9399567"><ele>175.0</ele><time>2026-04-22T13:44:13.614Z</time></trkpt><trkpt lat="43.599445" lon="12.9401217"><ele>175.0</ele><time>2026-04-22T13:44:14.614Z</time></trkpt><trkpt lat="43.5995233" lon="12.94029"><ele>175.0</ele><time>2026-04-22T13:44:15.614Z</time></trkpt><trkpt lat="43.5996017" lon="12.9404583"><ele>175.0</ele><time>2026-04-22T13:44:16.614Z</time></trkpt><trkpt lat="43.5996767" lon="12.94063"><ele>175.0</ele><time>2026-04-22T13:44:17.614Z</time></trkpt><trkpt lat="43.5997433" lon="12.9408067"><ele>174.5</ele><time>2026-04-22T13:44:18.615Z</time></trkpt><trkpt lat="43.5998167" lon="12.940975"><ele>174.0</ele><time>2026-04-22T13:44:19.614Z</time></trkpt><trkpt lat="43.5998833" lon="12.94115"><ele>173.5</ele><time>2026-04-22T13:44:20.614Z</time></trkpt><trkpt lat="43.5999583" lon="12.941325"><ele>173.0</ele><time>2026-04-22T13:44:21.614Z</time></trkpt><trkpt lat="43.600025" lon="12.941505"><ele>173.0</ele><time>2026-04-22T13:44:22.615Z</time></trkpt><trkpt lat="43.600095" lon="12.9416817"><ele>173.0</ele><time>2026-04-22T13:44:23.614Z</time></trkpt><trkpt lat="43.6001583" lon="12.9418583"><ele>173.0</ele><time>2026-04-22T13:44:24.615Z</time></trkpt><trkpt lat="43.6002233" lon="12.9420167"><ele>173.0</ele><time>2026-04-22T13:44:25.614Z</time></trkpt><trkpt lat="43.60029" lon="12.942175"><ele>173.0</ele><time>2026-04-22T13:44:26.614Z</time></trkpt><trkpt lat="43.600355" lon="12.9423317"><ele>173.0</ele><time>2026-04-22T13:44:27.614Z</time></trkpt><trkpt lat="43.6004233" lon="12.9424883"><ele>173.0</ele><time>2026-04-22T13:44:28.614Z</time></trkpt><trkpt lat="43.6004867" lon="12.9426483"><ele>173.0</ele><time>2026-04-22T13:44:29.615Z</time></trkpt><trkpt lat="43.6005483" lon="12.942805"><ele>173.0</ele><time>2026-04-22T13:44:30.615Z</time></trkpt><trkpt lat="43.6006067" lon="12.9429667"><ele>173.0</ele><time>2026-04-22T13:44:31.614Z</time></trkpt><trkpt lat="43.6006683" lon="12.94312"><ele>173.0</ele><time>2026-04-22T13:44:32.614Z</time></trkpt><trkpt lat="43.6007333" lon="12.9432783"><ele>173.0</ele><time>2026-04-22T13:44:33.614Z</time></trkpt><trkpt lat="43.6007967" lon="12.9434333"><ele>172.25</ele><time>2026-04-22T13:44:34.614Z</time></trkpt><trkpt lat="43.6008533" lon="12.9435933"><ele>171.5</ele><time>2026-04-22T13:44:35.614Z</time></trkpt><trkpt lat="43.60091" lon="12.9437617"><ele>170.75</ele><time>2026-04-22T13:44:36.614Z</time></trkpt><trkpt lat="43.6009667" lon="12.943925"><ele>170.0</ele><time>2026-04-22T13:44:37.614Z</time></trkpt><trkpt lat="43.6010217" lon="12.9440883"><ele>169.5</ele><time>2026-04-22T13:44:38.614Z</time></trkpt><trkpt lat="43.60108" lon="12.9442467"><ele>169.0</ele><time>2026-04-22T13:44:39.614Z</time></trkpt><trkpt lat="43.60113" lon="12.9444"><ele>168.5</ele><time>2026-04-22T13:44:40.614Z</time></trkpt><trkpt lat="43.6011817" lon="12.944545"><ele>168.0</ele><time>2026-04-22T13:44:41.614Z</time></trkpt><trkpt lat="43.6012367" lon="12.9446833"><ele>168.4</ele><time>2026-04-22T13:44:42.614Z</time></trkpt><trkpt lat="43.6013" lon="12.94481"><ele>168.8</ele><time>2026-04-22T13:44:43.614Z</time></trkpt><trkpt lat="43.6013717" lon="12.9449217"><ele>169.2</ele><time>2026-04-22T13:44:44.614Z</time></trkpt><trkpt lat="43.6014567" lon="12.9450333"><ele>169.6</ele><time>2026-04-22T13:44:45.614Z</time></trkpt><trkpt lat="43.6015383" lon="12.9451367"><ele>170.0</ele><time>2026-04-22T13:44:46.614Z</time></trkpt><trkpt lat="43.6016383" lon="12.9452283"><ele>170.0</ele><time>2026-04-22T13:44:47.614Z</time></trkpt><trkpt lat="43.6017267" lon="12.9453317"><ele>170.0</ele><time>2026-04-22T13:44:48.614Z</time></trkpt><trkpt lat="43.6018267" lon="12.9454367"><ele>170.0</ele><time>2026-04-22T13:44:49.614Z</time></trkpt><trkpt lat="43.60193" lon="12.9455233"><ele>170.0</ele><time>2026-04-22T13:44:50.614Z</time></trkpt><trkpt lat="43.60203" lon="12.945605"><ele>171.0</ele><time>2026-04-22T13:44:51.614Z</time></trkpt><trkpt lat="43.602145" lon="12.94567"><ele>172.0</ele><time>2026-04-22T13:44:52.615Z</time></trkpt><trkpt lat="43.6022633" lon="12.9457217"><ele>173.0</ele><time>2026-04-22T13:44:53.614Z</time></trkpt><trkpt lat="43.6023833" lon="12.94577"><ele>174.0</ele><time>2026-04-22T13:44:54.614Z</time></trkpt><trkpt lat="43.60249" lon="12.9458217"><ele>173.75</ele><time>2026-04-22T13:44:55.615Z</time></trkpt><trkpt lat="43.6025967" lon="12.9458817"><ele>173.5</ele><time>2026-04-22T13:44:56.614Z</time></trkpt><trkpt lat="43.602705" lon="12.945935"><ele>173.25</ele><time>2026-04-22T13:44:57.614Z</time></trkpt><trkpt lat="43.6028283" lon="12.94599"><ele>173.0</ele><time>2026-04-22T13:44:58.614Z</time></trkpt><trkpt lat="43.60294" lon="12.9460483"><ele>173.0</ele><time>2026-04-22T13:44:59.614Z</time></trkpt><trkpt lat="43.603045" lon="12.9461017"><ele>173.0</ele><time>2026-04-22T13:45:00.614Z</time></trkpt><trkpt lat="43.6031467" lon="12.9461567"><ele>173.0</ele><time>2026-04-22T13:45:01.614Z</time></trkpt><trkpt lat="43.6032483" lon="12.9462083"><ele>173.0</ele><time>2026-04-22T13:45:02.615Z</time></trkpt><trkpt lat="43.6033417" lon="12.94625"><ele>173.0</ele><time>2026-04-22T13:45:03.614Z</time></trkpt><trkpt lat="43.6034383" lon="12.946285"><ele>173.0</ele><time>2026-04-22T13:45:04.614Z</time></trkpt><trkpt lat="43.6035333" lon="12.9463217"><ele>173.0</ele><time>2026-04-22T13:45:05.614Z</time></trkpt><trkpt lat="43.60362" lon="12.9463667"><ele>173.0</ele><time>2026-04-22T13:45:06.614Z</time></trkpt><trkpt lat="43.6037067" lon="12.9464117"><ele>173.0</ele><time>2026-04-22T13:45:07.614Z</time></trkpt><trkpt lat="43.60379" lon="12.9464633"><ele>173.0</ele><time>2026-04-22T13:45:08.614Z</time></trkpt><trkpt lat="43.6038783" lon="12.946505"><ele>172.83333333333331</ele><time>2026-04-22T13:45:09.614Z</time></trkpt><trkpt lat="43.6039683" lon="12.94655"><ele>172.66666666666666</ele><time>2026-04-22T13:45:10.614Z</time></trkpt><trkpt lat="43.604055" lon="12.9465933"><ele>172.5</ele><time>2026-04-22T13:45:11.614Z</time></trkpt><trkpt lat="43.6041383" lon="12.946635"><ele>172.33333333333334</ele><time>2026-04-22T13:45:12.614Z</time></trkpt><trkpt lat="43.6042183" lon="12.9466833"><ele>172.16666666666669</ele><time>2026-04-22T13:45:13.614Z</time></trkpt><trkpt lat="43.6042933" lon="12.9467183"><ele>172.0</ele><time>2026-04-22T13:45:14.614Z</time></trkpt><trkpt lat="43.604365" lon="12.9467583"><ele>172.0</ele><time>2026-04-22T13:45:15.614Z</time></trkpt><trkpt lat="43.604425" lon="12.9468167"><ele>172.0</ele><time>2026-04-22T13:45:16.614Z</time></trkpt><trkpt lat="43.604485" lon="12.9468817"><ele>172.0</ele><time>2026-04-22T13:45:17.614Z</time></trkpt><trkpt lat="43.604545" lon="12.9469517"><ele>172.0</ele><time>2026-04-22T13:45:18.614Z</time></trkpt><trkpt lat="43.6046083" lon="12.94702"><ele>172.0</ele><time>2026-04-22T13:45:19.614Z</time></trkpt><trkpt lat="43.6046717" lon="12.9470867"><ele>172.0</ele><time>2026-04-22T13:45:20.614Z</time></trkpt><trkpt lat="43.6047367" lon="12.9471483"><ele>172.0</ele><time>2026-04-22T13:45:21.614Z</time></trkpt><trkpt lat="43.6048117" lon="12.947205"><ele>172.0</ele><time>2026-04-22T13:45:22.614Z</time></trkpt><trkpt lat="43.6048883" lon="12.9472617"><ele>172.0</ele><time>2026-04-22T13:45:23.614Z</time></trkpt><trkpt lat="43.6049683" lon="12.9473233"><ele>172.0</ele><time>2026-04-22T13:45:24.614Z</time></trkpt><trkpt lat="43.60505" lon="12.9473833"><ele>172.0</ele><time>2026-04-22T13:45:25.614Z</time></trkpt><trkpt lat="43.605125" lon="12.947455"><ele>172.0</ele><time>2026-04-22T13:45:26.614Z</time></trkpt><trkpt lat="43.6051983" lon="12.9475467"><ele>172.0</ele><time>2026-04-22T13:45:27.614Z</time></trkpt><trkpt lat="43.6052617" lon="12.9476583"><ele>172.0</ele><time>2026-04-22T13:45:28.614Z</time></trkpt><trkpt lat="43.6053267" lon="12.947785"><ele>172.0</ele><time>2026-04-22T13:45:29.614Z</time></trkpt><trkpt lat="43.6053867" lon="12.9479233"><ele>172.0</ele><time>2026-04-22T13:45:30.614Z</time></trkpt><trkpt lat="43.6054433" lon="12.94806"><ele>172.0</ele><time>2026-04-22T13:45:31.614Z</time></trkpt><trkpt lat="43.60549" lon="12.948195"><ele>172.0</ele><time>2026-04-22T13:45:32.615Z</time></trkpt><trkpt lat="43.60553" lon="12.9483467"><ele>172.0</ele><time>2026-04-22T13:45:33.615Z</time></trkpt><trkpt lat="43.6055667" lon="12.94851"><ele>172.0</ele><time>2026-04-22T13:45:34.614Z</time></trkpt><trkpt lat="43.6056" lon="12.94868"><ele>172.0</ele><time>2026-04-22T13:45:35.614Z</time></trkpt><trkpt lat="43.60563" lon="12.948855"><ele>171.0</ele><time>2026-04-22T13:45:36.614Z</time></trkpt><trkpt lat="43.60566" lon="12.94903"><ele>170.0</ele><time>2026-04-22T13:45:37.614Z</time></trkpt><trkpt lat="43.60569" lon="12.9492083"><ele>169.0</ele><time>2026-04-22T13:45:38.614Z</time></trkpt><trkpt lat="43.605715" lon="12.9493833"><ele>168.0</ele><time>2026-04-22T13:45:39.614Z</time></trkpt><trkpt lat="43.6057467" lon="12.94956"><ele>167.5</ele><time>2026-04-22T13:45:40.614Z</time></trkpt><trkpt lat="43.6057833" lon="12.9497417"><ele>167.0</ele><time>2026-04-22T13:45:41.614Z</time></trkpt><trkpt lat="43.605835" lon="12.9499217"><ele>166.5</ele><time>2026-04-22T13:45:42.614Z</time></trkpt><trkpt lat="43.60589" lon="12.9501017"><ele>166.0</ele><time>2026-04-22T13:45:43.614Z</time></trkpt><trkpt lat="43.6059483" lon="12.9502817"><ele>165.75</ele><time>2026-04-22T13:45:44.614Z</time></trkpt><trkpt lat="43.6060117" lon="12.9504517"><ele>165.5</ele><time>2026-04-22T13:45:45.614Z</time></trkpt><trkpt lat="43.6060717" lon="12.9506217"><ele>165.25</ele><time>2026-04-22T13:45:46.614Z</time></trkpt><trkpt lat="43.6061483" lon="12.9507883"><ele>165.0</ele><time>2026-04-22T13:45:47.614Z</time></trkpt><trkpt lat="43.6062317" lon="12.950945"><ele>164.5</ele><time>2026-04-22T13:45:48.614Z</time></trkpt><trkpt lat="43.6063233" lon="12.9510917"><ele>164.0</ele><time>2026-04-22T13:45:49.614Z</time></trkpt><trkpt lat="43.6064167" lon="12.95123"><ele>163.5</ele><time>2026-04-22T13:45:50.614Z</time></trkpt><trkpt lat="43.606515" lon="12.9513517"><ele>163.0</ele><time>2026-04-22T13:45:51.614Z</time></trkpt><trkpt lat="43.6066133" lon="12.95146"><ele>163.0</ele><time>2026-04-22T13:45:52.614Z</time></trkpt><trkpt lat="43.6067133" lon="12.9515433"><ele>163.0</ele><time>2026-04-22T13:45:53.614Z</time></trkpt><trkpt lat="43.606805" lon="12.9516183"><ele>163.0</ele><time>2026-04-22T13:45:54.614Z</time></trkpt><trkpt lat="43.606875" lon="12.9516883"><ele>163.0</ele><time>2026-04-22T13:45:55.615Z</time></trkpt><trkpt lat="43.60694" lon="12.95177"><ele>163.0</ele><time>2026-04-22T13:45:56.614Z</time></trkpt><trkpt lat="43.607" lon="12.9518533"><ele>163.16666666666669</ele><time>2026-04-22T13:45:57.614Z</time></trkpt><trkpt lat="43.60706" lon="12.9519133"><ele>163.33333333333334</ele><time>2026-04-22T13:45:58.615Z</time></trkpt><trkpt lat="43.6071283" lon="12.9519417"><ele>163.5</ele><time>2026-04-22T13:45:59.615Z</time></trkpt><trkpt lat="43.607205" lon="12.9519333"><ele>163.66666666666666</ele><time>2026-04-22T13:46:00.615Z</time></trkpt><trkpt lat="43.6072917" lon="12.9519083"><ele>163.83333333333331</ele><time>2026-04-22T13:46:01.614Z</time></trkpt><trkpt lat="43.6073867" lon="12.9518883"><ele>164.0</ele><time>2026-04-22T13:46:02.614Z</time></trkpt><trkpt lat="43.607495" lon="12.9518867"><ele>164.0</ele><time>2026-04-22T13:46:03.614Z</time></trkpt><trkpt lat="43.6076183" lon="12.9518983"><ele>164.0</ele><time>2026-04-22T13:46:04.614Z</time></trkpt><trkpt lat="43.6077533" lon="12.9519083"><ele>164.0</ele><time>2026-04-22T13:46:05.614Z</time></trkpt><trkpt lat="43.607885" lon="12.9519217"><ele>164.0</ele><time>2026-04-22T13:46:06.614Z</time></trkpt><trkpt lat="43.60801" lon="12.9519433"><ele>164.25</ele><time>2026-04-22T13:46:07.614Z</time></trkpt><trkpt lat="43.6081483" lon="12.9519733"><ele>164.5</ele><time>2026-04-22T13:46:08.614Z</time></trkpt><trkpt lat="43.6082933" lon="12.9520133"><ele>164.75</ele><time>2026-04-22T13:46:09.614Z</time></trkpt><trkpt lat="43.608435" lon="12.9520617"><ele>165.0</ele><time>2026-04-22T13:46:10.615Z</time></trkpt><trkpt lat="43.60859" lon="12.9521167"><ele>165.33333333333334</ele><time>2026-04-22T13:46:11.614Z</time></trkpt><trkpt lat="43.60875" lon="12.9521933"><ele>165.66666666666669</ele><time>2026-04-22T13:46:12.614Z</time></trkpt><trkpt lat="43.6089033" lon="12.95228"><ele>166.0</ele><time>2026-04-22T13:46:13.614Z</time></trkpt><trkpt lat="43.6090567" lon="12.9523667"><ele>166.0</ele><time>2026-04-22T13:46:14.614Z</time></trkpt><trkpt lat="43.6092067" lon="12.9524667"><ele>166.0</ele><time>2026-04-22T13:46:15.614Z</time></trkpt><trkpt lat="43.6093567" lon="12.9525733"><ele>166.0</ele><time>2026-04-22T13:46:16.614Z</time></trkpt><trkpt lat="43.6095017" lon="12.95269"><ele>165.0</ele><time>2026-04-22T13:46:17.615Z</time></trkpt><trkpt lat="43.60965" lon="12.9528017"><ele>164.0</ele><time>2026-04-22T13:46:18.614Z</time></trkpt><trkpt lat="43.6098017" lon="12.9529133"><ele>163.0</ele><time>2026-04-22T13:46:19.615Z</time></trkpt><trkpt lat="43.6099483" lon="12.953025"><ele>163.0</ele><time>2026-04-22T13:46:20.614Z</time></trkpt><trkpt lat="43.6100833" lon="12.9531417"><ele>163.0</ele><time>2026-04-22T13:46:21.614Z</time></trkpt><trkpt lat="43.6102117" lon="12.9532583"><ele>163.0</ele><time>2026-04-22T13:46:22.614Z</time></trkpt><trkpt lat="43.6103283" lon="12.953365"><ele>162.5</ele><time>2026-04-22T13:46:23.615Z</time></trkpt><trkpt lat="43.6104483" lon="12.9534667"><ele>162.0</ele><time>2026-04-22T13:46:24.614Z</time></trkpt><trkpt lat="43.610555" lon="12.9535633"><ele>161.5</ele><time>2026-04-22T13:46:25.614Z</time></trkpt><trkpt lat="43.6106467" lon="12.953655"><ele>161.0</ele><time>2026-04-22T13:46:26.614Z</time></trkpt><trkpt lat="43.6107267" lon="12.9537433"><ele>161.0</ele><time>2026-04-22T13:46:27.615Z</time></trkpt><trkpt lat="43.6107883" lon="12.953835"><ele>161.0</ele><time>2026-04-22T13:46:28.614Z</time></trkpt><trkpt lat="43.6108383" lon="12.953945"><ele>161.0</ele><time>2026-04-22T13:46:29.614Z</time></trkpt><trkpt lat="43.610855" lon="12.954065"><ele>161.0</ele><time>2026-04-22T13:46:30.615Z</time></trkpt><trkpt lat="43.6108617" lon="12.954185"><ele>161.0</ele><time>2026-04-22T13:46:31.614Z</time></trkpt><trkpt lat="43.61085" lon="12.9543033"><ele>161.0</ele><time>2026-04-22T13:46:32.615Z</time></trkpt><trkpt lat="43.6108267" lon="12.9544133"><ele>161.0</ele><time>2026-04-22T13:46:33.614Z</time></trkpt><trkpt lat="43.6107883" lon="12.95452"><ele>161.0</ele><time>2026-04-22T13:46:34.614Z</time></trkpt><trkpt lat="43.6107833" lon="12.95463"><ele>161.0</ele><time>2026-04-22T13:46:35.614Z</time></trkpt><trkpt lat="43.6108017" lon="12.954735"><ele>161.0</ele><time>2026-04-22T13:46:36.614Z</time></trkpt><trkpt lat="43.6108383" lon="12.95482"><ele>161.0</ele><time>2026-04-22T13:46:37.614Z</time></trkpt><trkpt lat="43.6109133" lon="12.95487"><ele>161.0</ele><time>2026-04-22T13:46:38.614Z</time></trkpt><trkpt lat="43.61099" lon="12.9548683"><ele>161.0</ele><time>2026-04-22T13:46:39.614Z</time></trkpt><trkpt lat="43.6110683" lon="12.9548183"><ele>161.0</ele><time>2026-04-22T13:46:40.614Z</time></trkpt><trkpt lat="43.6111483" lon="12.954745"><ele>161.0</ele><time>2026-04-22T13:46:41.614Z</time></trkpt><trkpt lat="43.611235" lon="12.9546867"><ele>161.0</ele><time>2026-04-22T13:46:42.614Z</time></trkpt><trkpt lat="43.611335" lon="12.954655"><ele>161.0</ele><time>2026-04-22T13:46:43.614Z</time></trkpt><trkpt lat="43.6114483" lon="12.9546667"><ele>161.75</ele><time>2026-04-22T13:46:44.614Z</time></trkpt><trkpt lat="43.611565" lon="12.9547117"><ele>162.5</ele><time>2026-04-22T13:46:45.614Z</time></trkpt><trkpt lat="43.611675" lon="12.9547833"><ele>163.25</ele><time>2026-04-22T13:46:46.614Z</time></trkpt><trkpt lat="43.6117767" lon="12.95487"><ele>164.0</ele><time>2026-04-22T13:46:47.614Z</time></trkpt><trkpt lat="43.6118883" lon="12.954955"><ele>163.75</ele><time>2026-04-22T13:46:48.614Z</time></trkpt><trkpt lat="43.61201" lon="12.95504"><ele>163.5</ele><time>2026-04-22T13:46:49.614Z</time></trkpt><trkpt lat="43.6121433" lon="12.9551317"><ele>163.25</ele><time>2026-04-22T13:46:50.614Z</time></trkpt><trkpt lat="43.612275" lon="12.9552267"><ele>163.0</ele><time>2026-04-22T13:46:51.614Z</time></trkpt><trkpt lat="43.6123967" lon="12.9553317"><ele>163.0</ele><time>2026-04-22T13:46:52.614Z</time></trkpt><trkpt lat="43.6125167" lon="12.95542"><ele>163.0</ele><time>2026-04-22T13:46:53.614Z</time></trkpt><trkpt lat="43.6126283" lon="12.9555333"><ele>163.0</ele><time>2026-04-22T13:46:54.614Z</time></trkpt><trkpt lat="43.6127467" lon="12.9556567"><ele>163.0</ele><time>2026-04-22T13:46:55.614Z</time></trkpt><trkpt lat="43.6128517" lon="12.9557983"><ele>163.0</ele><time>2026-04-22T13:46:56.614Z</time></trkpt><trkpt lat="43.6129583" lon="12.9559483"><ele>163.0</ele><time>2026-04-22T13:46:57.614Z</time></trkpt><trkpt lat="43.6130583" lon="12.9561"><ele>163.0</ele><time>2026-04-22T13:46:58.614Z</time></trkpt><trkpt lat="43.6131667" lon="12.9562467"><ele>163.0</ele><time>2026-04-22T13:46:59.614Z</time></trkpt><trkpt lat="43.61328" lon="12.9564"><ele>163.0</ele><time>2026-04-22T13:47:00.614Z</time></trkpt><trkpt lat="43.6133867" lon="12.95655"><ele>163.0</ele><time>2026-04-22T13:47:01.614Z</time></trkpt><trkpt lat="43.6135" lon="12.9567"><ele>162.33333333333334</ele><time>2026-04-22T13:47:02.614Z</time></trkpt><trkpt lat="43.6136033" lon="12.956845"><ele>161.66666666666666</ele><time>2026-04-22T13:47:03.614Z</time></trkpt><trkpt lat="43.6137183" lon="12.95699"><ele>161.0</ele><time>2026-04-22T13:47:04.614Z</time></trkpt><trkpt lat="43.61383" lon="12.957135"><ele>161.0</ele><time>2026-04-22T13:47:05.614Z</time></trkpt><trkpt lat="43.6139517" lon="12.9572633"><ele>161.0</ele><time>2026-04-22T13:47:06.614Z</time></trkpt><trkpt lat="43.6140783" lon="12.957395"><ele>161.0</ele><time>2026-04-22T13:47:07.615Z</time></trkpt><trkpt lat="43.6141983" lon="12.95752"><ele>160.33333333333331</ele><time>2026-04-22T13:47:08.614Z</time></trkpt><trkpt lat="43.6143183" lon="12.95765"><ele>159.66666666666666</ele><time>2026-04-22T13:47:09.615Z</time></trkpt><trkpt lat="43.614445" lon="12.957765"><ele>159.0</ele><time>2026-04-22T13:47:10.614Z</time></trkpt><trkpt lat="43.614565" lon="12.9578933"><ele>158.33333333333334</ele><time>2026-04-22T13:47:11.614Z</time></trkpt><trkpt lat="43.61469" lon="12.9580167"><ele>157.66666666666669</ele><time>2026-04-22T13:47:12.614Z</time></trkpt><trkpt lat="43.61482" lon="12.958135"><ele>157.0</ele><time>2026-04-22T13:47:13.614Z</time></trkpt><trkpt lat="43.6149417" lon="12.9582517"><ele>157.0</ele><time>2026-04-22T13:47:14.614Z</time></trkpt><trkpt lat="43.6150733" lon="12.9583633"><ele>157.0</ele><time>2026-04-22T13:47:15.614Z</time></trkpt><trkpt lat="43.6151983" lon="12.958475"><ele>157.0</ele><time>2026-04-22T13:47:16.614Z</time></trkpt><trkpt lat="43.61533" lon="12.9585833"><ele>156.5</ele><time>2026-04-22T13:47:17.614Z</time></trkpt><trkpt lat="43.6154483" lon="12.95869"><ele>156.0</ele><time>2026-04-22T13:47:18.614Z</time></trkpt><trkpt lat="43.6155717" lon="12.9587983"><ele>155.5</ele><time>2026-04-22T13:47:19.615Z</time></trkpt><trkpt lat="43.6156917" lon="12.9589067"><ele>155.0</ele><time>2026-04-22T13:47:20.615Z</time></trkpt><trkpt lat="43.61581" lon="12.959015"><ele>155.0</ele><time>2026-04-22T13:47:21.614Z</time></trkpt><trkpt lat="43.615915" lon="12.9591217"><ele>155.0</ele><time>2026-04-22T13:47:22.614Z</time></trkpt><trkpt lat="43.6160167" lon="12.9592367"><ele>155.0</ele><time>2026-04-22T13:47:23.615Z</time></trkpt><trkpt lat="43.6161317" lon="12.95934"><ele>155.0</ele><time>2026-04-22T13:47:24.614Z</time></trkpt><trkpt lat="43.616245" lon="12.9594467"><ele>154.25</ele><time>2026-04-22T13:47:25.614Z</time></trkpt><trkpt lat="43.6163533" lon="12.9595483"><ele>153.5</ele><time>2026-04-22T13:47:26.614Z</time></trkpt><trkpt lat="43.61646" lon="12.9596617"><ele>152.75</ele><time>2026-04-22T13:47:27.615Z</time></trkpt><trkpt lat="43.6165733" lon="12.9597833"><ele>152.0</ele><time>2026-04-22T13:47:28.614Z</time></trkpt><trkpt lat="43.61668" lon="12.9599083"><ele>152.33333333333331</ele><time>2026-04-22T13:47:29.614Z</time></trkpt><trkpt lat="43.61678" lon="12.9600467"><ele>152.66666666666666</ele><time>2026-04-22T13:47:30.614Z</time></trkpt><trkpt lat="43.6168883" lon="12.9601967"><ele>153.0</ele><time>2026-04-22T13:47:31.614Z</time></trkpt><trkpt lat="43.6169967" lon="12.9603567"><ele>152.33333333333334</ele><time>2026-04-22T13:47:32.615Z</time></trkpt><trkpt lat="43.6171067" lon="12.960525"><ele>151.66666666666669</ele><time>2026-04-22T13:47:33.614Z</time></trkpt><trkpt lat="43.6172167" lon="12.9606967"><ele>151.0</ele><time>2026-04-22T13:47:34.614Z</time></trkpt><trkpt lat="43.6173333" lon="12.9608733"><ele>150.66666666666669</ele><time>2026-04-22T13:47:35.614Z</time></trkpt><trkpt lat="43.6174533" lon="12.96105"><ele>150.33333333333334</ele><time>2026-04-22T13:47:36.614Z</time></trkpt><trkpt lat="43.6175633" lon="12.9612183"><ele>150.0</ele><time>2026-04-22T13:47:37.615Z</time></trkpt><trkpt lat="43.61767" lon="12.96138"><ele>150.0</ele><time>2026-04-22T13:47:38.614Z</time></trkpt><trkpt lat="43.61777" lon="12.96153"><ele>150.0</ele><time>2026-04-22T13:47:39.614Z</time></trkpt><trkpt lat="43.6178633" lon="12.9616683"><ele>150.0</ele><time>2026-04-22T13:47:40.614Z</time></trkpt><trkpt lat="43.61795" lon="12.9618017"><ele>150.0</ele><time>2026-04-22T13:47:41.614Z</time></trkpt><trkpt lat="43.6180283" lon="12.9619283"><ele>150.2</ele><time>2026-04-22T13:47:42.614Z</time></trkpt><trkpt lat="43.6181067" lon="12.9620467"><ele>150.4</ele><time>2026-04-22T13:47:43.614Z</time></trkpt><trkpt lat="43.6181817" lon="12.9621617"><ele>150.6</ele><time>2026-04-22T13:47:44.614Z</time></trkpt><trkpt lat="43.61825" lon="12.96227"><ele>150.8</ele><time>2026-04-22T13:47:45.614Z</time></trkpt><trkpt lat="43.6183117" lon="12.962375"><ele>151.0</ele><time>2026-04-22T13:47:46.615Z</time></trkpt><trkpt lat="43.61836" lon="12.9624683"><ele>151.0</ele><time>2026-04-22T13:47:47.615Z</time></trkpt><trkpt lat="43.6183917" lon="12.962545"><ele>151.0</ele><time>2026-04-22T13:47:48.614Z</time></trkpt><trkpt lat="43.6184333" lon="12.9626483"><ele>151.0</ele><time>2026-04-22T13:47:50.614Z</time></trkpt><trkpt lat="43.6184533" lon="12.96276"><ele>151.0</ele><time>2026-04-22T13:47:53.614Z</time></trkpt><trkpt lat="43.6184467" lon="12.962905"><ele>151.0</ele><time>2026-04-22T13:47:55.615Z</time></trkpt><trkpt lat="43.6184333" lon="12.962995"><ele>151.0</ele><time>2026-04-22T13:47:56.614Z</time></trkpt><trkpt lat="43.6184083" lon="12.9631067"><ele>151.0</ele><time>2026-04-22T13:47:57.615Z</time></trkpt><trkpt lat="43.618365" lon="12.9632233"><ele>151.0</ele><time>2026-04-22T13:47:58.614Z</time></trkpt><trkpt lat="43.6183117" lon="12.9633317"><ele>151.0</ele><time>2026-04-22T13:47:59.614Z</time></trkpt><trkpt lat="43.618255" lon="12.9634367"><ele>151.0</ele><time>2026-04-22T13:48:00.615Z</time></trkpt><trkpt lat="43.6181917" lon="12.9635517"><ele>151.0</ele><time>2026-04-22T13:48:01.614Z</time></trkpt><trkpt lat="43.6181217" lon="12.9636633"><ele>151.0</ele><time>2026-04-22T13:48:02.615Z</time></trkpt><trkpt lat="43.6180583" lon="12.96378"><ele>151.0</ele><time>2026-04-22T13:48:03.614Z</time></trkpt><trkpt lat="43.6179933" lon="12.9639183"><ele>151.0</ele><time>2026-04-22T13:48:04.614Z</time></trkpt><trkpt lat="43.6179117" lon="12.9640767"><ele>151.0</ele><time>2026-04-22T13:48:05.615Z</time></trkpt><trkpt lat="43.61782" lon="12.9642467"><ele>150.33333333333334</ele><time>2026-04-22T13:48:06.614Z</time></trkpt><trkpt lat="43.6177133" lon="12.964415"><ele>149.66666666666666</ele><time>2026-04-22T13:48:07.614Z</time></trkpt><trkpt lat="43.6175933" lon="12.9646067"><ele>149.0</ele><time>2026-04-22T13:48:08.614Z</time></trkpt><trkpt lat="43.6174683" lon="12.9648133"><ele>149.0</ele><time>2026-04-22T13:48:09.614Z</time></trkpt><trkpt lat="43.6173433" lon="12.9650217"><ele>149.0</ele><time>2026-04-22T13:48:10.614Z</time></trkpt><trkpt lat="43.6172167" lon="12.9652467"><ele>149.0</ele><time>2026-04-22T13:48:11.614Z</time></trkpt><trkpt lat="43.6170883" lon="12.9654783"><ele>149.33333333333331</ele><time>2026-04-22T13:48:12.615Z</time></trkpt><trkpt lat="43.6169567" lon="12.965705"><ele>149.66666666666666</ele><time>2026-04-22T13:48:13.614Z</time></trkpt><trkpt lat="43.616825" lon="12.9659317"><ele>150.0</ele><time>2026-04-22T13:48:14.614Z</time></trkpt><trkpt lat="43.616695" lon="12.9661533"><ele>149.33333333333334</ele><time>2026-04-22T13:48:15.614Z</time></trkpt><trkpt lat="43.616575" lon="12.966365"><ele>148.66666666666669</ele><time>2026-04-22T13:48:16.614Z</time></trkpt><trkpt lat="43.6164567" lon="12.96656"><ele>148.0</ele><time>2026-04-22T13:48:17.614Z</time></trkpt><trkpt lat="43.6163417" lon="12.9667583"><ele>147.0</ele><time>2026-04-22T13:48:18.614Z</time></trkpt><trkpt lat="43.616225" lon="12.9669433"><ele>146.0</ele><time>2026-04-22T13:48:19.614Z</time></trkpt><trkpt lat="43.616115" lon="12.9671233"><ele>145.0</ele><time>2026-04-22T13:48:20.614Z</time></trkpt><trkpt lat="43.61601" lon="12.9673"><ele>144.66666666666669</ele><time>2026-04-22T13:48:21.614Z</time></trkpt><trkpt lat="43.6159017" lon="12.9674717"><ele>144.33333333333334</ele><time>2026-04-22T13:48:22.615Z</time></trkpt><trkpt lat="43.6157833" lon="12.9676367"><ele>144.0</ele><time>2026-04-22T13:48:23.614Z</time></trkpt><trkpt lat="43.61566" lon="12.9677883"><ele>143.0</ele><time>2026-04-22T13:48:24.614Z</time></trkpt><trkpt lat="43.6155333" lon="12.9679217"><ele>142.0</ele><time>2026-04-22T13:48:25.614Z</time></trkpt><trkpt lat="43.6154" lon="12.968045"><ele>141.0</ele><time>2026-04-22T13:48:26.614Z</time></trkpt><trkpt lat="43.6152483" lon="12.9681633"><ele>141.0</ele><time>2026-04-22T13:48:27.615Z</time></trkpt><trkpt lat="43.6150917" lon="12.9682783"><ele>141.0</ele><time>2026-04-22T13:48:28.614Z</time></trkpt><trkpt lat="43.6149317" lon="12.9683867"><ele>141.0</ele><time>2026-04-22T13:48:29.615Z</time></trkpt><trkpt lat="43.614775" lon="12.9685033"><ele>140.66666666666666</ele><time>2026-04-22T13:48:30.614Z</time></trkpt><trkpt lat="43.6146167" lon="12.9686317"><ele>140.33333333333331</ele><time>2026-04-22T13:48:31.614Z</time></trkpt><trkpt lat="43.614465" lon="12.96874"><ele>140.0</ele><time>2026-04-22T13:48:32.614Z</time></trkpt><trkpt lat="43.6143" lon="12.9688583"><ele>140.0</ele><time>2026-04-22T13:48:33.614Z</time></trkpt><trkpt lat="43.6141417" lon="12.96897"><ele>140.0</ele><time>2026-04-22T13:48:34.614Z</time></trkpt><trkpt lat="43.613995" lon="12.969085"><ele>140.0</ele><time>2026-04-22T13:48:35.614Z</time></trkpt><trkpt lat="43.61385" lon="12.9692017"><ele>140.33333333333331</ele><time>2026-04-22T13:48:36.614Z</time></trkpt><trkpt lat="43.6137083" lon="12.969325"><ele>140.66666666666666</ele><time>2026-04-22T13:48:37.615Z</time></trkpt><trkpt lat="43.613565" lon="12.96945"><ele>141.0</ele><time>2026-04-22T13:48:38.615Z</time></trkpt><trkpt lat="43.61342" lon="12.969585"><ele>141.0</ele><time>2026-04-22T13:48:39.614Z</time></trkpt><trkpt lat="43.6132767" lon="12.9697183"><ele>141.0</ele><time>2026-04-22T13:48:40.614Z</time></trkpt><trkpt lat="43.613135" lon="12.96985"><ele>141.0</ele><time>2026-04-22T13:48:41.614Z</time></trkpt><trkpt lat="43.613005" lon="12.9699767"><ele>139.66666666666666</ele><time>2026-04-22T13:48:42.614Z</time></trkpt><trkpt lat="43.612875" lon="12.970115"><ele>138.33333333333331</ele><time>2026-04-22T13:48:43.614Z</time></trkpt><trkpt lat="43.6127483" lon="12.9702667"><ele>137.0</ele><time>2026-04-22T13:48:44.614Z</time></trkpt><trkpt lat="43.6126333" lon="12.9704317"><ele>137.0</ele><time>2026-04-22T13:48:45.614Z</time></trkpt><trkpt lat="43.6125183" lon="12.9706117"><ele>137.0</ele><time>2026-04-22T13:48:46.614Z</time></trkpt><trkpt lat="43.61241" lon="12.9708067"><ele>137.0</ele><time>2026-04-22T13:48:47.614Z</time></trkpt><trkpt lat="43.6123067" lon="12.9709983"><ele>135.33333333333331</ele><time>2026-04-22T13:48:48.614Z</time></trkpt><trkpt lat="43.6122067" lon="12.9711883"><ele>133.66666666666666</ele><time>2026-04-22T13:48:49.614Z</time></trkpt><trkpt lat="43.6121117" lon="12.9713783"><ele>132.0</ele><time>2026-04-22T13:48:50.615Z</time></trkpt><trkpt lat="43.6120167" lon="12.9715733"><ele>133.66666666666666</ele><time>2026-04-22T13:48:51.614Z</time></trkpt><trkpt lat="43.6119217" lon="12.9717733"><ele>135.33333333333331</ele><time>2026-04-22T13:48:52.614Z</time></trkpt><trkpt lat="43.611825" lon="12.9719667"><ele>137.0</ele><time>2026-04-22T13:48:53.614Z</time></trkpt><trkpt lat="43.6117267" lon="12.9721767"><ele>137.0</ele><time>2026-04-22T13:48:54.614Z</time></trkpt><trkpt lat="43.6116167" lon="12.972385"><ele>137.0</ele><time>2026-04-22T13:48:55.614Z</time></trkpt><trkpt lat="43.61151" lon="12.9725983"><ele>137.0</ele><time>2026-04-22T13:48:56.614Z</time></trkpt><trkpt lat="43.6114017" lon="12.9728083"><ele>138.0</ele><time>2026-04-22T13:48:57.614Z</time></trkpt><trkpt lat="43.6112983" lon="12.9730083"><ele>139.0</ele><time>2026-04-22T13:48:58.614Z</time></trkpt><trkpt lat="43.6112017" lon="12.9732017"><ele>140.0</ele><time>2026-04-22T13:48:59.614Z</time></trkpt><trkpt lat="43.6111067" lon="12.9733983"><ele>142.0</ele><time>2026-04-22T13:49:00.614Z</time></trkpt><trkpt lat="43.6110133" lon="12.97359"><ele>144.0</ele><time>2026-04-22T13:49:01.614Z</time></trkpt><trkpt lat="43.61091" lon="12.9738017"><ele>146.0</ele><time>2026-04-22T13:49:02.615Z</time></trkpt><trkpt lat="43.61081" lon="12.974005"><ele>146.66666666666666</ele><time>2026-04-22T13:49:03.614Z</time></trkpt><trkpt lat="43.6107117" lon="12.9741983"><ele>147.33333333333334</ele><time>2026-04-22T13:49:04.614Z</time></trkpt><trkpt lat="43.61063" lon="12.9743733"><ele>148.0</ele><time>2026-04-22T13:49:05.614Z</time></trkpt><trkpt lat="43.61055" lon="12.97454"><ele>148.0</ele><time>2026-04-22T13:49:06.614Z</time></trkpt><trkpt lat="43.6104617" lon="12.9746917"><ele>148.0</ele><time>2026-04-22T13:49:07.614Z</time></trkpt><trkpt lat="43.6103767" lon="12.9748583"><ele>148.0</ele><time>2026-04-22T13:49:08.614Z</time></trkpt><trkpt lat="43.6103133" lon="12.975045"><ele>148.0</ele><time>2026-04-22T13:49:09.614Z</time></trkpt><trkpt lat="43.6102767" lon="12.97524"><ele>152.75</ele><time>2026-04-22T13:49:10.614Z</time></trkpt><trkpt lat="43.6102717" lon="12.975445"><ele>157.5</ele><time>2026-04-22T13:49:11.614Z</time></trkpt><trkpt lat="43.6102767" lon="12.9756517"><ele>162.25</ele><time>2026-04-22T13:49:12.614Z</time></trkpt><trkpt lat="43.6102867" lon="12.9758483"><ele>167.0</ele><time>2026-04-22T13:49:13.614Z</time></trkpt><trkpt lat="43.6103083" lon="12.9760367"><ele>166.0</ele><time>2026-04-22T13:49:14.614Z</time></trkpt><trkpt lat="43.6103533" lon="12.9762217"><ele>165.0</ele><time>2026-04-22T13:49:15.615Z</time></trkpt><trkpt lat="43.6104217" lon="12.976385"><ele>164.0</ele><time>2026-04-22T13:49:16.614Z</time></trkpt><trkpt lat="43.6105117" lon="12.976525"><ele>163.0</ele><time>2026-04-22T13:49:17.614Z</time></trkpt><trkpt lat="43.61061" lon="12.9766583"><ele>167.75</ele><time>2026-04-22T13:49:18.614Z</time></trkpt><trkpt lat="43.6107033" lon="12.976785"><ele>172.5</ele><time>2026-04-22T13:49:19.614Z</time></trkpt><trkpt lat="43.6107917" lon="12.9769167"><ele>177.25</ele><time>2026-04-22T13:49:20.614Z</time></trkpt><trkpt lat="43.61088" lon="12.9770417"><ele>182.0</ele><time>2026-04-22T13:49:21.614Z</time></trkpt><trkpt lat="43.6109667" lon="12.9771767"><ele>182.0</ele><time>2026-04-22T13:49:22.614Z</time></trkpt><trkpt lat="43.6110517" lon="12.9773233"><ele>182.0</ele><time>2026-04-22T13:49:23.614Z</time></trkpt><trkpt lat="43.61114" lon="12.97746"><ele>182.0</ele><time>2026-04-22T13:49:24.614Z</time></trkpt><trkpt lat="43.611225" lon="12.9776067"><ele>182.0</ele><time>2026-04-22T13:49:25.614Z</time></trkpt><trkpt lat="43.6113117" lon="12.9777583"><ele>180.0</ele><time>2026-04-22T13:49:26.614Z</time></trkpt><trkpt lat="43.61141" lon="12.9779083"><ele>178.0</ele><time>2026-04-22T13:49:27.614Z</time></trkpt><trkpt lat="43.61152" lon="12.9780517"><ele>176.0</ele><time>2026-04-22T13:49:28.614Z</time></trkpt><trkpt lat="43.6116383" lon="12.9781867"><ele>176.0</ele><time>2026-04-22T13:49:29.614Z</time></trkpt><trkpt lat="43.6117633" lon="12.9782933"><ele>176.0</ele><time>2026-04-22T13:49:30.614Z</time></trkpt><trkpt lat="43.6118833" lon="12.9783767"><ele>176.0</ele><time>2026-04-22T13:49:31.614Z</time></trkpt><trkpt lat="43.61201" lon="12.97847"><ele>176.0</ele><time>2026-04-22T13:49:32.615Z</time></trkpt><trkpt lat="43.6121217" lon="12.9785633"><ele>175.20000000000002</ele><time>2026-04-22T13:49:33.614Z</time></trkpt><trkpt lat="43.612215" lon="12.978655"><ele>174.4</ele><time>2026-04-22T13:49:34.614Z</time></trkpt><trkpt lat="43.6122983" lon="12.9787467"><ele>173.6</ele><time>2026-04-22T13:49:35.614Z</time></trkpt><trkpt lat="43.6123633" lon="12.97886"><ele>172.8</ele><time>2026-04-22T13:49:36.615Z</time></trkpt><trkpt lat="43.6124183" lon="12.9789867"><ele>172.0</ele><time>2026-04-22T13:49:37.614Z</time></trkpt><trkpt lat="43.6124533" lon="12.97914"><ele>173.39999999999998</ele><time>2026-04-22T13:49:38.614Z</time></trkpt><trkpt lat="43.6124783" lon="12.9792833"><ele>174.79999999999998</ele><time>2026-04-22T13:49:39.614Z</time></trkpt><trkpt lat="43.6125" lon="12.9794167"><ele>176.2</ele><time>2026-04-22T13:49:40.615Z</time></trkpt><trkpt lat="43.6125083" lon="12.97954"><ele>177.6</ele><time>2026-04-22T13:49:41.614Z</time></trkpt><trkpt lat="43.6125167" lon="12.9796467"><ele>179.0</ele><time>2026-04-22T13:49:42.614Z</time></trkpt><trkpt lat="43.6125133" lon="12.9797567"><ele>179.0</ele><time>2026-04-22T13:49:43.614Z</time></trkpt><trkpt lat="43.6125067" lon="12.9798667"><ele>179.0</ele><time>2026-04-22T13:49:44.614Z</time></trkpt><trkpt lat="43.6124967" lon="12.9799633"><ele>179.0</ele><time>2026-04-22T13:49:45.614Z</time></trkpt><trkpt lat="43.6124917" lon="12.98005"><ele>179.0</ele><time>2026-04-22T13:49:46.614Z</time></trkpt><trkpt lat="43.612475" lon="12.98019"><ele>179.0</ele><time>2026-04-22T13:49:48.614Z</time></trkpt><trkpt lat="43.6125167" lon="12.9803283"><ele>179.0</ele><time>2026-04-22T13:49:50.613Z</time></trkpt><trkpt lat="43.6125717" lon="12.980415"><ele>179.39999999999998</ele><time>2026-04-22T13:49:51.613Z</time></trkpt><trkpt lat="43.6126417" lon="12.9805117"><ele>179.8</ele><time>2026-04-22T13:49:52.613Z</time></trkpt><trkpt lat="43.6127133" lon="12.9806133"><ele>180.2</ele><time>2026-04-22T13:49:53.613Z</time></trkpt><trkpt lat="43.6128017" lon="12.9807183"><ele>180.60000000000002</ele><time>2026-04-22T13:49:54.613Z</time></trkpt><trkpt lat="43.612905" lon="12.98083"><ele>181.0</ele><time>2026-04-22T13:49:55.613Z</time></trkpt><trkpt lat="43.6130183" lon="12.9809333"><ele>181.5</ele><time>2026-04-22T13:49:56.613Z</time></trkpt><trkpt lat="43.613135" lon="12.9810167"><ele>182.0</ele><time>2026-04-22T13:49:57.614Z</time></trkpt><trkpt lat="43.6132617" lon="12.9810983"><ele>182.5</ele><time>2026-04-22T13:49:58.614Z</time></trkpt><trkpt lat="43.61339" lon="12.98118"><ele>183.0</ele><time>2026-04-22T13:49:59.613Z</time></trkpt><trkpt lat="43.61353" lon="12.9812617"><ele>182.66666666666666</ele><time>2026-04-22T13:50:00.614Z</time></trkpt><trkpt lat="43.6136683" lon="12.98135"><ele>182.33333333333331</ele><time>2026-04-22T13:50:01.613Z</time></trkpt><trkpt lat="43.6138183" lon="12.9814417"><ele>182.0</ele><time>2026-04-22T13:50:02.613Z</time></trkpt><trkpt lat="43.6139567" lon="12.9815583"><ele>183.33333333333331</ele><time>2026-04-22T13:50:03.613Z</time></trkpt><trkpt lat="43.61409" lon="12.9816883"><ele>184.66666666666666</ele><time>2026-04-22T13:50:04.614Z</time></trkpt><trkpt lat="43.6142133" lon="12.981835"><ele>186.0</ele><time>2026-04-22T13:50:05.613Z</time></trkpt><trkpt lat="43.6143383" lon="12.9819733"><ele>186.0</ele><time>2026-04-22T13:50:06.613Z</time></trkpt><trkpt lat="43.6144683" lon="12.9821233"><ele>186.0</ele><time>2026-04-22T13:50:07.613Z</time></trkpt><trkpt lat="43.6145967" lon="12.9822683"><ele>186.0</ele><time>2026-04-22T13:50:08.614Z</time></trkpt><trkpt lat="43.6147233" lon="12.9824117"><ele>187.66666666666666</ele><time>2026-04-22T13:50:09.613Z</time></trkpt><trkpt lat="43.61485" lon="12.98255"><ele>189.33333333333331</ele><time>2026-04-22T13:50:10.613Z</time></trkpt><trkpt lat="43.6149683" lon="12.982705"><ele>191.0</ele><time>2026-04-22T13:50:11.613Z</time></trkpt><trkpt lat="43.6150783" lon="12.9828667"><ele>191.0</ele><time>2026-04-22T13:50:12.613Z</time></trkpt><trkpt lat="43.6151767" lon="12.9830433"><ele>191.0</ele><time>2026-04-22T13:50:13.613Z</time></trkpt><trkpt lat="43.6152633" lon="12.9832117"><ele>191.0</ele><time>2026-04-22T13:50:14.613Z</time></trkpt><trkpt lat="43.6153367" lon="12.98338"><ele>188.5</ele><time>2026-04-22T13:50:15.613Z</time></trkpt><trkpt lat="43.6153883" lon="12.98356"><ele>186.0</ele><time>2026-04-22T13:50:16.613Z</time></trkpt><trkpt lat="43.615415" lon="12.98375"><ele>183.5</ele><time>2026-04-22T13:50:17.614Z</time></trkpt><trkpt lat="43.6154283" lon="12.9839567"><ele>181.0</ele><time>2026-04-22T13:50:18.614Z</time></trkpt><trkpt lat="43.615435" lon="12.9841717"><ele>183.0</ele><time>2026-04-22T13:50:19.613Z</time></trkpt><trkpt lat="43.6154417" lon="12.9843933"><ele>185.0</ele><time>2026-04-22T13:50:20.613Z</time></trkpt><trkpt lat="43.6154567" lon="12.9846"><ele>187.0</ele><time>2026-04-22T13:50:21.614Z</time></trkpt><trkpt lat="43.6154667" lon="12.984805"><ele>187.0</ele><time>2026-04-22T13:50:22.613Z</time></trkpt><trkpt lat="43.6154783" lon="12.9849817"><ele>187.0</ele><time>2026-04-22T13:50:23.613Z</time></trkpt><trkpt lat="43.615505" lon="12.9851417"><ele>187.0</ele><time>2026-04-22T13:50:24.613Z</time></trkpt><trkpt lat="43.6155633" lon="12.9852767"><ele>187.0</ele><time>2026-04-22T13:50:25.613Z</time></trkpt><trkpt lat="43.61564" lon="12.985375"><ele>187.25</ele><time>2026-04-22T13:50:26.613Z</time></trkpt><trkpt lat="43.615735" lon="12.985445"><ele>187.5</ele><time>2026-04-22T13:50:27.613Z</time></trkpt><trkpt lat="43.6158467" lon="12.9854917"><ele>187.75</ele><time>2026-04-22T13:50:28.613Z</time></trkpt><trkpt lat="43.6159767" lon="12.985535"><ele>188.0</ele><time>2026-04-22T13:50:29.613Z</time></trkpt><trkpt lat="43.6161" lon="12.9855783"><ele>188.25</ele><time>2026-04-22T13:50:30.613Z</time></trkpt><trkpt lat="43.6162267" lon="12.9856433"><ele>188.5</ele><time>2026-04-22T13:50:31.614Z</time></trkpt><trkpt lat="43.6163483" lon="12.98572"><ele>188.75</ele><time>2026-04-22T13:50:32.613Z</time></trkpt><trkpt lat="43.61646" lon="12.9858117"><ele>189.0</ele><time>2026-04-22T13:50:33.613Z</time></trkpt><trkpt lat="43.6165767" lon="12.985915"><ele>189.25</ele><time>2026-04-22T13:50:34.613Z</time></trkpt><trkpt lat="43.616685" lon="12.98603"><ele>189.5</ele><time>2026-04-22T13:50:35.613Z</time></trkpt><trkpt lat="43.6168" lon="12.98615"><ele>189.75</ele><time>2026-04-22T13:50:36.614Z</time></trkpt><trkpt lat="43.616915" lon="12.9862783"><ele>190.0</ele><time>2026-04-22T13:50:37.614Z</time></trkpt><trkpt lat="43.6170317" lon="12.9864233"><ele>190.0</ele><time>2026-04-22T13:50:38.613Z</time></trkpt><trkpt lat="43.6171383" lon="12.9865783"><ele>190.0</ele><time>2026-04-22T13:50:39.613Z</time></trkpt><trkpt lat="43.6172433" lon="12.986735"><ele>190.0</ele><time>2026-04-22T13:50:40.613Z</time></trkpt><trkpt lat="43.6173783" lon="12.9868817"><ele>190.33333333333334</ele><time>2026-04-22T13:50:41.613Z</time></trkpt><trkpt lat="43.61753" lon="12.9869917"><ele>190.66666666666666</ele><time>2026-04-22T13:50:42.613Z</time></trkpt><trkpt lat="43.6176867" lon="12.98708"><ele>191.0</ele><time>2026-04-22T13:50:43.613Z</time></trkpt><trkpt lat="43.6178483" lon="12.98715"><ele>190.0</ele><time>2026-04-22T13:50:44.613Z</time></trkpt><trkpt lat="43.6180183" lon="12.987225"><ele>189.0</ele><time>2026-04-22T13:50:45.613Z</time></trkpt><trkpt lat="43.6181833" lon="12.9873067"><ele>188.0</ele><time>2026-04-22T13:50:46.613Z</time></trkpt><trkpt lat="43.6183383" lon="12.9873867"><ele>188.0</ele><time>2026-04-22T13:50:47.614Z</time></trkpt><trkpt lat="43.6184917" lon="12.9874683"><ele>188.0</ele><time>2026-04-22T13:50:48.613Z</time></trkpt><trkpt lat="43.6186317" lon="12.9875683"><ele>188.0</ele><time>2026-04-22T13:50:49.613Z</time></trkpt><trkpt lat="43.6187567" lon="12.9876983"><ele>189.0</ele><time>2026-04-22T13:50:50.613Z</time></trkpt><trkpt lat="43.6188767" lon="12.9878417"><ele>190.0</ele><time>2026-04-22T13:50:51.613Z</time></trkpt><trkpt lat="43.6189833" lon="12.9880083"><ele>191.0</ele><time>2026-04-22T13:50:52.613Z</time></trkpt><trkpt lat="43.6190983" lon="12.9881917"><ele>191.66666666666666</ele><time>2026-04-22T13:50:53.613Z</time></trkpt><trkpt lat="43.6192017" lon="12.988365"><ele>192.33333333333331</ele><time>2026-04-22T13:50:54.613Z</time></trkpt><trkpt lat="43.6193067" lon="12.9885367"><ele>193.0</ele><time>2026-04-22T13:50:55.613Z</time></trkpt><trkpt lat="43.6194183" lon="12.9887083"><ele>195.33333333333331</ele><time>2026-04-22T13:50:56.613Z</time></trkpt><trkpt lat="43.6195317" lon="12.9888667"><ele>197.66666666666669</ele><time>2026-04-22T13:50:57.613Z</time></trkpt><trkpt lat="43.6196567" lon="12.9890067"><ele>200.0</ele><time>2026-04-22T13:50:58.614Z</time></trkpt><trkpt lat="43.6197883" lon="12.9891333"><ele>194.66666666666669</ele><time>2026-04-22T13:50:59.613Z</time></trkpt><trkpt lat="43.6199367" lon="12.989245"><ele>189.33333333333334</ele><time>2026-04-22T13:51:00.613Z</time></trkpt><trkpt lat="43.620095" lon="12.9893417"><ele>184.0</ele><time>2026-04-22T13:51:01.613Z</time></trkpt><trkpt lat="43.6202567" lon="12.9894333"><ele>186.0</ele><time>2026-04-22T13:51:02.613Z</time></trkpt><trkpt lat="43.6204233" lon="12.9895317"><ele>188.0</ele><time>2026-04-22T13:51:03.613Z</time></trkpt><trkpt lat="43.6205967" lon="12.9896167"><ele>190.0</ele><time>2026-04-22T13:51:04.614Z</time></trkpt><trkpt lat="43.6207583" lon="12.9897033"><ele>190.0</ele><time>2026-04-22T13:51:05.613Z</time></trkpt><trkpt lat="43.620925" lon="12.9897733"><ele>190.0</ele><time>2026-04-22T13:51:06.613Z</time></trkpt><trkpt lat="43.6210983" lon="12.9898467"><ele>190.0</ele><time>2026-04-22T13:51:07.613Z</time></trkpt><trkpt lat="43.6212817" lon="12.9899317"><ele>190.33333333333334</ele><time>2026-04-22T13:51:08.614Z</time></trkpt><trkpt lat="43.62146" lon="12.9900333"><ele>190.66666666666666</ele><time>2026-04-22T13:51:09.613Z</time></trkpt><trkpt lat="43.6216417" lon="12.99014"><ele>191.0</ele><time>2026-04-22T13:51:10.613Z</time></trkpt><trkpt lat="43.6218217" lon="12.990255"><ele>192.33333333333331</ele><time>2026-04-22T13:51:11.613Z</time></trkpt><trkpt lat="43.621985" lon="12.990375"><ele>193.66666666666666</ele><time>2026-04-22T13:51:12.613Z</time></trkpt><trkpt lat="43.6221417" lon="12.9904983"><ele>195.0</ele><time>2026-04-22T13:51:13.613Z</time></trkpt><trkpt lat="43.6222867" lon="12.9906333"><ele>195.0</ele><time>2026-04-22T13:51:14.613Z</time></trkpt><trkpt lat="43.6224267" lon="12.9907633"><ele>195.0</ele><time>2026-04-22T13:51:15.613Z</time></trkpt><trkpt lat="43.6225433" lon="12.9908833"><ele>195.0</ele><time>2026-04-22T13:51:16.613Z</time></trkpt><trkpt lat="43.622655" lon="12.990995"><ele>195.4</ele><time>2026-04-22T13:51:17.614Z</time></trkpt><trkpt lat="43.6227417" lon="12.9910883"><ele>195.8</ele><time>2026-04-22T13:51:18.613Z</time></trkpt><trkpt lat="43.6228183" lon="12.9911583"><ele>196.2</ele><time>2026-04-22T13:51:19.613Z</time></trkpt><trkpt lat="43.6228783" lon="12.9912283"><ele>196.6</ele><time>2026-04-22T13:51:20.613Z</time></trkpt><trkpt lat="43.62293" lon="12.991295"><ele>197.0</ele><time>2026-04-22T13:51:21.613Z</time></trkpt><trkpt lat="43.6229967" lon="12.9913967"><ele>197.00000000000003</ele><time>2026-04-22T13:51:23.613Z</time></trkpt><trkpt lat="43.623035" lon="12.99149"><ele>197.0</ele><time>2026-04-22T13:51:26.613Z</time></trkpt><trkpt lat="43.6230667" lon="12.99159"><ele>197.0</ele><time>2026-04-22T13:51:29.613Z</time></trkpt><trkpt lat="43.6230867" lon="12.9916883"><ele>197.0</ele><time>2026-04-22T13:51:31.613Z</time></trkpt><trkpt lat="43.6231083" lon="12.9918067"><ele>197.00000000000003</ele><time>2026-04-22T13:51:33.613Z</time></trkpt><trkpt lat="43.6231233" lon="12.9919367"><ele>197.0</ele><time>2026-04-22T13:51:35.613Z</time></trkpt><trkpt lat="43.6231383" lon="12.9920633"><ele>195.0</ele><time>2026-04-22T13:51:37.613Z</time></trkpt><trkpt lat="43.6231533" lon="12.9922083"><ele>193.0</ele><time>2026-04-22T13:51:39.613Z</time></trkpt><trkpt lat="43.62316" lon="12.99237"><ele>191.0</ele><time>2026-04-22T13:51:41.613Z</time></trkpt><trkpt lat="43.6231667" lon="12.992525"><ele>189.0</ele><time>2026-04-22T13:51:43.613Z</time></trkpt><trkpt lat="43.6231683" lon="12.9926817"><ele>187.0</ele><time>2026-04-22T13:51:45.613Z</time></trkpt><trkpt lat="43.6231683" lon="12.9928283"><ele>186.0</ele><time>2026-04-22T13:51:47.613Z</time></trkpt><trkpt lat="43.62317" lon="12.9929617"><ele>185.0</ele><time>2026-04-22T13:51:49.613Z</time></trkpt><trkpt lat="43.623175" lon="12.9931017"><ele>184.0</ele><time>2026-04-22T13:51:51.613Z</time></trkpt><trkpt lat="43.6231817" lon="12.99325"><ele>183.0</ele><time>2026-04-22T13:51:53.613Z</time></trkpt><trkpt lat="43.6231767" lon="12.993395"><ele>182.0</ele><time>2026-04-22T13:51:55.613Z</time></trkpt><trkpt lat="43.6231417" lon="12.9935383"><ele>182.0</ele><time>2026-04-22T13:51:57.613Z</time></trkpt><trkpt lat="43.6230917" lon="12.99368"><ele>182.0</ele><time>2026-04-22T13:51:59.614Z</time></trkpt><trkpt lat="43.6230233" lon="12.9938083"><ele>182.0</ele><time>2026-04-22T13:52:01.613Z</time></trkpt><trkpt lat="43.6229683" lon="12.99387"><ele>182.0</ele><time>2026-04-22T13:52:02.613Z</time></trkpt><trkpt lat="43.622915" lon="12.9939467"><ele>182.0</ele><time>2026-04-22T13:52:03.613Z</time></trkpt><trkpt lat="43.62286" lon="12.9940217"><ele>182.8</ele><time>2026-04-22T13:52:04.613Z</time></trkpt><trkpt lat="43.6228133" lon="12.994155"><ele>183.6</ele><time>2026-04-22T13:52:06.613Z</time></trkpt><trkpt lat="43.6228517" lon="12.994245"><ele>184.4</ele><time>2026-04-22T13:52:08.613Z</time></trkpt><trkpt lat="43.6229367" lon="12.9942783"><ele>185.20000000000002</ele><time>2026-04-22T13:52:10.613Z</time></trkpt><trkpt lat="43.6230617" lon="12.9942733"><ele>186.0</ele><time>2026-04-22T13:52:12.613Z</time></trkpt><trkpt lat="43.623125" lon="12.9942667"><ele>186.0</ele><time>2026-04-22T13:52:13.613Z</time></trkpt><trkpt lat="43.62325" lon="12.994245"><ele>186.0</ele><time>2026-04-22T13:52:15.613Z</time></trkpt><trkpt lat="43.6233233" lon="12.9942417"><ele>186.0</ele><time>2026-04-22T13:52:16.613Z</time></trkpt><trkpt lat="43.6233983" lon="12.9942483"><ele>186.0</ele><time>2026-04-22T13:52:17.613Z</time></trkpt><trkpt lat="43.623475" lon="12.9942633"><ele>186.0</ele><time>2026-04-22T13:52:18.613Z</time></trkpt><trkpt lat="43.62354" lon="12.9942867"><ele>186.0</ele><time>2026-04-22T13:52:19.613Z</time></trkpt><trkpt lat="43.62361" lon="12.9943117"><ele>187.71428571428572</ele><time>2026-04-22T13:52:20.613Z</time></trkpt><trkpt lat="43.623675" lon="12.994345"><ele>189.42857142857144</ele><time>2026-04-22T13:52:21.613Z</time></trkpt><trkpt lat="43.6237383" lon="12.99438"><ele>191.14285714285717</ele><time>2026-04-22T13:52:22.614Z</time></trkpt><trkpt lat="43.6237983" lon="12.994415"><ele>192.85714285714286</ele><time>2026-04-22T13:52:23.613Z</time></trkpt><trkpt lat="43.62386" lon="12.9944533"><ele>194.57142857142856</ele><time>2026-04-22T13:52:24.613Z</time></trkpt><trkpt lat="43.6239283" lon="12.9944867"><ele>196.2857142857143</ele><time>2026-04-22T13:52:25.613Z</time></trkpt><trkpt lat="43.6239983" lon="12.9945283"><ele>198.0</ele><time>2026-04-22T13:52:26.613Z</time></trkpt><trkpt lat="43.62406" lon="12.9945733"><ele>198.0</ele><time>2026-04-22T13:52:27.613Z</time></trkpt><trkpt lat="43.62412" lon="12.9946183"><ele>198.0</ele><time>2026-04-22T13:52:28.614Z</time></trkpt><trkpt lat="43.624185" lon="12.9946733"><ele>198.0</ele><time>2026-04-22T13:52:29.613Z</time></trkpt><trkpt lat="43.6242433" lon="12.994725"><ele>198.0</ele><time>2026-04-22T13:52:30.613Z</time></trkpt><trkpt lat="43.6243033" lon="12.99478"><ele>198.0</ele><time>2026-04-22T13:52:31.614Z</time></trkpt><trkpt lat="43.62437" lon="12.9948367"><ele>198.0</ele><time>2026-04-22T13:52:32.613Z</time></trkpt><trkpt lat="43.624435" lon="12.9948867"><ele>198.0</ele><time>2026-04-22T13:52:33.613Z</time></trkpt><trkpt lat="43.62451" lon="12.994945"><ele>199.0</ele><time>2026-04-22T13:52:34.613Z</time></trkpt><trkpt lat="43.6245833" lon="12.9950033"><ele>200.0</ele><time>2026-04-22T13:52:35.613Z</time></trkpt><trkpt lat="43.62465" lon="12.9950567"><ele>201.0</ele><time>2026-04-22T13:52:36.614Z</time></trkpt><trkpt lat="43.6247117" lon="12.9951083"><ele>202.0</ele><time>2026-04-22T13:52:37.613Z</time></trkpt><trkpt lat="43.6247717" lon="12.9951617"><ele>203.0</ele><time>2026-04-22T13:52:38.614Z</time></trkpt><trkpt lat="43.6248317" lon="12.9952183"><ele>204.0</ele><time>2026-04-22T13:52:39.613Z</time></trkpt><trkpt lat="43.6248933" lon="12.9952733"><ele>205.66666666666666</ele><time>2026-04-22T13:52:40.613Z</time></trkpt><trkpt lat="43.62496" lon="12.9953217"><ele>207.33333333333331</ele><time>2026-04-22T13:52:41.613Z</time></trkpt><trkpt lat="43.6250267" lon="12.9953683"><ele>209.0</ele><time>2026-04-22T13:52:42.613Z</time></trkpt><trkpt lat="43.62509" lon="12.9954217"><ele>210.66666666666666</ele><time>2026-04-22T13:52:43.613Z</time></trkpt><trkpt lat="43.6251517" lon="12.9954767"><ele>212.33333333333331</ele><time>2026-04-22T13:52:44.613Z</time></trkpt><trkpt lat="43.6252133" lon="12.9955317"><ele>214.0</ele><time>2026-04-22T13:52:45.614Z</time></trkpt><trkpt lat="43.62528" lon="12.995595"><ele>214.66666666666666</ele><time>2026-04-22T13:52:46.613Z</time></trkpt><trkpt lat="43.6253467" lon="12.9956583"><ele>215.33333333333331</ele><time>2026-04-22T13:52:47.613Z</time></trkpt><trkpt lat="43.62541" lon="12.9957233"><ele>216.0</ele><time>2026-04-22T13:52:48.614Z</time></trkpt><trkpt lat="43.62547" lon="12.995785"><ele>216.66666666666669</ele><time>2026-04-22T13:52:49.613Z</time></trkpt><trkpt lat="43.6255417" lon="12.9958483"><ele>217.33333333333334</ele><time>2026-04-22T13:52:50.613Z</time></trkpt><trkpt lat="43.6256117" lon="12.9959083"><ele>218.0</ele><time>2026-04-22T13:52:51.613Z</time></trkpt><trkpt lat="43.6256767" lon="12.99597"><ele>219.83333333333334</ele><time>2026-04-22T13:52:52.613Z</time></trkpt><trkpt lat="43.6257317" lon="12.9960317"><ele>221.66666666666669</ele><time>2026-04-22T13:52:53.613Z</time></trkpt><trkpt lat="43.6257833" lon="12.9961"><ele>223.5</ele><time>2026-04-22T13:52:54.613Z</time></trkpt><trkpt lat="43.6258233" lon="12.9961833"><ele>225.33333333333331</ele><time>2026-04-22T13:52:55.613Z</time></trkpt><trkpt lat="43.6258767" lon="12.9963383"><ele>227.16666666666666</ele><time>2026-04-22T13:52:57.613Z</time></trkpt><trkpt lat="43.6258933" lon="12.9964317"><ele>229.0</ele><time>2026-04-22T13:52:58.613Z</time></trkpt><trkpt lat="43.625905" lon="12.99652"><ele>228.99999999999997</ele><time>2026-04-22T13:52:59.613Z</time></trkpt><trkpt lat="43.6259133" lon="12.99661"><ele>229.0</ele><time>2026-04-22T13:53:00.613Z</time></trkpt><trkpt lat="43.6259183" lon="12.9967"><ele>229.0</ele><time>2026-04-22T13:53:01.614Z</time></trkpt><trkpt lat="43.6259217" lon="12.9967883"><ele>229.0</ele><time>2026-04-22T13:53:02.613Z</time></trkpt><trkpt lat="43.6259167" lon="12.99688"><ele>228.99999999999997</ele><time>2026-04-22T13:53:03.613Z</time></trkpt><trkpt lat="43.62589" lon="12.9970483"><ele>229.0</ele><time>2026-04-22T13:53:05.614Z</time></trkpt><trkpt lat="43.6258783" lon="12.997135"><ele>229.99999999999997</ele><time>2026-04-22T13:53:06.613Z</time></trkpt><trkpt lat="43.6258483" lon="12.9972767"><ele>231.0</ele><time>2026-04-22T13:53:08.613Z</time></trkpt><trkpt lat="43.6258483" lon="12.9973833"><ele>232.0</ele><time>2026-04-22T13:53:10.613Z</time></trkpt><trkpt lat="43.6259017" lon="12.9974533"><ele>233.0</ele><time>2026-04-22T13:53:12.613Z</time></trkpt><trkpt lat="43.6259767" lon="12.9974783"><ele>233.99999999999997</ele><time>2026-04-22T13:53:14.613Z</time></trkpt><trkpt lat="43.6260667" lon="12.9974983"><ele>235.0</ele><time>2026-04-22T13:53:16.614Z</time></trkpt><trkpt lat="43.62615" lon="12.99756"><ele>236.6</ele><time>2026-04-22T13:53:18.613Z</time></trkpt><trkpt lat="43.62623" lon="12.9976433"><ele>238.2</ele><time>2026-04-22T13:53:20.613Z</time></trkpt><trkpt lat="43.6263" lon="12.9977433"><ele>239.8</ele><time>2026-04-22T13:53:22.613Z</time></trkpt><trkpt lat="43.626365" lon="12.997835"><ele>241.4</ele><time>2026-04-22T13:53:24.613Z</time></trkpt><trkpt lat="43.6264267" lon="12.9979317"><ele>243.0</ele><time>2026-04-22T13:53:26.613Z</time></trkpt><trkpt lat="43.6264867" lon="12.9980167"><ele>243.0</ele><time>2026-04-22T13:53:28.614Z</time></trkpt><trkpt lat="43.6265533" lon="12.998105"><ele>243.0</ele><time>2026-04-22T13:53:30.613Z</time></trkpt><trkpt lat="43.626625" lon="12.9981967"><ele>243.0</ele><time>2026-04-22T13:53:32.613Z</time></trkpt><trkpt lat="43.626695" lon="12.9983033"><ele>243.0</ele><time>2026-04-22T13:53:34.613Z</time></trkpt><trkpt lat="43.626755" lon="12.9984333"><ele>243.0</ele><time>2026-04-22T13:53:36.614Z</time></trkpt><trkpt lat="43.62679" lon="12.9985883"><ele>243.2</ele><time>2026-04-22T13:53:38.613Z</time></trkpt><trkpt lat="43.6267917" lon="12.9987333"><ele>243.4</ele><time>2026-04-22T13:53:40.613Z</time></trkpt><trkpt lat="43.626765" lon="12.9988667"><ele>243.59999999999997</ele><time>2026-04-22T13:53:42.613Z</time></trkpt><trkpt lat="43.6267167" lon="12.9989867"><ele>243.79999999999998</ele><time>2026-04-22T13:53:44.613Z</time></trkpt><trkpt lat="43.6266467" lon="12.9990933"><ele>244.0</ele><time>2026-04-22T13:53:46.613Z</time></trkpt><trkpt lat="43.6265867" lon="12.9992033"><ele>244.0</ele><time>2026-04-22T13:53:48.613Z</time></trkpt><trkpt lat="43.6265217" lon="12.9993117"><ele>243.99999999999997</ele><time>2026-04-22T13:53:50.614Z</time></trkpt><trkpt lat="43.626455" lon="12.9994117"><ele>243.99999999999997</ele><time>2026-04-22T13:53:52.613Z</time></trkpt><trkpt lat="43.6263933" lon="12.9995267"><ele>244.0</ele><time>2026-04-22T13:53:54.613Z</time></trkpt><trkpt lat="43.626345" lon="12.999635"><ele>244.0</ele><time>2026-04-22T13:53:56.613Z</time></trkpt><trkpt lat="43.6263133" lon="12.9997567"><ele>243.99999999999997</ele><time>2026-04-22T13:53:58.613Z</time></trkpt><trkpt lat="43.6262867" lon="12.9998733"><ele>244.0</ele><time>2026-04-22T13:54:00.613Z</time></trkpt><trkpt lat="43.6262667" lon="12.9999783"><ele>244.0</ele><time>2026-04-22T13:54:02.614Z</time></trkpt><trkpt lat="43.6262383" lon="13.0000917"><ele>244.0</ele><time>2026-04-22T13:54:04.613Z</time></trkpt><trkpt lat="43.6262233" lon="13.0002017"><ele>243.99999999999997</ele><time>2026-04-22T13:54:06.613Z</time></trkpt><trkpt lat="43.6262117" lon="13.0003133"><ele>244.0</ele><time>2026-04-22T13:54:08.613Z</time></trkpt><trkpt lat="43.626205" lon="13.0004"><ele>243.99999999999997</ele><time>2026-04-22T13:54:10.613Z</time></trkpt><trkpt lat="43.626195" lon="13.0005"><ele>244.0</ele><time>2026-04-22T13:54:13.613Z</time></trkpt><trkpt lat="43.6261817" lon="13.0005867"><ele>244.0</ele><time>2026-04-22T13:54:16.613Z</time></trkpt><trkpt lat="43.6261633" lon="13.0006983"><ele>244.0</ele><time>2026-04-22T13:54:19.613Z</time></trkpt><trkpt lat="43.62614" lon="13.00079"><ele>243.99999999999997</ele><time>2026-04-22T13:54:21.613Z</time></trkpt><trkpt lat="43.6261117" lon="13.0009017"><ele>244.0</ele><time>2026-04-22T13:54:23.613Z</time></trkpt><trkpt lat="43.62609" lon="13.0010183"><ele>241.2</ele><time>2026-04-22T13:54:25.613Z</time></trkpt><trkpt lat="43.6260767" lon="13.001135"><ele>238.39999999999998</ele><time>2026-04-22T13:54:27.613Z</time></trkpt><trkpt lat="43.6260633" lon="13.00127"><ele>235.6</ele><time>2026-04-22T13:54:29.613Z</time></trkpt><trkpt lat="43.6260633" lon="13.001395"><ele>232.8</ele><time>2026-04-22T13:54:31.614Z</time></trkpt><trkpt lat="43.6260683" lon="13.00154"><ele>230.0</ele><time>2026-04-22T13:54:33.614Z</time></trkpt><trkpt lat="43.6260717" lon="13.0016833"><ele>230.00000000000003</ele><time>2026-04-22T13:54:35.613Z</time></trkpt><trkpt lat="43.62606" lon="13.0018133"><ele>230.0</ele><time>2026-04-22T13:54:37.613Z</time></trkpt><trkpt lat="43.6260517" lon="13.001935"><ele>230.0</ele><time>2026-04-22T13:54:39.613Z</time></trkpt><trkpt lat="43.6260583" lon="13.0020383"><ele>230.0</ele><time>2026-04-22T13:54:41.614Z</time></trkpt><trkpt lat="43.62606" lon="13.002155"><ele>230.00000000000003</ele><time>2026-04-22T13:54:43.613Z</time></trkpt><trkpt lat="43.6260567" lon="13.002275"><ele>230.0</ele><time>2026-04-22T13:54:45.614Z</time></trkpt><trkpt lat="43.6260583" lon="13.0023917"><ele>230.00000000000003</ele><time>2026-04-22T13:54:47.613Z</time></trkpt><trkpt lat="43.6260567" lon="13.002505"><ele>230.0</ele><time>2026-04-22T13:54:49.614Z</time></trkpt><trkpt lat="43.6260567" lon="13.0026217"><ele>230.0</ele><time>2026-04-22T13:54:52.613Z</time></trkpt><trkpt lat="43.6260583" lon="13.0027117"><ele>230.0</ele><time>2026-04-22T13:54:54.613Z</time></trkpt><trkpt lat="43.626055" lon="13.0028083"><ele>230.00000000000003</ele><time>2026-04-22T13:54:56.613Z</time></trkpt><trkpt lat="43.626055" lon="13.0029217"><ele>230.0</ele><time>2026-04-22T13:54:58.613Z</time></trkpt><trkpt lat="43.6260467" lon="13.0030417"><ele>230.00000000000003</ele><time>2026-04-22T13:55:00.613Z</time></trkpt><trkpt lat="43.6260433" lon="13.0031417"><ele>230.0</ele><time>2026-04-22T13:55:02.613Z</time></trkpt><trkpt lat="43.6260417" lon="13.0032417"><ele>230.0</ele><time>2026-04-22T13:55:06.613Z</time></trkpt><trkpt lat="43.626035" lon="13.0033783"><ele>230.0</ele><time>2026-04-22T13:55:22.612Z</time></trkpt><trkpt lat="43.626025" lon="13.0034767"><ele>230.00000000000003</ele><time>2026-04-22T13:55:24.612Z</time></trkpt><trkpt lat="43.6259833" lon="13.0035833"><ele>230.0</ele><time>2026-04-22T13:55:27.613Z</time></trkpt><trkpt lat="43.6259" lon="13.0036567"><ele>230.6</ele><time>2026-04-22T13:55:30.612Z</time></trkpt><trkpt lat="43.62582" lon="13.0036883"><ele>231.2</ele><time>2026-04-22T13:55:32.612Z</time></trkpt><trkpt lat="43.625715" lon="13.0037517"><ele>231.8</ele><time>2026-04-22T13:55:34.613Z</time></trkpt><trkpt lat="43.6255967" lon="13.0038167"><ele>232.4</ele><time>2026-04-22T13:55:36.612Z</time></trkpt><trkpt lat="43.625535" lon="13.0038517"><ele>233.0</ele><time>2026-04-22T13:55:37.612Z</time></trkpt><trkpt lat="43.625465" lon="13.0038983"><ele>233.00000000000003</ele><time>2026-04-22T13:55:38.612Z</time></trkpt><trkpt lat="43.6253883" lon="13.0039517"><ele>233.0</ele><time>2026-04-22T13:55:39.612Z</time></trkpt><trkpt lat="43.62531" lon="13.0040117"><ele>233.0</ele><time>2026-04-22T13:55:40.612Z</time></trkpt><trkpt lat="43.6252367" lon="13.0040767"><ele>233.0</ele><time>2026-04-22T13:55:41.612Z</time></trkpt><trkpt lat="43.6251667" lon="13.0041533"><ele>233.00000000000003</ele><time>2026-04-22T13:55:42.612Z</time></trkpt><trkpt lat="43.625105" lon="13.0042383"><ele>233.0</ele><time>2026-04-22T13:55:43.612Z</time></trkpt><trkpt lat="43.625045" lon="13.0043233"><ele>233.60000000000002</ele><time>2026-04-22T13:55:44.612Z</time></trkpt><trkpt lat="43.6249917" lon="13.0044233"><ele>234.20000000000002</ele><time>2026-04-22T13:55:45.613Z</time></trkpt><trkpt lat="43.6249383" lon="13.0045283"><ele>234.8</ele><time>2026-04-22T13:55:46.612Z</time></trkpt><trkpt lat="43.624885" lon="13.00463"><ele>235.4</ele><time>2026-04-22T13:55:47.612Z</time></trkpt><trkpt lat="43.6248267" lon="13.0047333"><ele>236.0</ele><time>2026-04-22T13:55:48.612Z</time></trkpt><trkpt lat="43.624755" lon="13.0048367"><ele>236.0</ele><time>2026-04-22T13:55:49.612Z</time></trkpt><trkpt lat="43.62468" lon="13.0049333"><ele>236.00000000000003</ele><time>2026-04-22T13:55:50.612Z</time></trkpt><trkpt lat="43.6246033" lon="13.0050217"><ele>236.00000000000003</ele><time>2026-04-22T13:55:51.612Z</time></trkpt><trkpt lat="43.6245167" lon="13.0051067"><ele>236.0</ele><time>2026-04-22T13:55:52.612Z</time></trkpt><trkpt lat="43.624425" lon="13.0051733"><ele>236.0</ele><time>2026-04-22T13:55:53.612Z</time></trkpt><trkpt lat="43.6243217" lon="13.0052317"><ele>236.4</ele><time>2026-04-22T13:55:54.612Z</time></trkpt><trkpt lat="43.624225" lon="13.00528"><ele>236.8</ele><time>2026-04-22T13:55:55.612Z</time></trkpt><trkpt lat="43.6241317" lon="13.005335"><ele>237.20000000000002</ele><time>2026-04-22T13:55:56.612Z</time></trkpt><trkpt lat="43.6240267" lon="13.0053917"><ele>237.60000000000002</ele><time>2026-04-22T13:55:57.612Z</time></trkpt><trkpt lat="43.6239267" lon="13.0054533"><ele>238.0</ele><time>2026-04-22T13:55:58.612Z</time></trkpt><trkpt lat="43.623835" lon="13.0055267"><ele>237.99999999999997</ele><time>2026-04-22T13:55:59.613Z</time></trkpt><trkpt lat="43.6237633" lon="13.0056"><ele>238.0</ele><time>2026-04-22T13:56:00.612Z</time></trkpt><trkpt lat="43.6237033" lon="13.0056683"><ele>238.0</ele><time>2026-04-22T13:56:01.612Z</time></trkpt><trkpt lat="43.6236467" lon="13.0057267"><ele>238.0</ele><time>2026-04-22T13:56:02.612Z</time></trkpt><trkpt lat="43.6235867" lon="13.005775"><ele>237.99999999999997</ele><time>2026-04-22T13:56:03.612Z</time></trkpt><trkpt lat="43.623515" lon="13.0058183"><ele>238.0</ele><time>2026-04-22T13:56:04.612Z</time></trkpt><trkpt lat="43.6234467" lon="13.0058517"><ele>238.8</ele><time>2026-04-22T13:56:05.612Z</time></trkpt><trkpt lat="43.6233783" lon="13.0058817"><ele>239.60000000000002</ele><time>2026-04-22T13:56:06.612Z</time></trkpt><trkpt lat="43.623255" lon="13.0059417"><ele>240.39999999999998</ele><time>2026-04-22T13:56:08.612Z</time></trkpt><trkpt lat="43.62318" lon="13.0059833"><ele>241.2</ele><time>2026-04-22T13:56:09.613Z</time></trkpt><trkpt lat="43.6230933" lon="13.006035"><ele>242.0</ele><time>2026-04-22T13:56:10.613Z</time></trkpt><trkpt lat="43.623" lon="13.006095"><ele>242.0</ele><time>2026-04-22T13:56:11.612Z</time></trkpt><trkpt lat="43.6229067" lon="13.0061467"><ele>242.0</ele><time>2026-04-22T13:56:12.612Z</time></trkpt><trkpt lat="43.6228167" lon="13.0062"><ele>242.0</ele><time>2026-04-22T13:56:13.612Z</time></trkpt><trkpt lat="43.6227267" lon="13.0062533"><ele>242.0</ele><time>2026-04-22T13:56:14.612Z</time></trkpt><trkpt lat="43.6226333" lon="13.006315"><ele>242.0</ele><time>2026-04-22T13:56:15.612Z</time></trkpt><trkpt lat="43.6225483" lon="13.0063867"><ele>241.39999999999998</ele><time>2026-04-22T13:56:16.612Z</time></trkpt><trkpt lat="43.6224617" lon="13.0064667"><ele>240.79999999999998</ele><time>2026-04-22T13:56:17.612Z</time></trkpt><trkpt lat="43.62237" lon="13.00655"><ele>240.2</ele><time>2026-04-22T13:56:18.612Z</time></trkpt><trkpt lat="43.6222817" lon="13.0066267"><ele>239.6</ele><time>2026-04-22T13:56:19.613Z</time></trkpt><trkpt lat="43.6221883" lon="13.0067"><ele>239.0</ele><time>2026-04-22T13:56:20.612Z</time></trkpt><trkpt lat="43.6220933" lon="13.0067833"><ele>239.00000000000003</ele><time>2026-04-22T13:56:21.612Z</time></trkpt><trkpt lat="43.6220067" lon="13.0068567"><ele>239.0</ele><time>2026-04-22T13:56:22.612Z</time></trkpt><trkpt lat="43.6219317" lon="13.0069167"><ele>239.0</ele><time>2026-04-22T13:56:23.612Z</time></trkpt><trkpt lat="43.6218567" lon="13.006975"><ele>239.0</ele><time>2026-04-22T13:56:24.613Z</time></trkpt><trkpt lat="43.621785" lon="13.0070233"><ele>239.00000000000003</ele><time>2026-04-22T13:56:25.612Z</time></trkpt><trkpt lat="43.6217083" lon="13.0070733"><ele>239.0</ele><time>2026-04-22T13:56:26.612Z</time></trkpt><trkpt lat="43.6216333" lon="13.00713"><ele>237.39999999999998</ele><time>2026-04-22T13:56:27.612Z</time></trkpt><trkpt lat="43.6215483" lon="13.0071983"><ele>235.79999999999998</ele><time>2026-04-22T13:56:28.612Z</time></trkpt><trkpt lat="43.62146" lon="13.0072683"><ele>234.20000000000002</ele><time>2026-04-22T13:56:29.612Z</time></trkpt><trkpt lat="43.6213717" lon="13.00734"><ele>232.60000000000002</ele><time>2026-04-22T13:56:30.612Z</time></trkpt><trkpt lat="43.6212783" lon="13.0074117"><ele>231.0</ele><time>2026-04-22T13:56:31.612Z</time></trkpt><trkpt lat="43.6211883" lon="13.00748"><ele>231.20000000000002</ele><time>2026-04-22T13:56:32.612Z</time></trkpt><trkpt lat="43.6210967" lon="13.0075467"><ele>231.40000000000003</ele><time>2026-04-22T13:56:33.612Z</time></trkpt><trkpt lat="43.6210083" lon="13.0076167"><ele>231.6</ele><time>2026-04-22T13:56:34.612Z</time></trkpt><trkpt lat="43.6209117" lon="13.0076967"><ele>231.8</ele><time>2026-04-22T13:56:35.612Z</time></trkpt><trkpt lat="43.6208233" lon="13.0077633"><ele>232.0</ele><time>2026-04-22T13:56:36.612Z</time></trkpt><trkpt lat="43.620735" lon="13.007825"><ele>232.0</ele><time>2026-04-22T13:56:37.612Z</time></trkpt><trkpt lat="43.620645" lon="13.0078867"><ele>232.0</ele><time>2026-04-22T13:56:38.612Z</time></trkpt><trkpt lat="43.6205533" lon="13.0079367"><ele>232.0</ele><time>2026-04-22T13:56:39.612Z</time></trkpt><trkpt lat="43.6204517" lon="13.0079867"><ele>232.0</ele><time>2026-04-22T13:56:40.612Z</time></trkpt><trkpt lat="43.6203467" lon="13.0080183"><ele>232.0</ele><time>2026-04-22T13:56:41.612Z</time></trkpt><trkpt lat="43.62024" lon="13.0080333"><ele>231.0</ele><time>2026-04-22T13:56:42.612Z</time></trkpt><trkpt lat="43.6201283" lon="13.0080383"><ele>230.0</ele><time>2026-04-22T13:56:43.613Z</time></trkpt><trkpt lat="43.6200117" lon="13.0080167"><ele>229.0</ele><time>2026-04-22T13:56:44.612Z</time></trkpt><trkpt lat="43.6198967" lon="13.007995"><ele>228.0</ele><time>2026-04-22T13:56:45.612Z</time></trkpt><trkpt lat="43.61977" lon="13.007985"><ele>228.0</ele><time>2026-04-22T13:56:46.612Z</time></trkpt><trkpt lat="43.6196517" lon="13.0079767"><ele>228.0</ele><time>2026-04-22T13:56:47.612Z</time></trkpt><trkpt lat="43.6195367" lon="13.0079767"><ele>228.0</ele><time>2026-04-22T13:56:48.612Z</time></trkpt><trkpt lat="43.6194217" lon="13.0079833"><ele>228.0</ele><time>2026-04-22T13:56:49.612Z</time></trkpt><trkpt lat="43.6193" lon="13.0080017"><ele>227.75</ele><time>2026-04-22T13:56:50.612Z</time></trkpt><trkpt lat="43.61918" lon="13.0080433"><ele>227.5</ele><time>2026-04-22T13:56:51.613Z</time></trkpt><trkpt lat="43.6190617" lon="13.0080867"><ele>227.25</ele><time>2026-04-22T13:56:52.612Z</time></trkpt><trkpt lat="43.618945" lon="13.0081333"><ele>227.0</ele><time>2026-04-22T13:56:53.612Z</time></trkpt><trkpt lat="43.6188383" lon="13.00818"><ele>227.0</ele><time>2026-04-22T13:56:54.612Z</time></trkpt><trkpt lat="43.6187417" lon="13.0082183"><ele>227.0</ele><time>2026-04-22T13:56:55.612Z</time></trkpt><trkpt lat="43.6186417" lon="13.00826"><ele>227.0</ele><time>2026-04-22T13:56:56.612Z</time></trkpt><trkpt lat="43.6185333" lon="13.0082983"><ele>227.0</ele><time>2026-04-22T13:56:57.612Z</time></trkpt><trkpt lat="43.6184217" lon="13.0083333"><ele>227.0</ele><time>2026-04-22T13:56:58.612Z</time></trkpt><trkpt lat="43.6183133" lon="13.0083617"><ele>225.6</ele><time>2026-04-22T13:56:59.612Z</time></trkpt><trkpt lat="43.6182017" lon="13.00839"><ele>224.2</ele><time>2026-04-22T13:57:00.612Z</time></trkpt><trkpt lat="43.6180983" lon="13.0084183"><ele>222.8</ele><time>2026-04-22T13:57:01.612Z</time></trkpt><trkpt lat="43.6179967" lon="13.008445"><ele>221.4</ele><time>2026-04-22T13:57:02.612Z</time></trkpt><trkpt lat="43.6178983" lon="13.0084683"><ele>220.0</ele><time>2026-04-22T13:57:03.612Z</time></trkpt><trkpt lat="43.6178017" lon="13.008485"><ele>219.0</ele><time>2026-04-22T13:57:04.612Z</time></trkpt><trkpt lat="43.617705" lon="13.0085"><ele>218.0</ele><time>2026-04-22T13:57:05.612Z</time></trkpt><trkpt lat="43.6176017" lon="13.0085133"><ele>217.0</ele><time>2026-04-22T13:57:06.612Z</time></trkpt><trkpt lat="43.6175017" lon="13.0085233"><ele>216.0</ele><time>2026-04-22T13:57:07.612Z</time></trkpt><trkpt lat="43.6174033" lon="13.0085333"><ele>215.0</ele><time>2026-04-22T13:57:08.612Z</time></trkpt><trkpt lat="43.6173117" lon="13.008545"><ele>215.00000000000003</ele><time>2026-04-22T13:57:09.612Z</time></trkpt><trkpt lat="43.6172233" lon="13.008555"><ele>215.0</ele><time>2026-04-22T13:57:10.612Z</time></trkpt><trkpt lat="43.6171417" lon="13.0085717"><ele>215.0</ele><time>2026-04-22T13:57:11.612Z</time></trkpt><trkpt lat="43.6170617" lon="13.0085983"><ele>215.0</ele><time>2026-04-22T13:57:12.612Z</time></trkpt><trkpt lat="43.6169783" lon="13.00862"><ele>215.00000000000003</ele><time>2026-04-22T13:57:13.612Z</time></trkpt><trkpt lat="43.6168867" lon="13.0086517"><ele>215.0</ele><time>2026-04-22T13:57:14.612Z</time></trkpt><trkpt lat="43.61679" lon="13.0086883"><ele>212.8</ele><time>2026-04-22T13:57:15.612Z</time></trkpt><trkpt lat="43.6166917" lon="13.0087233"><ele>210.6</ele><time>2026-04-22T13:57:16.612Z</time></trkpt><trkpt lat="43.6165967" lon="13.0087567"><ele>208.39999999999998</ele><time>2026-04-22T13:57:17.613Z</time></trkpt><trkpt lat="43.6165033" lon="13.008795"><ele>206.2</ele><time>2026-04-22T13:57:18.612Z</time></trkpt><trkpt lat="43.6164117" lon="13.0088467"><ele>204.0</ele><time>2026-04-22T13:57:19.612Z</time></trkpt><trkpt lat="43.6163217" lon="13.008895"><ele>204.0</ele><time>2026-04-22T13:57:20.612Z</time></trkpt><trkpt lat="43.6162283" lon="13.008945"><ele>204.0</ele><time>2026-04-22T13:57:21.612Z</time></trkpt><trkpt lat="43.6161267" lon="13.0089917"><ele>204.0</ele><time>2026-04-22T13:57:22.612Z</time></trkpt><trkpt lat="43.6160217" lon="13.009045"><ele>204.0</ele><time>2026-04-22T13:57:23.612Z</time></trkpt><trkpt lat="43.61592" lon="13.009095"><ele>204.0</ele><time>2026-04-22T13:57:24.613Z</time></trkpt><trkpt lat="43.61582" lon="13.009145"><ele>202.79999999999998</ele><time>2026-04-22T13:57:25.612Z</time></trkpt><trkpt lat="43.6157167" lon="13.0091967"><ele>201.6</ele><time>2026-04-22T13:57:26.613Z</time></trkpt><trkpt lat="43.6156083" lon="13.009245"><ele>200.4</ele><time>2026-04-22T13:57:27.612Z</time></trkpt><trkpt lat="43.6155067" lon="13.0092917"><ele>199.2</ele><time>2026-04-22T13:57:28.612Z</time></trkpt><trkpt lat="43.6154183" lon="13.0093317"><ele>198.0</ele><time>2026-04-22T13:57:29.612Z</time></trkpt><trkpt lat="43.615335" lon="13.0093567"><ele>196.83333333333334</ele><time>2026-04-22T13:57:30.612Z</time></trkpt><trkpt lat="43.61525" lon="13.0093817"><ele>195.66666666666666</ele><time>2026-04-22T13:57:31.612Z</time></trkpt><trkpt lat="43.615175" lon="13.009395"><ele>194.5</ele><time>2026-04-22T13:57:32.613Z</time></trkpt><trkpt lat="43.6151017" lon="13.0094033"><ele>193.33333333333331</ele><time>2026-04-22T13:57:33.612Z</time></trkpt><trkpt lat="43.61503" lon="13.0094133"><ele>192.16666666666666</ele><time>2026-04-22T13:57:34.612Z</time></trkpt><trkpt lat="43.6149317" lon="13.0094267"><ele>191.0</ele><time>2026-04-22T13:57:36.613Z</time></trkpt><trkpt lat="43.61484" lon="13.0094817"><ele>191.0</ele><time>2026-04-22T13:58:35.612Z</time></trkpt><trkpt lat="43.6147817" lon="13.0095333"><ele>191.0</ele><time>2026-04-22T13:58:36.612Z</time></trkpt><trkpt lat="43.6147183" lon="13.0095783"><ele>191.0</ele><time>2026-04-22T13:58:37.612Z</time></trkpt><trkpt lat="43.6146483" lon="13.0096183"><ele>191.0</ele><time>2026-04-22T13:58:38.612Z</time></trkpt><trkpt lat="43.6145783" lon="13.00967"><ele>191.0</ele><time>2026-04-22T13:58:39.612Z</time></trkpt><trkpt lat="43.6144933" lon="13.0097233"><ele>191.0</ele><time>2026-04-22T13:58:40.612Z</time></trkpt><trkpt lat="43.614415" lon="13.0097683"><ele>191.20000000000002</ele><time>2026-04-22T13:58:41.613Z</time></trkpt><trkpt lat="43.6143283" lon="13.00983"><ele>191.4</ele><time>2026-04-22T13:58:42.612Z</time></trkpt><trkpt lat="43.6142317" lon="13.009885"><ele>191.6</ele><time>2026-04-22T13:58:43.613Z</time></trkpt><trkpt lat="43.6141233" lon="13.009945"><ele>191.8</ele><time>2026-04-22T13:58:44.612Z</time></trkpt><trkpt lat="43.6140083" lon="13.0100067"><ele>192.0</ele><time>2026-04-22T13:58:45.612Z</time></trkpt><trkpt lat="43.6139133" lon="13.010065"><ele>192.0</ele><time>2026-04-22T13:58:46.612Z</time></trkpt><trkpt lat="43.613825" lon="13.010115"><ele>192.0</ele><time>2026-04-22T13:58:47.612Z</time></trkpt><trkpt lat="43.6137517" lon="13.0101667"><ele>192.0</ele><time>2026-04-22T13:58:48.612Z</time></trkpt><trkpt lat="43.6136933" lon="13.0102217"><ele>192.0</ele><time>2026-04-22T13:58:49.612Z</time></trkpt><trkpt lat="43.61364" lon="13.0102767"><ele>192.0</ele><time>2026-04-22T13:58:50.612Z</time></trkpt><trkpt lat="43.6135833" lon="13.01034"><ele>192.0</ele><time>2026-04-22T13:58:51.612Z</time></trkpt><trkpt lat="43.61352" lon="13.0103967"><ele>192.42857142857142</ele><time>2026-04-22T13:58:52.612Z</time></trkpt><trkpt lat="43.613455" lon="13.010455"><ele>192.85714285714286</ele><time>2026-04-22T13:58:53.612Z</time></trkpt><trkpt lat="43.6133917" lon="13.0105167"><ele>193.28571428571428</ele><time>2026-04-22T13:58:54.612Z</time></trkpt><trkpt lat="43.6133317" lon="13.010565"><ele>193.71428571428572</ele><time>2026-04-22T13:58:55.612Z</time></trkpt><trkpt lat="43.6132717" lon="13.0106183"><ele>194.14285714285714</ele><time>2026-04-22T13:58:56.612Z</time></trkpt><trkpt lat="43.6132033" lon="13.0106667"><ele>194.57142857142856</ele><time>2026-04-22T13:58:57.612Z</time></trkpt><trkpt lat="43.6131367" lon="13.01071"><ele>195.0</ele><time>2026-04-22T13:58:58.612Z</time></trkpt><trkpt lat="43.6130667" lon="13.0107433"><ele>195.0</ele><time>2026-04-22T13:58:59.612Z</time></trkpt><trkpt lat="43.6129883" lon="13.0107617"><ele>195.0</ele><time>2026-04-22T13:59:00.612Z</time></trkpt><trkpt lat="43.61291" lon="13.010775"><ele>195.0</ele><time>2026-04-22T13:59:01.613Z</time></trkpt><trkpt lat="43.6128233" lon="13.010775"><ele>195.0</ele><time>2026-04-22T13:59:02.612Z</time></trkpt><trkpt lat="43.6127317" lon="13.0107767"><ele>195.0</ele><time>2026-04-22T13:59:03.612Z</time></trkpt><trkpt lat="43.61264" lon="13.0107667"><ele>195.0</ele><time>2026-04-22T13:59:04.612Z</time></trkpt><trkpt lat="43.612555" lon="13.01075"><ele>194.6</ele><time>2026-04-22T13:59:05.612Z</time></trkpt><trkpt lat="43.6124683" lon="13.0107283"><ele>194.2</ele><time>2026-04-22T13:59:06.612Z</time></trkpt><trkpt lat="43.6123667" lon="13.0107183"><ele>193.8</ele><time>2026-04-22T13:59:07.613Z</time></trkpt><trkpt lat="43.6122567" lon="13.0107333"><ele>193.4</ele><time>2026-04-22T13:59:08.612Z</time></trkpt><trkpt lat="43.6121433" lon="13.01076"><ele>193.0</ele><time>2026-04-22T13:59:09.612Z</time></trkpt><trkpt lat="43.6120317" lon="13.0108017"><ele>190.60000000000002</ele><time>2026-04-22T13:59:10.613Z</time></trkpt><trkpt lat="43.6119317" lon="13.0108533"><ele>188.20000000000002</ele><time>2026-04-22T13:59:11.612Z</time></trkpt><trkpt lat="43.6118317" lon="13.010915"><ele>185.8</ele><time>2026-04-22T13:59:12.612Z</time></trkpt><trkpt lat="43.6117317" lon="13.0109867"><ele>183.4</ele><time>2026-04-22T13:59:13.612Z</time></trkpt><trkpt lat="43.6116333" lon="13.0110583"><ele>181.0</ele><time>2026-04-22T13:59:14.612Z</time></trkpt><trkpt lat="43.611535" lon="13.0111317"><ele>181.0</ele><time>2026-04-22T13:59:15.612Z</time></trkpt><trkpt lat="43.6114383" lon="13.01121"><ele>181.0</ele><time>2026-04-22T13:59:16.612Z</time></trkpt><trkpt lat="43.61134" lon="13.01129"><ele>181.0</ele><time>2026-04-22T13:59:17.612Z</time></trkpt><trkpt lat="43.6112417" lon="13.011355"><ele>181.0</ele><time>2026-04-22T13:59:18.613Z</time></trkpt><trkpt lat="43.6111433" lon="13.0114233"><ele>181.0</ele><time>2026-04-22T13:59:19.612Z</time></trkpt><trkpt lat="43.6110317" lon="13.0114967"><ele>180.5</ele><time>2026-04-22T13:59:20.612Z</time></trkpt><trkpt lat="43.6109233" lon="13.0115683"><ele>180.0</ele><time>2026-04-22T13:59:21.612Z</time></trkpt><trkpt lat="43.6108183" lon="13.01165"><ele>179.5</ele><time>2026-04-22T13:59:22.613Z</time></trkpt><trkpt lat="43.6107183" lon="13.0117283"><ele>179.0</ele><time>2026-04-22T13:59:23.612Z</time></trkpt><trkpt lat="43.6106133" lon="13.0118117"><ele>178.0</ele><time>2026-04-22T13:59:24.612Z</time></trkpt><trkpt lat="43.6105083" lon="13.0118817"><ele>177.0</ele><time>2026-04-22T13:59:25.612Z</time></trkpt><trkpt lat="43.6104033" lon="13.0119483"><ele>176.0</ele><time>2026-04-22T13:59:26.613Z</time></trkpt><trkpt lat="43.6103" lon="13.0120167"><ele>175.0</ele><time>2026-04-22T13:59:27.612Z</time></trkpt><trkpt lat="43.6102033" lon="13.0120767"><ele>175.0</ele><time>2026-04-22T13:59:28.613Z</time></trkpt><trkpt lat="43.6101083" lon="13.0121283"><ele>175.0</ele><time>2026-04-22T13:59:29.612Z</time></trkpt><trkpt lat="43.610005" lon="13.0121667"><ele>175.0</ele><time>2026-04-22T13:59:30.612Z</time></trkpt><trkpt lat="43.609895" lon="13.0121983"><ele>175.0</ele><time>2026-04-22T13:59:31.612Z</time></trkpt><trkpt lat="43.609775" lon="13.0122217"><ele>175.0</ele><time>2026-04-22T13:59:32.612Z</time></trkpt><trkpt lat="43.6096517" lon="13.0122467"><ele>175.0</ele><time>2026-04-22T13:59:33.612Z</time></trkpt><trkpt lat="43.6095283" lon="13.0122783"><ele>175.0</ele><time>2026-04-22T13:59:34.612Z</time></trkpt><trkpt lat="43.609405" lon="13.01232"><ele>175.0</ele><time>2026-04-22T13:59:35.612Z</time></trkpt><trkpt lat="43.609285" lon="13.012365"><ele>175.0</ele><time>2026-04-22T13:59:36.612Z</time></trkpt><trkpt lat="43.60916" lon="13.0124083"><ele>174.5</ele><time>2026-04-22T13:59:37.612Z</time></trkpt><trkpt lat="43.6090383" lon="13.0124417"><ele>174.0</ele><time>2026-04-22T13:59:38.612Z</time></trkpt><trkpt lat="43.6089283" lon="13.0124767"><ele>173.5</ele><time>2026-04-22T13:59:39.612Z</time></trkpt><trkpt lat="43.6088217" lon="13.012515"><ele>173.0</ele><time>2026-04-22T13:59:40.612Z</time></trkpt><trkpt lat="43.60872" lon="13.0125517"><ele>172.60000000000002</ele><time>2026-04-22T13:59:41.612Z</time></trkpt><trkpt lat="43.6086233" lon="13.012595"><ele>172.20000000000002</ele><time>2026-04-22T13:59:42.612Z</time></trkpt><trkpt lat="43.6085283" lon="13.0126433"><ele>171.8</ele><time>2026-04-22T13:59:43.612Z</time></trkpt><trkpt lat="43.6084317" lon="13.01268"><ele>171.4</ele><time>2026-04-22T13:59:44.612Z</time></trkpt><trkpt lat="43.6083233" lon="13.012715"><ele>171.0</ele><time>2026-04-22T13:59:45.612Z</time></trkpt><trkpt lat="43.6082017" lon="13.01274"><ele>171.0</ele><time>2026-04-22T13:59:46.612Z</time></trkpt><trkpt lat="43.6080767" lon="13.0127617"><ele>171.0</ele><time>2026-04-22T13:59:47.612Z</time></trkpt><trkpt lat="43.6079467" lon="13.0127767"><ele>171.0</ele><time>2026-04-22T13:59:48.612Z</time></trkpt><trkpt lat="43.6078183" lon="13.0127867"><ele>171.0</ele><time>2026-04-22T13:59:49.612Z</time></trkpt><trkpt lat="43.6076883" lon="13.0128067"><ele>171.25</ele><time>2026-04-22T13:59:50.612Z</time></trkpt><trkpt lat="43.6075583" lon="13.0128267"><ele>171.5</ele><time>2026-04-22T13:59:51.612Z</time></trkpt><trkpt lat="43.607435" lon="13.0128583"><ele>171.75</ele><time>2026-04-22T13:59:52.612Z</time></trkpt><trkpt lat="43.607315" lon="13.0128867"><ele>172.0</ele><time>2026-04-22T13:59:53.612Z</time></trkpt><trkpt lat="43.6072083" lon="13.0129117"><ele>172.0</ele><time>2026-04-22T13:59:54.612Z</time></trkpt><trkpt lat="43.6071083" lon="13.01295"><ele>172.0</ele><time>2026-04-22T13:59:55.612Z</time></trkpt><trkpt lat="43.60701" lon="13.01298"><ele>172.0</ele><time>2026-04-22T13:59:56.612Z</time></trkpt><trkpt lat="43.60691" lon="13.0130017"><ele>172.0</ele><time>2026-04-22T13:59:57.612Z</time></trkpt><trkpt lat="43.6068133" lon="13.0130183"><ele>172.0</ele><time>2026-04-22T13:59:58.612Z</time></trkpt><trkpt lat="43.6067183" lon="13.0130417"><ele>172.0</ele><time>2026-04-22T13:59:59.612Z</time></trkpt><trkpt lat="43.6066267" lon="13.013075"><ele>172.0</ele><time>2026-04-22T14:00:00.612Z</time></trkpt><trkpt lat="43.6065383" lon="13.013095"><ele>172.0</ele><time>2026-04-22T14:00:01.612Z</time></trkpt><trkpt lat="43.6064433" lon="13.0131183"><ele>172.0</ele><time>2026-04-22T14:00:02.612Z</time></trkpt><trkpt lat="43.6063467" lon="13.0131383"><ele>172.0</ele><time>2026-04-22T14:00:03.612Z</time></trkpt><trkpt lat="43.606255" lon="13.01316"><ele>169.0</ele><time>2026-04-22T14:00:04.612Z</time></trkpt><trkpt lat="43.6061583" lon="13.013185"><ele>166.0</ele><time>2026-04-22T14:00:05.612Z</time></trkpt><trkpt lat="43.6060583" lon="13.0132083"><ele>163.0</ele><time>2026-04-22T14:00:06.611Z</time></trkpt><trkpt lat="43.6059583" lon="13.013235"><ele>160.0</ele><time>2026-04-22T14:00:07.611Z</time></trkpt><trkpt lat="43.6058567" lon="13.01326"><ele>157.0</ele><time>2026-04-22T14:00:08.611Z</time></trkpt><trkpt lat="43.6057517" lon="13.0132833"><ele>157.0</ele><time>2026-04-22T14:00:09.611Z</time></trkpt><trkpt lat="43.6056517" lon="13.0132983"><ele>157.0</ele><time>2026-04-22T14:00:10.611Z</time></trkpt><trkpt lat="43.6055567" lon="13.0133267"><ele>157.0</ele><time>2026-04-22T14:00:11.611Z</time></trkpt><trkpt lat="43.6054533" lon="13.01335"><ele>157.0</ele><time>2026-04-22T14:00:12.611Z</time></trkpt><trkpt lat="43.6053533" lon="13.01338"><ele>157.0</ele><time>2026-04-22T14:00:13.612Z</time></trkpt><trkpt lat="43.60525" lon="13.0134117"><ele>153.4</ele><time>2026-04-22T14:00:14.611Z</time></trkpt><trkpt lat="43.6051467" lon="13.0134467"><ele>149.79999999999998</ele><time>2026-04-22T14:00:15.612Z</time></trkpt><trkpt lat="43.60504" lon="13.01348"><ele>146.2</ele><time>2026-04-22T14:00:16.611Z</time></trkpt><trkpt lat="43.6049317" lon="13.0135133"><ele>142.6</ele><time>2026-04-22T14:00:17.611Z</time></trkpt><trkpt lat="43.60482" lon="13.01354"><ele>139.0</ele><time>2026-04-22T14:00:18.612Z</time></trkpt><trkpt lat="43.6047117" lon="13.013575"><ele>139.0</ele><time>2026-04-22T14:00:19.611Z</time></trkpt><trkpt lat="43.6045983" lon="13.0136067"><ele>139.0</ele><time>2026-04-22T14:00:20.611Z</time></trkpt><trkpt lat="43.60449" lon="13.013635"><ele>139.0</ele><time>2026-04-22T14:00:21.612Z</time></trkpt><trkpt lat="43.6043783" lon="13.0136567"><ele>139.0</ele><time>2026-04-22T14:00:22.611Z</time></trkpt><trkpt lat="43.6042617" lon="13.0136867"><ele>136.5</ele><time>2026-04-22T14:00:23.611Z</time></trkpt><trkpt lat="43.6041417" lon="13.0137233"><ele>134.0</ele><time>2026-04-22T14:00:24.611Z</time></trkpt><trkpt lat="43.604025" lon="13.0137483"><ele>131.5</ele><time>2026-04-22T14:00:25.611Z</time></trkpt><trkpt lat="43.60391" lon="13.0137783"><ele>129.0</ele><time>2026-04-22T14:00:26.611Z</time></trkpt><trkpt lat="43.6037983" lon="13.0138083"><ele>129.0</ele><time>2026-04-22T14:00:27.611Z</time></trkpt><trkpt lat="43.6036917" lon="13.0138333"><ele>129.0</ele><time>2026-04-22T14:00:28.611Z</time></trkpt><trkpt lat="43.6035783" lon="13.0138667"><ele>129.0</ele><time>2026-04-22T14:00:29.611Z</time></trkpt><trkpt lat="43.60346" lon="13.0139083"><ele>129.0</ele><time>2026-04-22T14:00:30.611Z</time></trkpt><trkpt lat="43.60334" lon="13.0139417"><ele>127.5</ele><time>2026-04-22T14:00:31.611Z</time></trkpt><trkpt lat="43.6032217" lon="13.01397"><ele>126.0</ele><time>2026-04-22T14:00:32.611Z</time></trkpt><trkpt lat="43.6031117" lon="13.014"><ele>124.5</ele><time>2026-04-22T14:00:33.611Z</time></trkpt><trkpt lat="43.60299" lon="13.0140283"><ele>123.0</ele><time>2026-04-22T14:00:34.611Z</time></trkpt><trkpt lat="43.602875" lon="13.0140567"><ele>122.0</ele><time>2026-04-22T14:00:35.612Z</time></trkpt><trkpt lat="43.6027517" lon="13.0140833"><ele>121.0</ele><time>2026-04-22T14:00:36.612Z</time></trkpt><trkpt lat="43.60264" lon="13.01412"><ele>120.0</ele><time>2026-04-22T14:00:37.612Z</time></trkpt><trkpt lat="43.6025283" lon="13.01416"><ele>119.0</ele><time>2026-04-22T14:00:38.611Z</time></trkpt><trkpt lat="43.6024183" lon="13.0141917"><ele>118.80000000000001</ele><time>2026-04-22T14:00:39.611Z</time></trkpt><trkpt lat="43.6023133" lon="13.0142167"><ele>118.60000000000001</ele><time>2026-04-22T14:00:40.611Z</time></trkpt><trkpt lat="43.6022017" lon="13.014245"><ele>118.4</ele><time>2026-04-22T14:00:41.611Z</time></trkpt><trkpt lat="43.6020967" lon="13.0142733"><ele>118.2</ele><time>2026-04-22T14:00:42.611Z</time></trkpt><trkpt lat="43.6019983" lon="13.014305"><ele>118.0</ele><time>2026-04-22T14:00:43.611Z</time></trkpt><trkpt lat="43.6019067" lon="13.014335"><ele>117.4</ele><time>2026-04-22T14:00:44.611Z</time></trkpt><trkpt lat="43.6018217" lon="13.0143533"><ele>116.80000000000001</ele><time>2026-04-22T14:00:45.611Z</time></trkpt><trkpt lat="43.60175" lon="13.0143767"><ele>116.2</ele><time>2026-04-22T14:00:46.611Z</time></trkpt><trkpt lat="43.60165" lon="13.01442"><ele>115.6</ele><time>2026-04-22T14:00:48.612Z</time></trkpt><trkpt lat="43.6016067" lon="13.0144967"><ele>115.0</ele><time>2026-04-22T14:00:50.611Z</time></trkpt><trkpt lat="43.6016167" lon="13.0146633"><ele>115.0</ele><time>2026-04-22T14:00:52.611Z</time></trkpt><trkpt lat="43.6016483" lon="13.0147717"><ele>115.0</ele><time>2026-04-22T14:00:53.611Z</time></trkpt><trkpt lat="43.6016867" lon="13.01491"><ele>115.0</ele><time>2026-04-22T14:00:54.611Z</time></trkpt><trkpt lat="43.6017267" lon="13.0150533"><ele>115.0</ele><time>2026-04-22T14:00:55.611Z</time></trkpt><trkpt lat="43.60177" lon="13.01521"><ele>115.0</ele><time>2026-04-22T14:00:56.611Z</time></trkpt><trkpt lat="43.6018233" lon="13.01539"><ele>114.75</ele><time>2026-04-22T14:00:57.611Z</time></trkpt><trkpt lat="43.6018733" lon="13.01557"><ele>114.5</ele><time>2026-04-22T14:00:58.611Z</time></trkpt><trkpt lat="43.601925" lon="13.0157467"><ele>114.25</ele><time>2026-04-22T14:00:59.611Z</time></trkpt><trkpt lat="43.6019733" lon="13.0159367"><ele>114.0</ele><time>2026-04-22T14:01:00.611Z</time></trkpt><trkpt lat="43.60202" lon="13.0161283"><ele>115.75</ele><time>2026-04-22T14:01:01.611Z</time></trkpt><trkpt lat="43.6020617" lon="13.0163217"><ele>117.5</ele><time>2026-04-22T14:01:02.611Z</time></trkpt><trkpt lat="43.602105" lon="13.0165167"><ele>119.25</ele><time>2026-04-22T14:01:03.611Z</time></trkpt><trkpt lat="43.60215" lon="13.0167017"><ele>121.0</ele><time>2026-04-22T14:01:04.611Z</time></trkpt><trkpt lat="43.60219" lon="13.0169"><ele>121.0</ele><time>2026-04-22T14:01:05.611Z</time></trkpt><trkpt lat="43.6022217" lon="13.0171033"><ele>121.0</ele><time>2026-04-22T14:01:06.611Z</time></trkpt><trkpt lat="43.6022467" lon="13.01732"><ele>121.0</ele><time>2026-04-22T14:01:07.611Z</time></trkpt><trkpt lat="43.6022617" lon="13.0175467"><ele>121.0</ele><time>2026-04-22T14:01:08.611Z</time></trkpt><trkpt lat="43.6022783" lon="13.0177767"><ele>121.0</ele><time>2026-04-22T14:01:09.611Z</time></trkpt><trkpt lat="43.6022917" lon="13.01801"><ele>121.0</ele><time>2026-04-22T14:01:10.612Z</time></trkpt><trkpt lat="43.6022983" lon="13.0182467"><ele>119.0</ele><time>2026-04-22T14:01:11.611Z</time></trkpt><trkpt lat="43.6022983" lon="13.0184833"><ele>117.0</ele><time>2026-04-22T14:01:12.612Z</time></trkpt><trkpt lat="43.6023017" lon="13.0187183"><ele>115.0</ele><time>2026-04-22T14:01:13.611Z</time></trkpt><trkpt lat="43.6023" lon="13.0189533"><ele>114.0</ele><time>2026-04-22T14:01:14.611Z</time></trkpt><trkpt lat="43.6022983" lon="13.0191883"><ele>113.0</ele><time>2026-04-22T14:01:15.611Z</time></trkpt><trkpt lat="43.6023" lon="13.0194183"><ele>112.0</ele><time>2026-04-22T14:01:16.611Z</time></trkpt><trkpt lat="43.6023" lon="13.0196533"><ele>112.0</ele><time>2026-04-22T14:01:17.611Z</time></trkpt><trkpt lat="43.602305" lon="13.0198717"><ele>112.0</ele><time>2026-04-22T14:01:18.611Z</time></trkpt><trkpt lat="43.60231" lon="13.02007"><ele>112.0</ele><time>2026-04-22T14:01:19.611Z</time></trkpt><trkpt lat="43.6023183" lon="13.0202583"><ele>112.0</ele><time>2026-04-22T14:01:20.611Z</time></trkpt><trkpt lat="43.6023283" lon="13.0204383"><ele>112.0</ele><time>2026-04-22T14:01:21.611Z</time></trkpt><trkpt lat="43.6023317" lon="13.0206133"><ele>112.0</ele><time>2026-04-22T14:01:22.612Z</time></trkpt><trkpt lat="43.60234" lon="13.02078"><ele>112.0</ele><time>2026-04-22T14:01:23.611Z</time></trkpt><trkpt lat="43.602365" lon="13.0209433"><ele>112.0</ele><time>2026-04-22T14:01:24.611Z</time></trkpt><trkpt lat="43.6024" lon="13.021105"><ele>112.0</ele><time>2026-04-22T14:01:25.611Z</time></trkpt><trkpt lat="43.6024533" lon="13.0212633"><ele>112.0</ele><time>2026-04-22T14:01:26.611Z</time></trkpt><trkpt lat="43.60252" lon="13.0214367"><ele>112.0</ele><time>2026-04-22T14:01:27.611Z</time></trkpt><trkpt lat="43.602585" lon="13.0216167"><ele>112.0</ele><time>2026-04-22T14:01:28.611Z</time></trkpt><trkpt lat="43.602665" lon="13.0217983"><ele>112.0</ele><time>2026-04-22T14:01:29.611Z</time></trkpt><trkpt lat="43.602735" lon="13.0219917"><ele>112.0</ele><time>2026-04-22T14:01:30.611Z</time></trkpt><trkpt lat="43.602815" lon="13.0221917"><ele>112.0</ele><time>2026-04-22T14:01:31.611Z</time></trkpt><trkpt lat="43.6028933" lon="13.0223983"><ele>111.66666666666667</ele><time>2026-04-22T14:01:32.611Z</time></trkpt><trkpt lat="43.60298" lon="13.0225983"><ele>111.33333333333334</ele><time>2026-04-22T14:01:33.611Z</time></trkpt><trkpt lat="43.6030783" lon="13.0227917"><ele>111.0</ele><time>2026-04-22T14:01:34.611Z</time></trkpt><trkpt lat="43.603185" lon="13.0229883"><ele>111.0</ele><time>2026-04-22T14:01:35.612Z</time></trkpt><trkpt lat="43.6032933" lon="13.023185"><ele>111.0</ele><time>2026-04-22T14:01:36.611Z</time></trkpt><trkpt lat="43.6034" lon="13.0233683"><ele>111.0</ele><time>2026-04-22T14:01:37.611Z</time></trkpt><trkpt lat="43.6035167" lon="13.0235467"><ele>110.66666666666666</ele><time>2026-04-22T14:01:38.611Z</time></trkpt><trkpt lat="43.6036433" lon="13.02373"><ele>110.33333333333333</ele><time>2026-04-22T14:01:39.611Z</time></trkpt><trkpt lat="43.6037683" lon="13.023905"><ele>110.0</ele><time>2026-04-22T14:01:40.611Z</time></trkpt><trkpt lat="43.6038967" lon="13.024085"><ele>110.33333333333333</ele><time>2026-04-22T14:01:41.611Z</time></trkpt><trkpt lat="43.6040217" lon="13.0242717"><ele>110.66666666666666</ele><time>2026-04-22T14:01:42.611Z</time></trkpt><trkpt lat="43.6041533" lon="13.0244567"><ele>111.0</ele><time>2026-04-22T14:01:43.612Z</time></trkpt><trkpt lat="43.604275" lon="13.0246483"><ele>111.0</ele><time>2026-04-22T14:01:44.611Z</time></trkpt><trkpt lat="43.604395" lon="13.024845"><ele>111.0</ele><time>2026-04-22T14:01:45.611Z</time></trkpt><trkpt lat="43.60452" lon="13.0250417"><ele>111.0</ele><time>2026-04-22T14:01:46.612Z</time></trkpt><trkpt lat="43.60465" lon="13.0252317"><ele>111.0</ele><time>2026-04-22T14:01:47.611Z</time></trkpt><trkpt lat="43.6047783" lon="13.025415"><ele>111.0</ele><time>2026-04-22T14:01:48.611Z</time></trkpt><trkpt lat="43.6049133" lon="13.0255933"><ele>111.0</ele><time>2026-04-22T14:01:49.612Z</time></trkpt><trkpt lat="43.605045" lon="13.02577"><ele>110.33333333333334</ele><time>2026-04-22T14:01:50.611Z</time></trkpt><trkpt lat="43.6051767" lon="13.02594"><ele>109.66666666666667</ele><time>2026-04-22T14:01:51.611Z</time></trkpt><trkpt lat="43.60531" lon="13.0261117"><ele>109.0</ele><time>2026-04-22T14:01:52.611Z</time></trkpt><trkpt lat="43.60544" lon="13.0262817"><ele>109.33333333333334</ele><time>2026-04-22T14:01:53.611Z</time></trkpt><trkpt lat="43.605565" lon="13.0264583"><ele>109.66666666666666</ele><time>2026-04-22T14:01:54.611Z</time></trkpt><trkpt lat="43.6056833" lon="13.0266333"><ele>110.0</ele><time>2026-04-22T14:01:55.611Z</time></trkpt><trkpt lat="43.6058" lon="13.02683"><ele>110.0</ele><time>2026-04-22T14:01:56.611Z</time></trkpt><trkpt lat="43.6059117" lon="13.0270383"><ele>110.0</ele><time>2026-04-22T14:01:57.611Z</time></trkpt><trkpt lat="43.606025" lon="13.027245"><ele>110.0</ele><time>2026-04-22T14:01:58.611Z</time></trkpt><trkpt lat="43.60614" lon="13.0274517"><ele>110.0</ele><time>2026-04-22T14:01:59.611Z</time></trkpt><trkpt lat="43.6062533" lon="13.0276617"><ele>110.0</ele><time>2026-04-22T14:02:00.611Z</time></trkpt><trkpt lat="43.60637" lon="13.027865"><ele>110.0</ele><time>2026-04-22T14:02:01.611Z</time></trkpt><trkpt lat="43.6064933" lon="13.0280583"><ele>110.0</ele><time>2026-04-22T14:02:02.611Z</time></trkpt><trkpt lat="43.6066233" lon="13.0282517"><ele>110.0</ele><time>2026-04-22T14:02:03.611Z</time></trkpt><trkpt lat="43.606755" lon="13.0284433"><ele>110.0</ele><time>2026-04-22T14:02:04.611Z</time></trkpt><trkpt lat="43.6068783" lon="13.0286383"><ele>110.0</ele><time>2026-04-22T14:02:05.611Z</time></trkpt><trkpt lat="43.6070067" lon="13.0288317"><ele>110.0</ele><time>2026-04-22T14:02:06.611Z</time></trkpt><trkpt lat="43.6071433" lon="13.0290267"><ele>110.0</ele><time>2026-04-22T14:02:07.611Z</time></trkpt><trkpt lat="43.6072783" lon="13.029215"><ele>110.0</ele><time>2026-04-22T14:02:08.611Z</time></trkpt><trkpt lat="43.6074233" lon="13.02939"><ele>110.0</ele><time>2026-04-22T14:02:09.611Z</time></trkpt><trkpt lat="43.60759" lon="13.0295483"><ele>110.0</ele><time>2026-04-22T14:02:10.611Z</time></trkpt><trkpt lat="43.6077533" lon="13.0296917"><ele>110.33333333333333</ele><time>2026-04-22T14:02:11.612Z</time></trkpt><trkpt lat="43.6079067" lon="13.0298517"><ele>110.66666666666666</ele><time>2026-04-22T14:02:12.611Z</time></trkpt><trkpt lat="43.6080617" lon="13.0300133"><ele>111.0</ele><time>2026-04-22T14:02:13.611Z</time></trkpt><trkpt lat="43.60821" lon="13.0301883"><ele>109.66666666666666</ele><time>2026-04-22T14:02:14.611Z</time></trkpt><trkpt lat="43.608355" lon="13.0303767"><ele>108.33333333333333</ele><time>2026-04-22T14:02:15.611Z</time></trkpt><trkpt lat="43.608495" lon="13.0305683"><ele>107.0</ele><time>2026-04-22T14:02:16.612Z</time></trkpt><trkpt lat="43.608645" lon="13.0307533"><ele>106.33333333333333</ele><time>2026-04-22T14:02:17.611Z</time></trkpt><trkpt lat="43.6088" lon="13.030925"><ele>105.66666666666666</ele><time>2026-04-22T14:02:18.612Z</time></trkpt><trkpt lat="43.6089533" lon="13.0310867"><ele>105.0</ele><time>2026-04-22T14:02:19.611Z</time></trkpt><trkpt lat="43.6091267" lon="13.03123"><ele>105.0</ele><time>2026-04-22T14:02:20.611Z</time></trkpt><trkpt lat="43.6093017" lon="13.0313633"><ele>105.0</ele><time>2026-04-22T14:02:21.611Z</time></trkpt><trkpt lat="43.6094783" lon="13.03149"><ele>105.0</ele><time>2026-04-22T14:02:22.611Z</time></trkpt><trkpt lat="43.60966" lon="13.03162"><ele>105.33333333333334</ele><time>2026-04-22T14:02:23.611Z</time></trkpt><trkpt lat="43.60984" lon="13.0317483"><ele>105.66666666666667</ele><time>2026-04-22T14:02:24.611Z</time></trkpt><trkpt lat="43.6100183" lon="13.03187"><ele>106.0</ele><time>2026-04-22T14:02:25.611Z</time></trkpt><trkpt lat="43.6101883" lon="13.031995"><ele>106.33333333333334</ele><time>2026-04-22T14:02:26.611Z</time></trkpt><trkpt lat="43.6103633" lon="13.0321217"><ele>106.66666666666666</ele><time>2026-04-22T14:02:27.611Z</time></trkpt><trkpt lat="43.6105283" lon="13.03226"><ele>107.0</ele><time>2026-04-22T14:02:28.612Z</time></trkpt><trkpt lat="43.6106867" lon="13.0323917"><ele>106.33333333333333</ele><time>2026-04-22T14:02:29.611Z</time></trkpt><trkpt lat="43.610815" lon="13.0325417"><ele>105.66666666666666</ele><time>2026-04-22T14:02:30.612Z</time></trkpt><trkpt lat="43.6109267" lon="13.0327067"><ele>105.0</ele><time>2026-04-22T14:02:31.611Z</time></trkpt><trkpt lat="43.611005" lon="13.03289"><ele>105.0</ele><time>2026-04-22T14:02:32.611Z</time></trkpt><trkpt lat="43.6110583" lon="13.0330783"><ele>105.0</ele><time>2026-04-22T14:02:33.611Z</time></trkpt><trkpt lat="43.6110967" lon="13.0332833"><ele>105.0</ele><time>2026-04-22T14:02:34.611Z</time></trkpt><trkpt lat="43.6111333" lon="13.0335"><ele>104.66666666666666</ele><time>2026-04-22T14:02:35.611Z</time></trkpt><trkpt lat="43.6112067" lon="13.0336967"><ele>104.33333333333333</ele><time>2026-04-22T14:02:36.611Z</time></trkpt><trkpt lat="43.611295" lon="13.0338933"><ele>104.0</ele><time>2026-04-22T14:02:37.611Z</time></trkpt><trkpt lat="43.611405" lon="13.0340817"><ele>103.33333333333333</ele><time>2026-04-22T14:02:38.611Z</time></trkpt><trkpt lat="43.6115167" lon="13.0342767"><ele>102.66666666666666</ele><time>2026-04-22T14:02:39.611Z</time></trkpt><trkpt lat="43.6116267" lon="13.03448"><ele>102.0</ele><time>2026-04-22T14:02:40.612Z</time></trkpt><trkpt lat="43.61172" lon="13.0347017"><ele>102.0</ele><time>2026-04-22T14:02:41.611Z</time></trkpt><trkpt lat="43.611825" lon="13.0349317"><ele>102.0</ele><time>2026-04-22T14:02:42.611Z</time></trkpt><trkpt lat="43.6119267" lon="13.0351667"><ele>102.0</ele><time>2026-04-22T14:02:43.611Z</time></trkpt><trkpt lat="43.6120283" lon="13.03541"><ele>102.33333333333334</ele><time>2026-04-22T14:02:44.611Z</time></trkpt><trkpt lat="43.612135" lon="13.0356433"><ele>102.66666666666667</ele><time>2026-04-22T14:02:45.612Z</time></trkpt><trkpt lat="43.6122433" lon="13.0358717"><ele>103.0</ele><time>2026-04-22T14:02:46.611Z</time></trkpt><trkpt lat="43.6123583" lon="13.03608"><ele>103.0</ele><time>2026-04-22T14:02:47.611Z</time></trkpt><trkpt lat="43.612475" lon="13.0362733"><ele>103.0</ele><time>2026-04-22T14:02:48.612Z</time></trkpt><trkpt lat="43.61258" lon="13.036455"><ele>103.0</ele><time>2026-04-22T14:02:49.611Z</time></trkpt><trkpt lat="43.6126833" lon="13.0366317"><ele>103.0</ele><time>2026-04-22T14:02:50.611Z</time></trkpt><trkpt lat="43.6127817" lon="13.036805"><ele>103.0</ele><time>2026-04-22T14:02:51.611Z</time></trkpt><trkpt lat="43.612885" lon="13.0369767"><ele>103.0</ele><time>2026-04-22T14:02:52.611Z</time></trkpt><trkpt lat="43.6129917" lon="13.0371517"><ele>103.0</ele><time>2026-04-22T14:02:53.611Z</time></trkpt><trkpt lat="43.613105" lon="13.037325"><ele>103.0</ele><time>2026-04-22T14:02:54.611Z</time></trkpt><trkpt lat="43.6132333" lon="13.0374967"><ele>103.0</ele><time>2026-04-22T14:02:55.611Z</time></trkpt><trkpt lat="43.6133767" lon="13.0376567"><ele>102.66666666666667</ele><time>2026-04-22T14:02:56.611Z</time></trkpt><trkpt lat="43.6135317" lon="13.0378"><ele>102.33333333333334</ele><time>2026-04-22T14:02:57.612Z</time></trkpt><trkpt lat="43.6136783" lon="13.03793"><ele>102.0</ele><time>2026-04-22T14:02:58.611Z</time></trkpt><trkpt lat="43.6138333" lon="13.0380533"><ele>102.0</ele><time>2026-04-22T14:02:59.612Z</time></trkpt><trkpt lat="43.6139983" lon="13.0381733"><ele>102.0</ele><time>2026-04-22T14:03:00.611Z</time></trkpt><trkpt lat="43.61417" lon="13.0382917"><ele>102.0</ele><time>2026-04-22T14:03:01.611Z</time></trkpt><trkpt lat="43.6143433" lon="13.0384133"><ele>101.33333333333334</ele><time>2026-04-22T14:03:02.611Z</time></trkpt><trkpt lat="43.61451" lon="13.0385367"><ele>100.66666666666667</ele><time>2026-04-22T14:03:03.611Z</time></trkpt><trkpt lat="43.6146733" lon="13.03867"><ele>100.0</ele><time>2026-04-22T14:03:04.611Z</time></trkpt><trkpt lat="43.614835" lon="13.038815"><ele>100.0</ele><time>2026-04-22T14:03:05.611Z</time></trkpt><trkpt lat="43.6149967" lon="13.0389683"><ele>100.0</ele><time>2026-04-22T14:03:06.611Z</time></trkpt><trkpt lat="43.6151533" lon="13.0391283"><ele>100.0</ele><time>2026-04-22T14:03:07.611Z</time></trkpt><trkpt lat="43.6153067" lon="13.0393"><ele>99.66666666666667</ele><time>2026-04-22T14:03:08.611Z</time></trkpt><trkpt lat="43.6154567" lon="13.03947"><ele>99.33333333333334</ele><time>2026-04-22T14:03:09.611Z</time></trkpt><trkpt lat="43.6156183" lon="13.0396383"><ele>99.0</ele><time>2026-04-22T14:03:10.611Z</time></trkpt><trkpt lat="43.6157767" lon="13.0398017"><ele>98.66666666666666</ele><time>2026-04-22T14:03:11.611Z</time></trkpt><trkpt lat="43.61593" lon="13.0399667"><ele>98.33333333333333</ele><time>2026-04-22T14:03:12.611Z</time></trkpt><trkpt lat="43.6160883" lon="13.04013"><ele>98.0</ele><time>2026-04-22T14:03:13.611Z</time></trkpt><trkpt lat="43.61625" lon="13.040285"><ele>97.66666666666666</ele><time>2026-04-22T14:03:14.611Z</time></trkpt><trkpt lat="43.6164117" lon="13.040445"><ele>97.33333333333334</ele><time>2026-04-22T14:03:15.611Z</time></trkpt><trkpt lat="43.616575" lon="13.0406"><ele>97.0</ele><time>2026-04-22T14:03:16.612Z</time></trkpt><trkpt lat="43.6167383" lon="13.040755"><ele>96.33333333333334</ele><time>2026-04-22T14:03:17.611Z</time></trkpt><trkpt lat="43.6169033" lon="13.0409"><ele>95.66666666666667</ele><time>2026-04-22T14:03:18.611Z</time></trkpt><trkpt lat="43.61707" lon="13.0410467"><ele>95.0</ele><time>2026-04-22T14:03:19.611Z</time></trkpt><trkpt lat="43.6172417" lon="13.0411867"><ele>94.33333333333334</ele><time>2026-04-22T14:03:20.611Z</time></trkpt><trkpt lat="43.617415" lon="13.0413183"><ele>93.66666666666667</ele><time>2026-04-22T14:03:21.611Z</time></trkpt><trkpt lat="43.6175917" lon="13.0414417"><ele>93.0</ele><time>2026-04-22T14:03:22.611Z</time></trkpt><trkpt lat="43.61778" lon="13.0415283"><ele>93.33333333333333</ele><time>2026-04-22T14:03:23.611Z</time></trkpt><trkpt lat="43.6179717" lon="13.0416117"><ele>93.66666666666666</ele><time>2026-04-22T14:03:24.611Z</time></trkpt><trkpt lat="43.6181517" lon="13.0417017"><ele>94.0</ele><time>2026-04-22T14:03:25.611Z</time></trkpt><trkpt lat="43.618335" lon="13.0418017"><ele>94.0</ele><time>2026-04-22T14:03:26.611Z</time></trkpt><trkpt lat="43.61851" lon="13.0419117"><ele>94.0</ele><time>2026-04-22T14:03:27.611Z</time></trkpt><trkpt lat="43.61867" lon="13.0420233"><ele>94.0</ele><time>2026-04-22T14:03:28.612Z</time></trkpt><trkpt lat="43.6188283" lon="13.0421417"><ele>94.0</ele><time>2026-04-22T14:03:29.611Z</time></trkpt><trkpt lat="43.6189867" lon="13.042265"><ele>94.0</ele><time>2026-04-22T14:03:30.611Z</time></trkpt><trkpt lat="43.6191483" lon="13.04238"><ele>94.0</ele><time>2026-04-22T14:03:31.611Z</time></trkpt><trkpt lat="43.61931" lon="13.0424867"><ele>94.0</ele><time>2026-04-22T14:03:32.611Z</time></trkpt><trkpt lat="43.6194817" lon="13.0425883"><ele>94.0</ele><time>2026-04-22T14:03:33.611Z</time></trkpt><trkpt lat="43.6196517" lon="13.0426867"><ele>94.0</ele><time>2026-04-22T14:03:34.611Z</time></trkpt><trkpt lat="43.619825" lon="13.0427833"><ele>93.66666666666666</ele><time>2026-04-22T14:03:35.611Z</time></trkpt><trkpt lat="43.6200017" lon="13.0428733"><ele>93.33333333333333</ele><time>2026-04-22T14:03:36.611Z</time></trkpt><trkpt lat="43.6201817" lon="13.0429583"><ele>93.0</ele><time>2026-04-22T14:03:37.612Z</time></trkpt><trkpt lat="43.620365" lon="13.04303"><ele>92.66666666666667</ele><time>2026-04-22T14:03:38.611Z</time></trkpt><trkpt lat="43.620545" lon="13.0431067"><ele>92.33333333333334</ele><time>2026-04-22T14:03:39.611Z</time></trkpt><trkpt lat="43.6207267" lon="13.0431817"><ele>92.0</ele><time>2026-04-22T14:03:40.611Z</time></trkpt><trkpt lat="43.6209067" lon="13.0432567"><ele>91.33333333333334</ele><time>2026-04-22T14:03:41.611Z</time></trkpt><trkpt lat="43.62109" lon="13.0433233"><ele>90.66666666666667</ele><time>2026-04-22T14:03:42.611Z</time></trkpt><trkpt lat="43.6212767" lon="13.0433883"><ele>90.0</ele><time>2026-04-22T14:03:43.611Z</time></trkpt><trkpt lat="43.6214617" lon="13.0434533"><ele>89.0</ele><time>2026-04-22T14:03:44.611Z</time></trkpt><trkpt lat="43.6216433" lon="13.0435183"><ele>88.0</ele><time>2026-04-22T14:03:45.611Z</time></trkpt><trkpt lat="43.621805" lon="13.0435833"><ele>87.0</ele><time>2026-04-22T14:03:46.611Z</time></trkpt><trkpt lat="43.62196" lon="13.0436467"><ele>87.0</ele><time>2026-04-22T14:03:47.611Z</time></trkpt><trkpt lat="43.6221067" lon="13.0437383"><ele>87.0</ele><time>2026-04-22T14:03:48.611Z</time></trkpt><trkpt lat="43.62225" lon="13.0438633"><ele>87.0</ele><time>2026-04-22T14:03:49.611Z</time></trkpt><trkpt lat="43.6223783" lon="13.0440183"><ele>86.33333333333333</ele><time>2026-04-22T14:03:50.611Z</time></trkpt><trkpt lat="43.6225017" lon="13.0441917"><ele>85.66666666666666</ele><time>2026-04-22T14:03:51.611Z</time></trkpt><trkpt lat="43.622635" lon="13.0443783"><ele>85.0</ele><time>2026-04-22T14:03:52.611Z</time></trkpt><trkpt lat="43.6227683" lon="13.0445583"><ele>86.33333333333333</ele><time>2026-04-22T14:03:53.611Z</time></trkpt><trkpt lat="43.62289" lon="13.0447317"><ele>87.66666666666667</ele><time>2026-04-22T14:03:54.612Z</time></trkpt><trkpt lat="43.6230083" lon="13.0448983"><ele>89.0</ele><time>2026-04-22T14:03:55.611Z</time></trkpt><trkpt lat="43.6231267" lon="13.0450517"><ele>89.0</ele><time>2026-04-22T14:03:56.611Z</time></trkpt><trkpt lat="43.6232383" lon="13.0452033"><ele>89.0</ele><time>2026-04-22T14:03:57.611Z</time></trkpt><trkpt lat="43.623355" lon="13.045345"><ele>89.0</ele><time>2026-04-22T14:03:58.612Z</time></trkpt><trkpt lat="43.6234867" lon="13.045475"><ele>89.0</ele><time>2026-04-22T14:03:59.612Z</time></trkpt><trkpt lat="43.6236167" lon="13.0455783"><ele>89.0</ele><time>2026-04-22T14:04:00.611Z</time></trkpt><trkpt lat="43.6237533" lon="13.0456883"><ele>89.0</ele><time>2026-04-22T14:04:01.611Z</time></trkpt><trkpt lat="43.6238883" lon="13.0457933"><ele>88.5</ele><time>2026-04-22T14:04:02.611Z</time></trkpt><trkpt lat="43.62403" lon="13.04588"><ele>88.0</ele><time>2026-04-22T14:04:03.611Z</time></trkpt><trkpt lat="43.6241683" lon="13.04596"><ele>87.5</ele><time>2026-04-22T14:04:04.611Z</time></trkpt><trkpt lat="43.6242967" lon="13.04603"><ele>87.0</ele><time>2026-04-22T14:04:05.611Z</time></trkpt><trkpt lat="43.6244233" lon="13.046105"><ele>87.0</ele><time>2026-04-22T14:04:06.611Z</time></trkpt><trkpt lat="43.6245433" lon="13.0461883"><ele>87.0</ele><time>2026-04-22T14:04:07.612Z</time></trkpt><trkpt lat="43.62466" lon="13.0462717"><ele>87.0</ele><time>2026-04-22T14:04:08.611Z</time></trkpt><trkpt lat="43.62477" lon="13.046375"><ele>87.0</ele><time>2026-04-22T14:04:09.611Z</time></trkpt><trkpt lat="43.6248733" lon="13.04649"><ele>87.0</ele><time>2026-04-22T14:04:10.611Z</time></trkpt><trkpt lat="43.6249683" lon="13.0466233"><ele>87.0</ele><time>2026-04-22T14:04:11.611Z</time></trkpt><trkpt lat="43.625055" lon="13.0467917"><ele>87.0</ele><time>2026-04-22T14:04:12.611Z</time></trkpt><trkpt lat="43.6251467" lon="13.0469667"><ele>87.0</ele><time>2026-04-22T14:04:13.611Z</time></trkpt><trkpt lat="43.6252417" lon="13.0471433"><ele>87.0</ele><time>2026-04-22T14:04:14.611Z</time></trkpt><trkpt lat="43.625345" lon="13.04734"><ele>87.0</ele><time>2026-04-22T14:04:15.611Z</time></trkpt><trkpt lat="43.6254433" lon="13.0475333"><ele>87.0</ele><time>2026-04-22T14:04:16.611Z</time></trkpt><trkpt lat="43.6255317" lon="13.0477233"><ele>87.0</ele><time>2026-04-22T14:04:17.612Z</time></trkpt><trkpt lat="43.62561" lon="13.0479183"><ele>87.0</ele><time>2026-04-22T14:04:18.611Z</time></trkpt><trkpt lat="43.6256867" lon="13.0481133"><ele>87.0</ele><time>2026-04-22T14:04:19.611Z</time></trkpt><trkpt lat="43.625755" lon="13.0483183"><ele>86.66666666666667</ele><time>2026-04-22T14:04:20.611Z</time></trkpt><trkpt lat="43.6258167" lon="13.0485167"><ele>86.33333333333334</ele><time>2026-04-22T14:04:21.611Z</time></trkpt><trkpt lat="43.6258783" lon="13.048715"><ele>86.0</ele><time>2026-04-22T14:04:22.611Z</time></trkpt><trkpt lat="43.6259283" lon="13.0488983"><ele>86.0</ele><time>2026-04-22T14:04:23.612Z</time></trkpt><trkpt lat="43.625995" lon="13.0490717"><ele>86.0</ele><time>2026-04-22T14:04:24.611Z</time></trkpt><trkpt lat="43.62607" lon="13.0492333"><ele>86.0</ele><time>2026-04-22T14:04:25.611Z</time></trkpt><trkpt lat="43.62617" lon="13.0493883"><ele>86.0</ele><time>2026-04-22T14:04:26.611Z</time></trkpt><trkpt lat="43.62628" lon="13.049515"><ele>85.66666666666667</ele><time>2026-04-22T14:04:27.611Z</time></trkpt><trkpt lat="43.6263983" lon="13.0496333"><ele>85.33333333333333</ele><time>2026-04-22T14:04:28.611Z</time></trkpt><trkpt lat="43.6265317" lon="13.049745"><ele>85.0</ele><time>2026-04-22T14:04:29.611Z</time></trkpt><trkpt lat="43.6266517" lon="13.0498783"><ele>84.66666666666666</ele><time>2026-04-22T14:04:30.611Z</time></trkpt><trkpt lat="43.62678" lon="13.0500083"><ele>84.33333333333333</ele><time>2026-04-22T14:04:31.611Z</time></trkpt><trkpt lat="43.626915" lon="13.0501633"><ele>84.0</ele><time>2026-04-22T14:04:32.611Z</time></trkpt><trkpt lat="43.6270417" lon="13.050325"><ele>84.33333333333333</ele><time>2026-04-22T14:04:33.611Z</time></trkpt><trkpt lat="43.627175" lon="13.0504867"><ele>84.66666666666666</ele><time>2026-04-22T14:04:34.611Z</time></trkpt><trkpt lat="43.627315" lon="13.0506467"><ele>85.0</ele><time>2026-04-22T14:04:35.611Z</time></trkpt><trkpt lat="43.6274633" lon="13.0508017"><ele>85.0</ele><time>2026-04-22T14:04:36.611Z</time></trkpt><trkpt lat="43.627595" lon="13.0509633"><ele>85.0</ele><time>2026-04-22T14:04:37.611Z</time></trkpt><trkpt lat="43.6277333" lon="13.0511217"><ele>85.0</ele><time>2026-04-22T14:04:38.611Z</time></trkpt><trkpt lat="43.6278783" lon="13.0512767"><ele>84.66666666666666</ele><time>2026-04-22T14:04:39.611Z</time></trkpt><trkpt lat="43.6280167" lon="13.05143"><ele>84.33333333333333</ele><time>2026-04-22T14:04:40.611Z</time></trkpt><trkpt lat="43.628165" lon="13.0515933"><ele>84.0</ele><time>2026-04-22T14:04:41.612Z</time></trkpt><trkpt lat="43.62832" lon="13.051765"><ele>84.0</ele><time>2026-04-22T14:04:42.611Z</time></trkpt><trkpt lat="43.6284617" lon="13.0519267"><ele>84.0</ele><time>2026-04-22T14:04:43.611Z</time></trkpt><trkpt lat="43.628595" lon="13.0520783"><ele>84.0</ele><time>2026-04-22T14:04:44.611Z</time></trkpt><trkpt lat="43.6287267" lon="13.0522217"><ele>84.0</ele><time>2026-04-22T14:04:45.611Z</time></trkpt><trkpt lat="43.6288567" lon="13.0523667"><ele>84.0</ele><time>2026-04-22T14:04:46.611Z</time></trkpt><trkpt lat="43.62899" lon="13.0525117"><ele>84.0</ele><time>2026-04-22T14:04:47.611Z</time></trkpt><trkpt lat="43.6291233" lon="13.052665"><ele>84.0</ele><time>2026-04-22T14:04:48.611Z</time></trkpt><trkpt lat="43.6292617" lon="13.052815"><ele>84.0</ele><time>2026-04-22T14:04:49.611Z</time></trkpt><trkpt lat="43.629395" lon="13.052965"><ele>84.0</ele><time>2026-04-22T14:04:50.611Z</time></trkpt><trkpt lat="43.6295217" lon="13.053095"><ele>84.0</ele><time>2026-04-22T14:04:51.612Z</time></trkpt><trkpt lat="43.62964" lon="13.053235"><ele>84.0</ele><time>2026-04-22T14:04:52.611Z</time></trkpt><trkpt lat="43.6297567" lon="13.0533783"><ele>84.0</ele><time>2026-04-22T14:04:53.611Z</time></trkpt><trkpt lat="43.6298583" lon="13.0535417"><ele>84.0</ele><time>2026-04-22T14:04:54.611Z</time></trkpt><trkpt lat="43.6299433" lon="13.053725"><ele>84.0</ele><time>2026-04-22T14:04:55.611Z</time></trkpt><trkpt lat="43.6300217" lon="13.0539317"><ele>84.0</ele><time>2026-04-22T14:04:56.611Z</time></trkpt><trkpt lat="43.6300867" lon="13.0541417"><ele>83.33333333333333</ele><time>2026-04-22T14:04:57.611Z</time></trkpt><trkpt lat="43.6301433" lon="13.0543483"><ele>82.66666666666666</ele><time>2026-04-22T14:04:58.611Z</time></trkpt><trkpt lat="43.6301933" lon="13.054545"><ele>82.0</ele><time>2026-04-22T14:04:59.611Z</time></trkpt><trkpt lat="43.6302517" lon="13.0547233"><ele>82.0</ele><time>2026-04-22T14:05:00.611Z</time></trkpt><trkpt lat="43.6303167" lon="13.05488"><ele>82.0</ele><time>2026-04-22T14:05:01.611Z</time></trkpt><trkpt lat="43.63039" lon="13.05502"><ele>82.0</ele><time>2026-04-22T14:05:02.611Z</time></trkpt><trkpt lat="43.6304933" lon="13.0551467"><ele>82.0</ele><time>2026-04-22T14:05:03.611Z</time></trkpt><trkpt lat="43.6305983" lon="13.0552583"><ele>82.0</ele><time>2026-04-22T14:05:04.611Z</time></trkpt><trkpt lat="43.6307217" lon="13.0553617"><ele>82.0</ele><time>2026-04-22T14:05:05.611Z</time></trkpt><trkpt lat="43.6308583" lon="13.0554467"><ele>82.0</ele><time>2026-04-22T14:05:06.611Z</time></trkpt><trkpt lat="43.6309933" lon="13.05552"><ele>82.0</ele><time>2026-04-22T14:05:07.611Z</time></trkpt><trkpt lat="43.63113" lon="13.0555567"><ele>81.75</ele><time>2026-04-22T14:05:08.611Z</time></trkpt><trkpt lat="43.6312617" lon="13.0555867"><ele>81.5</ele><time>2026-04-22T14:05:09.611Z</time></trkpt><trkpt lat="43.631385" lon="13.055615"><ele>81.25</ele><time>2026-04-22T14:05:10.611Z</time></trkpt><trkpt lat="43.631495" lon="13.0556483"><ele>81.0</ele><time>2026-04-22T14:05:11.611Z</time></trkpt><trkpt lat="43.6315867" lon="13.0556967"><ele>81.0</ele><time>2026-04-22T14:05:12.612Z</time></trkpt><trkpt lat="43.6316667" lon="13.0557683"><ele>81.0</ele><time>2026-04-22T14:05:13.611Z</time></trkpt><trkpt lat="43.6317367" lon="13.055875"><ele>81.0</ele><time>2026-04-22T14:05:14.612Z</time></trkpt><trkpt lat="43.631805" lon="13.0560083"><ele>81.0</ele><time>2026-04-22T14:05:15.611Z</time></trkpt><trkpt lat="43.6318717" lon="13.056165"><ele>81.0</ele><time>2026-04-22T14:05:16.611Z</time></trkpt><trkpt lat="43.6319367" lon="13.0563333"><ele>81.33333333333333</ele><time>2026-04-22T14:05:17.611Z</time></trkpt><trkpt lat="43.6320083" lon="13.0565083"><ele>81.66666666666666</ele><time>2026-04-22T14:05:18.611Z</time></trkpt><trkpt lat="43.6320833" lon="13.0567"><ele>82.0</ele><time>2026-04-22T14:05:19.61Z</time></trkpt><trkpt lat="43.6321583" lon="13.0568867"><ele>81.33333333333333</ele><time>2026-04-22T14:05:20.61Z</time></trkpt><trkpt lat="43.63223" lon="13.0570717"><ele>80.66666666666667</ele><time>2026-04-22T14:05:21.61Z</time></trkpt><trkpt lat="43.632285" lon="13.0572583"><ele>80.0</ele><time>2026-04-22T14:05:22.61Z</time></trkpt><trkpt lat="43.632345" lon="13.0574583"><ele>79.33333333333334</ele><time>2026-04-22T14:05:23.61Z</time></trkpt><trkpt lat="43.6324083" lon="13.0576517"><ele>78.66666666666667</ele><time>2026-04-22T14:05:24.61Z</time></trkpt><trkpt lat="43.6324733" lon="13.0578467"><ele>78.0</ele><time>2026-04-22T14:05:25.61Z</time></trkpt><trkpt lat="43.6325433" lon="13.0580317"><ele>78.0</ele><time>2026-04-22T14:05:26.61Z</time></trkpt><trkpt lat="43.63262" lon="13.05821"><ele>78.0</ele><time>2026-04-22T14:05:27.611Z</time></trkpt><trkpt lat="43.6327067" lon="13.0583817"><ele>78.0</ele><time>2026-04-22T14:05:28.61Z</time></trkpt><trkpt lat="43.6328033" lon="13.0585483"><ele>78.0</ele><time>2026-04-22T14:05:29.61Z</time></trkpt><trkpt lat="43.6328983" lon="13.05871"><ele>78.0</ele><time>2026-04-22T14:05:30.61Z</time></trkpt><trkpt lat="43.6329983" lon="13.0588717"><ele>78.0</ele><time>2026-04-22T14:05:31.61Z</time></trkpt><trkpt lat="43.6331017" lon="13.05902"><ele>78.0</ele><time>2026-04-22T14:05:32.61Z</time></trkpt><trkpt lat="43.6332183" lon="13.0591583"><ele>78.0</ele><time>2026-04-22T14:05:33.611Z</time></trkpt><trkpt lat="43.633345" lon="13.0592817"><ele>78.0</ele><time>2026-04-22T14:05:34.61Z</time></trkpt><trkpt lat="43.6334833" lon="13.059385"><ele>78.0</ele><time>2026-04-22T14:05:35.611Z</time></trkpt><trkpt lat="43.633625" lon="13.0594967"><ele>78.0</ele><time>2026-04-22T14:05:36.61Z</time></trkpt><trkpt lat="43.6337683" lon="13.059595"><ele>78.0</ele><time>2026-04-22T14:05:37.61Z</time></trkpt><trkpt lat="43.6339133" lon="13.0596917"><ele>78.0</ele><time>2026-04-22T14:05:38.61Z</time></trkpt><trkpt lat="43.6340583" lon="13.05978"><ele>78.0</ele><time>2026-04-22T14:05:39.61Z</time></trkpt><trkpt lat="43.634195" lon="13.0598783"><ele>78.0</ele><time>2026-04-22T14:05:40.61Z</time></trkpt><trkpt lat="43.63433" lon="13.0599633"><ele>78.0</ele><time>2026-04-22T14:05:41.61Z</time></trkpt><trkpt lat="43.63446" lon="13.0600417"><ele>78.0</ele><time>2026-04-22T14:05:42.61Z</time></trkpt><trkpt lat="43.6345833" lon="13.060115"><ele>78.0</ele><time>2026-04-22T14:05:43.611Z</time></trkpt><trkpt lat="43.6347" lon="13.06018"><ele>78.0</ele><time>2026-04-22T14:05:44.61Z</time></trkpt><trkpt lat="43.6348133" lon="13.0602483"><ele>78.5</ele><time>2026-04-22T14:05:45.61Z</time></trkpt><trkpt lat="43.6349317" lon="13.0603183"><ele>79.0</ele><time>2026-04-22T14:05:46.61Z</time></trkpt><trkpt lat="43.63506" lon="13.0603917"><ele>79.5</ele><time>2026-04-22T14:05:47.61Z</time></trkpt><trkpt lat="43.6352017" lon="13.0604733"><ele>80.0</ele><time>2026-04-22T14:05:48.61Z</time></trkpt><trkpt lat="43.63535" lon="13.0605567"><ele>80.0</ele><time>2026-04-22T14:05:49.61Z</time></trkpt><trkpt lat="43.6354983" lon="13.0606383"><ele>80.0</ele><time>2026-04-22T14:05:50.61Z</time></trkpt><trkpt lat="43.63564" lon="13.0607133"><ele>80.0</ele><time>2026-04-22T14:05:51.611Z</time></trkpt><trkpt lat="43.6357883" lon="13.0607933"><ele>80.0</ele><time>2026-04-22T14:05:52.61Z</time></trkpt><trkpt lat="43.63593" lon="13.06087"><ele>80.0</ele><time>2026-04-22T14:05:53.61Z</time></trkpt><trkpt lat="43.6360817" lon="13.0609533"><ele>80.0</ele><time>2026-04-22T14:05:54.61Z</time></trkpt><trkpt lat="43.6362317" lon="13.0610183"><ele>80.0</ele><time>2026-04-22T14:05:55.61Z</time></trkpt><trkpt lat="43.6363833" lon="13.0610717"><ele>80.0</ele><time>2026-04-22T14:05:56.61Z</time></trkpt><trkpt lat="43.6365317" lon="13.0611"><ele>80.0</ele><time>2026-04-22T14:05:57.61Z</time></trkpt><trkpt lat="43.6366733" lon="13.0611117"><ele>80.0</ele><time>2026-04-22T14:05:58.61Z</time></trkpt><trkpt lat="43.6368133" lon="13.0611117"><ele>80.0</ele><time>2026-04-22T14:05:59.61Z</time></trkpt><trkpt lat="43.6369467" lon="13.0611033"><ele>80.0</ele><time>2026-04-22T14:06:00.61Z</time></trkpt><trkpt lat="43.6370767" lon="13.0611067"><ele>80.0</ele><time>2026-04-22T14:06:01.611Z</time></trkpt><trkpt lat="43.6372033" lon="13.0610983"><ele>80.0</ele><time>2026-04-22T14:06:02.61Z</time></trkpt><trkpt lat="43.6373217" lon="13.0611017"><ele>80.0</ele><time>2026-04-22T14:06:03.61Z</time></trkpt><trkpt lat="43.63743" lon="13.0611083"><ele>80.0</ele><time>2026-04-22T14:06:04.61Z</time></trkpt><trkpt lat="43.6375333" lon="13.061145"><ele>80.0</ele><time>2026-04-22T14:06:05.61Z</time></trkpt><trkpt lat="43.637615" lon="13.0612133"><ele>80.0</ele><time>2026-04-22T14:06:06.61Z</time></trkpt><trkpt lat="43.6376783" lon="13.0613133"><ele>80.0</ele><time>2026-04-22T14:06:07.61Z</time></trkpt><trkpt lat="43.637715" lon="13.0614467"><ele>80.0</ele><time>2026-04-22T14:06:08.61Z</time></trkpt><trkpt lat="43.637725" lon="13.0616"><ele>80.0</ele><time>2026-04-22T14:06:09.61Z</time></trkpt><trkpt lat="43.63773" lon="13.0617633"><ele>80.0</ele><time>2026-04-22T14:06:10.61Z</time></trkpt><trkpt lat="43.6377367" lon="13.06194"><ele>80.0</ele><time>2026-04-22T14:06:11.61Z</time></trkpt><trkpt lat="43.6377383" lon="13.0621167"><ele>80.0</ele><time>2026-04-22T14:06:12.61Z</time></trkpt><trkpt lat="43.6377433" lon="13.0622683"><ele>80.0</ele><time>2026-04-22T14:06:13.61Z</time></trkpt><trkpt lat="43.6377517" lon="13.062415"><ele>80.0</ele><time>2026-04-22T14:06:14.611Z</time></trkpt><trkpt lat="43.637755" lon="13.0625633"><ele>80.0</ele><time>2026-04-22T14:06:15.611Z</time></trkpt><trkpt lat="43.637755" lon="13.0626967"><ele>80.0</ele><time>2026-04-22T14:06:16.61Z</time></trkpt><trkpt lat="43.6377567" lon="13.0628383"><ele>79.8</ele><time>2026-04-22T14:06:17.61Z</time></trkpt><trkpt lat="43.6377683" lon="13.0629817"><ele>79.6</ele><time>2026-04-22T14:06:18.611Z</time></trkpt><trkpt lat="43.637775" lon="13.0631367"><ele>79.4</ele><time>2026-04-22T14:06:19.61Z</time></trkpt><trkpt lat="43.6377867" lon="13.0632917"><ele>79.2</ele><time>2026-04-22T14:06:20.61Z</time></trkpt><trkpt lat="43.6378017" lon="13.0634317"><ele>79.0</ele><time>2026-04-22T14:06:21.61Z</time></trkpt><trkpt lat="43.63781" lon="13.0635833"><ele>79.0</ele><time>2026-04-22T14:06:22.61Z</time></trkpt><trkpt lat="43.6378217" lon="13.0637267"><ele>79.0</ele><time>2026-04-22T14:06:23.61Z</time></trkpt><trkpt lat="43.637825" lon="13.0638767"><ele>79.0</ele><time>2026-04-22T14:06:24.611Z</time></trkpt><trkpt lat="43.637825" lon="13.064015"><ele>79.0</ele><time>2026-04-22T14:06:25.61Z</time></trkpt><trkpt lat="43.6378317" lon="13.0641417"><ele>79.0</ele><time>2026-04-22T14:06:26.61Z</time></trkpt><trkpt lat="43.6378567" lon="13.0642783"><ele>79.0</ele><time>2026-04-22T14:06:27.61Z</time></trkpt><trkpt lat="43.63789" lon="13.0644217"><ele>79.0</ele><time>2026-04-22T14:06:28.61Z</time></trkpt><trkpt lat="43.6379317" lon="13.06458"><ele>79.0</ele><time>2026-04-22T14:06:29.61Z</time></trkpt><trkpt lat="43.6379817" lon="13.0647383"><ele>79.0</ele><time>2026-04-22T14:06:30.61Z</time></trkpt><trkpt lat="43.63803" lon="13.0648883"><ele>78.75</ele><time>2026-04-22T14:06:31.61Z</time></trkpt><trkpt lat="43.6380917" lon="13.0650333"><ele>78.5</ele><time>2026-04-22T14:06:32.61Z</time></trkpt><trkpt lat="43.6381517" lon="13.0651867"><ele>78.25</ele><time>2026-04-22T14:06:33.61Z</time></trkpt><trkpt lat="43.638215" lon="13.0653417"><ele>78.0</ele><time>2026-04-22T14:06:34.61Z</time></trkpt><trkpt lat="43.6382733" lon="13.0654917"><ele>78.0</ele><time>2026-04-22T14:06:35.61Z</time></trkpt><trkpt lat="43.6383417" lon="13.065645"><ele>78.0</ele><time>2026-04-22T14:06:36.61Z</time></trkpt><trkpt lat="43.63842" lon="13.0657967"><ele>78.0</ele><time>2026-04-22T14:06:37.61Z</time></trkpt><trkpt lat="43.6385017" lon="13.0659417"><ele>78.0</ele><time>2026-04-22T14:06:38.61Z</time></trkpt><trkpt lat="43.6385933" lon="13.0660617"><ele>77.75</ele><time>2026-04-22T14:06:39.611Z</time></trkpt><trkpt lat="43.6386883" lon="13.06617"><ele>77.5</ele><time>2026-04-22T14:06:40.61Z</time></trkpt><trkpt lat="43.6387683" lon="13.0662833"><ele>77.25</ele><time>2026-04-22T14:06:41.61Z</time></trkpt><trkpt lat="43.6388517" lon="13.066395"><ele>77.0</ele><time>2026-04-22T14:06:42.61Z</time></trkpt><trkpt lat="43.6389367" lon="13.0664967"><ele>77.0</ele><time>2026-04-22T14:06:43.611Z</time></trkpt><trkpt lat="43.639015" lon="13.06659"><ele>77.0</ele><time>2026-04-22T14:06:44.611Z</time></trkpt><trkpt lat="43.63909" lon="13.0666767"><ele>77.0</ele><time>2026-04-22T14:06:45.61Z</time></trkpt><trkpt lat="43.6391633" lon="13.06676"><ele>77.0</ele><time>2026-04-22T14:06:46.61Z</time></trkpt><trkpt lat="43.6392367" lon="13.0668433"><ele>77.0</ele><time>2026-04-22T14:06:47.61Z</time></trkpt><trkpt lat="43.6393033" lon="13.066925"><ele>76.8</ele><time>2026-04-22T14:06:48.61Z</time></trkpt><trkpt lat="43.6393633" lon="13.0670067"><ele>76.6</ele><time>2026-04-22T14:06:49.61Z</time></trkpt><trkpt lat="43.63943" lon="13.0670917"><ele>76.39999999999999</ele><time>2026-04-22T14:06:50.61Z</time></trkpt><trkpt lat="43.6395067" lon="13.0671783"><ele>76.2</ele><time>2026-04-22T14:06:51.61Z</time></trkpt><trkpt lat="43.6395867" lon="13.0672533"><ele>76.0</ele><time>2026-04-22T14:06:52.61Z</time></trkpt><trkpt lat="43.6396617" lon="13.0673233"><ele>76.0</ele><time>2026-04-22T14:06:53.61Z</time></trkpt><trkpt lat="43.6397383" lon="13.067415"><ele>76.0</ele><time>2026-04-22T14:06:54.61Z</time></trkpt><trkpt lat="43.6398" lon="13.06753"><ele>76.0</ele><time>2026-04-22T14:06:55.611Z</time></trkpt><trkpt lat="43.639855" lon="13.06767"><ele>76.0</ele><time>2026-04-22T14:06:56.61Z</time></trkpt><trkpt lat="43.6399117" lon="13.0678033"><ele>76.0</ele><time>2026-04-22T14:06:57.611Z</time></trkpt><trkpt lat="43.63997" lon="13.0679283"><ele>75.8</ele><time>2026-04-22T14:06:58.61Z</time></trkpt><trkpt lat="43.6400367" lon="13.0680433"><ele>75.6</ele><time>2026-04-22T14:06:59.61Z</time></trkpt><trkpt lat="43.6401033" lon="13.068165"><ele>75.4</ele><time>2026-04-22T14:07:00.61Z</time></trkpt><trkpt lat="43.6401817" lon="13.0682783"><ele>75.2</ele><time>2026-04-22T14:07:01.61Z</time></trkpt><trkpt lat="43.6402617" lon="13.0683867"><ele>75.0</ele><time>2026-04-22T14:07:02.61Z</time></trkpt><trkpt lat="43.6403417" lon="13.0685083"><ele>74.75</ele><time>2026-04-22T14:07:03.61Z</time></trkpt><trkpt lat="43.6404217" lon="13.06864"><ele>74.5</ele><time>2026-04-22T14:07:04.61Z</time></trkpt><trkpt lat="43.640495" lon="13.0687667"><ele>74.25</ele><time>2026-04-22T14:07:05.61Z</time></trkpt><trkpt lat="43.6405633" lon="13.0689017"><ele>74.0</ele><time>2026-04-22T14:07:06.61Z</time></trkpt><trkpt lat="43.6406367" lon="13.06904"><ele>73.5</ele><time>2026-04-22T14:07:07.61Z</time></trkpt><trkpt lat="43.6406983" lon="13.0691767"><ele>73.0</ele><time>2026-04-22T14:07:08.61Z</time></trkpt><trkpt lat="43.64076" lon="13.0693183"><ele>72.5</ele><time>2026-04-22T14:07:09.61Z</time></trkpt><trkpt lat="43.64082" lon="13.069455"><ele>72.0</ele><time>2026-04-22T14:07:10.61Z</time></trkpt><trkpt lat="43.6408717" lon="13.0696017"><ele>72.0</ele><time>2026-04-22T14:07:11.61Z</time></trkpt><trkpt lat="43.640915" lon="13.0697517"><ele>72.0</ele><time>2026-04-22T14:07:12.61Z</time></trkpt><trkpt lat="43.6409617" lon="13.0698917"><ele>72.0</ele><time>2026-04-22T14:07:13.611Z</time></trkpt><trkpt lat="43.6410067" lon="13.0700267"><ele>72.0</ele><time>2026-04-22T14:07:14.61Z</time></trkpt><trkpt lat="43.64105" lon="13.0701583"><ele>72.0</ele><time>2026-04-22T14:07:15.61Z</time></trkpt><trkpt lat="43.64109" lon="13.0702767"><ele>72.2</ele><time>2026-04-22T14:07:16.61Z</time></trkpt><trkpt lat="43.64113" lon="13.0704017"><ele>72.4</ele><time>2026-04-22T14:07:17.611Z</time></trkpt><trkpt lat="43.6411733" lon="13.0705183"><ele>72.6</ele><time>2026-04-22T14:07:18.611Z</time></trkpt><trkpt lat="43.641205" lon="13.07064"><ele>72.8</ele><time>2026-04-22T14:07:19.61Z</time></trkpt><trkpt lat="43.6412433" lon="13.0707617"><ele>73.0</ele><time>2026-04-22T14:07:20.61Z</time></trkpt><trkpt lat="43.6412883" lon="13.0708667"><ele>73.66666666666666</ele><time>2026-04-22T14:07:21.61Z</time></trkpt><trkpt lat="43.6413167" lon="13.07097"><ele>74.33333333333333</ele><time>2026-04-22T14:07:22.61Z</time></trkpt><trkpt lat="43.6413267" lon="13.0710717"><ele>75.0</ele><time>2026-04-22T14:07:23.61Z</time></trkpt><trkpt lat="43.64132" lon="13.0711733"><ele>75.66666666666667</ele><time>2026-04-22T14:07:24.61Z</time></trkpt><trkpt lat="43.6412883" lon="13.0712667"><ele>76.33333333333334</ele><time>2026-04-22T14:07:25.61Z</time></trkpt><trkpt lat="43.6412283" lon="13.0713583"><ele>77.0</ele><time>2026-04-22T14:07:26.61Z</time></trkpt><trkpt lat="43.6411583" lon="13.0714633"><ele>76.0</ele><time>2026-04-22T14:07:27.61Z</time></trkpt><trkpt lat="43.6410883" lon="13.0715833"><ele>75.0</ele><time>2026-04-22T14:07:28.611Z</time></trkpt><trkpt lat="43.6410083" lon="13.0717133"><ele>74.0</ele><time>2026-04-22T14:07:29.61Z</time></trkpt><trkpt lat="43.64093" lon="13.07185"><ele>73.0</ele><time>2026-04-22T14:07:30.61Z</time></trkpt><trkpt lat="43.640845" lon="13.0719933"><ele>72.75</ele><time>2026-04-22T14:07:31.61Z</time></trkpt><trkpt lat="43.6407517" lon="13.07215"><ele>72.5</ele><time>2026-04-22T14:07:32.61Z</time></trkpt><trkpt lat="43.6406583" lon="13.0723117"><ele>72.25</ele><time>2026-04-22T14:07:33.61Z</time></trkpt><trkpt lat="43.6405633" lon="13.0724767"><ele>72.0</ele><time>2026-04-22T14:07:34.61Z</time></trkpt><trkpt lat="43.640465" lon="13.0726367"><ele>71.0</ele><time>2026-04-22T14:07:35.61Z</time></trkpt><trkpt lat="43.6403683" lon="13.07279"><ele>70.0</ele><time>2026-04-22T14:07:36.61Z</time></trkpt><trkpt lat="43.6402667" lon="13.0729567"><ele>69.0</ele><time>2026-04-22T14:07:37.61Z</time></trkpt><trkpt lat="43.640165" lon="13.073135"><ele>68.66666666666667</ele><time>2026-04-22T14:07:38.61Z</time></trkpt><trkpt lat="43.6400767" lon="13.0733233"><ele>68.33333333333334</ele><time>2026-04-22T14:07:39.61Z</time></trkpt><trkpt lat="43.6399733" lon="13.073505"><ele>68.0</ele><time>2026-04-22T14:07:40.611Z</time></trkpt><trkpt lat="43.639865" lon="13.0736817"><ele>68.0</ele><time>2026-04-22T14:07:41.61Z</time></trkpt><trkpt lat="43.6397567" lon="13.0738783"><ele>68.0</ele><time>2026-04-22T14:07:42.61Z</time></trkpt><trkpt lat="43.639645" lon="13.074065"><ele>68.0</ele><time>2026-04-22T14:07:43.611Z</time></trkpt><trkpt lat="43.639545" lon="13.0742633"><ele>66.66666666666667</ele><time>2026-04-22T14:07:44.61Z</time></trkpt><trkpt lat="43.6394417" lon="13.0744633"><ele>65.33333333333333</ele><time>2026-04-22T14:07:45.61Z</time></trkpt><trkpt lat="43.6393317" lon="13.0746483"><ele>64.0</ele><time>2026-04-22T14:07:46.611Z</time></trkpt><trkpt lat="43.639225" lon="13.0748217"><ele>63.75</ele><time>2026-04-22T14:07:47.61Z</time></trkpt><trkpt lat="43.639125" lon="13.0749917"><ele>63.5</ele><time>2026-04-22T14:07:48.61Z</time></trkpt><trkpt lat="43.6390367" lon="13.0751567"><ele>63.25</ele><time>2026-04-22T14:07:49.61Z</time></trkpt><trkpt lat="43.6389567" lon="13.075305"><ele>63.0</ele><time>2026-04-22T14:07:50.61Z</time></trkpt><trkpt lat="43.638885" lon="13.0754367"><ele>63.0</ele><time>2026-04-22T14:07:51.61Z</time></trkpt><trkpt lat="43.6388283" lon="13.0755717"><ele>63.0</ele><time>2026-04-22T14:07:52.61Z</time></trkpt><trkpt lat="43.6387817" lon="13.0757"><ele>63.0</ele><time>2026-04-22T14:07:53.61Z</time></trkpt><trkpt lat="43.6387483" lon="13.0757983"><ele>63.0</ele><time>2026-04-22T14:07:54.61Z</time></trkpt><trkpt lat="43.638715" lon="13.0759183"><ele>63.0</ele><time>2026-04-22T14:07:56.611Z</time></trkpt><trkpt lat="43.638695" lon="13.07603"><ele>62.833333333333336</ele><time>2026-04-22T14:08:10.61Z</time></trkpt><trkpt lat="43.63867" lon="13.07615"><ele>62.66666666666667</ele><time>2026-04-22T14:08:12.61Z</time></trkpt><trkpt lat="43.6386517" lon="13.0762433"><ele>62.5</ele><time>2026-04-22T14:08:13.61Z</time></trkpt><trkpt lat="43.6386333" lon="13.076345"><ele>62.333333333333336</ele><time>2026-04-22T14:08:14.61Z</time></trkpt><trkpt lat="43.638615" lon="13.076465"><ele>62.16666666666667</ele><time>2026-04-22T14:08:15.61Z</time></trkpt><trkpt lat="43.6385917" lon="13.0765917"><ele>62.0</ele><time>2026-04-22T14:08:16.61Z</time></trkpt><trkpt lat="43.6385633" lon="13.07672"><ele>62.0</ele><time>2026-04-22T14:08:17.61Z</time></trkpt><trkpt lat="43.6385383" lon="13.076855"><ele>62.0</ele><time>2026-04-22T14:08:18.61Z</time></trkpt><trkpt lat="43.63851" lon="13.0770183"><ele>62.0</ele><time>2026-04-22T14:08:19.61Z</time></trkpt><trkpt lat="43.6384767" lon="13.0771883"><ele>62.0</ele><time>2026-04-22T14:08:20.61Z</time></trkpt><trkpt lat="43.6384417" lon="13.07735"><ele>62.25</ele><time>2026-04-22T14:08:21.61Z</time></trkpt><trkpt lat="43.638405" lon="13.07752"><ele>62.5</ele><time>2026-04-22T14:08:22.61Z</time></trkpt><trkpt lat="43.6383667" lon="13.0777"><ele>62.75</ele><time>2026-04-22T14:08:23.61Z</time></trkpt><trkpt lat="43.6383317" lon="13.0778933"><ele>63.0</ele><time>2026-04-22T14:08:24.61Z</time></trkpt><trkpt lat="43.6383" lon="13.078095"><ele>63.25</ele><time>2026-04-22T14:08:25.611Z</time></trkpt><trkpt lat="43.6382633" lon="13.0782833"><ele>63.5</ele><time>2026-04-22T14:08:26.611Z</time></trkpt><trkpt lat="43.6382267" lon="13.0784733"><ele>63.75</ele><time>2026-04-22T14:08:27.61Z</time></trkpt><trkpt lat="43.63819" lon="13.0786667"><ele>64.0</ele><time>2026-04-22T14:08:28.61Z</time></trkpt><trkpt lat="43.6381533" lon="13.078855"><ele>64.0</ele><time>2026-04-22T14:08:29.61Z</time></trkpt><trkpt lat="43.6381167" lon="13.0790367"><ele>64.0</ele><time>2026-04-22T14:08:30.61Z</time></trkpt><trkpt lat="43.6380833" lon="13.0792233"><ele>64.0</ele><time>2026-04-22T14:08:31.61Z</time></trkpt><trkpt lat="43.6380517" lon="13.0793983"><ele>64.0</ele><time>2026-04-22T14:08:32.61Z</time></trkpt><trkpt lat="43.6380183" lon="13.07958"><ele>64.25</ele><time>2026-04-22T14:08:33.61Z</time></trkpt><trkpt lat="43.6379833" lon="13.0797617"><ele>64.5</ele><time>2026-04-22T14:08:34.61Z</time></trkpt><trkpt lat="43.6379483" lon="13.0799433"><ele>64.75</ele><time>2026-04-22T14:08:35.61Z</time></trkpt><trkpt lat="43.6379133" lon="13.08013"><ele>65.0</ele><time>2026-04-22T14:08:36.61Z</time></trkpt><trkpt lat="43.63788" lon="13.0803117"><ele>65.0</ele><time>2026-04-22T14:08:37.61Z</time></trkpt><trkpt lat="43.637845" lon="13.08049"><ele>65.0</ele><time>2026-04-22T14:08:38.61Z</time></trkpt><trkpt lat="43.63781" lon="13.0806583"><ele>65.0</ele><time>2026-04-22T14:08:39.61Z</time></trkpt><trkpt lat="43.6377783" lon="13.0808183"><ele>65.0</ele><time>2026-04-22T14:08:40.611Z</time></trkpt><trkpt lat="43.6377517" lon="13.08097"><ele>66.0</ele><time>2026-04-22T14:08:41.61Z</time></trkpt><trkpt lat="43.6377233" lon="13.0811167"><ele>67.0</ele><time>2026-04-22T14:08:42.61Z</time></trkpt><trkpt lat="43.6376967" lon="13.08126"><ele>68.0</ele><time>2026-04-22T14:08:43.61Z</time></trkpt><trkpt lat="43.63767" lon="13.0813867"><ele>69.0</ele><time>2026-04-22T14:08:44.61Z</time></trkpt><trkpt lat="43.6376467" lon="13.0815083"><ele>70.0</ele><time>2026-04-22T14:08:45.61Z</time></trkpt><trkpt lat="43.637625" lon="13.0816383"><ele>70.25</ele><time>2026-04-22T14:08:46.61Z</time></trkpt><trkpt lat="43.6376017" lon="13.0817783"><ele>70.5</ele><time>2026-04-22T14:08:47.61Z</time></trkpt><trkpt lat="43.6375817" lon="13.08193"><ele>70.75</ele><time>2026-04-22T14:08:48.61Z</time></trkpt><trkpt lat="43.63755" lon="13.082105"><ele>71.0</ele><time>2026-04-22T14:08:49.61Z</time></trkpt><trkpt lat="43.63752" lon="13.0822917"><ele>71.75</ele><time>2026-04-22T14:08:50.61Z</time></trkpt><trkpt lat="43.6375067" lon="13.0824833"><ele>72.5</ele><time>2026-04-22T14:08:51.61Z</time></trkpt><trkpt lat="43.6375083" lon="13.0826833"><ele>73.25</ele><time>2026-04-22T14:08:52.61Z</time></trkpt><trkpt lat="43.63752" lon="13.0829017"><ele>74.0</ele><time>2026-04-22T14:08:53.61Z</time></trkpt><trkpt lat="43.6375517" lon="13.0831267"><ele>75.33333333333334</ele><time>2026-04-22T14:08:54.61Z</time></trkpt><trkpt lat="43.637605" lon="13.083345"><ele>76.66666666666667</ele><time>2026-04-22T14:08:55.61Z</time></trkpt><trkpt lat="43.63766" lon="13.0835567"><ele>78.0</ele><time>2026-04-22T14:08:56.61Z</time></trkpt><trkpt lat="43.637705" lon="13.0837667"><ele>78.0</ele><time>2026-04-22T14:08:57.611Z</time></trkpt><trkpt lat="43.6377567" lon="13.0839833"><ele>78.0</ele><time>2026-04-22T14:08:58.61Z</time></trkpt><trkpt lat="43.6378117" lon="13.0841967"><ele>78.0</ele><time>2026-04-22T14:08:59.61Z</time></trkpt><trkpt lat="43.6378667" lon="13.0844"><ele>78.25</ele><time>2026-04-22T14:09:00.61Z</time></trkpt><trkpt lat="43.637915" lon="13.0845883"><ele>78.5</ele><time>2026-04-22T14:09:01.61Z</time></trkpt><trkpt lat="43.6379583" lon="13.084765"><ele>78.75</ele><time>2026-04-22T14:09:02.611Z</time></trkpt><trkpt lat="43.637995" lon="13.0849267"><ele>79.0</ele><time>2026-04-22T14:09:03.61Z</time></trkpt><trkpt lat="43.63803" lon="13.0850733"><ele>79.0</ele><time>2026-04-22T14:09:04.611Z</time></trkpt><trkpt lat="43.63806" lon="13.08521"><ele>79.0</ele><time>2026-04-22T14:09:05.61Z</time></trkpt><trkpt lat="43.6380733" lon="13.0853233"><ele>79.0</ele><time>2026-04-22T14:09:06.61Z</time></trkpt><trkpt lat="43.63808" lon="13.0854433"><ele>79.0</ele><time>2026-04-22T14:09:07.61Z</time></trkpt><trkpt lat="43.6380583" lon="13.0855467"><ele>79.0</ele><time>2026-04-22T14:09:08.61Z</time></trkpt><trkpt lat="43.638" lon="13.0856033"><ele>79.0</ele><time>2026-04-22T14:09:09.611Z</time></trkpt><trkpt lat="43.6379267" lon="13.0856117"><ele>79.0</ele><time>2026-04-22T14:09:10.61Z</time></trkpt><trkpt lat="43.6378517" lon="13.0855783"><ele>79.0</ele><time>2026-04-22T14:09:11.61Z</time></trkpt><trkpt lat="43.6377783" lon="13.0855"><ele>79.0</ele><time>2026-04-22T14:09:12.61Z</time></trkpt><trkpt lat="43.6377167" lon="13.0853983"><ele>79.0</ele><time>2026-04-22T14:09:13.61Z</time></trkpt><trkpt lat="43.63766" lon="13.085275"><ele>79.0</ele><time>2026-04-22T14:09:14.61Z</time></trkpt><trkpt lat="43.6376" lon="13.08514"><ele>80.75</ele><time>2026-04-22T14:09:15.61Z</time></trkpt><trkpt lat="43.63753" lon="13.0849967"><ele>82.5</ele><time>2026-04-22T14:09:16.611Z</time></trkpt><trkpt lat="43.6374533" lon="13.0848417"><ele>84.25</ele><time>2026-04-22T14:09:17.61Z</time></trkpt><trkpt lat="43.63738" lon="13.0846917"><ele>86.0</ele><time>2026-04-22T14:09:18.611Z</time></trkpt><trkpt lat="43.6373033" lon="13.0845767"><ele>86.0</ele><time>2026-04-22T14:09:19.61Z</time></trkpt><trkpt lat="43.6372217" lon="13.0844667"><ele>86.0</ele><time>2026-04-22T14:09:20.61Z</time></trkpt><trkpt lat="43.6371333" lon="13.084405"><ele>86.0</ele><time>2026-04-22T14:09:21.61Z</time></trkpt><trkpt lat="43.6370283" lon="13.0843867"><ele>86.0</ele><time>2026-04-22T14:09:22.611Z</time></trkpt><trkpt lat="43.636925" lon="13.0844183"><ele>86.0</ele><time>2026-04-22T14:09:23.61Z</time></trkpt><trkpt lat="43.63682" lon="13.0844833"><ele>87.5</ele><time>2026-04-22T14:09:24.61Z</time></trkpt><trkpt lat="43.636705" lon="13.0845683"><ele>89.0</ele><time>2026-04-22T14:09:25.61Z</time></trkpt><trkpt lat="43.63659" lon="13.08465"><ele>90.5</ele><time>2026-04-22T14:09:26.61Z</time></trkpt><trkpt lat="43.63646" lon="13.0847333"><ele>92.0</ele><time>2026-04-22T14:09:27.61Z</time></trkpt><trkpt lat="43.6363233" lon="13.0848117"><ele>92.0</ele><time>2026-04-22T14:09:28.61Z</time></trkpt><trkpt lat="43.6361833" lon="13.08488"><ele>92.0</ele><time>2026-04-22T14:09:29.61Z</time></trkpt><trkpt lat="43.6360333" lon="13.0849667"><ele>92.0</ele><time>2026-04-22T14:09:30.61Z</time></trkpt><trkpt lat="43.6358683" lon="13.0850617"><ele>96.0</ele><time>2026-04-22T14:09:31.61Z</time></trkpt><trkpt lat="43.6357033" lon="13.0851683"><ele>100.0</ele><time>2026-04-22T14:09:32.611Z</time></trkpt><trkpt lat="43.63555" lon="13.0852483"><ele>104.0</ele><time>2026-04-22T14:09:33.611Z</time></trkpt><trkpt lat="43.635405" lon="13.0853217"><ele>102.25</ele><time>2026-04-22T14:09:34.61Z</time></trkpt><trkpt lat="43.635275" lon="13.0853917"><ele>100.5</ele><time>2026-04-22T14:09:35.61Z</time></trkpt><trkpt lat="43.6351567" lon="13.0854683"><ele>98.75</ele><time>2026-04-22T14:09:36.611Z</time></trkpt><trkpt lat="43.63505" lon="13.0855367"><ele>97.0</ele><time>2026-04-22T14:09:37.61Z</time></trkpt><trkpt lat="43.6349617" lon="13.0856333"><ele>97.0</ele><time>2026-04-22T14:09:38.61Z</time></trkpt><trkpt lat="43.63489" lon="13.0857483"><ele>97.0</ele><time>2026-04-22T14:09:39.61Z</time></trkpt><trkpt lat="43.634845" lon="13.0858967"><ele>97.0</ele><time>2026-04-22T14:09:40.61Z</time></trkpt><trkpt lat="43.6348183" lon="13.086065"><ele>97.0</ele><time>2026-04-22T14:09:41.611Z</time></trkpt><trkpt lat="43.6348083" lon="13.0862417"><ele>100.5</ele><time>2026-04-22T14:09:42.61Z</time></trkpt><trkpt lat="43.6348067" lon="13.0864317"><ele>104.0</ele><time>2026-04-22T14:09:43.61Z</time></trkpt><trkpt lat="43.6348083" lon="13.0866383"><ele>107.5</ele><time>2026-04-22T14:09:44.61Z</time></trkpt><trkpt lat="43.6348117" lon="13.0868583"><ele>111.0</ele><time>2026-04-22T14:09:45.61Z</time></trkpt><trkpt lat="43.6348183" lon="13.0870867"><ele>114.33333333333334</ele><time>2026-04-22T14:09:46.61Z</time></trkpt><trkpt lat="43.6348167" lon="13.0873183"><ele>117.66666666666667</ele><time>2026-04-22T14:09:47.61Z</time></trkpt><trkpt lat="43.6348217" lon="13.0875517"><ele>121.0</ele><time>2026-04-22T14:09:48.61Z</time></trkpt><trkpt lat="43.6348283" lon="13.08779"><ele>121.66666666666667</ele><time>2026-04-22T14:09:49.61Z</time></trkpt><trkpt lat="43.634835" lon="13.0880283"><ele>122.33333333333334</ele><time>2026-04-22T14:09:50.61Z</time></trkpt><trkpt lat="43.63484" lon="13.0882667"><ele>123.0</ele><time>2026-04-22T14:09:51.61Z</time></trkpt><trkpt lat="43.6348467" lon="13.08851"><ele>124.0</ele><time>2026-04-22T14:09:52.61Z</time></trkpt><trkpt lat="43.634855" lon="13.0887517"><ele>125.0</ele><time>2026-04-22T14:09:53.61Z</time></trkpt><trkpt lat="43.63486" lon="13.0890033"><ele>126.0</ele><time>2026-04-22T14:09:54.61Z</time></trkpt><trkpt lat="43.6348617" lon="13.0892383"><ele>127.66666666666666</ele><time>2026-04-22T14:09:55.61Z</time></trkpt><trkpt lat="43.6348633" lon="13.0894817"><ele>129.33333333333331</ele><time>2026-04-22T14:09:56.61Z</time></trkpt><trkpt lat="43.63487" lon="13.08973"><ele>131.0</ele><time>2026-04-22T14:09:57.61Z</time></trkpt><trkpt lat="43.6348817" lon="13.0899667"><ele>132.66666666666666</ele><time>2026-04-22T14:09:58.61Z</time></trkpt><trkpt lat="43.6348867" lon="13.0902083"><ele>134.33333333333334</ele><time>2026-04-22T14:09:59.611Z</time></trkpt><trkpt lat="43.6349" lon="13.0904483"><ele>136.0</ele><time>2026-04-22T14:10:00.61Z</time></trkpt><trkpt lat="43.634915" lon="13.0906933"><ele>137.0</ele><time>2026-04-22T14:10:01.61Z</time></trkpt><trkpt lat="43.6349233" lon="13.0909317"><ele>138.0</ele><time>2026-04-22T14:10:02.61Z</time></trkpt><trkpt lat="43.6349267" lon="13.0911683"><ele>139.0</ele><time>2026-04-22T14:10:03.61Z</time></trkpt><trkpt lat="43.6349283" lon="13.0914"><ele>139.66666666666669</ele><time>2026-04-22T14:10:04.61Z</time></trkpt><trkpt lat="43.6349367" lon="13.0916433"><ele>140.33333333333334</ele><time>2026-04-22T14:10:05.61Z</time></trkpt><trkpt lat="43.6349417" lon="13.0918767"><ele>141.0</ele><time>2026-04-22T14:10:06.61Z</time></trkpt><trkpt lat="43.6349433" lon="13.0921117"><ele>141.0</ele><time>2026-04-22T14:10:07.611Z</time></trkpt><trkpt lat="43.6349433" lon="13.0923417"><ele>141.0</ele><time>2026-04-22T14:10:08.61Z</time></trkpt><trkpt lat="43.6349317" lon="13.09257"><ele>141.0</ele><time>2026-04-22T14:10:09.609Z</time></trkpt><trkpt lat="43.6349133" lon="13.092795"><ele>142.0</ele><time>2026-04-22T14:10:10.609Z</time></trkpt><trkpt lat="43.6348933" lon="13.0930317"><ele>143.0</ele><time>2026-04-22T14:10:11.609Z</time></trkpt><trkpt lat="43.6348667" lon="13.0932583"><ele>144.0</ele><time>2026-04-22T14:10:12.609Z</time></trkpt><trkpt lat="43.6348417" lon="13.0934783"><ele>145.75</ele><time>2026-04-22T14:10:13.609Z</time></trkpt><trkpt lat="43.6348183" lon="13.0936767"><ele>147.5</ele><time>2026-04-22T14:10:14.61Z</time></trkpt><trkpt lat="43.6348" lon="13.0938567"><ele>149.25</ele><time>2026-04-22T14:10:15.609Z</time></trkpt><trkpt lat="43.6347883" lon="13.0940183"><ele>151.0</ele><time>2026-04-22T14:10:16.609Z</time></trkpt><trkpt lat="43.6347683" lon="13.0941633"><ele>151.83333333333334</ele><time>2026-04-22T14:10:17.61Z</time></trkpt><trkpt lat="43.6347433" lon="13.0942967"><ele>152.66666666666669</ele><time>2026-04-22T14:10:18.609Z</time></trkpt><trkpt lat="43.6346983" lon="13.0944067"><ele>153.5</ele><time>2026-04-22T14:10:19.609Z</time></trkpt><trkpt lat="43.6346333" lon="13.0944717"><ele>154.33333333333334</ele><time>2026-04-22T14:10:20.609Z</time></trkpt><trkpt lat="43.634555" lon="13.0945183"><ele>155.16666666666666</ele><time>2026-04-22T14:10:21.609Z</time></trkpt><trkpt lat="43.63447" lon="13.09453"><ele>156.0</ele><time>2026-04-22T14:10:22.609Z</time></trkpt><trkpt lat="43.6343683" lon="13.094475"><ele>156.5</ele><time>2026-04-22T14:10:23.61Z</time></trkpt><trkpt lat="43.63427" lon="13.09438"><ele>157.0</ele><time>2026-04-22T14:10:24.609Z</time></trkpt><trkpt lat="43.6341783" lon="13.094235"><ele>157.5</ele><time>2026-04-22T14:10:25.609Z</time></trkpt><trkpt lat="43.6341017" lon="13.0940767"><ele>158.0</ele><time>2026-04-22T14:10:26.61Z</time></trkpt><trkpt lat="43.6340433" lon="13.093915"><ele>155.75</ele><time>2026-04-22T14:10:27.609Z</time></trkpt><trkpt lat="43.6339883" lon="13.0937533"><ele>153.5</ele><time>2026-04-22T14:10:28.609Z</time></trkpt><trkpt lat="43.6339217" lon="13.093575"><ele>151.25</ele><time>2026-04-22T14:10:29.609Z</time></trkpt><trkpt lat="43.6338483" lon="13.0933983"><ele>149.0</ele><time>2026-04-22T14:10:30.61Z</time></trkpt><trkpt lat="43.63378" lon="13.093225"><ele>150.2</ele><time>2026-04-22T14:10:31.609Z</time></trkpt><trkpt lat="43.63371" lon="13.0930683"><ele>151.4</ele><time>2026-04-22T14:10:32.61Z</time></trkpt><trkpt lat="43.6336533" lon="13.0929433"><ele>152.6</ele><time>2026-04-22T14:10:33.61Z</time></trkpt><trkpt lat="43.6336033" lon="13.092865"><ele>153.8</ele><time>2026-04-22T14:10:34.609Z</time></trkpt><trkpt lat="43.6335417" lon="13.0928183"><ele>155.0</ele><time>2026-04-22T14:10:35.609Z</time></trkpt><trkpt lat="43.63343" lon="13.0928267"><ele>155.0</ele><time>2026-04-22T14:10:37.609Z</time></trkpt><trkpt lat="43.63336" lon="13.09298"><ele>155.0</ele><time>2026-04-22T14:10:39.609Z</time></trkpt><trkpt lat="43.63335" lon="13.0931117"><ele>155.0</ele><time>2026-04-22T14:10:40.609Z</time></trkpt><trkpt lat="43.6333533" lon="13.09325"><ele>155.0</ele><time>2026-04-22T14:10:41.609Z</time></trkpt><trkpt lat="43.6333883" lon="13.093385"><ele>155.0</ele><time>2026-04-22T14:10:42.609Z</time></trkpt><trkpt lat="43.63343" lon="13.0935233"><ele>155.75</ele><time>2026-04-22T14:10:43.609Z</time></trkpt><trkpt lat="43.633485" lon="13.0936633"><ele>156.5</ele><time>2026-04-22T14:10:44.609Z</time></trkpt><trkpt lat="43.63355" lon="13.0938183"><ele>157.25</ele><time>2026-04-22T14:10:45.609Z</time></trkpt><trkpt lat="43.6336033" lon="13.0939817"><ele>158.0</ele><time>2026-04-22T14:10:46.609Z</time></trkpt><trkpt lat="43.63365" lon="13.0941383"><ele>158.0</ele><time>2026-04-22T14:10:47.609Z</time></trkpt><trkpt lat="43.6336817" lon="13.094295"><ele>158.0</ele><time>2026-04-22T14:10:48.609Z</time></trkpt><trkpt lat="43.6336933" lon="13.0944567"><ele>158.0</ele><time>2026-04-22T14:10:49.609Z</time></trkpt><trkpt lat="43.6337017" lon="13.0946233"><ele>158.0</ele><time>2026-04-22T14:10:50.609Z</time></trkpt><trkpt lat="43.6337083" lon="13.0947867"><ele>159.5</ele><time>2026-04-22T14:10:51.609Z</time></trkpt><trkpt lat="43.6337083" lon="13.094955"><ele>161.0</ele><time>2026-04-22T14:10:52.609Z</time></trkpt><trkpt lat="43.6337067" lon="13.09512"><ele>162.5</ele><time>2026-04-22T14:10:53.609Z</time></trkpt><trkpt lat="43.6336933" lon="13.09528"><ele>164.0</ele><time>2026-04-22T14:10:54.609Z</time></trkpt><trkpt lat="43.633685" lon="13.0954167"><ele>164.0</ele><time>2026-04-22T14:10:55.609Z</time></trkpt><trkpt lat="43.6336683" lon="13.0955383"><ele>164.0</ele><time>2026-04-22T14:10:56.609Z</time></trkpt><trkpt lat="43.63367" lon="13.09565"><ele>164.0</ele><time>2026-04-22T14:10:57.609Z</time></trkpt><trkpt lat="43.633695" lon="13.0957517"><ele>164.0</ele><time>2026-04-22T14:10:58.609Z</time></trkpt><trkpt lat="43.6337483" lon="13.0958483"><ele>164.0</ele><time>2026-04-22T14:10:59.61Z</time></trkpt><trkpt lat="43.6338167" lon="13.0959417"><ele>164.0</ele><time>2026-04-22T14:11:00.609Z</time></trkpt><trkpt lat="43.6338933" lon="13.0960433"><ele>165.25</ele><time>2026-04-22T14:11:01.609Z</time></trkpt><trkpt lat="43.6339833" lon="13.09615"><ele>166.5</ele><time>2026-04-22T14:11:02.609Z</time></trkpt><trkpt lat="43.6340733" lon="13.0962733"><ele>167.75</ele><time>2026-04-22T14:11:03.61Z</time></trkpt><trkpt lat="43.6341733" lon="13.0963983"><ele>169.0</ele><time>2026-04-22T14:11:04.609Z</time></trkpt><trkpt lat="43.6342683" lon="13.09652"><ele>169.25</ele><time>2026-04-22T14:11:05.609Z</time></trkpt><trkpt lat="43.6343617" lon="13.0966383"><ele>169.5</ele><time>2026-04-22T14:11:06.609Z</time></trkpt><trkpt lat="43.63446" lon="13.096755"><ele>169.75</ele><time>2026-04-22T14:11:07.609Z</time></trkpt><trkpt lat="43.6345567" lon="13.09688"><ele>170.0</ele><time>2026-04-22T14:11:08.609Z</time></trkpt><trkpt lat="43.6346567" lon="13.0970083"><ele>171.0</ele><time>2026-04-22T14:11:09.609Z</time></trkpt><trkpt lat="43.634765" lon="13.0971367"><ele>172.0</ele><time>2026-04-22T14:11:10.609Z</time></trkpt><trkpt lat="43.63487" lon="13.0972733"><ele>173.0</ele><time>2026-04-22T14:11:11.609Z</time></trkpt><trkpt lat="43.63498" lon="13.0974067"><ele>174.0</ele><time>2026-04-22T14:11:12.61Z</time></trkpt><trkpt lat="43.6350883" lon="13.097555"><ele>174.0</ele><time>2026-04-22T14:11:13.609Z</time></trkpt><trkpt lat="43.6352033" lon="13.0976983"><ele>174.0</ele><time>2026-04-22T14:11:14.609Z</time></trkpt><trkpt lat="43.63532" lon="13.097835"><ele>174.0</ele><time>2026-04-22T14:11:15.609Z</time></trkpt><trkpt lat="43.6354383" lon="13.097975"><ele>173.0</ele><time>2026-04-22T14:11:16.609Z</time></trkpt><trkpt lat="43.635555" lon="13.09812"><ele>172.0</ele><time>2026-04-22T14:11:17.609Z</time></trkpt><trkpt lat="43.63567" lon="13.0982617"><ele>171.0</ele><time>2026-04-22T14:11:18.609Z</time></trkpt><trkpt lat="43.6357933" lon="13.0983883"><ele>171.0</ele><time>2026-04-22T14:11:19.609Z</time></trkpt><trkpt lat="43.6359167" lon="13.098525"><ele>171.0</ele><time>2026-04-22T14:11:20.609Z</time></trkpt><trkpt lat="43.6360367" lon="13.0986667"><ele>171.0</ele><time>2026-04-22T14:11:21.609Z</time></trkpt><trkpt lat="43.63615" lon="13.0988067"><ele>171.5</ele><time>2026-04-22T14:11:22.609Z</time></trkpt><trkpt lat="43.6362633" lon="13.098945"><ele>172.0</ele><time>2026-04-22T14:11:23.609Z</time></trkpt><trkpt lat="43.6363667" lon="13.0990833"><ele>172.5</ele><time>2026-04-22T14:11:24.609Z</time></trkpt><trkpt lat="43.636465" lon="13.0992167"><ele>173.0</ele><time>2026-04-22T14:11:25.609Z</time></trkpt><trkpt lat="43.63655" lon="13.0993533"><ele>171.75</ele><time>2026-04-22T14:11:26.609Z</time></trkpt><trkpt lat="43.6366333" lon="13.0994983"><ele>170.5</ele><time>2026-04-22T14:11:27.609Z</time></trkpt><trkpt lat="43.636705" lon="13.0996617"><ele>169.25</ele><time>2026-04-22T14:11:28.609Z</time></trkpt><trkpt lat="43.6367667" lon="13.0998367"><ele>168.0</ele><time>2026-04-22T14:11:29.609Z</time></trkpt><trkpt lat="43.63682" lon="13.100015"><ele>166.0</ele><time>2026-04-22T14:11:30.609Z</time></trkpt><trkpt lat="43.6368617" lon="13.1002017"><ele>164.0</ele><time>2026-04-22T14:11:31.609Z</time></trkpt><trkpt lat="43.6368917" lon="13.1003833"><ele>162.0</ele><time>2026-04-22T14:11:32.609Z</time></trkpt><trkpt lat="43.6369233" lon="13.1005667"><ele>160.0</ele><time>2026-04-22T14:11:33.609Z</time></trkpt><trkpt lat="43.636945" lon="13.10076"><ele>161.5</ele><time>2026-04-22T14:11:34.609Z</time></trkpt><trkpt lat="43.636975" lon="13.1009367"><ele>163.0</ele><time>2026-04-22T14:11:35.609Z</time></trkpt><trkpt lat="43.637" lon="13.10111"><ele>164.5</ele><time>2026-04-22T14:11:36.609Z</time></trkpt><trkpt lat="43.6370117" lon="13.1012883"><ele>166.0</ele><time>2026-04-22T14:11:37.609Z</time></trkpt><trkpt lat="43.6370067" lon="13.1014767"><ele>163.75</ele><time>2026-04-22T14:11:38.609Z</time></trkpt><trkpt lat="43.6369933" lon="13.101655"><ele>161.5</ele><time>2026-04-22T14:11:39.609Z</time></trkpt><trkpt lat="43.6369583" lon="13.1018433"><ele>159.25</ele><time>2026-04-22T14:11:40.609Z</time></trkpt><trkpt lat="43.6369033" lon="13.1020283"><ele>157.0</ele><time>2026-04-22T14:11:41.609Z</time></trkpt><trkpt lat="43.6368483" lon="13.102215"><ele>156.5</ele><time>2026-04-22T14:11:42.609Z</time></trkpt><trkpt lat="43.6367967" lon="13.1024033"><ele>156.0</ele><time>2026-04-22T14:11:43.609Z</time></trkpt><trkpt lat="43.63674" lon="13.1025983"><ele>155.5</ele><time>2026-04-22T14:11:44.609Z</time></trkpt><trkpt lat="43.63668" lon="13.1027883"><ele>155.0</ele><time>2026-04-22T14:11:45.609Z</time></trkpt><trkpt lat="43.6366333" lon="13.1029833"><ele>154.5</ele><time>2026-04-22T14:11:46.609Z</time></trkpt><trkpt lat="43.6365817" lon="13.1031767"><ele>154.0</ele><time>2026-04-22T14:11:47.609Z</time></trkpt><trkpt lat="43.6365267" lon="13.1033667"><ele>153.5</ele><time>2026-04-22T14:11:48.609Z</time></trkpt><trkpt lat="43.6364717" lon="13.1035567"><ele>153.0</ele><time>2026-04-22T14:11:49.609Z</time></trkpt><trkpt lat="43.63641" lon="13.1037433"><ele>152.75</ele><time>2026-04-22T14:11:50.609Z</time></trkpt><trkpt lat="43.63635" lon="13.1039283"><ele>152.5</ele><time>2026-04-22T14:11:51.609Z</time></trkpt><trkpt lat="43.63628" lon="13.1041"><ele>152.25</ele><time>2026-04-22T14:11:52.609Z</time></trkpt><trkpt lat="43.6362083" lon="13.1042783"><ele>152.0</ele><time>2026-04-22T14:11:53.609Z</time></trkpt><trkpt lat="43.6361367" lon="13.104465"><ele>151.75</ele><time>2026-04-22T14:11:54.609Z</time></trkpt><trkpt lat="43.6360667" lon="13.10465"><ele>151.5</ele><time>2026-04-22T14:11:55.61Z</time></trkpt><trkpt lat="43.6359983" lon="13.1048333"><ele>151.25</ele><time>2026-04-22T14:11:56.609Z</time></trkpt><trkpt lat="43.63595" lon="13.105025"><ele>151.0</ele><time>2026-04-22T14:11:57.609Z</time></trkpt><trkpt lat="43.6359133" lon="13.1052183"><ele>149.33333333333334</ele><time>2026-04-22T14:11:58.609Z</time></trkpt><trkpt lat="43.6358883" lon="13.1054233"><ele>147.66666666666666</ele><time>2026-04-22T14:11:59.609Z</time></trkpt><trkpt lat="43.635865" lon="13.1056367"><ele>146.0</ele><time>2026-04-22T14:12:00.609Z</time></trkpt><trkpt lat="43.6358483" lon="13.1058583"><ele>145.33333333333331</ele><time>2026-04-22T14:12:01.609Z</time></trkpt><trkpt lat="43.635835" lon="13.1060867"><ele>144.66666666666666</ele><time>2026-04-22T14:12:02.609Z</time></trkpt><trkpt lat="43.6358283" lon="13.1063117"><ele>144.0</ele><time>2026-04-22T14:12:03.61Z</time></trkpt><trkpt lat="43.6358183" lon="13.1065333"><ele>143.33333333333334</ele><time>2026-04-22T14:12:04.609Z</time></trkpt><trkpt lat="43.6358083" lon="13.1067683"><ele>142.66666666666669</ele><time>2026-04-22T14:12:05.609Z</time></trkpt><trkpt lat="43.6358" lon="13.1069933"><ele>142.0</ele><time>2026-04-22T14:12:06.609Z</time></trkpt><trkpt lat="43.6357883" lon="13.1072167"><ele>142.0</ele><time>2026-04-22T14:12:07.609Z</time></trkpt><trkpt lat="43.63578" lon="13.1074267"><ele>142.0</ele><time>2026-04-22T14:12:08.609Z</time></trkpt><trkpt lat="43.63577" lon="13.10764"><ele>142.0</ele><time>2026-04-22T14:12:09.609Z</time></trkpt><trkpt lat="43.635755" lon="13.107845"><ele>142.0</ele><time>2026-04-22T14:12:10.609Z</time></trkpt><trkpt lat="43.63573" lon="13.1080583"><ele>142.0</ele><time>2026-04-22T14:12:11.609Z</time></trkpt><trkpt lat="43.6357" lon="13.1082617"><ele>142.0</ele><time>2026-04-22T14:12:12.609Z</time></trkpt><trkpt lat="43.63567" lon="13.1084717"><ele>140.66666666666669</ele><time>2026-04-22T14:12:13.609Z</time></trkpt><trkpt lat="43.6356383" lon="13.108685"><ele>139.33333333333334</ele><time>2026-04-22T14:12:14.609Z</time></trkpt><trkpt lat="43.635605" lon="13.10889"><ele>138.0</ele><time>2026-04-22T14:12:15.61Z</time></trkpt><trkpt lat="43.6355733" lon="13.109085"><ele>136.25</ele><time>2026-04-22T14:12:16.61Z</time></trkpt><trkpt lat="43.6355367" lon="13.1092833"><ele>134.5</ele><time>2026-04-22T14:12:17.609Z</time></trkpt><trkpt lat="43.6354983" lon="13.109475"><ele>132.75</ele><time>2026-04-22T14:12:18.609Z</time></trkpt><trkpt lat="43.6354617" lon="13.109675"><ele>131.0</ele><time>2026-04-22T14:12:19.609Z</time></trkpt><trkpt lat="43.6354217" lon="13.109875"><ele>131.66666666666666</ele><time>2026-04-22T14:12:20.609Z</time></trkpt><trkpt lat="43.6353683" lon="13.1100683"><ele>132.33333333333334</ele><time>2026-04-22T14:12:21.609Z</time></trkpt><trkpt lat="43.6353017" lon="13.1102583"><ele>133.0</ele><time>2026-04-22T14:12:22.609Z</time></trkpt><trkpt lat="43.635225" lon="13.1104567"><ele>133.0</ele><time>2026-04-22T14:12:23.609Z</time></trkpt><trkpt lat="43.6351467" lon="13.1106467"><ele>133.0</ele><time>2026-04-22T14:12:24.609Z</time></trkpt><trkpt lat="43.6350767" lon="13.1108517"><ele>133.0</ele><time>2026-04-22T14:12:25.609Z</time></trkpt><trkpt lat="43.63502" lon="13.1110617"><ele>132.0</ele><time>2026-04-22T14:12:26.609Z</time></trkpt><trkpt lat="43.6349667" lon="13.1112867"><ele>131.0</ele><time>2026-04-22T14:12:27.609Z</time></trkpt><trkpt lat="43.6349283" lon="13.1115183"><ele>130.0</ele><time>2026-04-22T14:12:28.609Z</time></trkpt><trkpt lat="43.6348867" lon="13.11175"><ele>129.0</ele><time>2026-04-22T14:12:29.609Z</time></trkpt><trkpt lat="43.6348433" lon="13.1119817"><ele>128.0</ele><time>2026-04-22T14:12:30.609Z</time></trkpt><trkpt lat="43.6348033" lon="13.1122117"><ele>127.0</ele><time>2026-04-22T14:12:31.609Z</time></trkpt><trkpt lat="43.6347667" lon="13.112435"><ele>126.0</ele><time>2026-04-22T14:12:32.609Z</time></trkpt><trkpt lat="43.6347217" lon="13.11266"><ele>125.0</ele><time>2026-04-22T14:12:33.61Z</time></trkpt><trkpt lat="43.634675" lon="13.112885"><ele>124.0</ele><time>2026-04-22T14:12:34.609Z</time></trkpt><trkpt lat="43.6346317" lon="13.1131117"><ele>122.33333333333334</ele><time>2026-04-22T14:12:35.61Z</time></trkpt><trkpt lat="43.6345867" lon="13.113345"><ele>120.66666666666666</ele><time>2026-04-22T14:12:36.609Z</time></trkpt><trkpt lat="43.6345467" lon="13.1135767"><ele>119.0</ele><time>2026-04-22T14:12:37.609Z</time></trkpt><trkpt lat="43.6345033" lon="13.113805"><ele>119.33333333333333</ele><time>2026-04-22T14:12:38.609Z</time></trkpt><trkpt lat="43.6344633" lon="13.114035"><ele>119.66666666666666</ele><time>2026-04-22T14:12:39.609Z</time></trkpt><trkpt lat="43.6344183" lon="13.1142617"><ele>120.0</ele><time>2026-04-22T14:12:40.61Z</time></trkpt><trkpt lat="43.6343733" lon="13.1144767"><ele>120.0</ele><time>2026-04-22T14:12:41.609Z</time></trkpt><trkpt lat="43.6343317" lon="13.114685"><ele>120.0</ele><time>2026-04-22T14:12:42.609Z</time></trkpt><trkpt lat="43.634285" lon="13.1148767"><ele>120.0</ele><time>2026-04-22T14:12:43.609Z</time></trkpt><trkpt lat="43.6342217" lon="13.11506"><ele>119.0</ele><time>2026-04-22T14:12:44.609Z</time></trkpt><trkpt lat="43.634145" lon="13.1152467"><ele>118.0</ele><time>2026-04-22T14:12:45.609Z</time></trkpt><trkpt lat="43.63406" lon="13.1154167"><ele>117.0</ele><time>2026-04-22T14:12:46.609Z</time></trkpt><trkpt lat="43.6339583" lon="13.1155833"><ele>117.0</ele><time>2026-04-22T14:12:47.61Z</time></trkpt><trkpt lat="43.63385" lon="13.1157183"><ele>117.0</ele><time>2026-04-22T14:12:48.609Z</time></trkpt><trkpt lat="43.6337417" lon="13.1158483"><ele>117.0</ele><time>2026-04-22T14:12:49.609Z</time></trkpt><trkpt lat="43.6336517" lon="13.1159783"><ele>117.0</ele><time>2026-04-22T14:12:50.609Z</time></trkpt><trkpt lat="43.633575" lon="13.1161"><ele>117.0</ele><time>2026-04-22T14:12:51.609Z</time></trkpt><trkpt lat="43.6335067" lon="13.1162467"><ele>117.0</ele><time>2026-04-22T14:12:52.61Z</time></trkpt><trkpt lat="43.6334633" lon="13.116415"><ele>117.0</ele><time>2026-04-22T14:12:53.609Z</time></trkpt><trkpt lat="43.6334267" lon="13.1166033"><ele>117.0</ele><time>2026-04-22T14:12:54.609Z</time></trkpt><trkpt lat="43.6333983" lon="13.1168033"><ele>114.66666666666666</ele><time>2026-04-22T14:12:55.609Z</time></trkpt><trkpt lat="43.633375" lon="13.1170033"><ele>112.33333333333333</ele><time>2026-04-22T14:12:56.609Z</time></trkpt><trkpt lat="43.633355" lon="13.11721"><ele>110.0</ele><time>2026-04-22T14:12:57.609Z</time></trkpt><trkpt lat="43.63333" lon="13.11742"><ele>108.0</ele><time>2026-04-22T14:12:58.609Z</time></trkpt><trkpt lat="43.6333" lon="13.11764"><ele>106.0</ele><time>2026-04-22T14:12:59.609Z</time></trkpt><trkpt lat="43.6332767" lon="13.1178617"><ele>104.0</ele><time>2026-04-22T14:13:00.609Z</time></trkpt><trkpt lat="43.6332517" lon="13.1180833"><ele>102.66666666666666</ele><time>2026-04-22T14:13:01.61Z</time></trkpt><trkpt lat="43.6332267" lon="13.1182967"><ele>101.33333333333334</ele><time>2026-04-22T14:13:02.61Z</time></trkpt><trkpt lat="43.6331983" lon="13.1185017"><ele>100.0</ele><time>2026-04-22T14:13:03.609Z</time></trkpt><trkpt lat="43.6331567" lon="13.1187017"><ele>100.0</ele><time>2026-04-22T14:13:04.609Z</time></trkpt><trkpt lat="43.633105" lon="13.1188967"><ele>100.0</ele><time>2026-04-22T14:13:05.609Z</time></trkpt><trkpt lat="43.6330417" lon="13.1190767"><ele>100.0</ele><time>2026-04-22T14:13:06.609Z</time></trkpt><trkpt lat="43.6329617" lon="13.1192517"><ele>100.0</ele><time>2026-04-22T14:13:07.609Z</time></trkpt><trkpt lat="43.6328767" lon="13.119425"><ele>100.0</ele><time>2026-04-22T14:13:08.609Z</time></trkpt><trkpt lat="43.632785" lon="13.1196017"><ele>100.0</ele><time>2026-04-22T14:13:09.609Z</time></trkpt><trkpt lat="43.6326867" lon="13.1197733"><ele>100.0</ele><time>2026-04-22T14:13:10.609Z</time></trkpt><trkpt lat="43.6325933" lon="13.1199567"><ele>99.33333333333334</ele><time>2026-04-22T14:13:11.609Z</time></trkpt><trkpt lat="43.6324983" lon="13.1201267"><ele>98.66666666666666</ele><time>2026-04-22T14:13:12.609Z</time></trkpt><trkpt lat="43.6324117" lon="13.1202983"><ele>98.0</ele><time>2026-04-22T14:13:13.609Z</time></trkpt><trkpt lat="43.6323267" lon="13.120465"><ele>98.0</ele><time>2026-04-22T14:13:14.609Z</time></trkpt><trkpt lat="43.6322383" lon="13.1206433"><ele>98.0</ele><time>2026-04-22T14:13:15.61Z</time></trkpt><trkpt lat="43.6321517" lon="13.1208233"><ele>98.0</ele><time>2026-04-22T14:13:16.609Z</time></trkpt><trkpt lat="43.6320567" lon="13.1209867"><ele>99.25</ele><time>2026-04-22T14:13:17.609Z</time></trkpt><trkpt lat="43.631965" lon="13.1211333"><ele>100.5</ele><time>2026-04-22T14:13:18.609Z</time></trkpt><trkpt lat="43.6318683" lon="13.121265"><ele>101.75</ele><time>2026-04-22T14:13:19.609Z</time></trkpt><trkpt lat="43.6317583" lon="13.1213717"><ele>103.0</ele><time>2026-04-22T14:13:20.61Z</time></trkpt><trkpt lat="43.63164" lon="13.1214617"><ele>103.0</ele><time>2026-04-22T14:13:21.609Z</time></trkpt><trkpt lat="43.6315067" lon="13.1215333"><ele>103.0</ele><time>2026-04-22T14:13:22.609Z</time></trkpt><trkpt lat="43.6313717" lon="13.121595"><ele>103.0</ele><time>2026-04-22T14:13:23.609Z</time></trkpt><trkpt lat="43.6312433" lon="13.12165"><ele>103.0</ele><time>2026-04-22T14:13:24.609Z</time></trkpt><trkpt lat="43.63112" lon="13.1216767"><ele>102.5</ele><time>2026-04-22T14:13:25.609Z</time></trkpt><trkpt lat="43.6309917" lon="13.1216883"><ele>102.0</ele><time>2026-04-22T14:13:26.609Z</time></trkpt><trkpt lat="43.6308617" lon="13.121685"><ele>101.5</ele><time>2026-04-22T14:13:27.609Z</time></trkpt><trkpt lat="43.6307283" lon="13.1216667"><ele>101.0</ele><time>2026-04-22T14:13:28.609Z</time></trkpt><trkpt lat="43.630595" lon="13.1216367"><ele>101.0</ele><time>2026-04-22T14:13:29.609Z</time></trkpt><trkpt lat="43.6304583" lon="13.121595"><ele>101.0</ele><time>2026-04-22T14:13:30.609Z</time></trkpt><trkpt lat="43.6303233" lon="13.1215433"><ele>101.0</ele><time>2026-04-22T14:13:31.609Z</time></trkpt><trkpt lat="43.6301867" lon="13.121485"><ele>101.0</ele><time>2026-04-22T14:13:32.609Z</time></trkpt><trkpt lat="43.6300483" lon="13.121425"><ele>100.75</ele><time>2026-04-22T14:13:33.61Z</time></trkpt><trkpt lat="43.6299233" lon="13.121365"><ele>100.5</ele><time>2026-04-22T14:13:34.609Z</time></trkpt><trkpt lat="43.6297983" lon="13.1213017"><ele>100.25</ele><time>2026-04-22T14:13:35.61Z</time></trkpt><trkpt lat="43.629675" lon="13.1212433"><ele>100.0</ele><time>2026-04-22T14:13:36.609Z</time></trkpt><trkpt lat="43.6295483" lon="13.121205"><ele>98.5</ele><time>2026-04-22T14:13:37.609Z</time></trkpt><trkpt lat="43.6294267" lon="13.1211483"><ele>97.0</ele><time>2026-04-22T14:13:38.609Z</time></trkpt><trkpt lat="43.6293" lon="13.1210733"><ele>95.5</ele><time>2026-04-22T14:13:39.609Z</time></trkpt><trkpt lat="43.6291817" lon="13.1209817"><ele>94.0</ele><time>2026-04-22T14:13:40.609Z</time></trkpt><trkpt lat="43.62907" lon="13.12088"><ele>94.0</ele><time>2026-04-22T14:13:41.609Z</time></trkpt><trkpt lat="43.6289667" lon="13.1207667"><ele>94.0</ele><time>2026-04-22T14:13:42.61Z</time></trkpt><trkpt lat="43.6288683" lon="13.12065"><ele>94.0</ele><time>2026-04-22T14:13:43.609Z</time></trkpt><trkpt lat="43.62877" lon="13.1205417"><ele>94.0</ele><time>2026-04-22T14:13:44.61Z</time></trkpt><trkpt lat="43.62868" lon="13.1204417"><ele>92.80000000000001</ele><time>2026-04-22T14:13:45.609Z</time></trkpt><trkpt lat="43.6285917" lon="13.1203417"><ele>91.60000000000001</ele><time>2026-04-22T14:13:46.609Z</time></trkpt><trkpt lat="43.6285333" lon="13.12023"><ele>90.4</ele><time>2026-04-22T14:13:47.61Z</time></trkpt><trkpt lat="43.6284983" lon="13.1201033"><ele>89.2</ele><time>2026-04-22T14:13:48.61Z</time></trkpt><trkpt lat="43.628495" lon="13.1199717"><ele>88.0</ele><time>2026-04-22T14:13:49.609Z</time></trkpt><trkpt lat="43.6285317" lon="13.119845"><ele>87.25</ele><time>2026-04-22T14:13:50.609Z</time></trkpt><trkpt lat="43.62861" lon="13.1197417"><ele>86.5</ele><time>2026-04-22T14:13:51.61Z</time></trkpt><trkpt lat="43.6287117" lon="13.1196533"><ele>85.75</ele><time>2026-04-22T14:13:52.609Z</time></trkpt><trkpt lat="43.6288283" lon="13.1195717"><ele>85.0</ele><time>2026-04-22T14:13:53.609Z</time></trkpt><trkpt lat="43.628945" lon="13.1194767"><ele>85.0</ele><time>2026-04-22T14:13:54.609Z</time></trkpt><trkpt lat="43.629065" lon="13.1193617"><ele>85.0</ele><time>2026-04-22T14:13:55.609Z</time></trkpt><trkpt lat="43.62918" lon="13.11925"><ele>85.0</ele><time>2026-04-22T14:13:56.609Z</time></trkpt><trkpt lat="43.6292917" lon="13.119135"><ele>85.0</ele><time>2026-04-22T14:13:57.609Z</time></trkpt><trkpt lat="43.629385" lon="13.1190217"><ele>84.16666666666666</ele><time>2026-04-22T14:13:58.609Z</time></trkpt><trkpt lat="43.629475" lon="13.1189317"><ele>83.33333333333333</ele><time>2026-04-22T14:13:59.609Z</time></trkpt><trkpt lat="43.6295533" lon="13.11884"><ele>82.5</ele><time>2026-04-22T14:14:00.609Z</time></trkpt><trkpt lat="43.6296133" lon="13.118755"><ele>81.66666666666667</ele><time>2026-04-22T14:14:01.61Z</time></trkpt><trkpt lat="43.6296433" lon="13.118665"><ele>80.83333333333334</ele><time>2026-04-22T14:14:02.609Z</time></trkpt><trkpt lat="43.6296383" lon="13.118575"><ele>80.0</ele><time>2026-04-22T14:14:03.609Z</time></trkpt><trkpt lat="43.629605" lon="13.1184967"><ele>80.0</ele><time>2026-04-22T14:14:04.61Z</time></trkpt><trkpt lat="43.6295467" lon="13.118435"><ele>80.0</ele><time>2026-04-22T14:14:05.609Z</time></trkpt><trkpt lat="43.6294733" lon="13.1184167"><ele>80.0</ele><time>2026-04-22T14:14:06.609Z</time></trkpt><trkpt lat="43.6293817" lon="13.1184617"><ele>80.0</ele><time>2026-04-22T14:14:07.609Z</time></trkpt><trkpt lat="43.6292817" lon="13.1185333"><ele>80.0</ele><time>2026-04-22T14:14:08.609Z</time></trkpt><trkpt lat="43.629175" lon="13.1186133"><ele>78.5</ele><time>2026-04-22T14:14:09.609Z</time></trkpt><trkpt lat="43.6290583" lon="13.1186883"><ele>77.0</ele><time>2026-04-22T14:14:10.609Z</time></trkpt><trkpt lat="43.6289467" lon="13.1187433"><ele>75.5</ele><time>2026-04-22T14:14:11.609Z</time></trkpt><trkpt lat="43.6288217" lon="13.1187833"><ele>74.0</ele><time>2026-04-22T14:14:12.609Z</time></trkpt><trkpt lat="43.6286917" lon="13.1188117"><ele>72.5</ele><time>2026-04-22T14:14:13.609Z</time></trkpt><trkpt lat="43.6285667" lon="13.11881"><ele>71.0</ele><time>2026-04-22T14:14:14.609Z</time></trkpt><trkpt lat="43.6284433" lon="13.118805"><ele>69.5</ele><time>2026-04-22T14:14:15.609Z</time></trkpt><trkpt lat="43.6283267" lon="13.1187833"><ele>68.0</ele><time>2026-04-22T14:14:16.61Z</time></trkpt><trkpt lat="43.6282083" lon="13.1187633"><ele>68.0</ele><time>2026-04-22T14:14:17.609Z</time></trkpt><trkpt lat="43.6281017" lon="13.1187267"><ele>68.0</ele><time>2026-04-22T14:14:18.609Z</time></trkpt><trkpt lat="43.628005" lon="13.11865"><ele>68.0</ele><time>2026-04-22T14:14:19.609Z</time></trkpt><trkpt lat="43.6279217" lon="13.118535"><ele>68.0</ele><time>2026-04-22T14:14:20.61Z</time></trkpt><trkpt lat="43.6278367" lon="13.1183833"><ele>66.25</ele><time>2026-04-22T14:14:21.609Z</time></trkpt><trkpt lat="43.6277567" lon="13.1182233"><ele>64.5</ele><time>2026-04-22T14:14:22.609Z</time></trkpt><trkpt lat="43.6276717" lon="13.1180717"><ele>62.75</ele><time>2026-04-22T14:14:23.609Z</time></trkpt><trkpt lat="43.627585" lon="13.1179233"><ele>61.0</ele><time>2026-04-22T14:14:24.609Z</time></trkpt><trkpt lat="43.6275" lon="13.1177933"><ele>61.0</ele><time>2026-04-22T14:14:25.609Z</time></trkpt><trkpt lat="43.6274167" lon="13.1176833"><ele>60.99999999999999</ele><time>2026-04-22T14:14:26.609Z</time></trkpt><trkpt lat="43.6273183" lon="13.1176083"><ele>60.99999999999999</ele><time>2026-04-22T14:14:27.609Z</time></trkpt><trkpt lat="43.6272183" lon="13.1175783"><ele>61.0</ele><time>2026-04-22T14:14:28.609Z</time></trkpt><trkpt lat="43.6271133" lon="13.1176067"><ele>61.0</ele><time>2026-04-22T14:14:29.609Z</time></trkpt><trkpt lat="43.6270117" lon="13.117685"><ele>60.25</ele><time>2026-04-22T14:14:30.609Z</time></trkpt><trkpt lat="43.6269267" lon="13.1177867"><ele>59.5</ele><time>2026-04-22T14:14:31.61Z</time></trkpt><trkpt lat="43.6268583" lon="13.1179167"><ele>58.75</ele><time>2026-04-22T14:14:32.609Z</time></trkpt><trkpt lat="43.6268217" lon="13.1180717"><ele>58.0</ele><time>2026-04-22T14:14:33.609Z</time></trkpt><trkpt lat="43.6267983" lon="13.11823"><ele>58.25</ele><time>2026-04-22T14:14:34.609Z</time></trkpt><trkpt lat="43.6267567" lon="13.118385"><ele>58.5</ele><time>2026-04-22T14:14:35.609Z</time></trkpt><trkpt lat="43.626715" lon="13.1185533"><ele>58.75</ele><time>2026-04-22T14:14:36.609Z</time></trkpt><trkpt lat="43.6266833" lon="13.11871"><ele>59.0</ele><time>2026-04-22T14:14:37.609Z</time></trkpt><trkpt lat="43.6266433" lon="13.11885"><ele>59.00000000000001</ele><time>2026-04-22T14:14:38.609Z</time></trkpt><trkpt lat="43.6266333" lon="13.11898"><ele>59.0</ele><time>2026-04-22T14:14:39.609Z</time></trkpt><trkpt lat="43.62666" lon="13.11909"><ele>59.0</ele><time>2026-04-22T14:14:40.61Z</time></trkpt><trkpt lat="43.6267067" lon="13.1191717"><ele>59.0</ele><time>2026-04-22T14:14:41.609Z</time></trkpt><trkpt lat="43.6267533" lon="13.11924"><ele>59.00000000000001</ele><time>2026-04-22T14:14:42.609Z</time></trkpt><trkpt lat="43.62677" lon="13.119325"><ele>59.0</ele><time>2026-04-22T14:14:43.61Z</time></trkpt><trkpt lat="43.6267167" lon="13.11948"><ele>60.400000000000006</ele><time>2026-04-22T14:14:45.609Z</time></trkpt><trkpt lat="43.62665" lon="13.11955"><ele>61.800000000000004</ele><time>2026-04-22T14:14:46.609Z</time></trkpt><trkpt lat="43.626565" lon="13.1196167"><ele>63.199999999999996</ele><time>2026-04-22T14:14:47.609Z</time></trkpt><trkpt lat="43.62646" lon="13.1196967"><ele>64.6</ele><time>2026-04-22T14:14:48.609Z</time></trkpt><trkpt lat="43.62635" lon="13.119785"><ele>66.0</ele><time>2026-04-22T14:14:49.609Z</time></trkpt><trkpt lat="43.6262467" lon="13.119885"><ele>67.75</ele><time>2026-04-22T14:14:50.609Z</time></trkpt><trkpt lat="43.6261483" lon="13.11998"><ele>69.5</ele><time>2026-04-22T14:14:51.609Z</time></trkpt><trkpt lat="43.6260517" lon="13.1200817"><ele>71.25</ele><time>2026-04-22T14:14:52.609Z</time></trkpt><trkpt lat="43.6259533" lon="13.12018"><ele>73.0</ele><time>2026-04-22T14:14:53.609Z</time></trkpt><trkpt lat="43.62586" lon="13.1202817"><ele>70.5</ele><time>2026-04-22T14:14:54.609Z</time></trkpt><trkpt lat="43.625775" lon="13.1203867"><ele>68.0</ele><time>2026-04-22T14:14:55.61Z</time></trkpt><trkpt lat="43.6256883" lon="13.1204967"><ele>65.5</ele><time>2026-04-22T14:14:56.609Z</time></trkpt><trkpt lat="43.625615" lon="13.1206233"><ele>63.0</ele><time>2026-04-22T14:14:57.609Z</time></trkpt><trkpt lat="43.6255417" lon="13.1207617"><ele>63.0</ele><time>2026-04-22T14:14:58.609Z</time></trkpt><trkpt lat="43.6254933" lon="13.12092"><ele>63.0</ele><time>2026-04-22T14:14:59.609Z</time></trkpt><trkpt lat="43.6254517" lon="13.121085"><ele>63.0</ele><time>2026-04-22T14:15:00.609Z</time></trkpt><trkpt lat="43.62542" lon="13.1212483"><ele>63.0</ele><time>2026-04-22T14:15:01.609Z</time></trkpt><trkpt lat="43.6253883" lon="13.1214067"><ele>63.0</ele><time>2026-04-22T14:15:02.609Z</time></trkpt><trkpt lat="43.62536" lon="13.121565"><ele>63.0</ele><time>2026-04-22T14:15:03.609Z</time></trkpt><trkpt lat="43.625335" lon="13.1217283"><ele>63.0</ele><time>2026-04-22T14:15:04.609Z</time></trkpt><trkpt lat="43.6252983" lon="13.1218917"><ele>63.0</ele><time>2026-04-22T14:15:05.609Z</time></trkpt><trkpt lat="43.62525" lon="13.1220417"><ele>60.75</ele><time>2026-04-22T14:15:06.609Z</time></trkpt><trkpt lat="43.6251933" lon="13.1221817"><ele>58.5</ele><time>2026-04-22T14:15:07.609Z</time></trkpt><trkpt lat="43.625135" lon="13.12231"><ele>56.25</ele><time>2026-04-22T14:15:08.609Z</time></trkpt><trkpt lat="43.6250733" lon="13.1224417"><ele>54.0</ele><time>2026-04-22T14:15:09.609Z</time></trkpt><trkpt lat="43.6250117" lon="13.122575"><ele>53.25</ele><time>2026-04-22T14:15:10.609Z</time></trkpt><trkpt lat="43.6249533" lon="13.1227183"><ele>52.5</ele><time>2026-04-22T14:15:11.609Z</time></trkpt><trkpt lat="43.624885" lon="13.1228533"><ele>51.75</ele><time>2026-04-22T14:15:12.609Z</time></trkpt><trkpt lat="43.6248133" lon="13.122995"><ele>51.0</ele><time>2026-04-22T14:15:13.609Z</time></trkpt><trkpt lat="43.624755" lon="13.1231367"><ele>50.75</ele><time>2026-04-22T14:15:14.61Z</time></trkpt><trkpt lat="43.62469" lon="13.1232783"><ele>50.5</ele><time>2026-04-22T14:15:15.609Z</time></trkpt><trkpt lat="43.6246217" lon="13.12341"><ele>50.25</ele><time>2026-04-22T14:15:16.609Z</time></trkpt><trkpt lat="43.6245517" lon="13.1235267"><ele>50.0</ele><time>2026-04-22T14:15:17.609Z</time></trkpt><trkpt lat="43.6244883" lon="13.1236533"><ele>49.8</ele><time>2026-04-22T14:15:18.609Z</time></trkpt><trkpt lat="43.62442" lon="13.1237767"><ele>49.6</ele><time>2026-04-22T14:15:19.609Z</time></trkpt><trkpt lat="43.624365" lon="13.1239083"><ele>49.400000000000006</ele><time>2026-04-22T14:15:20.609Z</time></trkpt><trkpt lat="43.6243" lon="13.1240167"><ele>49.2</ele><time>2026-04-22T14:15:21.609Z</time></trkpt><trkpt lat="43.6242483" lon="13.1241383"><ele>49.0</ele><time>2026-04-22T14:15:22.609Z</time></trkpt><trkpt lat="43.6242033" lon="13.12425"><ele>48.83333333333333</ele><time>2026-04-22T14:15:23.609Z</time></trkpt><trkpt lat="43.6241467" lon="13.1243383"><ele>48.666666666666664</ele><time>2026-04-22T14:15:24.609Z</time></trkpt><trkpt lat="43.6240867" lon="13.1244483"><ele>48.5</ele><time>2026-04-22T14:15:26.608Z</time></trkpt><trkpt lat="43.62404" lon="13.1245317"><ele>48.33333333333333</ele><time>2026-04-22T14:15:35.608Z</time></trkpt><trkpt lat="43.6240033" lon="13.124605"><ele>48.166666666666664</ele><time>2026-04-22T14:15:37.608Z</time></trkpt><trkpt lat="43.6240083" lon="13.1247167"><ele>48.0</ele><time>2026-04-22T14:15:39.608Z</time></trkpt><trkpt lat="43.6240983" lon="13.1248567"><ele>47.8</ele><time>2026-04-22T14:15:41.608Z</time></trkpt><trkpt lat="43.6241683" lon="13.1249367"><ele>47.599999999999994</ele><time>2026-04-22T14:15:42.608Z</time></trkpt><trkpt lat="43.6242433" lon="13.12502"><ele>47.400000000000006</ele><time>2026-04-22T14:15:43.608Z</time></trkpt><trkpt lat="43.6243233" lon="13.1251117"><ele>47.2</ele><time>2026-04-22T14:15:44.608Z</time></trkpt><trkpt lat="43.62441" lon="13.12521"><ele>47.0</ele><time>2026-04-22T14:15:45.608Z</time></trkpt><trkpt lat="43.6244933" lon="13.125315"><ele>47.0</ele><time>2026-04-22T14:15:46.608Z</time></trkpt><trkpt lat="43.62458" lon="13.1254283"><ele>47.0</ele><time>2026-04-22T14:15:47.608Z</time></trkpt><trkpt lat="43.6246617" lon="13.1255417"><ele>47.0</ele><time>2026-04-22T14:15:48.609Z</time></trkpt><trkpt lat="43.6247317" lon="13.1256617"><ele>47.0</ele><time>2026-04-22T14:15:49.608Z</time></trkpt><trkpt lat="43.624775" lon="13.125805"><ele>46.75</ele><time>2026-04-22T14:15:50.608Z</time></trkpt><trkpt lat="43.6247933" lon="13.1259617"><ele>46.5</ele><time>2026-04-22T14:15:51.609Z</time></trkpt><trkpt lat="43.6248017" lon="13.1261167"><ele>46.25</ele><time>2026-04-22T14:15:52.608Z</time></trkpt><trkpt lat="43.6247933" lon="13.1262783"><ele>46.0</ele><time>2026-04-22T14:15:53.608Z</time></trkpt><trkpt lat="43.6247733" lon="13.1264367"><ele>45.5</ele><time>2026-04-22T14:15:54.608Z</time></trkpt><trkpt lat="43.6247367" lon="13.126595"><ele>45.0</ele><time>2026-04-22T14:15:55.609Z</time></trkpt><trkpt lat="43.6246917" lon="13.126745"><ele>44.5</ele><time>2026-04-22T14:15:56.609Z</time></trkpt><trkpt lat="43.624645" lon="13.12689"><ele>44.0</ele><time>2026-04-22T14:15:57.608Z</time></trkpt><trkpt lat="43.6245933" lon="13.1270233"><ele>44.0</ele><time>2026-04-22T14:15:58.608Z</time></trkpt><trkpt lat="43.624545" lon="13.1271483"><ele>44.0</ele><time>2026-04-22T14:15:59.609Z</time></trkpt><trkpt lat="43.6245" lon="13.1272583"><ele>44.0</ele><time>2026-04-22T14:16:00.609Z</time></trkpt><trkpt lat="43.6244617" lon="13.1273667"><ele>44.0</ele><time>2026-04-22T14:16:01.608Z</time></trkpt><trkpt lat="43.624425" lon="13.12747"><ele>44.0</ele><time>2026-04-22T14:16:02.608Z</time></trkpt><trkpt lat="43.62439" lon="13.127565"><ele>44.0</ele><time>2026-04-22T14:16:03.608Z</time></trkpt><trkpt lat="43.6243567" lon="13.1276633"><ele>44.0</ele><time>2026-04-22T14:16:04.608Z</time></trkpt><trkpt lat="43.6243233" lon="13.1277533"><ele>44.0</ele><time>2026-04-22T14:16:05.608Z</time></trkpt><trkpt lat="43.6242883" lon="13.12784"><ele>44.0</ele><time>2026-04-22T14:16:06.608Z</time></trkpt><trkpt lat="43.62426" lon="13.1279217"><ele>44.0</ele><time>2026-04-22T14:16:07.608Z</time></trkpt><trkpt lat="43.62423" lon="13.1280467"><ele>44.0</ele><time>2026-04-22T14:16:09.608Z</time></trkpt><trkpt lat="43.624195" lon="13.1281667"><ele>44.0</ele><time>2026-04-22T14:16:50.609Z</time></trkpt><trkpt lat="43.62417" lon="13.12832"><ele>44.5</ele><time>2026-04-22T14:16:52.608Z</time></trkpt><trkpt lat="43.6241617" lon="13.1284217"><ele>45.0</ele><time>2026-04-22T14:16:53.608Z</time></trkpt><trkpt lat="43.6241517" lon="13.1285317"><ele>45.5</ele><time>2026-04-22T14:16:54.608Z</time></trkpt><trkpt lat="43.62414" lon="13.128655"><ele>46.0</ele><time>2026-04-22T14:16:55.608Z</time></trkpt><trkpt lat="43.6241383" lon="13.128785"><ele>46.5</ele><time>2026-04-22T14:16:56.608Z</time></trkpt><trkpt lat="43.6241517" lon="13.1289117"><ele>47.0</ele><time>2026-04-22T14:16:57.608Z</time></trkpt><trkpt lat="43.62418" lon="13.1290567"><ele>46.75</ele><time>2026-04-22T14:16:58.608Z</time></trkpt><trkpt lat="43.6242133" lon="13.1292017"><ele>46.5</ele><time>2026-04-22T14:16:59.608Z</time></trkpt><trkpt lat="43.6242617" lon="13.129345"><ele>46.25</ele><time>2026-04-22T14:17:00.608Z</time></trkpt><trkpt lat="43.624315" lon="13.1294917"><ele>46.0</ele><time>2026-04-22T14:17:01.608Z</time></trkpt><trkpt lat="43.62438" lon="13.1296283"><ele>46.0</ele><time>2026-04-22T14:17:02.608Z</time></trkpt><trkpt lat="43.624455" lon="13.1297517"><ele>46.0</ele><time>2026-04-22T14:17:03.608Z</time></trkpt><trkpt lat="43.6245283" lon="13.1298717"><ele>46.0</ele><time>2026-04-22T14:17:04.608Z</time></trkpt><trkpt lat="43.6245967" lon="13.1299933"><ele>46.0</ele><time>2026-04-22T14:17:05.608Z</time></trkpt><trkpt lat="43.624665" lon="13.13011"><ele>46.0</ele><time>2026-04-22T14:17:06.608Z</time></trkpt><trkpt lat="43.6247367" lon="13.13021"><ele>46.0</ele><time>2026-04-22T14:17:07.608Z</time></trkpt><trkpt lat="43.6247933" lon="13.1303133"><ele>46.0</ele><time>2026-04-22T14:17:08.608Z</time></trkpt><trkpt lat="43.624855" lon="13.1303983"><ele>46.0</ele><time>2026-04-22T14:17:09.608Z</time></trkpt><trkpt lat="43.6249067" lon="13.13049"><ele>46.0</ele><time>2026-04-22T14:17:10.608Z</time></trkpt><trkpt lat="43.6249533" lon="13.1305733"><ele>46.0</ele><time>2026-04-22T14:17:11.608Z</time></trkpt><trkpt lat="43.6249983" lon="13.1306517"><ele>46.0</ele><time>2026-04-22T14:17:12.608Z</time></trkpt><trkpt lat="43.625015" lon="13.130745"><ele>46.0</ele><time>2026-04-22T14:17:13.608Z</time></trkpt><trkpt lat="43.6250117" lon="13.13085"><ele>46.0</ele><time>2026-04-22T14:17:14.608Z</time></trkpt><trkpt lat="43.624985" lon="13.13097"><ele>46.0</ele><time>2026-04-22T14:17:15.608Z</time></trkpt><trkpt lat="43.6249533" lon="13.1311067"><ele>46.0</ele><time>2026-04-22T14:17:16.608Z</time></trkpt><trkpt lat="43.6249167" lon="13.131265"><ele>46.0</ele><time>2026-04-22T14:17:17.608Z</time></trkpt><trkpt lat="43.62488" lon="13.1314383"><ele>46.0</ele><time>2026-04-22T14:17:18.608Z</time></trkpt><trkpt lat="43.6248533" lon="13.1316133"><ele>46.0</ele><time>2026-04-22T14:17:19.608Z</time></trkpt><trkpt lat="43.6248217" lon="13.1317833"><ele>46.0</ele><time>2026-04-22T14:17:20.608Z</time></trkpt><trkpt lat="43.6247833" lon="13.13195"><ele>45.5</ele><time>2026-04-22T14:17:21.608Z</time></trkpt><trkpt lat="43.6247317" lon="13.1321"><ele>45.0</ele><time>2026-04-22T14:17:22.608Z</time></trkpt><trkpt lat="43.6246767" lon="13.1322467"><ele>44.5</ele><time>2026-04-22T14:17:23.608Z</time></trkpt><trkpt lat="43.6246083" lon="13.1323833"><ele>44.0</ele><time>2026-04-22T14:17:24.608Z</time></trkpt><trkpt lat="43.624535" lon="13.13252"><ele>44.25</ele><time>2026-04-22T14:17:25.608Z</time></trkpt><trkpt lat="43.6244567" lon="13.13265"><ele>44.5</ele><time>2026-04-22T14:17:26.608Z</time></trkpt><trkpt lat="43.624385" lon="13.1327917"><ele>44.75</ele><time>2026-04-22T14:17:27.608Z</time></trkpt><trkpt lat="43.62433" lon="13.1329583"><ele>45.0</ele><time>2026-04-22T14:17:28.608Z</time></trkpt><trkpt lat="43.6242817" lon="13.13314"><ele>45.25</ele><time>2026-04-22T14:17:29.608Z</time></trkpt><trkpt lat="43.624255" lon="13.1333433"><ele>45.5</ele><time>2026-04-22T14:17:30.608Z</time></trkpt><trkpt lat="43.6242483" lon="13.1335533"><ele>45.75</ele><time>2026-04-22T14:17:31.608Z</time></trkpt><trkpt lat="43.6242567" lon="13.1337567"><ele>46.0</ele><time>2026-04-22T14:17:32.609Z</time></trkpt><trkpt lat="43.62427" lon="13.1339517"><ele>45.75</ele><time>2026-04-22T14:17:33.608Z</time></trkpt><trkpt lat="43.6242783" lon="13.1341583"><ele>45.5</ele><time>2026-04-22T14:17:34.608Z</time></trkpt><trkpt lat="43.6242867" lon="13.1343633"><ele>45.25</ele><time>2026-04-22T14:17:35.608Z</time></trkpt><trkpt lat="43.624295" lon="13.1345683"><ele>45.0</ele><time>2026-04-22T14:17:36.608Z</time></trkpt><trkpt lat="43.6242967" lon="13.1347767"><ele>44.666666666666664</ele><time>2026-04-22T14:17:37.608Z</time></trkpt><trkpt lat="43.6242967" lon="13.13498"><ele>44.33333333333333</ele><time>2026-04-22T14:17:38.608Z</time></trkpt><trkpt lat="43.6242783" lon="13.1351867"><ele>44.0</ele><time>2026-04-22T14:17:39.608Z</time></trkpt><trkpt lat="43.6242517" lon="13.1353933"><ele>44.0</ele><time>2026-04-22T14:17:40.609Z</time></trkpt><trkpt lat="43.6242267" lon="13.1356017"><ele>44.0</ele><time>2026-04-22T14:17:41.609Z</time></trkpt><trkpt lat="43.6242" lon="13.1357967"><ele>44.0</ele><time>2026-04-22T14:17:42.608Z</time></trkpt><trkpt lat="43.6241667" lon="13.1359833"><ele>44.0</ele><time>2026-04-22T14:17:43.608Z</time></trkpt><trkpt lat="43.6241367" lon="13.1361717"><ele>44.25</ele><time>2026-04-22T14:17:44.608Z</time></trkpt><trkpt lat="43.6241083" lon="13.1363667"><ele>44.5</ele><time>2026-04-22T14:17:45.608Z</time></trkpt><trkpt lat="43.6240717" lon="13.136555"><ele>44.75</ele><time>2026-04-22T14:17:46.608Z</time></trkpt><trkpt lat="43.62404" lon="13.1367367"><ele>45.0</ele><time>2026-04-22T14:17:47.608Z</time></trkpt><trkpt lat="43.624005" lon="13.1369017"><ele>45.0</ele><time>2026-04-22T14:17:48.608Z</time></trkpt><trkpt lat="43.62397" lon="13.1370567"><ele>45.0</ele><time>2026-04-22T14:17:49.608Z</time></trkpt><trkpt lat="43.6239317" lon="13.137195"><ele>45.0</ele><time>2026-04-22T14:17:50.608Z</time></trkpt><trkpt lat="43.6238817" lon="13.1373367"><ele>45.0</ele><time>2026-04-22T14:17:51.608Z</time></trkpt><trkpt lat="43.623825" lon="13.137495"><ele>45.75</ele><time>2026-04-22T14:17:52.609Z</time></trkpt><trkpt lat="43.6237683" lon="13.1376533"><ele>46.5</ele><time>2026-04-22T14:17:53.608Z</time></trkpt><trkpt lat="43.6237117" lon="13.1378217"><ele>47.25</ele><time>2026-04-22T14:17:54.608Z</time></trkpt><trkpt lat="43.623655" lon="13.137995"><ele>48.0</ele><time>2026-04-22T14:17:55.609Z</time></trkpt><trkpt lat="43.6236083" lon="13.1381733"><ele>48.75</ele><time>2026-04-22T14:17:56.608Z</time></trkpt><trkpt lat="43.6235717" lon="13.1383383"><ele>49.5</ele><time>2026-04-22T14:17:57.609Z</time></trkpt><trkpt lat="43.62354" lon="13.138515"><ele>50.25</ele><time>2026-04-22T14:17:58.608Z</time></trkpt><trkpt lat="43.623515" lon="13.1386883"><ele>51.0</ele><time>2026-04-22T14:17:59.608Z</time></trkpt><trkpt lat="43.6235017" lon="13.1388633"><ele>51.0</ele><time>2026-04-22T14:18:00.608Z</time></trkpt><trkpt lat="43.6234917" lon="13.1390317"><ele>51.0</ele><time>2026-04-22T14:18:01.608Z</time></trkpt><trkpt lat="43.6234767" lon="13.1392117"><ele>51.0</ele><time>2026-04-22T14:18:02.608Z</time></trkpt><trkpt lat="43.6234517" lon="13.139395"><ele>51.0</ele><time>2026-04-22T14:18:03.608Z</time></trkpt><trkpt lat="43.62342" lon="13.139585"><ele>51.5</ele><time>2026-04-22T14:18:04.609Z</time></trkpt><trkpt lat="43.6233933" lon="13.139785"><ele>52.0</ele><time>2026-04-22T14:18:05.608Z</time></trkpt><trkpt lat="43.6233583" lon="13.1399833"><ele>52.5</ele><time>2026-04-22T14:18:06.608Z</time></trkpt><trkpt lat="43.62332" lon="13.1401867"><ele>53.0</ele><time>2026-04-22T14:18:07.608Z</time></trkpt><trkpt lat="43.6232867" lon="13.14039"><ele>55.66666666666667</ele><time>2026-04-22T14:18:08.608Z</time></trkpt><trkpt lat="43.6232483" lon="13.1405933"><ele>58.33333333333333</ele><time>2026-04-22T14:18:09.608Z</time></trkpt><trkpt lat="43.6232167" lon="13.1408033"><ele>61.0</ele><time>2026-04-22T14:18:10.608Z</time></trkpt><trkpt lat="43.62319" lon="13.141"><ele>63.5</ele><time>2026-04-22T14:18:11.608Z</time></trkpt><trkpt lat="43.623165" lon="13.1412"><ele>66.0</ele><time>2026-04-22T14:18:12.608Z</time></trkpt><trkpt lat="43.62314" lon="13.1413967"><ele>68.5</ele><time>2026-04-22T14:18:13.608Z</time></trkpt><trkpt lat="43.6231117" lon="13.1415967"><ele>71.0</ele><time>2026-04-22T14:18:14.608Z</time></trkpt><trkpt lat="43.6230783" lon="13.1417933"><ele>73.5</ele><time>2026-04-22T14:18:15.608Z</time></trkpt><trkpt lat="43.6230367" lon="13.141975"><ele>76.0</ele><time>2026-04-22T14:18:16.608Z</time></trkpt><trkpt lat="43.622995" lon="13.1421517"><ele>78.5</ele><time>2026-04-22T14:18:17.609Z</time></trkpt><trkpt lat="43.6229517" lon="13.1423283"><ele>81.0</ele><time>2026-04-22T14:18:18.608Z</time></trkpt><trkpt lat="43.6229017" lon="13.1424917"><ele>82.0</ele><time>2026-04-22T14:18:19.608Z</time></trkpt><trkpt lat="43.62285" lon="13.1426533"><ele>83.0</ele><time>2026-04-22T14:18:20.608Z</time></trkpt><trkpt lat="43.6228033" lon="13.142805"><ele>84.0</ele><time>2026-04-22T14:18:21.608Z</time></trkpt><trkpt lat="43.622765" lon="13.1429567"><ele>85.0</ele><time>2026-04-22T14:18:22.608Z</time></trkpt><trkpt lat="43.6227333" lon="13.1431167"><ele>86.75</ele><time>2026-04-22T14:18:23.608Z</time></trkpt><trkpt lat="43.6227117" lon="13.143285"><ele>88.5</ele><time>2026-04-22T14:18:24.608Z</time></trkpt><trkpt lat="43.6226983" lon="13.1434667"><ele>90.25</ele><time>2026-04-22T14:18:25.608Z</time></trkpt><trkpt lat="43.622685" lon="13.1436533"><ele>92.0</ele><time>2026-04-22T14:18:26.608Z</time></trkpt><trkpt lat="43.622675" lon="13.143825"><ele>92.0</ele><time>2026-04-22T14:18:27.608Z</time></trkpt><trkpt lat="43.622665" lon="13.143995"><ele>92.0</ele><time>2026-04-22T14:18:28.608Z</time></trkpt><trkpt lat="43.622655" lon="13.1441717"><ele>92.0</ele><time>2026-04-22T14:18:29.608Z</time></trkpt><trkpt lat="43.6226483" lon="13.144335"><ele>92.0</ele><time>2026-04-22T14:18:30.608Z</time></trkpt><trkpt lat="43.6226383" lon="13.1445"><ele>92.5</ele><time>2026-04-22T14:18:31.608Z</time></trkpt><trkpt lat="43.6226417" lon="13.14465"><ele>93.0</ele><time>2026-04-22T14:18:32.609Z</time></trkpt><trkpt lat="43.6226667" lon="13.1448033"><ele>93.5</ele><time>2026-04-22T14:18:33.608Z</time></trkpt><trkpt lat="43.6227017" lon="13.14496"><ele>94.0</ele><time>2026-04-22T14:18:34.609Z</time></trkpt><trkpt lat="43.6227467" lon="13.1451333"><ele>94.75</ele><time>2026-04-22T14:18:35.608Z</time></trkpt><trkpt lat="43.6227983" lon="13.1453067"><ele>95.5</ele><time>2026-04-22T14:18:36.608Z</time></trkpt><trkpt lat="43.622845" lon="13.1454967"><ele>96.25</ele><time>2026-04-22T14:18:37.608Z</time></trkpt><trkpt lat="43.622895" lon="13.1456917"><ele>97.0</ele><time>2026-04-22T14:18:38.608Z</time></trkpt><trkpt lat="43.622945" lon="13.1458917"><ele>100.75</ele><time>2026-04-22T14:18:39.608Z</time></trkpt><trkpt lat="43.622985" lon="13.1460817"><ele>104.5</ele><time>2026-04-22T14:18:40.609Z</time></trkpt><trkpt lat="43.62302" lon="13.1462667"><ele>108.25</ele><time>2026-04-22T14:18:41.608Z</time></trkpt><trkpt lat="43.6230583" lon="13.1464467"><ele>112.0</ele><time>2026-04-22T14:18:42.608Z</time></trkpt><trkpt lat="43.6230917" lon="13.14661"><ele>112.19999999999999</ele><time>2026-04-22T14:18:43.608Z</time></trkpt><trkpt lat="43.6231183" lon="13.1467617"><ele>112.39999999999999</ele><time>2026-04-22T14:18:44.608Z</time></trkpt><trkpt lat="43.6231333" lon="13.1469"><ele>112.60000000000001</ele><time>2026-04-22T14:18:45.608Z</time></trkpt><trkpt lat="43.6231317" lon="13.14703"><ele>112.80000000000001</ele><time>2026-04-22T14:18:46.608Z</time></trkpt><trkpt lat="43.6231183" lon="13.1471533"><ele>113.0</ele><time>2026-04-22T14:18:47.608Z</time></trkpt><trkpt lat="43.6231" lon="13.147275"><ele>112.80000000000001</ele><time>2026-04-22T14:18:48.608Z</time></trkpt><trkpt lat="43.6230617" lon="13.14739"><ele>112.60000000000001</ele><time>2026-04-22T14:18:49.608Z</time></trkpt><trkpt lat="43.6230083" lon="13.1474933"><ele>112.39999999999999</ele><time>2026-04-22T14:18:50.608Z</time></trkpt><trkpt lat="43.622945" lon="13.147575"><ele>112.19999999999999</ele><time>2026-04-22T14:18:51.608Z</time></trkpt><trkpt lat="43.6228567" lon="13.1476433"><ele>112.0</ele><time>2026-04-22T14:18:52.609Z</time></trkpt><trkpt lat="43.6227467" lon="13.1477033"><ele>113.5</ele><time>2026-04-22T14:18:53.608Z</time></trkpt><trkpt lat="43.622625" lon="13.1477633"><ele>115.0</ele><time>2026-04-22T14:18:54.608Z</time></trkpt><trkpt lat="43.6225" lon="13.1478267"><ele>116.5</ele><time>2026-04-22T14:18:55.608Z</time></trkpt><trkpt lat="43.6223833" lon="13.1479067"><ele>118.0</ele><time>2026-04-22T14:18:56.608Z</time></trkpt><trkpt lat="43.6222617" lon="13.147985"><ele>118.0</ele><time>2026-04-22T14:18:57.608Z</time></trkpt><trkpt lat="43.62213" lon="13.1480733"><ele>118.0</ele><time>2026-04-22T14:18:58.608Z</time></trkpt><trkpt lat="43.6219983" lon="13.1481667"><ele>118.0</ele><time>2026-04-22T14:18:59.608Z</time></trkpt><trkpt lat="43.62187" lon="13.148265"><ele>118.0</ele><time>2026-04-22T14:19:00.608Z</time></trkpt><trkpt lat="43.6217467" lon="13.148365"><ele>118.5</ele><time>2026-04-22T14:19:01.608Z</time></trkpt><trkpt lat="43.6216183" lon="13.148475"><ele>119.0</ele><time>2026-04-22T14:19:02.608Z</time></trkpt><trkpt lat="43.62149" lon="13.14858"><ele>119.5</ele><time>2026-04-22T14:19:03.608Z</time></trkpt><trkpt lat="43.6213733" lon="13.1486767"><ele>120.0</ele><time>2026-04-22T14:19:04.608Z</time></trkpt><trkpt lat="43.6212633" lon="13.14876"><ele>120.0</ele><time>2026-04-22T14:19:05.608Z</time></trkpt><trkpt lat="43.6211517" lon="13.1488517"><ele>120.0</ele><time>2026-04-22T14:19:06.609Z</time></trkpt><trkpt lat="43.6210367" lon="13.148935"><ele>120.0</ele><time>2026-04-22T14:19:07.608Z</time></trkpt><trkpt lat="43.6209367" lon="13.14901"><ele>120.0</ele><time>2026-04-22T14:19:08.608Z</time></trkpt><trkpt lat="43.6208467" lon="13.149075"><ele>119.0</ele><time>2026-04-22T14:19:09.609Z</time></trkpt><trkpt lat="43.6207733" lon="13.1491383"><ele>118.0</ele><time>2026-04-22T14:19:10.608Z</time></trkpt><trkpt lat="43.6207067" lon="13.149195"><ele>117.0</ele><time>2026-04-22T14:19:11.608Z</time></trkpt><trkpt lat="43.620635" lon="13.14926"><ele>116.0</ele><time>2026-04-22T14:19:12.608Z</time></trkpt><trkpt lat="43.6205617" lon="13.1493567"><ele>115.0</ele><time>2026-04-22T14:19:13.609Z</time></trkpt><trkpt lat="43.6204783" lon="13.1494617"><ele>115.0</ele><time>2026-04-22T14:19:14.608Z</time></trkpt><trkpt lat="43.6203983" lon="13.1496133"><ele>115.0</ele><time>2026-04-22T14:19:15.608Z</time></trkpt><trkpt lat="43.6203317" lon="13.1497783"><ele>115.0</ele><time>2026-04-22T14:19:16.609Z</time></trkpt><trkpt lat="43.6202617" lon="13.1499533"><ele>115.0</ele><time>2026-04-22T14:19:17.608Z</time></trkpt><trkpt lat="43.6201833" lon="13.15015"><ele>116.66666666666667</ele><time>2026-04-22T14:19:18.608Z</time></trkpt><trkpt lat="43.6201017" lon="13.1503517"><ele>118.33333333333334</ele><time>2026-04-22T14:19:19.608Z</time></trkpt><trkpt lat="43.62001" lon="13.1505633"><ele>120.0</ele><time>2026-04-22T14:19:20.608Z</time></trkpt><trkpt lat="43.6199167" lon="13.1507667"><ele>120.0</ele><time>2026-04-22T14:19:21.608Z</time></trkpt><trkpt lat="43.6198183" lon="13.15096"><ele>120.0</ele><time>2026-04-22T14:19:22.608Z</time></trkpt><trkpt lat="43.619725" lon="13.1511433"><ele>120.0</ele><time>2026-04-22T14:19:23.608Z</time></trkpt><trkpt lat="43.6196283" lon="13.1513067"><ele>120.0</ele><time>2026-04-22T14:19:24.608Z</time></trkpt><trkpt lat="43.619525" lon="13.1514533"><ele>120.0</ele><time>2026-04-22T14:19:25.608Z</time></trkpt><trkpt lat="43.619415" lon="13.15159"><ele>120.0</ele><time>2026-04-22T14:19:26.609Z</time></trkpt><trkpt lat="43.619315" lon="13.1517283"><ele>120.0</ele><time>2026-04-22T14:19:27.608Z</time></trkpt><trkpt lat="43.6192117" lon="13.1518617"><ele>121.5</ele><time>2026-04-22T14:19:28.609Z</time></trkpt><trkpt lat="43.6191133" lon="13.1519917"><ele>123.0</ele><time>2026-04-22T14:19:29.608Z</time></trkpt><trkpt lat="43.61901" lon="13.15211"><ele>124.5</ele><time>2026-04-22T14:19:30.608Z</time></trkpt><trkpt lat="43.61891" lon="13.152245"><ele>126.0</ele><time>2026-04-22T14:19:31.608Z</time></trkpt><trkpt lat="43.618805" lon="13.15236"><ele>125.66666666666666</ele><time>2026-04-22T14:19:32.608Z</time></trkpt><trkpt lat="43.6186867" lon="13.152475"><ele>125.33333333333333</ele><time>2026-04-22T14:19:33.608Z</time></trkpt><trkpt lat="43.61855" lon="13.1525683"><ele>125.0</ele><time>2026-04-22T14:19:34.608Z</time></trkpt><trkpt lat="43.6183983" lon="13.152645"><ele>125.0</ele><time>2026-04-22T14:19:35.608Z</time></trkpt><trkpt lat="43.618255" lon="13.15268"><ele>125.0</ele><time>2026-04-22T14:19:36.609Z</time></trkpt><trkpt lat="43.6181067" lon="13.152735"><ele>125.0</ele><time>2026-04-22T14:19:37.608Z</time></trkpt><trkpt lat="43.6179783" lon="13.1527817"><ele>125.0</ele><time>2026-04-22T14:19:38.608Z</time></trkpt><trkpt lat="43.6178483" lon="13.1528483"><ele>124.25</ele><time>2026-04-22T14:19:39.608Z</time></trkpt><trkpt lat="43.6177333" lon="13.1529233"><ele>123.5</ele><time>2026-04-22T14:19:40.608Z</time></trkpt><trkpt lat="43.61763" lon="13.1530183"><ele>122.75</ele><time>2026-04-22T14:19:41.608Z</time></trkpt><trkpt lat="43.6175583" lon="13.1531267"><ele>122.0</ele><time>2026-04-22T14:19:42.608Z</time></trkpt><trkpt lat="43.6175133" lon="13.1532567"><ele>124.5</ele><time>2026-04-22T14:19:43.608Z</time></trkpt><trkpt lat="43.6175033" lon="13.15341"><ele>127.0</ele><time>2026-04-22T14:19:44.609Z</time></trkpt><trkpt lat="43.617535" lon="13.1535567"><ele>129.5</ele><time>2026-04-22T14:19:45.608Z</time></trkpt><trkpt lat="43.61759" lon="13.1536867"><ele>132.0</ele><time>2026-04-22T14:19:46.608Z</time></trkpt><trkpt lat="43.6176533" lon="13.153825"><ele>132.0</ele><time>2026-04-22T14:19:47.608Z</time></trkpt><trkpt lat="43.617725" lon="13.15398"><ele>132.0</ele><time>2026-04-22T14:19:48.608Z</time></trkpt><trkpt lat="43.6177967" lon="13.154145"><ele>132.0</ele><time>2026-04-22T14:19:49.608Z</time></trkpt><trkpt lat="43.6178717" lon="13.1543067"><ele>132.0</ele><time>2026-04-22T14:19:50.608Z</time></trkpt><trkpt lat="43.6179367" lon="13.1544767"><ele>133.25</ele><time>2026-04-22T14:19:51.608Z</time></trkpt><trkpt lat="43.618005" lon="13.1546467"><ele>134.5</ele><time>2026-04-22T14:19:52.608Z</time></trkpt><trkpt lat="43.61806" lon="13.1548233"><ele>135.75</ele><time>2026-04-22T14:19:53.608Z</time></trkpt><trkpt lat="43.6180933" lon="13.1550067"><ele>137.0</ele><time>2026-04-22T14:19:54.608Z</time></trkpt><trkpt lat="43.6180917" lon="13.1551917"><ele>137.0</ele><time>2026-04-22T14:19:55.609Z</time></trkpt><trkpt lat="43.61807" lon="13.1553717"><ele>137.0</ele><time>2026-04-22T14:19:56.608Z</time></trkpt><trkpt lat="43.6180483" lon="13.15555"><ele>137.0</ele><time>2026-04-22T14:19:57.608Z</time></trkpt><trkpt lat="43.6180083" lon="13.1557233"><ele>137.0</ele><time>2026-04-22T14:19:58.608Z</time></trkpt><trkpt lat="43.6179667" lon="13.1559"><ele>137.5</ele><time>2026-04-22T14:19:59.608Z</time></trkpt><trkpt lat="43.617925" lon="13.1560833"><ele>138.0</ele><time>2026-04-22T14:20:00.608Z</time></trkpt><trkpt lat="43.6178833" lon="13.15626"><ele>138.5</ele><time>2026-04-22T14:20:01.608Z</time></trkpt><trkpt lat="43.61785" lon="13.156435"><ele>139.0</ele><time>2026-04-22T14:20:02.608Z</time></trkpt><trkpt lat="43.61782" lon="13.1566133"><ele>139.25</ele><time>2026-04-22T14:20:03.608Z</time></trkpt><trkpt lat="43.6177867" lon="13.1568"><ele>139.5</ele><time>2026-04-22T14:20:04.608Z</time></trkpt><trkpt lat="43.61776" lon="13.1569683"><ele>139.75</ele><time>2026-04-22T14:20:05.608Z</time></trkpt><trkpt lat="43.6177183" lon="13.15714"><ele>140.0</ele><time>2026-04-22T14:20:06.609Z</time></trkpt><trkpt lat="43.6176783" lon="13.157295"><ele>142.25</ele><time>2026-04-22T14:20:07.608Z</time></trkpt><trkpt lat="43.61765" lon="13.1574567"><ele>144.5</ele><time>2026-04-22T14:20:08.608Z</time></trkpt><trkpt lat="43.6176283" lon="13.15763"><ele>146.75</ele><time>2026-04-22T14:20:09.608Z</time></trkpt><trkpt lat="43.6175967" lon="13.1577833"><ele>149.0</ele><time>2026-04-22T14:20:10.609Z</time></trkpt><trkpt lat="43.6175633" lon="13.15795"><ele>149.0</ele><time>2026-04-22T14:20:11.609Z</time></trkpt><trkpt lat="43.61752" lon="13.1581167"><ele>149.0</ele><time>2026-04-22T14:20:12.608Z</time></trkpt><trkpt lat="43.61749" lon="13.15829"><ele>149.0</ele><time>2026-04-22T14:20:13.608Z</time></trkpt><trkpt lat="43.617455" lon="13.158455"><ele>149.0</ele><time>2026-04-22T14:20:14.608Z</time></trkpt><trkpt lat="43.6174017" lon="13.1586067"><ele>150.0</ele><time>2026-04-22T14:20:15.608Z</time></trkpt><trkpt lat="43.6173317" lon="13.1587383"><ele>151.0</ele><time>2026-04-22T14:20:16.608Z</time></trkpt><trkpt lat="43.61725" lon="13.15884"><ele>152.0</ele><time>2026-04-22T14:20:17.608Z</time></trkpt><trkpt lat="43.617155" lon="13.1589033"><ele>153.0</ele><time>2026-04-22T14:20:18.608Z</time></trkpt><trkpt lat="43.6170467" lon="13.1589233"><ele>154.0</ele><time>2026-04-22T14:20:19.608Z</time></trkpt><trkpt lat="43.6169433" lon="13.1589217"><ele>154.0</ele><time>2026-04-22T14:20:20.608Z</time></trkpt><trkpt lat="43.6168583" lon="13.1589"><ele>154.0</ele><time>2026-04-22T14:20:21.608Z</time></trkpt><trkpt lat="43.61678" lon="13.1588733"><ele>154.0</ele><time>2026-04-22T14:20:22.608Z</time></trkpt><trkpt lat="43.61671" lon="13.1588383"><ele>154.0</ele><time>2026-04-22T14:20:23.608Z</time></trkpt><trkpt lat="43.6166333" lon="13.158815"><ele>154.0</ele><time>2026-04-22T14:20:24.607Z</time></trkpt><trkpt lat="43.616545" lon="13.1587817"><ele>154.0</ele><time>2026-04-22T14:20:25.607Z</time></trkpt><trkpt lat="43.616455" lon="13.1587417"><ele>154.0</ele><time>2026-04-22T14:20:26.607Z</time></trkpt><trkpt lat="43.6163583" lon="13.1587067"><ele>154.0</ele><time>2026-04-22T14:20:27.607Z</time></trkpt><trkpt lat="43.6162633" lon="13.1586633"><ele>154.0</ele><time>2026-04-22T14:20:28.607Z</time></trkpt><trkpt lat="43.6161783" lon="13.15861"><ele>154.0</ele><time>2026-04-22T14:20:29.607Z</time></trkpt><trkpt lat="43.6161083" lon="13.1585483"><ele>154.0</ele><time>2026-04-22T14:20:30.607Z</time></trkpt><trkpt lat="43.6160483" lon="13.1584767"><ele>152.8</ele><time>2026-04-22T14:20:31.607Z</time></trkpt><trkpt lat="43.615985" lon="13.15839"><ele>151.60000000000002</ele><time>2026-04-22T14:20:32.607Z</time></trkpt><trkpt lat="43.6159183" lon="13.1582933"><ele>150.4</ele><time>2026-04-22T14:20:33.607Z</time></trkpt><trkpt lat="43.61584" lon="13.1581783"><ele>149.20000000000002</ele><time>2026-04-22T14:20:34.608Z</time></trkpt><trkpt lat="43.6157683" lon="13.15805"><ele>148.0</ele><time>2026-04-22T14:20:35.607Z</time></trkpt><trkpt lat="43.6156883" lon="13.1579333"><ele>148.0</ele><time>2026-04-22T14:20:36.607Z</time></trkpt><trkpt lat="43.6156083" lon="13.1578217"><ele>148.0</ele><time>2026-04-22T14:20:37.607Z</time></trkpt><trkpt lat="43.6155067" lon="13.1577367"><ele>148.0</ele><time>2026-04-22T14:20:38.607Z</time></trkpt><trkpt lat="43.6153933" lon="13.1576767"><ele>148.0</ele><time>2026-04-22T14:20:39.608Z</time></trkpt><trkpt lat="43.6152767" lon="13.1576117"><ele>150.75</ele><time>2026-04-22T14:20:40.607Z</time></trkpt><trkpt lat="43.6151567" lon="13.1575517"><ele>153.5</ele><time>2026-04-22T14:20:41.607Z</time></trkpt><trkpt lat="43.6150283" lon="13.1574967"><ele>156.25</ele><time>2026-04-22T14:20:42.607Z</time></trkpt><trkpt lat="43.6149083" lon="13.157445"><ele>159.0</ele><time>2026-04-22T14:20:43.607Z</time></trkpt><trkpt lat="43.6147817" lon="13.1573767"><ele>158.75</ele><time>2026-04-22T14:20:44.607Z</time></trkpt><trkpt lat="43.61466" lon="13.1573083"><ele>158.5</ele><time>2026-04-22T14:20:45.607Z</time></trkpt><trkpt lat="43.614535" lon="13.1572517"><ele>158.25</ele><time>2026-04-22T14:20:46.607Z</time></trkpt><trkpt lat="43.6144133" lon="13.157185"><ele>158.0</ele><time>2026-04-22T14:20:47.607Z</time></trkpt><trkpt lat="43.6142883" lon="13.1571283"><ele>158.0</ele><time>2026-04-22T14:20:48.607Z</time></trkpt><trkpt lat="43.6141633" lon="13.1570717"><ele>158.0</ele><time>2026-04-22T14:20:49.607Z</time></trkpt><trkpt lat="43.61404" lon="13.1570167"><ele>158.0</ele><time>2026-04-22T14:20:50.607Z</time></trkpt><trkpt lat="43.6139167" lon="13.1569583"><ele>158.0</ele><time>2026-04-22T14:20:51.607Z</time></trkpt><trkpt lat="43.6137983" lon="13.156885"><ele>158.0</ele><time>2026-04-22T14:20:52.607Z</time></trkpt><trkpt lat="43.6136783" lon="13.156815"><ele>158.0</ele><time>2026-04-22T14:20:53.607Z</time></trkpt><trkpt lat="43.61356" lon="13.15675"><ele>158.0</ele><time>2026-04-22T14:20:54.607Z</time></trkpt><trkpt lat="43.613435" lon="13.1566883"><ele>158.0</ele><time>2026-04-22T14:20:55.607Z</time></trkpt><trkpt lat="43.61331" lon="13.15663"><ele>159.5</ele><time>2026-04-22T14:20:56.608Z</time></trkpt><trkpt lat="43.6131933" lon="13.156575"><ele>161.0</ele><time>2026-04-22T14:20:57.608Z</time></trkpt><trkpt lat="43.61308" lon="13.1565183"><ele>162.5</ele><time>2026-04-22T14:20:58.607Z</time></trkpt><trkpt lat="43.6129633" lon="13.15646"><ele>164.0</ele><time>2026-04-22T14:20:59.607Z</time></trkpt><trkpt lat="43.6128483" lon="13.1563967"><ele>167.0</ele><time>2026-04-22T14:21:00.608Z</time></trkpt><trkpt lat="43.612735" lon="13.15633"><ele>170.0</ele><time>2026-04-22T14:21:01.607Z</time></trkpt><trkpt lat="43.6126167" lon="13.1562683"><ele>173.0</ele><time>2026-04-22T14:21:02.607Z</time></trkpt><trkpt lat="43.6125067" lon="13.1562083"><ele>176.0</ele><time>2026-04-22T14:21:03.607Z</time></trkpt><trkpt lat="43.6124067" lon="13.156145"><ele>176.0</ele><time>2026-04-22T14:21:04.607Z</time></trkpt><trkpt lat="43.6123067" lon="13.1560717"><ele>176.0</ele><time>2026-04-22T14:21:05.607Z</time></trkpt><trkpt lat="43.612225" lon="13.1560033"><ele>176.0</ele><time>2026-04-22T14:21:06.607Z</time></trkpt><trkpt lat="43.6121517" lon="13.1559417"><ele>176.0</ele><time>2026-04-22T14:21:07.607Z</time></trkpt><trkpt lat="43.612085" lon="13.1558983"><ele>176.0</ele><time>2026-04-22T14:21:08.607Z</time></trkpt><trkpt lat="43.6119767" lon="13.1558767"><ele>176.60000000000002</ele><time>2026-04-22T14:21:10.607Z</time></trkpt><trkpt lat="43.61187" lon="13.1558933"><ele>177.2</ele><time>2026-04-22T14:21:12.607Z</time></trkpt><trkpt lat="43.611805" lon="13.15594"><ele>177.8</ele><time>2026-04-22T14:21:14.607Z</time></trkpt><trkpt lat="43.61175" lon="13.1560283"><ele>178.39999999999998</ele><time>2026-04-22T14:21:17.607Z</time></trkpt><trkpt lat="43.61169" lon="13.1561317"><ele>179.0</ele><time>2026-04-22T14:21:19.607Z</time></trkpt><trkpt lat="43.61162" lon="13.156295"><ele>179.0</ele><time>2026-04-22T14:21:21.607Z</time></trkpt><trkpt lat="43.6115817" lon="13.1563883"><ele>179.0</ele><time>2026-04-22T14:21:22.607Z</time></trkpt><trkpt lat="43.6115533" lon="13.1564883"><ele>179.0</ele><time>2026-04-22T14:21:23.607Z</time></trkpt><trkpt lat="43.6115267" lon="13.156585"><ele>179.0</ele><time>2026-04-22T14:21:24.607Z</time></trkpt><trkpt lat="43.6115133" lon="13.1566883"><ele>179.0</ele><time>2026-04-22T14:21:25.607Z</time></trkpt><trkpt lat="43.6114967" lon="13.1567867"><ele>179.0</ele><time>2026-04-22T14:21:26.607Z</time></trkpt><trkpt lat="43.6114833" lon="13.156885"><ele>180.0</ele><time>2026-04-22T14:21:27.607Z</time></trkpt><trkpt lat="43.6114817" lon="13.1569783"><ele>181.0</ele><time>2026-04-22T14:21:28.607Z</time></trkpt><trkpt lat="43.6114783" lon="13.1570767"><ele>182.0</ele><time>2026-04-22T14:21:29.607Z</time></trkpt><trkpt lat="43.61148" lon="13.1571667"><ele>183.0</ele><time>2026-04-22T14:21:30.607Z</time></trkpt><trkpt lat="43.611485" lon="13.1572567"><ele>184.0</ele><time>2026-04-22T14:21:31.607Z</time></trkpt><trkpt lat="43.611495" lon="13.1574267"><ele>185.0</ele><time>2026-04-22T14:21:33.607Z</time></trkpt><trkpt lat="43.611505" lon="13.1575183"><ele>187.0</ele><time>2026-04-22T14:21:34.607Z</time></trkpt><trkpt lat="43.6115133" lon="13.157695"><ele>189.0</ele><time>2026-04-22T14:21:36.607Z</time></trkpt><trkpt lat="43.6115233" lon="13.157875"><ele>191.0</ele><time>2026-04-22T14:21:38.607Z</time></trkpt><trkpt lat="43.6115433" lon="13.1580517"><ele>193.0</ele><time>2026-04-22T14:21:40.607Z</time></trkpt><trkpt lat="43.611555" lon="13.15814"><ele>191.99999999999997</ele><time>2026-04-22T14:21:41.607Z</time></trkpt><trkpt lat="43.611575" lon="13.1582233"><ele>191.0</ele><time>2026-04-22T14:21:42.607Z</time></trkpt><trkpt lat="43.6116583" lon="13.158325"><ele>190.0</ele><time>2026-04-22T14:21:44.607Z</time></trkpt><trkpt lat="43.6117183" lon="13.1583683"><ele>189.0</ele><time>2026-04-22T14:21:45.607Z</time></trkpt><trkpt lat="43.61179" lon="13.1584067"><ele>188.0</ele><time>2026-04-22T14:21:46.607Z</time></trkpt><trkpt lat="43.611875" lon="13.1584617"><ele>187.0</ele><time>2026-04-22T14:21:47.607Z</time></trkpt><trkpt lat="43.6119567" lon="13.158515"><ele>187.39999999999998</ele><time>2026-04-22T14:21:48.608Z</time></trkpt><trkpt lat="43.61204" lon="13.1585717"><ele>187.79999999999998</ele><time>2026-04-22T14:21:49.607Z</time></trkpt><trkpt lat="43.6121217" lon="13.1586217"><ele>188.2</ele><time>2026-04-22T14:21:50.607Z</time></trkpt><trkpt lat="43.6122117" lon="13.1586683"><ele>188.6</ele><time>2026-04-22T14:21:51.608Z</time></trkpt><trkpt lat="43.612295" lon="13.158715"><ele>189.0</ele><time>2026-04-22T14:21:52.607Z</time></trkpt><trkpt lat="43.6123817" lon="13.1587633"><ele>189.0</ele><time>2026-04-22T14:21:53.607Z</time></trkpt><trkpt lat="43.612465" lon="13.158815"><ele>189.0</ele><time>2026-04-22T14:21:54.607Z</time></trkpt><trkpt lat="43.6125533" lon="13.1588683"><ele>189.0</ele><time>2026-04-22T14:21:55.608Z</time></trkpt><trkpt lat="43.6126367" lon="13.1589133"><ele>189.0</ele><time>2026-04-22T14:21:56.607Z</time></trkpt><trkpt lat="43.6127217" lon="13.15895"><ele>189.0</ele><time>2026-04-22T14:21:57.607Z</time></trkpt><trkpt lat="43.6128083" lon="13.15897"><ele>187.2</ele><time>2026-04-22T14:21:58.607Z</time></trkpt><trkpt lat="43.6129017" lon="13.1589867"><ele>185.39999999999998</ele><time>2026-04-22T14:21:59.607Z</time></trkpt><trkpt lat="43.613" lon="13.1590033"><ele>183.6</ele><time>2026-04-22T14:22:00.607Z</time></trkpt><trkpt lat="43.613105" lon="13.159015"><ele>181.8</ele><time>2026-04-22T14:22:01.607Z</time></trkpt><trkpt lat="43.6132267" lon="13.1590267"><ele>180.0</ele><time>2026-04-22T14:22:02.607Z</time></trkpt><trkpt lat="43.61336" lon="13.159045"><ele>177.0</ele><time>2026-04-22T14:22:03.607Z</time></trkpt><trkpt lat="43.6134917" lon="13.1590567"><ele>174.0</ele><time>2026-04-22T14:22:04.607Z</time></trkpt><trkpt lat="43.6136133" lon="13.1590667"><ele>171.0</ele><time>2026-04-22T14:22:05.607Z</time></trkpt><trkpt lat="43.6137317" lon="13.15908"><ele>168.0</ele><time>2026-04-22T14:22:06.607Z</time></trkpt><trkpt lat="43.6138483" lon="13.1591033"><ele>167.0</ele><time>2026-04-22T14:22:07.607Z</time></trkpt><trkpt lat="43.6139633" lon="13.159115"><ele>166.0</ele><time>2026-04-22T14:22:08.607Z</time></trkpt><trkpt lat="43.614075" lon="13.1591267"><ele>165.0</ele><time>2026-04-22T14:22:09.607Z</time></trkpt><trkpt lat="43.6141867" lon="13.1591367"><ele>164.0</ele><time>2026-04-22T14:22:10.608Z</time></trkpt><trkpt lat="43.6142933" lon="13.1591533"><ele>163.0</ele><time>2026-04-22T14:22:11.608Z</time></trkpt><trkpt lat="43.6144033" lon="13.15917"><ele>163.2</ele><time>2026-04-22T14:22:12.607Z</time></trkpt><trkpt lat="43.614515" lon="13.1591817"><ele>163.4</ele><time>2026-04-22T14:22:13.608Z</time></trkpt><trkpt lat="43.6146217" lon="13.1591883"><ele>163.6</ele><time>2026-04-22T14:22:14.607Z</time></trkpt><trkpt lat="43.61473" lon="13.159195"><ele>163.79999999999998</ele><time>2026-04-22T14:22:15.607Z</time></trkpt><trkpt lat="43.6148333" lon="13.1591933"><ele>164.0</ele><time>2026-04-22T14:22:16.607Z</time></trkpt><trkpt lat="43.614935" lon="13.1591883"><ele>164.0</ele><time>2026-04-22T14:22:17.607Z</time></trkpt><trkpt lat="43.6150333" lon="13.1591967"><ele>164.0</ele><time>2026-04-22T14:22:18.607Z</time></trkpt><trkpt lat="43.6151283" lon="13.1591983"><ele>164.0</ele><time>2026-04-22T14:22:19.607Z</time></trkpt><trkpt lat="43.6152317" lon="13.159205"><ele>164.0</ele><time>2026-04-22T14:22:20.607Z</time></trkpt><trkpt lat="43.6153233" lon="13.1592067"><ele>164.0</ele><time>2026-04-22T14:22:21.608Z</time></trkpt><trkpt lat="43.6154133" lon="13.1592067"><ele>163.7142857142857</ele><time>2026-04-22T14:22:22.607Z</time></trkpt><trkpt lat="43.6154967" lon="13.1591967"><ele>163.42857142857142</ele><time>2026-04-22T14:22:23.607Z</time></trkpt><trkpt lat="43.6155667" lon="13.1591883"><ele>163.14285714285714</ele><time>2026-04-22T14:22:24.607Z</time></trkpt><trkpt lat="43.6156367" lon="13.1591567"><ele>162.85714285714283</ele><time>2026-04-22T14:22:25.608Z</time></trkpt><trkpt lat="43.6156833" lon="13.1590917"><ele>162.57142857142856</ele><time>2026-04-22T14:22:26.607Z</time></trkpt><trkpt lat="43.6157217" lon="13.1590033"><ele>162.28571428571428</ele><time>2026-04-22T14:22:27.607Z</time></trkpt><trkpt lat="43.6157567" lon="13.1589183"><ele>162.0</ele><time>2026-04-22T14:22:28.607Z</time></trkpt><trkpt lat="43.6158" lon="13.1588367"><ele>162.0</ele><time>2026-04-22T14:22:29.607Z</time></trkpt><trkpt lat="43.6158567" lon="13.15878"><ele>162.0</ele><time>2026-04-22T14:22:30.608Z</time></trkpt><trkpt lat="43.61592" lon="13.1587417"><ele>162.0</ele><time>2026-04-22T14:22:31.607Z</time></trkpt><trkpt lat="43.61598" lon="13.1587117"><ele>162.0</ele><time>2026-04-22T14:22:32.607Z</time></trkpt><trkpt lat="43.6160683" lon="13.1586983"><ele>162.0</ele><time>2026-04-22T14:22:34.608Z</time></trkpt><trkpt lat="43.6160533" lon="13.1585967"><ele>162.0</ele><time>2026-04-22T14:22:37.607Z</time></trkpt><trkpt lat="43.6159767" lon="13.1585767"><ele>162.0</ele><time>2026-04-22T14:22:39.608Z</time></trkpt><trkpt lat="43.6158983" lon="13.1585683"><ele>162.0</ele><time>2026-04-22T14:22:41.607Z</time></trkpt><trkpt lat="43.6158217" lon="13.1585583"><ele>162.0</ele><time>2026-04-22T14:22:44.607Z</time></trkpt><trkpt lat="43.6157767" lon="13.15862"><ele>162.0</ele><time>2026-04-22T14:22:48.607Z</time></trkpt><trkpt lat="43.61586" lon="13.1586283"><ele>162.0</ele><time>2026-04-22T14:22:52.607Z</time></trkpt><trkpt lat="43.6159733" lon="13.1585767"><ele>162.0</ele><time>2026-04-22T14:23:22.607Z</time></trkpt><trkpt lat="43.6160517" lon="13.15859"><ele>162.0</ele><time>2026-04-22T14:23:26.607Z</time></trkpt><trkpt lat="43.616045" lon="13.1584767"><ele>162.0</ele><time>2026-04-22T14:23:30.607Z</time></trkpt><trkpt lat="43.61597" lon="13.1583833"><ele>162.0</ele><time>2026-04-22T14:23:32.607Z</time></trkpt><trkpt lat="43.61592" lon="13.1583083"><ele>162.0</ele><time>2026-04-22T14:23:33.607Z</time></trkpt><trkpt lat="43.6158683" lon="13.1582267"><ele>162.0</ele><time>2026-04-22T14:23:34.607Z</time></trkpt><trkpt lat="43.61581" lon="13.1581317"><ele>162.0</ele><time>2026-04-22T14:23:35.608Z</time></trkpt><trkpt lat="43.61576" lon="13.15804"><ele>162.0</ele><time>2026-04-22T14:23:36.608Z</time></trkpt><trkpt lat="43.6156967" lon="13.1579533"><ele>161.4</ele><time>2026-04-22T14:23:37.607Z</time></trkpt><trkpt lat="43.61563" lon="13.1578667"><ele>160.79999999999998</ele><time>2026-04-22T14:23:38.607Z</time></trkpt><trkpt lat="43.6155633" lon="13.1577933"><ele>160.2</ele><time>2026-04-22T14:23:39.607Z</time></trkpt><trkpt lat="43.6154833" lon="13.1577217"><ele>159.6</ele><time>2026-04-22T14:23:40.607Z</time></trkpt><trkpt lat="43.6153983" lon="13.1576733"><ele>159.0</ele><time>2026-04-22T14:23:41.608Z</time></trkpt><trkpt lat="43.615295" lon="13.1576267"><ele>159.0</ele><time>2026-04-22T14:23:42.607Z</time></trkpt><trkpt lat="43.61517" lon="13.157565"><ele>159.0</ele><time>2026-04-22T14:23:43.607Z</time></trkpt><trkpt lat="43.615055" lon="13.1575133"><ele>159.0</ele><time>2026-04-22T14:23:44.607Z</time></trkpt><trkpt lat="43.6149267" lon="13.15747"><ele>159.0</ele><time>2026-04-22T14:23:45.607Z</time></trkpt><trkpt lat="43.6147883" lon="13.1574133"><ele>158.75</ele><time>2026-04-22T14:23:46.607Z</time></trkpt><trkpt lat="43.6146583" lon="13.15735"><ele>158.5</ele><time>2026-04-22T14:23:47.607Z</time></trkpt><trkpt lat="43.614535" lon="13.1572817"><ele>158.25</ele><time>2026-04-22T14:23:48.607Z</time></trkpt><trkpt lat="43.614395" lon="13.1572133"><ele>158.0</ele><time>2026-04-22T14:23:49.607Z</time></trkpt><trkpt lat="43.6142483" lon="13.1571383"><ele>158.0</ele><time>2026-04-22T14:23:50.607Z</time></trkpt><trkpt lat="43.6140983" lon="13.157065"><ele>158.0</ele><time>2026-04-22T14:23:51.606Z</time></trkpt><trkpt lat="43.613955" lon="13.1569783"><ele>158.0</ele><time>2026-04-22T14:23:52.607Z</time></trkpt><trkpt lat="43.613805" lon="13.1568967"><ele>158.0</ele><time>2026-04-22T14:23:53.607Z</time></trkpt><trkpt lat="43.6136567" lon="13.15682"><ele>158.0</ele><time>2026-04-22T14:23:54.607Z</time></trkpt><trkpt lat="43.6135183" lon="13.1567367"><ele>158.0</ele><time>2026-04-22T14:23:55.608Z</time></trkpt><trkpt lat="43.6133917" lon="13.1566817"><ele>158.0</ele><time>2026-04-22T14:23:56.607Z</time></trkpt><trkpt lat="43.6132667" lon="13.1566217"><ele>159.5</ele><time>2026-04-22T14:23:57.607Z</time></trkpt><trkpt lat="43.6131533" lon="13.1565583"><ele>161.0</ele><time>2026-04-22T14:23:58.607Z</time></trkpt><trkpt lat="43.6130417" lon="13.1564917"><ele>162.5</ele><time>2026-04-22T14:23:59.607Z</time></trkpt><trkpt lat="43.6129233" lon="13.156435"><ele>164.0</ele><time>2026-04-22T14:24:00.607Z</time></trkpt><trkpt lat="43.6128217" lon="13.15638"><ele>166.39999999999998</ele><time>2026-04-22T14:24:01.607Z</time></trkpt><trkpt lat="43.6127233" lon="13.156315"><ele>168.8</ele><time>2026-04-22T14:24:02.607Z</time></trkpt><trkpt lat="43.6126183" lon="13.1562617"><ele>171.2</ele><time>2026-04-22T14:24:03.607Z</time></trkpt><trkpt lat="43.6125233" lon="13.1562067"><ele>173.60000000000002</ele><time>2026-04-22T14:24:04.607Z</time></trkpt><trkpt lat="43.6124283" lon="13.1561667"><ele>176.0</ele><time>2026-04-22T14:24:05.607Z</time></trkpt><trkpt lat="43.612345" lon="13.1561283"><ele>176.0</ele><time>2026-04-22T14:24:06.607Z</time></trkpt><trkpt lat="43.61227" lon="13.156075"><ele>176.0</ele><time>2026-04-22T14:24:07.607Z</time></trkpt><trkpt lat="43.6122083" lon="13.1560117"><ele>176.0</ele><time>2026-04-22T14:24:08.607Z</time></trkpt><trkpt lat="43.612145" lon="13.1559583"><ele>176.0</ele><time>2026-04-22T14:24:09.607Z</time></trkpt><trkpt lat="43.6120833" lon="13.1559133"><ele>176.0</ele><time>2026-04-22T14:24:10.607Z</time></trkpt><trkpt lat="43.61202" lon="13.1558867"><ele>176.0</ele><time>2026-04-22T14:24:11.608Z</time></trkpt><trkpt lat="43.6119033" lon="13.155865"><ele>176.60000000000002</ele><time>2026-04-22T14:24:13.607Z</time></trkpt><trkpt lat="43.6118383" lon="13.1558683"><ele>177.2</ele><time>2026-04-22T14:24:14.607Z</time></trkpt><trkpt lat="43.6117717" lon="13.1558733"><ele>177.8</ele><time>2026-04-22T14:24:15.607Z</time></trkpt><trkpt lat="43.6116617" lon="13.1558517"><ele>178.39999999999998</ele><time>2026-04-22T14:24:17.608Z</time></trkpt><trkpt lat="43.6115533" lon="13.1557967"><ele>179.0</ele><time>2026-04-22T14:24:19.608Z</time></trkpt><trkpt lat="43.6114283" lon="13.1558517"><ele>179.0</ele><time>2026-04-22T14:24:21.607Z</time></trkpt><trkpt lat="43.6113633" lon="13.1559167"><ele>179.0</ele><time>2026-04-22T14:24:22.607Z</time></trkpt><trkpt lat="43.6113033" lon="13.1559817"><ele>179.0</ele><time>2026-04-22T14:24:23.607Z</time></trkpt><trkpt lat="43.61125" lon="13.1560467"><ele>179.0</ele><time>2026-04-22T14:24:24.607Z</time></trkpt><trkpt lat="43.61119" lon="13.156115"><ele>179.0</ele><time>2026-04-22T14:24:25.607Z</time></trkpt><trkpt lat="43.6111183" lon="13.156175"><ele>179.0</ele><time>2026-04-22T14:24:26.607Z</time></trkpt><trkpt lat="43.6110233" lon="13.1562267"><ele>177.0</ele><time>2026-04-22T14:24:27.607Z</time></trkpt><trkpt lat="43.61093" lon="13.1562617"><ele>175.0</ele><time>2026-04-22T14:24:28.607Z</time></trkpt><trkpt lat="43.6108267" lon="13.1562667"><ele>173.0</ele><time>2026-04-22T14:24:29.607Z</time></trkpt><trkpt lat="43.61071" lon="13.1562683"><ele>171.0</ele><time>2026-04-22T14:24:30.607Z</time></trkpt><trkpt lat="43.6105883" lon="13.1562583"><ele>169.0</ele><time>2026-04-22T14:24:31.607Z</time></trkpt><trkpt lat="43.61045" lon="13.15623"><ele>169.0</ele><time>2026-04-22T14:24:32.607Z</time></trkpt><trkpt lat="43.610335" lon="13.1562183"><ele>169.0</ele><time>2026-04-22T14:24:33.607Z</time></trkpt><trkpt lat="43.61023" lon="13.1562067"><ele>169.0</ele><time>2026-04-22T14:24:34.607Z</time></trkpt><trkpt lat="43.6101167" lon="13.1562017"><ele>169.0</ele><time>2026-04-22T14:24:35.607Z</time></trkpt><trkpt lat="43.6100083" lon="13.1561883"><ele>169.0</ele><time>2026-04-22T14:24:36.607Z</time></trkpt><trkpt lat="43.6098983" lon="13.1561633"><ele>166.0</ele><time>2026-04-22T14:24:37.608Z</time></trkpt><trkpt lat="43.60979" lon="13.1561517"><ele>163.0</ele><time>2026-04-22T14:24:38.608Z</time></trkpt><trkpt lat="43.609685" lon="13.1561317"><ele>160.0</ele><time>2026-04-22T14:24:39.607Z</time></trkpt><trkpt lat="43.6095833" lon="13.1561233"><ele>157.0</ele><time>2026-04-22T14:24:40.607Z</time></trkpt><trkpt lat="43.6094783" lon="13.1561217"><ele>154.0</ele><time>2026-04-22T14:24:41.607Z</time></trkpt><trkpt lat="43.609365" lon="13.1561133"><ele>150.5</ele><time>2026-04-22T14:24:42.607Z</time></trkpt><trkpt lat="43.6092467" lon="13.15611"><ele>147.0</ele><time>2026-04-22T14:24:43.607Z</time></trkpt><trkpt lat="43.609125" lon="13.156105"><ele>143.5</ele><time>2026-04-22T14:24:44.607Z</time></trkpt><trkpt lat="43.6090067" lon="13.1560917"><ele>140.0</ele><time>2026-04-22T14:24:45.607Z</time></trkpt><trkpt lat="43.6088933" lon="13.1560833"><ele>140.0</ele><time>2026-04-22T14:24:46.608Z</time></trkpt><trkpt lat="43.6087817" lon="13.1560933"><ele>140.0</ele><time>2026-04-22T14:24:47.607Z</time></trkpt><trkpt lat="43.6086767" lon="13.156125"><ele>140.0</ele><time>2026-04-22T14:24:48.607Z</time></trkpt><trkpt lat="43.6085717" lon="13.1561683"><ele>140.0</ele><time>2026-04-22T14:24:49.607Z</time></trkpt><trkpt lat="43.6084683" lon="13.156215"><ele>140.0</ele><time>2026-04-22T14:24:50.607Z</time></trkpt><trkpt lat="43.6083667" lon="13.156275"><ele>138.8</ele><time>2026-04-22T14:24:51.607Z</time></trkpt><trkpt lat="43.6082683" lon="13.1563217"><ele>137.6</ele><time>2026-04-22T14:24:52.607Z</time></trkpt><trkpt lat="43.60817" lon="13.1563733"><ele>136.4</ele><time>2026-04-22T14:24:53.607Z</time></trkpt><trkpt lat="43.6080817" lon="13.156425"><ele>135.2</ele><time>2026-04-22T14:24:54.607Z</time></trkpt><trkpt lat="43.6079817" lon="13.1565"><ele>134.0</ele><time>2026-04-22T14:24:55.607Z</time></trkpt><trkpt lat="43.607885" lon="13.1565867"><ele>131.25</ele><time>2026-04-22T14:24:56.608Z</time></trkpt><trkpt lat="43.60779" lon="13.1566933"><ele>128.5</ele><time>2026-04-22T14:24:57.607Z</time></trkpt><trkpt lat="43.607695" lon="13.1568017"><ele>125.75</ele><time>2026-04-22T14:24:58.608Z</time></trkpt><trkpt lat="43.607595" lon="13.156935"><ele>123.0</ele><time>2026-04-22T14:24:59.607Z</time></trkpt><trkpt lat="43.6074933" lon="13.1570783"><ele>123.0</ele><time>2026-04-22T14:25:00.607Z</time></trkpt><trkpt lat="43.60738" lon="13.1572083"><ele>123.0</ele><time>2026-04-22T14:25:01.607Z</time></trkpt><trkpt lat="43.60727" lon="13.15733"><ele>123.0</ele><time>2026-04-22T14:25:02.607Z</time></trkpt><trkpt lat="43.60716" lon="13.15745"><ele>123.0</ele><time>2026-04-22T14:25:03.608Z</time></trkpt><trkpt lat="43.6070583" lon="13.1575817"><ele>120.25</ele><time>2026-04-22T14:25:04.608Z</time></trkpt><trkpt lat="43.6069583" lon="13.1577"><ele>117.5</ele><time>2026-04-22T14:25:05.607Z</time></trkpt><trkpt lat="43.6068567" lon="13.1578233"><ele>114.75</ele><time>2026-04-22T14:25:06.607Z</time></trkpt><trkpt lat="43.6067467" lon="13.15796"><ele>112.0</ele><time>2026-04-22T14:25:07.607Z</time></trkpt><trkpt lat="43.6066533" lon="13.1580867"><ele>112.25</ele><time>2026-04-22T14:25:08.607Z</time></trkpt><trkpt lat="43.6065567" lon="13.158205"><ele>112.5</ele><time>2026-04-22T14:25:09.607Z</time></trkpt><trkpt lat="43.60646" lon="13.1583317"><ele>112.75</ele><time>2026-04-22T14:25:10.608Z</time></trkpt><trkpt lat="43.606355" lon="13.1584533"><ele>113.0</ele><time>2026-04-22T14:25:11.607Z</time></trkpt><trkpt lat="43.6062617" lon="13.1585733"><ele>113.0</ele><time>2026-04-22T14:25:12.607Z</time></trkpt><trkpt lat="43.6061617" lon="13.1586917"><ele>113.0</ele><time>2026-04-22T14:25:13.607Z</time></trkpt><trkpt lat="43.6060583" lon="13.1588233"><ele>113.0</ele><time>2026-04-22T14:25:14.607Z</time></trkpt><trkpt lat="43.6059583" lon="13.1589533"><ele>113.0</ele><time>2026-04-22T14:25:15.607Z</time></trkpt><trkpt lat="43.6058533" lon="13.159085"><ele>109.5</ele><time>2026-04-22T14:25:16.607Z</time></trkpt><trkpt lat="43.6057417" lon="13.1592183"><ele>106.0</ele><time>2026-04-22T14:25:17.607Z</time></trkpt><trkpt lat="43.6056333" lon="13.1593433"><ele>102.5</ele><time>2026-04-22T14:25:18.608Z</time></trkpt><trkpt lat="43.6055183" lon="13.1594683"><ele>99.0</ele><time>2026-04-22T14:25:19.607Z</time></trkpt><trkpt lat="43.60541" lon="13.1595867"><ele>97.0</ele><time>2026-04-22T14:25:20.607Z</time></trkpt><trkpt lat="43.605295" lon="13.1597217"><ele>95.0</ele><time>2026-04-22T14:25:21.608Z</time></trkpt><trkpt lat="43.60519" lon="13.1598483"><ele>93.0</ele><time>2026-04-22T14:25:22.607Z</time></trkpt><trkpt lat="43.6050833" lon="13.1599733"><ele>91.0</ele><time>2026-04-22T14:25:23.607Z</time></trkpt><trkpt lat="43.604985" lon="13.1600983"><ele>90.25</ele><time>2026-04-22T14:25:24.607Z</time></trkpt><trkpt lat="43.604895" lon="13.1602183"><ele>89.5</ele><time>2026-04-22T14:25:25.607Z</time></trkpt><trkpt lat="43.6048117" lon="13.160345"><ele>88.75</ele><time>2026-04-22T14:25:26.607Z</time></trkpt><trkpt lat="43.6047267" lon="13.160475"><ele>88.0</ele><time>2026-04-22T14:25:27.606Z</time></trkpt><trkpt lat="43.6046517" lon="13.1606133"><ele>87.4</ele><time>2026-04-22T14:25:28.606Z</time></trkpt><trkpt lat="43.6045883" lon="13.1607533"><ele>86.80000000000001</ele><time>2026-04-22T14:25:29.606Z</time></trkpt><trkpt lat="43.604535" lon="13.1608817"><ele>86.2</ele><time>2026-04-22T14:25:30.607Z</time></trkpt><trkpt lat="43.60448" lon="13.1610033"><ele>85.6</ele><time>2026-04-22T14:25:31.606Z</time></trkpt><trkpt lat="43.6044317" lon="13.161115"><ele>85.0</ele><time>2026-04-22T14:25:32.606Z</time></trkpt><trkpt lat="43.6043883" lon="13.161225"><ele>85.0</ele><time>2026-04-22T14:25:33.606Z</time></trkpt><trkpt lat="43.6043483" lon="13.1613317"><ele>85.0</ele><time>2026-04-22T14:25:34.606Z</time></trkpt><trkpt lat="43.6043083" lon="13.1614383"><ele>85.0</ele><time>2026-04-22T14:25:35.606Z</time></trkpt><trkpt lat="43.6042617" lon="13.1615267"><ele>85.0</ele><time>2026-04-22T14:25:36.607Z</time></trkpt><trkpt lat="43.6042017" lon="13.1616017"><ele>85.0</ele><time>2026-04-22T14:25:37.606Z</time></trkpt><trkpt lat="43.6041283" lon="13.16166"><ele>85.0</ele><time>2026-04-22T14:25:38.606Z</time></trkpt><trkpt lat="43.6040333" lon="13.1617067"><ele>84.8</ele><time>2026-04-22T14:25:39.606Z</time></trkpt><trkpt lat="43.6039367" lon="13.1617283"><ele>84.6</ele><time>2026-04-22T14:25:40.606Z</time></trkpt><trkpt lat="43.6038333" lon="13.161725"><ele>84.4</ele><time>2026-04-22T14:25:41.606Z</time></trkpt><trkpt lat="43.6037367" lon="13.161695"><ele>84.2</ele><time>2026-04-22T14:25:42.607Z</time></trkpt><trkpt lat="43.603645" lon="13.1616367"><ele>84.0</ele><time>2026-04-22T14:25:43.607Z</time></trkpt><trkpt lat="43.6035567" lon="13.1615783"><ele>84.6</ele><time>2026-04-22T14:25:44.606Z</time></trkpt><trkpt lat="43.6034683" lon="13.1615283"><ele>85.2</ele><time>2026-04-22T14:25:45.606Z</time></trkpt><trkpt lat="43.6033817" lon="13.1615067"><ele>85.8</ele><time>2026-04-22T14:25:46.606Z</time></trkpt><trkpt lat="43.6032883" lon="13.16151"><ele>86.39999999999999</ele><time>2026-04-22T14:25:47.606Z</time></trkpt><trkpt lat="43.6031917" lon="13.1615533"><ele>87.0</ele><time>2026-04-22T14:25:48.606Z</time></trkpt><trkpt lat="43.6030917" lon="13.1616267"><ele>87.25</ele><time>2026-04-22T14:25:49.606Z</time></trkpt><trkpt lat="43.6029867" lon="13.1617217"><ele>87.5</ele><time>2026-04-22T14:25:50.606Z</time></trkpt><trkpt lat="43.6028667" lon="13.1618133"><ele>87.75</ele><time>2026-04-22T14:25:51.606Z</time></trkpt><trkpt lat="43.6027483" lon="13.1618933"><ele>88.0</ele><time>2026-04-22T14:25:52.606Z</time></trkpt><trkpt lat="43.602625" lon="13.1619917"><ele>88.66666666666666</ele><time>2026-04-22T14:25:53.606Z</time></trkpt><trkpt lat="43.6024933" lon="13.1620967"><ele>89.33333333333333</ele><time>2026-04-22T14:25:54.606Z</time></trkpt><trkpt lat="43.6023583" lon="13.1622033"><ele>90.0</ele><time>2026-04-22T14:25:55.606Z</time></trkpt><trkpt lat="43.6022217" lon="13.162305"><ele>89.66666666666667</ele><time>2026-04-22T14:25:56.606Z</time></trkpt><trkpt lat="43.602085" lon="13.1624067"><ele>89.33333333333334</ele><time>2026-04-22T14:25:57.606Z</time></trkpt><trkpt lat="43.6019417" lon="13.162525"><ele>89.0</ele><time>2026-04-22T14:25:58.606Z</time></trkpt><trkpt lat="43.60179" lon="13.1626433"><ele>92.33333333333334</ele><time>2026-04-22T14:25:59.606Z</time></trkpt><trkpt lat="43.6016517" lon="13.1627533"><ele>95.66666666666667</ele><time>2026-04-22T14:26:00.606Z</time></trkpt><trkpt lat="43.6015067" lon="13.1628683"><ele>99.0</ele><time>2026-04-22T14:26:01.606Z</time></trkpt><trkpt lat="43.6013617" lon="13.1629817"><ele>99.0</ele><time>2026-04-22T14:26:02.606Z</time></trkpt><trkpt lat="43.6012067" lon="13.16311"><ele>99.0</ele><time>2026-04-22T14:26:03.606Z</time></trkpt><trkpt lat="43.6010433" lon="13.1632433"><ele>99.0</ele><time>2026-04-22T14:26:04.606Z</time></trkpt><trkpt lat="43.600875" lon="13.1633733"><ele>101.66666666666666</ele><time>2026-04-22T14:26:05.606Z</time></trkpt><trkpt lat="43.6007133" lon="13.1635"><ele>104.33333333333333</ele><time>2026-04-22T14:26:06.606Z</time></trkpt><trkpt lat="43.60054" lon="13.1636317"><ele>107.0</ele><time>2026-04-22T14:26:07.606Z</time></trkpt><trkpt lat="43.6003767" lon="13.163765"><ele>110.66666666666666</ele><time>2026-04-22T14:26:08.606Z</time></trkpt><trkpt lat="43.6002117" lon="13.1638917"><ele>114.33333333333334</ele><time>2026-04-22T14:26:09.606Z</time></trkpt><trkpt lat="43.6000633" lon="13.1640283"><ele>118.0</ele><time>2026-04-22T14:26:10.607Z</time></trkpt><trkpt lat="43.5999217" lon="13.1641633"><ele>118.0</ele><time>2026-04-22T14:26:11.606Z</time></trkpt><trkpt lat="43.5997783" lon="13.16429"><ele>118.0</ele><time>2026-04-22T14:26:12.606Z</time></trkpt><trkpt lat="43.599645" lon="13.1643967"><ele>118.0</ele><time>2026-04-22T14:26:13.606Z</time></trkpt><trkpt lat="43.5995167" lon="13.1644917"><ele>120.25</ele><time>2026-04-22T14:26:14.606Z</time></trkpt><trkpt lat="43.5993883" lon="13.164585"><ele>122.5</ele><time>2026-04-22T14:26:15.606Z</time></trkpt><trkpt lat="43.5992567" lon="13.16468"><ele>124.75</ele><time>2026-04-22T14:26:16.607Z</time></trkpt><trkpt lat="43.5991183" lon="13.164775"><ele>127.0</ele><time>2026-04-22T14:26:17.607Z</time></trkpt><trkpt lat="43.5989767" lon="13.1648767"><ele>127.0</ele><time>2026-04-22T14:26:18.606Z</time></trkpt><trkpt lat="43.5988317" lon="13.16498"><ele>127.0</ele><time>2026-04-22T14:26:19.606Z</time></trkpt><trkpt lat="43.59869" lon="13.1650917"><ele>127.0</ele><time>2026-04-22T14:26:20.606Z</time></trkpt><trkpt lat="43.5985467" lon="13.1652017"><ele>130.66666666666669</ele><time>2026-04-22T14:26:21.606Z</time></trkpt><trkpt lat="43.598395" lon="13.1653133"><ele>134.33333333333334</ele><time>2026-04-22T14:26:22.606Z</time></trkpt><trkpt lat="43.5982367" lon="13.1654317"><ele>138.0</ele><time>2026-04-22T14:26:23.606Z</time></trkpt><trkpt lat="43.5980833" lon="13.165545"><ele>138.0</ele><time>2026-04-22T14:26:24.606Z</time></trkpt><trkpt lat="43.5979333" lon="13.1656617"><ele>138.0</ele><time>2026-04-22T14:26:25.606Z</time></trkpt><trkpt lat="43.5977867" lon="13.1657683"><ele>138.0</ele><time>2026-04-22T14:26:26.606Z</time></trkpt><trkpt lat="43.597645" lon="13.1658733"><ele>143.0</ele><time>2026-04-22T14:26:27.606Z</time></trkpt><trkpt lat="43.5975117" lon="13.1659767"><ele>148.0</ele><time>2026-04-22T14:26:28.607Z</time></trkpt><trkpt lat="43.5973767" lon="13.1660833"><ele>153.0</ele><time>2026-04-22T14:26:29.607Z</time></trkpt><trkpt lat="43.59725" lon="13.1661783"><ele>153.0</ele><time>2026-04-22T14:26:30.606Z</time></trkpt><trkpt lat="43.5971283" lon="13.1662567"><ele>153.0</ele><time>2026-04-22T14:26:31.606Z</time></trkpt><trkpt lat="43.5970117" lon="13.16632"><ele>153.0</ele><time>2026-04-22T14:26:32.606Z</time></trkpt><trkpt lat="43.5969067" lon="13.166365"><ele>153.0</ele><time>2026-04-22T14:26:33.606Z</time></trkpt><trkpt lat="43.5968" lon="13.16638"><ele>156.0</ele><time>2026-04-22T14:26:34.606Z</time></trkpt><trkpt lat="43.5966883" lon="13.16639"><ele>159.0</ele><time>2026-04-22T14:26:35.606Z</time></trkpt><trkpt lat="43.596565" lon="13.1664017"><ele>162.0</ele><time>2026-04-22T14:26:36.606Z</time></trkpt><trkpt lat="43.5964333" lon="13.166415"><ele>165.0</ele><time>2026-04-22T14:26:37.606Z</time></trkpt><trkpt lat="43.596315" lon="13.1664417"><ele>165.0</ele><time>2026-04-22T14:26:38.606Z</time></trkpt><trkpt lat="43.5962117" lon="13.1664883"><ele>165.0</ele><time>2026-04-22T14:26:39.606Z</time></trkpt><trkpt lat="43.5961167" lon="13.1665633"><ele>165.0</ele><time>2026-04-22T14:26:40.607Z</time></trkpt><trkpt lat="43.59602" lon="13.1666667"><ele>165.0</ele><time>2026-04-22T14:26:41.606Z</time></trkpt><trkpt lat="43.595915" lon="13.1667717"><ele>166.0</ele><time>2026-04-22T14:26:42.607Z</time></trkpt><trkpt lat="43.5958067" lon="13.1668833"><ele>167.0</ele><time>2026-04-22T14:26:43.606Z</time></trkpt><trkpt lat="43.59569" lon="13.1669967"><ele>168.0</ele><time>2026-04-22T14:26:44.606Z</time></trkpt><trkpt lat="43.5955667" lon="13.167115"><ele>169.0</ele><time>2026-04-22T14:26:45.606Z</time></trkpt><trkpt lat="43.5954433" lon="13.167225"><ele>171.75</ele><time>2026-04-22T14:26:46.606Z</time></trkpt><trkpt lat="43.595335" lon="13.1673267"><ele>174.5</ele><time>2026-04-22T14:26:47.606Z</time></trkpt><trkpt lat="43.5952267" lon="13.1674233"><ele>177.25</ele><time>2026-04-22T14:26:48.606Z</time></trkpt><trkpt lat="43.59512" lon="13.1675033"><ele>180.0</ele><time>2026-04-22T14:26:49.606Z</time></trkpt><trkpt lat="43.595005" lon="13.1676083"><ele>180.0</ele><time>2026-04-22T14:26:50.607Z</time></trkpt><trkpt lat="43.594885" lon="13.1677067"><ele>180.0</ele><time>2026-04-22T14:26:51.606Z</time></trkpt><trkpt lat="43.59477" lon="13.16782"><ele>180.0</ele><time>2026-04-22T14:26:52.606Z</time></trkpt><trkpt lat="43.5946633" lon="13.1679233"><ele>180.0</ele><time>2026-04-22T14:26:53.606Z</time></trkpt><trkpt lat="43.5945517" lon="13.1680233"><ele>183.0</ele><time>2026-04-22T14:26:54.607Z</time></trkpt><trkpt lat="43.5944433" lon="13.1681217"><ele>186.0</ele><time>2026-04-22T14:26:55.606Z</time></trkpt><trkpt lat="43.594335" lon="13.168225"><ele>189.0</ele><time>2026-04-22T14:26:56.606Z</time></trkpt><trkpt lat="43.5942283" lon="13.168325"><ele>192.0</ele><time>2026-04-22T14:26:57.606Z</time></trkpt><trkpt lat="43.5941183" lon="13.1684217"><ele>192.0</ele><time>2026-04-22T14:26:58.606Z</time></trkpt><trkpt lat="43.5940033" lon="13.16853"><ele>192.0</ele><time>2026-04-22T14:26:59.606Z</time></trkpt><trkpt lat="43.5938933" lon="13.16864"><ele>192.0</ele><time>2026-04-22T14:27:00.607Z</time></trkpt><trkpt lat="43.5937817" lon="13.16873"><ele>192.0</ele><time>2026-04-22T14:27:01.606Z</time></trkpt><trkpt lat="43.5936783" lon="13.1688167"><ele>194.5</ele><time>2026-04-22T14:27:02.606Z</time></trkpt><trkpt lat="43.593575" lon="13.1688867"><ele>197.0</ele><time>2026-04-22T14:27:03.606Z</time></trkpt><trkpt lat="43.59347" lon="13.16897"><ele>199.5</ele><time>2026-04-22T14:27:04.607Z</time></trkpt><trkpt lat="43.593365" lon="13.1690483"><ele>202.0</ele><time>2026-04-22T14:27:05.606Z</time></trkpt><trkpt lat="43.59327" lon="13.16911"><ele>201.99999999999997</ele><time>2026-04-22T14:27:06.606Z</time></trkpt><trkpt lat="43.59319" lon="13.1691733"><ele>202.0</ele><time>2026-04-22T14:27:07.606Z</time></trkpt><trkpt lat="43.59312" lon="13.169225"><ele>202.0</ele><time>2026-04-22T14:27:08.606Z</time></trkpt><trkpt lat="43.5930467" lon="13.1692567"><ele>202.0</ele><time>2026-04-22T14:27:09.606Z</time></trkpt><trkpt lat="43.5929683" lon="13.1692717"><ele>201.99999999999997</ele><time>2026-04-22T14:27:10.606Z</time></trkpt><trkpt lat="43.5928817" lon="13.1692833"><ele>202.0</ele><time>2026-04-22T14:27:11.606Z</time></trkpt><trkpt lat="43.5927883" lon="13.1692883"><ele>201.25</ele><time>2026-04-22T14:27:12.606Z</time></trkpt><trkpt lat="43.592675" lon="13.1692983"><ele>200.5</ele><time>2026-04-22T14:27:13.606Z</time></trkpt><trkpt lat="43.5925583" lon="13.1693017"><ele>199.75</ele><time>2026-04-22T14:27:14.607Z</time></trkpt><trkpt lat="43.5924417" lon="13.1693083"><ele>199.0</ele><time>2026-04-22T14:27:15.606Z</time></trkpt><trkpt lat="43.5923183" lon="13.1693267"><ele>199.0</ele><time>2026-04-22T14:27:16.606Z</time></trkpt><trkpt lat="43.5921867" lon="13.169365"><ele>199.0</ele><time>2026-04-22T14:27:17.606Z</time></trkpt><trkpt lat="43.5920533" lon="13.1693983"><ele>199.0</ele><time>2026-04-22T14:27:18.606Z</time></trkpt><trkpt lat="43.591915" lon="13.1694367"><ele>199.0</ele><time>2026-04-22T14:27:19.606Z</time></trkpt><trkpt lat="43.5917817" lon="13.169465"><ele>196.66666666666666</ele><time>2026-04-22T14:27:20.606Z</time></trkpt><trkpt lat="43.5916367" lon="13.1694967"><ele>194.33333333333331</ele><time>2026-04-22T14:27:21.606Z</time></trkpt><trkpt lat="43.5914933" lon="13.1695417"><ele>192.0</ele><time>2026-04-22T14:27:22.606Z</time></trkpt><trkpt lat="43.5913367" lon="13.1695767"><ele>192.0</ele><time>2026-04-22T14:27:23.606Z</time></trkpt><trkpt lat="43.5911917" lon="13.1696183"><ele>192.0</ele><time>2026-04-22T14:27:24.606Z</time></trkpt><trkpt lat="43.591055" lon="13.1696733"><ele>192.0</ele><time>2026-04-22T14:27:25.606Z</time></trkpt><trkpt lat="43.5909283" lon="13.1697333"><ele>192.0</ele><time>2026-04-22T14:27:26.606Z</time></trkpt><trkpt lat="43.5908133" lon="13.1698033"><ele>194.0</ele><time>2026-04-22T14:27:27.607Z</time></trkpt><trkpt lat="43.59072" lon="13.1698917"><ele>196.0</ele><time>2026-04-22T14:27:28.606Z</time></trkpt><trkpt lat="43.5906383" lon="13.1699933"><ele>198.0</ele><time>2026-04-22T14:27:29.606Z</time></trkpt><trkpt lat="43.5905667" lon="13.170105"><ele>200.0</ele><time>2026-04-22T14:27:30.606Z</time></trkpt><trkpt lat="43.590505" lon="13.1702433"><ele>202.0</ele><time>2026-04-22T14:27:31.606Z</time></trkpt><trkpt lat="43.5904567" lon="13.1704"><ele>202.0</ele><time>2026-04-22T14:27:32.606Z</time></trkpt><trkpt lat="43.5904183" lon="13.1705483"><ele>202.0</ele><time>2026-04-22T14:27:33.606Z</time></trkpt><trkpt lat="43.5903783" lon="13.170695"><ele>202.0</ele><time>2026-04-22T14:27:34.606Z</time></trkpt><trkpt lat="43.5903167" lon="13.170845"><ele>202.0</ele><time>2026-04-22T14:27:35.606Z</time></trkpt><trkpt lat="43.5902367" lon="13.1709667"><ele>201.0</ele><time>2026-04-22T14:27:36.606Z</time></trkpt><trkpt lat="43.590145" lon="13.1710783"><ele>200.0</ele><time>2026-04-22T14:27:37.606Z</time></trkpt><trkpt lat="43.590035" lon="13.1711633"><ele>199.0</ele><time>2026-04-22T14:27:38.606Z</time></trkpt><trkpt lat="43.58991" lon="13.1712133"><ele>198.0</ele><time>2026-04-22T14:27:39.606Z</time></trkpt><trkpt lat="43.5897717" lon="13.1712283"><ele>198.0</ele><time>2026-04-22T14:27:40.606Z</time></trkpt><trkpt lat="43.58964" lon="13.17122"><ele>198.0</ele><time>2026-04-22T14:27:41.606Z</time></trkpt><trkpt lat="43.5895" lon="13.17121"><ele>198.0</ele><time>2026-04-22T14:27:42.606Z</time></trkpt><trkpt lat="43.589355" lon="13.1712033"><ele>198.0</ele><time>2026-04-22T14:27:43.606Z</time></trkpt><trkpt lat="43.5892033" lon="13.1711933"><ele>198.25</ele><time>2026-04-22T14:27:44.606Z</time></trkpt><trkpt lat="43.58906" lon="13.1711733"><ele>198.5</ele><time>2026-04-22T14:27:45.606Z</time></trkpt><trkpt lat="43.5889183" lon="13.1711483"><ele>198.75</ele><time>2026-04-22T14:27:46.606Z</time></trkpt><trkpt lat="43.5887783" lon="13.17112"><ele>199.0</ele><time>2026-04-22T14:27:47.606Z</time></trkpt><trkpt lat="43.588635" lon="13.1710917"><ele>200.5</ele><time>2026-04-22T14:27:48.606Z</time></trkpt><trkpt lat="43.588495" lon="13.1710633"><ele>202.0</ele><time>2026-04-22T14:27:49.607Z</time></trkpt><trkpt lat="43.5883583" lon="13.17103"><ele>203.5</ele><time>2026-04-22T14:27:50.606Z</time></trkpt><trkpt lat="43.58822" lon="13.1710217"><ele>205.0</ele><time>2026-04-22T14:27:51.606Z</time></trkpt><trkpt lat="43.5880767" lon="13.171005"><ele>205.0</ele><time>2026-04-22T14:27:52.607Z</time></trkpt><trkpt lat="43.5879267" lon="13.1709817"><ele>205.0</ele><time>2026-04-22T14:27:53.606Z</time></trkpt><trkpt lat="43.5877767" lon="13.170965"><ele>205.0</ele><time>2026-04-22T14:27:54.606Z</time></trkpt><trkpt lat="43.5876217" lon="13.1709517"><ele>206.0</ele><time>2026-04-22T14:27:55.606Z</time></trkpt><trkpt lat="43.5874667" lon="13.1709417"><ele>207.0</ele><time>2026-04-22T14:27:56.606Z</time></trkpt><trkpt lat="43.5873133" lon="13.1709267"><ele>208.0</ele><time>2026-04-22T14:27:57.606Z</time></trkpt><trkpt lat="43.5871583" lon="13.170915"><ele>208.0</ele><time>2026-04-22T14:27:58.606Z</time></trkpt><trkpt lat="43.5870133" lon="13.1708983"><ele>208.0</ele><time>2026-04-22T14:27:59.606Z</time></trkpt><trkpt lat="43.58688" lon="13.170875"><ele>208.0</ele><time>2026-04-22T14:28:00.606Z</time></trkpt><trkpt lat="43.58675" lon="13.170855"><ele>208.0</ele><time>2026-04-22T14:28:01.606Z</time></trkpt><trkpt lat="43.5866283" lon="13.1708317"><ele>208.0</ele><time>2026-04-22T14:28:02.606Z</time></trkpt><trkpt lat="43.5865217" lon="13.1708"><ele>208.0</ele><time>2026-04-22T14:28:03.607Z</time></trkpt><trkpt lat="43.5864117" lon="13.1707617"><ele>208.0</ele><time>2026-04-22T14:28:04.606Z</time></trkpt><trkpt lat="43.5862933" lon="13.17072"><ele>208.0</ele><time>2026-04-22T14:28:05.606Z</time></trkpt><trkpt lat="43.58617" lon="13.1706533"><ele>209.0</ele><time>2026-04-22T14:28:06.606Z</time></trkpt><trkpt lat="43.5860533" lon="13.170585"><ele>210.0</ele><time>2026-04-22T14:28:07.606Z</time></trkpt><trkpt lat="43.5859383" lon="13.1704917"><ele>211.0</ele><time>2026-04-22T14:28:08.606Z</time></trkpt><trkpt lat="43.585815" lon="13.170405"><ele>212.0</ele><time>2026-04-22T14:28:09.607Z</time></trkpt><trkpt lat="43.5857017" lon="13.1702983"><ele>212.0</ele><time>2026-04-22T14:28:10.606Z</time></trkpt><trkpt lat="43.5855883" lon="13.1702033"><ele>212.0</ele><time>2026-04-22T14:28:11.606Z</time></trkpt><trkpt lat="43.5854767" lon="13.1701133"><ele>212.0</ele><time>2026-04-22T14:28:12.606Z</time></trkpt><trkpt lat="43.585365" lon="13.1700283"><ele>212.0</ele><time>2026-04-22T14:28:13.606Z</time></trkpt><trkpt lat="43.5852617" lon="13.1699633"><ele>212.6</ele><time>2026-04-22T14:28:14.606Z</time></trkpt><trkpt lat="43.5851633" lon="13.1699017"><ele>213.2</ele><time>2026-04-22T14:28:15.607Z</time></trkpt><trkpt lat="43.5850667" lon="13.1698483"><ele>213.8</ele><time>2026-04-22T14:28:16.606Z</time></trkpt><trkpt lat="43.5849683" lon="13.1697917"><ele>214.4</ele><time>2026-04-22T14:28:17.606Z</time></trkpt><trkpt lat="43.5848633" lon="13.16974"><ele>215.0</ele><time>2026-04-22T14:28:18.606Z</time></trkpt><trkpt lat="43.5847517" lon="13.16968"><ele>215.0</ele><time>2026-04-22T14:28:19.607Z</time></trkpt><trkpt lat="43.58463" lon="13.1696283"><ele>215.0</ele><time>2026-04-22T14:28:20.606Z</time></trkpt><trkpt lat="43.5845067" lon="13.16958"><ele>215.0</ele><time>2026-04-22T14:28:21.606Z</time></trkpt><trkpt lat="43.5843783" lon="13.1695333"><ele>215.0</ele><time>2026-04-22T14:28:22.606Z</time></trkpt><trkpt lat="43.5842483" lon="13.1694733"><ele>216.5</ele><time>2026-04-22T14:28:23.607Z</time></trkpt><trkpt lat="43.58412" lon="13.1694167"><ele>218.0</ele><time>2026-04-22T14:28:24.606Z</time></trkpt><trkpt lat="43.5839867" lon="13.1693533"><ele>219.5</ele><time>2026-04-22T14:28:25.607Z</time></trkpt><trkpt lat="43.5838633" lon="13.16931"><ele>221.0</ele><time>2026-04-22T14:28:26.607Z</time></trkpt><trkpt lat="43.5837433" lon="13.16925"><ele>221.8</ele><time>2026-04-22T14:28:27.606Z</time></trkpt><trkpt lat="43.58363" lon="13.16919"><ele>222.60000000000002</ele><time>2026-04-22T14:28:28.606Z</time></trkpt><trkpt lat="43.5835217" lon="13.16913"><ele>223.4</ele><time>2026-04-22T14:28:29.607Z</time></trkpt><trkpt lat="43.5834183" lon="13.1690833"><ele>224.2</ele><time>2026-04-22T14:28:30.606Z</time></trkpt><trkpt lat="43.5833267" lon="13.1690417"><ele>225.0</ele><time>2026-04-22T14:28:31.607Z</time></trkpt><trkpt lat="43.5832433" lon="13.1690067"><ele>225.0</ele><time>2026-04-22T14:28:32.606Z</time></trkpt><trkpt lat="43.5831733" lon="13.1689833"><ele>225.0</ele><time>2026-04-22T14:28:33.607Z</time></trkpt><trkpt lat="43.5830817" lon="13.1689517"><ele>225.0</ele><time>2026-04-22T14:28:35.606Z</time></trkpt><trkpt lat="43.583015" lon="13.1689617"><ele>225.0</ele><time>2026-04-22T14:28:37.606Z</time></trkpt><trkpt lat="43.5829917" lon="13.1690517"><ele>225.0</ele><time>2026-04-22T14:28:39.606Z</time></trkpt><trkpt lat="43.582995" lon="13.1692217"><ele>225.0</ele><time>2026-04-22T14:28:41.606Z</time></trkpt><trkpt lat="43.58301" lon="13.1693267"><ele>225.5</ele><time>2026-04-22T14:28:42.606Z</time></trkpt><trkpt lat="43.58302" lon="13.16946"><ele>226.0</ele><time>2026-04-22T14:28:43.607Z</time></trkpt><trkpt lat="43.5830233" lon="13.1696133"><ele>226.5</ele><time>2026-04-22T14:28:44.606Z</time></trkpt><trkpt lat="43.58301" lon="13.1697817"><ele>227.0</ele><time>2026-04-22T14:28:45.607Z</time></trkpt><trkpt lat="43.5830033" lon="13.1699583"><ele>227.0</ele><time>2026-04-22T14:28:46.606Z</time></trkpt><trkpt lat="43.5829833" lon="13.1701383"><ele>227.0</ele><time>2026-04-22T14:28:47.606Z</time></trkpt><trkpt lat="43.582965" lon="13.170315"><ele>227.0</ele><time>2026-04-22T14:28:48.606Z</time></trkpt><trkpt lat="43.5829533" lon="13.1705033"><ele>227.0</ele><time>2026-04-22T14:28:49.606Z</time></trkpt><trkpt lat="43.58294" lon="13.170695"><ele>225.0</ele><time>2026-04-22T14:28:50.607Z</time></trkpt><trkpt lat="43.5829283" lon="13.17089"><ele>223.0</ele><time>2026-04-22T14:28:51.606Z</time></trkpt><trkpt lat="43.5829317" lon="13.1710917"><ele>221.0</ele><time>2026-04-22T14:28:52.606Z</time></trkpt><trkpt lat="43.5829317" lon="13.171295"><ele>219.0</ele><time>2026-04-22T14:28:53.606Z</time></trkpt><trkpt lat="43.5829317" lon="13.171485"><ele>216.75</ele><time>2026-04-22T14:28:54.606Z</time></trkpt><trkpt lat="43.5829267" lon="13.171665"><ele>214.5</ele><time>2026-04-22T14:28:55.606Z</time></trkpt><trkpt lat="43.582885" lon="13.1718533"><ele>212.25</ele><time>2026-04-22T14:28:56.606Z</time></trkpt><trkpt lat="43.5828467" lon="13.1720483"><ele>210.0</ele><time>2026-04-22T14:28:57.606Z</time></trkpt><trkpt lat="43.5828083" lon="13.1722633"><ele>210.0</ele><time>2026-04-22T14:28:58.606Z</time></trkpt><trkpt lat="43.58277" lon="13.1724717"><ele>210.0</ele><time>2026-04-22T14:28:59.606Z</time></trkpt><trkpt lat="43.5827333" lon="13.1726617"><ele>210.0</ele><time>2026-04-22T14:29:00.606Z</time></trkpt><trkpt lat="43.5826933" lon="13.172845"><ele>210.0</ele><time>2026-04-22T14:29:01.606Z</time></trkpt><trkpt lat="43.5826517" lon="13.17303"><ele>208.75</ele><time>2026-04-22T14:29:02.606Z</time></trkpt><trkpt lat="43.5826017" lon="13.173225"><ele>207.5</ele><time>2026-04-22T14:29:03.606Z</time></trkpt><trkpt lat="43.582565" lon="13.1734267"><ele>206.25</ele><time>2026-04-22T14:29:04.606Z</time></trkpt><trkpt lat="43.5825283" lon="13.1736217"><ele>205.0</ele><time>2026-04-22T14:29:05.607Z</time></trkpt><trkpt lat="43.5824967" lon="13.1738183"><ele>204.0</ele><time>2026-04-22T14:29:06.606Z</time></trkpt><trkpt lat="43.5824617" lon="13.1740317"><ele>203.0</ele><time>2026-04-22T14:29:07.607Z</time></trkpt><trkpt lat="43.58244" lon="13.1742467"><ele>202.0</ele><time>2026-04-22T14:29:08.607Z</time></trkpt><trkpt lat="43.5824167" lon="13.1744533"><ele>202.0</ele><time>2026-04-22T14:29:09.606Z</time></trkpt><trkpt lat="43.5823983" lon="13.1746533"><ele>202.0</ele><time>2026-04-22T14:29:10.606Z</time></trkpt><trkpt lat="43.5823883" lon="13.17485"><ele>202.0</ele><time>2026-04-22T14:29:11.606Z</time></trkpt><trkpt lat="43.582375" lon="13.17506"><ele>202.0</ele><time>2026-04-22T14:29:12.607Z</time></trkpt><trkpt lat="43.5823633" lon="13.1752583"><ele>201.25</ele><time>2026-04-22T14:29:13.606Z</time></trkpt><trkpt lat="43.5823617" lon="13.1754467"><ele>200.5</ele><time>2026-04-22T14:29:14.606Z</time></trkpt><trkpt lat="43.582365" lon="13.17563"><ele>199.75</ele><time>2026-04-22T14:29:15.606Z</time></trkpt><trkpt lat="43.5823683" lon="13.1758083"><ele>199.0</ele><time>2026-04-22T14:29:16.606Z</time></trkpt><trkpt lat="43.5823533" lon="13.1759817"><ele>198.75</ele><time>2026-04-22T14:29:17.606Z</time></trkpt><trkpt lat="43.58235" lon="13.1761583"><ele>198.5</ele><time>2026-04-22T14:29:18.606Z</time></trkpt><trkpt lat="43.5823433" lon="13.17635"><ele>198.25</ele><time>2026-04-22T14:29:19.606Z</time></trkpt><trkpt lat="43.58235" lon="13.176545"><ele>198.0</ele><time>2026-04-22T14:29:20.606Z</time></trkpt><trkpt lat="43.5823533" lon="13.1767383"><ele>198.0</ele><time>2026-04-22T14:29:21.606Z</time></trkpt><trkpt lat="43.5823617" lon="13.176935"><ele>198.0</ele><time>2026-04-22T14:29:22.606Z</time></trkpt><trkpt lat="43.5823833" lon="13.1771333"><ele>198.0</ele><time>2026-04-22T14:29:23.607Z</time></trkpt><trkpt lat="43.5824117" lon="13.1773233"><ele>198.0</ele><time>2026-04-22T14:29:24.606Z</time></trkpt><trkpt lat="43.5824433" lon="13.1775167"><ele>198.0</ele><time>2026-04-22T14:29:25.606Z</time></trkpt><trkpt lat="43.5824833" lon="13.1777067"><ele>198.0</ele><time>2026-04-22T14:29:26.606Z</time></trkpt><trkpt lat="43.582525" lon="13.1779"><ele>198.0</ele><time>2026-04-22T14:29:27.606Z</time></trkpt><trkpt lat="43.5825733" lon="13.1780983"><ele>198.0</ele><time>2026-04-22T14:29:28.606Z</time></trkpt><trkpt lat="43.5826267" lon="13.1782983"><ele>197.66666666666669</ele><time>2026-04-22T14:29:29.606Z</time></trkpt><trkpt lat="43.582675" lon="13.1784967"><ele>197.33333333333334</ele><time>2026-04-22T14:29:30.606Z</time></trkpt><trkpt lat="43.5827267" lon="13.178695"><ele>197.0</ele><time>2026-04-22T14:29:31.607Z</time></trkpt><trkpt lat="43.5827717" lon="13.1788983"><ele>195.66666666666669</ele><time>2026-04-22T14:29:32.606Z</time></trkpt><trkpt lat="43.5828267" lon="13.1790967"><ele>194.33333333333331</ele><time>2026-04-22T14:29:33.606Z</time></trkpt><trkpt lat="43.582875" lon="13.1792933"><ele>193.0</ele><time>2026-04-22T14:29:34.606Z</time></trkpt><trkpt lat="43.5829233" lon="13.179495"><ele>193.0</ele><time>2026-04-22T14:29:35.606Z</time></trkpt><trkpt lat="43.58297" lon="13.1797033"><ele>193.0</ele><time>2026-04-22T14:29:36.607Z</time></trkpt><trkpt lat="43.58302" lon="13.1799"><ele>193.0</ele><time>2026-04-22T14:29:37.606Z</time></trkpt><trkpt lat="43.5830617" lon="13.1800933"><ele>194.66666666666666</ele><time>2026-04-22T14:29:38.606Z</time></trkpt><trkpt lat="43.5830983" lon="13.180285"><ele>196.33333333333331</ele><time>2026-04-22T14:29:39.606Z</time></trkpt><trkpt lat="43.5831167" lon="13.1804933"><ele>198.0</ele><time>2026-04-22T14:29:40.606Z</time></trkpt><trkpt lat="43.5831283" lon="13.18071"><ele>199.33333333333331</ele><time>2026-04-22T14:29:41.606Z</time></trkpt><trkpt lat="43.5831283" lon="13.1809167"><ele>200.66666666666666</ele><time>2026-04-22T14:29:42.606Z</time></trkpt><trkpt lat="43.5831133" lon="13.18113"><ele>202.0</ele><time>2026-04-22T14:29:43.606Z</time></trkpt><trkpt lat="43.5831117" lon="13.1813467"><ele>203.0</ele><time>2026-04-22T14:29:44.606Z</time></trkpt><trkpt lat="43.5831" lon="13.1815667"><ele>204.0</ele><time>2026-04-22T14:29:45.606Z</time></trkpt><trkpt lat="43.5830933" lon="13.1817817"><ele>205.0</ele><time>2026-04-22T14:29:46.606Z</time></trkpt><trkpt lat="43.583085" lon="13.1819967"><ele>205.0</ele><time>2026-04-22T14:29:47.606Z</time></trkpt><trkpt lat="43.5830767" lon="13.182215"><ele>205.0</ele><time>2026-04-22T14:29:48.606Z</time></trkpt><trkpt lat="43.5830717" lon="13.1824317"><ele>205.0</ele><time>2026-04-22T14:29:49.606Z</time></trkpt><trkpt lat="43.583065" lon="13.1826533"><ele>205.66666666666666</ele><time>2026-04-22T14:29:50.606Z</time></trkpt><trkpt lat="43.5830633" lon="13.1828617"><ele>206.33333333333331</ele><time>2026-04-22T14:29:51.606Z</time></trkpt><trkpt lat="43.5830617" lon="13.1830733"><ele>207.0</ele><time>2026-04-22T14:29:52.606Z</time></trkpt><trkpt lat="43.58305" lon="13.18329"><ele>207.33333333333331</ele><time>2026-04-22T14:29:53.606Z</time></trkpt><trkpt lat="43.5830383" lon="13.1834917"><ele>207.66666666666666</ele><time>2026-04-22T14:29:54.606Z</time></trkpt><trkpt lat="43.583035" lon="13.1837033"><ele>208.0</ele><time>2026-04-22T14:29:55.606Z</time></trkpt><trkpt lat="43.583025" lon="13.183915"><ele>208.33333333333331</ele><time>2026-04-22T14:29:56.606Z</time></trkpt><trkpt lat="43.583" lon="13.1841267"><ele>208.66666666666669</ele><time>2026-04-22T14:29:57.606Z</time></trkpt><trkpt lat="43.5829683" lon="13.18434"><ele>209.0</ele><time>2026-04-22T14:29:58.606Z</time></trkpt><trkpt lat="43.582935" lon="13.18455"><ele>209.0</ele><time>2026-04-22T14:29:59.606Z</time></trkpt><trkpt lat="43.58289" lon="13.1847633"><ele>209.0</ele><time>2026-04-22T14:30:00.606Z</time></trkpt><trkpt lat="43.582845" lon="13.1849733"><ele>209.0</ele><time>2026-04-22T14:30:01.606Z</time></trkpt><trkpt lat="43.582795" lon="13.185195"><ele>208.0</ele><time>2026-04-22T14:30:02.606Z</time></trkpt><trkpt lat="43.58275" lon="13.18541"><ele>207.0</ele><time>2026-04-22T14:30:03.606Z</time></trkpt><trkpt lat="43.58271" lon="13.1856117"><ele>206.0</ele><time>2026-04-22T14:30:04.606Z</time></trkpt><trkpt lat="43.5826917" lon="13.1858167"><ele>206.0</ele><time>2026-04-22T14:30:05.606Z</time></trkpt><trkpt lat="43.582675" lon="13.18602"><ele>206.0</ele><time>2026-04-22T14:30:06.606Z</time></trkpt><trkpt lat="43.5826783" lon="13.1862267"><ele>206.0</ele><time>2026-04-22T14:30:07.606Z</time></trkpt><trkpt lat="43.5827083" lon="13.1864217"><ele>206.0</ele><time>2026-04-22T14:30:08.606Z</time></trkpt><trkpt lat="43.58275" lon="13.1866067"><ele>205.75</ele><time>2026-04-22T14:30:09.606Z</time></trkpt><trkpt lat="43.5827883" lon="13.18679"><ele>205.5</ele><time>2026-04-22T14:30:10.606Z</time></trkpt><trkpt lat="43.5828267" lon="13.186975"><ele>205.25</ele><time>2026-04-22T14:30:11.606Z</time></trkpt><trkpt lat="43.5828567" lon="13.1871733"><ele>205.0</ele><time>2026-04-22T14:30:12.606Z</time></trkpt><trkpt lat="43.58289" lon="13.1873717"><ele>205.0</ele><time>2026-04-22T14:30:13.606Z</time></trkpt><trkpt lat="43.58293" lon="13.1875733"><ele>205.0</ele><time>2026-04-22T14:30:14.606Z</time></trkpt><trkpt lat="43.5829767" lon="13.1877883"><ele>205.0</ele><time>2026-04-22T14:30:15.606Z</time></trkpt><trkpt lat="43.583015" lon="13.1880017"><ele>203.33333333333331</ele><time>2026-04-22T14:30:16.606Z</time></trkpt><trkpt lat="43.5830533" lon="13.18822"><ele>201.66666666666669</ele><time>2026-04-22T14:30:17.606Z</time></trkpt><trkpt lat="43.583075" lon="13.18843"><ele>200.0</ele><time>2026-04-22T14:30:18.606Z</time></trkpt><trkpt lat="43.58308" lon="13.188645"><ele>200.0</ele><time>2026-04-22T14:30:19.606Z</time></trkpt><trkpt lat="43.5830717" lon="13.1888533"><ele>200.0</ele><time>2026-04-22T14:30:20.607Z</time></trkpt><trkpt lat="43.5830733" lon="13.1890667"><ele>200.0</ele><time>2026-04-22T14:30:21.606Z</time></trkpt><trkpt lat="43.5830767" lon="13.1892833"><ele>199.33333333333334</ele><time>2026-04-22T14:30:22.606Z</time></trkpt><trkpt lat="43.58308" lon="13.1894967"><ele>198.66666666666669</ele><time>2026-04-22T14:30:23.606Z</time></trkpt><trkpt lat="43.58307" lon="13.1897083"><ele>198.0</ele><time>2026-04-22T14:30:24.606Z</time></trkpt><trkpt lat="43.583065" lon="13.1899217"><ele>196.66666666666669</ele><time>2026-04-22T14:30:25.607Z</time></trkpt><trkpt lat="43.5830467" lon="13.1901333"><ele>195.33333333333334</ele><time>2026-04-22T14:30:26.607Z</time></trkpt><trkpt lat="43.58302" lon="13.1903367"><ele>194.0</ele><time>2026-04-22T14:30:27.606Z</time></trkpt><trkpt lat="43.583" lon="13.19054"><ele>192.66666666666669</ele><time>2026-04-22T14:30:28.607Z</time></trkpt><trkpt lat="43.5829867" lon="13.1907567"><ele>191.33333333333334</ele><time>2026-04-22T14:30:29.606Z</time></trkpt><trkpt lat="43.5829717" lon="13.190975"><ele>190.0</ele><time>2026-04-22T14:30:30.606Z</time></trkpt><trkpt lat="43.5829583" lon="13.1911883"><ele>190.0</ele><time>2026-04-22T14:30:31.606Z</time></trkpt><trkpt lat="43.582945" lon="13.1914083"><ele>190.0</ele><time>2026-04-22T14:30:32.607Z</time></trkpt><trkpt lat="43.5829183" lon="13.1916167"><ele>190.0</ele><time>2026-04-22T14:30:33.606Z</time></trkpt><trkpt lat="43.582885" lon="13.191825"><ele>191.66666666666669</ele><time>2026-04-22T14:30:34.606Z</time></trkpt><trkpt lat="43.5828467" lon="13.192035"><ele>193.33333333333334</ele><time>2026-04-22T14:30:35.607Z</time></trkpt><trkpt lat="43.5827983" lon="13.192245"><ele>195.0</ele><time>2026-04-22T14:30:36.606Z</time></trkpt><trkpt lat="43.5827533" lon="13.19246"><ele>195.0</ele><time>2026-04-22T14:30:37.606Z</time></trkpt><trkpt lat="43.582705" lon="13.1926617"><ele>195.0</ele><time>2026-04-22T14:30:38.606Z</time></trkpt><trkpt lat="43.5826583" lon="13.19287"><ele>195.0</ele><time>2026-04-22T14:30:39.607Z</time></trkpt><trkpt lat="43.5826067" lon="13.1930767"><ele>196.33333333333331</ele><time>2026-04-22T14:30:40.606Z</time></trkpt><trkpt lat="43.5825533" lon="13.1932833"><ele>197.66666666666666</ele><time>2026-04-22T14:30:41.606Z</time></trkpt><trkpt lat="43.5825033" lon="13.1934933"><ele>199.0</ele><time>2026-04-22T14:30:42.606Z</time></trkpt><trkpt lat="43.58246" lon="13.1936883"><ele>199.0</ele><time>2026-04-22T14:30:43.606Z</time></trkpt><trkpt lat="43.5824117" lon="13.193885"><ele>199.0</ele><time>2026-04-22T14:30:44.606Z</time></trkpt><trkpt lat="43.58236" lon="13.1940917"><ele>199.0</ele><time>2026-04-22T14:30:45.607Z</time></trkpt><trkpt lat="43.5823117" lon="13.1942983"><ele>199.33333333333331</ele><time>2026-04-22T14:30:46.606Z</time></trkpt><trkpt lat="43.5822517" lon="13.1945"><ele>199.66666666666669</ele><time>2026-04-22T14:30:47.606Z</time></trkpt><trkpt lat="43.58219" lon="13.194705"><ele>200.0</ele><time>2026-04-22T14:30:48.607Z</time></trkpt><trkpt lat="43.5821283" lon="13.194905"><ele>199.66666666666669</ele><time>2026-04-22T14:30:49.606Z</time></trkpt><trkpt lat="43.582075" lon="13.195115"><ele>199.33333333333331</ele><time>2026-04-22T14:30:50.606Z</time></trkpt><trkpt lat="43.5820333" lon="13.19532"><ele>199.0</ele><time>2026-04-22T14:30:51.606Z</time></trkpt><trkpt lat="43.581985" lon="13.195535"><ele>199.33333333333331</ele><time>2026-04-22T14:30:52.606Z</time></trkpt><trkpt lat="43.5819283" lon="13.195755"><ele>199.66666666666669</ele><time>2026-04-22T14:30:53.606Z</time></trkpt><trkpt lat="43.5818883" lon="13.1959683"><ele>200.0</ele><time>2026-04-22T14:30:54.606Z</time></trkpt><trkpt lat="43.5818367" lon="13.19618"><ele>200.0</ele><time>2026-04-22T14:30:55.606Z</time></trkpt><trkpt lat="43.581765" lon="13.19639"><ele>200.0</ele><time>2026-04-22T14:30:56.606Z</time></trkpt><trkpt lat="43.5816783" lon="13.1966"><ele>200.0</ele><time>2026-04-22T14:30:57.607Z</time></trkpt><trkpt lat="43.5815733" lon="13.1967867"><ele>201.33333333333334</ele><time>2026-04-22T14:30:58.606Z</time></trkpt><trkpt lat="43.5814567" lon="13.1969517"><ele>202.66666666666669</ele><time>2026-04-22T14:30:59.606Z</time></trkpt><trkpt lat="43.5813333" lon="13.1971067"><ele>204.0</ele><time>2026-04-22T14:31:00.607Z</time></trkpt><trkpt lat="43.5812117" lon="13.1972567"><ele>205.66666666666669</ele><time>2026-04-22T14:31:01.606Z</time></trkpt><trkpt lat="43.5810917" lon="13.1974"><ele>207.33333333333334</ele><time>2026-04-22T14:31:02.606Z</time></trkpt><trkpt lat="43.5809733" lon="13.197545"><ele>209.0</ele><time>2026-04-22T14:31:03.606Z</time></trkpt><trkpt lat="43.5808617" lon="13.1976917"><ele>209.0</ele><time>2026-04-22T14:31:04.607Z</time></trkpt><trkpt lat="43.5807617" lon="13.1978317"><ele>209.0</ele><time>2026-04-22T14:31:05.606Z</time></trkpt><trkpt lat="43.5806733" lon="13.1979767"><ele>209.0</ele><time>2026-04-22T14:31:06.606Z</time></trkpt><trkpt lat="43.580595" lon="13.1981217"><ele>209.0</ele><time>2026-04-22T14:31:07.606Z</time></trkpt><trkpt lat="43.5805483" lon="13.1982967"><ele>209.25</ele><time>2026-04-22T14:31:08.606Z</time></trkpt><trkpt lat="43.5805067" lon="13.19849"><ele>209.5</ele><time>2026-04-22T14:31:09.606Z</time></trkpt><trkpt lat="43.5804917" lon="13.1986867"><ele>209.75</ele><time>2026-04-22T14:31:10.606Z</time></trkpt><trkpt lat="43.5804883" lon="13.1988933"><ele>210.0</ele><time>2026-04-22T14:31:11.606Z</time></trkpt><trkpt lat="43.5804933" lon="13.1991017"><ele>210.0</ele><time>2026-04-22T14:31:12.606Z</time></trkpt><trkpt lat="43.5804933" lon="13.19931"><ele>210.0</ele><time>2026-04-22T14:31:13.606Z</time></trkpt><trkpt lat="43.5805" lon="13.199515"><ele>210.0</ele><time>2026-04-22T14:31:14.606Z</time></trkpt><trkpt lat="43.58051" lon="13.199715"><ele>210.0</ele><time>2026-04-22T14:31:15.605Z</time></trkpt><trkpt lat="43.5805267" lon="13.1999167"><ele>209.5</ele><time>2026-04-22T14:31:16.605Z</time></trkpt><trkpt lat="43.5805383" lon="13.2001"><ele>209.0</ele><time>2026-04-22T14:31:17.605Z</time></trkpt><trkpt lat="43.5805533" lon="13.2002783"><ele>208.5</ele><time>2026-04-22T14:31:18.605Z</time></trkpt><trkpt lat="43.580545" lon="13.2004433"><ele>208.0</ele><time>2026-04-22T14:31:19.605Z</time></trkpt><trkpt lat="43.58053" lon="13.200605"><ele>207.5</ele><time>2026-04-22T14:31:20.605Z</time></trkpt><trkpt lat="43.5805133" lon="13.20077"><ele>207.0</ele><time>2026-04-22T14:31:21.605Z</time></trkpt><trkpt lat="43.5804833" lon="13.2009433"><ele>206.5</ele><time>2026-04-22T14:31:22.605Z</time></trkpt><trkpt lat="43.58045" lon="13.201125"><ele>206.0</ele><time>2026-04-22T14:31:23.606Z</time></trkpt><trkpt lat="43.5804133" lon="13.2013267"><ele>206.0</ele><time>2026-04-22T14:31:24.605Z</time></trkpt><trkpt lat="43.5803667" lon="13.2015217"><ele>206.0</ele><time>2026-04-22T14:31:25.605Z</time></trkpt><trkpt lat="43.58032" lon="13.2017183"><ele>206.0</ele><time>2026-04-22T14:31:26.605Z</time></trkpt><trkpt lat="43.5802817" lon="13.2019067"><ele>206.0</ele><time>2026-04-22T14:31:27.605Z</time></trkpt><trkpt lat="43.5802317" lon="13.2020883"><ele>204.0</ele><time>2026-04-22T14:31:28.605Z</time></trkpt><trkpt lat="43.5801933" lon="13.2022617"><ele>202.0</ele><time>2026-04-22T14:31:29.605Z</time></trkpt><trkpt lat="43.5801567" lon="13.2024433"><ele>200.0</ele><time>2026-04-22T14:31:30.606Z</time></trkpt><trkpt lat="43.5801117" lon="13.20261"><ele>198.0</ele><time>2026-04-22T14:31:31.605Z</time></trkpt><trkpt lat="43.58007" lon="13.2027617"><ele>198.0</ele><time>2026-04-22T14:31:32.605Z</time></trkpt><trkpt lat="43.58003" lon="13.2029067"><ele>198.0</ele><time>2026-04-22T14:31:33.605Z</time></trkpt><trkpt lat="43.5799967" lon="13.2030483"><ele>198.0</ele><time>2026-04-22T14:31:34.605Z</time></trkpt><trkpt lat="43.5799667" lon="13.2031667"><ele>198.0</ele><time>2026-04-22T14:31:35.605Z</time></trkpt><trkpt lat="43.5799233" lon="13.2032783"><ele>198.0</ele><time>2026-04-22T14:31:36.605Z</time></trkpt><trkpt lat="43.5798683" lon="13.203375"><ele>197.8</ele><time>2026-04-22T14:31:37.605Z</time></trkpt><trkpt lat="43.5798033" lon="13.203465"><ele>197.60000000000002</ele><time>2026-04-22T14:31:38.606Z</time></trkpt><trkpt lat="43.57974" lon="13.20358"><ele>197.39999999999998</ele><time>2026-04-22T14:31:39.606Z</time></trkpt><trkpt lat="43.5796933" lon="13.203695"><ele>197.2</ele><time>2026-04-22T14:31:40.605Z</time></trkpt><trkpt lat="43.579635" lon="13.203805"><ele>197.0</ele><time>2026-04-22T14:31:41.605Z</time></trkpt><trkpt lat="43.5795517" lon="13.20389"><ele>197.0</ele><time>2026-04-22T14:31:42.605Z</time></trkpt><trkpt lat="43.5794483" lon="13.20394"><ele>197.0</ele><time>2026-04-22T14:31:43.605Z</time></trkpt><trkpt lat="43.5793517" lon="13.20398"><ele>197.0</ele><time>2026-04-22T14:31:44.606Z</time></trkpt><trkpt lat="43.57926" lon="13.2040283"><ele>197.0</ele><time>2026-04-22T14:31:45.605Z</time></trkpt><trkpt lat="43.5791683" lon="13.2040833"><ele>197.0</ele><time>2026-04-22T14:31:46.605Z</time></trkpt><trkpt lat="43.5790617" lon="13.204145"><ele>197.25</ele><time>2026-04-22T14:31:47.606Z</time></trkpt><trkpt lat="43.578955" lon="13.2042117"><ele>197.5</ele><time>2026-04-22T14:31:48.605Z</time></trkpt><trkpt lat="43.5788417" lon="13.2042917"><ele>197.75</ele><time>2026-04-22T14:31:49.605Z</time></trkpt><trkpt lat="43.5787317" lon="13.2043733"><ele>198.0</ele><time>2026-04-22T14:31:50.606Z</time></trkpt><trkpt lat="43.5786233" lon="13.2044467"><ele>200.25</ele><time>2026-04-22T14:31:51.605Z</time></trkpt><trkpt lat="43.578515" lon="13.2045233"><ele>202.5</ele><time>2026-04-22T14:31:52.605Z</time></trkpt><trkpt lat="43.5784" lon="13.2046017"><ele>204.75</ele><time>2026-04-22T14:31:53.605Z</time></trkpt><trkpt lat="43.578285" lon="13.2046717"><ele>207.0</ele><time>2026-04-22T14:31:54.605Z</time></trkpt><trkpt lat="43.57817" lon="13.20474"><ele>207.0</ele><time>2026-04-22T14:31:55.605Z</time></trkpt><trkpt lat="43.57805" lon="13.204825"><ele>207.0</ele><time>2026-04-22T14:31:56.605Z</time></trkpt><trkpt lat="43.5779267" lon="13.204905"><ele>207.0</ele><time>2026-04-22T14:31:57.605Z</time></trkpt><trkpt lat="43.5777967" lon="13.2049717"><ele>207.0</ele><time>2026-04-22T14:31:58.605Z</time></trkpt><trkpt lat="43.5776783" lon="13.2050483"><ele>210.75</ele><time>2026-04-22T14:31:59.605Z</time></trkpt><trkpt lat="43.5775517" lon="13.2051083"><ele>214.5</ele><time>2026-04-22T14:32:00.605Z</time></trkpt><trkpt lat="43.57743" lon="13.20517"><ele>218.25</ele><time>2026-04-22T14:32:01.605Z</time></trkpt><trkpt lat="43.5772967" lon="13.2052267"><ele>222.0</ele><time>2026-04-22T14:32:02.605Z</time></trkpt><trkpt lat="43.57719" lon="13.2052683"><ele>222.0</ele><time>2026-04-22T14:32:03.605Z</time></trkpt><trkpt lat="43.5771" lon="13.2053"><ele>222.0</ele><time>2026-04-22T14:32:04.605Z</time></trkpt><trkpt lat="43.5770333" lon="13.2053083"><ele>222.0</ele><time>2026-04-22T14:32:05.605Z</time></trkpt><trkpt lat="43.576945" lon="13.2053067"><ele>222.0</ele><time>2026-04-22T14:32:07.605Z</time></trkpt><trkpt lat="43.5768567" lon="13.2052217"><ele>222.0</ele><time>2026-04-22T14:32:09.606Z</time></trkpt><trkpt lat="43.5767733" lon="13.2051267"><ele>223.33333333333334</ele><time>2026-04-22T14:32:11.605Z</time></trkpt><trkpt lat="43.5767083" lon="13.20509"><ele>224.66666666666669</ele><time>2026-04-22T14:32:13.605Z</time></trkpt><trkpt lat="43.57662" lon="13.2050717"><ele>226.0</ele><time>2026-04-22T14:32:15.605Z</time></trkpt><trkpt lat="43.5765033" lon="13.20506"><ele>227.33333333333334</ele><time>2026-04-22T14:32:17.605Z</time></trkpt><trkpt lat="43.576435" lon="13.2050433"><ele>228.66666666666669</ele><time>2026-04-22T14:32:18.606Z</time></trkpt><trkpt lat="43.576355" lon="13.2050283"><ele>230.0</ele><time>2026-04-22T14:32:19.606Z</time></trkpt><trkpt lat="43.5762767" lon="13.2050083"><ele>228.83333333333334</ele><time>2026-04-22T14:32:20.605Z</time></trkpt><trkpt lat="43.5761767" lon="13.2050017"><ele>227.66666666666669</ele><time>2026-04-22T14:32:22.605Z</time></trkpt><trkpt lat="43.5761267" lon="13.2051067"><ele>226.5</ele><time>2026-04-22T14:32:25.605Z</time></trkpt><trkpt lat="43.57614" lon="13.2052017"><ele>225.33333333333331</ele><time>2026-04-22T14:32:26.605Z</time></trkpt><trkpt lat="43.5761433" lon="13.205305"><ele>224.16666666666666</ele><time>2026-04-22T14:32:27.606Z</time></trkpt><trkpt lat="43.5761483" lon="13.20542"><ele>223.0</ele><time>2026-04-22T14:32:28.605Z</time></trkpt><trkpt lat="43.57616" lon="13.2055483"><ele>222.99999999999997</ele><time>2026-04-22T14:32:29.605Z</time></trkpt><trkpt lat="43.576165" lon="13.2056733"><ele>223.0</ele><time>2026-04-22T14:32:30.605Z</time></trkpt><trkpt lat="43.5761667" lon="13.205795"><ele>223.0</ele><time>2026-04-22T14:32:31.605Z</time></trkpt><trkpt lat="43.5761583" lon="13.2059083"><ele>223.0</ele><time>2026-04-22T14:32:32.605Z</time></trkpt><trkpt lat="43.576145" lon="13.2060267"><ele>222.99999999999997</ele><time>2026-04-22T14:32:33.605Z</time></trkpt><trkpt lat="43.5761283" lon="13.2061367"><ele>223.0</ele><time>2026-04-22T14:32:34.605Z</time></trkpt><trkpt lat="43.5761067" lon="13.2062383"><ele>223.0</ele><time>2026-04-22T14:32:35.605Z</time></trkpt><trkpt lat="43.57609" lon="13.20634"><ele>223.0</ele><time>2026-04-22T14:32:36.605Z</time></trkpt><trkpt lat="43.5760733" lon="13.206435"><ele>223.0</ele><time>2026-04-22T14:32:37.605Z</time></trkpt><trkpt lat="43.5760533" lon="13.2065283"><ele>223.0</ele><time>2026-04-22T14:32:38.605Z</time></trkpt><trkpt lat="43.5760217" lon="13.206615"><ele>223.0</ele><time>2026-04-22T14:32:39.605Z</time></trkpt><trkpt lat="43.5759883" lon="13.206705"><ele>223.0</ele><time>2026-04-22T14:32:40.606Z</time></trkpt><trkpt lat="43.5759483" lon="13.206785"><ele>223.0</ele><time>2026-04-22T14:32:41.606Z</time></trkpt><trkpt lat="43.5758983" lon="13.206865"><ele>222.4</ele><time>2026-04-22T14:32:42.605Z</time></trkpt><trkpt lat="43.575815" lon="13.2069333"><ele>221.8</ele><time>2026-04-22T14:32:43.605Z</time></trkpt><trkpt lat="43.5757333" lon="13.2070033"><ele>221.2</ele><time>2026-04-22T14:32:44.605Z</time></trkpt><trkpt lat="43.5756433" lon="13.2070783"><ele>220.6</ele><time>2026-04-22T14:32:45.605Z</time></trkpt><trkpt lat="43.57556" lon="13.2071467"><ele>220.0</ele><time>2026-04-22T14:32:46.605Z</time></trkpt><trkpt lat="43.5754683" lon="13.2072067"><ele>220.0</ele><time>2026-04-22T14:32:47.605Z</time></trkpt><trkpt lat="43.5753783" lon="13.2072767"><ele>220.0</ele><time>2026-04-22T14:32:48.605Z</time></trkpt><trkpt lat="43.5752883" lon="13.20736"><ele>220.0</ele><time>2026-04-22T14:32:49.605Z</time></trkpt><trkpt lat="43.5752033" lon="13.2074383"><ele>220.0</ele><time>2026-04-22T14:32:50.605Z</time></trkpt><trkpt lat="43.57513" lon="13.207505"><ele>220.0</ele><time>2026-04-22T14:32:51.605Z</time></trkpt><trkpt lat="43.5750633" lon="13.207565"><ele>217.33333333333331</ele><time>2026-04-22T14:32:52.605Z</time></trkpt><trkpt lat="43.5750033" lon="13.207615"><ele>214.66666666666666</ele><time>2026-04-22T14:32:53.605Z</time></trkpt><trkpt lat="43.57492" lon="13.2076783"><ele>212.0</ele><time>2026-04-22T14:32:55.605Z</time></trkpt><trkpt lat="43.5748333" lon="13.2077633"><ele>209.33333333333331</ele><time>2026-04-22T14:32:59.605Z</time></trkpt><trkpt lat="43.5747767" lon="13.2078133"><ele>206.66666666666666</ele><time>2026-04-22T14:33:00.606Z</time></trkpt><trkpt lat="43.5747117" lon="13.2078783"><ele>204.0</ele><time>2026-04-22T14:33:01.605Z</time></trkpt><trkpt lat="43.5746317" lon="13.2079517"><ele>204.0</ele><time>2026-04-22T14:33:02.605Z</time></trkpt><trkpt lat="43.574545" lon="13.2080267"><ele>204.0</ele><time>2026-04-22T14:33:03.605Z</time></trkpt><trkpt lat="43.57445" lon="13.2080967"><ele>204.0</ele><time>2026-04-22T14:33:04.605Z</time></trkpt><trkpt lat="43.57435" lon="13.20818"><ele>204.0</ele><time>2026-04-22T14:33:05.605Z</time></trkpt><trkpt lat="43.5742367" lon="13.20826"><ele>203.0</ele><time>2026-04-22T14:33:06.605Z</time></trkpt><trkpt lat="43.57411" lon="13.2083383"><ele>202.0</ele><time>2026-04-22T14:33:07.606Z</time></trkpt><trkpt lat="43.5739833" lon="13.2084217"><ele>201.0</ele><time>2026-04-22T14:33:08.605Z</time></trkpt><trkpt lat="43.5738433" lon="13.2085183"><ele>200.0</ele><time>2026-04-22T14:33:09.605Z</time></trkpt><trkpt lat="43.5737067" lon="13.2086033"><ele>199.5</ele><time>2026-04-22T14:33:10.606Z</time></trkpt><trkpt lat="43.57356" lon="13.2086767"><ele>199.0</ele><time>2026-04-22T14:33:11.605Z</time></trkpt><trkpt lat="43.5734233" lon="13.2087583"><ele>198.5</ele><time>2026-04-22T14:33:12.605Z</time></trkpt><trkpt lat="43.5732983" lon="13.2088433"><ele>198.0</ele><time>2026-04-22T14:33:13.606Z</time></trkpt><trkpt lat="43.5731733" lon="13.2089333"><ele>197.25</ele><time>2026-04-22T14:33:14.605Z</time></trkpt><trkpt lat="43.5730483" lon="13.2090183"><ele>196.5</ele><time>2026-04-22T14:33:15.605Z</time></trkpt><trkpt lat="43.5729233" lon="13.209095"><ele>195.75</ele><time>2026-04-22T14:33:16.606Z</time></trkpt><trkpt lat="43.5728033" lon="13.2091633"><ele>195.0</ele><time>2026-04-22T14:33:17.605Z</time></trkpt><trkpt lat="43.572685" lon="13.2092267"><ele>195.0</ele><time>2026-04-22T14:33:18.605Z</time></trkpt><trkpt lat="43.5725633" lon="13.2093033"><ele>195.0</ele><time>2026-04-22T14:33:19.605Z</time></trkpt><trkpt lat="43.5724433" lon="13.20937"><ele>195.0</ele><time>2026-04-22T14:33:20.605Z</time></trkpt><trkpt lat="43.57233" lon="13.209435"><ele>195.0</ele><time>2026-04-22T14:33:21.605Z</time></trkpt><trkpt lat="43.5722233" lon="13.2095067"><ele>195.0</ele><time>2026-04-22T14:33:22.605Z</time></trkpt><trkpt lat="43.572115" lon="13.20958"><ele>195.0</ele><time>2026-04-22T14:33:23.605Z</time></trkpt><trkpt lat="43.5720117" lon="13.20966"><ele>195.0</ele><time>2026-04-22T14:33:24.605Z</time></trkpt><trkpt lat="43.5719033" lon="13.2097567"><ele>195.0</ele><time>2026-04-22T14:33:25.605Z</time></trkpt><trkpt lat="43.5717883" lon="13.2098633"><ele>194.25</ele><time>2026-04-22T14:33:26.605Z</time></trkpt><trkpt lat="43.571675" lon="13.209975"><ele>193.5</ele><time>2026-04-22T14:33:27.606Z</time></trkpt><trkpt lat="43.5715533" lon="13.2100683"><ele>192.75</ele><time>2026-04-22T14:33:28.605Z</time></trkpt><trkpt lat="43.571425" lon="13.2101617"><ele>192.0</ele><time>2026-04-22T14:33:29.605Z</time></trkpt><trkpt lat="43.57129" lon="13.2102467"><ele>192.0</ele><time>2026-04-22T14:33:30.605Z</time></trkpt><trkpt lat="43.5711617" lon="13.2103183"><ele>192.0</ele><time>2026-04-22T14:33:31.605Z</time></trkpt><trkpt lat="43.5710267" lon="13.2103967"><ele>192.0</ele><time>2026-04-22T14:33:32.606Z</time></trkpt><trkpt lat="43.5708983" lon="13.210475"><ele>192.0</ele><time>2026-04-22T14:33:33.605Z</time></trkpt><trkpt lat="43.570775" lon="13.2105683"><ele>192.0</ele><time>2026-04-22T14:33:34.605Z</time></trkpt><trkpt lat="43.5706617" lon="13.2106533"><ele>192.0</ele><time>2026-04-22T14:33:35.605Z</time></trkpt><trkpt lat="43.570535" lon="13.2107683"><ele>192.0</ele><time>2026-04-22T14:33:36.605Z</time></trkpt><trkpt lat="43.5704133" lon="13.2108767"><ele>192.0</ele><time>2026-04-22T14:33:37.605Z</time></trkpt><trkpt lat="43.5702917" lon="13.211"><ele>195.0</ele><time>2026-04-22T14:33:38.605Z</time></trkpt><trkpt lat="43.5701633" lon="13.2111167"><ele>198.0</ele><time>2026-04-22T14:33:39.605Z</time></trkpt><trkpt lat="43.570035" lon="13.2112317"><ele>201.0</ele><time>2026-04-22T14:33:40.605Z</time></trkpt><trkpt lat="43.5699033" lon="13.2113383"><ele>201.0</ele><time>2026-04-22T14:33:41.605Z</time></trkpt><trkpt lat="43.5697733" lon="13.21143"><ele>201.0</ele><time>2026-04-22T14:33:42.605Z</time></trkpt><trkpt lat="43.5696467" lon="13.2115183"><ele>201.0</ele><time>2026-04-22T14:33:43.605Z</time></trkpt><trkpt lat="43.5695183" lon="13.2116167"><ele>201.0</ele><time>2026-04-22T14:33:44.606Z</time></trkpt><trkpt lat="43.5694017" lon="13.2117183"><ele>201.25</ele><time>2026-04-22T14:33:45.605Z</time></trkpt><trkpt lat="43.5692833" lon="13.2118183"><ele>201.5</ele><time>2026-04-22T14:33:46.606Z</time></trkpt><trkpt lat="43.5691817" lon="13.2119267"><ele>201.75</ele><time>2026-04-22T14:33:47.605Z</time></trkpt><trkpt lat="43.5690683" lon="13.2120833"><ele>202.0</ele><time>2026-04-22T14:33:48.605Z</time></trkpt><trkpt lat="43.56896" lon="13.2122367"><ele>200.33333333333331</ele><time>2026-04-22T14:33:49.606Z</time></trkpt><trkpt lat="43.5688567" lon="13.2123917"><ele>198.66666666666669</ele><time>2026-04-22T14:33:50.605Z</time></trkpt><trkpt lat="43.56876" lon="13.2125533"><ele>197.0</ele><time>2026-04-22T14:33:51.606Z</time></trkpt><trkpt lat="43.5686717" lon="13.2127167"><ele>197.0</ele><time>2026-04-22T14:33:52.606Z</time></trkpt><trkpt lat="43.5685917" lon="13.212885"><ele>197.0</ele><time>2026-04-22T14:33:53.605Z</time></trkpt><trkpt lat="43.5685283" lon="13.2130633"><ele>197.0</ele><time>2026-04-22T14:33:54.605Z</time></trkpt><trkpt lat="43.5684583" lon="13.2132417"><ele>197.0</ele><time>2026-04-22T14:33:55.605Z</time></trkpt><trkpt lat="43.5683817" lon="13.21342"><ele>196.25</ele><time>2026-04-22T14:33:56.605Z</time></trkpt><trkpt lat="43.5683033" lon="13.2135967"><ele>195.5</ele><time>2026-04-22T14:33:57.605Z</time></trkpt><trkpt lat="43.5682167" lon="13.213765"><ele>194.75</ele><time>2026-04-22T14:33:58.605Z</time></trkpt><trkpt lat="43.5681283" lon="13.2139283"><ele>194.0</ele><time>2026-04-22T14:33:59.606Z</time></trkpt><trkpt lat="43.5680283" lon="13.2140933"><ele>193.33333333333334</ele><time>2026-04-22T14:34:00.605Z</time></trkpt><trkpt lat="43.5679333" lon="13.2142517"><ele>192.66666666666669</ele><time>2026-04-22T14:34:01.605Z</time></trkpt><trkpt lat="43.5678317" lon="13.21442"><ele>192.0</ele><time>2026-04-22T14:34:02.606Z</time></trkpt><trkpt lat="43.56773" lon="13.21457"><ele>192.0</ele><time>2026-04-22T14:34:03.605Z</time></trkpt><trkpt lat="43.567635" lon="13.214715"><ele>192.0</ele><time>2026-04-22T14:34:04.605Z</time></trkpt><trkpt lat="43.5675367" lon="13.2148633"><ele>192.0</ele><time>2026-04-22T14:34:05.605Z</time></trkpt><trkpt lat="43.56743" lon="13.214995"><ele>192.0</ele><time>2026-04-22T14:34:06.605Z</time></trkpt><trkpt lat="43.567305" lon="13.2151033"><ele>191.0</ele><time>2026-04-22T14:34:07.605Z</time></trkpt><trkpt lat="43.5671783" lon="13.2152017"><ele>190.0</ele><time>2026-04-22T14:34:08.605Z</time></trkpt><trkpt lat="43.5670483" lon="13.2152783"><ele>189.0</ele><time>2026-04-22T14:34:09.605Z</time></trkpt><trkpt lat="43.5669017" lon="13.215345"><ele>188.0</ele><time>2026-04-22T14:34:10.605Z</time></trkpt><trkpt lat="43.5667467" lon="13.2154067"><ele>188.0</ele><time>2026-04-22T14:34:11.605Z</time></trkpt><trkpt lat="43.5665917" lon="13.2154633"><ele>188.0</ele><time>2026-04-22T14:34:12.605Z</time></trkpt><trkpt lat="43.566425" lon="13.21552"><ele>188.0</ele><time>2026-04-22T14:34:13.605Z</time></trkpt><trkpt lat="43.5662533" lon="13.2155817"><ele>185.33333333333331</ele><time>2026-04-22T14:34:14.605Z</time></trkpt><trkpt lat="43.566065" lon="13.2156467"><ele>182.66666666666666</ele><time>2026-04-22T14:34:15.605Z</time></trkpt><trkpt lat="43.5658783" lon="13.2157117"><ele>180.0</ele><time>2026-04-22T14:34:16.605Z</time></trkpt><trkpt lat="43.56568" lon="13.2157783"><ele>180.0</ele><time>2026-04-22T14:34:17.605Z</time></trkpt><trkpt lat="43.5654867" lon="13.2158517"><ele>180.0</ele><time>2026-04-22T14:34:18.605Z</time></trkpt><trkpt lat="43.565285" lon="13.2159267"><ele>180.0</ele><time>2026-04-22T14:34:19.605Z</time></trkpt><trkpt lat="43.5650833" lon="13.2160017"><ele>178.66666666666666</ele><time>2026-04-22T14:34:20.605Z</time></trkpt><trkpt lat="43.5648867" lon="13.21607"><ele>177.33333333333331</ele><time>2026-04-22T14:34:21.606Z</time></trkpt><trkpt lat="43.5646917" lon="13.216135"><ele>176.0</ele><time>2026-04-22T14:34:22.605Z</time></trkpt><trkpt lat="43.5645133" lon="13.2162067"><ele>174.0</ele><time>2026-04-22T14:34:23.605Z</time></trkpt><trkpt lat="43.564335" lon="13.2162583"><ele>172.0</ele><time>2026-04-22T14:34:24.605Z</time></trkpt><trkpt lat="43.564155" lon="13.2163183"><ele>170.0</ele><time>2026-04-22T14:34:25.606Z</time></trkpt><trkpt lat="43.5639717" lon="13.2163733"><ele>170.0</ele><time>2026-04-22T14:34:26.605Z</time></trkpt><trkpt lat="43.5637967" lon="13.216435"><ele>170.0</ele><time>2026-04-22T14:34:27.605Z</time></trkpt><trkpt lat="43.5636267" lon="13.2165"><ele>170.0</ele><time>2026-04-22T14:34:28.605Z</time></trkpt><trkpt lat="43.56346" lon="13.216565"><ele>171.33333333333331</ele><time>2026-04-22T14:34:29.605Z</time></trkpt><trkpt lat="43.5633033" lon="13.2166533"><ele>172.66666666666666</ele><time>2026-04-22T14:34:30.605Z</time></trkpt><trkpt lat="43.56316" lon="13.2167733"><ele>174.0</ele><time>2026-04-22T14:34:31.605Z</time></trkpt><trkpt lat="43.563015" lon="13.2169183"><ele>174.0</ele><time>2026-04-22T14:34:32.605Z</time></trkpt><trkpt lat="43.56288" lon="13.217075"><ele>174.0</ele><time>2026-04-22T14:34:33.605Z</time></trkpt><trkpt lat="43.56274" lon="13.2172417"><ele>174.0</ele><time>2026-04-22T14:34:34.605Z</time></trkpt><trkpt lat="43.5626083" lon="13.21741"><ele>172.66666666666666</ele><time>2026-04-22T14:34:35.606Z</time></trkpt><trkpt lat="43.5624667" lon="13.2175717"><ele>171.33333333333331</ele><time>2026-04-22T14:34:36.605Z</time></trkpt><trkpt lat="43.5623267" lon="13.217735"><ele>170.0</ele><time>2026-04-22T14:34:37.606Z</time></trkpt><trkpt lat="43.5621967" lon="13.2179017"><ele>170.0</ele><time>2026-04-22T14:34:38.605Z</time></trkpt><trkpt lat="43.5620583" lon="13.218065"><ele>170.0</ele><time>2026-04-22T14:34:39.605Z</time></trkpt><trkpt lat="43.5619167" lon="13.2182317"><ele>170.0</ele><time>2026-04-22T14:34:40.605Z</time></trkpt><trkpt lat="43.56178" lon="13.2183933"><ele>170.0</ele><time>2026-04-22T14:34:41.605Z</time></trkpt><trkpt lat="43.5616417" lon="13.218555"><ele>170.0</ele><time>2026-04-22T14:34:42.605Z</time></trkpt><trkpt lat="43.5614967" lon="13.2187383"><ele>170.0</ele><time>2026-04-22T14:34:43.605Z</time></trkpt><trkpt lat="43.5613483" lon="13.2189083"><ele>169.33333333333331</ele><time>2026-04-22T14:34:44.605Z</time></trkpt><trkpt lat="43.5612083" lon="13.219075"><ele>168.66666666666666</ele><time>2026-04-22T14:34:45.605Z</time></trkpt><trkpt lat="43.5610783" lon="13.219245"><ele>168.0</ele><time>2026-04-22T14:34:46.605Z</time></trkpt><trkpt lat="43.560945" lon="13.2194133"><ele>170.0</ele><time>2026-04-22T14:34:47.605Z</time></trkpt><trkpt lat="43.5608117" lon="13.2195733"><ele>172.0</ele><time>2026-04-22T14:34:48.605Z</time></trkpt><trkpt lat="43.5606633" lon="13.21973"><ele>174.0</ele><time>2026-04-22T14:34:49.605Z</time></trkpt><trkpt lat="43.560525" lon="13.2198967"><ele>174.0</ele><time>2026-04-22T14:34:50.605Z</time></trkpt><trkpt lat="43.560395" lon="13.2200617"><ele>174.0</ele><time>2026-04-22T14:34:51.606Z</time></trkpt><trkpt lat="43.5602667" lon="13.220225"><ele>174.0</ele><time>2026-04-22T14:34:52.606Z</time></trkpt><trkpt lat="43.56014" lon="13.220405"><ele>174.33333333333334</ele><time>2026-04-22T14:34:53.605Z</time></trkpt><trkpt lat="43.5600233" lon="13.2205817"><ele>174.66666666666669</ele><time>2026-04-22T14:34:54.605Z</time></trkpt><trkpt lat="43.5599067" lon="13.2207683"><ele>175.0</ele><time>2026-04-22T14:34:55.605Z</time></trkpt><trkpt lat="43.559795" lon="13.220955"><ele>175.0</ele><time>2026-04-22T14:34:56.605Z</time></trkpt><trkpt lat="43.55968" lon="13.2211367"><ele>175.0</ele><time>2026-04-22T14:34:57.606Z</time></trkpt><trkpt lat="43.5595683" lon="13.2213133"><ele>175.0</ele><time>2026-04-22T14:34:58.605Z</time></trkpt><trkpt lat="43.5594583" lon="13.2214833"><ele>174.5</ele><time>2026-04-22T14:34:59.605Z</time></trkpt><trkpt lat="43.5593567" lon="13.2216367"><ele>174.0</ele><time>2026-04-22T14:35:00.605Z</time></trkpt><trkpt lat="43.559255" lon="13.2217967"><ele>173.5</ele><time>2026-04-22T14:35:01.605Z</time></trkpt><trkpt lat="43.5591633" lon="13.2219467"><ele>173.0</ele><time>2026-04-22T14:35:02.605Z</time></trkpt><trkpt lat="43.559075" lon="13.222085"><ele>173.0</ele><time>2026-04-22T14:35:03.605Z</time></trkpt><trkpt lat="43.558995" lon="13.2222183"><ele>173.0</ele><time>2026-04-22T14:35:04.605Z</time></trkpt><trkpt lat="43.5589233" lon="13.2223417"><ele>173.0</ele><time>2026-04-22T14:35:05.605Z</time></trkpt><trkpt lat="43.5588517" lon="13.2224533"><ele>173.0</ele><time>2026-04-22T14:35:06.605Z</time></trkpt><trkpt lat="43.5587867" lon="13.2225533"><ele>173.0</ele><time>2026-04-22T14:35:07.605Z</time></trkpt><trkpt lat="43.55876" lon="13.222675"><ele>173.66666666666666</ele><time>2026-04-22T14:35:08.605Z</time></trkpt><trkpt lat="43.5587417" lon="13.2227867"><ele>174.33333333333331</ele><time>2026-04-22T14:35:09.606Z</time></trkpt><trkpt lat="43.5587483" lon="13.2229033"><ele>175.0</ele><time>2026-04-22T14:35:10.605Z</time></trkpt><trkpt lat="43.55875" lon="13.2230233"><ele>175.66666666666666</ele><time>2026-04-22T14:35:11.606Z</time></trkpt><trkpt lat="43.5587233" lon="13.2231383"><ele>176.33333333333334</ele><time>2026-04-22T14:35:12.605Z</time></trkpt><trkpt lat="43.55866" lon="13.223255"><ele>177.0</ele><time>2026-04-22T14:35:13.605Z</time></trkpt><trkpt lat="43.5585633" lon="13.2233733"><ele>178.75</ele><time>2026-04-22T14:35:14.606Z</time></trkpt><trkpt lat="43.5584483" lon="13.2234783"><ele>180.5</ele><time>2026-04-22T14:35:15.606Z</time></trkpt><trkpt lat="43.5583233" lon="13.2235467"><ele>182.25</ele><time>2026-04-22T14:35:16.605Z</time></trkpt><trkpt lat="43.5581933" lon="13.2236017"><ele>184.0</ele><time>2026-04-22T14:35:17.606Z</time></trkpt><trkpt lat="43.5580483" lon="13.223645"><ele>184.0</ele><time>2026-04-22T14:35:18.605Z</time></trkpt><trkpt lat="43.557905" lon="13.2236817"><ele>184.0</ele><time>2026-04-22T14:35:19.605Z</time></trkpt><trkpt lat="43.5577567" lon="13.223735"><ele>184.0</ele><time>2026-04-22T14:35:20.605Z</time></trkpt><trkpt lat="43.557615" lon="13.22381"><ele>185.75</ele><time>2026-04-22T14:35:21.606Z</time></trkpt><trkpt lat="43.5574917" lon="13.2239017"><ele>187.5</ele><time>2026-04-22T14:35:22.605Z</time></trkpt><trkpt lat="43.55739" lon="13.2240233"><ele>189.25</ele><time>2026-04-22T14:35:23.605Z</time></trkpt><trkpt lat="43.5573033" lon="13.224175"><ele>191.0</ele><time>2026-04-22T14:35:24.605Z</time></trkpt><trkpt lat="43.5572417" lon="13.2243333"><ele>191.25</ele><time>2026-04-22T14:35:25.605Z</time></trkpt><trkpt lat="43.5571867" lon="13.2245167"><ele>191.5</ele><time>2026-04-22T14:35:26.605Z</time></trkpt><trkpt lat="43.55713" lon="13.2247083"><ele>191.75</ele><time>2026-04-22T14:35:27.605Z</time></trkpt><trkpt lat="43.55708" lon="13.2249117"><ele>192.0</ele><time>2026-04-22T14:35:28.605Z</time></trkpt><trkpt lat="43.5570067" lon="13.2251033"><ele>192.0</ele><time>2026-04-22T14:35:29.605Z</time></trkpt><trkpt lat="43.5569533" lon="13.225305"><ele>192.0</ele><time>2026-04-22T14:35:30.605Z</time></trkpt><trkpt lat="43.556905" lon="13.2254967"><ele>192.0</ele><time>2026-04-22T14:35:31.605Z</time></trkpt><trkpt lat="43.55686" lon="13.2257"><ele>189.66666666666666</ele><time>2026-04-22T14:35:32.605Z</time></trkpt><trkpt lat="43.5568267" lon="13.2258983"><ele>187.33333333333331</ele><time>2026-04-22T14:35:33.605Z</time></trkpt><trkpt lat="43.5567917" lon="13.2261083"><ele>185.0</ele><time>2026-04-22T14:35:34.605Z</time></trkpt><trkpt lat="43.556745" lon="13.22632"><ele>183.0</ele><time>2026-04-22T14:35:35.605Z</time></trkpt><trkpt lat="43.5567083" lon="13.226555"><ele>181.0</ele><time>2026-04-22T14:35:36.605Z</time></trkpt><trkpt lat="43.55667" lon="13.2267933"><ele>179.0</ele><time>2026-04-22T14:35:37.606Z</time></trkpt><trkpt lat="43.5566333" lon="13.2270383"><ele>179.0</ele><time>2026-04-22T14:35:38.605Z</time></trkpt><trkpt lat="43.5565933" lon="13.2272833"><ele>179.0</ele><time>2026-04-22T14:35:39.605Z</time></trkpt><trkpt lat="43.5565617" lon="13.2275267"><ele>179.0</ele><time>2026-04-22T14:35:40.606Z</time></trkpt><trkpt lat="43.5565217" lon="13.22777"><ele>177.33333333333331</ele><time>2026-04-22T14:35:41.606Z</time></trkpt><trkpt lat="43.55648" lon="13.2280067"><ele>175.66666666666666</ele><time>2026-04-22T14:35:42.605Z</time></trkpt><trkpt lat="43.556445" lon="13.2282483"><ele>174.0</ele><time>2026-04-22T14:35:43.605Z</time></trkpt><trkpt lat="43.55641" lon="13.2284817"><ele>173.33333333333334</ele><time>2026-04-22T14:35:44.605Z</time></trkpt><trkpt lat="43.5563767" lon="13.22871"><ele>172.66666666666669</ele><time>2026-04-22T14:35:45.605Z</time></trkpt><trkpt lat="43.55636" lon="13.2289417"><ele>172.0</ele><time>2026-04-22T14:35:46.606Z</time></trkpt><trkpt lat="43.556345" lon="13.2291717"><ele>171.66666666666669</ele><time>2026-04-22T14:35:47.605Z</time></trkpt><trkpt lat="43.55634" lon="13.2293933"><ele>171.33333333333334</ele><time>2026-04-22T14:35:48.606Z</time></trkpt><trkpt lat="43.5563383" lon="13.2296167"><ele>171.0</ele><time>2026-04-22T14:35:49.605Z</time></trkpt><trkpt lat="43.5563433" lon="13.2298333"><ele>170.0</ele><time>2026-04-22T14:35:50.605Z</time></trkpt><trkpt lat="43.55634" lon="13.2300533"><ele>169.0</ele><time>2026-04-22T14:35:51.605Z</time></trkpt><trkpt lat="43.5563283" lon="13.2302733"><ele>168.0</ele><time>2026-04-22T14:35:52.605Z</time></trkpt><trkpt lat="43.55631" lon="13.2305"><ele>168.66666666666666</ele><time>2026-04-22T14:35:53.605Z</time></trkpt><trkpt lat="43.556275" lon="13.2307267"><ele>169.33333333333331</ele><time>2026-04-22T14:35:54.605Z</time></trkpt><trkpt lat="43.5562267" lon="13.23094"><ele>170.0</ele><time>2026-04-22T14:35:55.606Z</time></trkpt><trkpt lat="43.556165" lon="13.2311717"><ele>175.0</ele><time>2026-04-22T14:35:56.605Z</time></trkpt><trkpt lat="43.5561" lon="13.2314083"><ele>180.0</ele><time>2026-04-22T14:35:57.605Z</time></trkpt><trkpt lat="43.556045" lon="13.231645"><ele>185.0</ele><time>2026-04-22T14:35:58.605Z</time></trkpt><trkpt lat="43.5559817" lon="13.231875"><ele>185.0</ele><time>2026-04-22T14:35:59.605Z</time></trkpt><trkpt lat="43.5559267" lon="13.232105"><ele>185.0</ele><time>2026-04-22T14:36:00.605Z</time></trkpt><trkpt lat="43.55588" lon="13.2323383"><ele>185.0</ele><time>2026-04-22T14:36:01.606Z</time></trkpt><trkpt lat="43.5558367" lon="13.2325717"><ele>185.66666666666666</ele><time>2026-04-22T14:36:02.605Z</time></trkpt><trkpt lat="43.555805" lon="13.232805"><ele>186.33333333333334</ele><time>2026-04-22T14:36:03.605Z</time></trkpt><trkpt lat="43.555795" lon="13.2330367"><ele>187.0</ele><time>2026-04-22T14:36:04.605Z</time></trkpt><trkpt lat="43.5557983" lon="13.2332633"><ele>188.66666666666669</ele><time>2026-04-22T14:36:05.605Z</time></trkpt><trkpt lat="43.5558167" lon="13.23349"><ele>190.33333333333334</ele><time>2026-04-22T14:36:06.605Z</time></trkpt><trkpt lat="43.5558383" lon="13.23372"><ele>192.0</ele><time>2026-04-22T14:36:07.605Z</time></trkpt><trkpt lat="43.5558633" lon="13.2339433"><ele>193.66666666666669</ele><time>2026-04-22T14:36:08.605Z</time></trkpt><trkpt lat="43.5558917" lon="13.2341717"><ele>195.33333333333334</ele><time>2026-04-22T14:36:09.606Z</time></trkpt><trkpt lat="43.5559183" lon="13.2343983"><ele>197.0</ele><time>2026-04-22T14:36:10.605Z</time></trkpt><trkpt lat="43.5559417" lon="13.23462"><ele>200.33333333333334</ele><time>2026-04-22T14:36:11.605Z</time></trkpt><trkpt lat="43.55597" lon="13.2348533"><ele>203.66666666666669</ele><time>2026-04-22T14:36:12.605Z</time></trkpt><trkpt lat="43.5560033" lon="13.235095"><ele>207.0</ele><time>2026-04-22T14:36:13.605Z</time></trkpt><trkpt lat="43.5560233" lon="13.2353267"><ele>207.0</ele><time>2026-04-22T14:36:14.605Z</time></trkpt><trkpt lat="43.55605" lon="13.2355567"><ele>207.0</ele><time>2026-04-22T14:36:15.605Z</time></trkpt><trkpt lat="43.5560617" lon="13.2357867"><ele>207.0</ele><time>2026-04-22T14:36:16.605Z</time></trkpt><trkpt lat="43.5560617" lon="13.2360167"><ele>208.5</ele><time>2026-04-22T14:36:17.605Z</time></trkpt><trkpt lat="43.55605" lon="13.2362333"><ele>210.0</ele><time>2026-04-22T14:36:18.605Z</time></trkpt><trkpt lat="43.5560383" lon="13.2364433"><ele>211.5</ele><time>2026-04-22T14:36:19.605Z</time></trkpt><trkpt lat="43.5560167" lon="13.2366267"><ele>213.0</ele><time>2026-04-22T14:36:20.606Z</time></trkpt><trkpt lat="43.5560067" lon="13.2368"><ele>213.0</ele><time>2026-04-22T14:36:21.605Z</time></trkpt><trkpt lat="43.5560083" lon="13.2369633"><ele>213.0</ele><time>2026-04-22T14:36:22.605Z</time></trkpt><trkpt lat="43.5560333" lon="13.237135"><ele>213.0</ele><time>2026-04-22T14:36:23.605Z</time></trkpt><trkpt lat="43.556065" lon="13.23731"><ele>213.0</ele><time>2026-04-22T14:36:24.606Z</time></trkpt><trkpt lat="43.5561133" lon="13.2374867"><ele>212.25</ele><time>2026-04-22T14:36:25.606Z</time></trkpt><trkpt lat="43.5561633" lon="13.237675"><ele>211.5</ele><time>2026-04-22T14:36:26.605Z</time></trkpt><trkpt lat="43.556215" lon="13.2378583"><ele>210.75</ele><time>2026-04-22T14:36:27.606Z</time></trkpt><trkpt lat="43.5562733" lon="13.2380383"><ele>210.0</ele><time>2026-04-22T14:36:28.605Z</time></trkpt><trkpt lat="43.5563367" lon="13.238215"><ele>210.0</ele><time>2026-04-22T14:36:29.605Z</time></trkpt><trkpt lat="43.5564133" lon="13.2384"><ele>210.0</ele><time>2026-04-22T14:36:30.605Z</time></trkpt><trkpt lat="43.556505" lon="13.23857"><ele>210.0</ele><time>2026-04-22T14:36:31.605Z</time></trkpt><trkpt lat="43.5565983" lon="13.2387367"><ele>210.0</ele><time>2026-04-22T14:36:32.605Z</time></trkpt><trkpt lat="43.5567017" lon="13.238905"><ele>210.0</ele><time>2026-04-22T14:36:33.606Z</time></trkpt><trkpt lat="43.5568133" lon="13.2390617"><ele>210.0</ele><time>2026-04-22T14:36:34.605Z</time></trkpt><trkpt lat="43.556925" lon="13.2392083"><ele>209.5</ele><time>2026-04-22T14:36:35.605Z</time></trkpt><trkpt lat="43.5570317" lon="13.2393583"><ele>209.0</ele><time>2026-04-22T14:36:36.606Z</time></trkpt><trkpt lat="43.557135" lon="13.239505"><ele>208.5</ele><time>2026-04-22T14:36:37.606Z</time></trkpt><trkpt lat="43.55723" lon="13.2396483"><ele>208.0</ele><time>2026-04-22T14:36:38.605Z</time></trkpt><trkpt lat="43.557335" lon="13.2397883"><ele>209.75</ele><time>2026-04-22T14:36:39.605Z</time></trkpt><trkpt lat="43.5574383" lon="13.2399317"><ele>211.5</ele><time>2026-04-22T14:36:40.605Z</time></trkpt><trkpt lat="43.55755" lon="13.2400683"><ele>213.25</ele><time>2026-04-22T14:36:41.605Z</time></trkpt><trkpt lat="43.5576617" lon="13.240205"><ele>215.0</ele><time>2026-04-22T14:36:42.605Z</time></trkpt><trkpt lat="43.55777" lon="13.2403367"><ele>216.0</ele><time>2026-04-22T14:36:43.606Z</time></trkpt><trkpt lat="43.5578983" lon="13.24046"><ele>217.0</ele><time>2026-04-22T14:36:44.605Z</time></trkpt><trkpt lat="43.5580183" lon="13.24058"><ele>218.0</ele><time>2026-04-22T14:36:45.605Z</time></trkpt><trkpt lat="43.5581333" lon="13.2407033"><ele>218.0</ele><time>2026-04-22T14:36:46.605Z</time></trkpt><trkpt lat="43.5582633" lon="13.2408133"><ele>218.0</ele><time>2026-04-22T14:36:47.605Z</time></trkpt><trkpt lat="43.55837" lon="13.240925"><ele>218.0</ele><time>2026-04-22T14:36:48.606Z</time></trkpt><trkpt lat="43.5584667" lon="13.2410567"><ele>218.0</ele><time>2026-04-22T14:36:49.605Z</time></trkpt><trkpt lat="43.5585617" lon="13.241205"><ele>218.0</ele><time>2026-04-22T14:36:50.605Z</time></trkpt><trkpt lat="43.5586617" lon="13.24137"><ele>218.0</ele><time>2026-04-22T14:36:51.605Z</time></trkpt><trkpt lat="43.5587633" lon="13.2415417"><ele>218.0</ele><time>2026-04-22T14:36:52.605Z</time></trkpt><trkpt lat="43.5588567" lon="13.2417267"><ele>215.0</ele><time>2026-04-22T14:36:53.605Z</time></trkpt><trkpt lat="43.5589633" lon="13.2419033"><ele>212.0</ele><time>2026-04-22T14:36:54.605Z</time></trkpt><trkpt lat="43.5590733" lon="13.24208"><ele>209.0</ele><time>2026-04-22T14:36:55.605Z</time></trkpt><trkpt lat="43.559175" lon="13.2422533"><ele>208.0</ele><time>2026-04-22T14:36:56.605Z</time></trkpt><trkpt lat="43.5592817" lon="13.2424267"><ele>207.0</ele><time>2026-04-22T14:36:57.605Z</time></trkpt><trkpt lat="43.5593867" lon="13.2426083"><ele>206.0</ele><time>2026-04-22T14:36:58.605Z</time></trkpt><trkpt lat="43.5594833" lon="13.2427833"><ele>205.0</ele><time>2026-04-22T14:36:59.605Z</time></trkpt><trkpt lat="43.55958" lon="13.2429667"><ele>204.0</ele><time>2026-04-22T14:37:00.605Z</time></trkpt><trkpt lat="43.5596867" lon="13.2431367"><ele>203.0</ele><time>2026-04-22T14:37:01.604Z</time></trkpt><trkpt lat="43.5597933" lon="13.2433183"><ele>203.0</ele><time>2026-04-22T14:37:02.604Z</time></trkpt><trkpt lat="43.5599033" lon="13.2435067"><ele>203.0</ele><time>2026-04-22T14:37:03.604Z</time></trkpt><trkpt lat="43.5600133" lon="13.2436767"><ele>203.0</ele><time>2026-04-22T14:37:04.604Z</time></trkpt><trkpt lat="43.5601217" lon="13.243845"><ele>202.66666666666669</ele><time>2026-04-22T14:37:05.605Z</time></trkpt><trkpt lat="43.5602317" lon="13.24401"><ele>202.33333333333331</ele><time>2026-04-22T14:37:06.605Z</time></trkpt><trkpt lat="43.5603367" lon="13.24417"><ele>202.0</ele><time>2026-04-22T14:37:07.604Z</time></trkpt><trkpt lat="43.56044" lon="13.2443283"><ele>201.33333333333331</ele><time>2026-04-22T14:37:08.604Z</time></trkpt><trkpt lat="43.56054" lon="13.2444867"><ele>200.66666666666669</ele><time>2026-04-22T14:37:09.604Z</time></trkpt><trkpt lat="43.56064" lon="13.2446583"><ele>200.0</ele><time>2026-04-22T14:37:10.604Z</time></trkpt><trkpt lat="43.5607417" lon="13.2448167"><ele>201.33333333333334</ele><time>2026-04-22T14:37:11.604Z</time></trkpt><trkpt lat="43.56084" lon="13.2449783"><ele>202.66666666666669</ele><time>2026-04-22T14:37:12.604Z</time></trkpt><trkpt lat="43.5609333" lon="13.245145"><ele>204.0</ele><time>2026-04-22T14:37:13.604Z</time></trkpt><trkpt lat="43.5610383" lon="13.245315"><ele>204.0</ele><time>2026-04-22T14:37:14.604Z</time></trkpt><trkpt lat="43.5611467" lon="13.2454967"><ele>204.0</ele><time>2026-04-22T14:37:15.604Z</time></trkpt><trkpt lat="43.56125" lon="13.2456883"><ele>204.0</ele><time>2026-04-22T14:37:16.604Z</time></trkpt><trkpt lat="43.561355" lon="13.245885"><ele>204.66666666666669</ele><time>2026-04-22T14:37:17.604Z</time></trkpt><trkpt lat="43.561455" lon="13.2460717"><ele>205.33333333333334</ele><time>2026-04-22T14:37:18.604Z</time></trkpt><trkpt lat="43.56155" lon="13.246255"><ele>206.0</ele><time>2026-04-22T14:37:19.605Z</time></trkpt><trkpt lat="43.5616417" lon="13.246435"><ele>205.5</ele><time>2026-04-22T14:37:20.604Z</time></trkpt><trkpt lat="43.5617333" lon="13.2466067"><ele>205.0</ele><time>2026-04-22T14:37:21.604Z</time></trkpt><trkpt lat="43.5618183" lon="13.24677"><ele>204.5</ele><time>2026-04-22T14:37:22.604Z</time></trkpt><trkpt lat="43.56191" lon="13.2469283"><ele>204.0</ele><time>2026-04-22T14:37:23.604Z</time></trkpt><trkpt lat="43.5619933" lon="13.2470883"><ele>202.75</ele><time>2026-04-22T14:37:24.604Z</time></trkpt><trkpt lat="43.5620733" lon="13.2472367"><ele>201.5</ele><time>2026-04-22T14:37:25.604Z</time></trkpt><trkpt lat="43.5621467" lon="13.24739"><ele>200.25</ele><time>2026-04-22T14:37:26.604Z</time></trkpt><trkpt lat="43.5622183" lon="13.24753"><ele>199.0</ele><time>2026-04-22T14:37:27.604Z</time></trkpt><trkpt lat="43.5622933" lon="13.2476583"><ele>199.0</ele><time>2026-04-22T14:37:28.604Z</time></trkpt><trkpt lat="43.562375" lon="13.2477667"><ele>199.0</ele><time>2026-04-22T14:37:29.604Z</time></trkpt><trkpt lat="43.562445" lon="13.24787"><ele>199.0</ele><time>2026-04-22T14:37:30.604Z</time></trkpt><trkpt lat="43.5625233" lon="13.2479517"><ele>199.0</ele><time>2026-04-22T14:37:31.604Z</time></trkpt><trkpt lat="43.5626117" lon="13.2480133"><ele>199.0</ele><time>2026-04-22T14:37:32.604Z</time></trkpt><trkpt lat="43.5627067" lon="13.2480383"><ele>199.0</ele><time>2026-04-22T14:37:33.604Z</time></trkpt><trkpt lat="43.56281" lon="13.248045"><ele>199.0</ele><time>2026-04-22T14:37:34.604Z</time></trkpt><trkpt lat="43.5629033" lon="13.2480517"><ele>199.0</ele><time>2026-04-22T14:37:35.605Z</time></trkpt><trkpt lat="43.563005" lon="13.2480717"><ele>199.0</ele><time>2026-04-22T14:37:36.605Z</time></trkpt><trkpt lat="43.5630967" lon="13.2481333"><ele>199.0</ele><time>2026-04-22T14:37:37.604Z</time></trkpt><trkpt lat="43.56318" lon="13.2482133"><ele>196.79999999999998</ele><time>2026-04-22T14:37:38.604Z</time></trkpt><trkpt lat="43.5632467" lon="13.2483167"><ele>194.6</ele><time>2026-04-22T14:37:39.604Z</time></trkpt><trkpt lat="43.5633117" lon="13.2484333"><ele>192.4</ele><time>2026-04-22T14:37:40.604Z</time></trkpt><trkpt lat="43.5633783" lon="13.248555"><ele>190.2</ele><time>2026-04-22T14:37:41.604Z</time></trkpt><trkpt lat="43.5634433" lon="13.2486767"><ele>188.0</ele><time>2026-04-22T14:37:42.604Z</time></trkpt><trkpt lat="43.563515" lon="13.24881"><ele>188.0</ele><time>2026-04-22T14:37:43.605Z</time></trkpt><trkpt lat="43.563595" lon="13.2489433"><ele>188.0</ele><time>2026-04-22T14:37:44.604Z</time></trkpt><trkpt lat="43.56367" lon="13.2490833"><ele>188.0</ele><time>2026-04-22T14:37:45.604Z</time></trkpt><trkpt lat="43.5637433" lon="13.2492267"><ele>188.0</ele><time>2026-04-22T14:37:46.604Z</time></trkpt><trkpt lat="43.5638167" lon="13.2493617"><ele>186.0</ele><time>2026-04-22T14:37:47.604Z</time></trkpt><trkpt lat="43.5638867" lon="13.249495"><ele>184.0</ele><time>2026-04-22T14:37:48.604Z</time></trkpt><trkpt lat="43.5639733" lon="13.2495967"><ele>182.0</ele><time>2026-04-22T14:37:49.604Z</time></trkpt><trkpt lat="43.564075" lon="13.24967"><ele>180.0</ele><time>2026-04-22T14:37:50.604Z</time></trkpt><trkpt lat="43.5641917" lon="13.24972"><ele>180.0</ele><time>2026-04-22T14:37:51.604Z</time></trkpt><trkpt lat="43.5642883" lon="13.2497783"><ele>180.0</ele><time>2026-04-22T14:37:52.604Z</time></trkpt><trkpt lat="43.5643833" lon="13.2498667"><ele>180.0</ele><time>2026-04-22T14:37:53.604Z</time></trkpt><trkpt lat="43.5644517" lon="13.2499733"><ele>180.0</ele><time>2026-04-22T14:37:54.604Z</time></trkpt><trkpt lat="43.5645033" lon="13.2501183"><ele>180.0</ele><time>2026-04-22T14:37:55.604Z</time></trkpt><trkpt lat="43.56453" lon="13.250285"><ele>180.5</ele><time>2026-04-22T14:37:56.604Z</time></trkpt><trkpt lat="43.5645283" lon="13.250455"><ele>181.0</ele><time>2026-04-22T14:37:57.605Z</time></trkpt><trkpt lat="43.5645017" lon="13.2506283"><ele>181.5</ele><time>2026-04-22T14:37:58.605Z</time></trkpt><trkpt lat="43.5644567" lon="13.250795"><ele>182.0</ele><time>2026-04-22T14:37:59.604Z</time></trkpt><trkpt lat="43.564415" lon="13.25097"><ele>182.0</ele><time>2026-04-22T14:38:00.605Z</time></trkpt><trkpt lat="43.5643783" lon="13.2511417"><ele>182.0</ele><time>2026-04-22T14:38:01.604Z</time></trkpt><trkpt lat="43.564345" lon="13.251305"><ele>182.0</ele><time>2026-04-22T14:38:02.604Z</time></trkpt><trkpt lat="43.564325" lon="13.2514733"><ele>182.0</ele><time>2026-04-22T14:38:03.604Z</time></trkpt><trkpt lat="43.56432" lon="13.2516367"><ele>179.25</ele><time>2026-04-22T14:38:04.604Z</time></trkpt><trkpt lat="43.56434" lon="13.25181"><ele>176.5</ele><time>2026-04-22T14:38:05.604Z</time></trkpt><trkpt lat="43.56437" lon="13.2519783"><ele>173.75</ele><time>2026-04-22T14:38:06.605Z</time></trkpt><trkpt lat="43.56441" lon="13.252135"><ele>171.0</ele><time>2026-04-22T14:38:07.604Z</time></trkpt><trkpt lat="43.564435" lon="13.2522983"><ele>170.0</ele><time>2026-04-22T14:38:08.604Z</time></trkpt><trkpt lat="43.564435" lon="13.252465"><ele>169.0</ele><time>2026-04-22T14:38:09.604Z</time></trkpt><trkpt lat="43.5644083" lon="13.2526033"><ele>168.0</ele><time>2026-04-22T14:38:10.604Z</time></trkpt><trkpt lat="43.5643583" lon="13.2527317"><ele>167.0</ele><time>2026-04-22T14:38:11.605Z</time></trkpt><trkpt lat="43.5642983" lon="13.2528533"><ele>166.0</ele><time>2026-04-22T14:38:12.604Z</time></trkpt><trkpt lat="43.5642333" lon="13.2529783"><ele>166.0</ele><time>2026-04-22T14:38:13.604Z</time></trkpt><trkpt lat="43.5641617" lon="13.2530983"><ele>166.0</ele><time>2026-04-22T14:38:14.604Z</time></trkpt><trkpt lat="43.564095" lon="13.2532117"><ele>166.0</ele><time>2026-04-22T14:38:15.604Z</time></trkpt><trkpt lat="43.564035" lon="13.2533267"><ele>166.0</ele><time>2026-04-22T14:38:16.604Z</time></trkpt><trkpt lat="43.5639833" lon="13.2534233"><ele>166.0</ele><time>2026-04-22T14:38:17.604Z</time></trkpt><trkpt lat="43.5639467" lon="13.2535283"><ele>165.4</ele><time>2026-04-22T14:38:18.604Z</time></trkpt><trkpt lat="43.563935" lon="13.2536433"><ele>164.8</ele><time>2026-04-22T14:38:19.604Z</time></trkpt><trkpt lat="43.5639583" lon="13.253765"><ele>164.20000000000002</ele><time>2026-04-22T14:38:20.604Z</time></trkpt><trkpt lat="43.5639967" lon="13.2538883"><ele>163.60000000000002</ele><time>2026-04-22T14:38:21.604Z</time></trkpt><trkpt lat="43.56404" lon="13.254025"><ele>163.0</ele><time>2026-04-22T14:38:22.605Z</time></trkpt><trkpt lat="43.564095" lon="13.2541467"><ele>162.0</ele><time>2026-04-22T14:38:23.604Z</time></trkpt><trkpt lat="43.564145" lon="13.254275"><ele>161.0</ele><time>2026-04-22T14:38:24.604Z</time></trkpt><trkpt lat="43.5641883" lon="13.2543983"><ele>160.0</ele><time>2026-04-22T14:38:25.605Z</time></trkpt><trkpt lat="43.564235" lon="13.2545267"><ele>159.0</ele><time>2026-04-22T14:38:26.604Z</time></trkpt><trkpt lat="43.5642767" lon="13.254655"><ele>158.0</ele><time>2026-04-22T14:38:27.605Z</time></trkpt><trkpt lat="43.56432" lon="13.2547817"><ele>157.0</ele><time>2026-04-22T14:38:28.604Z</time></trkpt><trkpt lat="43.5643583" lon="13.2548883"><ele>156.0</ele><time>2026-04-22T14:38:29.604Z</time></trkpt><trkpt lat="43.5643717" lon="13.25499"><ele>155.0</ele><time>2026-04-22T14:38:30.604Z</time></trkpt><trkpt lat="43.56436" lon="13.2550833"><ele>154.0</ele><time>2026-04-22T14:38:31.604Z</time></trkpt><trkpt lat="43.564305" lon="13.2551383"><ele>153.0</ele><time>2026-04-22T14:38:32.604Z</time></trkpt><trkpt lat="43.564225" lon="13.2551483"><ele>152.0</ele><time>2026-04-22T14:38:33.604Z</time></trkpt><trkpt lat="43.5641467" lon="13.2551217"><ele>152.0</ele><time>2026-04-22T14:38:34.604Z</time></trkpt><trkpt lat="43.5640533" lon="13.2550633"><ele>152.0</ele><time>2026-04-22T14:38:35.605Z</time></trkpt><trkpt lat="43.5639467" lon="13.2550067"><ele>152.0</ele><time>2026-04-22T14:38:36.604Z</time></trkpt><trkpt lat="43.5638517" lon="13.2549667"><ele>152.0</ele><time>2026-04-22T14:38:37.604Z</time></trkpt><trkpt lat="43.5637717" lon="13.2549633"><ele>152.0</ele><time>2026-04-22T14:38:38.604Z</time></trkpt><trkpt lat="43.5637033" lon="13.254995"><ele>152.0</ele><time>2026-04-22T14:38:39.604Z</time></trkpt><trkpt lat="43.56365" lon="13.25505"><ele>152.0</ele><time>2026-04-22T14:38:40.604Z</time></trkpt><trkpt lat="43.5636217" lon="13.2551417"><ele>152.0</ele><time>2026-04-22T14:38:41.605Z</time></trkpt><trkpt lat="43.5636383" lon="13.255255"><ele>152.0</ele><time>2026-04-22T14:38:42.605Z</time></trkpt><trkpt lat="43.563675" lon="13.2553633"><ele>152.0</ele><time>2026-04-22T14:38:43.604Z</time></trkpt><trkpt lat="43.563725" lon="13.255475"><ele>152.0</ele><time>2026-04-22T14:38:44.604Z</time></trkpt><trkpt lat="43.5637667" lon="13.2555967"><ele>150.6</ele><time>2026-04-22T14:38:45.605Z</time></trkpt><trkpt lat="43.5638117" lon="13.2557217"><ele>149.2</ele><time>2026-04-22T14:38:46.604Z</time></trkpt><trkpt lat="43.5638617" lon="13.2558383"><ele>147.8</ele><time>2026-04-22T14:38:47.604Z</time></trkpt><trkpt lat="43.5639" lon="13.2559633"><ele>146.4</ele><time>2026-04-22T14:38:48.604Z</time></trkpt><trkpt lat="43.5639467" lon="13.256105"><ele>145.0</ele><time>2026-04-22T14:38:49.604Z</time></trkpt><trkpt lat="43.5639917" lon="13.2562533"><ele>145.0</ele><time>2026-04-22T14:38:50.605Z</time></trkpt><trkpt lat="43.5640283" lon="13.2564"><ele>145.0</ele><time>2026-04-22T14:38:51.604Z</time></trkpt><trkpt lat="43.5640567" lon="13.2565383"><ele>145.0</ele><time>2026-04-22T14:38:52.604Z</time></trkpt><trkpt lat="43.5640783" lon="13.2566717"><ele>145.0</ele><time>2026-04-22T14:38:53.604Z</time></trkpt><trkpt lat="43.5641" lon="13.2568"><ele>145.0</ele><time>2026-04-22T14:38:54.604Z</time></trkpt><trkpt lat="43.5641133" lon="13.256945"><ele>143.8</ele><time>2026-04-22T14:38:55.605Z</time></trkpt><trkpt lat="43.56413" lon="13.25708"><ele>142.6</ele><time>2026-04-22T14:38:56.604Z</time></trkpt><trkpt lat="43.5641617" lon="13.25721"><ele>141.4</ele><time>2026-04-22T14:38:57.604Z</time></trkpt><trkpt lat="43.56421" lon="13.2573433"><ele>140.2</ele><time>2026-04-22T14:38:58.604Z</time></trkpt><trkpt lat="43.56426" lon="13.2574833"><ele>139.0</ele><time>2026-04-22T14:38:59.604Z</time></trkpt><trkpt lat="43.5643233" lon="13.2576217"><ele>138.25</ele><time>2026-04-22T14:39:00.605Z</time></trkpt><trkpt lat="43.5643967" lon="13.2577517"><ele>137.5</ele><time>2026-04-22T14:39:01.604Z</time></trkpt><trkpt lat="43.5644817" lon="13.2578767"><ele>136.75</ele><time>2026-04-22T14:39:02.605Z</time></trkpt><trkpt lat="43.5645733" lon="13.258"><ele>136.0</ele><time>2026-04-22T14:39:03.604Z</time></trkpt><trkpt lat="43.56466" lon="13.2581133"><ele>134.0</ele><time>2026-04-22T14:39:04.604Z</time></trkpt><trkpt lat="43.5647467" lon="13.2582267"><ele>132.0</ele><time>2026-04-22T14:39:05.604Z</time></trkpt><trkpt lat="43.5648283" lon="13.25835"><ele>130.0</ele><time>2026-04-22T14:39:06.604Z</time></trkpt><trkpt lat="43.56491" lon="13.2584617"><ele>128.0</ele><time>2026-04-22T14:39:07.604Z</time></trkpt><trkpt lat="43.5649817" lon="13.2585733"><ele>128.0</ele><time>2026-04-22T14:39:08.604Z</time></trkpt><trkpt lat="43.5650483" lon="13.2586867"><ele>128.0</ele><time>2026-04-22T14:39:09.604Z</time></trkpt><trkpt lat="43.5651017" lon="13.258815"><ele>128.0</ele><time>2026-04-22T14:39:10.605Z</time></trkpt><trkpt lat="43.5651317" lon="13.2589633"><ele>128.0</ele><time>2026-04-22T14:39:11.604Z</time></trkpt><trkpt lat="43.5651267" lon="13.2591233"><ele>128.0</ele><time>2026-04-22T14:39:12.604Z</time></trkpt><trkpt lat="43.5650933" lon="13.25928"><ele>125.75</ele><time>2026-04-22T14:39:13.604Z</time></trkpt><trkpt lat="43.5650333" lon="13.259425"><ele>123.5</ele><time>2026-04-22T14:39:14.604Z</time></trkpt><trkpt lat="43.5649617" lon="13.25957"><ele>121.25</ele><time>2026-04-22T14:39:15.604Z</time></trkpt><trkpt lat="43.5648967" lon="13.2597117"><ele>119.0</ele><time>2026-04-22T14:39:16.605Z</time></trkpt><trkpt lat="43.564835" lon="13.2598567"><ele>117.75</ele><time>2026-04-22T14:39:17.604Z</time></trkpt><trkpt lat="43.5647683" lon="13.2599983"><ele>116.5</ele><time>2026-04-22T14:39:18.604Z</time></trkpt><trkpt lat="43.564705" lon="13.2601367"><ele>115.25</ele><time>2026-04-22T14:39:19.604Z</time></trkpt><trkpt lat="43.56464" lon="13.26027"><ele>114.0</ele><time>2026-04-22T14:39:20.604Z</time></trkpt><trkpt lat="43.5645867" lon="13.260405"><ele>114.0</ele><time>2026-04-22T14:39:21.604Z</time></trkpt><trkpt lat="43.56453" lon="13.2605417"><ele>114.0</ele><time>2026-04-22T14:39:22.604Z</time></trkpt><trkpt lat="43.5644667" lon="13.26066"><ele>114.0</ele><time>2026-04-22T14:39:23.604Z</time></trkpt><trkpt lat="43.5644083" lon="13.2607683"><ele>114.0</ele><time>2026-04-22T14:39:24.604Z</time></trkpt><trkpt lat="43.5643583" lon="13.2608567"><ele>114.0</ele><time>2026-04-22T14:39:25.604Z</time></trkpt><trkpt lat="43.5643017" lon="13.2609367"><ele>113.16666666666667</ele><time>2026-04-22T14:39:26.605Z</time></trkpt><trkpt lat="43.5642567" lon="13.2610017"><ele>112.33333333333334</ele><time>2026-04-22T14:39:27.604Z</time></trkpt><trkpt lat="43.5641633" lon="13.2611183"><ele>111.5</ele><time>2026-04-22T14:39:29.605Z</time></trkpt><trkpt lat="43.5641033" lon="13.2611783"><ele>110.66666666666667</ele><time>2026-04-22T14:39:30.605Z</time></trkpt><trkpt lat="43.5640417" lon="13.2612517"><ele>109.83333333333334</ele><time>2026-04-22T14:39:31.604Z</time></trkpt><trkpt lat="43.56397" lon="13.2613217"><ele>109.0</ele><time>2026-04-22T14:39:32.604Z</time></trkpt><trkpt lat="43.563895" lon="13.261395"><ele>108.5</ele><time>2026-04-22T14:39:33.604Z</time></trkpt><trkpt lat="43.5638067" lon="13.261475"><ele>108.0</ele><time>2026-04-22T14:39:34.604Z</time></trkpt><trkpt lat="43.5637" lon="13.261555"><ele>107.5</ele><time>2026-04-22T14:39:35.604Z</time></trkpt><trkpt lat="43.5635933" lon="13.26163"><ele>107.0</ele><time>2026-04-22T14:39:36.604Z</time></trkpt><trkpt lat="43.563495" lon="13.2617233"><ele>106.5</ele><time>2026-04-22T14:39:37.604Z</time></trkpt><trkpt lat="43.5633817" lon="13.261815"><ele>106.0</ele><time>2026-04-22T14:39:38.604Z</time></trkpt><trkpt lat="43.56328" lon="13.2618933"><ele>105.5</ele><time>2026-04-22T14:39:39.604Z</time></trkpt><trkpt lat="43.5631733" lon="13.261975"><ele>105.0</ele><time>2026-04-22T14:39:40.604Z</time></trkpt><trkpt lat="43.5630567" lon="13.2620483"><ele>105.0</ele><time>2026-04-22T14:39:41.604Z</time></trkpt><trkpt lat="43.5629433" lon="13.2621333"><ele>105.0</ele><time>2026-04-22T14:39:42.604Z</time></trkpt><trkpt lat="43.5628383" lon="13.2622133"><ele>105.0</ele><time>2026-04-22T14:39:43.605Z</time></trkpt><trkpt lat="43.5627433" lon="13.262285"><ele>105.0</ele><time>2026-04-22T14:39:44.604Z</time></trkpt><trkpt lat="43.56266" lon="13.2623833"><ele>103.0</ele><time>2026-04-22T14:39:45.604Z</time></trkpt><trkpt lat="43.5625783" lon="13.2624883"><ele>101.0</ele><time>2026-04-22T14:39:46.604Z</time></trkpt><trkpt lat="43.562515" lon="13.262605"><ele>99.0</ele><time>2026-04-22T14:39:47.604Z</time></trkpt><trkpt lat="43.562475" lon="13.2627533"><ele>97.0</ele><time>2026-04-22T14:39:48.604Z</time></trkpt><trkpt lat="43.562445" lon="13.2629117"><ele>97.0</ele><time>2026-04-22T14:39:49.604Z</time></trkpt><trkpt lat="43.5624183" lon="13.2630833"><ele>97.0</ele><time>2026-04-22T14:39:50.604Z</time></trkpt><trkpt lat="43.5623933" lon="13.2632733"><ele>97.0</ele><time>2026-04-22T14:39:51.604Z</time></trkpt><trkpt lat="43.5623683" lon="13.2634783"><ele>97.0</ele><time>2026-04-22T14:39:52.604Z</time></trkpt><trkpt lat="43.5623333" lon="13.2636867"><ele>97.0</ele><time>2026-04-22T14:39:53.605Z</time></trkpt><trkpt lat="43.562295" lon="13.2639033"><ele>97.0</ele><time>2026-04-22T14:39:54.604Z</time></trkpt><trkpt lat="43.562255" lon="13.2641133"><ele>97.0</ele><time>2026-04-22T14:39:55.604Z</time></trkpt><trkpt lat="43.5622" lon="13.2643283"><ele>97.33333333333334</ele><time>2026-04-22T14:39:56.605Z</time></trkpt><trkpt lat="43.5621367" lon="13.264545"><ele>97.66666666666666</ele><time>2026-04-22T14:39:57.604Z</time></trkpt><trkpt lat="43.5620633" lon="13.2647533"><ele>98.0</ele><time>2026-04-22T14:39:58.604Z</time></trkpt><trkpt lat="43.5619983" lon="13.2649833"><ele>96.0</ele><time>2026-04-22T14:39:59.604Z</time></trkpt><trkpt lat="43.5619233" lon="13.2651983"><ele>94.0</ele><time>2026-04-22T14:40:00.605Z</time></trkpt><trkpt lat="43.561855" lon="13.265415"><ele>92.0</ele><time>2026-04-22T14:40:01.604Z</time></trkpt><trkpt lat="43.56179" lon="13.2656167"><ele>91.33333333333334</ele><time>2026-04-22T14:40:02.604Z</time></trkpt><trkpt lat="43.5617217" lon="13.26583"><ele>90.66666666666667</ele><time>2026-04-22T14:40:03.604Z</time></trkpt><trkpt lat="43.5616583" lon="13.2660317"><ele>90.0</ele><time>2026-04-22T14:40:04.604Z</time></trkpt><trkpt lat="43.5615883" lon="13.2662433"><ele>89.0</ele><time>2026-04-22T14:40:05.604Z</time></trkpt><trkpt lat="43.5615283" lon="13.266455"><ele>88.0</ele><time>2026-04-22T14:40:06.604Z</time></trkpt><trkpt lat="43.5614667" lon="13.2666567"><ele>87.0</ele><time>2026-04-22T14:40:07.605Z</time></trkpt><trkpt lat="43.5613983" lon="13.2668767"><ele>87.0</ele><time>2026-04-22T14:40:08.605Z</time></trkpt><trkpt lat="43.5613333" lon="13.2670933"><ele>87.0</ele><time>2026-04-22T14:40:09.604Z</time></trkpt><trkpt lat="43.56127" lon="13.2673217"><ele>87.0</ele><time>2026-04-22T14:40:10.604Z</time></trkpt><trkpt lat="43.5612067" lon="13.26754"><ele>87.33333333333333</ele><time>2026-04-22T14:40:11.604Z</time></trkpt><trkpt lat="43.5611467" lon="13.267755"><ele>87.66666666666666</ele><time>2026-04-22T14:40:12.604Z</time></trkpt><trkpt lat="43.5610817" lon="13.267975"><ele>88.0</ele><time>2026-04-22T14:40:13.604Z</time></trkpt><trkpt lat="43.5610083" lon="13.268185"><ele>88.0</ele><time>2026-04-22T14:40:14.604Z</time></trkpt><trkpt lat="43.5609333" lon="13.2683917"><ele>88.0</ele><time>2026-04-22T14:40:15.604Z</time></trkpt><trkpt lat="43.5608617" lon="13.2685967"><ele>88.0</ele><time>2026-04-22T14:40:16.604Z</time></trkpt><trkpt lat="43.56079" lon="13.2688117"><ele>86.0</ele><time>2026-04-22T14:40:17.604Z</time></trkpt><trkpt lat="43.5607217" lon="13.2690267"><ele>84.0</ele><time>2026-04-22T14:40:18.604Z</time></trkpt><trkpt lat="43.56065" lon="13.269235"><ele>82.0</ele><time>2026-04-22T14:40:19.605Z</time></trkpt><trkpt lat="43.5605733" lon="13.269445"><ele>82.0</ele><time>2026-04-22T14:40:20.605Z</time></trkpt><trkpt lat="43.5605" lon="13.26966"><ele>82.0</ele><time>2026-04-22T14:40:21.604Z</time></trkpt><trkpt lat="43.5604317" lon="13.2698733"><ele>82.0</ele><time>2026-04-22T14:40:22.604Z</time></trkpt><trkpt lat="43.5603617" lon="13.2700867"><ele>82.0</ele><time>2026-04-22T14:40:23.605Z</time></trkpt><trkpt lat="43.5602917" lon="13.2702933"><ele>82.0</ele><time>2026-04-22T14:40:24.604Z</time></trkpt><trkpt lat="43.5602183" lon="13.2705"><ele>82.0</ele><time>2026-04-22T14:40:25.604Z</time></trkpt><trkpt lat="43.5601417" lon="13.2707033"><ele>81.0</ele><time>2026-04-22T14:40:26.605Z</time></trkpt><trkpt lat="43.560065" lon="13.2709117"><ele>80.0</ele><time>2026-04-22T14:40:27.605Z</time></trkpt><trkpt lat="43.5599817" lon="13.271125"><ele>79.0</ele><time>2026-04-22T14:40:28.604Z</time></trkpt><trkpt lat="43.5598967" lon="13.27134"><ele>77.66666666666666</ele><time>2026-04-22T14:40:29.604Z</time></trkpt><trkpt lat="43.5598133" lon="13.2715567"><ele>76.33333333333333</ele><time>2026-04-22T14:40:30.605Z</time></trkpt><trkpt lat="43.559735" lon="13.2717717"><ele>75.0</ele><time>2026-04-22T14:40:31.604Z</time></trkpt><trkpt lat="43.55965" lon="13.271985"><ele>75.0</ele><time>2026-04-22T14:40:32.604Z</time></trkpt><trkpt lat="43.5595583" lon="13.2722"><ele>75.0</ele><time>2026-04-22T14:40:33.604Z</time></trkpt><trkpt lat="43.559475" lon="13.2724167"><ele>75.0</ele><time>2026-04-22T14:40:34.604Z</time></trkpt><trkpt lat="43.55939" lon="13.272635"><ele>74.0</ele><time>2026-04-22T14:40:35.604Z</time></trkpt><trkpt lat="43.5593033" lon="13.2728517"><ele>73.0</ele><time>2026-04-22T14:40:36.604Z</time></trkpt><trkpt lat="43.5592183" lon="13.273075"><ele>72.0</ele><time>2026-04-22T14:40:37.604Z</time></trkpt><trkpt lat="43.5591383" lon="13.273295"><ele>71.0</ele><time>2026-04-22T14:40:38.604Z</time></trkpt><trkpt lat="43.55906" lon="13.273515"><ele>70.0</ele><time>2026-04-22T14:40:39.604Z</time></trkpt><trkpt lat="43.558975" lon="13.27373"><ele>69.0</ele><time>2026-04-22T14:40:40.604Z</time></trkpt><trkpt lat="43.5588867" lon="13.2739417"><ele>68.66666666666667</ele><time>2026-04-22T14:40:41.604Z</time></trkpt><trkpt lat="43.558805" lon="13.274155"><ele>68.33333333333334</ele><time>2026-04-22T14:40:42.604Z</time></trkpt><trkpt lat="43.5587183" lon="13.2743583"><ele>68.0</ele><time>2026-04-22T14:40:43.604Z</time></trkpt><trkpt lat="43.5586383" lon="13.2745683"><ele>67.33333333333334</ele><time>2026-04-22T14:40:44.605Z</time></trkpt><trkpt lat="43.558555" lon="13.2747817"><ele>66.66666666666667</ele><time>2026-04-22T14:40:45.604Z</time></trkpt><trkpt lat="43.558475" lon="13.27499"><ele>66.0</ele><time>2026-04-22T14:40:46.604Z</time></trkpt><trkpt lat="43.5584017" lon="13.2752083"><ele>66.0</ele><time>2026-04-22T14:40:47.604Z</time></trkpt><trkpt lat="43.5583217" lon="13.2754233"><ele>66.0</ele><time>2026-04-22T14:40:48.604Z</time></trkpt><trkpt lat="43.5582467" lon="13.275645"><ele>66.0</ele><time>2026-04-22T14:40:49.605Z</time></trkpt><trkpt lat="43.5581733" lon="13.2758567"><ele>65.66666666666667</ele><time>2026-04-22T14:40:50.604Z</time></trkpt><trkpt lat="43.5581033" lon="13.2760783"><ele>65.33333333333334</ele><time>2026-04-22T14:40:51.604Z</time></trkpt><trkpt lat="43.5580267" lon="13.2763017"><ele>65.0</ele><time>2026-04-22T14:40:52.605Z</time></trkpt><trkpt lat="43.5579567" lon="13.2765167"><ele>65.0</ele><time>2026-04-22T14:40:53.605Z</time></trkpt><trkpt lat="43.557885" lon="13.276725"><ele>65.0</ele><time>2026-04-22T14:40:54.604Z</time></trkpt><trkpt lat="43.557815" lon="13.2769367"><ele>65.0</ele><time>2026-04-22T14:40:55.604Z</time></trkpt><trkpt lat="43.5577567" lon="13.2771483"><ele>64.0</ele><time>2026-04-22T14:40:56.604Z</time></trkpt><trkpt lat="43.55771" lon="13.2773567"><ele>63.0</ele><time>2026-04-22T14:40:57.604Z</time></trkpt><trkpt lat="43.5576667" lon="13.27757"><ele>62.0</ele><time>2026-04-22T14:40:58.604Z</time></trkpt><trkpt lat="43.5576183" lon="13.2777817"><ele>62.0</ele><time>2026-04-22T14:40:59.605Z</time></trkpt><trkpt lat="43.557575" lon="13.2780017"><ele>62.0</ele><time>2026-04-22T14:41:00.604Z</time></trkpt><trkpt lat="43.55754" lon="13.27821"><ele>62.0</ele><time>2026-04-22T14:41:01.604Z</time></trkpt><trkpt lat="43.5574983" lon="13.27841"><ele>61.75</ele><time>2026-04-22T14:41:02.604Z</time></trkpt><trkpt lat="43.5574617" lon="13.2785917"><ele>61.5</ele><time>2026-04-22T14:41:03.604Z</time></trkpt><trkpt lat="43.5574267" lon="13.27877"><ele>61.25</ele><time>2026-04-22T14:41:04.604Z</time></trkpt><trkpt lat="43.5573917" lon="13.2789417"><ele>61.0</ele><time>2026-04-22T14:41:05.604Z</time></trkpt><trkpt lat="43.5573617" lon="13.27911"><ele>61.0</ele><time>2026-04-22T14:41:06.604Z</time></trkpt><trkpt lat="43.55733" lon="13.2792667"><ele>61.0</ele><time>2026-04-22T14:41:07.604Z</time></trkpt><trkpt lat="43.5573067" lon="13.2794283"><ele>61.0</ele><time>2026-04-22T14:41:08.604Z</time></trkpt><trkpt lat="43.5572817" lon="13.279575"><ele>61.0</ele><time>2026-04-22T14:41:09.604Z</time></trkpt><trkpt lat="43.5572467" lon="13.2797233"><ele>60.75</ele><time>2026-04-22T14:41:10.604Z</time></trkpt><trkpt lat="43.5572167" lon="13.2798833"><ele>60.5</ele><time>2026-04-22T14:41:11.605Z</time></trkpt><trkpt lat="43.5571933" lon="13.2800483"><ele>60.25</ele><time>2026-04-22T14:41:12.605Z</time></trkpt><trkpt lat="43.5571633" lon="13.28021"><ele>60.0</ele><time>2026-04-22T14:41:13.604Z</time></trkpt><trkpt lat="43.55713" lon="13.2803733"><ele>60.0</ele><time>2026-04-22T14:41:14.604Z</time></trkpt><trkpt lat="43.5570933" lon="13.2805333"><ele>60.0</ele><time>2026-04-22T14:41:15.604Z</time></trkpt><trkpt lat="43.5570667" lon="13.280695"><ele>60.0</ele><time>2026-04-22T14:41:16.604Z</time></trkpt><trkpt lat="43.5570367" lon="13.280855"><ele>60.0</ele><time>2026-04-22T14:41:17.604Z</time></trkpt><trkpt lat="43.5570033" lon="13.2810233"><ele>59.5</ele><time>2026-04-22T14:41:18.604Z</time></trkpt><trkpt lat="43.5569683" lon="13.2811933"><ele>59.0</ele><time>2026-04-22T14:41:19.604Z</time></trkpt><trkpt lat="43.5569333" lon="13.2813567"><ele>58.5</ele><time>2026-04-22T14:41:20.604Z</time></trkpt><trkpt lat="43.556895" lon="13.2815267"><ele>58.0</ele><time>2026-04-22T14:41:21.604Z</time></trkpt><trkpt lat="43.5568567" lon="13.2816917"><ele>57.5</ele><time>2026-04-22T14:41:22.604Z</time></trkpt><trkpt lat="43.5568267" lon="13.2818583"><ele>57.0</ele><time>2026-04-22T14:41:23.604Z</time></trkpt><trkpt lat="43.5567917" lon="13.2820183"><ele>56.5</ele><time>2026-04-22T14:41:24.604Z</time></trkpt><trkpt lat="43.556755" lon="13.28217"><ele>56.0</ele><time>2026-04-22T14:41:25.604Z</time></trkpt><trkpt lat="43.5567167" lon="13.282325"><ele>55.0</ele><time>2026-04-22T14:41:26.604Z</time></trkpt><trkpt lat="43.55668" lon="13.2824783"><ele>54.0</ele><time>2026-04-22T14:41:27.604Z</time></trkpt><trkpt lat="43.5566417" lon="13.282635"><ele>53.0</ele><time>2026-04-22T14:41:28.604Z</time></trkpt><trkpt lat="43.5566033" lon="13.2827933"><ele>52.0</ele><time>2026-04-22T14:41:29.604Z</time></trkpt><trkpt lat="43.5565683" lon="13.282955"><ele>50.75</ele><time>2026-04-22T14:41:30.604Z</time></trkpt><trkpt lat="43.55653" lon="13.2831133"><ele>49.5</ele><time>2026-04-22T14:41:31.604Z</time></trkpt><trkpt lat="43.556485" lon="13.28327"><ele>48.25</ele><time>2026-04-22T14:41:32.604Z</time></trkpt><trkpt lat="43.5564483" lon="13.2834167"><ele>47.0</ele><time>2026-04-22T14:41:33.605Z</time></trkpt><trkpt lat="43.5564133" lon="13.28355"><ele>47.0</ele><time>2026-04-22T14:41:34.604Z</time></trkpt><trkpt lat="43.5563633" lon="13.2836583"><ele>47.0</ele><time>2026-04-22T14:41:35.604Z</time></trkpt><trkpt lat="43.55631" lon="13.2837417"><ele>47.0</ele><time>2026-04-22T14:41:36.604Z</time></trkpt><trkpt lat="43.55626" lon="13.2837983"><ele>47.0</ele><time>2026-04-22T14:41:37.604Z</time></trkpt><trkpt lat="43.556195" lon="13.283855"><ele>47.0</ele><time>2026-04-22T14:41:39.604Z</time></trkpt><trkpt lat="43.5561633" lon="13.2839517"><ele>47.0</ele><time>2026-04-22T14:41:42.605Z</time></trkpt><trkpt lat="43.5561783" lon="13.2841367"><ele>46.83333333333333</ele><time>2026-04-22T14:41:56.604Z</time></trkpt><trkpt lat="43.556215" lon="13.2842117"><ele>46.666666666666664</ele><time>2026-04-22T14:41:57.604Z</time></trkpt><trkpt lat="43.556265" lon="13.2842917"><ele>46.5</ele><time>2026-04-22T14:41:58.604Z</time></trkpt><trkpt lat="43.556335" lon="13.2843767"><ele>46.333333333333336</ele><time>2026-04-22T14:41:59.604Z</time></trkpt><trkpt lat="43.55641" lon="13.2844733"><ele>46.16666666666667</ele><time>2026-04-22T14:42:00.605Z</time></trkpt><trkpt lat="43.5564833" lon="13.284565"><ele>46.0</ele><time>2026-04-22T14:42:01.604Z</time></trkpt><trkpt lat="43.5565617" lon="13.2846733"><ele>46.0</ele><time>2026-04-22T14:42:02.604Z</time></trkpt><trkpt lat="43.5566567" lon="13.284785"><ele>46.0</ele><time>2026-04-22T14:42:03.604Z</time></trkpt><trkpt lat="43.55674" lon="13.2848967"><ele>46.0</ele><time>2026-04-22T14:42:04.605Z</time></trkpt><trkpt lat="43.55683" lon="13.2850083"><ele>46.0</ele><time>2026-04-22T14:42:05.604Z</time></trkpt><trkpt lat="43.55692" lon="13.2851183"><ele>46.0</ele><time>2026-04-22T14:42:06.604Z</time></trkpt><trkpt lat="43.5570017" lon="13.28523"><ele>46.0</ele><time>2026-04-22T14:42:07.604Z</time></trkpt><trkpt lat="43.557075" lon="13.28533"><ele>46.0</ele><time>2026-04-22T14:42:08.604Z</time></trkpt><trkpt lat="43.55713" lon="13.2854117"><ele>46.0</ele><time>2026-04-22T14:42:09.604Z</time></trkpt><trkpt lat="43.5571833" lon="13.28548"><ele>46.0</ele><time>2026-04-22T14:42:10.604Z</time></trkpt><trkpt lat="43.5572367" lon="13.285615"><ele>45.599999999999994</ele><time>2026-04-22T14:42:12.605Z</time></trkpt><trkpt lat="43.5572667" lon="13.2857267"><ele>45.2</ele><time>2026-04-22T14:42:15.605Z</time></trkpt><trkpt lat="43.5572833" lon="13.285825"><ele>44.8</ele><time>2026-04-22T14:42:17.604Z</time></trkpt><trkpt lat="43.5572667" lon="13.2859817"><ele>44.400000000000006</ele><time>2026-04-22T14:42:19.604Z</time></trkpt><trkpt lat="43.557255" lon="13.2861333"><ele>44.0</ele><time>2026-04-22T14:42:21.604Z</time></trkpt><trkpt lat="43.5573233" lon="13.286275"><ele>44.0</ele><time>2026-04-22T14:42:23.604Z</time></trkpt><trkpt lat="43.5573783" lon="13.286345"><ele>44.0</ele><time>2026-04-22T14:42:24.604Z</time></trkpt><trkpt lat="43.5574283" lon="13.2864317"><ele>44.0</ele><time>2026-04-22T14:42:25.604Z</time></trkpt><trkpt lat="43.5574633" lon="13.2865333"><ele>44.0</ele><time>2026-04-22T14:42:26.604Z</time></trkpt><trkpt lat="43.5574717" lon="13.2866517"><ele>44.0</ele><time>2026-04-22T14:42:27.604Z</time></trkpt><trkpt lat="43.557455" lon="13.2867783"><ele>44.0</ele><time>2026-04-22T14:42:28.604Z</time></trkpt><trkpt lat="43.557415" lon="13.2869267"><ele>44.0</ele><time>2026-04-22T14:42:29.604Z</time></trkpt><trkpt lat="43.5573633" lon="13.2870867"><ele>44.0</ele><time>2026-04-22T14:42:30.604Z</time></trkpt><trkpt lat="43.5573083" lon="13.2872483"><ele>44.0</ele><time>2026-04-22T14:42:31.605Z</time></trkpt><trkpt lat="43.5572617" lon="13.287415"><ele>44.0</ele><time>2026-04-22T14:42:32.605Z</time></trkpt><trkpt lat="43.5572083" lon="13.287585"><ele>44.25</ele><time>2026-04-22T14:42:33.604Z</time></trkpt><trkpt lat="43.5571483" lon="13.28776"><ele>44.5</ele><time>2026-04-22T14:42:34.604Z</time></trkpt><trkpt lat="43.557085" lon="13.2879367"><ele>44.75</ele><time>2026-04-22T14:42:35.604Z</time></trkpt><trkpt lat="43.557025" lon="13.2881183"><ele>45.0</ele><time>2026-04-22T14:42:36.604Z</time></trkpt><trkpt lat="43.55697" lon="13.2882967"><ele>44.5</ele><time>2026-04-22T14:42:37.605Z</time></trkpt><trkpt lat="43.5569117" lon="13.2884733"><ele>44.0</ele><time>2026-04-22T14:42:38.604Z</time></trkpt><trkpt lat="43.556855" lon="13.2886483"><ele>43.5</ele><time>2026-04-22T14:42:39.604Z</time></trkpt><trkpt lat="43.5567983" lon="13.2888183"><ele>43.0</ele><time>2026-04-22T14:42:40.605Z</time></trkpt><trkpt lat="43.55674" lon="13.2890017"><ele>43.0</ele><time>2026-04-22T14:42:41.604Z</time></trkpt><trkpt lat="43.5566833" lon="13.289195"><ele>43.0</ele><time>2026-04-22T14:42:42.604Z</time></trkpt><trkpt lat="43.556625" lon="13.2893883"><ele>43.0</ele><time>2026-04-22T14:42:43.604Z</time></trkpt><trkpt lat="43.5565683" lon="13.2895783"><ele>43.0</ele><time>2026-04-22T14:42:44.604Z</time></trkpt><trkpt lat="43.5565217" lon="13.2897683"><ele>43.0</ele><time>2026-04-22T14:42:45.604Z</time></trkpt><trkpt lat="43.556485" lon="13.2899717"><ele>43.0</ele><time>2026-04-22T14:42:46.604Z</time></trkpt><trkpt lat="43.55646" lon="13.290175"><ele>43.0</ele><time>2026-04-22T14:42:47.604Z</time></trkpt><trkpt lat="43.5564367" lon="13.2903767"><ele>43.0</ele><time>2026-04-22T14:42:48.603Z</time></trkpt><trkpt lat="43.5564067" lon="13.2905733"><ele>43.0</ele><time>2026-04-22T14:42:49.603Z</time></trkpt><trkpt lat="43.556385" lon="13.2907733"><ele>43.0</ele><time>2026-04-22T14:42:50.603Z</time></trkpt><trkpt lat="43.556355" lon="13.2909583"><ele>43.0</ele><time>2026-04-22T14:42:51.603Z</time></trkpt><trkpt lat="43.5563267" lon="13.291145"><ele>43.0</ele><time>2026-04-22T14:42:52.604Z</time></trkpt><trkpt lat="43.5563017" lon="13.2913233"><ele>43.0</ele><time>2026-04-22T14:42:53.603Z</time></trkpt><trkpt lat="43.5562617" lon="13.2915"><ele>43.0</ele><time>2026-04-22T14:42:54.603Z</time></trkpt><trkpt lat="43.556215" lon="13.2916867"><ele>43.0</ele><time>2026-04-22T14:42:55.603Z</time></trkpt><trkpt lat="43.5561667" lon="13.2918667"><ele>43.0</ele><time>2026-04-22T14:42:56.603Z</time></trkpt><trkpt lat="43.5561267" lon="13.29205"><ele>43.0</ele><time>2026-04-22T14:42:57.603Z</time></trkpt><trkpt lat="43.5560867" lon="13.2922317"><ele>43.0</ele><time>2026-04-22T14:42:58.603Z</time></trkpt><trkpt lat="43.556045" lon="13.2924083"><ele>43.0</ele><time>2026-04-22T14:42:59.604Z</time></trkpt><trkpt lat="43.556" lon="13.2925917"><ele>43.0</ele><time>2026-04-22T14:43:00.603Z</time></trkpt><trkpt lat="43.555955" lon="13.29276"><ele>43.0</ele><time>2026-04-22T14:43:01.603Z</time></trkpt><trkpt lat="43.5559133" lon="13.292925"><ele>43.0</ele><time>2026-04-22T14:43:02.603Z</time></trkpt><trkpt lat="43.55587" lon="13.2930817"><ele>43.0</ele><time>2026-04-22T14:43:03.603Z</time></trkpt><trkpt lat="43.55582" lon="13.293235"><ele>42.5</ele><time>2026-04-22T14:43:04.603Z</time></trkpt><trkpt lat="43.5557533" lon="13.29339"><ele>42.0</ele><time>2026-04-22T14:43:05.603Z</time></trkpt><trkpt lat="43.5556767" lon="13.2935383"><ele>41.5</ele><time>2026-04-22T14:43:06.603Z</time></trkpt><trkpt lat="43.555585" lon="13.2936783"><ele>41.0</ele><time>2026-04-22T14:43:07.603Z</time></trkpt><trkpt lat="43.555485" lon="13.2938067"><ele>40.5</ele><time>2026-04-22T14:43:08.603Z</time></trkpt><trkpt lat="43.5553683" lon="13.293925"><ele>40.0</ele><time>2026-04-22T14:43:09.603Z</time></trkpt><trkpt lat="43.555245" lon="13.2940367"><ele>39.5</ele><time>2026-04-22T14:43:10.603Z</time></trkpt><trkpt lat="43.5551267" lon="13.2941433"><ele>39.0</ele><time>2026-04-22T14:43:11.603Z</time></trkpt><trkpt lat="43.5550133" lon="13.29426"><ele>39.0</ele><time>2026-04-22T14:43:12.603Z</time></trkpt><trkpt lat="43.5549133" lon="13.294385"><ele>39.0</ele><time>2026-04-22T14:43:13.603Z</time></trkpt><trkpt lat="43.55483" lon="13.294535"><ele>39.0</ele><time>2026-04-22T14:43:14.603Z</time></trkpt><trkpt lat="43.5547483" lon="13.2946917"><ele>39.0</ele><time>2026-04-22T14:43:15.604Z</time></trkpt><trkpt lat="43.5546867" lon="13.2948633"><ele>39.25</ele><time>2026-04-22T14:43:16.603Z</time></trkpt><trkpt lat="43.554635" lon="13.2950367"><ele>39.5</ele><time>2026-04-22T14:43:17.603Z</time></trkpt><trkpt lat="43.5545933" lon="13.2952133"><ele>39.75</ele><time>2026-04-22T14:43:18.603Z</time></trkpt><trkpt lat="43.5545667" lon="13.295405"><ele>40.0</ele><time>2026-04-22T14:43:19.603Z</time></trkpt><trkpt lat="43.5545567" lon="13.2955983"><ele>40.0</ele><time>2026-04-22T14:43:20.604Z</time></trkpt><trkpt lat="43.554545" lon="13.2957867"><ele>40.0</ele><time>2026-04-22T14:43:21.603Z</time></trkpt><trkpt lat="43.5545367" lon="13.2959717"><ele>40.0</ele><time>2026-04-22T14:43:22.603Z</time></trkpt><trkpt lat="43.5545283" lon="13.2961517"><ele>40.0</ele><time>2026-04-22T14:43:23.603Z</time></trkpt><trkpt lat="43.55452" lon="13.2963317"><ele>40.25</ele><time>2026-04-22T14:43:24.603Z</time></trkpt><trkpt lat="43.5545117" lon="13.296505"><ele>40.5</ele><time>2026-04-22T14:43:25.603Z</time></trkpt><trkpt lat="43.554505" lon="13.2966917"><ele>40.75</ele><time>2026-04-22T14:43:26.603Z</time></trkpt><trkpt lat="43.5545017" lon="13.2968617"><ele>41.0</ele><time>2026-04-22T14:43:27.603Z</time></trkpt><trkpt lat="43.5544967" lon="13.29703"><ele>41.0</ele><time>2026-04-22T14:43:28.604Z</time></trkpt><trkpt lat="43.554495" lon="13.2971917"><ele>41.0</ele><time>2026-04-22T14:43:29.603Z</time></trkpt><trkpt lat="43.55449" lon="13.2973517"><ele>41.0</ele><time>2026-04-22T14:43:30.603Z</time></trkpt><trkpt lat="43.5544733" lon="13.297505"><ele>41.0</ele><time>2026-04-22T14:43:31.603Z</time></trkpt><trkpt lat="43.5544617" lon="13.297665"><ele>41.0</ele><time>2026-04-22T14:43:32.603Z</time></trkpt><trkpt lat="43.5544533" lon="13.2978283"><ele>41.0</ele><time>2026-04-22T14:43:33.603Z</time></trkpt><trkpt lat="43.5544467" lon="13.2979833"><ele>41.0</ele><time>2026-04-22T14:43:34.603Z</time></trkpt><trkpt lat="43.5544383" lon="13.2981333"><ele>41.0</ele><time>2026-04-22T14:43:35.603Z</time></trkpt><trkpt lat="43.55442" lon="13.29827"><ele>41.0</ele><time>2026-04-22T14:43:36.603Z</time></trkpt><trkpt lat="43.5543833" lon="13.2984033"><ele>40.599999999999994</ele><time>2026-04-22T14:43:37.603Z</time></trkpt><trkpt lat="43.5543467" lon="13.298545"><ele>40.199999999999996</ele><time>2026-04-22T14:43:38.603Z</time></trkpt><trkpt lat="43.5543033" lon="13.2986833"><ele>39.8</ele><time>2026-04-22T14:43:39.603Z</time></trkpt><trkpt lat="43.5542567" lon="13.2988167"><ele>39.4</ele><time>2026-04-22T14:43:40.603Z</time></trkpt><trkpt lat="43.554215" lon="13.2989533"><ele>39.0</ele><time>2026-04-22T14:43:41.603Z</time></trkpt><trkpt lat="43.5541717" lon="13.29909"><ele>38.6</ele><time>2026-04-22T14:43:42.603Z</time></trkpt><trkpt lat="43.5541267" lon="13.2992233"><ele>38.2</ele><time>2026-04-22T14:43:43.603Z</time></trkpt><trkpt lat="43.554085" lon="13.2993483"><ele>37.800000000000004</ele><time>2026-04-22T14:43:44.603Z</time></trkpt><trkpt lat="43.5540467" lon="13.2994733"><ele>37.4</ele><time>2026-04-22T14:43:45.604Z</time></trkpt><trkpt lat="43.5539983" lon="13.2995917"><ele>37.0</ele><time>2026-04-22T14:43:46.604Z</time></trkpt><trkpt lat="43.5539467" lon="13.29971"><ele>37.6</ele><time>2026-04-22T14:43:47.603Z</time></trkpt><trkpt lat="43.5538917" lon="13.2998283"><ele>38.2</ele><time>2026-04-22T14:43:48.603Z</time></trkpt><trkpt lat="43.553845" lon="13.2999283"><ele>38.8</ele><time>2026-04-22T14:43:49.603Z</time></trkpt><trkpt lat="43.553815" lon="13.3000083"><ele>39.4</ele><time>2026-04-22T14:43:50.603Z</time></trkpt><trkpt lat="43.5537433" lon="13.3001417"><ele>40.0</ele><time>2026-04-22T14:43:52.603Z</time></trkpt><trkpt lat="43.55367" lon="13.3002733"><ele>40.2</ele><time>2026-04-22T14:43:54.603Z</time></trkpt><trkpt lat="43.553615" lon="13.3003733"><ele>40.4</ele><time>2026-04-22T14:43:55.604Z</time></trkpt><trkpt lat="43.5535517" lon="13.3004883"><ele>40.599999999999994</ele><time>2026-04-22T14:43:56.603Z</time></trkpt><trkpt lat="43.55349" lon="13.3006083"><ele>40.8</ele><time>2026-04-22T14:43:57.603Z</time></trkpt><trkpt lat="43.55342" lon="13.3007517"><ele>41.0</ele><time>2026-04-22T14:43:58.603Z</time></trkpt><trkpt lat="43.55334" lon="13.3008967"><ele>40.25</ele><time>2026-04-22T14:43:59.603Z</time></trkpt><trkpt lat="43.5532567" lon="13.30104"><ele>39.5</ele><time>2026-04-22T14:44:00.603Z</time></trkpt><trkpt lat="43.5531717" lon="13.301195"><ele>38.75</ele><time>2026-04-22T14:44:01.603Z</time></trkpt><trkpt lat="43.553085" lon="13.3013633"><ele>38.0</ele><time>2026-04-22T14:44:02.604Z</time></trkpt><trkpt lat="43.5529967" lon="13.30152"><ele>37.75</ele><time>2026-04-22T14:44:03.603Z</time></trkpt><trkpt lat="43.5529117" lon="13.3016883"><ele>37.5</ele><time>2026-04-22T14:44:04.603Z</time></trkpt><trkpt lat="43.552825" lon="13.3018517"><ele>37.25</ele><time>2026-04-22T14:44:05.603Z</time></trkpt><trkpt lat="43.5527383" lon="13.3020183"><ele>37.0</ele><time>2026-04-22T14:44:06.604Z</time></trkpt><trkpt lat="43.5526467" lon="13.3021883"><ele>37.0</ele><time>2026-04-22T14:44:07.603Z</time></trkpt><trkpt lat="43.55255" lon="13.3023767"><ele>37.0</ele><time>2026-04-22T14:44:08.603Z</time></trkpt><trkpt lat="43.55245" lon="13.302545"><ele>37.0</ele><time>2026-04-22T14:44:09.603Z</time></trkpt><trkpt lat="43.55235" lon="13.3027183"><ele>37.0</ele><time>2026-04-22T14:44:10.603Z</time></trkpt><trkpt lat="43.5522467" lon="13.3029033"><ele>37.0</ele><time>2026-04-22T14:44:11.604Z</time></trkpt><trkpt lat="43.5521417" lon="13.3031033"><ele>37.0</ele><time>2026-04-22T14:44:12.603Z</time></trkpt><trkpt lat="43.5520333" lon="13.3033017"><ele>37.66666666666667</ele><time>2026-04-22T14:44:13.603Z</time></trkpt><trkpt lat="43.5519317" lon="13.3034867"><ele>38.333333333333336</ele><time>2026-04-22T14:44:14.603Z</time></trkpt><trkpt lat="43.551825" lon="13.3036867"><ele>39.0</ele><time>2026-04-22T14:44:15.603Z</time></trkpt><trkpt lat="43.5517233" lon="13.30389"><ele>38.666666666666664</ele><time>2026-04-22T14:44:16.603Z</time></trkpt><trkpt lat="43.5516133" lon="13.30409"><ele>38.33333333333333</ele><time>2026-04-22T14:44:17.603Z</time></trkpt><trkpt lat="43.5515133" lon="13.3042833"><ele>38.0</ele><time>2026-04-22T14:44:18.603Z</time></trkpt><trkpt lat="43.551405" lon="13.3044767"><ele>38.0</ele><time>2026-04-22T14:44:19.604Z</time></trkpt><trkpt lat="43.5513" lon="13.3046617"><ele>38.0</ele><time>2026-04-22T14:44:20.603Z</time></trkpt><trkpt lat="43.5512067" lon="13.3048533"><ele>38.0</ele><time>2026-04-22T14:44:21.603Z</time></trkpt><trkpt lat="43.551105" lon="13.3050383"><ele>37.0</ele><time>2026-04-22T14:44:22.603Z</time></trkpt><trkpt lat="43.551005" lon="13.3052267"><ele>36.0</ele><time>2026-04-22T14:44:23.603Z</time></trkpt><trkpt lat="43.5509017" lon="13.3054183"><ele>35.0</ele><time>2026-04-22T14:44:24.603Z</time></trkpt><trkpt lat="43.5507967" lon="13.305605"><ele>35.0</ele><time>2026-04-22T14:44:25.603Z</time></trkpt><trkpt lat="43.550695" lon="13.3057983"><ele>35.0</ele><time>2026-04-22T14:44:26.603Z</time></trkpt><trkpt lat="43.550595" lon="13.3059867"><ele>35.0</ele><time>2026-04-22T14:44:27.603Z</time></trkpt><trkpt lat="43.5504917" lon="13.3061783"><ele>35.0</ele><time>2026-04-22T14:44:28.604Z</time></trkpt><trkpt lat="43.5503867" lon="13.3063733"><ele>35.0</ele><time>2026-04-22T14:44:29.603Z</time></trkpt><trkpt lat="43.5502833" lon="13.30656"><ele>35.0</ele><time>2026-04-22T14:44:30.603Z</time></trkpt><trkpt lat="43.5501783" lon="13.3067517"><ele>35.666666666666664</ele><time>2026-04-22T14:44:31.603Z</time></trkpt><trkpt lat="43.55007" lon="13.3069533"><ele>36.333333333333336</ele><time>2026-04-22T14:44:32.603Z</time></trkpt><trkpt lat="43.549965" lon="13.3071483"><ele>37.0</ele><time>2026-04-22T14:44:33.603Z</time></trkpt><trkpt lat="43.54986" lon="13.307345"><ele>37.0</ele><time>2026-04-22T14:44:34.604Z</time></trkpt><trkpt lat="43.5497533" lon="13.3075417"><ele>37.0</ele><time>2026-04-22T14:44:35.603Z</time></trkpt><trkpt lat="43.549645" lon="13.307735"><ele>37.0</ele><time>2026-04-22T14:44:36.603Z</time></trkpt><trkpt lat="43.54954" lon="13.30793"><ele>37.333333333333336</ele><time>2026-04-22T14:44:37.603Z</time></trkpt><trkpt lat="43.5494333" lon="13.30812"><ele>37.666666666666664</ele><time>2026-04-22T14:44:38.603Z</time></trkpt><trkpt lat="43.5493267" lon="13.3083133"><ele>38.0</ele><time>2026-04-22T14:44:39.603Z</time></trkpt><trkpt lat="43.5492217" lon="13.308505"><ele>38.0</ele><time>2026-04-22T14:44:40.603Z</time></trkpt><trkpt lat="43.5491183" lon="13.3086983"><ele>38.0</ele><time>2026-04-22T14:44:41.603Z</time></trkpt><trkpt lat="43.5490317" lon="13.3088733"><ele>38.0</ele><time>2026-04-22T14:44:42.603Z</time></trkpt><trkpt lat="43.5489417" lon="13.309045"><ele>38.0</ele><time>2026-04-22T14:44:43.603Z</time></trkpt><trkpt lat="43.5488583" lon="13.309205"><ele>38.0</ele><time>2026-04-22T14:44:44.603Z</time></trkpt><trkpt lat="43.54878" lon="13.309365"><ele>38.0</ele><time>2026-04-22T14:44:45.603Z</time></trkpt><trkpt lat="43.5487083" lon="13.3095333"><ele>38.0</ele><time>2026-04-22T14:44:46.603Z</time></trkpt><trkpt lat="43.5486583" lon="13.3097"><ele>38.0</ele><time>2026-04-22T14:44:47.603Z</time></trkpt><trkpt lat="43.5486233" lon="13.30987"><ele>38.0</ele><time>2026-04-22T14:44:48.603Z</time></trkpt><trkpt lat="43.5485933" lon="13.3100333"><ele>38.0</ele><time>2026-04-22T14:44:49.603Z</time></trkpt><trkpt lat="43.5485633" lon="13.3101783"><ele>38.0</ele><time>2026-04-22T14:44:50.603Z</time></trkpt><trkpt lat="43.548515" lon="13.3103183"><ele>38.0</ele><time>2026-04-22T14:44:51.603Z</time></trkpt><trkpt lat="43.5484483" lon="13.31046"><ele>38.0</ele><time>2026-04-22T14:44:52.603Z</time></trkpt><trkpt lat="43.5483667" lon="13.3105883"><ele>38.0</ele><time>2026-04-22T14:44:53.603Z</time></trkpt><trkpt lat="43.5482733" lon="13.3107217"><ele>38.0</ele><time>2026-04-22T14:44:54.603Z</time></trkpt><trkpt lat="43.5481683" lon="13.3108583"><ele>38.0</ele><time>2026-04-22T14:44:55.603Z</time></trkpt><trkpt lat="43.5480533" lon="13.3109983"><ele>38.0</ele><time>2026-04-22T14:44:56.603Z</time></trkpt><trkpt lat="43.5479333" lon="13.3111283"><ele>38.0</ele><time>2026-04-22T14:44:57.603Z</time></trkpt><trkpt lat="43.5478133" lon="13.3112367"><ele>38.0</ele><time>2026-04-22T14:44:58.603Z</time></trkpt><trkpt lat="43.5476983" lon="13.3113433"><ele>38.5</ele><time>2026-04-22T14:44:59.604Z</time></trkpt><trkpt lat="43.5475867" lon="13.311455"><ele>39.0</ele><time>2026-04-22T14:45:00.603Z</time></trkpt><trkpt lat="43.54748" lon="13.3115767"><ele>39.5</ele><time>2026-04-22T14:45:01.603Z</time></trkpt><trkpt lat="43.5473783" lon="13.311705"><ele>40.0</ele><time>2026-04-22T14:45:02.603Z</time></trkpt><trkpt lat="43.5472833" lon="13.31184"><ele>40.0</ele><time>2026-04-22T14:45:03.603Z</time></trkpt><trkpt lat="43.547195" lon="13.311985"><ele>40.0</ele><time>2026-04-22T14:45:04.603Z</time></trkpt><trkpt lat="43.5471167" lon="13.31213"><ele>40.0</ele><time>2026-04-22T14:45:05.603Z</time></trkpt><trkpt lat="43.54703" lon="13.3122867"><ele>40.0</ele><time>2026-04-22T14:45:06.603Z</time></trkpt><trkpt lat="43.5469567" lon="13.312445"><ele>41.0</ele><time>2026-04-22T14:45:07.603Z</time></trkpt><trkpt lat="43.5468783" lon="13.3125867"><ele>42.0</ele><time>2026-04-22T14:45:08.603Z</time></trkpt><trkpt lat="43.546805" lon="13.3127217"><ele>43.0</ele><time>2026-04-22T14:45:09.603Z</time></trkpt><trkpt lat="43.5467383" lon="13.3128533"><ele>44.0</ele><time>2026-04-22T14:45:10.603Z</time></trkpt><trkpt lat="43.5466883" lon="13.31298"><ele>44.2</ele><time>2026-04-22T14:45:11.603Z</time></trkpt><trkpt lat="43.546655" lon="13.3130883"><ele>44.400000000000006</ele><time>2026-04-22T14:45:12.603Z</time></trkpt><trkpt lat="43.5466233" lon="13.3131917"><ele>44.6</ele><time>2026-04-22T14:45:13.603Z</time></trkpt><trkpt lat="43.5465933" lon="13.313305"><ele>44.8</ele><time>2026-04-22T14:45:14.603Z</time></trkpt><trkpt lat="43.5465583" lon="13.3134383"><ele>45.0</ele><time>2026-04-22T14:45:15.603Z</time></trkpt><trkpt lat="43.546515" lon="13.31358"><ele>45.0</ele><time>2026-04-22T14:45:16.603Z</time></trkpt><trkpt lat="43.5464733" lon="13.3137317"><ele>45.0</ele><time>2026-04-22T14:45:17.603Z</time></trkpt><trkpt lat="43.5464267" lon="13.3138967"><ele>45.0</ele><time>2026-04-22T14:45:18.603Z</time></trkpt><trkpt lat="43.5463817" lon="13.31405"><ele>45.0</ele><time>2026-04-22T14:45:19.604Z</time></trkpt><trkpt lat="43.546335" lon="13.314215"><ele>46.75</ele><time>2026-04-22T14:45:20.603Z</time></trkpt><trkpt lat="43.5462883" lon="13.31438"><ele>48.5</ele><time>2026-04-22T14:45:21.603Z</time></trkpt><trkpt lat="43.5462417" lon="13.314535"><ele>50.25</ele><time>2026-04-22T14:45:22.603Z</time></trkpt><trkpt lat="43.5462033" lon="13.3146883"><ele>52.0</ele><time>2026-04-22T14:45:23.603Z</time></trkpt><trkpt lat="43.5461717" lon="13.3148333"><ele>53.99999999999999</ele><time>2026-04-22T14:45:24.603Z</time></trkpt><trkpt lat="43.5461383" lon="13.3149533"><ele>56.0</ele><time>2026-04-22T14:45:25.603Z</time></trkpt><trkpt lat="43.5461033" lon="13.31505"><ele>58.0</ele><time>2026-04-22T14:45:26.603Z</time></trkpt><trkpt lat="43.5460567" lon="13.31513"><ele>60.0</ele><time>2026-04-22T14:45:27.604Z</time></trkpt><trkpt lat="43.5459967" lon="13.3151867"><ele>61.99999999999999</ele><time>2026-04-22T14:45:28.604Z</time></trkpt><trkpt lat="43.5459183" lon="13.31519"><ele>64.0</ele><time>2026-04-22T14:45:29.603Z</time></trkpt><trkpt lat="43.5458283" lon="13.31517"><ele>64.0</ele><time>2026-04-22T14:45:30.603Z</time></trkpt><trkpt lat="43.545725" lon="13.315145"><ele>64.0</ele><time>2026-04-22T14:45:31.603Z</time></trkpt><trkpt lat="43.545605" lon="13.315115"><ele>64.0</ele><time>2026-04-22T14:45:32.603Z</time></trkpt><trkpt lat="43.5454667" lon="13.3150833"><ele>64.0</ele><time>2026-04-22T14:45:33.603Z</time></trkpt><trkpt lat="43.54534" lon="13.3150717"><ele>65.60000000000001</ele><time>2026-04-22T14:45:34.603Z</time></trkpt><trkpt lat="43.5452317" lon="13.3150667"><ele>67.2</ele><time>2026-04-22T14:45:35.603Z</time></trkpt><trkpt lat="43.54514" lon="13.3150733"><ele>68.80000000000001</ele><time>2026-04-22T14:45:36.603Z</time></trkpt><trkpt lat="43.545065" lon="13.3150983"><ele>70.4</ele><time>2026-04-22T14:45:37.604Z</time></trkpt><trkpt lat="43.5449933" lon="13.31521"><ele>72.0</ele><time>2026-04-22T14:45:39.603Z</time></trkpt><trkpt lat="43.545055" lon="13.315365"><ele>72.0</ele><time>2026-04-22T14:45:41.603Z</time></trkpt><trkpt lat="43.54512" lon="13.31548"><ele>72.0</ele><time>2026-04-22T14:45:42.603Z</time></trkpt><trkpt lat="43.5451917" lon="13.3155967"><ele>72.0</ele><time>2026-04-22T14:45:43.603Z</time></trkpt><trkpt lat="43.5452667" lon="13.3157217"><ele>72.0</ele><time>2026-04-22T14:45:44.603Z</time></trkpt><trkpt lat="43.5453417" lon="13.31585"><ele>72.25</ele><time>2026-04-22T14:45:45.603Z</time></trkpt><trkpt lat="43.545435" lon="13.316005"><ele>72.5</ele><time>2026-04-22T14:45:46.603Z</time></trkpt><trkpt lat="43.5455167" lon="13.3161567"><ele>72.75</ele><time>2026-04-22T14:45:47.603Z</time></trkpt><trkpt lat="43.5455783" lon="13.3162783"><ele>73.0</ele><time>2026-04-22T14:45:48.603Z</time></trkpt><trkpt lat="43.54565" lon="13.316395"><ele>75.4</ele><time>2026-04-22T14:45:49.603Z</time></trkpt><trkpt lat="43.5456967" lon="13.3164883"><ele>77.8</ele><time>2026-04-22T14:45:50.604Z</time></trkpt><trkpt lat="43.5457433" lon="13.3165783"><ele>80.2</ele><time>2026-04-22T14:45:51.603Z</time></trkpt><trkpt lat="43.545755" lon="13.3167367"><ele>82.6</ele><time>2026-04-22T14:45:53.604Z</time></trkpt><trkpt lat="43.5456567" lon="13.3168017"><ele>85.0</ele><time>2026-04-22T14:45:55.603Z</time></trkpt><trkpt lat="43.545575" lon="13.3167967"><ele>85.0</ele><time>2026-04-22T14:45:56.604Z</time></trkpt><trkpt lat="43.54548" lon="13.3167717"><ele>85.0</ele><time>2026-04-22T14:45:57.603Z</time></trkpt><trkpt lat="43.5453767" lon="13.3167483"><ele>85.0</ele><time>2026-04-22T14:45:58.603Z</time></trkpt><trkpt lat="43.5452533" lon="13.3167333"><ele>85.0</ele><time>2026-04-22T14:45:59.604Z</time></trkpt><trkpt lat="43.545115" lon="13.316705"><ele>87.4</ele><time>2026-04-22T14:46:00.603Z</time></trkpt><trkpt lat="43.5449833" lon="13.31668"><ele>89.8</ele><time>2026-04-22T14:46:01.604Z</time></trkpt><trkpt lat="43.54488" lon="13.3166583"><ele>92.19999999999999</ele><time>2026-04-22T14:46:02.603Z</time></trkpt><trkpt lat="43.5448" lon="13.3166583"><ele>94.6</ele><time>2026-04-22T14:46:03.603Z</time></trkpt><trkpt lat="43.5447383" lon="13.3166933"><ele>97.0</ele><time>2026-04-22T14:46:04.603Z</time></trkpt><trkpt lat="43.5446967" lon="13.3167683"><ele>97.0</ele><time>2026-04-22T14:46:05.603Z</time></trkpt><trkpt lat="43.544685" lon="13.3168583"><ele>97.0</ele><time>2026-04-22T14:46:06.603Z</time></trkpt><trkpt lat="43.544705" lon="13.3169683"><ele>97.0</ele><time>2026-04-22T14:46:07.603Z</time></trkpt><trkpt lat="43.5447433" lon="13.3170983"><ele>97.0</ele><time>2026-04-22T14:46:08.603Z</time></trkpt><trkpt lat="43.5447867" lon="13.3172433"><ele>97.0</ele><time>2026-04-22T14:46:09.604Z</time></trkpt><trkpt lat="43.5448317" lon="13.317415"><ele>100.0</ele><time>2026-04-22T14:46:10.603Z</time></trkpt><trkpt lat="43.5448817" lon="13.3176217"><ele>103.0</ele><time>2026-04-22T14:46:11.603Z</time></trkpt><trkpt lat="43.5449333" lon="13.317835"><ele>106.0</ele><time>2026-04-22T14:46:12.603Z</time></trkpt><trkpt lat="43.5449683" lon="13.3180517"><ele>106.66666666666667</ele><time>2026-04-22T14:46:13.604Z</time></trkpt><trkpt lat="43.5450117" lon="13.3182933"><ele>107.33333333333334</ele><time>2026-04-22T14:46:14.603Z</time></trkpt><trkpt lat="43.54507" lon="13.3185633"><ele>108.0</ele><time>2026-04-22T14:46:15.603Z</time></trkpt><trkpt lat="43.54514" lon="13.3188417"><ele>107.66666666666666</ele><time>2026-04-22T14:46:16.603Z</time></trkpt><trkpt lat="43.5452083" lon="13.3191167"><ele>107.33333333333333</ele><time>2026-04-22T14:46:17.603Z</time></trkpt><trkpt lat="43.54527" lon="13.3193867"><ele>107.0</ele><time>2026-04-22T14:46:18.603Z</time></trkpt><trkpt lat="43.54533" lon="13.3196567"><ele>110.66666666666666</ele><time>2026-04-22T14:46:19.603Z</time></trkpt><trkpt lat="43.545395" lon="13.319925"><ele>114.33333333333334</ele><time>2026-04-22T14:46:20.603Z</time></trkpt><trkpt lat="43.5454633" lon="13.3201833"><ele>118.0</ele><time>2026-04-22T14:46:21.603Z</time></trkpt><trkpt lat="43.5455233" lon="13.32043"><ele>118.33333333333334</ele><time>2026-04-22T14:46:22.603Z</time></trkpt><trkpt lat="43.5455733" lon="13.32067"><ele>118.66666666666666</ele><time>2026-04-22T14:46:23.603Z</time></trkpt><trkpt lat="43.5456233" lon="13.3208833"><ele>119.0</ele><time>2026-04-22T14:46:24.603Z</time></trkpt><trkpt lat="43.5456717" lon="13.3210833"><ele>119.0</ele><time>2026-04-22T14:46:25.603Z</time></trkpt><trkpt lat="43.54572" lon="13.321265"><ele>119.0</ele><time>2026-04-22T14:46:26.603Z</time></trkpt><trkpt lat="43.5457767" lon="13.321445"><ele>119.0</ele><time>2026-04-22T14:46:27.604Z</time></trkpt><trkpt lat="43.5458533" lon="13.3216067"><ele>119.0</ele><time>2026-04-22T14:46:28.603Z</time></trkpt><trkpt lat="43.5459367" lon="13.3217667"><ele>118.5</ele><time>2026-04-22T14:46:29.603Z</time></trkpt><trkpt lat="43.5460167" lon="13.3219217"><ele>118.0</ele><time>2026-04-22T14:46:30.603Z</time></trkpt><trkpt lat="43.5460917" lon="13.3220733"><ele>117.5</ele><time>2026-04-22T14:46:31.603Z</time></trkpt><trkpt lat="43.5461617" lon="13.3222133"><ele>117.0</ele><time>2026-04-22T14:46:32.604Z</time></trkpt><trkpt lat="43.5462233" lon="13.32234"><ele>117.0</ele><time>2026-04-22T14:46:33.603Z</time></trkpt><trkpt lat="43.5462733" lon="13.322475"><ele>116.99999999999999</ele><time>2026-04-22T14:46:34.603Z</time></trkpt><trkpt lat="43.54631" lon="13.3226133"><ele>116.99999999999999</ele><time>2026-04-22T14:46:35.603Z</time></trkpt><trkpt lat="43.5463383" lon="13.32276"><ele>117.0</ele><time>2026-04-22T14:46:36.604Z</time></trkpt><trkpt lat="43.54636" lon="13.32291"><ele>117.0</ele><time>2026-04-22T14:46:37.604Z</time></trkpt><trkpt lat="43.5463767" lon="13.323065"><ele>117.33333333333333</ele><time>2026-04-22T14:46:38.603Z</time></trkpt><trkpt lat="43.546385" lon="13.3232067"><ele>117.66666666666666</ele><time>2026-04-22T14:46:39.603Z</time></trkpt><trkpt lat="43.5463867" lon="13.323345"><ele>118.0</ele><time>2026-04-22T14:46:40.603Z</time></trkpt><trkpt lat="43.5463783" lon="13.3234667"><ele>118.33333333333333</ele><time>2026-04-22T14:46:41.603Z</time></trkpt><trkpt lat="43.5463667" lon="13.323565"><ele>118.66666666666666</ele><time>2026-04-22T14:46:42.603Z</time></trkpt><trkpt lat="43.5463233" lon="13.3236433"><ele>119.0</ele><time>2026-04-22T14:46:43.603Z</time></trkpt><trkpt lat="43.5462617" lon="13.323705"><ele>118.4</ele><time>2026-04-22T14:46:44.603Z</time></trkpt><trkpt lat="43.54619" lon="13.32375"><ele>117.80000000000001</ele><time>2026-04-22T14:46:45.603Z</time></trkpt><trkpt lat="43.546115" lon="13.3237833"><ele>117.19999999999999</ele><time>2026-04-22T14:46:46.603Z</time></trkpt><trkpt lat="43.5460217" lon="13.3238183"><ele>116.6</ele><time>2026-04-22T14:46:47.603Z</time></trkpt><trkpt lat="43.5459067" lon="13.3238667"><ele>116.0</ele><time>2026-04-22T14:46:48.603Z</time></trkpt><trkpt lat="43.5457767" lon="13.323915"><ele>116.0</ele><time>2026-04-22T14:46:49.604Z</time></trkpt><trkpt lat="43.545645" lon="13.3239667"><ele>116.0</ele><time>2026-04-22T14:46:50.603Z</time></trkpt><trkpt lat="43.5455183" lon="13.3240083"><ele>116.0</ele><time>2026-04-22T14:46:51.603Z</time></trkpt><trkpt lat="43.54539" lon="13.324055"><ele>116.0</ele><time>2026-04-22T14:46:52.603Z</time></trkpt><trkpt lat="43.5452633" lon="13.3241017"><ele>115.5</ele><time>2026-04-22T14:46:53.603Z</time></trkpt><trkpt lat="43.5451367" lon="13.3241583"><ele>115.0</ele><time>2026-04-22T14:46:54.603Z</time></trkpt><trkpt lat="43.5450133" lon="13.3241983"><ele>114.5</ele><time>2026-04-22T14:46:55.603Z</time></trkpt><trkpt lat="43.5448967" lon="13.3242317"><ele>114.0</ele><time>2026-04-22T14:46:56.603Z</time></trkpt><trkpt lat="43.5447717" lon="13.3242583"><ele>114.0</ele><time>2026-04-22T14:46:57.603Z</time></trkpt><trkpt lat="43.5446483" lon="13.32426"><ele>114.0</ele><time>2026-04-22T14:46:58.603Z</time></trkpt><trkpt lat="43.54453" lon="13.3242283"><ele>114.0</ele><time>2026-04-22T14:46:59.604Z</time></trkpt><trkpt lat="43.5443983" lon="13.324175"><ele>114.0</ele><time>2026-04-22T14:47:00.603Z</time></trkpt><trkpt lat="43.5442567" lon="13.3241017"><ele>113.0</ele><time>2026-04-22T14:47:01.603Z</time></trkpt><trkpt lat="43.5441133" lon="13.3240167"><ele>112.0</ele><time>2026-04-22T14:47:02.603Z</time></trkpt><trkpt lat="43.54397" lon="13.323935"><ele>111.0</ele><time>2026-04-22T14:47:03.603Z</time></trkpt><trkpt lat="43.5438283" lon="13.3238467"><ele>111.0</ele><time>2026-04-22T14:47:04.603Z</time></trkpt><trkpt lat="43.5436783" lon="13.3237717"><ele>111.0</ele><time>2026-04-22T14:47:05.603Z</time></trkpt><trkpt lat="43.543515" lon="13.3236867"><ele>111.0</ele><time>2026-04-22T14:47:06.603Z</time></trkpt><trkpt lat="43.54336" lon="13.3236083"><ele>111.0</ele><time>2026-04-22T14:47:07.603Z</time></trkpt><trkpt lat="43.5432033" lon="13.3235233"><ele>111.0</ele><time>2026-04-22T14:47:08.603Z</time></trkpt><trkpt lat="43.543045" lon="13.3234317"><ele>111.0</ele><time>2026-04-22T14:47:09.603Z</time></trkpt><trkpt lat="43.5428917" lon="13.3233433"><ele>112.33333333333334</ele><time>2026-04-22T14:47:10.603Z</time></trkpt><trkpt lat="43.5427483" lon="13.3232417"><ele>113.66666666666667</ele><time>2026-04-22T14:47:11.603Z</time></trkpt><trkpt lat="43.542605" lon="13.323135"><ele>115.0</ele><time>2026-04-22T14:47:12.603Z</time></trkpt><trkpt lat="43.54246" lon="13.3230367"><ele>115.0</ele><time>2026-04-22T14:47:13.603Z</time></trkpt><trkpt lat="43.5423183" lon="13.322925"><ele>115.0</ele><time>2026-04-22T14:47:14.603Z</time></trkpt><trkpt lat="43.54219" lon="13.3228183"><ele>115.0</ele><time>2026-04-22T14:47:15.603Z</time></trkpt><trkpt lat="43.5420733" lon="13.322715"><ele>115.5</ele><time>2026-04-22T14:47:16.603Z</time></trkpt><trkpt lat="43.5419733" lon="13.3226033"><ele>116.0</ele><time>2026-04-22T14:47:17.604Z</time></trkpt><trkpt lat="43.541865" lon="13.3224783"><ele>116.5</ele><time>2026-04-22T14:47:18.604Z</time></trkpt><trkpt lat="43.5417583" lon="13.322355"><ele>117.0</ele><time>2026-04-22T14:47:19.604Z</time></trkpt><trkpt lat="43.5416583" lon="13.3222217"><ele>117.0</ele><time>2026-04-22T14:47:20.603Z</time></trkpt><trkpt lat="43.5415633" lon="13.322085"><ele>117.0</ele><time>2026-04-22T14:47:21.603Z</time></trkpt><trkpt lat="43.5414667" lon="13.3219533"><ele>117.0</ele><time>2026-04-22T14:47:22.603Z</time></trkpt><trkpt lat="43.54137" lon="13.3218267"><ele>117.0</ele><time>2026-04-22T14:47:23.603Z</time></trkpt><trkpt lat="43.5412667" lon="13.321695"><ele>117.5</ele><time>2026-04-22T14:47:24.603Z</time></trkpt><trkpt lat="43.5411667" lon="13.3215867"><ele>118.0</ele><time>2026-04-22T14:47:25.604Z</time></trkpt><trkpt lat="43.541055" lon="13.32149"><ele>118.5</ele><time>2026-04-22T14:47:26.603Z</time></trkpt><trkpt lat="43.5409267" lon="13.3214183"><ele>119.0</ele><time>2026-04-22T14:47:27.603Z</time></trkpt><trkpt lat="43.5407817" lon="13.321385"><ele>119.0</ele><time>2026-04-22T14:47:28.603Z</time></trkpt><trkpt lat="43.5406317" lon="13.321385"><ele>119.0</ele><time>2026-04-22T14:47:29.604Z</time></trkpt><trkpt lat="43.5404683" lon="13.32142"><ele>119.0</ele><time>2026-04-22T14:47:30.603Z</time></trkpt><trkpt lat="43.5403033" lon="13.3214633"><ele>117.33333333333333</ele><time>2026-04-22T14:47:31.604Z</time></trkpt><trkpt lat="43.5401367" lon="13.32151"><ele>115.66666666666666</ele><time>2026-04-22T14:47:32.604Z</time></trkpt><trkpt lat="43.5399667" lon="13.321555"><ele>114.0</ele><time>2026-04-22T14:47:33.603Z</time></trkpt><trkpt lat="43.5398033" lon="13.3215933"><ele>114.0</ele><time>2026-04-22T14:47:34.603Z</time></trkpt><trkpt lat="43.5396383" lon="13.32164"><ele>114.0</ele><time>2026-04-22T14:47:35.603Z</time></trkpt><trkpt lat="43.53948" lon="13.3216917"><ele>114.0</ele><time>2026-04-22T14:47:36.603Z</time></trkpt><trkpt lat="43.539335" lon="13.3217233"><ele>113.0</ele><time>2026-04-22T14:47:37.603Z</time></trkpt><trkpt lat="43.539185" lon="13.3217517"><ele>112.0</ele><time>2026-04-22T14:47:38.603Z</time></trkpt><trkpt lat="43.53905" lon="13.321755"><ele>111.0</ele><time>2026-04-22T14:47:39.603Z</time></trkpt><trkpt lat="43.5389267" lon="13.32172"><ele>110.0</ele><time>2026-04-22T14:47:40.603Z</time></trkpt><trkpt lat="43.5388183" lon="13.32168"><ele>109.5</ele><time>2026-04-22T14:47:41.603Z</time></trkpt><trkpt lat="43.5387083" lon="13.3216133"><ele>109.0</ele><time>2026-04-22T14:47:42.603Z</time></trkpt><trkpt lat="43.538605" lon="13.3215317"><ele>108.5</ele><time>2026-04-22T14:47:43.604Z</time></trkpt><trkpt lat="43.538505" lon="13.3214433"><ele>108.0</ele><time>2026-04-22T14:47:44.603Z</time></trkpt><trkpt lat="43.538405" lon="13.3213383"><ele>108.0</ele><time>2026-04-22T14:47:45.603Z</time></trkpt><trkpt lat="43.5383067" lon="13.3212133"><ele>108.0</ele><time>2026-04-22T14:47:46.603Z</time></trkpt><trkpt lat="43.5382033" lon="13.321075"><ele>108.0</ele><time>2026-04-22T14:47:47.604Z</time></trkpt><trkpt lat="43.538115" lon="13.3209267"><ele>108.0</ele><time>2026-04-22T14:47:48.603Z</time></trkpt><trkpt lat="43.538015" lon="13.3207617"><ele>108.0</ele><time>2026-04-22T14:47:49.603Z</time></trkpt><trkpt lat="43.5379183" lon="13.3206"><ele>108.0</ele><time>2026-04-22T14:47:50.603Z</time></trkpt><trkpt lat="43.5378133" lon="13.3204333"><ele>108.0</ele><time>2026-04-22T14:47:51.604Z</time></trkpt><trkpt lat="43.5377017" lon="13.3202783"><ele>108.66666666666666</ele><time>2026-04-22T14:47:52.603Z</time></trkpt><trkpt lat="43.537585" lon="13.3201333"><ele>109.33333333333333</ele><time>2026-04-22T14:47:53.604Z</time></trkpt><trkpt lat="43.5374633" lon="13.32"><ele>110.0</ele><time>2026-04-22T14:47:54.603Z</time></trkpt><trkpt lat="43.5373417" lon="13.31986"><ele>110.66666666666666</ele><time>2026-04-22T14:47:55.603Z</time></trkpt><trkpt lat="43.5372133" lon="13.31971"><ele>111.33333333333334</ele><time>2026-04-22T14:47:56.603Z</time></trkpt><trkpt lat="43.5370783" lon="13.3195683"><ele>112.0</ele><time>2026-04-22T14:47:57.603Z</time></trkpt><trkpt lat="43.53694" lon="13.3194383"><ele>112.0</ele><time>2026-04-22T14:47:58.603Z</time></trkpt><trkpt lat="43.5367933" lon="13.3193267"><ele>112.0</ele><time>2026-04-22T14:47:59.603Z</time></trkpt><trkpt lat="43.5366467" lon="13.319215"><ele>112.0</ele><time>2026-04-22T14:48:00.604Z</time></trkpt><trkpt lat="43.5365117" lon="13.3190883"><ele>112.0</ele><time>2026-04-22T14:48:01.603Z</time></trkpt><trkpt lat="43.536375" lon="13.3189533"><ele>112.0</ele><time>2026-04-22T14:48:02.603Z</time></trkpt><trkpt lat="43.5362433" lon="13.3188117"><ele>112.0</ele><time>2026-04-22T14:48:03.603Z</time></trkpt><trkpt lat="43.5361167" lon="13.318675"><ele>113.25</ele><time>2026-04-22T14:48:04.602Z</time></trkpt><trkpt lat="43.5360083" lon="13.3185417"><ele>114.5</ele><time>2026-04-22T14:48:05.603Z</time></trkpt><trkpt lat="43.5359067" lon="13.3184217"><ele>115.75</ele><time>2026-04-22T14:48:06.602Z</time></trkpt><trkpt lat="43.5358067" lon="13.3183267"><ele>117.0</ele><time>2026-04-22T14:48:07.602Z</time></trkpt><trkpt lat="43.5356883" lon="13.3182533"><ele>117.0</ele><time>2026-04-22T14:48:08.602Z</time></trkpt><trkpt lat="43.535555" lon="13.3182017"><ele>117.0</ele><time>2026-04-22T14:48:09.602Z</time></trkpt><trkpt lat="43.5354083" lon="13.3181683"><ele>117.0</ele><time>2026-04-22T14:48:10.602Z</time></trkpt><trkpt lat="43.53526" lon="13.318125"><ele>117.0</ele><time>2026-04-22T14:48:11.602Z</time></trkpt><trkpt lat="43.5351083" lon="13.318085"><ele>117.0</ele><time>2026-04-22T14:48:12.603Z</time></trkpt><trkpt lat="43.5349667" lon="13.3180483"><ele>117.0</ele><time>2026-04-22T14:48:13.602Z</time></trkpt><trkpt lat="43.5348417" lon="13.3180117"><ele>117.0</ele><time>2026-04-22T14:48:14.602Z</time></trkpt><trkpt lat="43.5347217" lon="13.317965"><ele>117.0</ele><time>2026-04-22T14:48:15.602Z</time></trkpt><trkpt lat="43.534605" lon="13.3179233"><ele>118.5</ele><time>2026-04-22T14:48:16.602Z</time></trkpt><trkpt lat="43.534485" lon="13.317895"><ele>120.0</ele><time>2026-04-22T14:48:17.602Z</time></trkpt><trkpt lat="43.5343667" lon="13.3178767"><ele>121.5</ele><time>2026-04-22T14:48:18.602Z</time></trkpt><trkpt lat="43.5342417" lon="13.3178767"><ele>123.0</ele><time>2026-04-22T14:48:19.603Z</time></trkpt><trkpt lat="43.53412" lon="13.3178983"><ele>123.0</ele><time>2026-04-22T14:48:20.603Z</time></trkpt><trkpt lat="43.5340083" lon="13.3179317"><ele>123.0</ele><time>2026-04-22T14:48:21.602Z</time></trkpt><trkpt lat="43.533895" lon="13.317975"><ele>123.0</ele><time>2026-04-22T14:48:22.602Z</time></trkpt><trkpt lat="43.53379" lon="13.318025"><ele>123.0</ele><time>2026-04-22T14:48:23.602Z</time></trkpt><trkpt lat="43.5336867" lon="13.3180683"><ele>122.0</ele><time>2026-04-22T14:48:24.602Z</time></trkpt><trkpt lat="43.5335967" lon="13.3180883"><ele>121.00000000000001</ele><time>2026-04-22T14:48:25.602Z</time></trkpt><trkpt lat="43.533505" lon="13.3181083"><ele>120.00000000000001</ele><time>2026-04-22T14:48:26.602Z</time></trkpt><trkpt lat="43.5334117" lon="13.3181117"><ele>119.0</ele><time>2026-04-22T14:48:27.602Z</time></trkpt><trkpt lat="43.5333183" lon="13.3181133"><ele>118.0</ele><time>2026-04-22T14:48:28.603Z</time></trkpt><trkpt lat="43.5332167" lon="13.31812"><ele>118.0</ele><time>2026-04-22T14:48:29.602Z</time></trkpt><trkpt lat="43.5330933" lon="13.3181283"><ele>118.0</ele><time>2026-04-22T14:48:30.603Z</time></trkpt><trkpt lat="43.5329567" lon="13.31813"><ele>118.0</ele><time>2026-04-22T14:48:31.602Z</time></trkpt><trkpt lat="43.5328217" lon="13.318135"><ele>118.0</ele><time>2026-04-22T14:48:32.602Z</time></trkpt><trkpt lat="43.5326917" lon="13.3181367"><ele>118.75</ele><time>2026-04-22T14:48:33.602Z</time></trkpt><trkpt lat="43.5325567" lon="13.3181633"><ele>119.5</ele><time>2026-04-22T14:48:34.602Z</time></trkpt><trkpt lat="43.5324167" lon="13.3182133"><ele>120.25</ele><time>2026-04-22T14:48:35.602Z</time></trkpt><trkpt lat="43.5322767" lon="13.3182683"><ele>121.0</ele><time>2026-04-22T14:48:36.602Z</time></trkpt><trkpt lat="43.532135" lon="13.318325"><ele>120.5</ele><time>2026-04-22T14:48:37.602Z</time></trkpt><trkpt lat="43.531995" lon="13.31838"><ele>120.0</ele><time>2026-04-22T14:48:38.602Z</time></trkpt><trkpt lat="43.5318567" lon="13.3184367"><ele>119.5</ele><time>2026-04-22T14:48:39.602Z</time></trkpt><trkpt lat="43.531725" lon="13.3184883"><ele>119.0</ele><time>2026-04-22T14:48:40.602Z</time></trkpt><trkpt lat="43.5315933" lon="13.3185333"><ele>119.0</ele><time>2026-04-22T14:48:41.602Z</time></trkpt><trkpt lat="43.53146" lon="13.3185967"><ele>119.0</ele><time>2026-04-22T14:48:42.602Z</time></trkpt><trkpt lat="43.5313233" lon="13.3186433"><ele>119.0</ele><time>2026-04-22T14:48:43.602Z</time></trkpt><trkpt lat="43.5311967" lon="13.3186833"><ele>119.0</ele><time>2026-04-22T14:48:44.602Z</time></trkpt><trkpt lat="43.53108" lon="13.31871"><ele>119.0</ele><time>2026-04-22T14:48:45.602Z</time></trkpt><trkpt lat="43.5309617" lon="13.318705"><ele>119.0</ele><time>2026-04-22T14:48:46.603Z</time></trkpt><trkpt lat="43.530855" lon="13.3186833"><ele>119.0</ele><time>2026-04-22T14:48:47.602Z</time></trkpt><trkpt lat="43.530745" lon="13.318645"><ele>119.0</ele><time>2026-04-22T14:48:48.602Z</time></trkpt><trkpt lat="43.530635" lon="13.3185967"><ele>119.0</ele><time>2026-04-22T14:48:49.602Z</time></trkpt><trkpt lat="43.5305317" lon="13.3185517"><ele>119.0</ele><time>2026-04-22T14:48:50.602Z</time></trkpt><trkpt lat="43.530435" lon="13.3185033"><ele>119.0</ele><time>2026-04-22T14:48:51.602Z</time></trkpt><trkpt lat="43.5303483" lon="13.3184417"><ele>119.0</ele><time>2026-04-22T14:48:52.602Z</time></trkpt><trkpt lat="43.5302767" lon="13.31835"><ele>119.0</ele><time>2026-04-22T14:48:53.602Z</time></trkpt><trkpt lat="43.5302183" lon="13.3182417"><ele>119.80000000000001</ele><time>2026-04-22T14:48:54.602Z</time></trkpt><trkpt lat="43.5301683" lon="13.3181267"><ele>120.60000000000001</ele><time>2026-04-22T14:48:55.602Z</time></trkpt><trkpt lat="43.5301167" lon="13.31801"><ele>121.4</ele><time>2026-04-22T14:48:56.602Z</time></trkpt><trkpt lat="43.5300617" lon="13.3178917"><ele>122.2</ele><time>2026-04-22T14:48:57.602Z</time></trkpt><trkpt lat="43.5299917" lon="13.317785"><ele>123.0</ele><time>2026-04-22T14:48:58.602Z</time></trkpt><trkpt lat="43.52992" lon="13.3176733"><ele>122.60000000000001</ele><time>2026-04-22T14:48:59.602Z</time></trkpt><trkpt lat="43.5298583" lon="13.3175667"><ele>122.20000000000002</ele><time>2026-04-22T14:49:00.602Z</time></trkpt><trkpt lat="43.5297883" lon="13.3174583"><ele>121.8</ele><time>2026-04-22T14:49:01.602Z</time></trkpt><trkpt lat="43.5297183" lon="13.317355"><ele>121.4</ele><time>2026-04-22T14:49:02.602Z</time></trkpt><trkpt lat="43.5296483" lon="13.3172517"><ele>121.0</ele><time>2026-04-22T14:49:03.602Z</time></trkpt><trkpt lat="43.52957" lon="13.31715"><ele>122.6</ele><time>2026-04-22T14:49:04.602Z</time></trkpt><trkpt lat="43.529505" lon="13.317055"><ele>124.19999999999999</ele><time>2026-04-22T14:49:05.602Z</time></trkpt><trkpt lat="43.5294433" lon="13.3169567"><ele>125.80000000000001</ele><time>2026-04-22T14:49:06.603Z</time></trkpt><trkpt lat="43.5293717" lon="13.3168567"><ele>127.4</ele><time>2026-04-22T14:49:07.602Z</time></trkpt><trkpt lat="43.5292983" lon="13.3167517"><ele>129.0</ele><time>2026-04-22T14:49:08.602Z</time></trkpt><trkpt lat="43.5292283" lon="13.3166333"><ele>129.0</ele><time>2026-04-22T14:49:09.603Z</time></trkpt><trkpt lat="43.5291567" lon="13.3165133"><ele>129.0</ele><time>2026-04-22T14:49:10.602Z</time></trkpt><trkpt lat="43.5290833" lon="13.316385"><ele>129.0</ele><time>2026-04-22T14:49:11.602Z</time></trkpt><trkpt lat="43.5290083" lon="13.3162433"><ele>129.0</ele><time>2026-04-22T14:49:12.603Z</time></trkpt><trkpt lat="43.52894" lon="13.3160817"><ele>128.75</ele><time>2026-04-22T14:49:13.603Z</time></trkpt><trkpt lat="43.528875" lon="13.3159233"><ele>128.5</ele><time>2026-04-22T14:49:14.603Z</time></trkpt><trkpt lat="43.5288167" lon="13.315775"><ele>128.25</ele><time>2026-04-22T14:49:15.602Z</time></trkpt><trkpt lat="43.5287683" lon="13.3156533"><ele>128.0</ele><time>2026-04-22T14:49:16.602Z</time></trkpt><trkpt lat="43.5287317" lon="13.3155283"><ele>129.8</ele><time>2026-04-22T14:49:17.602Z</time></trkpt><trkpt lat="43.5286917" lon="13.315425"><ele>131.60000000000002</ele><time>2026-04-22T14:49:18.603Z</time></trkpt><trkpt lat="43.52866" lon="13.3153383"><ele>133.39999999999998</ele><time>2026-04-22T14:49:19.602Z</time></trkpt><trkpt lat="43.52857" lon="13.3152633"><ele>135.2</ele><time>2026-04-22T14:49:21.602Z</time></trkpt><trkpt lat="43.5284633" lon="13.31529"><ele>137.0</ele><time>2026-04-22T14:49:23.603Z</time></trkpt><trkpt lat="43.5283633" lon="13.315405"><ele>137.0</ele><time>2026-04-22T14:49:25.602Z</time></trkpt><trkpt lat="43.5282983" lon="13.3154933"><ele>137.0</ele><time>2026-04-22T14:49:26.602Z</time></trkpt><trkpt lat="43.52823" lon="13.3155783"><ele>137.0</ele><time>2026-04-22T14:49:27.602Z</time></trkpt><trkpt lat="43.5281667" lon="13.3156433"><ele>137.0</ele><time>2026-04-22T14:49:28.602Z</time></trkpt><trkpt lat="43.5280817" lon="13.3157233"><ele>137.0</ele><time>2026-04-22T14:49:29.602Z</time></trkpt><trkpt lat="43.5279933" lon="13.31581"><ele>137.0</ele><time>2026-04-22T14:49:30.602Z</time></trkpt><trkpt lat="43.527905" lon="13.3159033"><ele>137.0</ele><time>2026-04-22T14:49:31.602Z</time></trkpt><trkpt lat="43.527815" lon="13.3160233"><ele>137.0</ele><time>2026-04-22T14:49:32.602Z</time></trkpt><trkpt lat="43.52772" lon="13.31615"><ele>137.0</ele><time>2026-04-22T14:49:33.602Z</time></trkpt><trkpt lat="43.5276233" lon="13.3162817"><ele>134.0</ele><time>2026-04-22T14:49:34.602Z</time></trkpt><trkpt lat="43.5275367" lon="13.3164067"><ele>131.0</ele><time>2026-04-22T14:49:35.603Z</time></trkpt><trkpt lat="43.52745" lon="13.3165367"><ele>128.0</ele><time>2026-04-22T14:49:36.602Z</time></trkpt><trkpt lat="43.5273683" lon="13.3166533"><ele>125.0</ele><time>2026-04-22T14:49:37.603Z</time></trkpt><trkpt lat="43.5272783" lon="13.3167733"><ele>125.0</ele><time>2026-04-22T14:49:38.602Z</time></trkpt><trkpt lat="43.5271883" lon="13.3169033"><ele>125.0</ele><time>2026-04-22T14:49:39.602Z</time></trkpt><trkpt lat="43.527095" lon="13.3170317"><ele>125.0</ele><time>2026-04-22T14:49:40.602Z</time></trkpt><trkpt lat="43.5270033" lon="13.3171617"><ele>125.0</ele><time>2026-04-22T14:49:41.602Z</time></trkpt><trkpt lat="43.5269117" lon="13.317285"><ele>124.25</ele><time>2026-04-22T14:49:42.602Z</time></trkpt><trkpt lat="43.5268117" lon="13.3174033"><ele>123.5</ele><time>2026-04-22T14:49:43.602Z</time></trkpt><trkpt lat="43.526725" lon="13.3175167"><ele>122.75</ele><time>2026-04-22T14:49:44.602Z</time></trkpt><trkpt lat="43.526635" lon="13.317645"><ele>122.0</ele><time>2026-04-22T14:49:45.602Z</time></trkpt><trkpt lat="43.5265517" lon="13.3177683"><ele>122.0</ele><time>2026-04-22T14:49:46.602Z</time></trkpt><trkpt lat="43.5264633" lon="13.3179033"><ele>122.0</ele><time>2026-04-22T14:49:47.602Z</time></trkpt><trkpt lat="43.5263733" lon="13.318025"><ele>122.0</ele><time>2026-04-22T14:49:48.602Z</time></trkpt><trkpt lat="43.5262783" lon="13.31815"><ele>122.0</ele><time>2026-04-22T14:49:49.602Z</time></trkpt><trkpt lat="43.526185" lon="13.3182733"><ele>120.75</ele><time>2026-04-22T14:49:50.602Z</time></trkpt><trkpt lat="43.5260867" lon="13.318385"><ele>119.5</ele><time>2026-04-22T14:49:51.602Z</time></trkpt><trkpt lat="43.5260017" lon="13.3184933"><ele>118.25</ele><time>2026-04-22T14:49:52.602Z</time></trkpt><trkpt lat="43.5259267" lon="13.3186117"><ele>117.0</ele><time>2026-04-22T14:49:53.603Z</time></trkpt><trkpt lat="43.52587" lon="13.3187283"><ele>117.0</ele><time>2026-04-22T14:49:54.603Z</time></trkpt><trkpt lat="43.5258233" lon="13.3188867"><ele>117.0</ele><time>2026-04-22T14:49:55.602Z</time></trkpt><trkpt lat="43.525795" lon="13.3190617"><ele>117.0</ele><time>2026-04-22T14:49:56.602Z</time></trkpt><trkpt lat="43.5257617" lon="13.3192183"><ele>117.0</ele><time>2026-04-22T14:49:57.602Z</time></trkpt><trkpt lat="43.5257317" lon="13.3193617"><ele>116.6</ele><time>2026-04-22T14:49:58.602Z</time></trkpt><trkpt lat="43.5256867" lon="13.3194867"><ele>116.19999999999999</ele><time>2026-04-22T14:49:59.602Z</time></trkpt><trkpt lat="43.5256217" lon="13.3196083"><ele>115.8</ele><time>2026-04-22T14:50:00.602Z</time></trkpt><trkpt lat="43.525545" lon="13.3197283"><ele>115.4</ele><time>2026-04-22T14:50:01.602Z</time></trkpt><trkpt lat="43.525465" lon="13.31983"><ele>115.0</ele><time>2026-04-22T14:50:02.602Z</time></trkpt><trkpt lat="43.525385" lon="13.31993"><ele>114.83333333333334</ele><time>2026-04-22T14:50:03.602Z</time></trkpt><trkpt lat="43.525315" lon="13.3200167"><ele>114.66666666666667</ele><time>2026-04-22T14:50:04.602Z</time></trkpt><trkpt lat="43.5252433" lon="13.320085"><ele>114.5</ele><time>2026-04-22T14:50:05.603Z</time></trkpt><trkpt lat="43.5251783" lon="13.3201483"><ele>114.33333333333334</ele><time>2026-04-22T14:50:06.602Z</time></trkpt><trkpt lat="43.525105" lon="13.320195"><ele>114.16666666666667</ele><time>2026-04-22T14:50:07.602Z</time></trkpt><trkpt lat="43.52502" lon="13.3202283"><ele>114.0</ele><time>2026-04-22T14:50:08.603Z</time></trkpt><trkpt lat="43.524915" lon="13.320265"><ele>114.0</ele><time>2026-04-22T14:50:09.602Z</time></trkpt><trkpt lat="43.5248033" lon="13.320295"><ele>114.0</ele><time>2026-04-22T14:50:10.602Z</time></trkpt><trkpt lat="43.5246833" lon="13.3203367"><ele>114.0</ele><time>2026-04-22T14:50:11.602Z</time></trkpt><trkpt lat="43.5245667" lon="13.3203633"><ele>114.0</ele><time>2026-04-22T14:50:12.603Z</time></trkpt><trkpt lat="43.5244483" lon="13.32041"><ele>113.25</ele><time>2026-04-22T14:50:13.602Z</time></trkpt><trkpt lat="43.5243283" lon="13.32046"><ele>112.5</ele><time>2026-04-22T14:50:14.602Z</time></trkpt><trkpt lat="43.5242083" lon="13.3204967"><ele>111.75</ele><time>2026-04-22T14:50:15.602Z</time></trkpt><trkpt lat="43.52409" lon="13.3205333"><ele>111.0</ele><time>2026-04-22T14:50:16.602Z</time></trkpt><trkpt lat="43.5239717" lon="13.3205867"><ele>110.19999999999999</ele><time>2026-04-22T14:50:17.603Z</time></trkpt><trkpt lat="43.5238683" lon="13.3206467"><ele>109.39999999999999</ele><time>2026-04-22T14:50:18.603Z</time></trkpt><trkpt lat="43.523765" lon="13.3207017"><ele>108.6</ele><time>2026-04-22T14:50:19.602Z</time></trkpt><trkpt lat="43.5236583" lon="13.3207567"><ele>107.8</ele><time>2026-04-22T14:50:20.602Z</time></trkpt><trkpt lat="43.5235567" lon="13.3208083"><ele>107.0</ele><time>2026-04-22T14:50:21.602Z</time></trkpt><trkpt lat="43.5234583" lon="13.3208633"><ele>107.0</ele><time>2026-04-22T14:50:22.602Z</time></trkpt><trkpt lat="43.5233533" lon="13.3209117"><ele>106.99999999999999</ele><time>2026-04-22T14:50:23.602Z</time></trkpt><trkpt lat="43.5232567" lon="13.3209617"><ele>106.99999999999999</ele><time>2026-04-22T14:50:24.602Z</time></trkpt><trkpt lat="43.5231733" lon="13.321005"><ele>107.0</ele><time>2026-04-22T14:50:25.602Z</time></trkpt><trkpt lat="43.5230933" lon="13.32103"><ele>107.0</ele><time>2026-04-22T14:50:26.603Z</time></trkpt><trkpt lat="43.52301" lon="13.3210333"><ele>107.0</ele><time>2026-04-22T14:50:27.602Z</time></trkpt><trkpt lat="43.5229217" lon="13.3210133"><ele>106.99999999999999</ele><time>2026-04-22T14:50:28.602Z</time></trkpt><trkpt lat="43.522825" lon="13.3209733"><ele>106.99999999999999</ele><time>2026-04-22T14:50:29.603Z</time></trkpt><trkpt lat="43.522735" lon="13.3209183"><ele>107.0</ele><time>2026-04-22T14:50:30.602Z</time></trkpt><trkpt lat="43.5226333" lon="13.32087"><ele>107.0</ele><time>2026-04-22T14:50:31.602Z</time></trkpt><trkpt lat="43.522525" lon="13.32084"><ele>105.5</ele><time>2026-04-22T14:50:32.602Z</time></trkpt><trkpt lat="43.522405" lon="13.3208183"><ele>104.0</ele><time>2026-04-22T14:50:33.602Z</time></trkpt><trkpt lat="43.5222783" lon="13.3208083"><ele>102.5</ele><time>2026-04-22T14:50:34.602Z</time></trkpt><trkpt lat="43.52216" lon="13.3208033"><ele>101.0</ele><time>2026-04-22T14:50:35.602Z</time></trkpt><trkpt lat="43.522035" lon="13.3208"><ele>98.25</ele><time>2026-04-22T14:50:36.602Z</time></trkpt><trkpt lat="43.5219133" lon="13.3208067"><ele>95.5</ele><time>2026-04-22T14:50:37.602Z</time></trkpt><trkpt lat="43.52179" lon="13.3208133"><ele>92.75</ele><time>2026-04-22T14:50:38.602Z</time></trkpt><trkpt lat="43.521665" lon="13.32081"><ele>90.0</ele><time>2026-04-22T14:50:39.602Z</time></trkpt><trkpt lat="43.52154" lon="13.3208117"><ele>90.0</ele><time>2026-04-22T14:50:40.602Z</time></trkpt><trkpt lat="43.521415" lon="13.320805"><ele>90.0</ele><time>2026-04-22T14:50:41.603Z</time></trkpt><trkpt lat="43.5212817" lon="13.3208017"><ele>90.0</ele><time>2026-04-22T14:50:42.602Z</time></trkpt><trkpt lat="43.521155" lon="13.320795"><ele>90.0</ele><time>2026-04-22T14:50:43.602Z</time></trkpt><trkpt lat="43.5210167" lon="13.320805"><ele>87.25</ele><time>2026-04-22T14:50:44.602Z</time></trkpt><trkpt lat="43.5208967" lon="13.320805"><ele>84.5</ele><time>2026-04-22T14:50:45.602Z</time></trkpt><trkpt lat="43.52078" lon="13.3208067"><ele>81.75</ele><time>2026-04-22T14:50:46.602Z</time></trkpt><trkpt lat="43.5206617" lon="13.3208133"><ele>79.0</ele><time>2026-04-22T14:50:47.602Z</time></trkpt><trkpt lat="43.52055" lon="13.320805"><ele>79.0</ele><time>2026-04-22T14:50:48.602Z</time></trkpt><trkpt lat="43.520445" lon="13.3208083"><ele>79.0</ele><time>2026-04-22T14:50:49.602Z</time></trkpt><trkpt lat="43.5203517" lon="13.3208"><ele>79.0</ele><time>2026-04-22T14:50:50.602Z</time></trkpt><trkpt lat="43.5202567" lon="13.3208"><ele>79.0</ele><time>2026-04-22T14:50:51.602Z</time></trkpt><trkpt lat="43.520165" lon="13.3208117"><ele>79.0</ele><time>2026-04-22T14:50:52.602Z</time></trkpt><trkpt lat="43.5200717" lon="13.3208517"><ele>77.16666666666666</ele><time>2026-04-22T14:50:53.602Z</time></trkpt><trkpt lat="43.5199867" lon="13.32092"><ele>75.33333333333333</ele><time>2026-04-22T14:50:54.602Z</time></trkpt><trkpt lat="43.51992" lon="13.32099"><ele>73.5</ele><time>2026-04-22T14:50:55.603Z</time></trkpt><trkpt lat="43.5198583" lon="13.3210567"><ele>71.66666666666667</ele><time>2026-04-22T14:50:56.602Z</time></trkpt><trkpt lat="43.5198" lon="13.3211433"><ele>69.83333333333334</ele><time>2026-04-22T14:50:57.602Z</time></trkpt><trkpt lat="43.5197667" lon="13.3212633"><ele>68.0</ele><time>2026-04-22T14:50:58.602Z</time></trkpt><trkpt lat="43.5197467" lon="13.3214033"><ele>67.0</ele><time>2026-04-22T14:50:59.603Z</time></trkpt><trkpt lat="43.5197167" lon="13.3215483"><ele>66.0</ele><time>2026-04-22T14:51:00.602Z</time></trkpt><trkpt lat="43.5196683" lon="13.321685"><ele>65.0</ele><time>2026-04-22T14:51:01.602Z</time></trkpt><trkpt lat="43.519605" lon="13.321825"><ele>64.0</ele><time>2026-04-22T14:51:02.602Z</time></trkpt><trkpt lat="43.5195233" lon="13.3219517"><ele>62.75</ele><time>2026-04-22T14:51:03.603Z</time></trkpt><trkpt lat="43.5194383" lon="13.3220683"><ele>61.5</ele><time>2026-04-22T14:51:04.602Z</time></trkpt><trkpt lat="43.5193517" lon="13.3221867"><ele>60.25</ele><time>2026-04-22T14:51:05.602Z</time></trkpt><trkpt lat="43.5192567" lon="13.32232"><ele>59.0</ele><time>2026-04-22T14:51:06.602Z</time></trkpt><trkpt lat="43.5191683" lon="13.3224417"><ele>58.25</ele><time>2026-04-22T14:51:07.603Z</time></trkpt><trkpt lat="43.5190717" lon="13.3225767"><ele>57.5</ele><time>2026-04-22T14:51:08.602Z</time></trkpt><trkpt lat="43.5189883" lon="13.3226933"><ele>56.75</ele><time>2026-04-22T14:51:09.602Z</time></trkpt><trkpt lat="43.51891" lon="13.32279"><ele>56.0</ele><time>2026-04-22T14:51:10.602Z</time></trkpt><trkpt lat="43.5188183" lon="13.3228433"><ele>57.0</ele><time>2026-04-22T14:51:11.602Z</time></trkpt><trkpt lat="43.5187233" lon="13.3228567"><ele>58.0</ele><time>2026-04-22T14:51:12.602Z</time></trkpt><trkpt lat="43.5186133" lon="13.32285"><ele>59.0</ele><time>2026-04-22T14:51:13.602Z</time></trkpt><trkpt lat="43.518495" lon="13.32281"><ele>60.0</ele><time>2026-04-22T14:51:14.603Z</time></trkpt><trkpt lat="43.5183583" lon="13.3227517"><ele>60.0</ele><time>2026-04-22T14:51:15.603Z</time></trkpt><trkpt lat="43.5182267" lon="13.3226817"><ele>60.0</ele><time>2026-04-22T14:51:16.602Z</time></trkpt><trkpt lat="43.518095" lon="13.3226117"><ele>60.0</ele><time>2026-04-22T14:51:17.602Z</time></trkpt><trkpt lat="43.5179617" lon="13.322555"><ele>60.0</ele><time>2026-04-22T14:51:18.602Z</time></trkpt><trkpt lat="43.5178317" lon="13.3224983"><ele>60.75</ele><time>2026-04-22T14:51:19.602Z</time></trkpt><trkpt lat="43.517695" lon="13.322435"><ele>61.5</ele><time>2026-04-22T14:51:20.602Z</time></trkpt><trkpt lat="43.5175633" lon="13.3223833"><ele>62.25</ele><time>2026-04-22T14:51:21.602Z</time></trkpt><trkpt lat="43.517435" lon="13.3223233"><ele>63.0</ele><time>2026-04-22T14:51:22.602Z</time></trkpt><trkpt lat="43.5173217" lon="13.32227"><ele>63.599999999999994</ele><time>2026-04-22T14:51:23.603Z</time></trkpt><trkpt lat="43.5172167" lon="13.3222133"><ele>64.19999999999999</ele><time>2026-04-22T14:51:24.602Z</time></trkpt><trkpt lat="43.5171183" lon="13.3221583"><ele>64.8</ele><time>2026-04-22T14:51:25.602Z</time></trkpt><trkpt lat="43.51703" lon="13.3221083"><ele>65.39999999999999</ele><time>2026-04-22T14:51:26.602Z</time></trkpt><trkpt lat="43.5169517" lon="13.3220317"><ele>66.0</ele><time>2026-04-22T14:51:27.603Z</time></trkpt><trkpt lat="43.5168933" lon="13.32193"><ele>68.2</ele><time>2026-04-22T14:51:28.603Z</time></trkpt><trkpt lat="43.5168467" lon="13.3218083"><ele>70.39999999999999</ele><time>2026-04-22T14:51:29.603Z</time></trkpt><trkpt lat="43.5167967" lon="13.3216717"><ele>72.6</ele><time>2026-04-22T14:51:30.602Z</time></trkpt><trkpt lat="43.516775" lon="13.3215367"><ele>74.8</ele><time>2026-04-22T14:51:31.602Z</time></trkpt><trkpt lat="43.5167683" lon="13.32139"><ele>77.0</ele><time>2026-04-22T14:51:32.602Z</time></trkpt><trkpt lat="43.5167667" lon="13.3212283"><ele>78.2</ele><time>2026-04-22T14:51:33.602Z</time></trkpt><trkpt lat="43.5167533" lon="13.3210733"><ele>79.4</ele><time>2026-04-22T14:51:34.602Z</time></trkpt><trkpt lat="43.51673" lon="13.3209333"><ele>80.60000000000001</ele><time>2026-04-22T14:51:35.602Z</time></trkpt><trkpt lat="43.5166967" lon="13.3208033"><ele>81.80000000000001</ele><time>2026-04-22T14:51:36.602Z</time></trkpt><trkpt lat="43.5166483" lon="13.320685"><ele>83.0</ele><time>2026-04-22T14:51:37.602Z</time></trkpt><trkpt lat="43.5165833" lon="13.3205817"><ele>82.2</ele><time>2026-04-22T14:51:38.602Z</time></trkpt><trkpt lat="43.516505" lon="13.3205017"><ele>81.4</ele><time>2026-04-22T14:51:39.602Z</time></trkpt><trkpt lat="43.5164233" lon="13.3204467"><ele>80.60000000000001</ele><time>2026-04-22T14:51:40.602Z</time></trkpt><trkpt lat="43.5163267" lon="13.3204167"><ele>79.80000000000001</ele><time>2026-04-22T14:51:41.602Z</time></trkpt><trkpt lat="43.51622" lon="13.3203917"><ele>79.0</ele><time>2026-04-22T14:51:42.602Z</time></trkpt><trkpt lat="43.5161217" lon="13.320355"><ele>84.0</ele><time>2026-04-22T14:51:43.602Z</time></trkpt><trkpt lat="43.5160283" lon="13.320285"><ele>89.0</ele><time>2026-04-22T14:51:44.603Z</time></trkpt><trkpt lat="43.5159317" lon="13.320195"><ele>94.0</ele><time>2026-04-22T14:51:45.602Z</time></trkpt><trkpt lat="43.5158533" lon="13.3200867"><ele>99.0</ele><time>2026-04-22T14:51:46.602Z</time></trkpt><trkpt lat="43.5157667" lon="13.3199717"><ele>99.0</ele><time>2026-04-22T14:51:47.602Z</time></trkpt><trkpt lat="43.5156733" lon="13.319885"><ele>99.0</ele><time>2026-04-22T14:51:48.602Z</time></trkpt><trkpt lat="43.5155817" lon="13.3198267"><ele>99.0</ele><time>2026-04-22T14:51:49.602Z</time></trkpt><trkpt lat="43.5154833" lon="13.3197817"><ele>99.0</ele><time>2026-04-22T14:51:50.602Z</time></trkpt><trkpt lat="43.5153767" lon="13.319765"><ele>99.0</ele><time>2026-04-22T14:51:51.602Z</time></trkpt><trkpt lat="43.5152667" lon="13.3197567"><ele>100.75</ele><time>2026-04-22T14:51:52.602Z</time></trkpt><trkpt lat="43.5151583" lon="13.3197417"><ele>102.5</ele><time>2026-04-22T14:51:53.602Z</time></trkpt><trkpt lat="43.5150483" lon="13.3197267"><ele>104.25</ele><time>2026-04-22T14:51:54.602Z</time></trkpt><trkpt lat="43.5149267" lon="13.3196967"><ele>106.0</ele><time>2026-04-22T14:51:55.602Z</time></trkpt><trkpt lat="43.5148017" lon="13.31965"><ele>106.0</ele><time>2026-04-22T14:51:56.602Z</time></trkpt><trkpt lat="43.5146767" lon="13.3196"><ele>106.0</ele><time>2026-04-22T14:51:57.602Z</time></trkpt><trkpt lat="43.514555" lon="13.3195633"><ele>106.0</ele><time>2026-04-22T14:51:58.602Z</time></trkpt><trkpt lat="43.514435" lon="13.3195317"><ele>106.0</ele><time>2026-04-22T14:51:59.602Z</time></trkpt><trkpt lat="43.5143083" lon="13.319515"><ele>109.0</ele><time>2026-04-22T14:52:00.602Z</time></trkpt><trkpt lat="43.51419" lon="13.3195217"><ele>112.0</ele><time>2026-04-22T14:52:01.602Z</time></trkpt><trkpt lat="43.514065" lon="13.3195367"><ele>115.0</ele><time>2026-04-22T14:52:02.602Z</time></trkpt><trkpt lat="43.5139417" lon="13.319545"><ele>118.0</ele><time>2026-04-22T14:52:03.602Z</time></trkpt><trkpt lat="43.5138183" lon="13.3195367"><ele>119.5</ele><time>2026-04-22T14:52:04.602Z</time></trkpt><trkpt lat="43.513695" lon="13.3195217"><ele>121.0</ele><time>2026-04-22T14:52:05.602Z</time></trkpt><trkpt lat="43.5135683" lon="13.3194783"><ele>122.5</ele><time>2026-04-22T14:52:06.602Z</time></trkpt><trkpt lat="43.51344" lon="13.319435"><ele>124.0</ele><time>2026-04-22T14:52:07.603Z</time></trkpt><trkpt lat="43.51332" lon="13.3193833"><ele>124.0</ele><time>2026-04-22T14:52:08.602Z</time></trkpt><trkpt lat="43.5132" lon="13.3193217"><ele>124.0</ele><time>2026-04-22T14:52:09.602Z</time></trkpt><trkpt lat="43.5130733" lon="13.3192617"><ele>124.0</ele><time>2026-04-22T14:52:10.602Z</time></trkpt><trkpt lat="43.51295" lon="13.3192133"><ele>124.0</ele><time>2026-04-22T14:52:11.602Z</time></trkpt><trkpt lat="43.512825" lon="13.3191683"><ele>125.0</ele><time>2026-04-22T14:52:12.602Z</time></trkpt><trkpt lat="43.5127" lon="13.3191233"><ele>126.0</ele><time>2026-04-22T14:52:13.603Z</time></trkpt><trkpt lat="43.5125817" lon="13.3190967"><ele>127.0</ele><time>2026-04-22T14:52:14.602Z</time></trkpt><trkpt lat="43.5124683" lon="13.3190833"><ele>128.0</ele><time>2026-04-22T14:52:15.603Z</time></trkpt><trkpt lat="43.5123583" lon="13.3190583"><ele>128.0</ele><time>2026-04-22T14:52:16.603Z</time></trkpt><trkpt lat="43.5122517" lon="13.3190267"><ele>128.0</ele><time>2026-04-22T14:52:17.602Z</time></trkpt><trkpt lat="43.512135" lon="13.318985"><ele>128.0</ele><time>2026-04-22T14:52:18.602Z</time></trkpt><trkpt lat="43.5120183" lon="13.3189267"><ele>128.0</ele><time>2026-04-22T14:52:19.602Z</time></trkpt><trkpt lat="43.5119033" lon="13.31886"><ele>127.75</ele><time>2026-04-22T14:52:20.602Z</time></trkpt><trkpt lat="43.5117883" lon="13.3187883"><ele>127.5</ele><time>2026-04-22T14:52:21.603Z</time></trkpt><trkpt lat="43.5116683" lon="13.3187133"><ele>127.25</ele><time>2026-04-22T14:52:22.602Z</time></trkpt><trkpt lat="43.51155" lon="13.3186433"><ele>127.0</ele><time>2026-04-22T14:52:23.602Z</time></trkpt><trkpt lat="43.5114267" lon="13.31856"><ele>127.0</ele><time>2026-04-22T14:52:24.602Z</time></trkpt><trkpt lat="43.5113017" lon="13.318495"><ele>127.0</ele><time>2026-04-22T14:52:25.602Z</time></trkpt><trkpt lat="43.51118" lon="13.3184367"><ele>127.0</ele><time>2026-04-22T14:52:26.602Z</time></trkpt><trkpt lat="43.5110583" lon="13.318395"><ele>127.0</ele><time>2026-04-22T14:52:27.602Z</time></trkpt><trkpt lat="43.510935" lon="13.318355"><ele>129.75</ele><time>2026-04-22T14:52:28.602Z</time></trkpt><trkpt lat="43.5108083" lon="13.3183233"><ele>132.5</ele><time>2026-04-22T14:52:29.602Z</time></trkpt><trkpt lat="43.510675" lon="13.318295"><ele>135.25</ele><time>2026-04-22T14:52:30.603Z</time></trkpt><trkpt lat="43.51054" lon="13.3182683"><ele>138.0</ele><time>2026-04-22T14:52:31.602Z</time></trkpt><trkpt lat="43.5104083" lon="13.3182367"><ele>137.75</ele><time>2026-04-22T14:52:32.602Z</time></trkpt><trkpt lat="43.51028" lon="13.3181983"><ele>137.5</ele><time>2026-04-22T14:52:33.603Z</time></trkpt><trkpt lat="43.5101583" lon="13.3181583"><ele>137.25</ele><time>2026-04-22T14:52:34.602Z</time></trkpt><trkpt lat="43.5100267" lon="13.3181067"><ele>137.0</ele><time>2026-04-22T14:52:35.602Z</time></trkpt><trkpt lat="43.5099033" lon="13.3180383"><ele>137.0</ele><time>2026-04-22T14:52:36.602Z</time></trkpt><trkpt lat="43.5097817" lon="13.3179617"><ele>137.0</ele><time>2026-04-22T14:52:37.602Z</time></trkpt><trkpt lat="43.5096733" lon="13.3178817"><ele>137.0</ele><time>2026-04-22T14:52:38.602Z</time></trkpt><trkpt lat="43.5095717" lon="13.3177883"><ele>137.0</ele><time>2026-04-22T14:52:39.603Z</time></trkpt><trkpt lat="43.509475" lon="13.3177167"><ele>138.79999999999998</ele><time>2026-04-22T14:52:40.602Z</time></trkpt><trkpt lat="43.50938" lon="13.3176483"><ele>140.6</ele><time>2026-04-22T14:52:41.602Z</time></trkpt><trkpt lat="43.509275" lon="13.317595"><ele>142.39999999999998</ele><time>2026-04-22T14:52:42.602Z</time></trkpt><trkpt lat="43.5091667" lon="13.3175667"><ele>144.2</ele><time>2026-04-22T14:52:43.602Z</time></trkpt><trkpt lat="43.5090483" lon="13.3175517"><ele>146.0</ele><time>2026-04-22T14:52:44.602Z</time></trkpt><trkpt lat="43.508925" lon="13.3175367"><ele>146.0</ele><time>2026-04-22T14:52:45.602Z</time></trkpt><trkpt lat="43.508785" lon="13.3175167"><ele>146.0</ele><time>2026-04-22T14:52:46.602Z</time></trkpt><trkpt lat="43.508645" lon="13.3174967"><ele>146.0</ele><time>2026-04-22T14:52:47.602Z</time></trkpt><trkpt lat="43.508505" lon="13.3174667"><ele>146.0</ele><time>2026-04-22T14:52:48.603Z</time></trkpt><trkpt lat="43.5083667" lon="13.3174383"><ele>146.5</ele><time>2026-04-22T14:52:49.603Z</time></trkpt><trkpt lat="43.5082283" lon="13.3173917"><ele>147.0</ele><time>2026-04-22T14:52:50.603Z</time></trkpt><trkpt lat="43.508085" lon="13.3173383"><ele>147.5</ele><time>2026-04-22T14:52:51.602Z</time></trkpt><trkpt lat="43.5079533" lon="13.3172883"><ele>148.0</ele><time>2026-04-22T14:52:52.602Z</time></trkpt><trkpt lat="43.507815" lon="13.3172383"><ele>145.75</ele><time>2026-04-22T14:52:53.603Z</time></trkpt><trkpt lat="43.5076783" lon="13.3171883"><ele>143.5</ele><time>2026-04-22T14:52:54.602Z</time></trkpt><trkpt lat="43.5075483" lon="13.3171517"><ele>141.25</ele><time>2026-04-22T14:52:55.603Z</time></trkpt><trkpt lat="43.5074267" lon="13.3171133"><ele>139.0</ele><time>2026-04-22T14:52:56.602Z</time></trkpt><trkpt lat="43.5073083" lon="13.31707"><ele>139.0</ele><time>2026-04-22T14:52:57.602Z</time></trkpt><trkpt lat="43.5071933" lon="13.3170133"><ele>139.0</ele><time>2026-04-22T14:52:58.602Z</time></trkpt><trkpt lat="43.507085" lon="13.316925"><ele>139.0</ele><time>2026-04-22T14:52:59.602Z</time></trkpt><trkpt lat="43.5069717" lon="13.3168167"><ele>139.0</ele><time>2026-04-22T14:53:00.602Z</time></trkpt><trkpt lat="43.5068517" lon="13.3167167"><ele>138.5</ele><time>2026-04-22T14:53:01.602Z</time></trkpt><trkpt lat="43.5067333" lon="13.3166217"><ele>138.0</ele><time>2026-04-22T14:53:02.602Z</time></trkpt><trkpt lat="43.506605" lon="13.316525"><ele>137.5</ele><time>2026-04-22T14:53:03.602Z</time></trkpt><trkpt lat="43.50648" lon="13.3164417"><ele>137.0</ele><time>2026-04-22T14:53:04.602Z</time></trkpt><trkpt lat="43.5063517" lon="13.316355"><ele>140.75</ele><time>2026-04-22T14:53:05.602Z</time></trkpt><trkpt lat="43.5062217" lon="13.31627"><ele>144.5</ele><time>2026-04-22T14:53:06.602Z</time></trkpt><trkpt lat="43.506095" lon="13.3161767"><ele>148.25</ele><time>2026-04-22T14:53:07.602Z</time></trkpt><trkpt lat="43.50597" lon="13.316085"><ele>152.0</ele><time>2026-04-22T14:53:08.602Z</time></trkpt><trkpt lat="43.5058367" lon="13.3159883"><ele>152.0</ele><time>2026-04-22T14:53:09.603Z</time></trkpt><trkpt lat="43.5057117" lon="13.3158867"><ele>152.0</ele><time>2026-04-22T14:53:10.602Z</time></trkpt><trkpt lat="43.5055933" lon="13.3157817"><ele>152.0</ele><time>2026-04-22T14:53:11.603Z</time></trkpt><trkpt lat="43.5054633" lon="13.3156833"><ele>152.0</ele><time>2026-04-22T14:53:12.603Z</time></trkpt><trkpt lat="43.505335" lon="13.3155917"><ele>154.33333333333331</ele><time>2026-04-22T14:53:13.603Z</time></trkpt><trkpt lat="43.5051967" lon="13.3155"><ele>156.66666666666666</ele><time>2026-04-22T14:53:14.602Z</time></trkpt><trkpt lat="43.505065" lon="13.3154033"><ele>159.0</ele><time>2026-04-22T14:53:15.602Z</time></trkpt><trkpt lat="43.504935" lon="13.3152967"><ele>159.0</ele><time>2026-04-22T14:53:16.602Z</time></trkpt><trkpt lat="43.5048083" lon="13.3151833"><ele>159.0</ele><time>2026-04-22T14:53:17.602Z</time></trkpt><trkpt lat="43.5046783" lon="13.3150783"><ele>159.0</ele><time>2026-04-22T14:53:18.603Z</time></trkpt><trkpt lat="43.504545" lon="13.3149733"><ele>158.66666666666666</ele><time>2026-04-22T14:53:19.602Z</time></trkpt><trkpt lat="43.504415" lon="13.3148717"><ele>158.33333333333331</ele><time>2026-04-22T14:53:20.602Z</time></trkpt><trkpt lat="43.5042783" lon="13.3147733"><ele>158.0</ele><time>2026-04-22T14:53:21.603Z</time></trkpt><trkpt lat="43.50414" lon="13.31469"><ele>160.0</ele><time>2026-04-22T14:53:22.602Z</time></trkpt><trkpt lat="43.5040033" lon="13.3146117"><ele>162.0</ele><time>2026-04-22T14:53:23.602Z</time></trkpt><trkpt lat="43.5038633" lon="13.3145483"><ele>164.0</ele><time>2026-04-22T14:53:24.602Z</time></trkpt><trkpt lat="43.5037367" lon="13.314495"><ele>166.0</ele><time>2026-04-22T14:53:25.603Z</time></trkpt><trkpt lat="43.5036067" lon="13.3144517"><ele>166.75</ele><time>2026-04-22T14:53:26.602Z</time></trkpt><trkpt lat="43.5034833" lon="13.314395"><ele>167.5</ele><time>2026-04-22T14:53:27.602Z</time></trkpt><trkpt lat="43.5033583" lon="13.314325"><ele>168.25</ele><time>2026-04-22T14:53:28.602Z</time></trkpt><trkpt lat="43.503235" lon="13.314255"><ele>169.0</ele><time>2026-04-22T14:53:29.602Z</time></trkpt><trkpt lat="43.503095" lon="13.31419"><ele>169.0</ele><time>2026-04-22T14:53:30.602Z</time></trkpt><trkpt lat="43.5029517" lon="13.3141417"><ele>169.0</ele><time>2026-04-22T14:53:31.602Z</time></trkpt><trkpt lat="43.5028067" lon="13.3141083"><ele>169.0</ele><time>2026-04-22T14:53:32.602Z</time></trkpt><trkpt lat="43.50266" lon="13.314085"><ele>169.0</ele><time>2026-04-22T14:53:33.602Z</time></trkpt><trkpt lat="43.5025167" lon="13.3140633"><ele>168.5</ele><time>2026-04-22T14:53:34.602Z</time></trkpt><trkpt lat="43.5023733" lon="13.314035"><ele>168.0</ele><time>2026-04-22T14:53:35.602Z</time></trkpt><trkpt lat="43.5022383" lon="13.3140017"><ele>167.5</ele><time>2026-04-22T14:53:36.602Z</time></trkpt><trkpt lat="43.5021067" lon="13.3139667"><ele>167.0</ele><time>2026-04-22T14:53:37.602Z</time></trkpt><trkpt lat="43.5019733" lon="13.313925"><ele>168.5</ele><time>2026-04-22T14:53:38.602Z</time></trkpt><trkpt lat="43.50185" lon="13.3138817"><ele>170.0</ele><time>2026-04-22T14:53:39.602Z</time></trkpt><trkpt lat="43.5017333" lon="13.31382"><ele>171.5</ele><time>2026-04-22T14:53:40.602Z</time></trkpt><trkpt lat="43.50161" lon="13.3137583"><ele>173.0</ele><time>2026-04-22T14:53:41.602Z</time></trkpt><trkpt lat="43.5014917" lon="13.3137083"><ele>173.0</ele><time>2026-04-22T14:53:42.603Z</time></trkpt><trkpt lat="43.5013583" lon="13.3136783"><ele>173.0</ele><time>2026-04-22T14:53:43.602Z</time></trkpt><trkpt lat="43.5012233" lon="13.3136567"><ele>173.0</ele><time>2026-04-22T14:53:44.602Z</time></trkpt><trkpt lat="43.5010833" lon="13.3136433"><ele>173.0</ele><time>2026-04-22T14:53:45.602Z</time></trkpt><trkpt lat="43.50095" lon="13.3136467"><ele>173.5</ele><time>2026-04-22T14:53:46.602Z</time></trkpt><trkpt lat="43.5008067" lon="13.3136583"><ele>174.0</ele><time>2026-04-22T14:53:47.602Z</time></trkpt><trkpt lat="43.5006617" lon="13.313675"><ele>174.5</ele><time>2026-04-22T14:53:48.603Z</time></trkpt><trkpt lat="43.5005183" lon="13.3137083"><ele>175.0</ele><time>2026-04-22T14:53:49.603Z</time></trkpt><trkpt lat="43.5003917" lon="13.313725"><ele>176.0</ele><time>2026-04-22T14:53:50.603Z</time></trkpt><trkpt lat="43.50027" lon="13.313725"><ele>177.0</ele><time>2026-04-22T14:53:51.602Z</time></trkpt><trkpt lat="43.5001517" lon="13.3136933"><ele>178.0</ele><time>2026-04-22T14:53:52.602Z</time></trkpt><trkpt lat="43.5000517" lon="13.3136133"><ele>179.0</ele><time>2026-04-22T14:53:53.602Z</time></trkpt><trkpt lat="43.4999383" lon="13.31352"><ele>179.0</ele><time>2026-04-22T14:53:54.602Z</time></trkpt><trkpt lat="43.4998267" lon="13.3133983"><ele>179.0</ele><time>2026-04-22T14:53:55.602Z</time></trkpt><trkpt lat="43.49971" lon="13.313265"><ele>179.0</ele><time>2026-04-22T14:53:56.602Z</time></trkpt><trkpt lat="43.499595" lon="13.3131383"><ele>179.0</ele><time>2026-04-22T14:53:57.602Z</time></trkpt><trkpt lat="43.4994933" lon="13.3130033"><ele>182.0</ele><time>2026-04-22T14:53:58.602Z</time></trkpt><trkpt lat="43.4994083" lon="13.312855"><ele>185.0</ele><time>2026-04-22T14:53:59.602Z</time></trkpt><trkpt lat="43.4993317" lon="13.3126867"><ele>188.0</ele><time>2026-04-22T14:54:00.602Z</time></trkpt><trkpt lat="43.4992883" lon="13.3125117"><ele>191.0</ele><time>2026-04-22T14:54:01.602Z</time></trkpt><trkpt lat="43.4992633" lon="13.3123283"><ele>190.4</ele><time>2026-04-22T14:54:02.602Z</time></trkpt><trkpt lat="43.4992367" lon="13.3121517"><ele>189.8</ele><time>2026-04-22T14:54:03.602Z</time></trkpt><trkpt lat="43.499215" lon="13.311995"><ele>189.20000000000002</ele><time>2026-04-22T14:54:04.602Z</time></trkpt><trkpt lat="43.499195" lon="13.3118617"><ele>188.60000000000002</ele><time>2026-04-22T14:54:05.602Z</time></trkpt><trkpt lat="43.4991617" lon="13.3117517"><ele>188.0</ele><time>2026-04-22T14:54:06.603Z</time></trkpt><trkpt lat="43.4991183" lon="13.31167"><ele>188.0</ele><time>2026-04-22T14:54:07.602Z</time></trkpt><trkpt lat="43.4990617" lon="13.3116183"><ele>188.0</ele><time>2026-04-22T14:54:08.602Z</time></trkpt><trkpt lat="43.4989933" lon="13.3116533"><ele>188.0</ele><time>2026-04-22T14:54:09.602Z</time></trkpt><trkpt lat="43.4989383" lon="13.31172"><ele>188.0</ele><time>2026-04-22T14:54:10.602Z</time></trkpt><trkpt lat="43.4988983" lon="13.3118167"><ele>188.0</ele><time>2026-04-22T14:54:11.602Z</time></trkpt><trkpt lat="43.498885" lon="13.3119417"><ele>188.0</ele><time>2026-04-22T14:54:12.602Z</time></trkpt><trkpt lat="43.4988817" lon="13.3120783"><ele>188.0</ele><time>2026-04-22T14:54:13.602Z</time></trkpt><trkpt lat="43.498865" lon="13.3122167"><ele>188.0</ele><time>2026-04-22T14:54:14.602Z</time></trkpt><trkpt lat="43.4988317" lon="13.3123517"><ele>188.0</ele><time>2026-04-22T14:54:15.602Z</time></trkpt><trkpt lat="43.498785" lon="13.3124717"><ele>188.0</ele><time>2026-04-22T14:54:16.602Z</time></trkpt><trkpt lat="43.4987283" lon="13.3125817"><ele>188.0</ele><time>2026-04-22T14:54:17.602Z</time></trkpt><trkpt lat="43.49865" lon="13.312665"><ele>192.5</ele><time>2026-04-22T14:54:18.602Z</time></trkpt><trkpt lat="43.4985533" lon="13.31273"><ele>197.0</ele><time>2026-04-22T14:54:19.603Z</time></trkpt><trkpt lat="43.4984483" lon="13.3127617"><ele>201.5</ele><time>2026-04-22T14:54:20.602Z</time></trkpt><trkpt lat="43.4983317" lon="13.31277"><ele>206.0</ele><time>2026-04-22T14:54:21.602Z</time></trkpt><trkpt lat="43.4982033" lon="13.3127867"><ele>206.0</ele><time>2026-04-22T14:54:22.602Z</time></trkpt><trkpt lat="43.498075" lon="13.312805"><ele>206.0</ele><time>2026-04-22T14:54:23.602Z</time></trkpt><trkpt lat="43.4979367" lon="13.3128317"><ele>206.0</ele><time>2026-04-22T14:54:24.602Z</time></trkpt><trkpt lat="43.4978117" lon="13.312855"><ele>206.0</ele><time>2026-04-22T14:54:25.602Z</time></trkpt><trkpt lat="43.49768" lon="13.312875"><ele>208.25</ele><time>2026-04-22T14:54:26.602Z</time></trkpt><trkpt lat="43.497555" lon="13.3128967"><ele>210.5</ele><time>2026-04-22T14:54:27.602Z</time></trkpt><trkpt lat="43.497435" lon="13.312935"><ele>212.75</ele><time>2026-04-22T14:54:28.602Z</time></trkpt><trkpt lat="43.497315" lon="13.3129717"><ele>215.0</ele><time>2026-04-22T14:54:29.602Z</time></trkpt><trkpt lat="43.4972067" lon="13.31303"><ele>215.6</ele><time>2026-04-22T14:54:30.602Z</time></trkpt><trkpt lat="43.49711" lon="13.313095"><ele>216.2</ele><time>2026-04-22T14:54:31.602Z</time></trkpt><trkpt lat="43.49702" lon="13.3131583"><ele>216.8</ele><time>2026-04-22T14:54:32.602Z</time></trkpt><trkpt lat="43.496945" lon="13.31324"><ele>217.4</ele><time>2026-04-22T14:54:33.602Z</time></trkpt><trkpt lat="43.49687" lon="13.313305"><ele>218.0</ele><time>2026-04-22T14:54:34.602Z</time></trkpt><trkpt lat="43.496805" lon="13.31338"><ele>218.00000000000003</ele><time>2026-04-22T14:54:35.602Z</time></trkpt><trkpt lat="43.49675" lon="13.313435"><ele>218.0</ele><time>2026-04-22T14:54:36.602Z</time></trkpt><trkpt lat="43.4966617" lon="13.3135367"><ele>218.0</ele><time>2026-04-22T14:54:38.603Z</time></trkpt><trkpt lat="43.4965767" lon="13.3136067"><ele>218.0</ele><time>2026-04-22T14:54:40.602Z</time></trkpt><trkpt lat="43.4965067" lon="13.3136633"><ele>218.00000000000003</ele><time>2026-04-22T14:54:43.602Z</time></trkpt><trkpt lat="43.4964483" lon="13.3137467"><ele>218.0</ele><time>2026-04-22T14:55:28.601Z</time></trkpt><trkpt lat="43.4963517" lon="13.3138217"><ele>218.4</ele><time>2026-04-22T14:55:30.601Z</time></trkpt><trkpt lat="43.49623" lon="13.313915"><ele>218.8</ele><time>2026-04-22T14:55:32.601Z</time></trkpt><trkpt lat="43.4961567" lon="13.313965"><ele>219.2</ele><time>2026-04-22T14:55:33.601Z</time></trkpt><trkpt lat="43.4960767" lon="13.314025"><ele>219.6</ele><time>2026-04-22T14:55:34.602Z</time></trkpt><trkpt lat="43.4960083" lon="13.314085"><ele>220.0</ele><time>2026-04-22T14:55:35.601Z</time></trkpt><trkpt lat="43.49595" lon="13.3141333"><ele>220.0</ele><time>2026-04-22T14:55:36.601Z</time></trkpt><trkpt lat="43.4958883" lon="13.3141833"><ele>220.0</ele><time>2026-04-22T14:55:37.602Z</time></trkpt><trkpt lat="43.4958133" lon="13.314295"><ele>220.0</ele><time>2026-04-22T14:55:39.602Z</time></trkpt><trkpt lat="43.4957483" lon="13.3143567"><ele>220.0</ele><time>2026-04-22T14:55:41.601Z</time></trkpt><trkpt lat="43.49567" lon="13.3144567"><ele>220.0</ele><time>2026-04-22T14:55:44.601Z</time></trkpt><trkpt lat="43.4955967" lon="13.3145967"><ele>219.99999999999997</ele><time>2026-04-22T14:55:46.601Z</time></trkpt><trkpt lat="43.4955583" lon="13.3146767"><ele>220.0</ele><time>2026-04-22T14:55:47.601Z</time></trkpt><trkpt lat="43.4955117" lon="13.31476"><ele>220.0</ele><time>2026-04-22T14:55:48.601Z</time></trkpt><trkpt lat="43.4954667" lon="13.3148517"><ele>220.0</ele><time>2026-04-22T14:55:49.601Z</time></trkpt><trkpt lat="43.4954133" lon="13.3149433"><ele>219.99999999999997</ele><time>2026-04-22T14:55:50.601Z</time></trkpt><trkpt lat="43.495355" lon="13.3150467"><ele>220.0</ele><time>2026-04-22T14:55:51.601Z</time></trkpt><trkpt lat="43.4952967" lon="13.315165"><ele>219.8</ele><time>2026-04-22T14:55:52.601Z</time></trkpt><trkpt lat="43.495235" lon="13.3152817"><ele>219.6</ele><time>2026-04-22T14:55:53.601Z</time></trkpt><trkpt lat="43.4951733" lon="13.3153983"><ele>219.39999999999998</ele><time>2026-04-22T14:55:54.601Z</time></trkpt><trkpt lat="43.49511" lon="13.3155017"><ele>219.2</ele><time>2026-04-22T14:55:55.601Z</time></trkpt><trkpt lat="43.4950533" lon="13.31562"><ele>219.0</ele><time>2026-04-22T14:55:56.602Z</time></trkpt><trkpt lat="43.4949967" lon="13.3157367"><ele>218.6</ele><time>2026-04-22T14:55:57.601Z</time></trkpt><trkpt lat="43.49494" lon="13.3158617"><ele>218.2</ele><time>2026-04-22T14:55:58.602Z</time></trkpt><trkpt lat="43.49489" lon="13.3159883"><ele>217.79999999999998</ele><time>2026-04-22T14:55:59.601Z</time></trkpt><trkpt lat="43.4948367" lon="13.316105"><ele>217.39999999999998</ele><time>2026-04-22T14:56:00.601Z</time></trkpt><trkpt lat="43.4947833" lon="13.3162117"><ele>217.0</ele><time>2026-04-22T14:56:01.601Z</time></trkpt><trkpt lat="43.49473" lon="13.3163083"><ele>216.8</ele><time>2026-04-22T14:56:02.602Z</time></trkpt><trkpt lat="43.4946767" lon="13.3164217"><ele>216.6</ele><time>2026-04-22T14:56:03.601Z</time></trkpt><trkpt lat="43.49462" lon="13.3165217"><ele>216.40000000000003</ele><time>2026-04-22T14:56:04.601Z</time></trkpt><trkpt lat="43.4945683" lon="13.31662"><ele>216.20000000000002</ele><time>2026-04-22T14:56:05.601Z</time></trkpt><trkpt lat="43.4945183" lon="13.31672"><ele>216.0</ele><time>2026-04-22T14:56:06.601Z</time></trkpt><trkpt lat="43.4944667" lon="13.31682"><ele>216.0</ele><time>2026-04-22T14:56:07.601Z</time></trkpt><trkpt lat="43.49442" lon="13.3169133"><ele>216.0</ele><time>2026-04-22T14:56:08.601Z</time></trkpt><trkpt lat="43.49437" lon="13.317005"><ele>216.0</ele><time>2026-04-22T14:56:09.602Z</time></trkpt><trkpt lat="43.4943233" lon="13.3171083"><ele>216.0</ele><time>2026-04-22T14:56:10.601Z</time></trkpt><trkpt lat="43.4942717" lon="13.3172"><ele>216.0</ele><time>2026-04-22T14:56:11.601Z</time></trkpt><trkpt lat="43.4942233" lon="13.3172983"><ele>216.0</ele><time>2026-04-22T14:56:12.601Z</time></trkpt><trkpt lat="43.4941717" lon="13.3173933"><ele>215.60000000000002</ele><time>2026-04-22T14:56:13.601Z</time></trkpt><trkpt lat="43.494115" lon="13.3174967"><ele>215.20000000000002</ele><time>2026-04-22T14:56:14.601Z</time></trkpt><trkpt lat="43.494055" lon="13.3176017"><ele>214.79999999999998</ele><time>2026-04-22T14:56:15.601Z</time></trkpt><trkpt lat="43.4939883" lon="13.3177017"><ele>214.39999999999998</ele><time>2026-04-22T14:56:16.601Z</time></trkpt><trkpt lat="43.4939267" lon="13.3178017"><ele>214.0</ele><time>2026-04-22T14:56:17.601Z</time></trkpt><trkpt lat="43.4938583" lon="13.3178917"><ele>214.0</ele><time>2026-04-22T14:56:18.601Z</time></trkpt><trkpt lat="43.4937717" lon="13.3179767"><ele>213.99999999999997</ele><time>2026-04-22T14:56:19.601Z</time></trkpt><trkpt lat="43.4936833" lon="13.3180383"><ele>213.99999999999997</ele><time>2026-04-22T14:56:20.601Z</time></trkpt><trkpt lat="43.4935883" lon="13.3180817"><ele>214.0</ele><time>2026-04-22T14:56:21.601Z</time></trkpt><trkpt lat="43.4934883" lon="13.318115"><ele>214.0</ele><time>2026-04-22T14:56:22.601Z</time></trkpt><trkpt lat="43.4933983" lon="13.31814"><ele>214.6</ele><time>2026-04-22T14:56:23.601Z</time></trkpt><trkpt lat="43.4933017" lon="13.3181383"><ele>215.2</ele><time>2026-04-22T14:56:24.601Z</time></trkpt><trkpt lat="43.493205" lon="13.318115"><ele>215.79999999999998</ele><time>2026-04-22T14:56:25.601Z</time></trkpt><trkpt lat="43.4931133" lon="13.3180783"><ele>216.39999999999998</ele><time>2026-04-22T14:56:26.601Z</time></trkpt><trkpt lat="43.4930233" lon="13.3180233"><ele>217.0</ele><time>2026-04-22T14:56:27.601Z</time></trkpt><trkpt lat="43.492945" lon="13.3179583"><ele>218.8</ele><time>2026-04-22T14:56:28.601Z</time></trkpt><trkpt lat="43.4928617" lon="13.3178833"><ele>220.6</ele><time>2026-04-22T14:56:29.601Z</time></trkpt><trkpt lat="43.4927883" lon="13.3178033"><ele>222.40000000000003</ele><time>2026-04-22T14:56:30.601Z</time></trkpt><trkpt lat="43.492715" lon="13.31772"><ele>224.20000000000002</ele><time>2026-04-22T14:56:31.602Z</time></trkpt><trkpt lat="43.4926333" lon="13.3176267"><ele>226.0</ele><time>2026-04-22T14:56:32.602Z</time></trkpt><trkpt lat="43.4925533" lon="13.31754"><ele>226.0</ele><time>2026-04-22T14:56:33.601Z</time></trkpt><trkpt lat="43.49247" lon="13.3174517"><ele>226.00000000000003</ele><time>2026-04-22T14:56:34.601Z</time></trkpt><trkpt lat="43.49239" lon="13.3173567"><ele>226.00000000000003</ele><time>2026-04-22T14:56:35.601Z</time></trkpt><trkpt lat="43.4923117" lon="13.3172717"><ele>226.0</ele><time>2026-04-22T14:56:36.601Z</time></trkpt><trkpt lat="43.4922333" lon="13.3171867"><ele>226.0</ele><time>2026-04-22T14:56:37.601Z</time></trkpt><trkpt lat="43.49215" lon="13.3171033"><ele>226.60000000000002</ele><time>2026-04-22T14:56:38.601Z</time></trkpt><trkpt lat="43.492065" lon="13.3170233"><ele>227.20000000000002</ele><time>2026-04-22T14:56:39.602Z</time></trkpt><trkpt lat="43.4919867" lon="13.3169483"><ele>227.79999999999998</ele><time>2026-04-22T14:56:40.602Z</time></trkpt><trkpt lat="43.491905" lon="13.31687"><ele>228.39999999999998</ele><time>2026-04-22T14:56:41.601Z</time></trkpt><trkpt lat="43.4918183" lon="13.316795"><ele>229.0</ele><time>2026-04-22T14:56:42.601Z</time></trkpt><trkpt lat="43.4917283" lon="13.3167217"><ele>229.0</ele><time>2026-04-22T14:56:43.601Z</time></trkpt><trkpt lat="43.491635" lon="13.31668"><ele>228.99999999999997</ele><time>2026-04-22T14:56:44.601Z</time></trkpt><trkpt lat="43.4915367" lon="13.316655"><ele>228.99999999999997</ele><time>2026-04-22T14:56:45.601Z</time></trkpt><trkpt lat="43.4914417" lon="13.3166733"><ele>229.0</ele><time>2026-04-22T14:56:46.602Z</time></trkpt><trkpt lat="43.491345" lon="13.316735"><ele>229.0</ele><time>2026-04-22T14:56:47.601Z</time></trkpt><trkpt lat="43.4912817" lon="13.316815"><ele>228.6</ele><time>2026-04-22T14:56:48.602Z</time></trkpt><trkpt lat="43.4912467" lon="13.31692"><ele>228.2</ele><time>2026-04-22T14:56:49.601Z</time></trkpt><trkpt lat="43.4912283" lon="13.3170467"><ele>227.79999999999998</ele><time>2026-04-22T14:56:50.601Z</time></trkpt><trkpt lat="43.4912267" lon="13.3171867"><ele>227.39999999999998</ele><time>2026-04-22T14:56:51.601Z</time></trkpt><trkpt lat="43.4912317" lon="13.31732"><ele>227.0</ele><time>2026-04-22T14:56:52.601Z</time></trkpt><trkpt lat="43.49124" lon="13.3174567"><ele>227.0</ele><time>2026-04-22T14:56:53.601Z</time></trkpt><trkpt lat="43.491255" lon="13.3175967"><ele>227.0</ele><time>2026-04-22T14:56:54.601Z</time></trkpt><trkpt lat="43.4912683" lon="13.3177517"><ele>227.0</ele><time>2026-04-22T14:56:55.601Z</time></trkpt><trkpt lat="43.4912767" lon="13.3179067"><ele>227.0</ele><time>2026-04-22T14:56:56.601Z</time></trkpt><trkpt lat="43.4912933" lon="13.3180633"><ele>227.0</ele><time>2026-04-22T14:56:57.601Z</time></trkpt><trkpt lat="43.491315" lon="13.3182117"><ele>230.75</ele><time>2026-04-22T14:56:58.601Z</time></trkpt><trkpt lat="43.4913333" lon="13.3183667"><ele>234.5</ele><time>2026-04-22T14:56:59.602Z</time></trkpt><trkpt lat="43.49136" lon="13.3185283"><ele>238.25</ele><time>2026-04-22T14:57:00.601Z</time></trkpt><trkpt lat="43.4913933" lon="13.318695"><ele>242.0</ele><time>2026-04-22T14:57:01.601Z</time></trkpt><trkpt lat="43.4914333" lon="13.3188683"><ele>242.0</ele><time>2026-04-22T14:57:02.601Z</time></trkpt><trkpt lat="43.4914783" lon="13.319035"><ele>242.0</ele><time>2026-04-22T14:57:03.601Z</time></trkpt><trkpt lat="43.4915183" lon="13.3191983"><ele>242.0</ele><time>2026-04-22T14:57:04.601Z</time></trkpt><trkpt lat="43.4915533" lon="13.3193667"><ele>242.0</ele><time>2026-04-22T14:57:05.601Z</time></trkpt><trkpt lat="43.4915917" lon="13.3195333"><ele>242.0</ele><time>2026-04-22T14:57:06.601Z</time></trkpt><trkpt lat="43.4916283" lon="13.3197033"><ele>242.0</ele><time>2026-04-22T14:57:07.601Z</time></trkpt><trkpt lat="43.491665" lon="13.3198683"><ele>242.0</ele><time>2026-04-22T14:57:08.601Z</time></trkpt><trkpt lat="43.4917" lon="13.3200333"><ele>242.0</ele><time>2026-04-22T14:57:09.601Z</time></trkpt><trkpt lat="43.4917117" lon="13.320195"><ele>242.0</ele><time>2026-04-22T14:57:10.601Z</time></trkpt><trkpt lat="43.4917083" lon="13.3203583"><ele>242.0</ele><time>2026-04-22T14:57:11.601Z</time></trkpt><trkpt lat="43.4916817" lon="13.3205117"><ele>242.0</ele><time>2026-04-22T14:57:12.601Z</time></trkpt><trkpt lat="43.4916333" lon="13.3206617"><ele>242.0</ele><time>2026-04-22T14:57:13.601Z</time></trkpt><trkpt lat="43.4915567" lon="13.320785"><ele>242.5</ele><time>2026-04-22T14:57:14.602Z</time></trkpt><trkpt lat="43.49147" lon="13.3208967"><ele>243.0</ele><time>2026-04-22T14:57:15.601Z</time></trkpt><trkpt lat="43.49137" lon="13.3210017"><ele>243.5</ele><time>2026-04-22T14:57:16.601Z</time></trkpt><trkpt lat="43.491265" lon="13.32109"><ele>244.0</ele><time>2026-04-22T14:57:17.601Z</time></trkpt><trkpt lat="43.4911633" lon="13.321185"><ele>244.0</ele><time>2026-04-22T14:57:18.601Z</time></trkpt><trkpt lat="43.49106" lon="13.3212717"><ele>244.0</ele><time>2026-04-22T14:57:19.602Z</time></trkpt><trkpt lat="43.490955" lon="13.3213567"><ele>244.0</ele><time>2026-04-22T14:57:20.601Z</time></trkpt><trkpt lat="43.49087" lon="13.321455"><ele>244.0</ele><time>2026-04-22T14:57:21.601Z</time></trkpt><trkpt lat="43.4907767" lon="13.3215333"><ele>244.0</ele><time>2026-04-22T14:57:22.601Z</time></trkpt><trkpt lat="43.4906867" lon="13.3216083"><ele>243.99999999999997</ele><time>2026-04-22T14:57:23.601Z</time></trkpt><trkpt lat="43.4906" lon="13.3216867"><ele>243.99999999999997</ele><time>2026-04-22T14:57:24.601Z</time></trkpt><trkpt lat="43.4905117" lon="13.3217683"><ele>244.0</ele><time>2026-04-22T14:57:25.601Z</time></trkpt><trkpt lat="43.490435" lon="13.321845"><ele>244.0</ele><time>2026-04-22T14:57:26.601Z</time></trkpt><trkpt lat="43.4903567" lon="13.32192"><ele>243.33333333333331</ele><time>2026-04-22T14:57:27.601Z</time></trkpt><trkpt lat="43.4902833" lon="13.3219833"><ele>242.66666666666666</ele><time>2026-04-22T14:57:28.601Z</time></trkpt><trkpt lat="43.4902183" lon="13.3220333"><ele>242.0</ele><time>2026-04-22T14:57:29.601Z</time></trkpt><trkpt lat="43.490165" lon="13.3220833"><ele>241.33333333333331</ele><time>2026-04-22T14:57:30.601Z</time></trkpt><trkpt lat="43.4900733" lon="13.3221567"><ele>240.66666666666666</ele><time>2026-04-22T14:57:32.601Z</time></trkpt><trkpt lat="43.4900067" lon="13.3221733"><ele>240.0</ele><time>2026-04-22T14:57:35.601Z</time></trkpt><trkpt lat="43.4899167" lon="13.3221517"><ele>240.8</ele><time>2026-04-22T14:57:56.601Z</time></trkpt><trkpt lat="43.4898983" lon="13.3222683"><ele>241.6</ele><time>2026-04-22T14:57:59.601Z</time></trkpt><trkpt lat="43.489825" lon="13.3223583"><ele>242.39999999999998</ele><time>2026-04-22T14:58:01.601Z</time></trkpt><trkpt lat="43.4897433" lon="13.3224733"><ele>243.2</ele><time>2026-04-22T14:58:03.601Z</time></trkpt><trkpt lat="43.4897017" lon="13.3226367"><ele>244.0</ele><time>2026-04-22T14:58:05.601Z</time></trkpt><trkpt lat="43.4896883" lon="13.322725"><ele>243.99999999999997</ele><time>2026-04-22T14:58:06.601Z</time></trkpt><trkpt lat="43.4896717" lon="13.3228217"><ele>244.0</ele><time>2026-04-22T14:58:07.601Z</time></trkpt><trkpt lat="43.4896683" lon="13.3229333"><ele>244.0</ele><time>2026-04-22T14:58:08.601Z</time></trkpt><trkpt lat="43.4896683" lon="13.3230517"><ele>244.0</ele><time>2026-04-22T14:58:09.601Z</time></trkpt><trkpt lat="43.4896683" lon="13.3231567"><ele>243.99999999999997</ele><time>2026-04-22T14:58:10.601Z</time></trkpt><trkpt lat="43.489675" lon="13.323255"><ele>244.0</ele><time>2026-04-22T14:58:11.602Z</time></trkpt><trkpt lat="43.48968" lon="13.3233483"><ele>244.16666666666666</ele><time>2026-04-22T14:58:12.601Z</time></trkpt><trkpt lat="43.489695" lon="13.32345"><ele>244.33333333333331</ele><time>2026-04-22T14:58:13.601Z</time></trkpt><trkpt lat="43.48972" lon="13.3235467"><ele>244.5</ele><time>2026-04-22T14:58:14.601Z</time></trkpt><trkpt lat="43.4897567" lon="13.323645"><ele>244.66666666666669</ele><time>2026-04-22T14:58:15.601Z</time></trkpt><trkpt lat="43.4898067" lon="13.32373"><ele>244.83333333333334</ele><time>2026-04-22T14:58:16.601Z</time></trkpt><trkpt lat="43.4898683" lon="13.323805"><ele>245.0</ele><time>2026-04-22T14:58:17.601Z</time></trkpt><trkpt lat="43.4899433" lon="13.3238517"><ele>245.00000000000003</ele><time>2026-04-22T14:58:18.601Z</time></trkpt><trkpt lat="43.49003" lon="13.3238833"><ele>245.0</ele><time>2026-04-22T14:58:19.601Z</time></trkpt><trkpt lat="43.4901217" lon="13.3238917"><ele>245.0</ele><time>2026-04-22T14:58:20.601Z</time></trkpt><trkpt lat="43.4902133" lon="13.32388"><ele>245.0</ele><time>2026-04-22T14:58:21.601Z</time></trkpt><trkpt lat="43.4903017" lon="13.3238633"><ele>245.00000000000003</ele><time>2026-04-22T14:58:22.601Z</time></trkpt><trkpt lat="43.4903883" lon="13.3238633"><ele>245.0</ele><time>2026-04-22T14:58:23.601Z</time></trkpt><trkpt lat="43.4904733" lon="13.3238517"><ele>245.33333333333334</ele><time>2026-04-22T14:58:24.601Z</time></trkpt><trkpt lat="43.490555" lon="13.323845"><ele>245.66666666666669</ele><time>2026-04-22T14:58:25.601Z</time></trkpt><trkpt lat="43.490635" lon="13.3238333"><ele>246.0</ele><time>2026-04-22T14:58:26.601Z</time></trkpt><trkpt lat="43.4907083" lon="13.3238267"><ele>246.33333333333331</ele><time>2026-04-22T14:58:27.601Z</time></trkpt><trkpt lat="43.4907883" lon="13.3238183"><ele>246.66666666666666</ele><time>2026-04-22T14:58:28.601Z</time></trkpt><trkpt lat="43.4908633" lon="13.32383"><ele>247.0</ele><time>2026-04-22T14:58:29.601Z</time></trkpt><trkpt lat="43.49095" lon="13.3238417"><ele>247.0</ele><time>2026-04-22T14:58:30.601Z</time></trkpt><trkpt lat="43.4910367" lon="13.3238683"><ele>247.0</ele><time>2026-04-22T14:58:31.601Z</time></trkpt><trkpt lat="43.4911217" lon="13.3239067"><ele>247.0</ele><time>2026-04-22T14:58:32.601Z</time></trkpt><trkpt lat="43.49122" lon="13.32395"><ele>247.0</ele><time>2026-04-22T14:58:33.601Z</time></trkpt><trkpt lat="43.49133" lon="13.3239917"><ele>247.0</ele><time>2026-04-22T14:58:34.601Z</time></trkpt><trkpt lat="43.4914317" lon="13.3240467"><ele>245.8</ele><time>2026-04-22T14:58:35.601Z</time></trkpt><trkpt lat="43.491535" lon="13.3241083"><ele>244.6</ele><time>2026-04-22T14:58:36.601Z</time></trkpt><trkpt lat="43.4916233" lon="13.324175"><ele>243.40000000000003</ele><time>2026-04-22T14:58:37.601Z</time></trkpt><trkpt lat="43.4917133" lon="13.3242417"><ele>242.20000000000002</ele><time>2026-04-22T14:58:38.601Z</time></trkpt><trkpt lat="43.4917967" lon="13.3243017"><ele>241.0</ele><time>2026-04-22T14:58:39.601Z</time></trkpt><trkpt lat="43.49188" lon="13.32436"><ele>240.99999999999997</ele><time>2026-04-22T14:58:40.601Z</time></trkpt><trkpt lat="43.4919583" lon="13.32441"><ele>241.0</ele><time>2026-04-22T14:58:41.601Z</time></trkpt><trkpt lat="43.4920417" lon="13.3244683"><ele>241.0</ele><time>2026-04-22T14:58:42.601Z</time></trkpt><trkpt lat="43.4921133" lon="13.3245367"><ele>241.0</ele><time>2026-04-22T14:58:43.601Z</time></trkpt><trkpt lat="43.4921783" lon="13.3245983"><ele>240.99999999999997</ele><time>2026-04-22T14:58:44.601Z</time></trkpt><trkpt lat="43.4922517" lon="13.3246567"><ele>241.0</ele><time>2026-04-22T14:58:45.601Z</time></trkpt><trkpt lat="43.492325" lon="13.3247083"><ele>239.4</ele><time>2026-04-22T14:58:46.601Z</time></trkpt><trkpt lat="43.492405" lon="13.32476"><ele>237.8</ele><time>2026-04-22T14:58:47.601Z</time></trkpt><trkpt lat="43.4924817" lon="13.3248167"><ele>236.20000000000002</ele><time>2026-04-22T14:58:48.601Z</time></trkpt><trkpt lat="43.4925583" lon="13.32488"><ele>234.60000000000002</ele><time>2026-04-22T14:58:49.601Z</time></trkpt><trkpt lat="43.4926367" lon="13.3249433"><ele>233.0</ele><time>2026-04-22T14:58:50.602Z</time></trkpt><trkpt lat="43.4927183" lon="13.3250183"><ele>233.0</ele><time>2026-04-22T14:58:51.601Z</time></trkpt><trkpt lat="43.4928033" lon="13.32509"><ele>233.0</ele><time>2026-04-22T14:58:52.601Z</time></trkpt><trkpt lat="43.4928983" lon="13.3251517"><ele>233.0</ele><time>2026-04-22T14:58:53.601Z</time></trkpt><trkpt lat="43.49299" lon="13.325215"><ele>233.0</ele><time>2026-04-22T14:58:54.601Z</time></trkpt><trkpt lat="43.4930783" lon="13.3252767"><ele>233.0</ele><time>2026-04-22T14:58:55.601Z</time></trkpt><trkpt lat="43.493175" lon="13.32534"><ele>233.75</ele><time>2026-04-22T14:58:56.601Z</time></trkpt><trkpt lat="43.49328" lon="13.3253967"><ele>234.5</ele><time>2026-04-22T14:58:57.601Z</time></trkpt><trkpt lat="43.4933967" lon="13.3254467"><ele>235.25</ele><time>2026-04-22T14:58:58.602Z</time></trkpt><trkpt lat="43.4935217" lon="13.325495"><ele>236.0</ele><time>2026-04-22T14:58:59.601Z</time></trkpt><trkpt lat="43.4936633" lon="13.325545"><ele>235.0</ele><time>2026-04-22T14:59:00.601Z</time></trkpt><trkpt lat="43.4938033" lon="13.3255833"><ele>234.0</ele><time>2026-04-22T14:59:01.602Z</time></trkpt><trkpt lat="43.4939333" lon="13.3256067"><ele>233.0</ele><time>2026-04-22T14:59:02.601Z</time></trkpt><trkpt lat="43.4940633" lon="13.3256233"><ele>232.0</ele><time>2026-04-22T14:59:03.601Z</time></trkpt><trkpt lat="43.4941833" lon="13.3256433"><ele>232.0</ele><time>2026-04-22T14:59:04.601Z</time></trkpt><trkpt lat="43.494305" lon="13.3256667"><ele>232.0</ele><time>2026-04-22T14:59:05.601Z</time></trkpt><trkpt lat="43.4944183" lon="13.3257067"><ele>232.0</ele><time>2026-04-22T14:59:06.601Z</time></trkpt><trkpt lat="43.4945217" lon="13.325745"><ele>232.0</ele><time>2026-04-22T14:59:07.601Z</time></trkpt><trkpt lat="43.4946233" lon="13.3258117"><ele>231.25</ele><time>2026-04-22T14:59:08.602Z</time></trkpt><trkpt lat="43.494725" lon="13.325895"><ele>230.5</ele><time>2026-04-22T14:59:09.601Z</time></trkpt><trkpt lat="43.4948233" lon="13.3259833"><ele>229.75</ele><time>2026-04-22T14:59:10.601Z</time></trkpt><trkpt lat="43.4949217" lon="13.3260833"><ele>229.0</ele><time>2026-04-22T14:59:11.602Z</time></trkpt><trkpt lat="43.4950183" lon="13.3261733"><ele>229.0</ele><time>2026-04-22T14:59:12.601Z</time></trkpt><trkpt lat="43.495115" lon="13.326265"><ele>229.0</ele><time>2026-04-22T14:59:13.601Z</time></trkpt><trkpt lat="43.4952133" lon="13.3263483"><ele>229.0</ele><time>2026-04-22T14:59:14.602Z</time></trkpt><trkpt lat="43.49532" lon="13.3264417"><ele>229.0</ele><time>2026-04-22T14:59:15.601Z</time></trkpt><trkpt lat="43.495415" lon="13.3265417"><ele>227.6</ele><time>2026-04-22T14:59:16.601Z</time></trkpt><trkpt lat="43.495505" lon="13.32664"><ele>226.2</ele><time>2026-04-22T14:59:17.602Z</time></trkpt><trkpt lat="43.4955933" lon="13.326745"><ele>224.79999999999998</ele><time>2026-04-22T14:59:18.601Z</time></trkpt><trkpt lat="43.4956667" lon="13.326855"><ele>223.39999999999998</ele><time>2026-04-22T14:59:19.602Z</time></trkpt><trkpt lat="43.4957433" lon="13.3269567"><ele>222.0</ele><time>2026-04-22T14:59:20.602Z</time></trkpt><trkpt lat="43.4958067" lon="13.3270767"><ele>222.0</ele><time>2026-04-22T14:59:21.602Z</time></trkpt><trkpt lat="43.4958617" lon="13.3272067"><ele>222.0</ele><time>2026-04-22T14:59:22.601Z</time></trkpt><trkpt lat="43.4958983" lon="13.32734"><ele>222.0</ele><time>2026-04-22T14:59:23.601Z</time></trkpt><trkpt lat="43.4959083" lon="13.3274983"><ele>222.0</ele><time>2026-04-22T14:59:24.601Z</time></trkpt><trkpt lat="43.4959067" lon="13.327655"><ele>222.0</ele><time>2026-04-22T14:59:25.601Z</time></trkpt><trkpt lat="43.495895" lon="13.3278183"><ele>222.0</ele><time>2026-04-22T14:59:26.601Z</time></trkpt><trkpt lat="43.4958767" lon="13.3279933"><ele>222.0</ele><time>2026-04-22T14:59:27.601Z</time></trkpt><trkpt lat="43.4958517" lon="13.3281617"><ele>222.0</ele><time>2026-04-22T14:59:28.601Z</time></trkpt><trkpt lat="43.4958333" lon="13.328345"><ele>222.0</ele><time>2026-04-22T14:59:29.601Z</time></trkpt><trkpt lat="43.495805" lon="13.3285283"><ele>220.75</ele><time>2026-04-22T14:59:30.601Z</time></trkpt><trkpt lat="43.49577" lon="13.3287133"><ele>219.5</ele><time>2026-04-22T14:59:31.601Z</time></trkpt><trkpt lat="43.49574" lon="13.328905"><ele>218.25</ele><time>2026-04-22T14:59:32.602Z</time></trkpt><trkpt lat="43.4957133" lon="13.32908"><ele>217.0</ele><time>2026-04-22T14:59:33.601Z</time></trkpt><trkpt lat="43.495685" lon="13.32927"><ele>216.25</ele><time>2026-04-22T14:59:34.601Z</time></trkpt><trkpt lat="43.495655" lon="13.3294567"><ele>215.5</ele><time>2026-04-22T14:59:35.601Z</time></trkpt><trkpt lat="43.4956233" lon="13.3296483"><ele>214.75</ele><time>2026-04-22T14:59:36.601Z</time></trkpt><trkpt lat="43.4955883" lon="13.32984"><ele>214.0</ele><time>2026-04-22T14:59:37.601Z</time></trkpt><trkpt lat="43.4955583" lon="13.3300333"><ele>213.0</ele><time>2026-04-22T14:59:38.601Z</time></trkpt><trkpt lat="43.4955333" lon="13.33023"><ele>212.0</ele><time>2026-04-22T14:59:39.601Z</time></trkpt><trkpt lat="43.495505" lon="13.3304167"><ele>211.0</ele><time>2026-04-22T14:59:40.602Z</time></trkpt><trkpt lat="43.4954783" lon="13.3306033"><ele>210.0</ele><time>2026-04-22T14:59:41.601Z</time></trkpt><trkpt lat="43.4954533" lon="13.330785"><ele>209.6</ele><time>2026-04-22T14:59:42.601Z</time></trkpt><trkpt lat="43.4954283" lon="13.330955"><ele>209.2</ele><time>2026-04-22T14:59:43.601Z</time></trkpt><trkpt lat="43.4954067" lon="13.3311033"><ele>208.8</ele><time>2026-04-22T14:59:44.601Z</time></trkpt><trkpt lat="43.495385" lon="13.3312417"><ele>208.4</ele><time>2026-04-22T14:59:45.601Z</time></trkpt><trkpt lat="43.49537" lon="13.331355"><ele>208.0</ele><time>2026-04-22T14:59:46.601Z</time></trkpt><trkpt lat="43.4953567" lon="13.3314483"><ele>210.99999999999997</ele><time>2026-04-22T14:59:47.601Z</time></trkpt><trkpt lat="43.4953333" lon="13.33158"><ele>214.0</ele><time>2026-04-22T14:59:49.601Z</time></trkpt><trkpt lat="43.495315" lon="13.3316667"><ele>217.0</ele><time>2026-04-22T14:59:51.601Z</time></trkpt><trkpt lat="43.4952917" lon="13.3318033"><ele>220.0</ele><time>2026-04-22T14:59:54.602Z</time></trkpt><trkpt lat="43.49527" lon="13.3319567"><ele>222.99999999999997</ele><time>2026-04-22T14:59:56.601Z</time></trkpt><trkpt lat="43.4952567" lon="13.332045"><ele>226.0</ele><time>2026-04-22T14:59:57.601Z</time></trkpt><trkpt lat="43.4952433" lon="13.332145"><ele>225.4</ele><time>2026-04-22T14:59:58.602Z</time></trkpt><trkpt lat="43.4952317" lon="13.33227"><ele>224.8</ele><time>2026-04-22T14:59:59.601Z</time></trkpt><trkpt lat="43.4952183" lon="13.3324033"><ele>224.20000000000002</ele><time>2026-04-22T15:00:00.601Z</time></trkpt><trkpt lat="43.4952033" lon="13.3325483"><ele>223.60000000000002</ele><time>2026-04-22T15:00:01.602Z</time></trkpt><trkpt lat="43.4951783" lon="13.3327"><ele>223.0</ele><time>2026-04-22T15:00:02.601Z</time></trkpt><trkpt lat="43.4951583" lon="13.332855"><ele>223.0</ele><time>2026-04-22T15:00:03.601Z</time></trkpt><trkpt lat="43.495145" lon="13.333"><ele>223.0</ele><time>2026-04-22T15:00:04.601Z</time></trkpt><trkpt lat="43.49513" lon="13.3331433"><ele>223.0</ele><time>2026-04-22T15:00:05.601Z</time></trkpt><trkpt lat="43.49511" lon="13.333285"><ele>223.0</ele><time>2026-04-22T15:00:06.602Z</time></trkpt><trkpt lat="43.49509" lon="13.3334417"><ele>223.0</ele><time>2026-04-22T15:00:07.601Z</time></trkpt><trkpt lat="43.49507" lon="13.3335967"><ele>223.0</ele><time>2026-04-22T15:00:08.601Z</time></trkpt><trkpt lat="43.49504" lon="13.3337617"><ele>223.0</ele><time>2026-04-22T15:00:09.601Z</time></trkpt><trkpt lat="43.4950267" lon="13.3339367"><ele>223.0</ele><time>2026-04-22T15:00:10.601Z</time></trkpt><trkpt lat="43.495025" lon="13.3341217"><ele>223.0</ele><time>2026-04-22T15:00:11.601Z</time></trkpt><trkpt lat="43.495035" lon="13.3343217"><ele>223.0</ele><time>2026-04-22T15:00:12.601Z</time></trkpt><trkpt lat="43.49505" lon="13.3345467"><ele>223.0</ele><time>2026-04-22T15:00:13.602Z</time></trkpt><trkpt lat="43.4950617" lon="13.3347833"><ele>223.0</ele><time>2026-04-22T15:00:14.601Z</time></trkpt><trkpt lat="43.4950767" lon="13.33502"><ele>224.0</ele><time>2026-04-22T15:00:15.601Z</time></trkpt><trkpt lat="43.4950917" lon="13.3352417"><ele>225.0</ele><time>2026-04-22T15:00:16.601Z</time></trkpt><trkpt lat="43.4951167" lon="13.3354483"><ele>226.0</ele><time>2026-04-22T15:00:17.601Z</time></trkpt><trkpt lat="43.4951517" lon="13.33565"><ele>228.66666666666666</ele><time>2026-04-22T15:00:18.601Z</time></trkpt><trkpt lat="43.4952" lon="13.33585"><ele>231.33333333333331</ele><time>2026-04-22T15:00:19.601Z</time></trkpt><trkpt lat="43.4952367" lon="13.33605"><ele>234.0</ele><time>2026-04-22T15:00:20.601Z</time></trkpt><trkpt lat="43.49528" lon="13.3362467"><ele>235.0</ele><time>2026-04-22T15:00:21.601Z</time></trkpt><trkpt lat="43.4953233" lon="13.3364417"><ele>236.0</ele><time>2026-04-22T15:00:22.601Z</time></trkpt><trkpt lat="43.49537" lon="13.33663"><ele>237.0</ele><time>2026-04-22T15:00:23.601Z</time></trkpt><trkpt lat="43.4954233" lon="13.33681"><ele>238.0</ele><time>2026-04-22T15:00:24.601Z</time></trkpt><trkpt lat="43.49547" lon="13.3369933"><ele>235.5</ele><time>2026-04-22T15:00:25.601Z</time></trkpt><trkpt lat="43.49552" lon="13.3371817"><ele>233.0</ele><time>2026-04-22T15:00:26.601Z</time></trkpt><trkpt lat="43.4955733" lon="13.33737"><ele>230.5</ele><time>2026-04-22T15:00:27.602Z</time></trkpt><trkpt lat="43.495625" lon="13.337555"><ele>228.0</ele><time>2026-04-22T15:00:28.602Z</time></trkpt><trkpt lat="43.49568" lon="13.33774"><ele>228.0</ele><time>2026-04-22T15:00:29.601Z</time></trkpt><trkpt lat="43.4957467" lon="13.3379117"><ele>228.0</ele><time>2026-04-22T15:00:30.601Z</time></trkpt><trkpt lat="43.4958233" lon="13.3380767"><ele>228.0</ele><time>2026-04-22T15:00:31.601Z</time></trkpt><trkpt lat="43.495895" lon="13.33823"><ele>228.0</ele><time>2026-04-22T15:00:32.601Z</time></trkpt><trkpt lat="43.49596" lon="13.338385"><ele>230.0</ele><time>2026-04-22T15:00:33.601Z</time></trkpt><trkpt lat="43.496025" lon="13.3385317"><ele>232.0</ele><time>2026-04-22T15:00:34.601Z</time></trkpt><trkpt lat="43.4960883" lon="13.3386683"><ele>234.0</ele><time>2026-04-22T15:00:35.602Z</time></trkpt><trkpt lat="43.4961417" lon="13.3388"><ele>236.0</ele><time>2026-04-22T15:00:36.601Z</time></trkpt><trkpt lat="43.4961933" lon="13.3389233"><ele>236.0</ele><time>2026-04-22T15:00:37.601Z</time></trkpt><trkpt lat="43.4962467" lon="13.33904"><ele>236.00000000000003</ele><time>2026-04-22T15:00:38.601Z</time></trkpt><trkpt lat="43.49631" lon="13.3391583"><ele>236.00000000000003</ele><time>2026-04-22T15:00:39.602Z</time></trkpt><trkpt lat="43.49637" lon="13.3392683"><ele>236.0</ele><time>2026-04-22T15:00:40.601Z</time></trkpt><trkpt lat="43.4964367" lon="13.3393783"><ele>236.0</ele><time>2026-04-22T15:00:41.601Z</time></trkpt><trkpt lat="43.496505" lon="13.3394883"><ele>236.4</ele><time>2026-04-22T15:00:42.601Z</time></trkpt><trkpt lat="43.4965717" lon="13.339585"><ele>236.8</ele><time>2026-04-22T15:00:43.601Z</time></trkpt><trkpt lat="43.4966367" lon="13.3396817"><ele>237.20000000000002</ele><time>2026-04-22T15:00:44.601Z</time></trkpt><trkpt lat="43.4967" lon="13.3397833"><ele>237.60000000000002</ele><time>2026-04-22T15:00:45.601Z</time></trkpt><trkpt lat="43.4967617" lon="13.3398867"><ele>238.0</ele><time>2026-04-22T15:00:46.601Z</time></trkpt><trkpt lat="43.4968267" lon="13.33999"><ele>238.0</ele><time>2026-04-22T15:00:47.602Z</time></trkpt><trkpt lat="43.49689" lon="13.3400967"><ele>238.0</ele><time>2026-04-22T15:00:48.601Z</time></trkpt><trkpt lat="43.4969583" lon="13.34019"><ele>238.0</ele><time>2026-04-22T15:00:49.601Z</time></trkpt><trkpt lat="43.4970283" lon="13.34029"><ele>238.0</ele><time>2026-04-22T15:00:50.601Z</time></trkpt><trkpt lat="43.4970817" lon="13.340395"><ele>238.0</ele><time>2026-04-22T15:00:51.602Z</time></trkpt><trkpt lat="43.497135" lon="13.340495"><ele>238.66666666666666</ele><time>2026-04-22T15:00:52.601Z</time></trkpt><trkpt lat="43.49719" lon="13.3405933"><ele>239.33333333333331</ele><time>2026-04-22T15:00:53.602Z</time></trkpt><trkpt lat="43.4972367" lon="13.3406917"><ele>240.0</ele><time>2026-04-22T15:00:54.601Z</time></trkpt><trkpt lat="43.4972883" lon="13.3407817"><ele>240.66666666666669</ele><time>2026-04-22T15:00:55.601Z</time></trkpt><trkpt lat="43.49734" lon="13.340875"><ele>241.33333333333334</ele><time>2026-04-22T15:00:56.601Z</time></trkpt><trkpt lat="43.497395" lon="13.3409667"><ele>242.0</ele><time>2026-04-22T15:00:57.601Z</time></trkpt><trkpt lat="43.497445" lon="13.3410583"><ele>242.00000000000003</ele><time>2026-04-22T15:00:58.601Z</time></trkpt><trkpt lat="43.4974917" lon="13.3411583"><ele>242.0</ele><time>2026-04-22T15:00:59.601Z</time></trkpt><trkpt lat="43.4975333" lon="13.341255"><ele>242.0</ele><time>2026-04-22T15:01:00.601Z</time></trkpt><trkpt lat="43.4975817" lon="13.34135"><ele>242.0</ele><time>2026-04-22T15:01:01.601Z</time></trkpt><trkpt lat="43.4976217" lon="13.341445"><ele>242.00000000000003</ele><time>2026-04-22T15:01:02.602Z</time></trkpt><trkpt lat="43.4976617" lon="13.341535"><ele>242.0</ele><time>2026-04-22T15:01:03.601Z</time></trkpt><trkpt lat="43.4977033" lon="13.341625"><ele>242.33333333333334</ele><time>2026-04-22T15:01:04.601Z</time></trkpt><trkpt lat="43.4977467" lon="13.3417217"><ele>242.66666666666669</ele><time>2026-04-22T15:01:05.601Z</time></trkpt><trkpt lat="43.49779" lon="13.3418167"><ele>243.0</ele><time>2026-04-22T15:01:06.601Z</time></trkpt><trkpt lat="43.4978317" lon="13.3419167"><ele>243.33333333333331</ele><time>2026-04-22T15:01:07.601Z</time></trkpt><trkpt lat="43.4978733" lon="13.3420183"><ele>243.66666666666666</ele><time>2026-04-22T15:01:08.601Z</time></trkpt><trkpt lat="43.497915" lon="13.3421083"><ele>244.0</ele><time>2026-04-22T15:01:09.601Z</time></trkpt><trkpt lat="43.49795" lon="13.3422083"><ele>243.16666666666666</ele><time>2026-04-22T15:01:10.601Z</time></trkpt><trkpt lat="43.497985" lon="13.3423083"><ele>242.33333333333331</ele><time>2026-04-22T15:01:11.601Z</time></trkpt><trkpt lat="43.4980117" lon="13.3424033"><ele>241.5</ele><time>2026-04-22T15:01:12.601Z</time></trkpt><trkpt lat="43.4980317" lon="13.3425133"><ele>240.66666666666669</ele><time>2026-04-22T15:01:13.601Z</time></trkpt><trkpt lat="43.49804" lon="13.3426217"><ele>239.83333333333334</ele><time>2026-04-22T15:01:14.601Z</time></trkpt><trkpt lat="43.4980333" lon="13.3427233"><ele>239.0</ele><time>2026-04-22T15:01:15.601Z</time></trkpt><trkpt lat="43.4980083" lon="13.342825"><ele>239.00000000000003</ele><time>2026-04-22T15:01:16.601Z</time></trkpt><trkpt lat="43.4979817" lon="13.3429233"><ele>239.0</ele><time>2026-04-22T15:01:17.601Z</time></trkpt><trkpt lat="43.497945" lon="13.3430117"><ele>239.0</ele><time>2026-04-22T15:01:18.601Z</time></trkpt><trkpt lat="43.4979033" lon="13.343105"><ele>239.0</ele><time>2026-04-22T15:01:19.601Z</time></trkpt><trkpt lat="43.49786" lon="13.3432017"><ele>239.00000000000003</ele><time>2026-04-22T15:01:20.601Z</time></trkpt><trkpt lat="43.4978217" lon="13.34331"><ele>239.0</ele><time>2026-04-22T15:01:21.601Z</time></trkpt><trkpt lat="43.4977883" lon="13.34342"><ele>239.6</ele><time>2026-04-22T15:01:22.601Z</time></trkpt><trkpt lat="43.4977533" lon="13.3435433"><ele>240.2</ele><time>2026-04-22T15:01:23.602Z</time></trkpt><trkpt lat="43.49771" lon="13.343665"><ele>240.79999999999998</ele><time>2026-04-22T15:01:24.601Z</time></trkpt><trkpt lat="43.4976533" lon="13.3437783"><ele>241.39999999999998</ele><time>2026-04-22T15:01:25.601Z</time></trkpt><trkpt lat="43.497595" lon="13.34389"><ele>242.0</ele><time>2026-04-22T15:01:26.602Z</time></trkpt><trkpt lat="43.4975333" lon="13.344005"><ele>243.2</ele><time>2026-04-22T15:01:27.601Z</time></trkpt><trkpt lat="43.4974733" lon="13.3441217"><ele>244.39999999999998</ele><time>2026-04-22T15:01:28.601Z</time></trkpt><trkpt lat="43.4974217" lon="13.3442467"><ele>245.60000000000002</ele><time>2026-04-22T15:01:29.601Z</time></trkpt><trkpt lat="43.4973617" lon="13.3443733"><ele>246.8</ele><time>2026-04-22T15:01:30.602Z</time></trkpt><trkpt lat="43.497305" lon="13.3444933"><ele>248.0</ele><time>2026-04-22T15:01:31.601Z</time></trkpt><trkpt lat="43.4972483" lon="13.3446233"><ele>246.60000000000002</ele><time>2026-04-22T15:01:32.601Z</time></trkpt><trkpt lat="43.49719" lon="13.34475"><ele>245.20000000000002</ele><time>2026-04-22T15:01:33.602Z</time></trkpt><trkpt lat="43.4971283" lon="13.3448833"><ele>243.8</ele><time>2026-04-22T15:01:34.601Z</time></trkpt><trkpt lat="43.4970683" lon="13.3450183"><ele>242.4</ele><time>2026-04-22T15:01:35.602Z</time></trkpt><trkpt lat="43.4970083" lon="13.3451467"><ele>241.0</ele><time>2026-04-22T15:01:36.601Z</time></trkpt><trkpt lat="43.4969433" lon="13.3452767"><ele>241.0</ele><time>2026-04-22T15:01:37.602Z</time></trkpt><trkpt lat="43.4968767" lon="13.34541"><ele>241.0</ele><time>2026-04-22T15:01:38.601Z</time></trkpt><trkpt lat="43.496805" lon="13.3455417"><ele>241.0</ele><time>2026-04-22T15:01:39.601Z</time></trkpt><trkpt lat="43.4967383" lon="13.3456717"><ele>241.0</ele><time>2026-04-22T15:01:40.601Z</time></trkpt><trkpt lat="43.4966617" lon="13.34579"><ele>242.75</ele><time>2026-04-22T15:01:41.601Z</time></trkpt><trkpt lat="43.496585" lon="13.3459017"><ele>244.5</ele><time>2026-04-22T15:01:42.601Z</time></trkpt><trkpt lat="43.49649" lon="13.346005"><ele>246.25</ele><time>2026-04-22T15:01:43.601Z</time></trkpt><trkpt lat="43.496395" lon="13.3461033"><ele>248.0</ele><time>2026-04-22T15:01:44.601Z</time></trkpt><trkpt lat="43.4962933" lon="13.3461967"><ele>248.2</ele><time>2026-04-22T15:01:45.601Z</time></trkpt><trkpt lat="43.4961933" lon="13.3462683"><ele>248.4</ele><time>2026-04-22T15:01:46.602Z</time></trkpt><trkpt lat="43.4960817" lon="13.3463317"><ele>248.59999999999997</ele><time>2026-04-22T15:01:47.601Z</time></trkpt><trkpt lat="43.4960017" lon="13.3463967"><ele>248.79999999999998</ele><time>2026-04-22T15:01:48.601Z</time></trkpt><trkpt lat="43.4959267" lon="13.346475"><ele>249.0</ele><time>2026-04-22T15:01:49.601Z</time></trkpt><trkpt lat="43.495855" lon="13.3465733"><ele>249.0</ele><time>2026-04-22T15:01:50.602Z</time></trkpt><trkpt lat="43.4957917" lon="13.346695"><ele>248.99999999999997</ele><time>2026-04-22T15:01:51.601Z</time></trkpt><trkpt lat="43.49575" lon="13.3468117"><ele>248.99999999999997</ele><time>2026-04-22T15:01:52.601Z</time></trkpt><trkpt lat="43.49571" lon="13.3469333"><ele>249.0</ele><time>2026-04-22T15:01:53.601Z</time></trkpt><trkpt lat="43.4956817" lon="13.3470567"><ele>249.0</ele><time>2026-04-22T15:01:54.6Z</time></trkpt><trkpt lat="43.4956517" lon="13.34718"><ele>249.2</ele><time>2026-04-22T15:01:55.6Z</time></trkpt><trkpt lat="43.4956217" lon="13.3472967"><ele>249.39999999999998</ele><time>2026-04-22T15:01:56.6Z</time></trkpt><trkpt lat="43.4956" lon="13.34742"><ele>249.6</ele><time>2026-04-22T15:01:57.6Z</time></trkpt><trkpt lat="43.495595" lon="13.34755"><ele>249.8</ele><time>2026-04-22T15:01:58.6Z</time></trkpt><trkpt lat="43.4955817" lon="13.3476783"><ele>250.0</ele><time>2026-04-22T15:01:59.6Z</time></trkpt><trkpt lat="43.4955633" lon="13.3478017"><ele>250.0</ele><time>2026-04-22T15:02:00.6Z</time></trkpt><trkpt lat="43.4955467" lon="13.3479333"><ele>250.0</ele><time>2026-04-22T15:02:01.6Z</time></trkpt><trkpt lat="43.4955333" lon="13.3480683"><ele>250.0</ele><time>2026-04-22T15:02:02.6Z</time></trkpt><trkpt lat="43.49551" lon="13.3482133"><ele>250.0</ele><time>2026-04-22T15:02:03.6Z</time></trkpt><trkpt lat="43.49549" lon="13.3483683"><ele>250.0</ele><time>2026-04-22T15:02:04.6Z</time></trkpt><trkpt lat="43.4954617" lon="13.348525"><ele>248.75</ele><time>2026-04-22T15:02:05.6Z</time></trkpt><trkpt lat="43.4954317" lon="13.3486817"><ele>247.5</ele><time>2026-04-22T15:02:06.6Z</time></trkpt><trkpt lat="43.495395" lon="13.3488367"><ele>246.25</ele><time>2026-04-22T15:02:07.6Z</time></trkpt><trkpt lat="43.4953517" lon="13.3489967"><ele>245.0</ele><time>2026-04-22T15:02:08.6Z</time></trkpt><trkpt lat="43.4953033" lon="13.34915"><ele>239.25</ele><time>2026-04-22T15:02:09.6Z</time></trkpt><trkpt lat="43.49526" lon="13.3493117"><ele>233.5</ele><time>2026-04-22T15:02:10.6Z</time></trkpt><trkpt lat="43.49521" lon="13.3494717"><ele>227.75</ele><time>2026-04-22T15:02:11.6Z</time></trkpt><trkpt lat="43.49514" lon="13.349625"><ele>222.0</ele><time>2026-04-22T15:02:12.6Z</time></trkpt><trkpt lat="43.4950717" lon="13.3497717"><ele>222.0</ele><time>2026-04-22T15:02:13.6Z</time></trkpt><trkpt lat="43.4949967" lon="13.3499217"><ele>222.0</ele><time>2026-04-22T15:02:14.601Z</time></trkpt><trkpt lat="43.494915" lon="13.3500433"><ele>222.0</ele><time>2026-04-22T15:02:15.6Z</time></trkpt><trkpt lat="43.4948267" lon="13.3501517"><ele>222.0</ele><time>2026-04-22T15:02:16.6Z</time></trkpt><trkpt lat="43.494735" lon="13.3502617"><ele>222.0</ele><time>2026-04-22T15:02:17.601Z</time></trkpt><trkpt lat="43.4946533" lon="13.350385"><ele>222.0</ele><time>2026-04-22T15:02:18.6Z</time></trkpt><trkpt lat="43.4945783" lon="13.3505033"><ele>222.0</ele><time>2026-04-22T15:02:19.6Z</time></trkpt><trkpt lat="43.4945017" lon="13.3506217"><ele>222.0</ele><time>2026-04-22T15:02:20.601Z</time></trkpt><trkpt lat="43.494415" lon="13.3507417"><ele>218.75</ele><time>2026-04-22T15:02:21.6Z</time></trkpt><trkpt lat="43.4943333" lon="13.3508617"><ele>215.5</ele><time>2026-04-22T15:02:22.6Z</time></trkpt><trkpt lat="43.4942333" lon="13.3509617"><ele>212.25</ele><time>2026-04-22T15:02:23.6Z</time></trkpt><trkpt lat="43.4941367" lon="13.35105"><ele>209.0</ele><time>2026-04-22T15:02:24.6Z</time></trkpt><trkpt lat="43.494035" lon="13.35113"><ele>209.0</ele><time>2026-04-22T15:02:25.6Z</time></trkpt><trkpt lat="43.4939317" lon="13.3512117"><ele>209.0</ele><time>2026-04-22T15:02:26.6Z</time></trkpt><trkpt lat="43.4938183" lon="13.351285"><ele>209.0</ele><time>2026-04-22T15:02:27.6Z</time></trkpt><trkpt lat="43.4937083" lon="13.3513617"><ele>209.0</ele><time>2026-04-22T15:02:28.6Z</time></trkpt><trkpt lat="43.4936017" lon="13.3514367"><ele>207.25</ele><time>2026-04-22T15:02:29.6Z</time></trkpt><trkpt lat="43.493495" lon="13.35151"><ele>205.5</ele><time>2026-04-22T15:02:30.6Z</time></trkpt><trkpt lat="43.4933933" lon="13.3515867"><ele>203.75</ele><time>2026-04-22T15:02:31.601Z</time></trkpt><trkpt lat="43.4932883" lon="13.3516617"><ele>202.0</ele><time>2026-04-22T15:02:32.6Z</time></trkpt><trkpt lat="43.493185" lon="13.35174"><ele>202.0</ele><time>2026-04-22T15:02:33.6Z</time></trkpt><trkpt lat="43.49308" lon="13.35183"><ele>202.0</ele><time>2026-04-22T15:02:34.6Z</time></trkpt><trkpt lat="43.4929683" lon="13.351925"><ele>202.0</ele><time>2026-04-22T15:02:35.6Z</time></trkpt><trkpt lat="43.4928633" lon="13.3520317"><ele>202.0</ele><time>2026-04-22T15:02:36.6Z</time></trkpt><trkpt lat="43.4927533" lon="13.3521383"><ele>200.0</ele><time>2026-04-22T15:02:37.6Z</time></trkpt><trkpt lat="43.4926433" lon="13.3522383"><ele>198.0</ele><time>2026-04-22T15:02:38.6Z</time></trkpt><trkpt lat="43.4925317" lon="13.3523483"><ele>196.0</ele><time>2026-04-22T15:02:39.6Z</time></trkpt><trkpt lat="43.4924167" lon="13.3524567"><ele>194.0</ele><time>2026-04-22T15:02:40.6Z</time></trkpt><trkpt lat="43.4922967" lon="13.3525683"><ele>194.0</ele><time>2026-04-22T15:02:41.6Z</time></trkpt><trkpt lat="43.4921817" lon="13.3526667"><ele>194.0</ele><time>2026-04-22T15:02:42.6Z</time></trkpt><trkpt lat="43.4920633" lon="13.3527667"><ele>194.0</ele><time>2026-04-22T15:02:43.6Z</time></trkpt><trkpt lat="43.4919433" lon="13.3528633"><ele>194.0</ele><time>2026-04-22T15:02:44.6Z</time></trkpt><trkpt lat="43.49183" lon="13.3529633"><ele>191.75</ele><time>2026-04-22T15:02:45.6Z</time></trkpt><trkpt lat="43.491715" lon="13.3530633"><ele>189.5</ele><time>2026-04-22T15:02:46.601Z</time></trkpt><trkpt lat="43.4916017" lon="13.3531617"><ele>187.25</ele><time>2026-04-22T15:02:47.6Z</time></trkpt><trkpt lat="43.491485" lon="13.35327"><ele>185.0</ele><time>2026-04-22T15:02:48.6Z</time></trkpt><trkpt lat="43.4913683" lon="13.353365"><ele>184.75</ele><time>2026-04-22T15:02:49.6Z</time></trkpt><trkpt lat="43.491255" lon="13.353465"><ele>184.5</ele><time>2026-04-22T15:02:50.6Z</time></trkpt><trkpt lat="43.4911383" lon="13.35356"><ele>184.25</ele><time>2026-04-22T15:02:51.6Z</time></trkpt><trkpt lat="43.491025" lon="13.3536667"><ele>184.0</ele><time>2026-04-22T15:02:52.601Z</time></trkpt><trkpt lat="43.49091" lon="13.3537583"><ele>184.0</ele><time>2026-04-22T15:02:53.6Z</time></trkpt><trkpt lat="43.4907983" lon="13.3538417"><ele>184.0</ele><time>2026-04-22T15:02:54.6Z</time></trkpt><trkpt lat="43.4906833" lon="13.35393"><ele>184.0</ele><time>2026-04-22T15:02:55.6Z</time></trkpt><trkpt lat="43.4905667" lon="13.3540117"><ele>184.0</ele><time>2026-04-22T15:02:56.6Z</time></trkpt><trkpt lat="43.4904483" lon="13.35407"><ele>182.25</ele><time>2026-04-22T15:02:57.6Z</time></trkpt><trkpt lat="43.4903317" lon="13.354125"><ele>180.5</ele><time>2026-04-22T15:02:58.601Z</time></trkpt><trkpt lat="43.4902167" lon="13.3541717"><ele>178.75</ele><time>2026-04-22T15:02:59.6Z</time></trkpt><trkpt lat="43.4901" lon="13.3542183"><ele>177.0</ele><time>2026-04-22T15:03:00.6Z</time></trkpt><trkpt lat="43.489985" lon="13.3542683"><ele>177.0</ele><time>2026-04-22T15:03:01.6Z</time></trkpt><trkpt lat="43.4898683" lon="13.3543133"><ele>177.0</ele><time>2026-04-22T15:03:02.6Z</time></trkpt><trkpt lat="43.4897433" lon="13.354375"><ele>177.0</ele><time>2026-04-22T15:03:03.6Z</time></trkpt><trkpt lat="43.48962" lon="13.3544233"><ele>177.0</ele><time>2026-04-22T15:03:04.6Z</time></trkpt><trkpt lat="43.4895083" lon="13.3544767"><ele>175.25</ele><time>2026-04-22T15:03:05.601Z</time></trkpt><trkpt lat="43.4894" lon="13.3545283"><ele>173.5</ele><time>2026-04-22T15:03:06.6Z</time></trkpt><trkpt lat="43.4892833" lon="13.3545783"><ele>171.75</ele><time>2026-04-22T15:03:07.6Z</time></trkpt><trkpt lat="43.4891667" lon="13.3546183"><ele>170.0</ele><time>2026-04-22T15:03:08.6Z</time></trkpt><trkpt lat="43.4890483" lon="13.3546683"><ele>168.25</ele><time>2026-04-22T15:03:09.6Z</time></trkpt><trkpt lat="43.4889333" lon="13.354715"><ele>166.5</ele><time>2026-04-22T15:03:10.6Z</time></trkpt><trkpt lat="43.4888117" lon="13.35477"><ele>164.75</ele><time>2026-04-22T15:03:11.6Z</time></trkpt><trkpt lat="43.4886933" lon="13.35482"><ele>163.0</ele><time>2026-04-22T15:03:12.6Z</time></trkpt><trkpt lat="43.48857" lon="13.35486"><ele>162.25</ele><time>2026-04-22T15:03:13.6Z</time></trkpt><trkpt lat="43.4884517" lon="13.3549083"><ele>161.5</ele><time>2026-04-22T15:03:14.6Z</time></trkpt><trkpt lat="43.4883367" lon="13.354955"><ele>160.75</ele><time>2026-04-22T15:03:15.6Z</time></trkpt><trkpt lat="43.48822" lon="13.355005"><ele>160.0</ele><time>2026-04-22T15:03:16.6Z</time></trkpt><trkpt lat="43.4881017" lon="13.3550617"><ele>160.0</ele><time>2026-04-22T15:03:17.6Z</time></trkpt><trkpt lat="43.48799" lon="13.3551367"><ele>160.0</ele><time>2026-04-22T15:03:18.6Z</time></trkpt><trkpt lat="43.4878817" lon="13.35523"><ele>160.0</ele><time>2026-04-22T15:03:19.6Z</time></trkpt><trkpt lat="43.4877783" lon="13.35533"><ele>160.0</ele><time>2026-04-22T15:03:20.6Z</time></trkpt><trkpt lat="43.4876833" lon="13.3554367"><ele>160.0</ele><time>2026-04-22T15:03:21.6Z</time></trkpt><trkpt lat="43.487585" lon="13.3555367"><ele>160.0</ele><time>2026-04-22T15:03:22.6Z</time></trkpt><trkpt lat="43.4874883" lon="13.35564"><ele>160.0</ele><time>2026-04-22T15:03:23.6Z</time></trkpt><trkpt lat="43.4873917" lon="13.3557517"><ele>160.0</ele><time>2026-04-22T15:03:24.6Z</time></trkpt><trkpt lat="43.48729" lon="13.35586"><ele>157.75</ele><time>2026-04-22T15:03:25.6Z</time></trkpt><trkpt lat="43.4871817" lon="13.3559683"><ele>155.5</ele><time>2026-04-22T15:03:26.6Z</time></trkpt><trkpt lat="43.4870767" lon="13.3560783"><ele>153.25</ele><time>2026-04-22T15:03:27.6Z</time></trkpt><trkpt lat="43.48697" lon="13.3561767"><ele>151.0</ele><time>2026-04-22T15:03:28.601Z</time></trkpt><trkpt lat="43.4868617" lon="13.356255"><ele>150.8</ele><time>2026-04-22T15:03:29.6Z</time></trkpt><trkpt lat="43.4867683" lon="13.3563383"><ele>150.6</ele><time>2026-04-22T15:03:30.6Z</time></trkpt><trkpt lat="43.4866833" lon="13.35642"><ele>150.4</ele><time>2026-04-22T15:03:31.6Z</time></trkpt><trkpt lat="43.4865967" lon="13.356495"><ele>150.2</ele><time>2026-04-22T15:03:32.6Z</time></trkpt><trkpt lat="43.4865117" lon="13.3565683"><ele>150.0</ele><time>2026-04-22T15:03:33.6Z</time></trkpt><trkpt lat="43.4864283" lon="13.3566517"><ele>149.0</ele><time>2026-04-22T15:03:34.6Z</time></trkpt><trkpt lat="43.48635" lon="13.35673"><ele>148.0</ele><time>2026-04-22T15:03:35.6Z</time></trkpt><trkpt lat="43.4862683" lon="13.3568133"><ele>147.0</ele><time>2026-04-22T15:03:36.6Z</time></trkpt><trkpt lat="43.486195" lon="13.356905"><ele>146.0</ele><time>2026-04-22T15:03:37.6Z</time></trkpt><trkpt lat="43.4861217" lon="13.3570083"><ele>145.0</ele><time>2026-04-22T15:03:38.6Z</time></trkpt><trkpt lat="43.4860517" lon="13.3571233"><ele>142.75</ele><time>2026-04-22T15:03:39.6Z</time></trkpt><trkpt lat="43.4859783" lon="13.3572417"><ele>140.5</ele><time>2026-04-22T15:03:40.6Z</time></trkpt><trkpt lat="43.4859067" lon="13.35737"><ele>138.25</ele><time>2026-04-22T15:03:41.601Z</time></trkpt><trkpt lat="43.48582" lon="13.3574917"><ele>136.0</ele><time>2026-04-22T15:03:42.6Z</time></trkpt><trkpt lat="43.4857517" lon="13.3576183"><ele>136.0</ele><time>2026-04-22T15:03:43.601Z</time></trkpt><trkpt lat="43.4856933" lon="13.357765"><ele>136.0</ele><time>2026-04-22T15:03:44.6Z</time></trkpt><trkpt lat="43.485625" lon="13.357905"><ele>136.0</ele><time>2026-04-22T15:03:45.6Z</time></trkpt><trkpt lat="43.4855717" lon="13.35806"><ele>136.0</ele><time>2026-04-22T15:03:46.6Z</time></trkpt><trkpt lat="43.4855233" lon="13.35821"><ele>134.25</ele><time>2026-04-22T15:03:47.6Z</time></trkpt><trkpt lat="43.4854917" lon="13.358355"><ele>132.5</ele><time>2026-04-22T15:03:48.6Z</time></trkpt><trkpt lat="43.485475" lon="13.3585083"><ele>130.75</ele><time>2026-04-22T15:03:49.6Z</time></trkpt><trkpt lat="43.4854633" lon="13.3586617"><ele>129.0</ele><time>2026-04-22T15:03:50.6Z</time></trkpt><trkpt lat="43.4854533" lon="13.3588217"><ele>127.75</ele><time>2026-04-22T15:03:51.6Z</time></trkpt><trkpt lat="43.4854483" lon="13.3589833"><ele>126.5</ele><time>2026-04-22T15:03:52.6Z</time></trkpt><trkpt lat="43.4854383" lon="13.3591533"><ele>125.25</ele><time>2026-04-22T15:03:53.6Z</time></trkpt><trkpt lat="43.4854233" lon="13.3593083"><ele>124.0</ele><time>2026-04-22T15:03:54.6Z</time></trkpt><trkpt lat="43.4854117" lon="13.35948"><ele>124.0</ele><time>2026-04-22T15:03:55.6Z</time></trkpt><trkpt lat="43.4854017" lon="13.35965"><ele>124.0</ele><time>2026-04-22T15:03:56.6Z</time></trkpt><trkpt lat="43.48539" lon="13.3598267"><ele>124.0</ele><time>2026-04-22T15:03:57.6Z</time></trkpt><trkpt lat="43.485375" lon="13.3600017"><ele>124.0</ele><time>2026-04-22T15:03:58.6Z</time></trkpt><trkpt lat="43.48535" lon="13.3601767"><ele>122.5</ele><time>2026-04-22T15:03:59.6Z</time></trkpt><trkpt lat="43.485325" lon="13.360345"><ele>121.0</ele><time>2026-04-22T15:04:00.6Z</time></trkpt><trkpt lat="43.485305" lon="13.3605117"><ele>119.5</ele><time>2026-04-22T15:04:01.6Z</time></trkpt><trkpt lat="43.48528" lon="13.3606783"><ele>118.0</ele><time>2026-04-22T15:04:02.6Z</time></trkpt><trkpt lat="43.4852583" lon="13.360855"><ele>117.0</ele><time>2026-04-22T15:04:03.6Z</time></trkpt><trkpt lat="43.48524" lon="13.3610317"><ele>116.0</ele><time>2026-04-22T15:04:04.6Z</time></trkpt><trkpt lat="43.4852183" lon="13.3612"><ele>115.0</ele><time>2026-04-22T15:04:05.6Z</time></trkpt><trkpt lat="43.4852" lon="13.3613583"><ele>114.0</ele><time>2026-04-22T15:04:06.601Z</time></trkpt><trkpt lat="43.48519" lon="13.3615067"><ele>113.6</ele><time>2026-04-22T15:04:07.6Z</time></trkpt><trkpt lat="43.4851817" lon="13.3616583"><ele>113.2</ele><time>2026-04-22T15:04:08.6Z</time></trkpt><trkpt lat="43.4851717" lon="13.36179"><ele>112.79999999999998</ele><time>2026-04-22T15:04:09.6Z</time></trkpt><trkpt lat="43.4851633" lon="13.361895"><ele>112.39999999999999</ele><time>2026-04-22T15:04:10.6Z</time></trkpt><trkpt lat="43.4851133" lon="13.3620167"><ele>112.0</ele><time>2026-04-22T15:04:12.6Z</time></trkpt><trkpt lat="43.4850017" lon="13.3620317"><ele>112.0</ele><time>2026-04-22T15:04:14.6Z</time></trkpt><trkpt lat="43.4849167" lon="13.362005"><ele>111.99999999999999</ele><time>2026-04-22T15:04:15.6Z</time></trkpt><trkpt lat="43.4848217" lon="13.36197"><ele>111.99999999999999</ele><time>2026-04-22T15:04:16.601Z</time></trkpt><trkpt lat="43.4847233" lon="13.36194"><ele>112.0</ele><time>2026-04-22T15:04:17.6Z</time></trkpt><trkpt lat="43.4846133" lon="13.3619017"><ele>112.0</ele><time>2026-04-22T15:04:18.6Z</time></trkpt><trkpt lat="43.4844983" lon="13.36185"><ele>111.8</ele><time>2026-04-22T15:04:19.6Z</time></trkpt><trkpt lat="43.484385" lon="13.3617767"><ele>111.6</ele><time>2026-04-22T15:04:20.6Z</time></trkpt><trkpt lat="43.4842783" lon="13.361695"><ele>111.39999999999999</ele><time>2026-04-22T15:04:21.6Z</time></trkpt><trkpt lat="43.4842017" lon="13.3615967"><ele>111.19999999999999</ele><time>2026-04-22T15:04:22.6Z</time></trkpt><trkpt lat="43.4841383" lon="13.3615017"><ele>111.0</ele><time>2026-04-22T15:04:23.6Z</time></trkpt><trkpt lat="43.48408" lon="13.36141"><ele>111.0</ele><time>2026-04-22T15:04:24.6Z</time></trkpt><trkpt lat="43.4840267" lon="13.3613483"><ele>111.0</ele><time>2026-04-22T15:04:25.6Z</time></trkpt><trkpt lat="43.48394" lon="13.36133"><ele>111.0</ele><time>2026-04-22T15:04:27.6Z</time></trkpt><trkpt lat="43.4838633" lon="13.3613883"><ele>111.0</ele><time>2026-04-22T15:04:29.6Z</time></trkpt><trkpt lat="43.483845" lon="13.3615367"><ele>111.0</ele><time>2026-04-22T15:04:31.6Z</time></trkpt><trkpt lat="43.4838667" lon="13.3616583"><ele>111.0</ele><time>2026-04-22T15:04:32.6Z</time></trkpt><trkpt lat="43.4839117" lon="13.361785"><ele>111.0</ele><time>2026-04-22T15:04:33.6Z</time></trkpt><trkpt lat="43.4839583" lon="13.36192"><ele>111.0</ele><time>2026-04-22T15:04:34.601Z</time></trkpt><trkpt lat="43.4840117" lon="13.36207"><ele>111.0</ele><time>2026-04-22T15:04:35.6Z</time></trkpt><trkpt lat="43.4840633" lon="13.3622283"><ele>111.0</ele><time>2026-04-22T15:04:36.6Z</time></trkpt><trkpt lat="43.4841183" lon="13.3623933"><ele>111.0</ele><time>2026-04-22T15:04:37.6Z</time></trkpt><trkpt lat="43.484175" lon="13.362575"><ele>111.0</ele><time>2026-04-22T15:04:38.6Z</time></trkpt><trkpt lat="43.4842367" lon="13.3627567"><ele>111.0</ele><time>2026-04-22T15:04:39.6Z</time></trkpt><trkpt lat="43.4842917" lon="13.36294"><ele>111.0</ele><time>2026-04-22T15:04:40.601Z</time></trkpt><trkpt lat="43.48435" lon="13.3631167"><ele>110.33333333333334</ele><time>2026-04-22T15:04:41.6Z</time></trkpt><trkpt lat="43.484405" lon="13.36331"><ele>109.66666666666667</ele><time>2026-04-22T15:04:42.6Z</time></trkpt><trkpt lat="43.484465" lon="13.3635067"><ele>109.0</ele><time>2026-04-22T15:04:43.6Z</time></trkpt><trkpt lat="43.4845217" lon="13.3637017"><ele>109.33333333333334</ele><time>2026-04-22T15:04:44.6Z</time></trkpt><trkpt lat="43.4845817" lon="13.3639017"><ele>109.66666666666666</ele><time>2026-04-22T15:04:45.6Z</time></trkpt><trkpt lat="43.4846567" lon="13.3641033"><ele>110.0</ele><time>2026-04-22T15:04:46.6Z</time></trkpt><trkpt lat="43.484725" lon="13.3643083"><ele>110.66666666666666</ele><time>2026-04-22T15:04:47.601Z</time></trkpt><trkpt lat="43.4847967" lon="13.3645167"><ele>111.33333333333334</ele><time>2026-04-22T15:04:48.6Z</time></trkpt><trkpt lat="43.4848583" lon="13.3647317"><ele>112.0</ele><time>2026-04-22T15:04:49.6Z</time></trkpt><trkpt lat="43.4849183" lon="13.3649417"><ele>112.0</ele><time>2026-04-22T15:04:50.6Z</time></trkpt><trkpt lat="43.4849717" lon="13.365155"><ele>112.0</ele><time>2026-04-22T15:04:51.6Z</time></trkpt><trkpt lat="43.48502" lon="13.36538"><ele>112.0</ele><time>2026-04-22T15:04:52.6Z</time></trkpt><trkpt lat="43.4850533" lon="13.36562"><ele>111.66666666666667</ele><time>2026-04-22T15:04:53.6Z</time></trkpt><trkpt lat="43.4850583" lon="13.3658633"><ele>111.33333333333334</ele><time>2026-04-22T15:04:54.6Z</time></trkpt><trkpt lat="43.485065" lon="13.3661017"><ele>111.0</ele><time>2026-04-22T15:04:55.6Z</time></trkpt><trkpt lat="43.4850683" lon="13.3663583"><ele>110.0</ele><time>2026-04-22T15:04:56.601Z</time></trkpt><trkpt lat="43.4850783" lon="13.3666217"><ele>109.0</ele><time>2026-04-22T15:04:57.6Z</time></trkpt><trkpt lat="43.4850917" lon="13.366885"><ele>108.0</ele><time>2026-04-22T15:04:58.6Z</time></trkpt><trkpt lat="43.485115" lon="13.367135"><ele>107.66666666666666</ele><time>2026-04-22T15:04:59.6Z</time></trkpt><trkpt lat="43.485145" lon="13.3673867"><ele>107.33333333333333</ele><time>2026-04-22T15:05:00.601Z</time></trkpt><trkpt lat="43.4851967" lon="13.36764"><ele>107.0</ele><time>2026-04-22T15:05:01.6Z</time></trkpt><trkpt lat="43.4852417" lon="13.3678917"><ele>106.33333333333333</ele><time>2026-04-22T15:05:02.6Z</time></trkpt><trkpt lat="43.4852867" lon="13.3681467"><ele>105.66666666666666</ele><time>2026-04-22T15:05:03.6Z</time></trkpt><trkpt lat="43.48533" lon="13.368405"><ele>105.0</ele><time>2026-04-22T15:05:04.601Z</time></trkpt><trkpt lat="43.48537" lon="13.3686617"><ele>105.33333333333334</ele><time>2026-04-22T15:05:05.6Z</time></trkpt><trkpt lat="43.485415" lon="13.3689133"><ele>105.66666666666667</ele><time>2026-04-22T15:05:06.6Z</time></trkpt><trkpt lat="43.4854617" lon="13.3691617"><ele>106.0</ele><time>2026-04-22T15:05:07.6Z</time></trkpt><trkpt lat="43.485515" lon="13.3694133"><ele>106.0</ele><time>2026-04-22T15:05:08.6Z</time></trkpt><trkpt lat="43.4855683" lon="13.3696633"><ele>106.0</ele><time>2026-04-22T15:05:09.6Z</time></trkpt><trkpt lat="43.4856167" lon="13.36991"><ele>106.0</ele><time>2026-04-22T15:05:10.6Z</time></trkpt><trkpt lat="43.4856667" lon="13.3701567"><ele>105.66666666666667</ele><time>2026-04-22T15:05:11.6Z</time></trkpt><trkpt lat="43.4857183" lon="13.3704017"><ele>105.33333333333334</ele><time>2026-04-22T15:05:12.6Z</time></trkpt><trkpt lat="43.4857617" lon="13.3706567"><ele>105.0</ele><time>2026-04-22T15:05:13.6Z</time></trkpt><trkpt lat="43.4858117" lon="13.3708983"><ele>105.0</ele><time>2026-04-22T15:05:14.6Z</time></trkpt><trkpt lat="43.4858617" lon="13.3711417"><ele>105.0</ele><time>2026-04-22T15:05:15.6Z</time></trkpt><trkpt lat="43.4859133" lon="13.3713883"><ele>105.0</ele><time>2026-04-22T15:05:16.6Z</time></trkpt><trkpt lat="43.4859683" lon="13.3716383"><ele>105.0</ele><time>2026-04-22T15:05:17.6Z</time></trkpt><trkpt lat="43.4860217" lon="13.3718817"><ele>105.0</ele><time>2026-04-22T15:05:18.6Z</time></trkpt><trkpt lat="43.48607" lon="13.372135"><ele>105.0</ele><time>2026-04-22T15:05:19.6Z</time></trkpt><trkpt lat="43.4861217" lon="13.3723733"><ele>105.0</ele><time>2026-04-22T15:05:20.6Z</time></trkpt><trkpt lat="43.4861717" lon="13.37261"><ele>105.0</ele><time>2026-04-22T15:05:21.6Z</time></trkpt><trkpt lat="43.4862067" lon="13.3728333"><ele>105.0</ele><time>2026-04-22T15:05:22.6Z</time></trkpt><trkpt lat="43.48625" lon="13.3730517"><ele>107.33333333333334</ele><time>2026-04-22T15:05:23.6Z</time></trkpt><trkpt lat="43.4862917" lon="13.3732783"><ele>109.66666666666667</ele><time>2026-04-22T15:05:24.6Z</time></trkpt><trkpt lat="43.4863067" lon="13.373505"><ele>112.0</ele><time>2026-04-22T15:05:25.6Z</time></trkpt><trkpt lat="43.486305" lon="13.37374"><ele>111.33333333333334</ele><time>2026-04-22T15:05:26.6Z</time></trkpt><trkpt lat="43.4862867" lon="13.3739883"><ele>110.66666666666666</ele><time>2026-04-22T15:05:27.6Z</time></trkpt><trkpt lat="43.4862567" lon="13.37423"><ele>110.0</ele><time>2026-04-22T15:05:28.6Z</time></trkpt><trkpt lat="43.4862317" lon="13.3744783"><ele>107.0</ele><time>2026-04-22T15:05:29.6Z</time></trkpt><trkpt lat="43.4862083" lon="13.3747133"><ele>104.0</ele><time>2026-04-22T15:05:30.6Z</time></trkpt><trkpt lat="43.4861867" lon="13.3749467"><ele>101.0</ele><time>2026-04-22T15:05:31.6Z</time></trkpt><trkpt lat="43.4861633" lon="13.375175"><ele>101.0</ele><time>2026-04-22T15:05:32.6Z</time></trkpt><trkpt lat="43.4861433" lon="13.3754"><ele>101.0</ele><time>2026-04-22T15:05:33.6Z</time></trkpt><trkpt lat="43.48612" lon="13.3756267"><ele>101.0</ele><time>2026-04-22T15:05:34.6Z</time></trkpt><trkpt lat="43.4860983" lon="13.3758483"><ele>101.0</ele><time>2026-04-22T15:05:35.6Z</time></trkpt><trkpt lat="43.4860833" lon="13.3760717"><ele>101.0</ele><time>2026-04-22T15:05:36.6Z</time></trkpt><trkpt lat="43.4860617" lon="13.3762817"><ele>101.0</ele><time>2026-04-22T15:05:37.6Z</time></trkpt><trkpt lat="43.4860433" lon="13.37648"><ele>101.0</ele><time>2026-04-22T15:05:38.6Z</time></trkpt><trkpt lat="43.486025" lon="13.3766717"><ele>101.0</ele><time>2026-04-22T15:05:39.6Z</time></trkpt><trkpt lat="43.4860083" lon="13.376855"><ele>101.0</ele><time>2026-04-22T15:05:40.6Z</time></trkpt><trkpt lat="43.4859933" lon="13.3770367"><ele>101.0</ele><time>2026-04-22T15:05:41.6Z</time></trkpt><trkpt lat="43.4859783" lon="13.3772217"><ele>101.66666666666666</ele><time>2026-04-22T15:05:42.6Z</time></trkpt><trkpt lat="43.485955" lon="13.3774133"><ele>102.33333333333334</ele><time>2026-04-22T15:05:43.6Z</time></trkpt><trkpt lat="43.4859383" lon="13.3776183"><ele>103.0</ele><time>2026-04-22T15:05:44.6Z</time></trkpt><trkpt lat="43.4859217" lon="13.37784"><ele>102.33333333333334</ele><time>2026-04-22T15:05:45.6Z</time></trkpt><trkpt lat="43.485905" lon="13.37807"><ele>101.66666666666666</ele><time>2026-04-22T15:05:46.6Z</time></trkpt><trkpt lat="43.4858833" lon="13.378315"><ele>101.0</ele><time>2026-04-22T15:05:47.6Z</time></trkpt><trkpt lat="43.4858583" lon="13.3785583"><ele>101.0</ele><time>2026-04-22T15:05:48.6Z</time></trkpt><trkpt lat="43.4858367" lon="13.3787917"><ele>101.0</ele><time>2026-04-22T15:05:49.6Z</time></trkpt><trkpt lat="43.4858167" lon="13.3790417"><ele>101.0</ele><time>2026-04-22T15:05:50.6Z</time></trkpt><trkpt lat="43.4858" lon="13.379295"><ele>101.0</ele><time>2026-04-22T15:05:51.6Z</time></trkpt><trkpt lat="43.4857733" lon="13.379535"><ele>101.0</ele><time>2026-04-22T15:05:52.601Z</time></trkpt><trkpt lat="43.48575" lon="13.3797783"><ele>101.0</ele><time>2026-04-22T15:05:53.6Z</time></trkpt><trkpt lat="43.4857333" lon="13.380005"><ele>101.33333333333333</ele><time>2026-04-22T15:05:54.6Z</time></trkpt><trkpt lat="43.4857083" lon="13.3802367"><ele>101.66666666666666</ele><time>2026-04-22T15:05:55.6Z</time></trkpt><trkpt lat="43.4856933" lon="13.38046"><ele>102.0</ele><time>2026-04-22T15:05:56.6Z</time></trkpt><trkpt lat="43.485675" lon="13.38069"><ele>102.0</ele><time>2026-04-22T15:05:57.6Z</time></trkpt><trkpt lat="43.485655" lon="13.38093"><ele>102.0</ele><time>2026-04-22T15:05:58.6Z</time></trkpt><trkpt lat="43.4856267" lon="13.3811833"><ele>102.0</ele><time>2026-04-22T15:05:59.6Z</time></trkpt><trkpt lat="43.4856033" lon="13.3814283"><ele>102.0</ele><time>2026-04-22T15:06:00.6Z</time></trkpt><trkpt lat="43.48558" lon="13.3816717"><ele>102.0</ele><time>2026-04-22T15:06:01.6Z</time></trkpt><trkpt lat="43.4855583" lon="13.381905"><ele>102.0</ele><time>2026-04-22T15:06:02.601Z</time></trkpt><trkpt lat="43.4855367" lon="13.38213"><ele>102.33333333333334</ele><time>2026-04-22T15:06:03.6Z</time></trkpt><trkpt lat="43.485515" lon="13.38237"><ele>102.66666666666667</ele><time>2026-04-22T15:06:04.6Z</time></trkpt><trkpt lat="43.4855117" lon="13.38262"><ele>103.0</ele><time>2026-04-22T15:06:05.6Z</time></trkpt><trkpt lat="43.48551" lon="13.38288"><ele>102.66666666666667</ele><time>2026-04-22T15:06:06.6Z</time></trkpt><trkpt lat="43.4855067" lon="13.3831267"><ele>102.33333333333334</ele><time>2026-04-22T15:06:07.6Z</time></trkpt><trkpt lat="43.485515" lon="13.3833717"><ele>102.0</ele><time>2026-04-22T15:06:08.6Z</time></trkpt><trkpt lat="43.485515" lon="13.3836183"><ele>101.66666666666666</ele><time>2026-04-22T15:06:09.601Z</time></trkpt><trkpt lat="43.4855233" lon="13.38387"><ele>101.33333333333333</ele><time>2026-04-22T15:06:10.6Z</time></trkpt><trkpt lat="43.4855267" lon="13.3841167"><ele>101.0</ele><time>2026-04-22T15:06:11.6Z</time></trkpt><trkpt lat="43.4855283" lon="13.38436"><ele>101.0</ele><time>2026-04-22T15:06:12.6Z</time></trkpt><trkpt lat="43.48553" lon="13.38459"><ele>101.0</ele><time>2026-04-22T15:06:13.6Z</time></trkpt><trkpt lat="43.4855317" lon="13.3848267"><ele>101.0</ele><time>2026-04-22T15:06:14.6Z</time></trkpt><trkpt lat="43.4855267" lon="13.3850417"><ele>100.5</ele><time>2026-04-22T15:06:15.6Z</time></trkpt><trkpt lat="43.48552" lon="13.3852433"><ele>100.0</ele><time>2026-04-22T15:06:16.601Z</time></trkpt><trkpt lat="43.4855117" lon="13.3854383"><ele>99.5</ele><time>2026-04-22T15:06:17.6Z</time></trkpt><trkpt lat="43.4854967" lon="13.38562"><ele>99.0</ele><time>2026-04-22T15:06:18.6Z</time></trkpt><trkpt lat="43.4854817" lon="13.385795"><ele>98.75</ele><time>2026-04-22T15:06:19.601Z</time></trkpt><trkpt lat="43.48547" lon="13.3859633"><ele>98.5</ele><time>2026-04-22T15:06:20.601Z</time></trkpt><trkpt lat="43.485465" lon="13.3861317"><ele>98.25</ele><time>2026-04-22T15:06:21.6Z</time></trkpt><trkpt lat="43.4854817" lon="13.3862933"><ele>98.0</ele><time>2026-04-22T15:06:22.6Z</time></trkpt><trkpt lat="43.4855117" lon="13.3864633"><ele>98.0</ele><time>2026-04-22T15:06:23.6Z</time></trkpt><trkpt lat="43.4855383" lon="13.3866233"><ele>98.0</ele><time>2026-04-22T15:06:24.6Z</time></trkpt><trkpt lat="43.48556" lon="13.38679"><ele>98.0</ele><time>2026-04-22T15:06:25.6Z</time></trkpt><trkpt lat="43.4855833" lon="13.3869533"><ele>98.0</ele><time>2026-04-22T15:06:26.6Z</time></trkpt><trkpt lat="43.4856" lon="13.38712"><ele>98.25</ele><time>2026-04-22T15:06:27.601Z</time></trkpt><trkpt lat="43.485605" lon="13.3872867"><ele>98.5</ele><time>2026-04-22T15:06:28.6Z</time></trkpt><trkpt lat="43.4855983" lon="13.3874517"><ele>98.75</ele><time>2026-04-22T15:06:29.6Z</time></trkpt><trkpt lat="43.4856" lon="13.3876183"><ele>99.0</ele><time>2026-04-22T15:06:30.6Z</time></trkpt><trkpt lat="43.4855917" lon="13.3877867"><ele>99.0</ele><time>2026-04-22T15:06:31.6Z</time></trkpt><trkpt lat="43.4855783" lon="13.3879433"><ele>99.0</ele><time>2026-04-22T15:06:32.6Z</time></trkpt><trkpt lat="43.4855717" lon="13.3881017"><ele>99.0</ele><time>2026-04-22T15:06:33.601Z</time></trkpt><trkpt lat="43.4855683" lon="13.3882517"><ele>99.0</ele><time>2026-04-22T15:06:34.601Z</time></trkpt><trkpt lat="43.4855667" lon="13.3883967"><ele>99.0</ele><time>2026-04-22T15:06:35.6Z</time></trkpt><trkpt lat="43.4855717" lon="13.3885317"><ele>99.4</ele><time>2026-04-22T15:06:36.6Z</time></trkpt><trkpt lat="43.4855683" lon="13.388675"><ele>99.80000000000001</ele><time>2026-04-22T15:06:37.6Z</time></trkpt><trkpt lat="43.48557" lon="13.3888133"><ele>100.19999999999999</ele><time>2026-04-22T15:06:38.6Z</time></trkpt><trkpt lat="43.4855717" lon="13.3889433"><ele>100.6</ele><time>2026-04-22T15:06:39.601Z</time></trkpt><trkpt lat="43.4855767" lon="13.3890733"><ele>101.0</ele><time>2026-04-22T15:06:40.6Z</time></trkpt><trkpt lat="43.48558" lon="13.3892"><ele>101.19999999999999</ele><time>2026-04-22T15:06:41.6Z</time></trkpt><trkpt lat="43.4855883" lon="13.3893267"><ele>101.39999999999999</ele><time>2026-04-22T15:06:42.6Z</time></trkpt><trkpt lat="43.4855933" lon="13.38945"><ele>101.6</ele><time>2026-04-22T15:06:43.6Z</time></trkpt><trkpt lat="43.4856017" lon="13.38958"><ele>101.8</ele><time>2026-04-22T15:06:44.6Z</time></trkpt><trkpt lat="43.48561" lon="13.3897133"><ele>102.0</ele><time>2026-04-22T15:06:45.601Z</time></trkpt><trkpt lat="43.4856183" lon="13.38983"><ele>102.0</ele><time>2026-04-22T15:06:46.6Z</time></trkpt><trkpt lat="43.4856217" lon="13.3899467"><ele>102.0</ele><time>2026-04-22T15:06:47.6Z</time></trkpt><trkpt lat="43.48562" lon="13.3900717"><ele>102.0</ele><time>2026-04-22T15:06:48.6Z</time></trkpt><trkpt lat="43.4856267" lon="13.390195"><ele>102.0</ele><time>2026-04-22T15:06:49.601Z</time></trkpt><trkpt lat="43.4856233" lon="13.39032"><ele>102.0</ele><time>2026-04-22T15:06:50.6Z</time></trkpt><trkpt lat="43.4856233" lon="13.3904483"><ele>102.0</ele><time>2026-04-22T15:06:51.6Z</time></trkpt><trkpt lat="43.4856267" lon="13.3905867"><ele>102.0</ele><time>2026-04-22T15:06:52.6Z</time></trkpt><trkpt lat="43.4856283" lon="13.3907383"><ele>102.0</ele><time>2026-04-22T15:06:53.6Z</time></trkpt><trkpt lat="43.48563" lon="13.390885"><ele>102.0</ele><time>2026-04-22T15:06:54.6Z</time></trkpt><trkpt lat="43.4856333" lon="13.39103"><ele>102.0</ele><time>2026-04-22T15:06:55.6Z</time></trkpt><trkpt lat="43.485635" lon="13.3911783"><ele>102.0</ele><time>2026-04-22T15:06:56.601Z</time></trkpt><trkpt lat="43.48564" lon="13.3913333"><ele>101.75</ele><time>2026-04-22T15:06:57.6Z</time></trkpt><trkpt lat="43.4856467" lon="13.391495"><ele>101.5</ele><time>2026-04-22T15:06:58.6Z</time></trkpt><trkpt lat="43.4856517" lon="13.391655"><ele>101.25</ele><time>2026-04-22T15:06:59.6Z</time></trkpt><trkpt lat="43.48565" lon="13.391815"><ele>101.0</ele><time>2026-04-22T15:07:00.601Z</time></trkpt><trkpt lat="43.4856517" lon="13.391975"><ele>101.0</ele><time>2026-04-22T15:07:01.6Z</time></trkpt><trkpt lat="43.485645" lon="13.392145"><ele>101.0</ele><time>2026-04-22T15:07:02.601Z</time></trkpt><trkpt lat="43.4856383" lon="13.392315"><ele>101.0</ele><time>2026-04-22T15:07:03.6Z</time></trkpt><trkpt lat="43.48564" lon="13.39249"><ele>101.0</ele><time>2026-04-22T15:07:04.6Z</time></trkpt><trkpt lat="43.4856417" lon="13.3926867"><ele>101.0</ele><time>2026-04-22T15:07:05.6Z</time></trkpt><trkpt lat="43.485645" lon="13.39288"><ele>101.0</ele><time>2026-04-22T15:07:06.6Z</time></trkpt><trkpt lat="43.4856467" lon="13.3930617"><ele>101.0</ele><time>2026-04-22T15:07:07.6Z</time></trkpt><trkpt lat="43.48566" lon="13.3932533"><ele>101.0</ele><time>2026-04-22T15:07:08.6Z</time></trkpt><trkpt lat="43.4856567" lon="13.3934483"><ele>100.66666666666666</ele><time>2026-04-22T15:07:09.6Z</time></trkpt><trkpt lat="43.4856617" lon="13.3936483"><ele>100.33333333333334</ele><time>2026-04-22T15:07:10.6Z</time></trkpt><trkpt lat="43.48566" lon="13.3938617"><ele>100.0</ele><time>2026-04-22T15:07:11.6Z</time></trkpt><trkpt lat="43.4856683" lon="13.3940967"><ele>100.0</ele><time>2026-04-22T15:07:12.6Z</time></trkpt><trkpt lat="43.485675" lon="13.3943467"><ele>100.0</ele><time>2026-04-22T15:07:13.6Z</time></trkpt><trkpt lat="43.4856717" lon="13.3945933"><ele>100.0</ele><time>2026-04-22T15:07:14.6Z</time></trkpt><trkpt lat="43.4856717" lon="13.3948217"><ele>100.0</ele><time>2026-04-22T15:07:15.601Z</time></trkpt><trkpt lat="43.48568" lon="13.3950483"><ele>100.0</ele><time>2026-04-22T15:07:16.6Z</time></trkpt><trkpt lat="43.4856867" lon="13.3952817"><ele>100.0</ele><time>2026-04-22T15:07:17.6Z</time></trkpt><trkpt lat="43.4857" lon="13.39551"><ele>99.33333333333334</ele><time>2026-04-22T15:07:18.6Z</time></trkpt><trkpt lat="43.4857183" lon="13.3957417"><ele>98.66666666666666</ele><time>2026-04-22T15:07:19.601Z</time></trkpt><trkpt lat="43.4857133" lon="13.39596"><ele>98.0</ele><time>2026-04-22T15:07:20.6Z</time></trkpt><trkpt lat="43.48572" lon="13.3961817"><ele>97.66666666666666</ele><time>2026-04-22T15:07:21.6Z</time></trkpt><trkpt lat="43.4857183" lon="13.3964133"><ele>97.33333333333334</ele><time>2026-04-22T15:07:22.6Z</time></trkpt><trkpt lat="43.48572" lon="13.3966433"><ele>97.0</ele><time>2026-04-22T15:07:23.601Z</time></trkpt><trkpt lat="43.48572" lon="13.3968683"><ele>97.0</ele><time>2026-04-22T15:07:24.6Z</time></trkpt><trkpt lat="43.4857183" lon="13.3970917"><ele>97.0</ele><time>2026-04-22T15:07:25.6Z</time></trkpt><trkpt lat="43.4857233" lon="13.3973167"><ele>97.0</ele><time>2026-04-22T15:07:26.6Z</time></trkpt><trkpt lat="43.48573" lon="13.3975333"><ele>96.25</ele><time>2026-04-22T15:07:27.6Z</time></trkpt><trkpt lat="43.4857283" lon="13.3977433"><ele>95.5</ele><time>2026-04-22T15:07:28.6Z</time></trkpt><trkpt lat="43.485725" lon="13.3979383"><ele>94.75</ele><time>2026-04-22T15:07:29.6Z</time></trkpt><trkpt lat="43.485735" lon="13.398125"><ele>94.0</ele><time>2026-04-22T15:07:30.6Z</time></trkpt><trkpt lat="43.4857417" lon="13.3982983"><ele>93.75</ele><time>2026-04-22T15:07:31.6Z</time></trkpt><trkpt lat="43.4857483" lon="13.3984783"><ele>93.5</ele><time>2026-04-22T15:07:32.6Z</time></trkpt><trkpt lat="43.4857483" lon="13.398665"><ele>93.25</ele><time>2026-04-22T15:07:33.6Z</time></trkpt><trkpt lat="43.4857467" lon="13.3988433"><ele>93.0</ele><time>2026-04-22T15:07:34.6Z</time></trkpt><trkpt lat="43.485745" lon="13.3990267"><ele>93.0</ele><time>2026-04-22T15:07:35.6Z</time></trkpt><trkpt lat="43.48574" lon="13.3992167"><ele>93.0</ele><time>2026-04-22T15:07:36.6Z</time></trkpt><trkpt lat="43.4857467" lon="13.39941"><ele>93.0</ele><time>2026-04-22T15:07:37.601Z</time></trkpt><trkpt lat="43.4857467" lon="13.399605"><ele>93.0</ele><time>2026-04-22T15:07:38.6Z</time></trkpt><trkpt lat="43.4857517" lon="13.3997967"><ele>92.75</ele><time>2026-04-22T15:07:39.6Z</time></trkpt><trkpt lat="43.4857517" lon="13.3999867"><ele>92.5</ele><time>2026-04-22T15:07:40.6Z</time></trkpt><trkpt lat="43.4857483" lon="13.40018"><ele>92.25</ele><time>2026-04-22T15:07:41.6Z</time></trkpt><trkpt lat="43.485755" lon="13.400375"><ele>92.0</ele><time>2026-04-22T15:07:42.6Z</time></trkpt><trkpt lat="43.4857567" lon="13.4005767"><ele>91.75</ele><time>2026-04-22T15:07:43.6Z</time></trkpt><trkpt lat="43.4857567" lon="13.4007733"><ele>91.5</ele><time>2026-04-22T15:07:44.6Z</time></trkpt><trkpt lat="43.4857567" lon="13.4009733"><ele>91.25</ele><time>2026-04-22T15:07:45.6Z</time></trkpt><trkpt lat="43.4857567" lon="13.40118"><ele>91.0</ele><time>2026-04-22T15:07:46.6Z</time></trkpt><trkpt lat="43.4857567" lon="13.4013867"><ele>91.0</ele><time>2026-04-22T15:07:47.6Z</time></trkpt><trkpt lat="43.48576" lon="13.4015983"><ele>91.0</ele><time>2026-04-22T15:07:48.6Z</time></trkpt><trkpt lat="43.4857683" lon="13.4018117"><ele>91.0</ele><time>2026-04-22T15:07:49.6Z</time></trkpt><trkpt lat="43.4857733" lon="13.40202"><ele>91.0</ele><time>2026-04-22T15:07:50.6Z</time></trkpt><trkpt lat="43.4857717" lon="13.4022283"><ele>91.0</ele><time>2026-04-22T15:07:51.6Z</time></trkpt><trkpt lat="43.485775" lon="13.4024383"><ele>91.0</ele><time>2026-04-22T15:07:52.6Z</time></trkpt><trkpt lat="43.48578" lon="13.4026517"><ele>91.0</ele><time>2026-04-22T15:07:53.6Z</time></trkpt><trkpt lat="43.4857833" lon="13.4028667"><ele>91.0</ele><time>2026-04-22T15:07:54.6Z</time></trkpt><trkpt lat="43.4857867" lon="13.40308"><ele>91.0</ele><time>2026-04-22T15:07:55.601Z</time></trkpt><trkpt lat="43.4857933" lon="13.4032883"><ele>90.66666666666666</ele><time>2026-04-22T15:07:56.6Z</time></trkpt><trkpt lat="43.4857967" lon="13.4035033"><ele>90.33333333333333</ele><time>2026-04-22T15:07:57.6Z</time></trkpt><trkpt lat="43.4857967" lon="13.403715"><ele>90.0</ele><time>2026-04-22T15:07:58.6Z</time></trkpt><trkpt lat="43.485795" lon="13.4039283"><ele>90.0</ele><time>2026-04-22T15:07:59.6Z</time></trkpt><trkpt lat="43.4857983" lon="13.404145"><ele>90.0</ele><time>2026-04-22T15:08:00.6Z</time></trkpt><trkpt lat="43.4858" lon="13.4043583"><ele>90.0</ele><time>2026-04-22T15:08:01.6Z</time></trkpt><trkpt lat="43.4858017" lon="13.4045733"><ele>90.0</ele><time>2026-04-22T15:08:02.6Z</time></trkpt><trkpt lat="43.485795" lon="13.4047917"><ele>90.0</ele><time>2026-04-22T15:08:03.601Z</time></trkpt><trkpt lat="43.485785" lon="13.4050117"><ele>90.0</ele><time>2026-04-22T15:08:04.601Z</time></trkpt><trkpt lat="43.4857633" lon="13.40523"><ele>90.0</ele><time>2026-04-22T15:08:05.601Z</time></trkpt><trkpt lat="43.4857317" lon="13.4054433"><ele>90.0</ele><time>2026-04-22T15:08:06.601Z</time></trkpt><trkpt lat="43.4857033" lon="13.405655"><ele>90.0</ele><time>2026-04-22T15:08:07.6Z</time></trkpt><trkpt lat="43.4856683" lon="13.405865"><ele>90.25</ele><time>2026-04-22T15:08:08.6Z</time></trkpt><trkpt lat="43.4856333" lon="13.4060617"><ele>90.5</ele><time>2026-04-22T15:08:09.6Z</time></trkpt><trkpt lat="43.4856017" lon="13.4062517"><ele>90.75</ele><time>2026-04-22T15:08:10.6Z</time></trkpt><trkpt lat="43.4855783" lon="13.4064633"><ele>91.0</ele><time>2026-04-22T15:08:11.601Z</time></trkpt><trkpt lat="43.4855383" lon="13.4066733"><ele>91.0</ele><time>2026-04-22T15:08:12.6Z</time></trkpt><trkpt lat="43.4855" lon="13.4068817"><ele>91.0</ele><time>2026-04-22T15:08:13.6Z</time></trkpt><trkpt lat="43.4854617" lon="13.4070867"><ele>91.0</ele><time>2026-04-22T15:08:14.6Z</time></trkpt><trkpt lat="43.485425" lon="13.4072883"><ele>90.33333333333333</ele><time>2026-04-22T15:08:15.6Z</time></trkpt><trkpt lat="43.4854" lon="13.40749"><ele>89.66666666666667</ele><time>2026-04-22T15:08:16.6Z</time></trkpt><trkpt lat="43.4853683" lon="13.4077033"><ele>89.0</ele><time>2026-04-22T15:08:17.6Z</time></trkpt><trkpt lat="43.4853433" lon="13.4079083"><ele>88.66666666666667</ele><time>2026-04-22T15:08:18.6Z</time></trkpt><trkpt lat="43.485325" lon="13.4081183"><ele>88.33333333333333</ele><time>2026-04-22T15:08:19.6Z</time></trkpt><trkpt lat="43.4852933" lon="13.4083233"><ele>88.0</ele><time>2026-04-22T15:08:20.6Z</time></trkpt><trkpt lat="43.4852633" lon="13.4085283"><ele>88.0</ele><time>2026-04-22T15:08:21.6Z</time></trkpt><trkpt lat="43.4852383" lon="13.4087317"><ele>88.0</ele><time>2026-04-22T15:08:22.6Z</time></trkpt><trkpt lat="43.4852117" lon="13.4089333"><ele>88.0</ele><time>2026-04-22T15:08:23.6Z</time></trkpt><trkpt lat="43.48519" lon="13.4091367"><ele>88.0</ele><time>2026-04-22T15:08:24.6Z</time></trkpt><trkpt lat="43.4851667" lon="13.4093383"><ele>87.75</ele><time>2026-04-22T15:08:25.6Z</time></trkpt><trkpt lat="43.48514" lon="13.4095417"><ele>87.5</ele><time>2026-04-22T15:08:26.601Z</time></trkpt><trkpt lat="43.4851183" lon="13.4097367"><ele>87.25</ele><time>2026-04-22T15:08:27.6Z</time></trkpt><trkpt lat="43.4850917" lon="13.409935"><ele>87.0</ele><time>2026-04-22T15:08:28.6Z</time></trkpt><trkpt lat="43.4850683" lon="13.4101383"><ele>86.5</ele><time>2026-04-22T15:08:29.6Z</time></trkpt><trkpt lat="43.4850433" lon="13.41034"><ele>86.0</ele><time>2026-04-22T15:08:30.6Z</time></trkpt><trkpt lat="43.485005" lon="13.4105383"><ele>85.5</ele><time>2026-04-22T15:08:31.6Z</time></trkpt><trkpt lat="43.4849683" lon="13.4107383"><ele>85.0</ele><time>2026-04-22T15:08:32.601Z</time></trkpt><trkpt lat="43.4849383" lon="13.4109417"><ele>85.0</ele><time>2026-04-22T15:08:33.6Z</time></trkpt><trkpt lat="43.4849117" lon="13.4111433"><ele>85.0</ele><time>2026-04-22T15:08:34.599Z</time></trkpt><trkpt lat="43.4848817" lon="13.4113433"><ele>85.0</ele><time>2026-04-22T15:08:35.599Z</time></trkpt><trkpt lat="43.48485" lon="13.411545"><ele>85.0</ele><time>2026-04-22T15:08:36.599Z</time></trkpt><trkpt lat="43.48482" lon="13.4117367"><ele>85.0</ele><time>2026-04-22T15:08:37.599Z</time></trkpt><trkpt lat="43.4847833" lon="13.41193"><ele>85.0</ele><time>2026-04-22T15:08:38.599Z</time></trkpt><trkpt lat="43.484745" lon="13.4121333"><ele>85.0</ele><time>2026-04-22T15:08:39.599Z</time></trkpt><trkpt lat="43.4847083" lon="13.4123367"><ele>85.0</ele><time>2026-04-22T15:08:40.599Z</time></trkpt><trkpt lat="43.4846633" lon="13.412535"><ele>84.66666666666666</ele><time>2026-04-22T15:08:41.599Z</time></trkpt><trkpt lat="43.4846167" lon="13.4127367"><ele>84.33333333333333</ele><time>2026-04-22T15:08:42.599Z</time></trkpt><trkpt lat="43.4845633" lon="13.412935"><ele>84.0</ele><time>2026-04-22T15:08:43.599Z</time></trkpt><trkpt lat="43.4845067" lon="13.41314"><ele>83.33333333333333</ele><time>2026-04-22T15:08:44.599Z</time></trkpt><trkpt lat="43.4844383" lon="13.4133317"><ele>82.66666666666666</ele><time>2026-04-22T15:08:45.599Z</time></trkpt><trkpt lat="43.4843667" lon="13.4135267"><ele>82.0</ele><time>2026-04-22T15:08:46.599Z</time></trkpt><trkpt lat="43.4843033" lon="13.413725"><ele>82.33333333333333</ele><time>2026-04-22T15:08:47.599Z</time></trkpt><trkpt lat="43.4842433" lon="13.4139283"><ele>82.66666666666667</ele><time>2026-04-22T15:08:48.599Z</time></trkpt><trkpt lat="43.484185" lon="13.4141317"><ele>83.0</ele><time>2026-04-22T15:08:49.599Z</time></trkpt><trkpt lat="43.484125" lon="13.4143333"><ele>83.0</ele><time>2026-04-22T15:08:50.599Z</time></trkpt><trkpt lat="43.48407" lon="13.41453"><ele>83.0</ele><time>2026-04-22T15:08:51.6Z</time></trkpt><trkpt lat="43.4840183" lon="13.4147317"><ele>83.0</ele><time>2026-04-22T15:08:52.599Z</time></trkpt><trkpt lat="43.4839683" lon="13.4149283"><ele>82.66666666666667</ele><time>2026-04-22T15:08:53.599Z</time></trkpt><trkpt lat="43.4839133" lon="13.4151283"><ele>82.33333333333333</ele><time>2026-04-22T15:08:54.599Z</time></trkpt><trkpt lat="43.48386" lon="13.4153267"><ele>82.0</ele><time>2026-04-22T15:08:55.599Z</time></trkpt><trkpt lat="43.4838083" lon="13.4155317"><ele>81.66666666666666</ele><time>2026-04-22T15:08:56.599Z</time></trkpt><trkpt lat="43.4837533" lon="13.4157283"><ele>81.33333333333333</ele><time>2026-04-22T15:08:57.6Z</time></trkpt><trkpt lat="43.4837067" lon="13.4159267"><ele>81.0</ele><time>2026-04-22T15:08:58.599Z</time></trkpt><trkpt lat="43.48365" lon="13.4161233"><ele>81.0</ele><time>2026-04-22T15:08:59.6Z</time></trkpt><trkpt lat="43.4835767" lon="13.4163"><ele>81.0</ele><time>2026-04-22T15:09:00.6Z</time></trkpt><trkpt lat="43.4835017" lon="13.416515"><ele>81.0</ele><time>2026-04-22T15:09:01.599Z</time></trkpt><trkpt lat="43.48342" lon="13.41671"><ele>81.0</ele><time>2026-04-22T15:09:02.599Z</time></trkpt><trkpt lat="43.4833383" lon="13.4169017"><ele>81.0</ele><time>2026-04-22T15:09:03.599Z</time></trkpt><trkpt lat="43.4832567" lon="13.4171"><ele>81.0</ele><time>2026-04-22T15:09:04.599Z</time></trkpt><trkpt lat="43.483185" lon="13.417295"><ele>81.33333333333333</ele><time>2026-04-22T15:09:05.599Z</time></trkpt><trkpt lat="43.483115" lon="13.4174933"><ele>81.66666666666666</ele><time>2026-04-22T15:09:06.599Z</time></trkpt><trkpt lat="43.4830433" lon="13.4176917"><ele>82.0</ele><time>2026-04-22T15:09:07.599Z</time></trkpt><trkpt lat="43.4829717" lon="13.4178717"><ele>82.0</ele><time>2026-04-22T15:09:08.6Z</time></trkpt><trkpt lat="43.4829" lon="13.4180583"><ele>82.0</ele><time>2026-04-22T15:09:09.6Z</time></trkpt><trkpt lat="43.48283" lon="13.4182483"><ele>82.0</ele><time>2026-04-22T15:09:10.599Z</time></trkpt><trkpt lat="43.48276" lon="13.4184283"><ele>82.0</ele><time>2026-04-22T15:09:11.599Z</time></trkpt><trkpt lat="43.4826917" lon="13.41862"><ele>82.0</ele><time>2026-04-22T15:09:12.599Z</time></trkpt><trkpt lat="43.4826283" lon="13.4188283"><ele>82.0</ele><time>2026-04-22T15:09:13.599Z</time></trkpt><trkpt lat="43.4825867" lon="13.4190367"><ele>82.33333333333333</ele><time>2026-04-22T15:09:14.599Z</time></trkpt><trkpt lat="43.4825567" lon="13.41924"><ele>82.66666666666667</ele><time>2026-04-22T15:09:15.599Z</time></trkpt><trkpt lat="43.4825367" lon="13.4194583"><ele>83.0</ele><time>2026-04-22T15:09:16.599Z</time></trkpt><trkpt lat="43.482525" lon="13.419685"><ele>83.0</ele><time>2026-04-22T15:09:17.6Z</time></trkpt><trkpt lat="43.48251" lon="13.4198917"><ele>83.0</ele><time>2026-04-22T15:09:18.599Z</time></trkpt><trkpt lat="43.4824883" lon="13.4201"><ele>83.0</ele><time>2026-04-22T15:09:19.599Z</time></trkpt><trkpt lat="43.4824767" lon="13.420305"><ele>83.0</ele><time>2026-04-22T15:09:20.599Z</time></trkpt><trkpt lat="43.48246" lon="13.4205083"><ele>83.0</ele><time>2026-04-22T15:09:21.599Z</time></trkpt><trkpt lat="43.4824467" lon="13.42071"><ele>83.0</ele><time>2026-04-22T15:09:22.599Z</time></trkpt><trkpt lat="43.4824333" lon="13.4209133"><ele>83.0</ele><time>2026-04-22T15:09:23.6Z</time></trkpt><trkpt lat="43.482425" lon="13.4211133"><ele>83.0</ele><time>2026-04-22T15:09:24.599Z</time></trkpt><trkpt lat="43.4824117" lon="13.4213117"><ele>83.0</ele><time>2026-04-22T15:09:25.599Z</time></trkpt><trkpt lat="43.4824017" lon="13.4215083"><ele>83.0</ele><time>2026-04-22T15:09:26.599Z</time></trkpt><trkpt lat="43.482395" lon="13.4216967"><ele>83.0</ele><time>2026-04-22T15:09:27.599Z</time></trkpt><trkpt lat="43.4823917" lon="13.4218817"><ele>83.0</ele><time>2026-04-22T15:09:28.599Z</time></trkpt><trkpt lat="43.4824" lon="13.422075"><ele>83.0</ele><time>2026-04-22T15:09:29.599Z</time></trkpt><trkpt lat="43.482405" lon="13.422265"><ele>83.0</ele><time>2026-04-22T15:09:30.599Z</time></trkpt><trkpt lat="43.4824117" lon="13.422455"><ele>83.0</ele><time>2026-04-22T15:09:31.599Z</time></trkpt><trkpt lat="43.48242" lon="13.4226533"><ele>83.0</ele><time>2026-04-22T15:09:32.599Z</time></trkpt><trkpt lat="43.4824333" lon="13.4228533"><ele>83.0</ele><time>2026-04-22T15:09:33.599Z</time></trkpt><trkpt lat="43.482455" lon="13.4230533"><ele>83.0</ele><time>2026-04-22T15:09:34.599Z</time></trkpt><trkpt lat="43.4824717" lon="13.4232533"><ele>83.0</ele><time>2026-04-22T15:09:35.599Z</time></trkpt><trkpt lat="43.482485" lon="13.4234583"><ele>82.5</ele><time>2026-04-22T15:09:36.6Z</time></trkpt><trkpt lat="43.482495" lon="13.4236567"><ele>82.0</ele><time>2026-04-22T15:09:37.599Z</time></trkpt><trkpt lat="43.482505" lon="13.423855"><ele>81.5</ele><time>2026-04-22T15:09:38.599Z</time></trkpt><trkpt lat="43.482515" lon="13.4240533"><ele>81.0</ele><time>2026-04-22T15:09:39.599Z</time></trkpt><trkpt lat="43.482535" lon="13.4242517"><ele>81.0</ele><time>2026-04-22T15:09:40.599Z</time></trkpt><trkpt lat="43.4825433" lon="13.4244533"><ele>81.0</ele><time>2026-04-22T15:09:41.599Z</time></trkpt><trkpt lat="43.4825383" lon="13.4246617"><ele>81.0</ele><time>2026-04-22T15:09:42.599Z</time></trkpt><trkpt lat="43.4825217" lon="13.4248783"><ele>82.0</ele><time>2026-04-22T15:09:43.599Z</time></trkpt><trkpt lat="43.482485" lon="13.4251067"><ele>83.0</ele><time>2026-04-22T15:09:44.599Z</time></trkpt><trkpt lat="43.4824317" lon="13.4253417"><ele>84.0</ele><time>2026-04-22T15:09:45.599Z</time></trkpt><trkpt lat="43.482385" lon="13.4255717"><ele>84.66666666666667</ele><time>2026-04-22T15:09:46.599Z</time></trkpt><trkpt lat="43.48234" lon="13.425795"><ele>85.33333333333334</ele><time>2026-04-22T15:09:47.599Z</time></trkpt><trkpt lat="43.4822933" lon="13.4259867"><ele>86.0</ele><time>2026-04-22T15:09:48.599Z</time></trkpt><trkpt lat="43.4822517" lon="13.426175"><ele>86.75</ele><time>2026-04-22T15:09:49.599Z</time></trkpt><trkpt lat="43.48221" lon="13.4263667"><ele>87.5</ele><time>2026-04-22T15:09:50.599Z</time></trkpt><trkpt lat="43.4821717" lon="13.4265583"><ele>88.25</ele><time>2026-04-22T15:09:51.599Z</time></trkpt><trkpt lat="43.4821383" lon="13.4267417"><ele>89.0</ele><time>2026-04-22T15:09:52.599Z</time></trkpt><trkpt lat="43.4821083" lon="13.42694"><ele>87.75</ele><time>2026-04-22T15:09:53.599Z</time></trkpt><trkpt lat="43.4820783" lon="13.4271333"><ele>86.5</ele><time>2026-04-22T15:09:54.599Z</time></trkpt><trkpt lat="43.4820567" lon="13.42734"><ele>85.25</ele><time>2026-04-22T15:09:55.6Z</time></trkpt><trkpt lat="43.4820267" lon="13.4275483"><ele>84.0</ele><time>2026-04-22T15:09:56.599Z</time></trkpt><trkpt lat="43.4819917" lon="13.4277583"><ele>84.33333333333333</ele><time>2026-04-22T15:09:57.599Z</time></trkpt><trkpt lat="43.48197" lon="13.4279767"><ele>84.66666666666666</ele><time>2026-04-22T15:09:58.599Z</time></trkpt><trkpt lat="43.481955" lon="13.4281967"><ele>85.0</ele><time>2026-04-22T15:09:59.599Z</time></trkpt><trkpt lat="43.4819433" lon="13.42842"><ele>85.0</ele><time>2026-04-22T15:10:00.599Z</time></trkpt><trkpt lat="43.481925" lon="13.4286317"><ele>85.0</ele><time>2026-04-22T15:10:01.599Z</time></trkpt><trkpt lat="43.481915" lon="13.4288517"><ele>85.0</ele><time>2026-04-22T15:10:02.599Z</time></trkpt><trkpt lat="43.481915" lon="13.4290767"><ele>85.0</ele><time>2026-04-22T15:10:03.599Z</time></trkpt><trkpt lat="43.4819117" lon="13.4293067"><ele>85.0</ele><time>2026-04-22T15:10:04.599Z</time></trkpt><trkpt lat="43.4819017" lon="13.429535"><ele>85.0</ele><time>2026-04-22T15:10:05.599Z</time></trkpt><trkpt lat="43.4818967" lon="13.4297567"><ele>85.0</ele><time>2026-04-22T15:10:06.599Z</time></trkpt><trkpt lat="43.481885" lon="13.4299833"><ele>85.0</ele><time>2026-04-22T15:10:07.599Z</time></trkpt><trkpt lat="43.4818583" lon="13.430205"><ele>85.0</ele><time>2026-04-22T15:10:08.599Z</time></trkpt><trkpt lat="43.48183" lon="13.4304217"><ele>86.0</ele><time>2026-04-22T15:10:09.599Z</time></trkpt><trkpt lat="43.4818" lon="13.4306383"><ele>87.0</ele><time>2026-04-22T15:10:10.599Z</time></trkpt><trkpt lat="43.481755" lon="13.430855"><ele>88.0</ele><time>2026-04-22T15:10:11.599Z</time></trkpt><trkpt lat="43.4817083" lon="13.43105"><ele>88.0</ele><time>2026-04-22T15:10:12.6Z</time></trkpt><trkpt lat="43.4816517" lon="13.431245"><ele>88.0</ele><time>2026-04-22T15:10:13.599Z</time></trkpt><trkpt lat="43.481575" lon="13.43143"><ele>88.0</ele><time>2026-04-22T15:10:14.599Z</time></trkpt><trkpt lat="43.4815067" lon="13.43163"><ele>88.0</ele><time>2026-04-22T15:10:15.599Z</time></trkpt><trkpt lat="43.4814267" lon="13.4318083"><ele>88.0</ele><time>2026-04-22T15:10:16.599Z</time></trkpt><trkpt lat="43.48132" lon="13.4319933"><ele>88.0</ele><time>2026-04-22T15:10:17.599Z</time></trkpt><trkpt lat="43.4812067" lon="13.4321533"><ele>88.0</ele><time>2026-04-22T15:10:18.6Z</time></trkpt><trkpt lat="43.4810817" lon="13.4323033"><ele>88.0</ele><time>2026-04-22T15:10:19.599Z</time></trkpt><trkpt lat="43.4809483" lon="13.4324567"><ele>88.0</ele><time>2026-04-22T15:10:20.599Z</time></trkpt><trkpt lat="43.4808217" lon="13.4326017"><ele>88.0</ele><time>2026-04-22T15:10:21.599Z</time></trkpt><trkpt lat="43.4806967" lon="13.4327583"><ele>88.0</ele><time>2026-04-22T15:10:22.599Z</time></trkpt><trkpt lat="43.4805683" lon="13.4329033"><ele>88.0</ele><time>2026-04-22T15:10:23.599Z</time></trkpt><trkpt lat="43.480445" lon="13.43307"><ele>88.33333333333333</ele><time>2026-04-22T15:10:24.6Z</time></trkpt><trkpt lat="43.48033" lon="13.433255"><ele>88.66666666666667</ele><time>2026-04-22T15:10:25.599Z</time></trkpt><trkpt lat="43.4802367" lon="13.4334583"><ele>89.0</ele><time>2026-04-22T15:10:26.599Z</time></trkpt><trkpt lat="43.480135" lon="13.4336517"><ele>90.0</ele><time>2026-04-22T15:10:27.6Z</time></trkpt><trkpt lat="43.4800417" lon="13.4338467"><ele>91.0</ele><time>2026-04-22T15:10:28.599Z</time></trkpt><trkpt lat="43.47995" lon="13.434025"><ele>92.0</ele><time>2026-04-22T15:10:29.6Z</time></trkpt><trkpt lat="43.4798617" lon="13.4341983"><ele>92.0</ele><time>2026-04-22T15:10:30.599Z</time></trkpt><trkpt lat="43.4797767" lon="13.4343733"><ele>92.0</ele><time>2026-04-22T15:10:31.599Z</time></trkpt><trkpt lat="43.4796833" lon="13.4345483"><ele>92.0</ele><time>2026-04-22T15:10:32.599Z</time></trkpt><trkpt lat="43.4795983" lon="13.4347267"><ele>90.66666666666667</ele><time>2026-04-22T15:10:33.599Z</time></trkpt><trkpt lat="43.4795183" lon="13.4349117"><ele>89.33333333333333</ele><time>2026-04-22T15:10:34.599Z</time></trkpt><trkpt lat="43.4794517" lon="13.4351183"><ele>88.0</ele><time>2026-04-22T15:10:35.599Z</time></trkpt><trkpt lat="43.4794017" lon="13.43533"><ele>88.0</ele><time>2026-04-22T15:10:36.599Z</time></trkpt><trkpt lat="43.4793567" lon="13.4355383"><ele>88.0</ele><time>2026-04-22T15:10:37.599Z</time></trkpt><trkpt lat="43.4793233" lon="13.4357483"><ele>88.0</ele><time>2026-04-22T15:10:38.599Z</time></trkpt><trkpt lat="43.4792783" lon="13.4359483"><ele>88.0</ele><time>2026-04-22T15:10:39.599Z</time></trkpt><trkpt lat="43.4792183" lon="13.4361433"><ele>88.0</ele><time>2026-04-22T15:10:40.599Z</time></trkpt><trkpt lat="43.4791517" lon="13.4363383"><ele>88.0</ele><time>2026-04-22T15:10:41.6Z</time></trkpt><trkpt lat="43.4790683" lon="13.4365267"><ele>87.66666666666666</ele><time>2026-04-22T15:10:42.599Z</time></trkpt><trkpt lat="43.4789817" lon="13.4367267"><ele>87.33333333333333</ele><time>2026-04-22T15:10:43.599Z</time></trkpt><trkpt lat="43.47889" lon="13.43692"><ele>87.0</ele><time>2026-04-22T15:10:44.6Z</time></trkpt><trkpt lat="43.4788133" lon="13.437115"><ele>86.0</ele><time>2026-04-22T15:10:45.599Z</time></trkpt><trkpt lat="43.4787333" lon="13.4373233"><ele>85.0</ele><time>2026-04-22T15:10:46.6Z</time></trkpt><trkpt lat="43.4786517" lon="13.4375183"><ele>84.0</ele><time>2026-04-22T15:10:47.599Z</time></trkpt><trkpt lat="43.4785683" lon="13.4377167"><ele>84.0</ele><time>2026-04-22T15:10:48.6Z</time></trkpt><trkpt lat="43.4784883" lon="13.4379033"><ele>84.0</ele><time>2026-04-22T15:10:49.599Z</time></trkpt><trkpt lat="43.4784083" lon="13.438085"><ele>84.0</ele><time>2026-04-22T15:10:50.599Z</time></trkpt><trkpt lat="43.4783333" lon="13.43827"><ele>83.33333333333333</ele><time>2026-04-22T15:10:51.6Z</time></trkpt><trkpt lat="43.47825" lon="13.43845"><ele>82.66666666666666</ele><time>2026-04-22T15:10:52.599Z</time></trkpt><trkpt lat="43.4781683" lon="13.4386383"><ele>82.0</ele><time>2026-04-22T15:10:53.599Z</time></trkpt><trkpt lat="43.4780833" lon="13.4388217"><ele>81.5</ele><time>2026-04-22T15:10:54.599Z</time></trkpt><trkpt lat="43.478005" lon="13.4389967"><ele>81.0</ele><time>2026-04-22T15:10:55.6Z</time></trkpt><trkpt lat="43.4779283" lon="13.4391717"><ele>80.5</ele><time>2026-04-22T15:10:56.599Z</time></trkpt><trkpt lat="43.4778533" lon="13.43934"><ele>80.0</ele><time>2026-04-22T15:10:57.599Z</time></trkpt><trkpt lat="43.4777767" lon="13.4395"><ele>79.75</ele><time>2026-04-22T15:10:58.599Z</time></trkpt><trkpt lat="43.477695" lon="13.4396517"><ele>79.5</ele><time>2026-04-22T15:10:59.599Z</time></trkpt><trkpt lat="43.4776133" lon="13.4398167"><ele>79.25</ele><time>2026-04-22T15:11:00.6Z</time></trkpt><trkpt lat="43.4775317" lon="13.4399867"><ele>79.0</ele><time>2026-04-22T15:11:01.599Z</time></trkpt><trkpt lat="43.47745" lon="13.4401517"><ele>79.0</ele><time>2026-04-22T15:11:02.599Z</time></trkpt><trkpt lat="43.4773633" lon="13.4403283"><ele>79.0</ele><time>2026-04-22T15:11:03.599Z</time></trkpt><trkpt lat="43.4772733" lon="13.4404933"><ele>79.0</ele><time>2026-04-22T15:11:04.6Z</time></trkpt><trkpt lat="43.4771817" lon="13.44065"><ele>78.25</ele><time>2026-04-22T15:11:05.599Z</time></trkpt><trkpt lat="43.4770917" lon="13.4408"><ele>77.5</ele><time>2026-04-22T15:11:06.599Z</time></trkpt><trkpt lat="43.4769967" lon="13.4409533"><ele>76.75</ele><time>2026-04-22T15:11:07.599Z</time></trkpt><trkpt lat="43.4768933" lon="13.4411017"><ele>76.0</ele><time>2026-04-22T15:11:08.599Z</time></trkpt><trkpt lat="43.4767983" lon="13.4412467"><ele>76.25</ele><time>2026-04-22T15:11:09.599Z</time></trkpt><trkpt lat="43.4767017" lon="13.441395"><ele>76.5</ele><time>2026-04-22T15:11:10.599Z</time></trkpt><trkpt lat="43.4766" lon="13.4415483"><ele>76.75</ele><time>2026-04-22T15:11:11.599Z</time></trkpt><trkpt lat="43.4764983" lon="13.4417017"><ele>77.0</ele><time>2026-04-22T15:11:12.599Z</time></trkpt><trkpt lat="43.47639" lon="13.4418583"><ele>77.0</ele><time>2026-04-22T15:11:13.599Z</time></trkpt><trkpt lat="43.4762833" lon="13.4420133"><ele>77.0</ele><time>2026-04-22T15:11:14.599Z</time></trkpt><trkpt lat="43.47618" lon="13.4421767"><ele>77.0</ele><time>2026-04-22T15:11:15.599Z</time></trkpt><trkpt lat="43.47608" lon="13.442345"><ele>75.0</ele><time>2026-04-22T15:11:16.599Z</time></trkpt><trkpt lat="43.4759883" lon="13.442515"><ele>73.0</ele><time>2026-04-22T15:11:17.599Z</time></trkpt><trkpt lat="43.475905" lon="13.4427083"><ele>71.0</ele><time>2026-04-22T15:11:18.599Z</time></trkpt><trkpt lat="43.47582" lon="13.4428867"><ele>71.0</ele><time>2026-04-22T15:11:19.599Z</time></trkpt><trkpt lat="43.4757433" lon="13.4430717"><ele>71.0</ele><time>2026-04-22T15:11:20.599Z</time></trkpt><trkpt lat="43.475675" lon="13.4432667"><ele>71.0</ele><time>2026-04-22T15:11:21.599Z</time></trkpt><trkpt lat="43.4756133" lon="13.4434667"><ele>71.0</ele><time>2026-04-22T15:11:22.599Z</time></trkpt><trkpt lat="43.4755583" lon="13.44367"><ele>71.0</ele><time>2026-04-22T15:11:23.599Z</time></trkpt><trkpt lat="43.4755183" lon="13.44387"><ele>71.0</ele><time>2026-04-22T15:11:24.599Z</time></trkpt><trkpt lat="43.475485" lon="13.4440833"><ele>70.66666666666667</ele><time>2026-04-22T15:11:25.6Z</time></trkpt><trkpt lat="43.4754483" lon="13.4442967"><ele>70.33333333333333</ele><time>2026-04-22T15:11:26.599Z</time></trkpt><trkpt lat="43.47543" lon="13.4445083"><ele>70.0</ele><time>2026-04-22T15:11:27.599Z</time></trkpt><trkpt lat="43.4754067" lon="13.4447233"><ele>68.66666666666666</ele><time>2026-04-22T15:11:28.599Z</time></trkpt><trkpt lat="43.4753833" lon="13.444935"><ele>67.33333333333333</ele><time>2026-04-22T15:11:29.599Z</time></trkpt><trkpt lat="43.475355" lon="13.4451583"><ele>66.0</ele><time>2026-04-22T15:11:30.599Z</time></trkpt><trkpt lat="43.4753383" lon="13.4453767"><ele>66.0</ele><time>2026-04-22T15:11:31.599Z</time></trkpt><trkpt lat="43.4753217" lon="13.4455917"><ele>66.0</ele><time>2026-04-22T15:11:32.599Z</time></trkpt><trkpt lat="43.4752983" lon="13.4458183"><ele>66.0</ele><time>2026-04-22T15:11:33.599Z</time></trkpt><trkpt lat="43.4752717" lon="13.4460583"><ele>65.66666666666667</ele><time>2026-04-22T15:11:34.599Z</time></trkpt><trkpt lat="43.475235" lon="13.4463067"><ele>65.33333333333334</ele><time>2026-04-22T15:11:35.599Z</time></trkpt><trkpt lat="43.475195" lon="13.4465417"><ele>65.0</ele><time>2026-04-22T15:11:36.6Z</time></trkpt><trkpt lat="43.47515" lon="13.4467617"><ele>65.0</ele><time>2026-04-22T15:11:37.6Z</time></trkpt><trkpt lat="43.4751117" lon="13.4469867"><ele>65.0</ele><time>2026-04-22T15:11:38.599Z</time></trkpt><trkpt lat="43.4750633" lon="13.4472067"><ele>65.0</ele><time>2026-04-22T15:11:39.599Z</time></trkpt><trkpt lat="43.47502" lon="13.44742"><ele>65.66666666666667</ele><time>2026-04-22T15:11:40.6Z</time></trkpt><trkpt lat="43.4749733" lon="13.4476283"><ele>66.33333333333333</ele><time>2026-04-22T15:11:41.6Z</time></trkpt><trkpt lat="43.4749267" lon="13.4478383"><ele>67.0</ele><time>2026-04-22T15:11:42.599Z</time></trkpt><trkpt lat="43.4748633" lon="13.4480467"><ele>67.33333333333333</ele><time>2026-04-22T15:11:43.6Z</time></trkpt><trkpt lat="43.47481" lon="13.4482567"><ele>67.66666666666667</ele><time>2026-04-22T15:11:44.599Z</time></trkpt><trkpt lat="43.4747433" lon="13.4484683"><ele>68.0</ele><time>2026-04-22T15:11:45.6Z</time></trkpt><trkpt lat="43.4746733" lon="13.44868"><ele>66.66666666666667</ele><time>2026-04-22T15:11:46.599Z</time></trkpt><trkpt lat="43.4746033" lon="13.4488883"><ele>65.33333333333333</ele><time>2026-04-22T15:11:47.6Z</time></trkpt><trkpt lat="43.4745267" lon="13.4490833"><ele>64.0</ele><time>2026-04-22T15:11:48.599Z</time></trkpt><trkpt lat="43.474445" lon="13.449285"><ele>64.0</ele><time>2026-04-22T15:11:49.6Z</time></trkpt><trkpt lat="43.4743583" lon="13.4494917"><ele>64.0</ele><time>2026-04-22T15:11:50.599Z</time></trkpt><trkpt lat="43.4742733" lon="13.449685"><ele>64.0</ele><time>2026-04-22T15:11:51.599Z</time></trkpt><trkpt lat="43.47418" lon="13.449875"><ele>65.0</ele><time>2026-04-22T15:11:52.599Z</time></trkpt><trkpt lat="43.4740833" lon="13.4500633"><ele>66.0</ele><time>2026-04-22T15:11:53.599Z</time></trkpt><trkpt lat="43.4739867" lon="13.4502467"><ele>67.0</ele><time>2026-04-22T15:11:54.599Z</time></trkpt><trkpt lat="43.4739" lon="13.4504467"><ele>68.0</ele><time>2026-04-22T15:11:55.599Z</time></trkpt><trkpt lat="43.47382" lon="13.4506433"><ele>69.0</ele><time>2026-04-22T15:11:56.599Z</time></trkpt><trkpt lat="43.4737417" lon="13.4508433"><ele>70.0</ele><time>2026-04-22T15:11:57.599Z</time></trkpt><trkpt lat="43.4736767" lon="13.4510517"><ele>67.33333333333333</ele><time>2026-04-22T15:11:58.6Z</time></trkpt><trkpt lat="43.4736183" lon="13.451265"><ele>64.66666666666667</ele><time>2026-04-22T15:11:59.599Z</time></trkpt><trkpt lat="43.4735683" lon="13.4514817"><ele>62.0</ele><time>2026-04-22T15:12:00.6Z</time></trkpt><trkpt lat="43.47353" lon="13.4516967"><ele>62.0</ele><time>2026-04-22T15:12:01.599Z</time></trkpt><trkpt lat="43.4734883" lon="13.4519117"><ele>62.0</ele><time>2026-04-22T15:12:02.599Z</time></trkpt><trkpt lat="43.4734567" lon="13.452135"><ele>62.0</ele><time>2026-04-22T15:12:03.599Z</time></trkpt><trkpt lat="43.4734217" lon="13.4523517"><ele>63.0</ele><time>2026-04-22T15:12:04.599Z</time></trkpt><trkpt lat="43.4733867" lon="13.45256"><ele>64.0</ele><time>2026-04-22T15:12:05.599Z</time></trkpt><trkpt lat="43.4733467" lon="13.45277"><ele>65.0</ele><time>2026-04-22T15:12:06.599Z</time></trkpt><trkpt lat="43.4733167" lon="13.4529867"><ele>65.0</ele><time>2026-04-22T15:12:07.599Z</time></trkpt><trkpt lat="43.4732783" lon="13.4531967"><ele>65.0</ele><time>2026-04-22T15:12:08.6Z</time></trkpt><trkpt lat="43.473225" lon="13.4534067"><ele>65.0</ele><time>2026-04-22T15:12:09.6Z</time></trkpt><trkpt lat="43.4731767" lon="13.4536183"><ele>65.0</ele><time>2026-04-22T15:12:10.599Z</time></trkpt><trkpt lat="43.4731267" lon="13.453825"><ele>65.0</ele><time>2026-04-22T15:12:11.599Z</time></trkpt><trkpt lat="43.47308" lon="13.45404"><ele>65.0</ele><time>2026-04-22T15:12:12.599Z</time></trkpt><trkpt lat="43.4730317" lon="13.4542517"><ele>65.0</ele><time>2026-04-22T15:12:13.599Z</time></trkpt><trkpt lat="43.4729533" lon="13.4544567"><ele>65.0</ele><time>2026-04-22T15:12:14.599Z</time></trkpt><trkpt lat="43.4728667" lon="13.4546533"><ele>65.0</ele><time>2026-04-22T15:12:15.599Z</time></trkpt><trkpt lat="43.47278" lon="13.4548433"><ele>64.33333333333334</ele><time>2026-04-22T15:12:16.6Z</time></trkpt><trkpt lat="43.4726983" lon="13.4550417"><ele>63.66666666666667</ele><time>2026-04-22T15:12:17.599Z</time></trkpt><trkpt lat="43.4726133" lon="13.4552417"><ele>63.0</ele><time>2026-04-22T15:12:18.599Z</time></trkpt><trkpt lat="43.4725267" lon="13.4554367"><ele>63.25</ele><time>2026-04-22T15:12:19.599Z</time></trkpt><trkpt lat="43.4724533" lon="13.4556217"><ele>63.5</ele><time>2026-04-22T15:12:20.599Z</time></trkpt><trkpt lat="43.4723783" lon="13.4557983"><ele>63.75</ele><time>2026-04-22T15:12:21.599Z</time></trkpt><trkpt lat="43.4723033" lon="13.4559717"><ele>64.0</ele><time>2026-04-22T15:12:22.599Z</time></trkpt><trkpt lat="43.47223" lon="13.456145"><ele>64.25</ele><time>2026-04-22T15:12:23.6Z</time></trkpt><trkpt lat="43.4721567" lon="13.45632"><ele>64.5</ele><time>2026-04-22T15:12:24.599Z</time></trkpt><trkpt lat="43.4720767" lon="13.4564917"><ele>64.75</ele><time>2026-04-22T15:12:25.599Z</time></trkpt><trkpt lat="43.472005" lon="13.45666"><ele>65.0</ele><time>2026-04-22T15:12:26.599Z</time></trkpt><trkpt lat="43.4719383" lon="13.4568283"><ele>64.75</ele><time>2026-04-22T15:12:27.599Z</time></trkpt><trkpt lat="43.471875" lon="13.456995"><ele>64.5</ele><time>2026-04-22T15:12:28.599Z</time></trkpt><trkpt lat="43.4718133" lon="13.457155"><ele>64.25</ele><time>2026-04-22T15:12:29.599Z</time></trkpt><trkpt lat="43.4717417" lon="13.4573033"><ele>64.0</ele><time>2026-04-22T15:12:30.599Z</time></trkpt><trkpt lat="43.471675" lon="13.4574483"><ele>64.0</ele><time>2026-04-22T15:12:31.599Z</time></trkpt><trkpt lat="43.4716133" lon="13.45759"><ele>64.0</ele><time>2026-04-22T15:12:32.599Z</time></trkpt><trkpt lat="43.4715517" lon="13.457725"><ele>64.0</ele><time>2026-04-22T15:12:33.6Z</time></trkpt><trkpt lat="43.4714933" lon="13.4578583"><ele>64.0</ele><time>2026-04-22T15:12:34.599Z</time></trkpt><trkpt lat="43.4714333" lon="13.4579933"><ele>63.6</ele><time>2026-04-22T15:12:35.6Z</time></trkpt><trkpt lat="43.4713867" lon="13.458135"><ele>63.2</ele><time>2026-04-22T15:12:36.599Z</time></trkpt><trkpt lat="43.471335" lon="13.458255"><ele>62.800000000000004</ele><time>2026-04-22T15:12:37.599Z</time></trkpt><trkpt lat="43.471295" lon="13.4583667"><ele>62.400000000000006</ele><time>2026-04-22T15:12:38.599Z</time></trkpt><trkpt lat="43.4712583" lon="13.4584517"><ele>62.0</ele><time>2026-04-22T15:12:39.599Z</time></trkpt><trkpt lat="43.4712033" lon="13.45856"><ele>62.00000000000001</ele><time>2026-04-22T15:12:41.599Z</time></trkpt><trkpt lat="43.4711667" lon="13.458635"><ele>62.0</ele><time>2026-04-22T15:12:43.599Z</time></trkpt><trkpt lat="43.471105" lon="13.4587233"><ele>62.0</ele><time>2026-04-22T15:12:45.599Z</time></trkpt><trkpt lat="43.4709983" lon="13.458825"><ele>62.0</ele><time>2026-04-22T15:12:47.6Z</time></trkpt><trkpt lat="43.470945" lon="13.458885"><ele>62.00000000000001</ele><time>2026-04-22T15:12:48.599Z</time></trkpt><trkpt lat="43.4709" lon="13.4589717"><ele>62.0</ele><time>2026-04-22T15:12:49.599Z</time></trkpt><trkpt lat="43.4708767" lon="13.4590683"><ele>61.833333333333336</ele><time>2026-04-22T15:12:50.599Z</time></trkpt><trkpt lat="43.4708783" lon="13.459175"><ele>61.66666666666667</ele><time>2026-04-22T15:12:51.599Z</time></trkpt><trkpt lat="43.4708833" lon="13.4592933"><ele>61.5</ele><time>2026-04-22T15:12:52.599Z</time></trkpt><trkpt lat="43.470875" lon="13.4594133"><ele>61.33333333333333</ele><time>2026-04-22T15:12:53.599Z</time></trkpt><trkpt lat="43.4708583" lon="13.4595217"><ele>61.166666666666664</ele><time>2026-04-22T15:12:54.6Z</time></trkpt><trkpt lat="43.4708317" lon="13.4596317"><ele>61.0</ele><time>2026-04-22T15:12:55.599Z</time></trkpt><trkpt lat="43.470795" lon="13.4597517"><ele>61.4</ele><time>2026-04-22T15:12:56.599Z</time></trkpt><trkpt lat="43.4707533" lon="13.45988"><ele>61.8</ele><time>2026-04-22T15:12:57.599Z</time></trkpt><trkpt lat="43.4707083" lon="13.4600183"><ele>62.199999999999996</ele><time>2026-04-22T15:12:58.599Z</time></trkpt><trkpt lat="43.470655" lon="13.4601483"><ele>62.599999999999994</ele><time>2026-04-22T15:12:59.599Z</time></trkpt><trkpt lat="43.4706117" lon="13.46028"><ele>63.0</ele><time>2026-04-22T15:13:00.599Z</time></trkpt><trkpt lat="43.4705633" lon="13.4604183"><ele>62.25</ele><time>2026-04-22T15:13:01.599Z</time></trkpt><trkpt lat="43.470515" lon="13.4605633"><ele>61.5</ele><time>2026-04-22T15:13:02.6Z</time></trkpt><trkpt lat="43.4704667" lon="13.4607067"><ele>60.75</ele><time>2026-04-22T15:13:03.599Z</time></trkpt><trkpt lat="43.4704167" lon="13.4608583"><ele>60.0</ele><time>2026-04-22T15:13:04.599Z</time></trkpt><trkpt lat="43.4703617" lon="13.46101"><ele>60.0</ele><time>2026-04-22T15:13:05.6Z</time></trkpt><trkpt lat="43.4703083" lon="13.4611667"><ele>60.0</ele><time>2026-04-22T15:13:06.599Z</time></trkpt><trkpt lat="43.4702483" lon="13.4613067"><ele>60.0</ele><time>2026-04-22T15:13:07.599Z</time></trkpt><trkpt lat="43.47019" lon="13.4614467"><ele>60.0</ele><time>2026-04-22T15:13:08.599Z</time></trkpt><trkpt lat="43.47013" lon="13.4615833"><ele>60.0</ele><time>2026-04-22T15:13:09.599Z</time></trkpt><trkpt lat="43.470075" lon="13.461725"><ele>60.0</ele><time>2026-04-22T15:13:10.599Z</time></trkpt><trkpt lat="43.4700283" lon="13.4618567"><ele>60.0</ele><time>2026-04-22T15:13:11.599Z</time></trkpt><trkpt lat="43.4699867" lon="13.4619983"><ele>60.0</ele><time>2026-04-22T15:13:12.599Z</time></trkpt><trkpt lat="43.46994" lon="13.46214"><ele>60.0</ele><time>2026-04-22T15:13:13.599Z</time></trkpt><trkpt lat="43.4698917" lon="13.4622717"><ele>60.5</ele><time>2026-04-22T15:13:14.599Z</time></trkpt><trkpt lat="43.46985" lon="13.4623817"><ele>61.0</ele><time>2026-04-22T15:13:15.599Z</time></trkpt><trkpt lat="43.4698167" lon="13.462475"><ele>61.5</ele><time>2026-04-22T15:13:16.599Z</time></trkpt><trkpt lat="43.4697633" lon="13.4626017"><ele>62.0</ele><time>2026-04-22T15:13:18.599Z</time></trkpt><trkpt lat="43.4697283" lon="13.462695"><ele>62.5</ele><time>2026-04-22T15:13:20.599Z</time></trkpt><trkpt lat="43.4696917" lon="13.4627917"><ele>63.0</ele><time>2026-04-22T15:13:24.599Z</time></trkpt><trkpt lat="43.4696533" lon="13.4629217"><ele>62.4</ele><time>2026-04-22T15:14:07.599Z</time></trkpt><trkpt lat="43.4696017" lon="13.4630633"><ele>61.8</ele><time>2026-04-22T15:14:09.599Z</time></trkpt><trkpt lat="43.46956" lon="13.4632"><ele>61.2</ele><time>2026-04-22T15:14:11.599Z</time></trkpt><trkpt lat="43.4695083" lon="13.463345"><ele>60.6</ele><time>2026-04-22T15:14:13.599Z</time></trkpt><trkpt lat="43.46947" lon="13.4634617"><ele>60.0</ele><time>2026-04-22T15:14:15.599Z</time></trkpt><trkpt lat="43.4694283" lon="13.4635317"><ele>60.0</ele><time>2026-04-22T15:14:18.599Z</time></trkpt><trkpt lat="43.4693783" lon="13.463675"><ele>60.0</ele><time>2026-04-22T15:15:28.599Z</time></trkpt><trkpt lat="43.469345" lon="13.46377"><ele>60.0</ele><time>2026-04-22T15:15:29.599Z</time></trkpt><trkpt lat="43.4693033" lon="13.4638917"><ele>60.0</ele><time>2026-04-22T15:15:30.598Z</time></trkpt><trkpt lat="43.4692583" lon="13.4640167"><ele>60.0</ele><time>2026-04-22T15:15:31.598Z</time></trkpt><trkpt lat="43.469215" lon="13.46417"><ele>60.0</ele><time>2026-04-22T15:15:32.598Z</time></trkpt><trkpt lat="43.4691683" lon="13.4643117"><ele>60.0</ele><time>2026-04-22T15:15:33.598Z</time></trkpt><trkpt lat="43.46912" lon="13.46444"><ele>60.0</ele><time>2026-04-22T15:15:34.598Z</time></trkpt><trkpt lat="43.4690733" lon="13.46455"><ele>60.0</ele><time>2026-04-22T15:15:35.598Z</time></trkpt><trkpt lat="43.4690317" lon="13.4646633"><ele>60.0</ele><time>2026-04-22T15:15:36.599Z</time></trkpt><trkpt lat="43.4689867" lon="13.464775"><ele>60.0</ele><time>2026-04-22T15:15:37.598Z</time></trkpt><trkpt lat="43.468945" lon="13.4648933"><ele>60.0</ele><time>2026-04-22T15:15:38.598Z</time></trkpt><trkpt lat="43.4689033" lon="13.4650217"><ele>60.0</ele><time>2026-04-22T15:15:39.598Z</time></trkpt><trkpt lat="43.46886" lon="13.4651567"><ele>60.0</ele><time>2026-04-22T15:15:40.598Z</time></trkpt><trkpt lat="43.4688067" lon="13.465295"><ele>60.0</ele><time>2026-04-22T15:15:41.599Z</time></trkpt><trkpt lat="43.468755" lon="13.4654367"><ele>59.8</ele><time>2026-04-22T15:15:42.598Z</time></trkpt><trkpt lat="43.4687117" lon="13.4655783"><ele>59.6</ele><time>2026-04-22T15:15:43.598Z</time></trkpt><trkpt lat="43.468665" lon="13.4657033"><ele>59.400000000000006</ele><time>2026-04-22T15:15:44.598Z</time></trkpt><trkpt lat="43.4686167" lon="13.46582"><ele>59.2</ele><time>2026-04-22T15:15:45.598Z</time></trkpt><trkpt lat="43.468565" lon="13.4659217"><ele>59.0</ele><time>2026-04-22T15:15:46.598Z</time></trkpt><trkpt lat="43.468505" lon="13.4659883"><ele>59.00000000000001</ele><time>2026-04-22T15:15:47.599Z</time></trkpt><trkpt lat="43.4684283" lon="13.4659983"><ele>59.0</ele><time>2026-04-22T15:15:48.598Z</time></trkpt><trkpt lat="43.4683567" lon="13.465985"><ele>59.0</ele><time>2026-04-22T15:15:49.598Z</time></trkpt><trkpt lat="43.4682767" lon="13.4659283"><ele>59.0</ele><time>2026-04-22T15:15:50.598Z</time></trkpt><trkpt lat="43.46819" lon="13.4658483"><ele>59.00000000000001</ele><time>2026-04-22T15:15:51.598Z</time></trkpt><trkpt lat="43.4681033" lon="13.465765"><ele>59.0</ele><time>2026-04-22T15:15:52.598Z</time></trkpt><trkpt lat="43.4680333" lon="13.4656967"><ele>59.0</ele><time>2026-04-22T15:15:53.599Z</time></trkpt><trkpt lat="43.4679683" lon="13.4656367"><ele>59.00000000000001</ele><time>2026-04-22T15:15:54.599Z</time></trkpt><trkpt lat="43.4679033" lon="13.4655783"><ele>59.00000000000001</ele><time>2026-04-22T15:15:55.598Z</time></trkpt><trkpt lat="43.4678283" lon="13.465505"><ele>59.0</ele><time>2026-04-22T15:15:56.598Z</time></trkpt><trkpt lat="43.4677483" lon="13.46542"><ele>59.0</ele><time>2026-04-22T15:15:57.598Z</time></trkpt><trkpt lat="43.4676517" lon="13.465325"><ele>58.5</ele><time>2026-04-22T15:15:58.599Z</time></trkpt><trkpt lat="43.4675383" lon="13.4652117"><ele>58.0</ele><time>2026-04-22T15:15:59.598Z</time></trkpt><trkpt lat="43.46742" lon="13.46511"><ele>57.5</ele><time>2026-04-22T15:16:00.598Z</time></trkpt><trkpt lat="43.4673" lon="13.4649933"><ele>57.0</ele><time>2026-04-22T15:16:01.598Z</time></trkpt><trkpt lat="43.4671817" lon="13.464885"><ele>56.5</ele><time>2026-04-22T15:16:02.598Z</time></trkpt><trkpt lat="43.4670667" lon="13.46477"><ele>56.0</ele><time>2026-04-22T15:16:03.598Z</time></trkpt><trkpt lat="43.4669467" lon="13.4646533"><ele>55.5</ele><time>2026-04-22T15:16:04.598Z</time></trkpt><trkpt lat="43.4668283" lon="13.464535"><ele>55.0</ele><time>2026-04-22T15:16:05.598Z</time></trkpt><trkpt lat="43.4667117" lon="13.4644117"><ele>55.0</ele><time>2026-04-22T15:16:06.598Z</time></trkpt><trkpt lat="43.46662" lon="13.464275"><ele>55.0</ele><time>2026-04-22T15:16:07.598Z</time></trkpt><trkpt lat="43.46653" lon="13.464115"><ele>55.0</ele><time>2026-04-22T15:16:08.598Z</time></trkpt><trkpt lat="43.4664617" lon="13.46393"><ele>55.0</ele><time>2026-04-22T15:16:09.598Z</time></trkpt><trkpt lat="43.466415" lon="13.46373"><ele>55.0</ele><time>2026-04-22T15:16:10.598Z</time></trkpt><trkpt lat="43.46638" lon="13.4635133"><ele>55.0</ele><time>2026-04-22T15:16:11.598Z</time></trkpt><trkpt lat="43.4663733" lon="13.463295"><ele>55.0</ele><time>2026-04-22T15:16:12.598Z</time></trkpt><trkpt lat="43.4663817" lon="13.4630667"><ele>54.666666666666664</ele><time>2026-04-22T15:16:13.598Z</time></trkpt><trkpt lat="43.466405" lon="13.4628383"><ele>54.33333333333333</ele><time>2026-04-22T15:16:14.598Z</time></trkpt><trkpt lat="43.4664383" lon="13.46263"><ele>54.0</ele><time>2026-04-22T15:16:15.598Z</time></trkpt><trkpt lat="43.4664667" lon="13.46243"><ele>54.0</ele><time>2026-04-22T15:16:16.599Z</time></trkpt><trkpt lat="43.4665" lon="13.4622433"><ele>54.0</ele><time>2026-04-22T15:16:17.599Z</time></trkpt><trkpt lat="43.466525" lon="13.4620567"><ele>54.0</ele><time>2026-04-22T15:16:18.598Z</time></trkpt><trkpt lat="43.4665533" lon="13.4618683"><ele>54.0</ele><time>2026-04-22T15:16:19.598Z</time></trkpt><trkpt lat="43.4665767" lon="13.4616783"><ele>53.66666666666667</ele><time>2026-04-22T15:16:20.599Z</time></trkpt><trkpt lat="43.4665967" lon="13.4614833"><ele>53.333333333333336</ele><time>2026-04-22T15:16:21.598Z</time></trkpt><trkpt lat="43.46662" lon="13.46127"><ele>53.0</ele><time>2026-04-22T15:16:22.598Z</time></trkpt><trkpt lat="43.4666533" lon="13.4610367"><ele>52.66666666666667</ele><time>2026-04-22T15:16:23.599Z</time></trkpt><trkpt lat="43.466695" lon="13.4607683"><ele>52.33333333333333</ele><time>2026-04-22T15:16:24.598Z</time></trkpt><trkpt lat="43.4667417" lon="13.4604983"><ele>52.0</ele><time>2026-04-22T15:16:25.598Z</time></trkpt><trkpt lat="43.4667867" lon="13.4602567"><ele>52.0</ele><time>2026-04-22T15:16:26.598Z</time></trkpt><trkpt lat="43.4668217" lon="13.4600267"><ele>52.0</ele><time>2026-04-22T15:16:27.598Z</time></trkpt><trkpt lat="43.466855" lon="13.4598083"><ele>52.0</ele><time>2026-04-22T15:16:28.598Z</time></trkpt><trkpt lat="43.466885" lon="13.45961"><ele>51.75</ele><time>2026-04-22T15:16:29.598Z</time></trkpt><trkpt lat="43.4669183" lon="13.4594317"><ele>51.5</ele><time>2026-04-22T15:16:30.598Z</time></trkpt><trkpt lat="43.4669417" lon="13.459265"><ele>51.25</ele><time>2026-04-22T15:16:31.599Z</time></trkpt><trkpt lat="43.4669683" lon="13.4591083"><ele>51.0</ele><time>2026-04-22T15:16:32.598Z</time></trkpt><trkpt lat="43.46699" lon="13.458975"><ele>51.0</ele><time>2026-04-22T15:16:33.598Z</time></trkpt><trkpt lat="43.4670083" lon="13.4588533"><ele>51.0</ele><time>2026-04-22T15:16:34.598Z</time></trkpt><trkpt lat="43.467035" lon="13.4587483"><ele>51.0</ele><time>2026-04-22T15:16:35.598Z</time></trkpt><trkpt lat="43.4670783" lon="13.4586517"><ele>51.0</ele><time>2026-04-22T15:16:36.598Z</time></trkpt><trkpt lat="43.4671317" lon="13.45856"><ele>51.0</ele><time>2026-04-22T15:16:37.598Z</time></trkpt><trkpt lat="43.4671617" lon="13.458465"><ele>51.0</ele><time>2026-04-22T15:16:38.598Z</time></trkpt><trkpt lat="43.46717" lon="13.4583633"><ele>51.166666666666664</ele><time>2026-04-22T15:16:39.598Z</time></trkpt><trkpt lat="43.4671567" lon="13.458275"><ele>51.33333333333333</ele><time>2026-04-22T15:16:40.599Z</time></trkpt><trkpt lat="43.4671167" lon="13.4582033"><ele>51.5</ele><time>2026-04-22T15:16:41.598Z</time></trkpt><trkpt lat="43.4670417" lon="13.4581617"><ele>51.666666666666664</ele><time>2026-04-22T15:16:42.598Z</time></trkpt><trkpt lat="43.46696" lon="13.4581717"><ele>51.83333333333333</ele><time>2026-04-22T15:16:43.598Z</time></trkpt><trkpt lat="43.46687" lon="13.4582217"><ele>52.0</ele><time>2026-04-22T15:16:44.598Z</time></trkpt><trkpt lat="43.466775" lon="13.45827"><ele>52.0</ele><time>2026-04-22T15:16:45.598Z</time></trkpt><trkpt lat="43.4666667" lon="13.4583017"><ele>52.0</ele><time>2026-04-22T15:16:46.598Z</time></trkpt><trkpt lat="43.4665583" lon="13.4583033"><ele>52.0</ele><time>2026-04-22T15:16:47.598Z</time></trkpt><trkpt lat="43.4664433" lon="13.4582867"><ele>52.0</ele><time>2026-04-22T15:16:48.598Z</time></trkpt><trkpt lat="43.4663267" lon="13.4582783"><ele>52.33333333333333</ele><time>2026-04-22T15:16:49.599Z</time></trkpt><trkpt lat="43.4662233" lon="13.4582717"><ele>52.666666666666664</ele><time>2026-04-22T15:16:50.598Z</time></trkpt><trkpt lat="43.4661217" lon="13.4582717"><ele>53.0</ele><time>2026-04-22T15:16:51.598Z</time></trkpt><trkpt lat="43.4660317" lon="13.45828"><ele>53.33333333333333</ele><time>2026-04-22T15:16:52.598Z</time></trkpt><trkpt lat="43.4659567" lon="13.4582783"><ele>53.666666666666664</ele><time>2026-04-22T15:16:53.598Z</time></trkpt><trkpt lat="43.4658833" lon="13.4582733"><ele>54.0</ele><time>2026-04-22T15:16:54.598Z</time></trkpt><trkpt lat="43.4658183" lon="13.4582683"><ele>54.0</ele><time>2026-04-22T15:16:55.598Z</time></trkpt><trkpt lat="43.4657033" lon="13.45825"><ele>54.00000000000001</ele><time>2026-04-22T15:16:57.598Z</time></trkpt><trkpt lat="43.4656267" lon="13.4582383"><ele>54.00000000000001</ele><time>2026-04-22T15:16:59.598Z</time></trkpt><trkpt lat="43.46551" lon="13.4582367"><ele>54.0</ele><time>2026-04-22T15:17:17.599Z</time></trkpt><trkpt lat="43.4653883" lon="13.45821"><ele>54.0</ele><time>2026-04-22T15:17:19.598Z</time></trkpt><trkpt lat="43.4652717" lon="13.458185"><ele>54.166666666666664</ele><time>2026-04-22T15:17:21.598Z</time></trkpt><trkpt lat="43.4652083" lon="13.4581783"><ele>54.33333333333333</ele><time>2026-04-22T15:17:22.598Z</time></trkpt><trkpt lat="43.4651333" lon="13.4581667"><ele>54.5</ele><time>2026-04-22T15:17:23.598Z</time></trkpt><trkpt lat="43.465055" lon="13.45815"><ele>54.666666666666664</ele><time>2026-04-22T15:17:24.598Z</time></trkpt><trkpt lat="43.4649667" lon="13.458135"><ele>54.83333333333333</ele><time>2026-04-22T15:17:25.598Z</time></trkpt><trkpt lat="43.4648867" lon="13.45812"><ele>55.0</ele><time>2026-04-22T15:17:26.598Z</time></trkpt><trkpt lat="43.4648033" lon="13.4581083"><ele>54.99999999999999</ele><time>2026-04-22T15:17:27.598Z</time></trkpt><trkpt lat="43.464735" lon="13.45808"><ele>55.0</ele><time>2026-04-22T15:17:28.598Z</time></trkpt><trkpt lat="43.4646633" lon="13.45804"><ele>55.0</ele><time>2026-04-22T15:17:29.598Z</time></trkpt><trkpt lat="43.4645833" lon="13.45799"><ele>55.0</ele><time>2026-04-22T15:17:30.598Z</time></trkpt><trkpt lat="43.4645067" lon="13.45793"><ele>54.99999999999999</ele><time>2026-04-22T15:17:31.598Z</time></trkpt><trkpt lat="43.4644383" lon="13.4578583"><ele>55.0</ele><time>2026-04-22T15:17:32.598Z</time></trkpt><trkpt lat="43.4643617" lon="13.4577783"><ele>55.0</ele><time>2026-04-22T15:17:33.598Z</time></trkpt><trkpt lat="43.4642883" lon="13.4576983"><ele>55.0</ele><time>2026-04-22T15:17:34.598Z</time></trkpt><trkpt lat="43.4642133" lon="13.45761"><ele>55.0</ele><time>2026-04-22T15:17:35.598Z</time></trkpt><trkpt lat="43.4641367" lon="13.4575233"><ele>55.0</ele><time>2026-04-22T15:17:36.598Z</time></trkpt><trkpt lat="43.4640583" lon="13.4574483"><ele>55.0</ele><time>2026-04-22T15:17:37.598Z</time></trkpt><trkpt lat="43.4639833" lon="13.457365"><ele>54.99999999999999</ele><time>2026-04-22T15:17:38.598Z</time></trkpt><trkpt lat="43.4639033" lon="13.45729"><ele>55.0</ele><time>2026-04-22T15:17:39.599Z</time></trkpt><trkpt lat="43.46382" lon="13.457215"><ele>55.0</ele><time>2026-04-22T15:17:40.598Z</time></trkpt><trkpt lat="43.4637417" lon="13.45713"><ele>55.0</ele><time>2026-04-22T15:17:41.598Z</time></trkpt><trkpt lat="43.463685" lon="13.4570433"><ele>54.99999999999999</ele><time>2026-04-22T15:17:42.598Z</time></trkpt><trkpt lat="43.463645" lon="13.4569733"><ele>55.0</ele><time>2026-04-22T15:17:43.598Z</time></trkpt><trkpt lat="43.4636133" lon="13.4568583"><ele>54.0</ele><time>2026-04-22T15:17:45.598Z</time></trkpt><trkpt lat="43.4636217" lon="13.456735"><ele>54.0</ele><time>2026-04-22T15:17:47.598Z</time></trkpt><trkpt lat="43.4636133" lon="13.4566333"><ele>54.0</ele><time>2026-04-22T15:17:49.599Z</time></trkpt><trkpt lat="43.4635817" lon="13.4565367"><ele>54.0</ele><time>2026-04-22T15:17:52.598Z</time></trkpt></trkseg><trkseg><trkpt lat="43.4634533" lon="13.4564833"><ele>54.0</ele><time>2026-04-22T15:45:35.595Z</time></trkpt><trkpt lat="43.463545" lon="13.4564533"><ele>54.00000000000001</ele><time>2026-04-22T15:46:54.595Z</time></trkpt><trkpt lat="43.46358" lon="13.4565433"><ele>54.00000000000001</ele><time>2026-04-22T15:47:36.595Z</time></trkpt><trkpt lat="43.4635533" lon="13.4566683"><ele>54.0</ele><time>2026-04-22T15:47:39.595Z</time></trkpt><trkpt lat="43.4635567" lon="13.4568"><ele>54.0</ele><time>2026-04-22T15:47:42.595Z</time></trkpt><trkpt lat="43.4635967" lon="13.456925"><ele>54.0</ele><time>2026-04-22T15:47:44.595Z</time></trkpt><trkpt lat="43.463695" lon="13.457075"><ele>54.00000000000001</ele><time>2026-04-22T15:47:46.595Z</time></trkpt><trkpt lat="43.4637667" lon="13.4571583"><ele>54.00000000000001</ele><time>2026-04-22T15:47:47.595Z</time></trkpt><trkpt lat="43.46384" lon="13.4572333"><ele>54.0</ele><time>2026-04-22T15:47:48.595Z</time></trkpt><trkpt lat="43.4639133" lon="13.457315"><ele>54.0</ele><time>2026-04-22T15:47:49.595Z</time></trkpt><trkpt lat="43.4639767" lon="13.4573883"><ele>54.166666666666664</ele><time>2026-04-22T15:47:50.595Z</time></trkpt><trkpt lat="43.46404" lon="13.4574567"><ele>54.33333333333333</ele><time>2026-04-22T15:47:51.595Z</time></trkpt><trkpt lat="43.46409" lon="13.4575117"><ele>54.5</ele><time>2026-04-22T15:47:52.595Z</time></trkpt><trkpt lat="43.464175" lon="13.4576033"><ele>54.666666666666664</ele><time>2026-04-22T15:47:54.595Z</time></trkpt><trkpt lat="43.4642517" lon="13.4576633"><ele>54.83333333333333</ele><time>2026-04-22T15:47:56.596Z</time></trkpt><trkpt lat="43.4643217" lon="13.4577167"><ele>55.0</ele><time>2026-04-22T15:47:58.595Z</time></trkpt><trkpt lat="43.4643817" lon="13.4577883"><ele>55.0</ele><time>2026-04-22T15:48:01.596Z</time></trkpt><trkpt lat="43.4644383" lon="13.457845"><ele>55.0</ele><time>2026-04-22T15:48:11.595Z</time></trkpt><trkpt lat="43.4644983" lon="13.45792"><ele>55.0</ele><time>2026-04-22T15:48:13.595Z</time></trkpt><trkpt lat="43.4645817" lon="13.458025"><ele>55.0</ele><time>2026-04-22T15:48:15.596Z</time></trkpt><trkpt lat="43.46469" lon="13.4581433"><ele>55.0</ele><time>2026-04-22T15:48:17.595Z</time></trkpt><trkpt lat="43.4647517" lon="13.4582283"><ele>54.99999999999999</ele><time>2026-04-22T15:48:18.595Z</time></trkpt><trkpt lat="43.464815" lon="13.45831"><ele>55.0</ele><time>2026-04-22T15:48:19.596Z</time></trkpt><trkpt lat="43.46486" lon="13.45839"><ele>55.0</ele><time>2026-04-22T15:48:20.595Z</time></trkpt><trkpt lat="43.4649067" lon="13.4584683"><ele>55.0</ele><time>2026-04-22T15:48:21.595Z</time></trkpt><trkpt lat="43.4649533" lon="13.4585467"><ele>54.99999999999999</ele><time>2026-04-22T15:48:22.595Z</time></trkpt><trkpt lat="43.4650067" lon="13.458645"><ele>55.0</ele><time>2026-04-22T15:48:23.595Z</time></trkpt><trkpt lat="43.4650633" lon="13.4587433"><ele>54.6</ele><time>2026-04-22T15:48:24.595Z</time></trkpt><trkpt lat="43.46511" lon="13.4588533"><ele>54.2</ele><time>2026-04-22T15:48:25.595Z</time></trkpt><trkpt lat="43.465155" lon="13.4589667"><ele>53.8</ele><time>2026-04-22T15:48:26.596Z</time></trkpt><trkpt lat="43.46519" lon="13.459085"><ele>53.4</ele><time>2026-04-22T15:48:27.595Z</time></trkpt><trkpt lat="43.465215" lon="13.45921"><ele>53.0</ele><time>2026-04-22T15:48:28.595Z</time></trkpt><trkpt lat="43.4652367" lon="13.459345"><ele>53.0</ele><time>2026-04-22T15:48:29.595Z</time></trkpt><trkpt lat="43.465255" lon="13.4594767"><ele>53.0</ele><time>2026-04-22T15:48:30.595Z</time></trkpt><trkpt lat="43.4652683" lon="13.4596133"><ele>53.0</ele><time>2026-04-22T15:48:31.595Z</time></trkpt><trkpt lat="43.4652817" lon="13.4597617"><ele>53.0</ele><time>2026-04-22T15:48:32.595Z</time></trkpt><trkpt lat="43.46528" lon="13.4599083"><ele>53.0</ele><time>2026-04-22T15:48:33.595Z</time></trkpt><trkpt lat="43.4652633" lon="13.4600383"><ele>52.8</ele><time>2026-04-22T15:48:34.595Z</time></trkpt><trkpt lat="43.4652317" lon="13.4601667"><ele>52.599999999999994</ele><time>2026-04-22T15:48:35.595Z</time></trkpt><trkpt lat="43.4651883" lon="13.4603"><ele>52.400000000000006</ele><time>2026-04-22T15:48:36.595Z</time></trkpt><trkpt lat="43.46513" lon="13.46043"><ele>52.2</ele><time>2026-04-22T15:48:37.595Z</time></trkpt><trkpt lat="43.4650617" lon="13.460555"><ele>52.0</ele><time>2026-04-22T15:48:38.595Z</time></trkpt><trkpt lat="43.4649917" lon="13.460695"><ele>51.75</ele><time>2026-04-22T15:48:39.595Z</time></trkpt><trkpt lat="43.4649117" lon="13.46084"><ele>51.5</ele><time>2026-04-22T15:48:40.595Z</time></trkpt><trkpt lat="43.4648233" lon="13.4609733"><ele>51.25</ele><time>2026-04-22T15:48:41.595Z</time></trkpt><trkpt lat="43.4647267" lon="13.4611067"><ele>51.0</ele><time>2026-04-22T15:48:42.595Z</time></trkpt><trkpt lat="43.4646233" lon="13.4612383"><ele>50.5</ele><time>2026-04-22T15:48:43.595Z</time></trkpt><trkpt lat="43.4645333" lon="13.46137"><ele>50.0</ele><time>2026-04-22T15:48:44.595Z</time></trkpt><trkpt lat="43.4644467" lon="13.461475"><ele>49.5</ele><time>2026-04-22T15:48:45.595Z</time></trkpt><trkpt lat="43.464365" lon="13.4615667"><ele>49.0</ele><time>2026-04-22T15:48:46.595Z</time></trkpt><trkpt lat="43.4642733" lon="13.461645"><ele>49.0</ele><time>2026-04-22T15:48:47.595Z</time></trkpt><trkpt lat="43.4641733" lon="13.4617217"><ele>49.0</ele><time>2026-04-22T15:48:48.595Z</time></trkpt><trkpt lat="43.4640767" lon="13.4617983"><ele>49.0</ele><time>2026-04-22T15:48:49.595Z</time></trkpt><trkpt lat="43.46398" lon="13.4618817"><ele>49.0</ele><time>2026-04-22T15:48:50.595Z</time></trkpt><trkpt lat="43.46388" lon="13.4619833"><ele>49.0</ele><time>2026-04-22T15:48:51.595Z</time></trkpt><trkpt lat="43.463775" lon="13.4620833"><ele>49.0</ele><time>2026-04-22T15:48:52.596Z</time></trkpt><trkpt lat="43.4636717" lon="13.4622"><ele>49.0</ele><time>2026-04-22T15:48:53.596Z</time></trkpt><trkpt lat="43.4635633" lon="13.46232"><ele>49.0</ele><time>2026-04-22T15:48:54.595Z</time></trkpt><trkpt lat="43.46346" lon="13.4624517"><ele>49.0</ele><time>2026-04-22T15:48:55.595Z</time></trkpt><trkpt lat="43.4633633" lon="13.462595"><ele>49.0</ele><time>2026-04-22T15:48:56.595Z</time></trkpt><trkpt lat="43.4632633" lon="13.4627367"><ele>49.0</ele><time>2026-04-22T15:48:57.595Z</time></trkpt><trkpt lat="43.4631633" lon="13.4628817"><ele>49.0</ele><time>2026-04-22T15:48:58.596Z</time></trkpt><trkpt lat="43.4630517" lon="13.4630483"><ele>49.0</ele><time>2026-04-22T15:48:59.595Z</time></trkpt><trkpt lat="43.462945" lon="13.46321"><ele>49.0</ele><time>2026-04-22T15:49:00.595Z</time></trkpt><trkpt lat="43.4628417" lon="13.4633683"><ele>49.0</ele><time>2026-04-22T15:49:01.596Z</time></trkpt><trkpt lat="43.4627417" lon="13.4635083"><ele>49.0</ele><time>2026-04-22T15:49:02.595Z</time></trkpt><trkpt lat="43.46265" lon="13.4636433"><ele>49.0</ele><time>2026-04-22T15:49:03.596Z</time></trkpt><trkpt lat="43.462565" lon="13.4637583"><ele>49.0</ele><time>2026-04-22T15:49:04.595Z</time></trkpt><trkpt lat="43.4624833" lon="13.4638617"><ele>49.0</ele><time>2026-04-22T15:49:05.595Z</time></trkpt><trkpt lat="43.4624033" lon="13.4639567"><ele>49.0</ele><time>2026-04-22T15:49:06.595Z</time></trkpt><trkpt lat="43.4623333" lon="13.4640633"><ele>49.0</ele><time>2026-04-22T15:49:07.595Z</time></trkpt><trkpt lat="43.4622667" lon="13.4641717"><ele>49.0</ele><time>2026-04-22T15:49:08.595Z</time></trkpt><trkpt lat="43.4622117" lon="13.4642967"><ele>49.0</ele><time>2026-04-22T15:49:09.596Z</time></trkpt><trkpt lat="43.4621667" lon="13.4644383"><ele>49.0</ele><time>2026-04-22T15:49:10.595Z</time></trkpt><trkpt lat="43.4621317" lon="13.4645783"><ele>49.0</ele><time>2026-04-22T15:49:11.595Z</time></trkpt><trkpt lat="43.4620867" lon="13.46473"><ele>49.0</ele><time>2026-04-22T15:49:12.595Z</time></trkpt><trkpt lat="43.4620533" lon="13.4648817"><ele>49.0</ele><time>2026-04-22T15:49:13.595Z</time></trkpt><trkpt lat="43.46201" lon="13.4650433"><ele>49.0</ele><time>2026-04-22T15:49:14.595Z</time></trkpt><trkpt lat="43.461955" lon="13.465195"><ele>49.0</ele><time>2026-04-22T15:49:15.595Z</time></trkpt><trkpt lat="43.4619133" lon="13.46535"><ele>49.0</ele><time>2026-04-22T15:49:16.596Z</time></trkpt><trkpt lat="43.46187" lon="13.4655033"><ele>49.0</ele><time>2026-04-22T15:49:17.595Z</time></trkpt><trkpt lat="43.4618317" lon="13.4656667"><ele>49.0</ele><time>2026-04-22T15:49:18.595Z</time></trkpt><trkpt lat="43.4618017" lon="13.4658283"><ele>49.0</ele><time>2026-04-22T15:49:19.595Z</time></trkpt><trkpt lat="43.4617717" lon="13.466"><ele>49.0</ele><time>2026-04-22T15:49:20.595Z</time></trkpt><trkpt lat="43.46175" lon="13.4661883"><ele>49.0</ele><time>2026-04-22T15:49:21.595Z</time></trkpt><trkpt lat="43.461735" lon="13.4663833"><ele>49.0</ele><time>2026-04-22T15:49:22.595Z</time></trkpt><trkpt lat="43.4617233" lon="13.4665717"><ele>49.25</ele><time>2026-04-22T15:49:23.596Z</time></trkpt><trkpt lat="43.46172" lon="13.4667617"><ele>49.5</ele><time>2026-04-22T15:49:24.595Z</time></trkpt><trkpt lat="43.46173" lon="13.46694"><ele>49.75</ele><time>2026-04-22T15:49:25.595Z</time></trkpt><trkpt lat="43.4617417" lon="13.4671067"><ele>50.0</ele><time>2026-04-22T15:49:26.595Z</time></trkpt><trkpt lat="43.4617517" lon="13.4672683"><ele>50.25</ele><time>2026-04-22T15:49:27.595Z</time></trkpt><trkpt lat="43.461765" lon="13.4674333"><ele>50.5</ele><time>2026-04-22T15:49:28.595Z</time></trkpt><trkpt lat="43.4617717" lon="13.4675917"><ele>50.75</ele><time>2026-04-22T15:49:29.595Z</time></trkpt><trkpt lat="43.4617833" lon="13.46775"><ele>51.0</ele><time>2026-04-22T15:49:30.595Z</time></trkpt><trkpt lat="43.4617783" lon="13.4678967"><ele>50.833333333333336</ele><time>2026-04-22T15:49:31.595Z</time></trkpt><trkpt lat="43.4617783" lon="13.4680383"><ele>50.66666666666667</ele><time>2026-04-22T15:49:32.595Z</time></trkpt><trkpt lat="43.461775" lon="13.468165"><ele>50.5</ele><time>2026-04-22T15:49:33.595Z</time></trkpt><trkpt lat="43.4617733" lon="13.4682733"><ele>50.333333333333336</ele><time>2026-04-22T15:49:34.595Z</time></trkpt><trkpt lat="43.4617717" lon="13.46838"><ele>50.16666666666667</ele><time>2026-04-22T15:49:35.595Z</time></trkpt><trkpt lat="43.4617733" lon="13.46849"><ele>50.0</ele><time>2026-04-22T15:49:36.595Z</time></trkpt><trkpt lat="43.4617733" lon="13.4686083"><ele>50.0</ele><time>2026-04-22T15:49:37.595Z</time></trkpt><trkpt lat="43.4617683" lon="13.468735"><ele>50.0</ele><time>2026-04-22T15:49:38.595Z</time></trkpt><trkpt lat="43.4617567" lon="13.4688583"><ele>50.0</ele><time>2026-04-22T15:49:39.595Z</time></trkpt><trkpt lat="43.46174" lon="13.46899"><ele>50.0</ele><time>2026-04-22T15:49:40.595Z</time></trkpt><trkpt lat="43.4617167" lon="13.469115"><ele>50.0</ele><time>2026-04-22T15:49:41.595Z</time></trkpt><trkpt lat="43.461685" lon="13.46925"><ele>49.6</ele><time>2026-04-22T15:49:42.596Z</time></trkpt><trkpt lat="43.4616483" lon="13.4693767"><ele>49.2</ele><time>2026-04-22T15:49:43.595Z</time></trkpt><trkpt lat="43.4615967" lon="13.4695167"><ele>48.8</ele><time>2026-04-22T15:49:44.595Z</time></trkpt><trkpt lat="43.46154" lon="13.4696517"><ele>48.4</ele><time>2026-04-22T15:49:45.595Z</time></trkpt><trkpt lat="43.4614783" lon="13.4697817"><ele>48.0</ele><time>2026-04-22T15:49:46.595Z</time></trkpt><trkpt lat="43.4613917" lon="13.4699067"><ele>48.0</ele><time>2026-04-22T15:49:47.595Z</time></trkpt><trkpt lat="43.461305" lon="13.4700183"><ele>48.0</ele><time>2026-04-22T15:49:48.595Z</time></trkpt><trkpt lat="43.461225" lon="13.470125"><ele>48.0</ele><time>2026-04-22T15:49:49.595Z</time></trkpt><trkpt lat="43.461135" lon="13.470225"><ele>48.0</ele><time>2026-04-22T15:49:50.596Z</time></trkpt><trkpt lat="43.4610333" lon="13.47032"><ele>48.0</ele><time>2026-04-22T15:49:51.595Z</time></trkpt><trkpt lat="43.4609317" lon="13.4704133"><ele>48.0</ele><time>2026-04-22T15:49:52.595Z</time></trkpt><trkpt lat="43.4608267" lon="13.4704933"><ele>48.0</ele><time>2026-04-22T15:49:53.595Z</time></trkpt><trkpt lat="43.460725" lon="13.4705633"><ele>48.0</ele><time>2026-04-22T15:49:54.595Z</time></trkpt><trkpt lat="43.4606167" lon="13.4706467"><ele>48.25</ele><time>2026-04-22T15:49:55.595Z</time></trkpt><trkpt lat="43.4605083" lon="13.47074"><ele>48.5</ele><time>2026-04-22T15:49:56.595Z</time></trkpt><trkpt lat="43.4604" lon="13.4708367"><ele>48.75</ele><time>2026-04-22T15:49:57.595Z</time></trkpt><trkpt lat="43.4603067" lon="13.4709233"><ele>49.0</ele><time>2026-04-22T15:49:58.595Z</time></trkpt><trkpt lat="43.460225" lon="13.4710017"><ele>49.0</ele><time>2026-04-22T15:49:59.595Z</time></trkpt><trkpt lat="43.4601433" lon="13.4710833"><ele>49.0</ele><time>2026-04-22T15:50:00.595Z</time></trkpt><trkpt lat="43.4600633" lon="13.4711483"><ele>49.0</ele><time>2026-04-22T15:50:01.595Z</time></trkpt><trkpt lat="43.4599767" lon="13.4712"><ele>49.0</ele><time>2026-04-22T15:50:02.595Z</time></trkpt><trkpt lat="43.4598867" lon="13.4712433"><ele>49.0</ele><time>2026-04-22T15:50:03.595Z</time></trkpt><trkpt lat="43.4597867" lon="13.471265"><ele>49.0</ele><time>2026-04-22T15:50:04.595Z</time></trkpt><trkpt lat="43.4596833" lon="13.471255"><ele>49.0</ele><time>2026-04-22T15:50:05.595Z</time></trkpt><trkpt lat="43.459575" lon="13.4712233"><ele>49.0</ele><time>2026-04-22T15:50:06.595Z</time></trkpt><trkpt lat="43.4594683" lon="13.471175"><ele>49.0</ele><time>2026-04-22T15:50:07.596Z</time></trkpt><trkpt lat="43.4593533" lon="13.47112"><ele>49.0</ele><time>2026-04-22T15:50:08.595Z</time></trkpt><trkpt lat="43.4592333" lon="13.471065"><ele>48.5</ele><time>2026-04-22T15:50:09.596Z</time></trkpt><trkpt lat="43.4591033" lon="13.47101"><ele>48.0</ele><time>2026-04-22T15:50:10.595Z</time></trkpt><trkpt lat="43.45897" lon="13.4709567"><ele>47.5</ele><time>2026-04-22T15:50:11.595Z</time></trkpt><trkpt lat="43.45885" lon="13.470905"><ele>47.0</ele><time>2026-04-22T15:50:12.595Z</time></trkpt><trkpt lat="43.4587383" lon="13.4708633"><ele>46.8</ele><time>2026-04-22T15:50:13.595Z</time></trkpt><trkpt lat="43.458635" lon="13.47082"><ele>46.6</ele><time>2026-04-22T15:50:14.596Z</time></trkpt><trkpt lat="43.45854" lon="13.4707833"><ele>46.4</ele><time>2026-04-22T15:50:15.595Z</time></trkpt><trkpt lat="43.45845" lon="13.47075"><ele>46.199999999999996</ele><time>2026-04-22T15:50:16.595Z</time></trkpt><trkpt lat="43.4583617" lon="13.470715"><ele>46.0</ele><time>2026-04-22T15:50:17.595Z</time></trkpt><trkpt lat="43.45828" lon="13.4706683"><ele>46.0</ele><time>2026-04-22T15:50:18.596Z</time></trkpt><trkpt lat="43.4581933" lon="13.4706283"><ele>46.0</ele><time>2026-04-22T15:50:19.595Z</time></trkpt><trkpt lat="43.4581" lon="13.4705883"><ele>46.0</ele><time>2026-04-22T15:50:20.595Z</time></trkpt><trkpt lat="43.4580017" lon="13.47054"><ele>46.0</ele><time>2026-04-22T15:50:21.595Z</time></trkpt><trkpt lat="43.4578967" lon="13.4704967"><ele>46.0</ele><time>2026-04-22T15:50:22.595Z</time></trkpt><trkpt lat="43.4577817" lon="13.4704483"><ele>46.5</ele><time>2026-04-22T15:50:23.596Z</time></trkpt><trkpt lat="43.4576683" lon="13.470405"><ele>47.0</ele><time>2026-04-22T15:50:24.595Z</time></trkpt><trkpt lat="43.4575433" lon="13.4703567"><ele>47.5</ele><time>2026-04-22T15:50:25.595Z</time></trkpt><trkpt lat="43.4574117" lon="13.4703"><ele>48.0</ele><time>2026-04-22T15:50:26.595Z</time></trkpt><trkpt lat="43.457265" lon="13.4702383"><ele>47.666666666666664</ele><time>2026-04-22T15:50:27.595Z</time></trkpt><trkpt lat="43.4571117" lon="13.4701767"><ele>47.33333333333333</ele><time>2026-04-22T15:50:28.595Z</time></trkpt><trkpt lat="43.4569383" lon="13.4701067"><ele>47.0</ele><time>2026-04-22T15:50:29.595Z</time></trkpt><trkpt lat="43.4567717" lon="13.4700367"><ele>47.0</ele><time>2026-04-22T15:50:30.595Z</time></trkpt><trkpt lat="43.4566183" lon="13.46997"><ele>47.0</ele><time>2026-04-22T15:50:31.595Z</time></trkpt><trkpt lat="43.4564733" lon="13.4699117"><ele>47.0</ele><time>2026-04-22T15:50:32.595Z</time></trkpt><trkpt lat="43.456325" lon="13.469855"><ele>46.75</ele><time>2026-04-22T15:50:33.595Z</time></trkpt><trkpt lat="43.456185" lon="13.4698"><ele>46.5</ele><time>2026-04-22T15:50:34.595Z</time></trkpt><trkpt lat="43.45605" lon="13.469755"><ele>46.25</ele><time>2026-04-22T15:50:35.595Z</time></trkpt><trkpt lat="43.4559283" lon="13.4697"><ele>46.0</ele><time>2026-04-22T15:50:36.595Z</time></trkpt><trkpt lat="43.455815" lon="13.4696483"><ele>46.16666666666667</ele><time>2026-04-22T15:50:37.595Z</time></trkpt><trkpt lat="43.4557067" lon="13.4696067"><ele>46.333333333333336</ele><time>2026-04-22T15:50:38.595Z</time></trkpt><trkpt lat="43.4556117" lon="13.4695583"><ele>46.5</ele><time>2026-04-22T15:50:39.595Z</time></trkpt><trkpt lat="43.4555333" lon="13.4695217"><ele>46.666666666666664</ele><time>2026-04-22T15:50:40.595Z</time></trkpt><trkpt lat="43.455465" lon="13.469505"><ele>46.83333333333333</ele><time>2026-04-22T15:50:41.595Z</time></trkpt><trkpt lat="43.4554017" lon="13.469515"><ele>47.0</ele><time>2026-04-22T15:50:42.595Z</time></trkpt><trkpt lat="43.4552983" lon="13.4696133"><ele>47.0</ele><time>2026-04-22T15:50:44.595Z</time></trkpt><trkpt lat="43.455265" lon="13.4697133"><ele>47.0</ele><time>2026-04-22T15:50:45.595Z</time></trkpt><trkpt lat="43.4552317" lon="13.4698417"><ele>47.0</ele><time>2026-04-22T15:50:46.595Z</time></trkpt><trkpt lat="43.4551983" lon="13.469975"><ele>47.0</ele><time>2026-04-22T15:50:47.595Z</time></trkpt><trkpt lat="43.4551567" lon="13.470115"><ele>47.0</ele><time>2026-04-22T15:50:48.595Z</time></trkpt><trkpt lat="43.4551167" lon="13.4702733"><ele>46.75</ele><time>2026-04-22T15:50:49.595Z</time></trkpt><trkpt lat="43.4550767" lon="13.4704417"><ele>46.5</ele><time>2026-04-22T15:50:50.595Z</time></trkpt><trkpt lat="43.4550267" lon="13.4706167"><ele>46.25</ele><time>2026-04-22T15:50:51.595Z</time></trkpt><trkpt lat="43.454985" lon="13.470795"><ele>46.0</ele><time>2026-04-22T15:50:52.595Z</time></trkpt><trkpt lat="43.4549433" lon="13.4709817"><ele>46.0</ele><time>2026-04-22T15:50:53.595Z</time></trkpt><trkpt lat="43.4548983" lon="13.471175"><ele>46.0</ele><time>2026-04-22T15:50:54.595Z</time></trkpt><trkpt lat="43.4548533" lon="13.4713467"><ele>46.0</ele><time>2026-04-22T15:50:55.595Z</time></trkpt><trkpt lat="43.4548117" lon="13.4715"><ele>46.0</ele><time>2026-04-22T15:50:56.595Z</time></trkpt><trkpt lat="43.4547683" lon="13.4716483"><ele>46.0</ele><time>2026-04-22T15:50:57.595Z</time></trkpt><trkpt lat="43.454735" lon="13.47178"><ele>46.0</ele><time>2026-04-22T15:50:58.595Z</time></trkpt><trkpt lat="43.454695" lon="13.47192"><ele>46.0</ele><time>2026-04-22T15:50:59.596Z</time></trkpt><trkpt lat="43.45465" lon="13.4720483"><ele>46.0</ele><time>2026-04-22T15:51:00.596Z</time></trkpt><trkpt lat="43.4546133" lon="13.4721667"><ele>46.0</ele><time>2026-04-22T15:51:01.595Z</time></trkpt><trkpt lat="43.4545817" lon="13.4722833"><ele>46.0</ele><time>2026-04-22T15:51:02.595Z</time></trkpt><trkpt lat="43.45455" lon="13.472385"><ele>46.0</ele><time>2026-04-22T15:51:03.596Z</time></trkpt><trkpt lat="43.45454" lon="13.4725017"><ele>46.0</ele><time>2026-04-22T15:51:04.595Z</time></trkpt><trkpt lat="43.454535" lon="13.47262"><ele>46.0</ele><time>2026-04-22T15:51:05.595Z</time></trkpt><trkpt lat="43.4545217" lon="13.4727267"><ele>46.0</ele><time>2026-04-22T15:51:06.595Z</time></trkpt><trkpt lat="43.4545017" lon="13.4728433"><ele>46.0</ele><time>2026-04-22T15:51:07.595Z</time></trkpt><trkpt lat="43.454475" lon="13.4729583"><ele>46.0</ele><time>2026-04-22T15:51:08.596Z</time></trkpt><trkpt lat="43.4544417" lon="13.473075"><ele>46.0</ele><time>2026-04-22T15:51:09.595Z</time></trkpt><trkpt lat="43.454415" lon="13.4731883"><ele>46.0</ele><time>2026-04-22T15:51:10.595Z</time></trkpt><trkpt lat="43.4543833" lon="13.473305"><ele>46.0</ele><time>2026-04-22T15:51:11.596Z</time></trkpt><trkpt lat="43.45435" lon="13.4734217"><ele>46.0</ele><time>2026-04-22T15:51:12.595Z</time></trkpt><trkpt lat="43.45432" lon="13.473535"><ele>46.0</ele><time>2026-04-22T15:51:13.596Z</time></trkpt><trkpt lat="43.4542867" lon="13.47365"><ele>46.0</ele><time>2026-04-22T15:51:14.596Z</time></trkpt><trkpt lat="43.4542533" lon="13.4737667"><ele>46.0</ele><time>2026-04-22T15:51:15.595Z</time></trkpt><trkpt lat="43.454215" lon="13.4738817"><ele>46.0</ele><time>2026-04-22T15:51:16.595Z</time></trkpt><trkpt lat="43.4541767" lon="13.4739767"><ele>46.0</ele><time>2026-04-22T15:51:17.595Z</time></trkpt><trkpt lat="43.45414" lon="13.4740667"><ele>46.0</ele><time>2026-04-22T15:51:18.595Z</time></trkpt><trkpt lat="43.454115" lon="13.4741567"><ele>46.0</ele><time>2026-04-22T15:51:19.595Z</time></trkpt><trkpt lat="43.4540883" lon="13.4742517"><ele>45.85714285714286</ele><time>2026-04-22T15:51:20.595Z</time></trkpt><trkpt lat="43.454065" lon="13.4743367"><ele>45.71428571428571</ele><time>2026-04-22T15:51:21.595Z</time></trkpt><trkpt lat="43.45404" lon="13.4744167"><ele>45.57142857142857</ele><time>2026-04-22T15:51:22.595Z</time></trkpt><trkpt lat="43.454015" lon="13.4745"><ele>45.42857142857143</ele><time>2026-04-22T15:51:23.595Z</time></trkpt><trkpt lat="43.453985" lon="13.4745967"><ele>45.28571428571429</ele><time>2026-04-22T15:51:24.595Z</time></trkpt><trkpt lat="43.4539533" lon="13.4747"><ele>45.14285714285714</ele><time>2026-04-22T15:51:25.595Z</time></trkpt><trkpt lat="43.4539183" lon="13.4748133"><ele>45.0</ele><time>2026-04-22T15:51:26.595Z</time></trkpt><trkpt lat="43.4538767" lon="13.4749283"><ele>45.0</ele><time>2026-04-22T15:51:27.596Z</time></trkpt><trkpt lat="43.4538417" lon="13.4750417"><ele>45.0</ele><time>2026-04-22T15:51:28.595Z</time></trkpt><trkpt lat="43.4538083" lon="13.475145"><ele>45.0</ele><time>2026-04-22T15:51:29.595Z</time></trkpt><trkpt lat="43.4537783" lon="13.47524"><ele>45.0</ele><time>2026-04-22T15:51:30.596Z</time></trkpt><trkpt lat="43.4537617" lon="13.4753817"><ele>45.0</ele><time>2026-04-22T15:51:32.595Z</time></trkpt><trkpt lat="43.4538083" lon="13.4754833"><ele>45.0</ele><time>2026-04-22T15:51:34.595Z</time></trkpt><trkpt lat="43.4538817" lon="13.475545"><ele>45.166666666666664</ele><time>2026-04-22T15:51:36.595Z</time></trkpt><trkpt lat="43.4539933" lon="13.4756283"><ele>45.333333333333336</ele><time>2026-04-22T15:51:38.595Z</time></trkpt><trkpt lat="43.4540583" lon="13.4756783"><ele>45.5</ele><time>2026-04-22T15:51:39.595Z</time></trkpt><trkpt lat="43.4541233" lon="13.4757283"><ele>45.66666666666667</ele><time>2026-04-22T15:51:40.595Z</time></trkpt><trkpt lat="43.45419" lon="13.475785"><ele>45.833333333333336</ele><time>2026-04-22T15:51:41.595Z</time></trkpt><trkpt lat="43.4542667" lon="13.47584"><ele>46.0</ele><time>2026-04-22T15:51:42.595Z</time></trkpt><trkpt lat="43.454335" lon="13.4758933"><ele>46.0</ele><time>2026-04-22T15:51:43.595Z</time></trkpt><trkpt lat="43.4544267" lon="13.4759533"><ele>46.0</ele><time>2026-04-22T15:51:44.595Z</time></trkpt><trkpt lat="43.4545133" lon="13.4760117"><ele>46.0</ele><time>2026-04-22T15:51:45.596Z</time></trkpt><trkpt lat="43.4546" lon="13.4760633"><ele>46.0</ele><time>2026-04-22T15:51:46.595Z</time></trkpt><trkpt lat="43.4546767" lon="13.4761167"><ele>46.0</ele><time>2026-04-22T15:51:47.595Z</time></trkpt><trkpt lat="43.4547517" lon="13.4761683"><ele>45.833333333333336</ele><time>2026-04-22T15:51:48.595Z</time></trkpt><trkpt lat="43.4548267" lon="13.47622"><ele>45.66666666666667</ele><time>2026-04-22T15:51:49.595Z</time></trkpt><trkpt lat="43.454895" lon="13.4762717"><ele>45.5</ele><time>2026-04-22T15:51:50.595Z</time></trkpt><trkpt lat="43.4549583" lon="13.476325"><ele>45.333333333333336</ele><time>2026-04-22T15:51:51.596Z</time></trkpt><trkpt lat="43.4550333" lon="13.4763733"><ele>45.166666666666664</ele><time>2026-04-22T15:51:52.596Z</time></trkpt><trkpt lat="43.4551" lon="13.47642"><ele>45.0</ele><time>2026-04-22T15:51:53.595Z</time></trkpt><trkpt lat="43.4551633" lon="13.476465"><ele>45.0</ele><time>2026-04-22T15:51:54.595Z</time></trkpt><trkpt lat="43.4552283" lon="13.47651"><ele>45.0</ele><time>2026-04-22T15:51:55.595Z</time></trkpt><trkpt lat="43.455295" lon="13.4765417"><ele>45.0</ele><time>2026-04-22T15:51:56.595Z</time></trkpt><trkpt lat="43.4553583" lon="13.476585"><ele>45.0</ele><time>2026-04-22T15:51:57.595Z</time></trkpt><trkpt lat="43.4554167" lon="13.4766367"><ele>45.0</ele><time>2026-04-22T15:51:58.596Z</time></trkpt><trkpt lat="43.4554617" lon="13.4767017"><ele>45.0</ele><time>2026-04-22T15:51:59.595Z</time></trkpt><trkpt lat="43.455495" lon="13.4767783"><ele>45.0</ele><time>2026-04-22T15:52:00.595Z</time></trkpt><trkpt lat="43.4555167" lon="13.4768633"><ele>45.0</ele><time>2026-04-22T15:52:01.595Z</time></trkpt><trkpt lat="43.4555367" lon="13.4769633"><ele>45.0</ele><time>2026-04-22T15:52:02.595Z</time></trkpt><trkpt lat="43.4555567" lon="13.47707"><ele>45.0</ele><time>2026-04-22T15:52:03.595Z</time></trkpt><trkpt lat="43.4555733" lon="13.47719"><ele>45.0</ele><time>2026-04-22T15:52:04.595Z</time></trkpt><trkpt lat="43.4555883" lon="13.47732"><ele>45.0</ele><time>2026-04-22T15:52:05.595Z</time></trkpt><trkpt lat="43.4555933" lon="13.477435"><ele>45.0</ele><time>2026-04-22T15:52:06.595Z</time></trkpt><trkpt lat="43.4555833" lon="13.477545"><ele>44.666666666666664</ele><time>2026-04-22T15:52:07.595Z</time></trkpt><trkpt lat="43.4555533" lon="13.47764"><ele>44.333333333333336</ele><time>2026-04-22T15:52:08.595Z</time></trkpt><trkpt lat="43.4555167" lon="13.4777383"><ele>44.0</ele><time>2026-04-22T15:52:09.596Z</time></trkpt><trkpt lat="43.45548" lon="13.4778267"><ele>43.66666666666667</ele><time>2026-04-22T15:52:10.595Z</time></trkpt><trkpt lat="43.45543" lon="13.4779217"><ele>43.333333333333336</ele><time>2026-04-22T15:52:11.595Z</time></trkpt><trkpt lat="43.4553783" lon="13.4780233"><ele>43.0</ele><time>2026-04-22T15:52:12.595Z</time></trkpt><trkpt lat="43.455335" lon="13.478115"><ele>42.8</ele><time>2026-04-22T15:52:13.596Z</time></trkpt><trkpt lat="43.455285" lon="13.4782117"><ele>42.599999999999994</ele><time>2026-04-22T15:52:14.595Z</time></trkpt><trkpt lat="43.4552217" lon="13.478325"><ele>42.400000000000006</ele><time>2026-04-22T15:52:15.595Z</time></trkpt><trkpt lat="43.4551617" lon="13.478435"><ele>42.2</ele><time>2026-04-22T15:52:16.595Z</time></trkpt><trkpt lat="43.4550917" lon="13.47853"><ele>42.0</ele><time>2026-04-22T15:52:17.595Z</time></trkpt><trkpt lat="43.4550283" lon="13.4786317"><ele>42.0</ele><time>2026-04-22T15:52:18.595Z</time></trkpt><trkpt lat="43.4549633" lon="13.4787283"><ele>42.0</ele><time>2026-04-22T15:52:19.595Z</time></trkpt><trkpt lat="43.4548983" lon="13.4788283"><ele>42.0</ele><time>2026-04-22T15:52:20.595Z</time></trkpt><trkpt lat="43.4548267" lon="13.4789267"><ele>42.0</ele><time>2026-04-22T15:52:21.595Z</time></trkpt><trkpt lat="43.4547583" lon="13.4790317"><ele>42.0</ele><time>2026-04-22T15:52:22.595Z</time></trkpt><trkpt lat="43.454685" lon="13.4791417"><ele>41.8</ele><time>2026-04-22T15:52:23.595Z</time></trkpt><trkpt lat="43.454625" lon="13.4792567"><ele>41.6</ele><time>2026-04-22T15:52:24.595Z</time></trkpt><trkpt lat="43.4545667" lon="13.4793717"><ele>41.4</ele><time>2026-04-22T15:52:25.595Z</time></trkpt><trkpt lat="43.4544967" lon="13.4794867"><ele>41.199999999999996</ele><time>2026-04-22T15:52:26.595Z</time></trkpt><trkpt lat="43.4544267" lon="13.4796033"><ele>41.0</ele><time>2026-04-22T15:52:27.595Z</time></trkpt><trkpt lat="43.4543567" lon="13.4797267"><ele>41.4</ele><time>2026-04-22T15:52:28.596Z</time></trkpt><trkpt lat="43.4542917" lon="13.4798533"><ele>41.8</ele><time>2026-04-22T15:52:29.595Z</time></trkpt><trkpt lat="43.454235" lon="13.4799683"><ele>42.199999999999996</ele><time>2026-04-22T15:52:30.596Z</time></trkpt><trkpt lat="43.454175" lon="13.4800767"><ele>42.599999999999994</ele><time>2026-04-22T15:52:31.595Z</time></trkpt><trkpt lat="43.4541167" lon="13.4801983"><ele>43.0</ele><time>2026-04-22T15:52:32.595Z</time></trkpt><trkpt lat="43.4540583" lon="13.4802983"><ele>43.0</ele><time>2026-04-22T15:52:33.596Z</time></trkpt><trkpt lat="43.454" lon="13.4804083"><ele>43.0</ele><time>2026-04-22T15:52:34.595Z</time></trkpt><trkpt lat="43.453925" lon="13.4805233"><ele>43.0</ele><time>2026-04-22T15:52:35.595Z</time></trkpt><trkpt lat="43.4538683" lon="13.4806433"><ele>43.0</ele><time>2026-04-22T15:52:36.594Z</time></trkpt><trkpt lat="43.4538217" lon="13.4807583"><ele>43.0</ele><time>2026-04-22T15:52:37.594Z</time></trkpt><trkpt lat="43.4537633" lon="13.4808817"><ele>42.8</ele><time>2026-04-22T15:52:38.595Z</time></trkpt><trkpt lat="43.45371" lon="13.4809783"><ele>42.599999999999994</ele><time>2026-04-22T15:52:39.594Z</time></trkpt><trkpt lat="43.453655" lon="13.4810817"><ele>42.400000000000006</ele><time>2026-04-22T15:52:40.594Z</time></trkpt><trkpt lat="43.4535933" lon="13.4811933"><ele>42.2</ele><time>2026-04-22T15:52:41.594Z</time></trkpt><trkpt lat="43.45353" lon="13.4812883"><ele>42.0</ele><time>2026-04-22T15:52:42.594Z</time></trkpt><trkpt lat="43.4534483" lon="13.4813917"><ele>41.75</ele><time>2026-04-22T15:52:43.594Z</time></trkpt><trkpt lat="43.4533667" lon="13.481475"><ele>41.5</ele><time>2026-04-22T15:52:44.594Z</time></trkpt><trkpt lat="43.4532783" lon="13.48157"><ele>41.25</ele><time>2026-04-22T15:52:45.594Z</time></trkpt><trkpt lat="43.453185" lon="13.4816767"><ele>41.0</ele><time>2026-04-22T15:52:46.595Z</time></trkpt><trkpt lat="43.4531017" lon="13.4817867"><ele>41.0</ele><time>2026-04-22T15:52:47.594Z</time></trkpt><trkpt lat="43.4530133" lon="13.4818967"><ele>41.0</ele><time>2026-04-22T15:52:48.594Z</time></trkpt><trkpt lat="43.4529183" lon="13.4820117"><ele>41.0</ele><time>2026-04-22T15:52:49.594Z</time></trkpt><trkpt lat="43.4528283" lon="13.482125"><ele>41.0</ele><time>2026-04-22T15:52:50.594Z</time></trkpt><trkpt lat="43.452745" lon="13.482225"><ele>41.0</ele><time>2026-04-22T15:52:51.594Z</time></trkpt><trkpt lat="43.45268" lon="13.4823183"><ele>41.0</ele><time>2026-04-22T15:52:52.594Z</time></trkpt><trkpt lat="43.4526167" lon="13.4824017"><ele>41.0</ele><time>2026-04-22T15:52:53.595Z</time></trkpt><trkpt lat="43.45256" lon="13.482495"><ele>41.0</ele><time>2026-04-22T15:52:54.594Z</time></trkpt><trkpt lat="43.452505" lon="13.4825833"><ele>41.0</ele><time>2026-04-22T15:52:55.594Z</time></trkpt><trkpt lat="43.4524533" lon="13.4826667"><ele>41.0</ele><time>2026-04-22T15:52:56.594Z</time></trkpt><trkpt lat="43.45239" lon="13.4827817"><ele>41.0</ele><time>2026-04-22T15:52:57.595Z</time></trkpt><trkpt lat="43.4523167" lon="13.48289"><ele>41.0</ele><time>2026-04-22T15:52:58.595Z</time></trkpt><trkpt lat="43.452245" lon="13.4830033"><ele>41.0</ele><time>2026-04-22T15:52:59.594Z</time></trkpt><trkpt lat="43.452185" lon="13.4831067"><ele>41.0</ele><time>2026-04-22T15:53:00.595Z</time></trkpt><trkpt lat="43.45213" lon="13.483195"><ele>41.0</ele><time>2026-04-22T15:53:01.594Z</time></trkpt><trkpt lat="43.4520733" lon="13.48328"><ele>41.4</ele><time>2026-04-22T15:53:02.594Z</time></trkpt><trkpt lat="43.4520317" lon="13.483355"><ele>41.8</ele><time>2026-04-22T15:53:03.594Z</time></trkpt><trkpt lat="43.4519617" lon="13.4834933"><ele>42.199999999999996</ele><time>2026-04-22T15:53:05.594Z</time></trkpt><trkpt lat="43.4518983" lon="13.483615"><ele>42.599999999999994</ele><time>2026-04-22T15:53:07.594Z</time></trkpt><trkpt lat="43.4518483" lon="13.4837383"><ele>43.0</ele><time>2026-04-22T15:53:09.594Z</time></trkpt><trkpt lat="43.4517933" lon="13.4838667"><ele>43.2</ele><time>2026-04-22T15:53:11.594Z</time></trkpt><trkpt lat="43.4517317" lon="13.483985"><ele>43.4</ele><time>2026-04-22T15:53:13.594Z</time></trkpt><trkpt lat="43.4516467" lon="13.4840883"><ele>43.6</ele><time>2026-04-22T15:53:15.594Z</time></trkpt><trkpt lat="43.4515383" lon="13.484145"><ele>43.800000000000004</ele><time>2026-04-22T15:53:17.594Z</time></trkpt><trkpt lat="43.4514433" lon="13.4842"><ele>44.0</ele><time>2026-04-22T15:53:19.594Z</time></trkpt><trkpt lat="43.4513683" lon="13.4843367"><ele>44.0</ele><time>2026-04-22T15:53:21.594Z</time></trkpt><trkpt lat="43.4513" lon="13.4844983"><ele>44.0</ele><time>2026-04-22T15:53:23.594Z</time></trkpt><trkpt lat="43.45125" lon="13.4846"><ele>44.0</ele><time>2026-04-22T15:53:24.594Z</time></trkpt><trkpt lat="43.45119" lon="13.4847033"><ele>44.0</ele><time>2026-04-22T15:53:25.594Z</time></trkpt><trkpt lat="43.4511267" lon="13.4848083"><ele>44.0</ele><time>2026-04-22T15:53:26.594Z</time></trkpt><trkpt lat="43.4510583" lon="13.4849017"><ele>43.33333333333333</ele><time>2026-04-22T15:53:27.594Z</time></trkpt><trkpt lat="43.4509867" lon="13.4849717"><ele>42.666666666666664</ele><time>2026-04-22T15:53:28.594Z</time></trkpt><trkpt lat="43.45092" lon="13.4850383"><ele>42.0</ele><time>2026-04-22T15:53:29.594Z</time></trkpt><trkpt lat="43.4508567" lon="13.4850867"><ele>41.333333333333336</ele><time>2026-04-22T15:53:30.594Z</time></trkpt><trkpt lat="43.4507983" lon="13.4851233"><ele>40.66666666666667</ele><time>2026-04-22T15:53:31.595Z</time></trkpt><trkpt lat="43.4506867" lon="13.4851267"><ele>40.0</ele><time>2026-04-22T15:53:33.594Z</time></trkpt><trkpt lat="43.4505667" lon="13.4851117"><ele>40.0</ele><time>2026-04-22T15:53:35.595Z</time></trkpt><trkpt lat="43.4505067" lon="13.4851383"><ele>40.0</ele><time>2026-04-22T15:53:36.594Z</time></trkpt><trkpt lat="43.45045" lon="13.485185"><ele>40.0</ele><time>2026-04-22T15:53:37.594Z</time></trkpt><trkpt lat="43.4503867" lon="13.4852383"><ele>40.0</ele><time>2026-04-22T15:53:38.594Z</time></trkpt><trkpt lat="43.45033" lon="13.48531"><ele>40.0</ele><time>2026-04-22T15:53:39.594Z</time></trkpt><trkpt lat="43.450265" lon="13.48538"><ele>40.0</ele><time>2026-04-22T15:53:40.594Z</time></trkpt><trkpt lat="43.4502067" lon="13.48544"><ele>40.0</ele><time>2026-04-22T15:53:41.594Z</time></trkpt><trkpt lat="43.4501517" lon="13.48551"><ele>40.16666666666667</ele><time>2026-04-22T15:53:42.594Z</time></trkpt><trkpt lat="43.4501083" lon="13.4855917"><ele>40.333333333333336</ele><time>2026-04-22T15:53:43.594Z</time></trkpt><trkpt lat="43.4500583" lon="13.4856783"><ele>40.5</ele><time>2026-04-22T15:53:44.594Z</time></trkpt><trkpt lat="43.45001" lon="13.48577"><ele>40.666666666666664</ele><time>2026-04-22T15:53:45.594Z</time></trkpt><trkpt lat="43.449975" lon="13.485885"><ele>40.83333333333333</ele><time>2026-04-22T15:53:46.594Z</time></trkpt><trkpt lat="43.4499417" lon="13.4860033"><ele>41.0</ele><time>2026-04-22T15:53:47.594Z</time></trkpt><trkpt lat="43.4499083" lon="13.4861217"><ele>41.0</ele><time>2026-04-22T15:53:48.594Z</time></trkpt><trkpt lat="43.4498667" lon="13.4862433"><ele>41.0</ele><time>2026-04-22T15:53:49.594Z</time></trkpt><trkpt lat="43.4498133" lon="13.4863483"><ele>41.0</ele><time>2026-04-22T15:53:50.594Z</time></trkpt><trkpt lat="43.4497417" lon="13.4864433"><ele>41.0</ele><time>2026-04-22T15:53:51.594Z</time></trkpt><trkpt lat="43.449665" lon="13.4865267"><ele>41.0</ele><time>2026-04-22T15:53:52.594Z</time></trkpt><trkpt lat="43.4495933" lon="13.4865967"><ele>40.666666666666664</ele><time>2026-04-22T15:53:53.594Z</time></trkpt><trkpt lat="43.4495183" lon="13.48665"><ele>40.33333333333333</ele><time>2026-04-22T15:53:54.594Z</time></trkpt><trkpt lat="43.4494417" lon="13.4866817"><ele>40.0</ele><time>2026-04-22T15:53:55.595Z</time></trkpt><trkpt lat="43.44937" lon="13.4866833"><ele>39.666666666666664</ele><time>2026-04-22T15:53:56.594Z</time></trkpt><trkpt lat="43.44931" lon="13.4866283"><ele>39.333333333333336</ele><time>2026-04-22T15:53:57.594Z</time></trkpt><trkpt lat="43.44927" lon="13.4865367"><ele>39.0</ele><time>2026-04-22T15:53:58.594Z</time></trkpt><trkpt lat="43.4492333" lon="13.48642"><ele>39.0</ele><time>2026-04-22T15:53:59.594Z</time></trkpt><trkpt lat="43.449185" lon="13.4862833"><ele>39.0</ele><time>2026-04-22T15:54:00.594Z</time></trkpt><trkpt lat="43.4491283" lon="13.4861333"><ele>39.0</ele><time>2026-04-22T15:54:01.595Z</time></trkpt><trkpt lat="43.4490733" lon="13.4859667"><ele>39.0</ele><time>2026-04-22T15:54:02.594Z</time></trkpt><trkpt lat="43.449015" lon="13.4858167"><ele>39.2</ele><time>2026-04-22T15:54:03.594Z</time></trkpt><trkpt lat="43.4489667" lon="13.4856817"><ele>39.4</ele><time>2026-04-22T15:54:04.594Z</time></trkpt><trkpt lat="43.4489117" lon="13.48556"><ele>39.6</ele><time>2026-04-22T15:54:05.594Z</time></trkpt><trkpt lat="43.44885" lon="13.485465"><ele>39.8</ele><time>2026-04-22T15:54:06.594Z</time></trkpt><trkpt lat="43.4487767" lon="13.4853917"><ele>40.0</ele><time>2026-04-22T15:54:07.594Z</time></trkpt><trkpt lat="43.4486867" lon="13.4853433"><ele>40.0</ele><time>2026-04-22T15:54:08.594Z</time></trkpt><trkpt lat="43.44859" lon="13.4853167"><ele>40.0</ele><time>2026-04-22T15:54:09.594Z</time></trkpt><trkpt lat="43.448495" lon="13.4853083"><ele>40.0</ele><time>2026-04-22T15:54:10.595Z</time></trkpt><trkpt lat="43.4484" lon="13.48531"><ele>40.0</ele><time>2026-04-22T15:54:11.594Z</time></trkpt><trkpt lat="43.4483067" lon="13.4853233"><ele>40.0</ele><time>2026-04-22T15:54:12.594Z</time></trkpt><trkpt lat="43.4482117" lon="13.4853417"><ele>40.0</ele><time>2026-04-22T15:54:13.594Z</time></trkpt><trkpt lat="43.4481117" lon="13.4853667"><ele>40.0</ele><time>2026-04-22T15:54:14.594Z</time></trkpt><trkpt lat="43.4479967" lon="13.4853883"><ele>40.0</ele><time>2026-04-22T15:54:15.594Z</time></trkpt><trkpt lat="43.44788" lon="13.4854183"><ele>40.0</ele><time>2026-04-22T15:54:16.594Z</time></trkpt><trkpt lat="43.4477617" lon="13.4854467"><ele>40.5</ele><time>2026-04-22T15:54:17.595Z</time></trkpt><trkpt lat="43.4476383" lon="13.4854783"><ele>41.0</ele><time>2026-04-22T15:54:18.594Z</time></trkpt><trkpt lat="43.4475133" lon="13.4855017"><ele>41.5</ele><time>2026-04-22T15:54:19.595Z</time></trkpt><trkpt lat="43.44738" lon="13.4855267"><ele>42.0</ele><time>2026-04-22T15:54:20.594Z</time></trkpt><trkpt lat="43.4472467" lon="13.485555"><ele>42.0</ele><time>2026-04-22T15:54:21.594Z</time></trkpt><trkpt lat="43.447105" lon="13.48559"><ele>42.0</ele><time>2026-04-22T15:54:22.594Z</time></trkpt><trkpt lat="43.44695" lon="13.48562"><ele>42.0</ele><time>2026-04-22T15:54:23.594Z</time></trkpt><trkpt lat="43.446795" lon="13.4856483"><ele>42.0</ele><time>2026-04-22T15:54:24.594Z</time></trkpt><trkpt lat="43.4466433" lon="13.4856783"><ele>42.0</ele><time>2026-04-22T15:54:25.595Z</time></trkpt><trkpt lat="43.4465033" lon="13.4857083"><ele>42.0</ele><time>2026-04-22T15:54:26.594Z</time></trkpt><trkpt lat="43.4463717" lon="13.4857283"><ele>42.0</ele><time>2026-04-22T15:54:27.594Z</time></trkpt><trkpt lat="43.4462417" lon="13.485745"><ele>42.25</ele><time>2026-04-22T15:54:28.594Z</time></trkpt><trkpt lat="43.4461167" lon="13.4857717"><ele>42.5</ele><time>2026-04-22T15:54:29.595Z</time></trkpt><trkpt lat="43.4459933" lon="13.4857883"><ele>42.75</ele><time>2026-04-22T15:54:30.595Z</time></trkpt><trkpt lat="43.4458617" lon="13.4858317"><ele>43.0</ele><time>2026-04-22T15:54:31.594Z</time></trkpt><trkpt lat="43.44573" lon="13.4858667"><ele>43.0</ele><time>2026-04-22T15:54:32.594Z</time></trkpt><trkpt lat="43.4456" lon="13.485895"><ele>43.0</ele><time>2026-04-22T15:54:33.595Z</time></trkpt><trkpt lat="43.4454667" lon="13.4859217"><ele>43.0</ele><time>2026-04-22T15:54:34.594Z</time></trkpt><trkpt lat="43.4453267" lon="13.48595"><ele>43.0</ele><time>2026-04-22T15:54:35.594Z</time></trkpt><trkpt lat="43.4451783" lon="13.4859817"><ele>43.0</ele><time>2026-04-22T15:54:36.594Z</time></trkpt><trkpt lat="43.4450233" lon="13.4860167"><ele>43.0</ele><time>2026-04-22T15:54:37.594Z</time></trkpt><trkpt lat="43.444865" lon="13.486045"><ele>43.0</ele><time>2026-04-22T15:54:38.594Z</time></trkpt><trkpt lat="43.44472" lon="13.486075"><ele>43.25</ele><time>2026-04-22T15:54:39.594Z</time></trkpt><trkpt lat="43.4445817" lon="13.486105"><ele>43.5</ele><time>2026-04-22T15:54:40.594Z</time></trkpt><trkpt lat="43.4444533" lon="13.4861333"><ele>43.75</ele><time>2026-04-22T15:54:41.594Z</time></trkpt><trkpt lat="43.4443233" lon="13.4861617"><ele>44.0</ele><time>2026-04-22T15:54:42.594Z</time></trkpt><trkpt lat="43.4441933" lon="13.48618"><ele>44.0</ele><time>2026-04-22T15:54:43.594Z</time></trkpt><trkpt lat="43.4440733" lon="13.4862033"><ele>44.0</ele><time>2026-04-22T15:54:44.594Z</time></trkpt><trkpt lat="43.4439517" lon="13.4862417"><ele>44.0</ele><time>2026-04-22T15:54:45.594Z</time></trkpt><trkpt lat="43.4438383" lon="13.48627"><ele>44.0</ele><time>2026-04-22T15:54:46.595Z</time></trkpt><trkpt lat="43.4437317" lon="13.4863017"><ele>44.25</ele><time>2026-04-22T15:54:47.594Z</time></trkpt><trkpt lat="43.4436283" lon="13.4863217"><ele>44.5</ele><time>2026-04-22T15:54:48.595Z</time></trkpt><trkpt lat="43.4435183" lon="13.486335"><ele>44.75</ele><time>2026-04-22T15:54:49.594Z</time></trkpt><trkpt lat="43.443405" lon="13.48635"><ele>45.0</ele><time>2026-04-22T15:54:50.594Z</time></trkpt><trkpt lat="43.44328" lon="13.486355"><ele>45.0</ele><time>2026-04-22T15:54:51.595Z</time></trkpt><trkpt lat="43.44315" lon="13.4863567"><ele>45.0</ele><time>2026-04-22T15:54:52.594Z</time></trkpt><trkpt lat="43.4430067" lon="13.4863633"><ele>45.0</ele><time>2026-04-22T15:54:53.594Z</time></trkpt><trkpt lat="43.4428567" lon="13.4863733"><ele>45.0</ele><time>2026-04-22T15:54:54.594Z</time></trkpt><trkpt lat="43.4427083" lon="13.48638"><ele>45.25</ele><time>2026-04-22T15:54:55.594Z</time></trkpt><trkpt lat="43.44257" lon="13.486385"><ele>45.5</ele><time>2026-04-22T15:54:56.594Z</time></trkpt><trkpt lat="43.4424283" lon="13.4863983"><ele>45.75</ele><time>2026-04-22T15:54:57.594Z</time></trkpt><trkpt lat="43.4422817" lon="13.486405"><ele>46.0</ele><time>2026-04-22T15:54:58.594Z</time></trkpt><trkpt lat="43.4421383" lon="13.486425"><ele>46.75</ele><time>2026-04-22T15:54:59.594Z</time></trkpt><trkpt lat="43.44201" lon="13.4864283"><ele>47.5</ele><time>2026-04-22T15:55:00.594Z</time></trkpt><trkpt lat="43.4418933" lon="13.4864267"><ele>48.25</ele><time>2026-04-22T15:55:01.594Z</time></trkpt><trkpt lat="43.44178" lon="13.4864283"><ele>49.0</ele><time>2026-04-22T15:55:02.594Z</time></trkpt><trkpt lat="43.4416783" lon="13.4864233"><ele>48.99999999999999</ele><time>2026-04-22T15:55:03.594Z</time></trkpt><trkpt lat="43.4415833" lon="13.4864217"><ele>49.0</ele><time>2026-04-22T15:55:04.594Z</time></trkpt><trkpt lat="43.44149" lon="13.48642"><ele>49.0</ele><time>2026-04-22T15:55:05.594Z</time></trkpt><trkpt lat="43.4414117" lon="13.4863983"><ele>49.0</ele><time>2026-04-22T15:55:06.594Z</time></trkpt><trkpt lat="43.4413383" lon="13.48637"><ele>48.99999999999999</ele><time>2026-04-22T15:55:07.594Z</time></trkpt><trkpt lat="43.4412633" lon="13.48633"><ele>49.0</ele><time>2026-04-22T15:55:08.594Z</time></trkpt><trkpt lat="43.44118" lon="13.48628"><ele>51.0</ele><time>2026-04-22T15:55:09.594Z</time></trkpt><trkpt lat="43.441095" lon="13.48624"><ele>53.0</ele><time>2026-04-22T15:55:10.594Z</time></trkpt><trkpt lat="43.4410117" lon="13.4862067"><ele>55.00000000000001</ele><time>2026-04-22T15:55:11.594Z</time></trkpt><trkpt lat="43.4409317" lon="13.4861683"><ele>57.0</ele><time>2026-04-22T15:55:12.594Z</time></trkpt><trkpt lat="43.44084" lon="13.4861233"><ele>59.0</ele><time>2026-04-22T15:55:13.594Z</time></trkpt><trkpt lat="43.4407467" lon="13.486085"><ele>59.0</ele><time>2026-04-22T15:55:14.594Z</time></trkpt><trkpt lat="43.4406533" lon="13.486045"><ele>59.00000000000001</ele><time>2026-04-22T15:55:15.594Z</time></trkpt><trkpt lat="43.440555" lon="13.4859933"><ele>59.00000000000001</ele><time>2026-04-22T15:55:16.594Z</time></trkpt><trkpt lat="43.4404533" lon="13.4859467"><ele>59.0</ele><time>2026-04-22T15:55:17.594Z</time></trkpt><trkpt lat="43.4403467" lon="13.4858883"><ele>59.0</ele><time>2026-04-22T15:55:18.594Z</time></trkpt><trkpt lat="43.4402333" lon="13.4858283"><ele>60.0</ele><time>2026-04-22T15:55:19.595Z</time></trkpt><trkpt lat="43.440125" lon="13.48577"><ele>61.0</ele><time>2026-04-22T15:55:20.594Z</time></trkpt><trkpt lat="43.44002" lon="13.48572"><ele>62.0</ele><time>2026-04-22T15:55:21.594Z</time></trkpt><trkpt lat="43.43991" lon="13.4856667"><ele>63.0</ele><time>2026-04-22T15:55:22.594Z</time></trkpt><trkpt lat="43.4397983" lon="13.48562"><ele>63.0</ele><time>2026-04-22T15:55:23.594Z</time></trkpt><trkpt lat="43.4396817" lon="13.485575"><ele>63.0</ele><time>2026-04-22T15:55:24.594Z</time></trkpt><trkpt lat="43.439565" lon="13.4855483"><ele>63.0</ele><time>2026-04-22T15:55:25.594Z</time></trkpt><trkpt lat="43.4394567" lon="13.4855283"><ele>63.0</ele><time>2026-04-22T15:55:26.594Z</time></trkpt><trkpt lat="43.4393517" lon="13.4855417"><ele>66.5</ele><time>2026-04-22T15:55:27.594Z</time></trkpt><trkpt lat="43.4392417" lon="13.48556"><ele>70.0</ele><time>2026-04-22T15:55:28.594Z</time></trkpt><trkpt lat="43.4391283" lon="13.4855683"><ele>73.5</ele><time>2026-04-22T15:55:29.594Z</time></trkpt><trkpt lat="43.439005" lon="13.4855717"><ele>77.0</ele><time>2026-04-22T15:55:30.594Z</time></trkpt><trkpt lat="43.4388783" lon="13.4855783"><ele>80.25</ele><time>2026-04-22T15:55:31.594Z</time></trkpt><trkpt lat="43.43874" lon="13.48557"><ele>83.5</ele><time>2026-04-22T15:55:32.594Z</time></trkpt><trkpt lat="43.4385867" lon="13.4855567"><ele>86.75</ele><time>2026-04-22T15:55:33.594Z</time></trkpt><trkpt lat="43.4384367" lon="13.4855533"><ele>90.0</ele><time>2026-04-22T15:55:34.594Z</time></trkpt><trkpt lat="43.43829" lon="13.4855467"><ele>90.0</ele><time>2026-04-22T15:55:35.594Z</time></trkpt><trkpt lat="43.4381517" lon="13.4855367"><ele>90.0</ele><time>2026-04-22T15:55:36.594Z</time></trkpt><trkpt lat="43.4380167" lon="13.485545"><ele>90.0</ele><time>2026-04-22T15:55:37.594Z</time></trkpt><trkpt lat="43.4378817" lon="13.4855417"><ele>90.0</ele><time>2026-04-22T15:55:38.594Z</time></trkpt><trkpt lat="43.43776" lon="13.4855333"><ele>92.8</ele><time>2026-04-22T15:55:39.594Z</time></trkpt><trkpt lat="43.43764" lon="13.485525"><ele>95.6</ele><time>2026-04-22T15:55:40.594Z</time></trkpt><trkpt lat="43.43753" lon="13.4855217"><ele>98.4</ele><time>2026-04-22T15:55:41.594Z</time></trkpt><trkpt lat="43.437445" lon="13.48552"><ele>101.2</ele><time>2026-04-22T15:55:42.594Z</time></trkpt><trkpt lat="43.4373667" lon="13.48552"><ele>104.0</ele><time>2026-04-22T15:55:43.594Z</time></trkpt><trkpt lat="43.4372883" lon="13.4855217"><ele>103.99999999999999</ele><time>2026-04-22T15:55:44.595Z</time></trkpt><trkpt lat="43.4372067" lon="13.4855233"><ele>104.0</ele><time>2026-04-22T15:55:45.595Z</time></trkpt><trkpt lat="43.4371167" lon="13.48552"><ele>104.0</ele><time>2026-04-22T15:55:46.594Z</time></trkpt><trkpt lat="43.43702" lon="13.4855183"><ele>104.0</ele><time>2026-04-22T15:55:47.594Z</time></trkpt><trkpt lat="43.436925" lon="13.4855233"><ele>103.99999999999999</ele><time>2026-04-22T15:55:48.595Z</time></trkpt><trkpt lat="43.436845" lon="13.4855133"><ele>104.0</ele><time>2026-04-22T15:55:49.594Z</time></trkpt><trkpt lat="43.4367467" lon="13.4855167"><ele>106.14285714285714</ele><time>2026-04-22T15:55:51.594Z</time></trkpt><trkpt lat="43.4366883" lon="13.48556"><ele>108.28571428571429</ele><time>2026-04-22T15:55:53.595Z</time></trkpt><trkpt lat="43.4366683" lon="13.4856833"><ele>110.42857142857143</ele><time>2026-04-22T15:55:55.594Z</time></trkpt><trkpt lat="43.4366667" lon="13.4857733"><ele>112.57142857142857</ele><time>2026-04-22T15:55:56.594Z</time></trkpt><trkpt lat="43.4366683" lon="13.4858633"><ele>114.71428571428572</ele><time>2026-04-22T15:55:57.594Z</time></trkpt><trkpt lat="43.4366667" lon="13.4859617"><ele>116.85714285714286</ele><time>2026-04-22T15:55:58.594Z</time></trkpt><trkpt lat="43.436665" lon="13.4860717"><ele>119.0</ele><time>2026-04-22T15:55:59.594Z</time></trkpt><trkpt lat="43.4366617" lon="13.4861967"><ele>119.49999999999999</ele><time>2026-04-22T15:56:00.594Z</time></trkpt><trkpt lat="43.43666" lon="13.486325"><ele>120.0</ele><time>2026-04-22T15:56:01.594Z</time></trkpt><trkpt lat="43.436655" lon="13.48645"><ele>120.5</ele><time>2026-04-22T15:56:02.595Z</time></trkpt><trkpt lat="43.436655" lon="13.4865667"><ele>121.0</ele><time>2026-04-22T15:56:03.594Z</time></trkpt><trkpt lat="43.4366633" lon="13.4866817"><ele>121.49999999999999</ele><time>2026-04-22T15:56:04.594Z</time></trkpt><trkpt lat="43.4366667" lon="13.4868"><ele>122.0</ele><time>2026-04-22T15:56:05.594Z</time></trkpt><trkpt lat="43.4366733" lon="13.4869283"><ele>122.0</ele><time>2026-04-22T15:56:06.594Z</time></trkpt><trkpt lat="43.4366833" lon="13.487075"><ele>121.99999999999999</ele><time>2026-04-22T15:56:07.594Z</time></trkpt><trkpt lat="43.4367017" lon="13.48721"><ele>121.99999999999999</ele><time>2026-04-22T15:56:08.594Z</time></trkpt><trkpt lat="43.436735" lon="13.48735"><ele>122.0</ele><time>2026-04-22T15:56:09.594Z</time></trkpt><trkpt lat="43.43677" lon="13.4874933"><ele>122.0</ele><time>2026-04-22T15:56:10.594Z</time></trkpt><trkpt lat="43.4368033" lon="13.48763"><ele>122.0</ele><time>2026-04-22T15:56:11.594Z</time></trkpt><trkpt lat="43.43685" lon="13.48777"><ele>121.99999999999999</ele><time>2026-04-22T15:56:12.594Z</time></trkpt><trkpt lat="43.4368883" lon="13.4879083"><ele>121.99999999999999</ele><time>2026-04-22T15:56:13.594Z</time></trkpt><trkpt lat="43.43693" lon="13.4880433"><ele>122.0</ele><time>2026-04-22T15:56:14.594Z</time></trkpt><trkpt lat="43.4369817" lon="13.488185"><ele>122.0</ele><time>2026-04-22T15:56:15.594Z</time></trkpt><trkpt lat="43.4370317" lon="13.4883367"><ele>122.0</ele><time>2026-04-22T15:56:16.594Z</time></trkpt><trkpt lat="43.437085" lon="13.4884817"><ele>121.99999999999999</ele><time>2026-04-22T15:56:17.594Z</time></trkpt><trkpt lat="43.4371333" lon="13.4886083"><ele>121.99999999999999</ele><time>2026-04-22T15:56:18.594Z</time></trkpt><trkpt lat="43.43718" lon="13.4887267"><ele>122.0</ele><time>2026-04-22T15:56:19.594Z</time></trkpt><trkpt lat="43.43723" lon="13.4888467"><ele>122.0</ele><time>2026-04-22T15:56:20.594Z</time></trkpt><trkpt lat="43.4372883" lon="13.48897"><ele>121.39999999999999</ele><time>2026-04-22T15:56:21.594Z</time></trkpt><trkpt lat="43.4373367" lon="13.48909"><ele>120.79999999999998</ele><time>2026-04-22T15:56:22.594Z</time></trkpt><trkpt lat="43.4373817" lon="13.4892133"><ele>120.2</ele><time>2026-04-22T15:56:23.594Z</time></trkpt><trkpt lat="43.43742" lon="13.48934"><ele>119.6</ele><time>2026-04-22T15:56:24.594Z</time></trkpt><trkpt lat="43.43745" lon="13.4894733"><ele>119.0</ele><time>2026-04-22T15:56:25.594Z</time></trkpt><trkpt lat="43.4374717" lon="13.489615"><ele>119.0</ele><time>2026-04-22T15:56:26.594Z</time></trkpt><trkpt lat="43.43749" lon="13.4897567"><ele>119.0</ele><time>2026-04-22T15:56:27.594Z</time></trkpt><trkpt lat="43.4375" lon="13.4899067"><ele>119.0</ele><time>2026-04-22T15:56:28.594Z</time></trkpt><trkpt lat="43.4375067" lon="13.4900633"><ele>119.0</ele><time>2026-04-22T15:56:29.594Z</time></trkpt><trkpt lat="43.4375117" lon="13.49022"><ele>119.0</ele><time>2026-04-22T15:56:30.595Z</time></trkpt><trkpt lat="43.4375083" lon="13.4903667"><ele>119.0</ele><time>2026-04-22T15:56:31.594Z</time></trkpt><trkpt lat="43.4375183" lon="13.4905183"><ele>119.0</ele><time>2026-04-22T15:56:32.594Z</time></trkpt><trkpt lat="43.437525" lon="13.490675"><ele>119.0</ele><time>2026-04-22T15:56:33.595Z</time></trkpt><trkpt lat="43.43753" lon="13.4908367"><ele>119.0</ele><time>2026-04-22T15:56:34.594Z</time></trkpt><trkpt lat="43.4375317" lon="13.4909867"><ele>119.0</ele><time>2026-04-22T15:56:35.594Z</time></trkpt><trkpt lat="43.437535" lon="13.4911267"><ele>119.0</ele><time>2026-04-22T15:56:36.594Z</time></trkpt><trkpt lat="43.4375483" lon="13.4912583"><ele>119.0</ele><time>2026-04-22T15:56:37.594Z</time></trkpt><trkpt lat="43.4375717" lon="13.4913983"><ele>119.0</ele><time>2026-04-22T15:56:38.594Z</time></trkpt><trkpt lat="43.4375983" lon="13.4915417"><ele>119.0</ele><time>2026-04-22T15:56:39.594Z</time></trkpt><trkpt lat="43.437625" lon="13.4916917"><ele>119.0</ele><time>2026-04-22T15:56:40.594Z</time></trkpt><trkpt lat="43.4376617" lon="13.4918383"><ele>119.0</ele><time>2026-04-22T15:56:41.595Z</time></trkpt><trkpt lat="43.4376983" lon="13.491985"><ele>119.0</ele><time>2026-04-22T15:56:42.594Z</time></trkpt><trkpt lat="43.437745" lon="13.492135"><ele>119.0</ele><time>2026-04-22T15:56:43.594Z</time></trkpt><trkpt lat="43.4377867" lon="13.4922767"><ele>119.5</ele><time>2026-04-22T15:56:44.594Z</time></trkpt><trkpt lat="43.4378333" lon="13.4924183"><ele>120.0</ele><time>2026-04-22T15:56:45.594Z</time></trkpt><trkpt lat="43.4378867" lon="13.4925617"><ele>120.5</ele><time>2026-04-22T15:56:46.594Z</time></trkpt><trkpt lat="43.4379433" lon="13.4926967"><ele>121.0</ele><time>2026-04-22T15:56:47.594Z</time></trkpt><trkpt lat="43.4379983" lon="13.492825"><ele>121.4</ele><time>2026-04-22T15:56:48.594Z</time></trkpt><trkpt lat="43.4380517" lon="13.4929533"><ele>121.8</ele><time>2026-04-22T15:56:49.594Z</time></trkpt><trkpt lat="43.4380983" lon="13.49308"><ele>122.20000000000002</ele><time>2026-04-22T15:56:50.594Z</time></trkpt><trkpt lat="43.4381467" lon="13.4932"><ele>122.60000000000001</ele><time>2026-04-22T15:56:51.595Z</time></trkpt><trkpt lat="43.43819" lon="13.4933183"><ele>123.0</ele><time>2026-04-22T15:56:52.594Z</time></trkpt><trkpt lat="43.4382383" lon="13.49344"><ele>123.0</ele><time>2026-04-22T15:56:53.594Z</time></trkpt><trkpt lat="43.4383017" lon="13.49357"><ele>123.0</ele><time>2026-04-22T15:56:54.594Z</time></trkpt><trkpt lat="43.438365" lon="13.4937017"><ele>123.0</ele><time>2026-04-22T15:56:55.594Z</time></trkpt><trkpt lat="43.4384267" lon="13.4938317"><ele>123.0</ele><time>2026-04-22T15:56:56.594Z</time></trkpt><trkpt lat="43.4384967" lon="13.4939667"><ele>122.5</ele><time>2026-04-22T15:56:57.594Z</time></trkpt><trkpt lat="43.4385767" lon="13.4941183"><ele>122.0</ele><time>2026-04-22T15:56:58.595Z</time></trkpt><trkpt lat="43.4386583" lon="13.494265"><ele>121.5</ele><time>2026-04-22T15:56:59.594Z</time></trkpt><trkpt lat="43.4387417" lon="13.494425"><ele>121.0</ele><time>2026-04-22T15:57:00.594Z</time></trkpt><trkpt lat="43.4388183" lon="13.4945717"><ele>120.0</ele><time>2026-04-22T15:57:01.594Z</time></trkpt><trkpt lat="43.4388933" lon="13.4947267"><ele>119.0</ele><time>2026-04-22T15:57:02.594Z</time></trkpt><trkpt lat="43.4389667" lon="13.4948717"><ele>118.0</ele><time>2026-04-22T15:57:03.594Z</time></trkpt><trkpt lat="43.43904" lon="13.49501"><ele>117.0</ele><time>2026-04-22T15:57:04.595Z</time></trkpt><trkpt lat="43.4391067" lon="13.4951617"><ele>117.0</ele><time>2026-04-22T15:57:05.594Z</time></trkpt><trkpt lat="43.439185" lon="13.4953033"><ele>117.0</ele><time>2026-04-22T15:57:06.594Z</time></trkpt><trkpt lat="43.4392683" lon="13.4954333"><ele>117.0</ele><time>2026-04-22T15:57:07.595Z</time></trkpt><trkpt lat="43.4393583" lon="13.495565"><ele>117.0</ele><time>2026-04-22T15:57:08.594Z</time></trkpt><trkpt lat="43.43945" lon="13.4956917"><ele>116.25</ele><time>2026-04-22T15:57:09.594Z</time></trkpt><trkpt lat="43.4395367" lon="13.495825"><ele>115.5</ele><time>2026-04-22T15:57:10.595Z</time></trkpt><trkpt lat="43.4396283" lon="13.49596"><ele>114.75</ele><time>2026-04-22T15:57:11.594Z</time></trkpt><trkpt lat="43.43972" lon="13.4960917"><ele>114.0</ele><time>2026-04-22T15:57:12.594Z</time></trkpt><trkpt lat="43.43981" lon="13.4962167"><ele>113.75</ele><time>2026-04-22T15:57:13.594Z</time></trkpt><trkpt lat="43.4398883" lon="13.49634"><ele>113.5</ele><time>2026-04-22T15:57:14.594Z</time></trkpt><trkpt lat="43.439965" lon="13.4964667"><ele>113.25</ele><time>2026-04-22T15:57:15.594Z</time></trkpt><trkpt lat="43.4400367" lon="13.4965917"><ele>113.0</ele><time>2026-04-22T15:57:16.594Z</time></trkpt><trkpt lat="43.440105" lon="13.49671"><ele>113.0</ele><time>2026-04-22T15:57:17.594Z</time></trkpt><trkpt lat="43.440165" lon="13.49683"><ele>113.00000000000001</ele><time>2026-04-22T15:57:18.594Z</time></trkpt><trkpt lat="43.4402183" lon="13.4969667"><ele>113.00000000000001</ele><time>2026-04-22T15:57:19.594Z</time></trkpt><trkpt lat="43.4402567" lon="13.4971033"><ele>113.0</ele><time>2026-04-22T15:57:20.594Z</time></trkpt><trkpt lat="43.4402967" lon="13.4972467"><ele>113.0</ele><time>2026-04-22T15:57:21.594Z</time></trkpt><trkpt lat="43.4403233" lon="13.4973967"><ele>112.5</ele><time>2026-04-22T15:57:22.594Z</time></trkpt><trkpt lat="43.4403567" lon="13.4975567"><ele>112.0</ele><time>2026-04-22T15:57:23.594Z</time></trkpt><trkpt lat="43.4403833" lon="13.4977183"><ele>111.5</ele><time>2026-04-22T15:57:24.594Z</time></trkpt><trkpt lat="43.440415" lon="13.49788"><ele>111.0</ele><time>2026-04-22T15:57:25.594Z</time></trkpt><trkpt lat="43.4404467" lon="13.4980517"><ele>108.0</ele><time>2026-04-22T15:57:26.594Z</time></trkpt><trkpt lat="43.4404683" lon="13.4982283"><ele>105.0</ele><time>2026-04-22T15:57:27.594Z</time></trkpt><trkpt lat="43.44048" lon="13.4984033"><ele>102.0</ele><time>2026-04-22T15:57:28.594Z</time></trkpt><trkpt lat="43.4404933" lon="13.4985717"><ele>99.0</ele><time>2026-04-22T15:57:29.595Z</time></trkpt><trkpt lat="43.4405" lon="13.4987367"><ele>98.5</ele><time>2026-04-22T15:57:30.594Z</time></trkpt><trkpt lat="43.44051" lon="13.4988983"><ele>98.0</ele><time>2026-04-22T15:57:31.594Z</time></trkpt><trkpt lat="43.440515" lon="13.4990533"><ele>97.5</ele><time>2026-04-22T15:57:32.594Z</time></trkpt><trkpt lat="43.440515" lon="13.4992083"><ele>97.0</ele><time>2026-04-22T15:57:33.594Z</time></trkpt><trkpt lat="43.4405133" lon="13.4993733"><ele>97.0</ele><time>2026-04-22T15:57:34.594Z</time></trkpt><trkpt lat="43.4405083" lon="13.4995467"><ele>97.0</ele><time>2026-04-22T15:57:35.594Z</time></trkpt><trkpt lat="43.4404917" lon="13.4997083"><ele>97.0</ele><time>2026-04-22T15:57:36.594Z</time></trkpt><trkpt lat="43.44047" lon="13.4998817"><ele>97.0</ele><time>2026-04-22T15:57:37.594Z</time></trkpt><trkpt lat="43.4404483" lon="13.500055"><ele>96.25</ele><time>2026-04-22T15:57:38.595Z</time></trkpt><trkpt lat="43.4404267" lon="13.5002333"><ele>95.5</ele><time>2026-04-22T15:57:39.594Z</time></trkpt><trkpt lat="43.4404083" lon="13.50041"><ele>94.75</ele><time>2026-04-22T15:57:40.594Z</time></trkpt><trkpt lat="43.440385" lon="13.5005817"><ele>94.0</ele><time>2026-04-22T15:57:41.594Z</time></trkpt><trkpt lat="43.4403533" lon="13.5007533"><ele>93.5</ele><time>2026-04-22T15:57:42.594Z</time></trkpt><trkpt lat="43.4403333" lon="13.5009167"><ele>93.0</ele><time>2026-04-22T15:57:43.594Z</time></trkpt><trkpt lat="43.4403117" lon="13.50108"><ele>92.5</ele><time>2026-04-22T15:57:44.595Z</time></trkpt><trkpt lat="43.44029" lon="13.50125"><ele>92.0</ele><time>2026-04-22T15:57:45.594Z</time></trkpt><trkpt lat="43.4402783" lon="13.5014233"><ele>91.75</ele><time>2026-04-22T15:57:46.594Z</time></trkpt><trkpt lat="43.4402683" lon="13.5016033"><ele>91.5</ele><time>2026-04-22T15:57:47.594Z</time></trkpt><trkpt lat="43.4402567" lon="13.5017883"><ele>91.25</ele><time>2026-04-22T15:57:48.594Z</time></trkpt><trkpt lat="43.4402433" lon="13.50197"><ele>91.0</ele><time>2026-04-22T15:57:49.594Z</time></trkpt><trkpt lat="43.4402183" lon="13.5021333"><ele>90.75</ele><time>2026-04-22T15:57:50.594Z</time></trkpt><trkpt lat="43.4402" lon="13.5023"><ele>90.5</ele><time>2026-04-22T15:57:51.594Z</time></trkpt><trkpt lat="43.4401717" lon="13.50246"><ele>90.25</ele><time>2026-04-22T15:57:52.594Z</time></trkpt><trkpt lat="43.44014" lon="13.5026167"><ele>90.0</ele><time>2026-04-22T15:57:53.595Z</time></trkpt><trkpt lat="43.440105" lon="13.502775"><ele>88.75</ele><time>2026-04-22T15:57:54.594Z</time></trkpt><trkpt lat="43.44006" lon="13.502945"><ele>87.5</ele><time>2026-04-22T15:57:55.594Z</time></trkpt><trkpt lat="43.4400217" lon="13.5031133"><ele>86.25</ele><time>2026-04-22T15:57:56.595Z</time></trkpt><trkpt lat="43.43999" lon="13.50328"><ele>85.0</ele><time>2026-04-22T15:57:57.595Z</time></trkpt><trkpt lat="43.439955" lon="13.503435"><ele>85.0</ele><time>2026-04-22T15:57:58.594Z</time></trkpt><trkpt lat="43.439915" lon="13.50358"><ele>85.0</ele><time>2026-04-22T15:57:59.594Z</time></trkpt><trkpt lat="43.4398917" lon="13.5037283"><ele>85.0</ele><time>2026-04-22T15:58:00.594Z</time></trkpt><trkpt lat="43.4398517" lon="13.5038567"><ele>85.0</ele><time>2026-04-22T15:58:01.595Z</time></trkpt><trkpt lat="43.4398117" lon="13.504"><ele>85.0</ele><time>2026-04-22T15:58:02.594Z</time></trkpt><trkpt lat="43.4397667" lon="13.5041383"><ele>83.8</ele><time>2026-04-22T15:58:03.594Z</time></trkpt><trkpt lat="43.4397283" lon="13.5042633"><ele>82.6</ele><time>2026-04-22T15:58:04.594Z</time></trkpt><trkpt lat="43.4396983" lon="13.5043767"><ele>81.4</ele><time>2026-04-22T15:58:05.595Z</time></trkpt><trkpt lat="43.4396833" lon="13.5045017"><ele>80.2</ele><time>2026-04-22T15:58:06.594Z</time></trkpt><trkpt lat="43.439675" lon="13.5046417"><ele>79.0</ele><time>2026-04-22T15:58:07.594Z</time></trkpt><trkpt lat="43.4396767" lon="13.50479"><ele>78.2</ele><time>2026-04-22T15:58:08.594Z</time></trkpt><trkpt lat="43.439675" lon="13.5049317"><ele>77.4</ele><time>2026-04-22T15:58:09.594Z</time></trkpt><trkpt lat="43.4396783" lon="13.50508"><ele>76.6</ele><time>2026-04-22T15:58:10.594Z</time></trkpt><trkpt lat="43.4396867" lon="13.5052333"><ele>75.8</ele><time>2026-04-22T15:58:11.594Z</time></trkpt><trkpt lat="43.4397017" lon="13.505385"><ele>75.0</ele><time>2026-04-22T15:58:12.594Z</time></trkpt><trkpt lat="43.4397117" lon="13.50554"><ele>73.6</ele><time>2026-04-22T15:58:13.594Z</time></trkpt><trkpt lat="43.4397117" lon="13.50568"><ele>72.2</ele><time>2026-04-22T15:58:14.594Z</time></trkpt><trkpt lat="43.439725" lon="13.5058133"><ele>70.8</ele><time>2026-04-22T15:58:15.594Z</time></trkpt><trkpt lat="43.4397267" lon="13.50594"><ele>69.4</ele><time>2026-04-22T15:58:16.594Z</time></trkpt><trkpt lat="43.43973" lon="13.5060733"><ele>68.0</ele><time>2026-04-22T15:58:17.594Z</time></trkpt><trkpt lat="43.4397167" lon="13.5061967"><ele>66.66666666666667</ele><time>2026-04-22T15:58:18.594Z</time></trkpt><trkpt lat="43.4397083" lon="13.50631"><ele>65.33333333333334</ele><time>2026-04-22T15:58:19.594Z</time></trkpt><trkpt lat="43.4396983" lon="13.5064083"><ele>64.0</ele><time>2026-04-22T15:58:20.594Z</time></trkpt><trkpt lat="43.4396883" lon="13.5065"><ele>62.66666666666667</ele><time>2026-04-22T15:58:21.594Z</time></trkpt><trkpt lat="43.439685" lon="13.5065883"><ele>61.333333333333336</ele><time>2026-04-22T15:58:22.594Z</time></trkpt><trkpt lat="43.4396717" lon="13.5067383"><ele>60.0</ele><time>2026-04-22T15:58:24.594Z</time></trkpt><trkpt lat="43.439655" lon="13.5068583"><ele>60.0</ele><time>2026-04-22T15:58:26.595Z</time></trkpt><trkpt lat="43.4396433" lon="13.5069883"><ele>60.0</ele><time>2026-04-22T15:58:28.594Z</time></trkpt><trkpt lat="43.439625" lon="13.50714"><ele>60.0</ele><time>2026-04-22T15:58:30.595Z</time></trkpt><trkpt lat="43.439605" lon="13.5072333"><ele>60.0</ele><time>2026-04-22T15:58:31.594Z</time></trkpt><trkpt lat="43.439575" lon="13.50735"><ele>60.0</ele><time>2026-04-22T15:58:32.594Z</time></trkpt><trkpt lat="43.4395467" lon="13.5074767"><ele>60.8</ele><time>2026-04-22T15:58:33.594Z</time></trkpt><trkpt lat="43.4395183" lon="13.5075967"><ele>61.6</ele><time>2026-04-22T15:58:34.594Z</time></trkpt><trkpt lat="43.4395117" lon="13.5077183"><ele>62.400000000000006</ele><time>2026-04-22T15:58:35.594Z</time></trkpt><trkpt lat="43.4395017" lon="13.50786"><ele>63.2</ele><time>2026-04-22T15:58:36.595Z</time></trkpt><trkpt lat="43.4395017" lon="13.508015"><ele>64.0</ele><time>2026-04-22T15:58:37.595Z</time></trkpt><trkpt lat="43.4395017" lon="13.5081733"><ele>64.0</ele><time>2026-04-22T15:58:38.595Z</time></trkpt><trkpt lat="43.43949" lon="13.5083333"><ele>64.0</ele><time>2026-04-22T15:58:39.595Z</time></trkpt><trkpt lat="43.4394733" lon="13.5084867"><ele>64.0</ele><time>2026-04-22T15:58:40.594Z</time></trkpt><trkpt lat="43.4394433" lon="13.508645"><ele>64.0</ele><time>2026-04-22T15:58:41.594Z</time></trkpt><trkpt lat="43.4394033" lon="13.5088033"><ele>64.0</ele><time>2026-04-22T15:58:42.595Z</time></trkpt><trkpt lat="43.4393783" lon="13.5089467"><ele>64.0</ele><time>2026-04-22T15:58:43.594Z</time></trkpt><trkpt lat="43.4393567" lon="13.509095"><ele>64.0</ele><time>2026-04-22T15:58:44.594Z</time></trkpt><trkpt lat="43.4393283" lon="13.5092483"><ele>64.0</ele><time>2026-04-22T15:58:45.594Z</time></trkpt><trkpt lat="43.4393033" lon="13.5094117"><ele>63.0</ele><time>2026-04-22T15:58:46.594Z</time></trkpt><trkpt lat="43.43927" lon="13.509585"><ele>62.0</ele><time>2026-04-22T15:58:47.594Z</time></trkpt><trkpt lat="43.43923" lon="13.5097533"><ele>61.0</ele><time>2026-04-22T15:58:48.594Z</time></trkpt><trkpt lat="43.43921" lon="13.5099083"><ele>60.0</ele><time>2026-04-22T15:58:49.594Z</time></trkpt><trkpt lat="43.4391783" lon="13.5100717"><ele>60.0</ele><time>2026-04-22T15:58:50.595Z</time></trkpt><trkpt lat="43.4391417" lon="13.51024"><ele>60.0</ele><time>2026-04-22T15:58:51.594Z</time></trkpt><trkpt lat="43.4391117" lon="13.5104067"><ele>60.0</ele><time>2026-04-22T15:58:52.594Z</time></trkpt><trkpt lat="43.439085" lon="13.510585"><ele>60.0</ele><time>2026-04-22T15:58:53.594Z</time></trkpt><trkpt lat="43.4390517" lon="13.5107567"><ele>59.75</ele><time>2026-04-22T15:58:54.594Z</time></trkpt><trkpt lat="43.4390283" lon="13.510925"><ele>59.5</ele><time>2026-04-22T15:58:55.594Z</time></trkpt><trkpt lat="43.439" lon="13.5111067"><ele>59.25</ele><time>2026-04-22T15:58:56.594Z</time></trkpt><trkpt lat="43.4389717" lon="13.511285"><ele>59.0</ele><time>2026-04-22T15:58:57.594Z</time></trkpt><trkpt lat="43.4389433" lon="13.5114683"><ele>59.0</ele><time>2026-04-22T15:58:58.594Z</time></trkpt><trkpt lat="43.4389167" lon="13.5116483"><ele>59.0</ele><time>2026-04-22T15:58:59.594Z</time></trkpt><trkpt lat="43.438885" lon="13.5118217"><ele>59.0</ele><time>2026-04-22T15:59:00.594Z</time></trkpt><trkpt lat="43.43885" lon="13.5119867"><ele>59.0</ele><time>2026-04-22T15:59:01.594Z</time></trkpt><trkpt lat="43.438815" lon="13.5121533"><ele>59.75</ele><time>2026-04-22T15:59:02.594Z</time></trkpt><trkpt lat="43.438785" lon="13.5123167"><ele>60.5</ele><time>2026-04-22T15:59:03.594Z</time></trkpt><trkpt lat="43.4387433" lon="13.5124833"><ele>61.25</ele><time>2026-04-22T15:59:04.594Z</time></trkpt><trkpt lat="43.4387033" lon="13.5126517"><ele>62.0</ele><time>2026-04-22T15:59:05.594Z</time></trkpt><trkpt lat="43.438655" lon="13.5127967"><ele>62.25</ele><time>2026-04-22T15:59:06.594Z</time></trkpt><trkpt lat="43.4385967" lon="13.51295"><ele>62.5</ele><time>2026-04-22T15:59:07.594Z</time></trkpt><trkpt lat="43.4385383" lon="13.5131017"><ele>62.75</ele><time>2026-04-22T15:59:08.595Z</time></trkpt><trkpt lat="43.43848" lon="13.5132467"><ele>63.0</ele><time>2026-04-22T15:59:09.594Z</time></trkpt><trkpt lat="43.438415" lon="13.513395"><ele>63.0</ele><time>2026-04-22T15:59:10.594Z</time></trkpt><trkpt lat="43.4383633" lon="13.5135433"><ele>63.0</ele><time>2026-04-22T15:59:11.594Z</time></trkpt><trkpt lat="43.43831" lon="13.5137067"><ele>63.0</ele><time>2026-04-22T15:59:12.594Z</time></trkpt><trkpt lat="43.43827" lon="13.5138667"><ele>63.0</ele><time>2026-04-22T15:59:13.594Z</time></trkpt><trkpt lat="43.4382483" lon="13.5140133"><ele>61.5</ele><time>2026-04-22T15:59:14.594Z</time></trkpt><trkpt lat="43.4382217" lon="13.5141817"><ele>60.0</ele><time>2026-04-22T15:59:15.594Z</time></trkpt><trkpt lat="43.4381917" lon="13.5143417"><ele>58.5</ele><time>2026-04-22T15:59:16.595Z</time></trkpt><trkpt lat="43.4381617" lon="13.5144967"><ele>57.0</ele><time>2026-04-22T15:59:17.595Z</time></trkpt><trkpt lat="43.4381333" lon="13.5146583"><ele>55.2</ele><time>2026-04-22T15:59:18.594Z</time></trkpt><trkpt lat="43.4381033" lon="13.5148167"><ele>53.400000000000006</ele><time>2026-04-22T15:59:19.594Z</time></trkpt><trkpt lat="43.4380733" lon="13.5149733"><ele>51.599999999999994</ele><time>2026-04-22T15:59:20.594Z</time></trkpt><trkpt lat="43.43804" lon="13.5151133"><ele>49.8</ele><time>2026-04-22T15:59:21.594Z</time></trkpt><trkpt lat="43.43801" lon="13.51524"><ele>48.0</ele><time>2026-04-22T15:59:22.595Z</time></trkpt><trkpt lat="43.4379783" lon="13.5153617"><ele>46.666666666666664</ele><time>2026-04-22T15:59:23.594Z</time></trkpt><trkpt lat="43.4379533" lon="13.515465"><ele>45.333333333333336</ele><time>2026-04-22T15:59:24.594Z</time></trkpt><trkpt lat="43.4379333" lon="13.515565"><ele>44.0</ele><time>2026-04-22T15:59:25.594Z</time></trkpt><trkpt lat="43.4379233" lon="13.5156617"><ele>42.66666666666667</ele><time>2026-04-22T15:59:26.594Z</time></trkpt><trkpt lat="43.4379017" lon="13.5158083"><ele>41.333333333333336</ele><time>2026-04-22T15:59:28.594Z</time></trkpt><trkpt lat="43.43786" lon="13.5159117"><ele>40.0</ele><time>2026-04-22T15:59:30.594Z</time></trkpt><trkpt lat="43.4377833" lon="13.5159967"><ele>40.0</ele><time>2026-04-22T15:59:32.594Z</time></trkpt><trkpt lat="43.4377183" lon="13.5160183"><ele>40.0</ele><time>2026-04-22T15:59:33.594Z</time></trkpt><trkpt lat="43.4376483" lon="13.51604"><ele>40.0</ele><time>2026-04-22T15:59:34.594Z</time></trkpt><trkpt lat="43.43757" lon="13.5160667"><ele>40.0</ele><time>2026-04-22T15:59:35.594Z</time></trkpt><trkpt lat="43.43749" lon="13.5161033"><ele>40.0</ele><time>2026-04-22T15:59:36.595Z</time></trkpt><trkpt lat="43.4374033" lon="13.5161483"><ele>40.0</ele><time>2026-04-22T15:59:37.594Z</time></trkpt><trkpt lat="43.4373083" lon="13.5162067"><ele>39.2</ele><time>2026-04-22T15:59:38.594Z</time></trkpt><trkpt lat="43.4372117" lon="13.51627"><ele>38.4</ele><time>2026-04-22T15:59:39.594Z</time></trkpt><trkpt lat="43.4371167" lon="13.516325"><ele>37.6</ele><time>2026-04-22T15:59:40.595Z</time></trkpt><trkpt lat="43.43703" lon="13.5163917"><ele>36.8</ele><time>2026-04-22T15:59:41.594Z</time></trkpt><trkpt lat="43.4369533" lon="13.5164383"><ele>36.0</ele><time>2026-04-22T15:59:42.594Z</time></trkpt><trkpt lat="43.43688" lon="13.5164833"><ele>35.85714285714286</ele><time>2026-04-22T15:59:43.594Z</time></trkpt><trkpt lat="43.4368133" lon="13.51654"><ele>35.714285714285715</ele><time>2026-04-22T15:59:44.594Z</time></trkpt><trkpt lat="43.4367567" lon="13.5165917"><ele>35.57142857142857</ele><time>2026-04-22T15:59:45.594Z</time></trkpt><trkpt lat="43.436715" lon="13.51666"><ele>35.42857142857143</ele><time>2026-04-22T15:59:46.594Z</time></trkpt><trkpt lat="43.4366883" lon="13.5167467"><ele>35.285714285714285</ele><time>2026-04-22T15:59:47.594Z</time></trkpt><trkpt lat="43.4366783" lon="13.51685"><ele>35.142857142857146</ele><time>2026-04-22T15:59:48.594Z</time></trkpt><trkpt lat="43.4367017" lon="13.5169567"><ele>35.0</ele><time>2026-04-22T15:59:49.594Z</time></trkpt><trkpt lat="43.4367467" lon="13.5170883"><ele>34.5</ele><time>2026-04-22T15:59:50.594Z</time></trkpt><trkpt lat="43.4368017" lon="13.5172483"><ele>34.0</ele><time>2026-04-22T15:59:51.594Z</time></trkpt><trkpt lat="43.436855" lon="13.51742"><ele>33.5</ele><time>2026-04-22T15:59:52.594Z</time></trkpt><trkpt lat="43.43691" lon="13.5175917"><ele>33.0</ele><time>2026-04-22T15:59:53.594Z</time></trkpt><trkpt lat="43.43697" lon="13.5177567"><ele>33.0</ele><time>2026-04-22T15:59:54.594Z</time></trkpt><trkpt lat="43.437015" lon="13.5179217"><ele>33.0</ele><time>2026-04-22T15:59:55.594Z</time></trkpt><trkpt lat="43.4370567" lon="13.518075"><ele>33.0</ele><time>2026-04-22T15:59:56.594Z</time></trkpt><trkpt lat="43.4371" lon="13.518235"><ele>33.0</ele><time>2026-04-22T15:59:57.594Z</time></trkpt><trkpt lat="43.4371333" lon="13.51839"><ele>33.5</ele><time>2026-04-22T15:59:58.595Z</time></trkpt><trkpt lat="43.4371633" lon="13.5185417"><ele>34.0</ele><time>2026-04-22T15:59:59.594Z</time></trkpt><trkpt lat="43.4371717" lon="13.5187"><ele>34.5</ele><time>2026-04-22T16:00:00.594Z</time></trkpt><trkpt lat="43.4371667" lon="13.5188617"><ele>35.0</ele><time>2026-04-22T16:00:01.595Z</time></trkpt><trkpt lat="43.4371417" lon="13.51902"><ele>34.75</ele><time>2026-04-22T16:00:02.594Z</time></trkpt><trkpt lat="43.43711" lon="13.5191767"><ele>34.5</ele><time>2026-04-22T16:00:03.594Z</time></trkpt><trkpt lat="43.4370783" lon="13.519345"><ele>34.25</ele><time>2026-04-22T16:00:04.594Z</time></trkpt><trkpt lat="43.4370433" lon="13.5195083"><ele>34.0</ele><time>2026-04-22T16:00:05.594Z</time></trkpt><trkpt lat="43.437015" lon="13.5196717"><ele>34.0</ele><time>2026-04-22T16:00:06.594Z</time></trkpt><trkpt lat="43.4369783" lon="13.5198333"><ele>34.0</ele><time>2026-04-22T16:00:07.594Z</time></trkpt><trkpt lat="43.43693" lon="13.5199883"><ele>34.0</ele><time>2026-04-22T16:00:08.594Z</time></trkpt><trkpt lat="43.43688" lon="13.5201383"><ele>34.0</ele><time>2026-04-22T16:00:09.594Z</time></trkpt><trkpt lat="43.4368267" lon="13.5202767"><ele>34.0</ele><time>2026-04-22T16:00:10.594Z</time></trkpt><trkpt lat="43.436775" lon="13.52042"><ele>34.0</ele><time>2026-04-22T16:00:11.594Z</time></trkpt><trkpt lat="43.43672" lon="13.5205617"><ele>34.0</ele><time>2026-04-22T16:00:12.594Z</time></trkpt><trkpt lat="43.436685" lon="13.52069"><ele>34.0</ele><time>2026-04-22T16:00:13.594Z</time></trkpt><trkpt lat="43.4366733" lon="13.520845"><ele>34.0</ele><time>2026-04-22T16:00:14.594Z</time></trkpt><trkpt lat="43.4366783" lon="13.5210033"><ele>34.0</ele><time>2026-04-22T16:00:15.594Z</time></trkpt><trkpt lat="43.436695" lon="13.521165"><ele>34.0</ele><time>2026-04-22T16:00:16.594Z</time></trkpt><trkpt lat="43.4367283" lon="13.5213283"><ele>34.0</ele><time>2026-04-22T16:00:17.594Z</time></trkpt><trkpt lat="43.4367833" lon="13.52149"><ele>34.0</ele><time>2026-04-22T16:00:18.594Z</time></trkpt><trkpt lat="43.43684" lon="13.5216467"><ele>33.75</ele><time>2026-04-22T16:00:19.594Z</time></trkpt><trkpt lat="43.436905" lon="13.5218067"><ele>33.5</ele><time>2026-04-22T16:00:20.594Z</time></trkpt><trkpt lat="43.43697" lon="13.521965"><ele>33.25</ele><time>2026-04-22T16:00:21.594Z</time></trkpt><trkpt lat="43.43703" lon="13.5221167"><ele>33.0</ele><time>2026-04-22T16:00:22.594Z</time></trkpt><trkpt lat="43.4370917" lon="13.5222783"><ele>32.75</ele><time>2026-04-22T16:00:23.595Z</time></trkpt><trkpt lat="43.437155" lon="13.5224433"><ele>32.5</ele><time>2026-04-22T16:00:24.594Z</time></trkpt><trkpt lat="43.4372167" lon="13.5226117"><ele>32.25</ele><time>2026-04-22T16:00:25.595Z</time></trkpt><trkpt lat="43.43727" lon="13.5227783"><ele>32.0</ele><time>2026-04-22T16:00:26.594Z</time></trkpt><trkpt lat="43.43732" lon="13.5229433"><ele>32.0</ele><time>2026-04-22T16:00:27.595Z</time></trkpt><trkpt lat="43.43737" lon="13.5231067"><ele>32.0</ele><time>2026-04-22T16:00:28.594Z</time></trkpt><trkpt lat="43.4374217" lon="13.5232733"><ele>32.0</ele><time>2026-04-22T16:00:29.594Z</time></trkpt><trkpt lat="43.4374733" lon="13.5234417"><ele>32.0</ele><time>2026-04-22T16:00:30.594Z</time></trkpt><trkpt lat="43.4375267" lon="13.5236133"><ele>32.0</ele><time>2026-04-22T16:00:31.594Z</time></trkpt><trkpt lat="43.4375767" lon="13.5237817"><ele>32.0</ele><time>2026-04-22T16:00:32.594Z</time></trkpt><trkpt lat="43.437635" lon="13.52394"><ele>32.0</ele><time>2026-04-22T16:00:33.595Z</time></trkpt><trkpt lat="43.43768" lon="13.5240933"><ele>32.0</ele><time>2026-04-22T16:00:34.594Z</time></trkpt><trkpt lat="43.4377267" lon="13.5242383"><ele>32.0</ele><time>2026-04-22T16:00:35.594Z</time></trkpt><trkpt lat="43.4377717" lon="13.52437"><ele>32.0</ele><time>2026-04-22T16:00:36.594Z</time></trkpt><trkpt lat="43.43781" lon="13.5244967"><ele>32.0</ele><time>2026-04-22T16:00:37.594Z</time></trkpt><trkpt lat="43.4378417" lon="13.5246083"><ele>32.0</ele><time>2026-04-22T16:00:38.595Z</time></trkpt><trkpt lat="43.4378683" lon="13.5247083"><ele>32.0</ele><time>2026-04-22T16:00:39.594Z</time></trkpt><trkpt lat="43.4378967" lon="13.5248733"><ele>31.8</ele><time>2026-04-22T16:00:41.594Z</time></trkpt><trkpt lat="43.4378633" lon="13.52502"><ele>31.6</ele><time>2026-04-22T16:00:43.595Z</time></trkpt><trkpt lat="43.4378117" lon="13.5250783"><ele>31.400000000000002</ele><time>2026-04-22T16:00:44.594Z</time></trkpt><trkpt lat="43.43773" lon="13.5251183"><ele>31.200000000000003</ele><time>2026-04-22T16:00:45.594Z</time></trkpt><trkpt lat="43.4376117" lon="13.52518"><ele>31.0</ele><time>2026-04-22T16:00:46.594Z</time></trkpt><trkpt lat="43.4374783" lon="13.5252433"><ele>31.0</ele><time>2026-04-22T16:00:47.595Z</time></trkpt><trkpt lat="43.43734" lon="13.5253167"><ele>31.0</ele><time>2026-04-22T16:00:48.594Z</time></trkpt><trkpt lat="43.4371767" lon="13.5253967"><ele>31.0</ele><time>2026-04-22T16:00:49.594Z</time></trkpt><trkpt lat="43.4369967" lon="13.52549"><ele>31.0</ele><time>2026-04-22T16:00:50.594Z</time></trkpt><trkpt lat="43.4368017" lon="13.525595"><ele>31.0</ele><time>2026-04-22T16:00:51.594Z</time></trkpt><trkpt lat="43.4366017" lon="13.5256933"><ele>31.0</ele><time>2026-04-22T16:00:52.594Z</time></trkpt><trkpt lat="43.4364217" lon="13.5257933"><ele>31.0</ele><time>2026-04-22T16:00:53.594Z</time></trkpt><trkpt lat="43.4362667" lon="13.5258717"><ele>31.0</ele><time>2026-04-22T16:00:54.594Z</time></trkpt><trkpt lat="43.4361233" lon="13.52593"><ele>31.0</ele><time>2026-04-22T16:00:55.594Z</time></trkpt><trkpt lat="43.435995" lon="13.5259583"><ele>31.0</ele><time>2026-04-22T16:00:56.594Z</time></trkpt><trkpt lat="43.435865" lon="13.5259767"><ele>31.0</ele><time>2026-04-22T16:00:57.594Z</time></trkpt><trkpt lat="43.4357383" lon="13.52598"><ele>31.0</ele><time>2026-04-22T16:00:58.594Z</time></trkpt><trkpt lat="43.4356017" lon="13.52598"><ele>31.0</ele><time>2026-04-22T16:00:59.594Z</time></trkpt><trkpt lat="43.43546" lon="13.5259783"><ele>31.0</ele><time>2026-04-22T16:01:00.594Z</time></trkpt><trkpt lat="43.4353233" lon="13.5259833"><ele>31.25</ele><time>2026-04-22T16:01:01.594Z</time></trkpt><trkpt lat="43.4351933" lon="13.5259883"><ele>31.5</ele><time>2026-04-22T16:01:02.594Z</time></trkpt><trkpt lat="43.4350733" lon="13.5259917"><ele>31.75</ele><time>2026-04-22T16:01:03.595Z</time></trkpt><trkpt lat="43.434965" lon="13.5260017"><ele>32.0</ele><time>2026-04-22T16:01:04.595Z</time></trkpt><trkpt lat="43.4348667" lon="13.5260017"><ele>32.0</ele><time>2026-04-22T16:01:05.595Z</time></trkpt><trkpt lat="43.4347817" lon="13.5260117"><ele>32.0</ele><time>2026-04-22T16:01:06.594Z</time></trkpt><trkpt lat="43.4347167" lon="13.52604"><ele>32.0</ele><time>2026-04-22T16:01:07.594Z</time></trkpt><trkpt lat="43.4346283" lon="13.5261717"><ele>32.0</ele><time>2026-04-22T16:01:09.594Z</time></trkpt><trkpt lat="43.4345983" lon="13.526275"><ele>32.0</ele><time>2026-04-22T16:01:10.594Z</time></trkpt><trkpt lat="43.434575" lon="13.5264133"><ele>32.5</ele><time>2026-04-22T16:01:11.594Z</time></trkpt><trkpt lat="43.4345533" lon="13.5265817"><ele>33.0</ele><time>2026-04-22T16:01:12.594Z</time></trkpt><trkpt lat="43.4345417" lon="13.5267633"><ele>33.5</ele><time>2026-04-22T16:01:13.594Z</time></trkpt><trkpt lat="43.4345317" lon="13.5269433"><ele>34.0</ele><time>2026-04-22T16:01:14.594Z</time></trkpt><trkpt lat="43.4345217" lon="13.5271283"><ele>34.0</ele><time>2026-04-22T16:01:15.595Z</time></trkpt><trkpt lat="43.4345183" lon="13.5273167"><ele>34.0</ele><time>2026-04-22T16:01:16.594Z</time></trkpt><trkpt lat="43.4345333" lon="13.52752"><ele>34.0</ele><time>2026-04-22T16:01:17.594Z</time></trkpt><trkpt lat="43.434555" lon="13.5277117"><ele>34.0</ele><time>2026-04-22T16:01:18.594Z</time></trkpt><trkpt lat="43.4345717" lon="13.5278983"><ele>34.25</ele><time>2026-04-22T16:01:19.594Z</time></trkpt><trkpt lat="43.4345983" lon="13.52807"><ele>34.5</ele><time>2026-04-22T16:01:20.594Z</time></trkpt><trkpt lat="43.4346383" lon="13.5282467"><ele>34.75</ele><time>2026-04-22T16:01:21.594Z</time></trkpt><trkpt lat="43.4346683" lon="13.5284233"><ele>35.0</ele><time>2026-04-22T16:01:22.594Z</time></trkpt><trkpt lat="43.4347" lon="13.528585"><ele>34.25</ele><time>2026-04-22T16:01:23.594Z</time></trkpt><trkpt lat="43.4347183" lon="13.5287433"><ele>33.5</ele><time>2026-04-22T16:01:24.594Z</time></trkpt><trkpt lat="43.434715" lon="13.5289067"><ele>32.75</ele><time>2026-04-22T16:01:25.594Z</time></trkpt><trkpt lat="43.434695" lon="13.5290667"><ele>32.0</ele><time>2026-04-22T16:01:26.595Z</time></trkpt><trkpt lat="43.4346533" lon="13.5292517"><ele>33.0</ele><time>2026-04-22T16:01:27.594Z</time></trkpt><trkpt lat="43.4345967" lon="13.52945"><ele>34.0</ele><time>2026-04-22T16:01:28.594Z</time></trkpt><trkpt lat="43.4345333" lon="13.5296633"><ele>35.0</ele><time>2026-04-22T16:01:29.594Z</time></trkpt><trkpt lat="43.4344733" lon="13.529875"><ele>35.0</ele><time>2026-04-22T16:01:30.594Z</time></trkpt><trkpt lat="43.4344317" lon="13.5300817"><ele>35.0</ele><time>2026-04-22T16:01:31.594Z</time></trkpt><trkpt lat="43.4344083" lon="13.53028"><ele>35.0</ele><time>2026-04-22T16:01:32.594Z</time></trkpt><trkpt lat="43.4343867" lon="13.53047"><ele>35.0</ele><time>2026-04-22T16:01:33.594Z</time></trkpt><trkpt lat="43.4343633" lon="13.5306483"><ele>34.5</ele><time>2026-04-22T16:01:34.594Z</time></trkpt><trkpt lat="43.4343383" lon="13.53083"><ele>34.0</ele><time>2026-04-22T16:01:35.594Z</time></trkpt><trkpt lat="43.4343083" lon="13.5310167"><ele>33.5</ele><time>2026-04-22T16:01:36.594Z</time></trkpt><trkpt lat="43.4342633" lon="13.531205"><ele>33.0</ele><time>2026-04-22T16:01:37.594Z</time></trkpt><trkpt lat="43.4342017" lon="13.5313917"><ele>32.333333333333336</ele><time>2026-04-22T16:01:38.594Z</time></trkpt><trkpt lat="43.4341283" lon="13.53158"><ele>31.666666666666668</ele><time>2026-04-22T16:01:39.595Z</time></trkpt><trkpt lat="43.4340467" lon="13.531765"><ele>31.0</ele><time>2026-04-22T16:01:40.595Z</time></trkpt><trkpt lat="43.43397" lon="13.5319383"><ele>31.0</ele><time>2026-04-22T16:01:41.594Z</time></trkpt><trkpt lat="43.4339017" lon="13.53211"><ele>31.0</ele><time>2026-04-22T16:01:42.594Z</time></trkpt><trkpt lat="43.433845" lon="13.5322917"><ele>31.0</ele><time>2026-04-22T16:01:43.594Z</time></trkpt><trkpt lat="43.4337883" lon="13.532495"><ele>31.0</ele><time>2026-04-22T16:01:44.594Z</time></trkpt><trkpt lat="43.43372" lon="13.5326883"><ele>31.0</ele><time>2026-04-22T16:01:45.594Z</time></trkpt><trkpt lat="43.433635" lon="13.5328883"><ele>31.0</ele><time>2026-04-22T16:01:46.594Z</time></trkpt><trkpt lat="43.4335383" lon="13.5330817"><ele>31.0</ele><time>2026-04-22T16:01:47.594Z</time></trkpt><trkpt lat="43.4334317" lon="13.5332717"><ele>30.666666666666668</ele><time>2026-04-22T16:01:48.594Z</time></trkpt><trkpt lat="43.4333167" lon="13.533465"><ele>30.333333333333336</ele><time>2026-04-22T16:01:49.594Z</time></trkpt><trkpt lat="43.4331933" lon="13.5336583"><ele>30.0</ele><time>2026-04-22T16:01:50.595Z</time></trkpt><trkpt lat="43.4330767" lon="13.53385"><ele>30.666666666666664</ele><time>2026-04-22T16:01:51.594Z</time></trkpt><trkpt lat="43.432965" lon="13.5340433"><ele>31.333333333333332</ele><time>2026-04-22T16:01:52.594Z</time></trkpt><trkpt lat="43.4328533" lon="13.5342133"><ele>32.0</ele><time>2026-04-22T16:01:53.594Z</time></trkpt><trkpt lat="43.4327467" lon="13.5343783"><ele>32.0</ele><time>2026-04-22T16:01:54.594Z</time></trkpt><trkpt lat="43.4326533" lon="13.53453"><ele>32.0</ele><time>2026-04-22T16:01:55.594Z</time></trkpt><trkpt lat="43.4325617" lon="13.5346717"><ele>32.0</ele><time>2026-04-22T16:01:56.594Z</time></trkpt><trkpt lat="43.4324917" lon="13.5348183"><ele>32.0</ele><time>2026-04-22T16:01:57.594Z</time></trkpt><trkpt lat="43.432425" lon="13.5349767"><ele>31.25</ele><time>2026-04-22T16:01:58.595Z</time></trkpt><trkpt lat="43.4323767" lon="13.535145"><ele>30.5</ele><time>2026-04-22T16:01:59.595Z</time></trkpt><trkpt lat="43.4323333" lon="13.5353133"><ele>29.75</ele><time>2026-04-22T16:02:00.594Z</time></trkpt><trkpt lat="43.43229" lon="13.5354733"><ele>29.0</ele><time>2026-04-22T16:02:01.594Z</time></trkpt><trkpt lat="43.432255" lon="13.5356167"><ele>29.0</ele><time>2026-04-22T16:02:02.595Z</time></trkpt><trkpt lat="43.4322217" lon="13.53576"><ele>29.0</ele><time>2026-04-22T16:02:03.594Z</time></trkpt><trkpt lat="43.432195" lon="13.5358933"><ele>29.0</ele><time>2026-04-22T16:02:04.594Z</time></trkpt><trkpt lat="43.432165" lon="13.5360217"><ele>29.0</ele><time>2026-04-22T16:02:05.594Z</time></trkpt><trkpt lat="43.4321417" lon="13.53613"><ele>29.0</ele><time>2026-04-22T16:02:06.594Z</time></trkpt><trkpt lat="43.4321217" lon="13.5362167"><ele>29.666666666666664</ele><time>2026-04-22T16:02:07.594Z</time></trkpt><trkpt lat="43.432095" lon="13.536325"><ele>30.333333333333332</ele><time>2026-04-22T16:02:09.594Z</time></trkpt><trkpt lat="43.4320417" lon="13.536415"><ele>31.0</ele><time>2026-04-22T16:02:12.594Z</time></trkpt><trkpt lat="43.43194" lon="13.5364383"><ele>31.666666666666664</ele><time>2026-04-22T16:02:14.594Z</time></trkpt><trkpt lat="43.43187" lon="13.5364333"><ele>32.333333333333336</ele><time>2026-04-22T16:02:15.594Z</time></trkpt><trkpt lat="43.431795" lon="13.536435"><ele>33.0</ele><time>2026-04-22T16:02:16.594Z</time></trkpt><trkpt lat="43.431715" lon="13.536435"><ele>33.0</ele><time>2026-04-22T16:02:17.595Z</time></trkpt><trkpt lat="43.4316167" lon="13.5364333"><ele>33.0</ele><time>2026-04-22T16:02:18.594Z</time></trkpt><trkpt lat="43.4315083" lon="13.5364367"><ele>33.0</ele><time>2026-04-22T16:02:19.594Z</time></trkpt><trkpt lat="43.4314017" lon="13.5364433"><ele>33.0</ele><time>2026-04-22T16:02:20.594Z</time></trkpt><trkpt lat="43.4312867" lon="13.5364533"><ele>33.0</ele><time>2026-04-22T16:02:21.594Z</time></trkpt><trkpt lat="43.4311667" lon="13.536455"><ele>35.5</ele><time>2026-04-22T16:02:22.595Z</time></trkpt><trkpt lat="43.4310333" lon="13.5364583"><ele>38.0</ele><time>2026-04-22T16:02:23.594Z</time></trkpt><trkpt lat="43.4309" lon="13.5364533"><ele>40.5</ele><time>2026-04-22T16:02:24.595Z</time></trkpt><trkpt lat="43.430775" lon="13.53645"><ele>43.0</ele><time>2026-04-22T16:02:25.594Z</time></trkpt><trkpt lat="43.4306467" lon="13.536435"><ele>43.0</ele><time>2026-04-22T16:02:26.594Z</time></trkpt><trkpt lat="43.4305017" lon="13.5364217"><ele>43.0</ele><time>2026-04-22T16:02:27.594Z</time></trkpt><trkpt lat="43.4303333" lon="13.536395"><ele>43.0</ele><time>2026-04-22T16:02:28.595Z</time></trkpt><trkpt lat="43.430165" lon="13.5363633"><ele>42.0</ele><time>2026-04-22T16:02:29.595Z</time></trkpt><trkpt lat="43.4299983" lon="13.536345"><ele>41.0</ele><time>2026-04-22T16:02:30.594Z</time></trkpt><trkpt lat="43.4298367" lon="13.5363217"><ele>40.0</ele><time>2026-04-22T16:02:31.594Z</time></trkpt><trkpt lat="43.4296717" lon="13.53631"><ele>39.0</ele><time>2026-04-22T16:02:32.594Z</time></trkpt><trkpt lat="43.4295217" lon="13.5362933"><ele>38.0</ele><time>2026-04-22T16:02:33.594Z</time></trkpt><trkpt lat="43.4293717" lon="13.536295"><ele>37.0</ele><time>2026-04-22T16:02:34.594Z</time></trkpt><trkpt lat="43.4292217" lon="13.5363483"><ele>37.0</ele><time>2026-04-22T16:02:35.594Z</time></trkpt><trkpt lat="43.42908" lon="13.53644"><ele>37.0</ele><time>2026-04-22T16:02:36.594Z</time></trkpt><trkpt lat="43.4289367" lon="13.536555"><ele>37.0</ele><time>2026-04-22T16:02:37.594Z</time></trkpt><trkpt lat="43.4287883" lon="13.5366667"><ele>37.0</ele><time>2026-04-22T16:02:38.594Z</time></trkpt><trkpt lat="43.4286283" lon="13.5367933"><ele>37.0</ele><time>2026-04-22T16:02:39.594Z</time></trkpt><trkpt lat="43.428465" lon="13.53693"><ele>37.0</ele><time>2026-04-22T16:02:40.594Z</time></trkpt><trkpt lat="43.4282933" lon="13.537065"><ele>37.0</ele><time>2026-04-22T16:02:41.594Z</time></trkpt><trkpt lat="43.4281217" lon="13.5372"><ele>37.0</ele><time>2026-04-22T16:02:42.595Z</time></trkpt><trkpt lat="43.427955" lon="13.5373383"><ele>37.0</ele><time>2026-04-22T16:02:43.595Z</time></trkpt><trkpt lat="43.427775" lon="13.53747"><ele>38.0</ele><time>2026-04-22T16:02:44.594Z</time></trkpt><trkpt lat="43.427595" lon="13.537605"><ele>39.0</ele><time>2026-04-22T16:02:45.594Z</time></trkpt><trkpt lat="43.4274083" lon="13.5377383"><ele>40.0</ele><time>2026-04-22T16:02:46.594Z</time></trkpt><trkpt lat="43.4272433" lon="13.5378833"><ele>38.66666666666667</ele><time>2026-04-22T16:02:47.594Z</time></trkpt><trkpt lat="43.4270783" lon="13.5380117"><ele>37.333333333333336</ele><time>2026-04-22T16:02:48.594Z</time></trkpt><trkpt lat="43.4269167" lon="13.5381433"><ele>36.0</ele><time>2026-04-22T16:02:49.594Z</time></trkpt><trkpt lat="43.42676" lon="13.5382817"><ele>36.0</ele><time>2026-04-22T16:02:50.594Z</time></trkpt><trkpt lat="43.426605" lon="13.538435"><ele>36.0</ele><time>2026-04-22T16:02:51.595Z</time></trkpt><trkpt lat="43.4264483" lon="13.5385933"><ele>36.0</ele><time>2026-04-22T16:02:52.594Z</time></trkpt><trkpt lat="43.4262983" lon="13.5387467"><ele>34.333333333333336</ele><time>2026-04-22T16:02:53.595Z</time></trkpt><trkpt lat="43.4261483" lon="13.5389217"><ele>32.66666666666667</ele><time>2026-04-22T16:02:54.595Z</time></trkpt><trkpt lat="43.4259983" lon="13.5390967"><ele>31.0</ele><time>2026-04-22T16:02:55.594Z</time></trkpt><trkpt lat="43.4258433" lon="13.539255"><ele>31.0</ele><time>2026-04-22T16:02:56.594Z</time></trkpt><trkpt lat="43.4256933" lon="13.5394167"><ele>31.0</ele><time>2026-04-22T16:02:57.594Z</time></trkpt><trkpt lat="43.4255617" lon="13.53957"><ele>31.0</ele><time>2026-04-22T16:02:58.594Z</time></trkpt><trkpt lat="43.4254283" lon="13.5397267"><ele>31.0</ele><time>2026-04-22T16:02:59.594Z</time></trkpt><trkpt lat="43.4252967" lon="13.539875"><ele>31.0</ele><time>2026-04-22T16:03:00.594Z</time></trkpt><trkpt lat="43.4251717" lon="13.54002"><ele>31.0</ele><time>2026-04-22T16:03:01.594Z</time></trkpt><trkpt lat="43.4250433" lon="13.5401683"><ele>31.0</ele><time>2026-04-22T16:03:02.594Z</time></trkpt><trkpt lat="43.4249267" lon="13.54031"><ele>31.0</ele><time>2026-04-22T16:03:03.594Z</time></trkpt><trkpt lat="43.4248133" lon="13.540445"><ele>31.0</ele><time>2026-04-22T16:03:04.594Z</time></trkpt><trkpt lat="43.4247067" lon="13.5405683"><ele>31.0</ele><time>2026-04-22T16:03:05.594Z</time></trkpt><trkpt lat="43.4246067" lon="13.5406917"><ele>32.0</ele><time>2026-04-22T16:03:06.594Z</time></trkpt><trkpt lat="43.4245083" lon="13.54081"><ele>33.0</ele><time>2026-04-22T16:03:07.594Z</time></trkpt><trkpt lat="43.4244167" lon="13.5409217"><ele>34.0</ele><time>2026-04-22T16:03:08.594Z</time></trkpt><trkpt lat="43.42432" lon="13.5410217"><ele>35.0</ele><time>2026-04-22T16:03:09.594Z</time></trkpt><trkpt lat="43.4242333" lon="13.54111"><ele>35.0</ele><time>2026-04-22T16:03:10.594Z</time></trkpt><trkpt lat="43.4241567" lon="13.5411833"><ele>35.0</ele><time>2026-04-22T16:03:11.594Z</time></trkpt><trkpt lat="43.424095" lon="13.5412417"><ele>35.0</ele><time>2026-04-22T16:03:12.595Z</time></trkpt><trkpt lat="43.424005" lon="13.5413167"><ele>35.0</ele><time>2026-04-22T16:03:14.594Z</time></trkpt><trkpt lat="43.4239283" lon="13.5413817"><ele>35.0</ele><time>2026-04-22T16:03:17.595Z</time></trkpt><trkpt lat="43.4238983" lon="13.5414783"><ele>35.0</ele><time>2026-04-22T16:03:19.594Z</time></trkpt><trkpt lat="43.4239217" lon="13.541625"><ele>35.0</ele><time>2026-04-22T16:03:21.594Z</time></trkpt><trkpt lat="43.4239667" lon="13.5417033"><ele>35.0</ele><time>2026-04-22T16:03:22.595Z</time></trkpt><trkpt lat="43.4240283" lon="13.5417817"><ele>35.0</ele><time>2026-04-22T16:03:23.594Z</time></trkpt><trkpt lat="43.4241" lon="13.5418617"><ele>35.0</ele><time>2026-04-22T16:03:24.594Z</time></trkpt><trkpt lat="43.4241767" lon="13.5419433"><ele>35.0</ele><time>2026-04-22T16:03:25.594Z</time></trkpt><trkpt lat="43.4242517" lon="13.54202"><ele>35.0</ele><time>2026-04-22T16:03:26.594Z</time></trkpt><trkpt lat="43.424345" lon="13.5420817"><ele>35.5</ele><time>2026-04-22T16:03:27.594Z</time></trkpt><trkpt lat="43.4244533" lon="13.5421367"><ele>36.0</ele><time>2026-04-22T16:03:28.594Z</time></trkpt><trkpt lat="43.424565" lon="13.5422033"><ele>36.5</ele><time>2026-04-22T16:03:29.594Z</time></trkpt><trkpt lat="43.424685" lon="13.54227"><ele>37.0</ele><time>2026-04-22T16:03:30.594Z</time></trkpt><trkpt lat="43.4247917" lon="13.5423333"><ele>37.0</ele><time>2026-04-22T16:03:31.594Z</time></trkpt><trkpt lat="43.4249067" lon="13.5424017"><ele>37.0</ele><time>2026-04-22T16:03:32.594Z</time></trkpt><trkpt lat="43.4250233" lon="13.5424633"><ele>37.0</ele><time>2026-04-22T16:03:33.593Z</time></trkpt><trkpt lat="43.42515" lon="13.5425183"><ele>37.0</ele><time>2026-04-22T16:03:34.593Z</time></trkpt><trkpt lat="43.4252717" lon="13.54254"><ele>37.0</ele><time>2026-04-22T16:03:35.593Z</time></trkpt><trkpt lat="43.4253783" lon="13.5425583"><ele>37.0</ele><time>2026-04-22T16:03:36.593Z</time></trkpt><trkpt lat="43.425485" lon="13.5425883"><ele>37.0</ele><time>2026-04-22T16:03:37.593Z</time></trkpt><trkpt lat="43.4255883" lon="13.542645"><ele>37.0</ele><time>2026-04-22T16:03:38.593Z</time></trkpt><trkpt lat="43.42568" lon="13.542715"><ele>37.0</ele><time>2026-04-22T16:03:39.593Z</time></trkpt><trkpt lat="43.4257733" lon="13.54282"><ele>36.25</ele><time>2026-04-22T16:03:40.593Z</time></trkpt><trkpt lat="43.42587" lon="13.5429467"><ele>35.5</ele><time>2026-04-22T16:03:41.593Z</time></trkpt><trkpt lat="43.4259667" lon="13.543085"><ele>34.75</ele><time>2026-04-22T16:03:42.593Z</time></trkpt><trkpt lat="43.426065" lon="13.543235"><ele>34.0</ele><time>2026-04-22T16:03:43.594Z</time></trkpt><trkpt lat="43.4261667" lon="13.5433883"><ele>34.0</ele><time>2026-04-22T16:03:44.594Z</time></trkpt><trkpt lat="43.4262633" lon="13.54354"><ele>34.0</ele><time>2026-04-22T16:03:45.593Z</time></trkpt><trkpt lat="43.4263517" lon="13.543695"><ele>34.0</ele><time>2026-04-22T16:03:46.593Z</time></trkpt><trkpt lat="43.4264383" lon="13.5438617"><ele>34.0</ele><time>2026-04-22T16:03:47.593Z</time></trkpt><trkpt lat="43.426525" lon="13.5440433"><ele>32.66666666666667</ele><time>2026-04-22T16:03:48.593Z</time></trkpt><trkpt lat="43.4266033" lon="13.54423"><ele>31.333333333333336</ele><time>2026-04-22T16:03:49.593Z</time></trkpt><trkpt lat="43.4266833" lon="13.5444167"><ele>30.0</ele><time>2026-04-22T16:03:50.593Z</time></trkpt><trkpt lat="43.426755" lon="13.5446"><ele>30.0</ele><time>2026-04-22T16:03:51.593Z</time></trkpt><trkpt lat="43.4268233" lon="13.5447783"><ele>30.0</ele><time>2026-04-22T16:03:52.593Z</time></trkpt><trkpt lat="43.4268833" lon="13.54495"><ele>30.0</ele><time>2026-04-22T16:03:53.594Z</time></trkpt><trkpt lat="43.4269417" lon="13.545135"><ele>30.0</ele><time>2026-04-22T16:03:54.593Z</time></trkpt><trkpt lat="43.4270033" lon="13.54532"><ele>30.5</ele><time>2026-04-22T16:03:55.593Z</time></trkpt><trkpt lat="43.4270617" lon="13.54549"><ele>31.0</ele><time>2026-04-22T16:03:56.593Z</time></trkpt><trkpt lat="43.4271183" lon="13.54566"><ele>31.5</ele><time>2026-04-22T16:03:57.593Z</time></trkpt><trkpt lat="43.4271717" lon="13.545825"><ele>32.0</ele><time>2026-04-22T16:03:58.593Z</time></trkpt><trkpt lat="43.42722" lon="13.5459933"><ele>30.75</ele><time>2026-04-22T16:03:59.593Z</time></trkpt><trkpt lat="43.4272567" lon="13.5461733"><ele>29.5</ele><time>2026-04-22T16:04:00.593Z</time></trkpt><trkpt lat="43.4272733" lon="13.5463617"><ele>28.25</ele><time>2026-04-22T16:04:01.594Z</time></trkpt><trkpt lat="43.4272683" lon="13.54656"><ele>27.0</ele><time>2026-04-22T16:04:02.593Z</time></trkpt><trkpt lat="43.4272633" lon="13.54677"><ele>27.0</ele><time>2026-04-22T16:04:03.594Z</time></trkpt><trkpt lat="43.427255" lon="13.547"><ele>27.0</ele><time>2026-04-22T16:04:04.593Z</time></trkpt><trkpt lat="43.42726" lon="13.5472233"><ele>27.0</ele><time>2026-04-22T16:04:05.593Z</time></trkpt><trkpt lat="43.4272967" lon="13.54743"><ele>27.25</ele><time>2026-04-22T16:04:06.593Z</time></trkpt><trkpt lat="43.42735" lon="13.5476267"><ele>27.5</ele><time>2026-04-22T16:04:07.593Z</time></trkpt><trkpt lat="43.4274083" lon="13.5477983"><ele>27.75</ele><time>2026-04-22T16:04:08.593Z</time></trkpt><trkpt lat="43.427465" lon="13.5479483"><ele>28.0</ele><time>2026-04-22T16:04:09.593Z</time></trkpt><trkpt lat="43.427505" lon="13.5480767"><ele>28.0</ele><time>2026-04-22T16:04:10.594Z</time></trkpt><trkpt lat="43.427525" lon="13.5482117"><ele>27.999999999999996</ele><time>2026-04-22T16:04:11.593Z</time></trkpt><trkpt lat="43.427535" lon="13.5483517"><ele>27.999999999999996</ele><time>2026-04-22T16:04:12.593Z</time></trkpt><trkpt lat="43.427535" lon="13.5484917"><ele>28.0</ele><time>2026-04-22T16:04:13.593Z</time></trkpt><trkpt lat="43.42754" lon="13.5486533"><ele>28.0</ele><time>2026-04-22T16:04:14.593Z</time></trkpt><trkpt lat="43.4275517" lon="13.548835"><ele>28.0</ele><time>2026-04-22T16:04:15.594Z</time></trkpt><trkpt lat="43.4275833" lon="13.5490333"><ele>28.0</ele><time>2026-04-22T16:04:16.593Z</time></trkpt><trkpt lat="43.4276267" lon="13.5492333"><ele>28.0</ele><time>2026-04-22T16:04:17.593Z</time></trkpt><trkpt lat="43.4276817" lon="13.5494233"><ele>28.0</ele><time>2026-04-22T16:04:18.593Z</time></trkpt><trkpt lat="43.4277433" lon="13.5496017"><ele>28.25</ele><time>2026-04-22T16:04:19.593Z</time></trkpt><trkpt lat="43.42781" lon="13.5497717"><ele>28.5</ele><time>2026-04-22T16:04:20.593Z</time></trkpt><trkpt lat="43.427875" lon="13.5499383"><ele>28.75</ele><time>2026-04-22T16:04:21.593Z</time></trkpt><trkpt lat="43.4279367" lon="13.5501017"><ele>29.0</ele><time>2026-04-22T16:04:22.593Z</time></trkpt><trkpt lat="43.4279967" lon="13.5502533"><ele>28.0</ele><time>2026-04-22T16:04:23.593Z</time></trkpt><trkpt lat="43.4280467" lon="13.5504017"><ele>27.0</ele><time>2026-04-22T16:04:24.594Z</time></trkpt><trkpt lat="43.42809" lon="13.55055"><ele>26.0</ele><time>2026-04-22T16:04:25.593Z</time></trkpt><trkpt lat="43.42813" lon="13.5507117"><ele>25.0</ele><time>2026-04-22T16:04:26.593Z</time></trkpt><trkpt lat="43.4281467" lon="13.5508683"><ele>25.0</ele><time>2026-04-22T16:04:27.593Z</time></trkpt><trkpt lat="43.42814" lon="13.5510183"><ele>25.0</ele><time>2026-04-22T16:04:28.593Z</time></trkpt><trkpt lat="43.4281233" lon="13.5511817"><ele>25.0</ele><time>2026-04-22T16:04:29.593Z</time></trkpt><trkpt lat="43.4280817" lon="13.5513383"><ele>25.0</ele><time>2026-04-22T16:04:30.593Z</time></trkpt><trkpt lat="43.42802" lon="13.5515033"><ele>25.25</ele><time>2026-04-22T16:04:31.593Z</time></trkpt><trkpt lat="43.42796" lon="13.5516733"><ele>25.5</ele><time>2026-04-22T16:04:32.593Z</time></trkpt><trkpt lat="43.4279033" lon="13.5518467"><ele>25.75</ele><time>2026-04-22T16:04:33.593Z</time></trkpt><trkpt lat="43.4278383" lon="13.5520217"><ele>26.0</ele><time>2026-04-22T16:04:34.593Z</time></trkpt><trkpt lat="43.427775" lon="13.5521933"><ele>25.5</ele><time>2026-04-22T16:04:35.593Z</time></trkpt><trkpt lat="43.4277133" lon="13.552365"><ele>25.0</ele><time>2026-04-22T16:04:36.593Z</time></trkpt><trkpt lat="43.42765" lon="13.552545"><ele>24.5</ele><time>2026-04-22T16:04:37.593Z</time></trkpt><trkpt lat="43.427585" lon="13.5527317"><ele>24.0</ele><time>2026-04-22T16:04:38.593Z</time></trkpt><trkpt lat="43.427525" lon="13.5529067"><ele>24.0</ele><time>2026-04-22T16:04:39.593Z</time></trkpt><trkpt lat="43.4274617" lon="13.55309"><ele>24.0</ele><time>2026-04-22T16:04:40.593Z</time></trkpt><trkpt lat="43.4274017" lon="13.5532667"><ele>24.0</ele><time>2026-04-22T16:04:41.593Z</time></trkpt><trkpt lat="43.4273433" lon="13.5534433"><ele>24.0</ele><time>2026-04-22T16:04:42.593Z</time></trkpt><trkpt lat="43.4272933" lon="13.5536217"><ele>24.25</ele><time>2026-04-22T16:04:43.593Z</time></trkpt><trkpt lat="43.4272467" lon="13.5538017"><ele>24.5</ele><time>2026-04-22T16:04:44.593Z</time></trkpt><trkpt lat="43.4271933" lon="13.5539767"><ele>24.75</ele><time>2026-04-22T16:04:45.593Z</time></trkpt><trkpt lat="43.42714" lon="13.55416"><ele>25.0</ele><time>2026-04-22T16:04:46.593Z</time></trkpt><trkpt lat="43.427095" lon="13.554355"><ele>25.25</ele><time>2026-04-22T16:04:47.593Z</time></trkpt><trkpt lat="43.4270483" lon="13.55454"><ele>25.5</ele><time>2026-04-22T16:04:48.593Z</time></trkpt><trkpt lat="43.427" lon="13.554725"><ele>25.75</ele><time>2026-04-22T16:04:49.593Z</time></trkpt><trkpt lat="43.42695" lon="13.5549117"><ele>26.0</ele><time>2026-04-22T16:04:50.593Z</time></trkpt><trkpt lat="43.4269083" lon="13.5550917"><ele>26.0</ele><time>2026-04-22T16:04:51.594Z</time></trkpt><trkpt lat="43.4268633" lon="13.5552733"><ele>26.0</ele><time>2026-04-22T16:04:52.593Z</time></trkpt><trkpt lat="43.4268133" lon="13.5554617"><ele>26.0</ele><time>2026-04-22T16:04:53.594Z</time></trkpt><trkpt lat="43.4267667" lon="13.5556517"><ele>26.0</ele><time>2026-04-22T16:04:54.593Z</time></trkpt><trkpt lat="43.4267167" lon="13.5558383"><ele>26.0</ele><time>2026-04-22T16:04:55.593Z</time></trkpt><trkpt lat="43.42667" lon="13.55602"><ele>26.0</ele><time>2026-04-22T16:04:56.593Z</time></trkpt><trkpt lat="43.4266233" lon="13.5561967"><ele>26.0</ele><time>2026-04-22T16:04:57.593Z</time></trkpt><trkpt lat="43.4265817" lon="13.556375"><ele>26.0</ele><time>2026-04-22T16:04:58.593Z</time></trkpt><trkpt lat="43.4265383" lon="13.55655"><ele>25.75</ele><time>2026-04-22T16:04:59.593Z</time></trkpt><trkpt lat="43.4264917" lon="13.556725"><ele>25.5</ele><time>2026-04-22T16:05:00.593Z</time></trkpt><trkpt lat="43.4264483" lon="13.5569017"><ele>25.25</ele><time>2026-04-22T16:05:01.593Z</time></trkpt><trkpt lat="43.426405" lon="13.5570833"><ele>25.0</ele><time>2026-04-22T16:05:02.594Z</time></trkpt><trkpt lat="43.4263533" lon="13.5572567"><ele>25.0</ele><time>2026-04-22T16:05:03.594Z</time></trkpt><trkpt lat="43.4262967" lon="13.5574333"><ele>25.0</ele><time>2026-04-22T16:05:04.594Z</time></trkpt><trkpt lat="43.4262467" lon="13.5576133"><ele>25.0</ele><time>2026-04-22T16:05:05.593Z</time></trkpt><trkpt lat="43.4262017" lon="13.5577933"><ele>25.0</ele><time>2026-04-22T16:05:06.593Z</time></trkpt><trkpt lat="43.4261533" lon="13.5579733"><ele>25.0</ele><time>2026-04-22T16:05:07.593Z</time></trkpt><trkpt lat="43.4261033" lon="13.5581483"><ele>25.0</ele><time>2026-04-22T16:05:08.593Z</time></trkpt><trkpt lat="43.4260517" lon="13.558335"><ele>25.0</ele><time>2026-04-22T16:05:09.594Z</time></trkpt><trkpt lat="43.4260083" lon="13.5585167"><ele>25.0</ele><time>2026-04-22T16:05:10.593Z</time></trkpt><trkpt lat="43.4259633" lon="13.558695"><ele>25.25</ele><time>2026-04-22T16:05:11.593Z</time></trkpt><trkpt lat="43.4259183" lon="13.558875"><ele>25.5</ele><time>2026-04-22T16:05:12.594Z</time></trkpt><trkpt lat="43.425885" lon="13.559045"><ele>25.75</ele><time>2026-04-22T16:05:13.594Z</time></trkpt><trkpt lat="43.4258683" lon="13.5592133"><ele>26.0</ele><time>2026-04-22T16:05:14.593Z</time></trkpt><trkpt lat="43.4258683" lon="13.55939"><ele>26.5</ele><time>2026-04-22T16:05:15.593Z</time></trkpt><trkpt lat="43.4258833" lon="13.55956"><ele>27.0</ele><time>2026-04-22T16:05:16.593Z</time></trkpt><trkpt lat="43.4259083" lon="13.5597467"><ele>27.5</ele><time>2026-04-22T16:05:17.593Z</time></trkpt><trkpt lat="43.4259433" lon="13.5599283"><ele>28.0</ele><time>2026-04-22T16:05:18.593Z</time></trkpt><trkpt lat="43.4259717" lon="13.560115"><ele>28.0</ele><time>2026-04-22T16:05:19.593Z</time></trkpt><trkpt lat="43.426005" lon="13.56029"><ele>28.0</ele><time>2026-04-22T16:05:20.593Z</time></trkpt><trkpt lat="43.4260467" lon="13.560485"><ele>28.0</ele><time>2026-04-22T16:05:21.594Z</time></trkpt><trkpt lat="43.4260733" lon="13.560675"><ele>28.0</ele><time>2026-04-22T16:05:22.593Z</time></trkpt><trkpt lat="43.426095" lon="13.5608533"><ele>27.75</ele><time>2026-04-22T16:05:23.593Z</time></trkpt><trkpt lat="43.426105" lon="13.5610217"><ele>27.5</ele><time>2026-04-22T16:05:24.593Z</time></trkpt><trkpt lat="43.4261117" lon="13.5611817"><ele>27.25</ele><time>2026-04-22T16:05:25.594Z</time></trkpt><trkpt lat="43.4261167" lon="13.5613533"><ele>27.0</ele><time>2026-04-22T16:05:26.593Z</time></trkpt><trkpt lat="43.42613" lon="13.561535"><ele>26.666666666666664</ele><time>2026-04-22T16:05:27.593Z</time></trkpt><trkpt lat="43.4261483" lon="13.5617317"><ele>26.333333333333332</ele><time>2026-04-22T16:05:28.594Z</time></trkpt><trkpt lat="43.4261617" lon="13.5619417"><ele>26.0</ele><time>2026-04-22T16:05:29.593Z</time></trkpt><trkpt lat="43.4261717" lon="13.5621533"><ele>26.75</ele><time>2026-04-22T16:05:30.593Z</time></trkpt><trkpt lat="43.4261783" lon="13.562345"><ele>27.5</ele><time>2026-04-22T16:05:31.593Z</time></trkpt><trkpt lat="43.4261917" lon="13.5625383"><ele>28.25</ele><time>2026-04-22T16:05:32.593Z</time></trkpt><trkpt lat="43.4262133" lon="13.5627283"><ele>29.0</ele><time>2026-04-22T16:05:33.593Z</time></trkpt><trkpt lat="43.4262517" lon="13.5629167"><ele>29.75</ele><time>2026-04-22T16:05:34.593Z</time></trkpt><trkpt lat="43.426295" lon="13.5630967"><ele>30.5</ele><time>2026-04-22T16:05:35.593Z</time></trkpt><trkpt lat="43.4263383" lon="13.5632767"><ele>31.25</ele><time>2026-04-22T16:05:36.593Z</time></trkpt><trkpt lat="43.426385" lon="13.5634533"><ele>32.0</ele><time>2026-04-22T16:05:37.593Z</time></trkpt><trkpt lat="43.4264367" lon="13.56363"><ele>30.25</ele><time>2026-04-22T16:05:38.593Z</time></trkpt><trkpt lat="43.4265017" lon="13.5638133"><ele>28.5</ele><time>2026-04-22T16:05:39.593Z</time></trkpt><trkpt lat="43.4265683" lon="13.5639917"><ele>26.75</ele><time>2026-04-22T16:05:40.593Z</time></trkpt><trkpt lat="43.426645" lon="13.5641633"><ele>25.0</ele><time>2026-04-22T16:05:41.594Z</time></trkpt><trkpt lat="43.4267167" lon="13.56433"><ele>25.0</ele><time>2026-04-22T16:05:42.593Z</time></trkpt><trkpt lat="43.426785" lon="13.5644933"><ele>25.0</ele><time>2026-04-22T16:05:43.593Z</time></trkpt><trkpt lat="43.4268567" lon="13.5646617"><ele>25.0</ele><time>2026-04-22T16:05:44.593Z</time></trkpt><trkpt lat="43.426925" lon="13.5648317"><ele>25.0</ele><time>2026-04-22T16:05:45.593Z</time></trkpt><trkpt lat="43.4269933" lon="13.5650117"><ele>25.25</ele><time>2026-04-22T16:05:46.593Z</time></trkpt><trkpt lat="43.42706" lon="13.5651883"><ele>25.5</ele><time>2026-04-22T16:05:47.593Z</time></trkpt><trkpt lat="43.4271217" lon="13.565375"><ele>25.75</ele><time>2026-04-22T16:05:48.593Z</time></trkpt><trkpt lat="43.4271783" lon="13.56557"><ele>26.0</ele><time>2026-04-22T16:05:49.593Z</time></trkpt><trkpt lat="43.4272367" lon="13.5657617"><ele>25.0</ele><time>2026-04-22T16:05:50.593Z</time></trkpt><trkpt lat="43.4272883" lon="13.5659567"><ele>24.0</ele><time>2026-04-22T16:05:51.593Z</time></trkpt><trkpt lat="43.4273383" lon="13.5661533"><ele>23.0</ele><time>2026-04-22T16:05:52.593Z</time></trkpt><trkpt lat="43.42739" lon="13.5663517"><ele>22.666666666666668</ele><time>2026-04-22T16:05:53.594Z</time></trkpt><trkpt lat="43.42744" lon="13.566545"><ele>22.333333333333332</ele><time>2026-04-22T16:05:54.593Z</time></trkpt><trkpt lat="43.427495" lon="13.5667383"><ele>22.0</ele><time>2026-04-22T16:05:55.593Z</time></trkpt><trkpt lat="43.4275517" lon="13.5669317"><ele>22.75</ele><time>2026-04-22T16:05:56.593Z</time></trkpt><trkpt lat="43.4276067" lon="13.5671183"><ele>23.5</ele><time>2026-04-22T16:05:57.594Z</time></trkpt><trkpt lat="43.427665" lon="13.567305"><ele>24.25</ele><time>2026-04-22T16:05:58.593Z</time></trkpt><trkpt lat="43.427715" lon="13.5675017"><ele>25.0</ele><time>2026-04-22T16:05:59.594Z</time></trkpt><trkpt lat="43.427765" lon="13.5676933"><ele>25.75</ele><time>2026-04-22T16:06:00.593Z</time></trkpt><trkpt lat="43.4278183" lon="13.5678783"><ele>26.5</ele><time>2026-04-22T16:06:01.593Z</time></trkpt><trkpt lat="43.4278583" lon="13.5680617"><ele>27.25</ele><time>2026-04-22T16:06:02.593Z</time></trkpt><trkpt lat="43.4278933" lon="13.5682433"><ele>28.0</ele><time>2026-04-22T16:06:03.593Z</time></trkpt><trkpt lat="43.42791" lon="13.5684283"><ele>28.0</ele><time>2026-04-22T16:06:04.593Z</time></trkpt><trkpt lat="43.4279233" lon="13.568615"><ele>28.0</ele><time>2026-04-22T16:06:05.594Z</time></trkpt><trkpt lat="43.4279333" lon="13.5688167"><ele>28.0</ele><time>2026-04-22T16:06:06.593Z</time></trkpt><trkpt lat="43.427945" lon="13.5690217"><ele>28.0</ele><time>2026-04-22T16:06:07.593Z</time></trkpt><trkpt lat="43.42797" lon="13.5692233"><ele>27.0</ele><time>2026-04-22T16:06:08.593Z</time></trkpt><trkpt lat="43.4280167" lon="13.569425"><ele>26.0</ele><time>2026-04-22T16:06:09.593Z</time></trkpt><trkpt lat="43.428055" lon="13.569615"><ele>25.0</ele><time>2026-04-22T16:06:10.593Z</time></trkpt><trkpt lat="43.4280967" lon="13.5698017"><ele>24.0</ele><time>2026-04-22T16:06:11.593Z</time></trkpt><trkpt lat="43.4281217" lon="13.56998"><ele>24.0</ele><time>2026-04-22T16:06:12.593Z</time></trkpt><trkpt lat="43.4281483" lon="13.570165"><ele>24.0</ele><time>2026-04-22T16:06:13.593Z</time></trkpt><trkpt lat="43.4281633" lon="13.5703567"><ele>24.0</ele><time>2026-04-22T16:06:14.593Z</time></trkpt><trkpt lat="43.428175" lon="13.5705483"><ele>24.0</ele><time>2026-04-22T16:06:15.593Z</time></trkpt><trkpt lat="43.4281967" lon="13.5707567"><ele>24.666666666666664</ele><time>2026-04-22T16:06:16.594Z</time></trkpt><trkpt lat="43.4282233" lon="13.5709617"><ele>25.333333333333332</ele><time>2026-04-22T16:06:17.593Z</time></trkpt><trkpt lat="43.428245" lon="13.5711633"><ele>26.0</ele><time>2026-04-22T16:06:18.593Z</time></trkpt><trkpt lat="43.4282767" lon="13.5713817"><ele>26.0</ele><time>2026-04-22T16:06:19.593Z</time></trkpt><trkpt lat="43.428295" lon="13.5715917"><ele>26.0</ele><time>2026-04-22T16:06:20.593Z</time></trkpt><trkpt lat="43.428285" lon="13.5717883"><ele>26.0</ele><time>2026-04-22T16:06:21.593Z</time></trkpt><trkpt lat="43.4282667" lon="13.5719783"><ele>26.0</ele><time>2026-04-22T16:06:22.593Z</time></trkpt><trkpt lat="43.428235" lon="13.572175"><ele>26.0</ele><time>2026-04-22T16:06:23.594Z</time></trkpt><trkpt lat="43.4281967" lon="13.57238"><ele>26.0</ele><time>2026-04-22T16:06:24.593Z</time></trkpt><trkpt lat="43.428165" lon="13.5725917"><ele>26.0</ele><time>2026-04-22T16:06:25.593Z</time></trkpt><trkpt lat="43.4281417" lon="13.5727983"><ele>25.666666666666664</ele><time>2026-04-22T16:06:26.593Z</time></trkpt><trkpt lat="43.428115" lon="13.5730083"><ele>25.333333333333336</ele><time>2026-04-22T16:06:27.593Z</time></trkpt><trkpt lat="43.4280983" lon="13.5732117"><ele>25.0</ele><time>2026-04-22T16:06:28.594Z</time></trkpt><trkpt lat="43.42808" lon="13.5734167"><ele>25.0</ele><time>2026-04-22T16:06:29.593Z</time></trkpt><trkpt lat="43.42806" lon="13.57361"><ele>25.0</ele><time>2026-04-22T16:06:30.593Z</time></trkpt><trkpt lat="43.428055" lon="13.57381"><ele>25.0</ele><time>2026-04-22T16:06:31.593Z</time></trkpt><trkpt lat="43.4280433" lon="13.5740033"><ele>25.0</ele><time>2026-04-22T16:06:32.593Z</time></trkpt><trkpt lat="43.4280317" lon="13.574205"><ele>24.666666666666668</ele><time>2026-04-22T16:06:33.593Z</time></trkpt><trkpt lat="43.4280233" lon="13.5744167"><ele>24.333333333333336</ele><time>2026-04-22T16:06:34.593Z</time></trkpt><trkpt lat="43.4280133" lon="13.5746167"><ele>24.0</ele><time>2026-04-22T16:06:35.593Z</time></trkpt><trkpt lat="43.4279883" lon="13.5748233"><ele>25.25</ele><time>2026-04-22T16:06:36.593Z</time></trkpt><trkpt lat="43.4279533" lon="13.5750217"><ele>26.5</ele><time>2026-04-22T16:06:37.594Z</time></trkpt><trkpt lat="43.42792" lon="13.5752133"><ele>27.75</ele><time>2026-04-22T16:06:38.593Z</time></trkpt><trkpt lat="43.4278867" lon="13.5753933"><ele>29.0</ele><time>2026-04-22T16:06:39.593Z</time></trkpt><trkpt lat="43.42784" lon="13.5755783"><ele>29.0</ele><time>2026-04-22T16:06:40.593Z</time></trkpt><trkpt lat="43.42779" lon="13.5757567"><ele>29.0</ele><time>2026-04-22T16:06:41.593Z</time></trkpt><trkpt lat="43.4277417" lon="13.5759383"><ele>29.0</ele><time>2026-04-22T16:06:42.593Z</time></trkpt><trkpt lat="43.42769" lon="13.57612"><ele>29.0</ele><time>2026-04-22T16:06:43.593Z</time></trkpt><trkpt lat="43.4276467" lon="13.5763117"><ele>29.25</ele><time>2026-04-22T16:06:44.593Z</time></trkpt><trkpt lat="43.4276083" lon="13.5765033"><ele>29.5</ele><time>2026-04-22T16:06:45.594Z</time></trkpt><trkpt lat="43.42757" lon="13.5766833"><ele>29.75</ele><time>2026-04-22T16:06:46.593Z</time></trkpt><trkpt lat="43.427535" lon="13.5768533"><ele>30.0</ele><time>2026-04-22T16:06:47.593Z</time></trkpt><trkpt lat="43.427505" lon="13.5770117"><ele>30.0</ele><time>2026-04-22T16:06:48.593Z</time></trkpt><trkpt lat="43.427475" lon="13.5771783"><ele>30.0</ele><time>2026-04-22T16:06:49.593Z</time></trkpt><trkpt lat="43.42744" lon="13.5773483"><ele>30.0</ele><time>2026-04-22T16:06:50.593Z</time></trkpt><trkpt lat="43.4274083" lon="13.5775233"><ele>30.0</ele><time>2026-04-22T16:06:51.593Z</time></trkpt><trkpt lat="43.42739" lon="13.5776983"><ele>29.5</ele><time>2026-04-22T16:06:52.593Z</time></trkpt><trkpt lat="43.4273717" lon="13.57788"><ele>29.0</ele><time>2026-04-22T16:06:53.593Z</time></trkpt><trkpt lat="43.427355" lon="13.5780467"><ele>28.5</ele><time>2026-04-22T16:06:54.593Z</time></trkpt><trkpt lat="43.42734" lon="13.57822"><ele>28.0</ele><time>2026-04-22T16:06:55.593Z</time></trkpt><trkpt lat="43.4273267" lon="13.5783933"><ele>28.0</ele><time>2026-04-22T16:06:56.593Z</time></trkpt><trkpt lat="43.427315" lon="13.5785567"><ele>27.999999999999996</ele><time>2026-04-22T16:06:57.593Z</time></trkpt><trkpt lat="43.427315" lon="13.5787067"><ele>27.999999999999996</ele><time>2026-04-22T16:06:58.594Z</time></trkpt><trkpt lat="43.42731" lon="13.5788433"><ele>28.0</ele><time>2026-04-22T16:06:59.593Z</time></trkpt><trkpt lat="43.4273083" lon="13.578955"><ele>28.0</ele><time>2026-04-22T16:07:00.593Z</time></trkpt><trkpt lat="43.4273083" lon="13.5790533"><ele>27.799999999999997</ele><time>2026-04-22T16:07:01.593Z</time></trkpt><trkpt lat="43.4273133" lon="13.579185"><ele>27.599999999999998</ele><time>2026-04-22T16:07:03.593Z</time></trkpt><trkpt lat="43.4273033" lon="13.5792867"><ele>27.400000000000002</ele><time>2026-04-22T16:07:13.593Z</time></trkpt><trkpt lat="43.4272533" lon="13.5794033"><ele>27.200000000000003</ele><time>2026-04-22T16:07:22.593Z</time></trkpt><trkpt lat="43.4271417" lon="13.579475"><ele>27.0</ele><time>2026-04-22T16:07:24.593Z</time></trkpt><trkpt lat="43.427075" lon="13.579495"><ele>28.333333333333332</ele><time>2026-04-22T16:07:25.593Z</time></trkpt><trkpt lat="43.4270067" lon="13.57951"><ele>29.666666666666664</ele><time>2026-04-22T16:07:26.594Z</time></trkpt><trkpt lat="43.4269283" lon="13.5795183"><ele>31.0</ele><time>2026-04-22T16:07:27.593Z</time></trkpt><trkpt lat="43.4268583" lon="13.579535"><ele>32.33333333333333</ele><time>2026-04-22T16:07:28.593Z</time></trkpt><trkpt lat="43.426765" lon="13.5795717"><ele>33.666666666666664</ele><time>2026-04-22T16:07:30.593Z</time></trkpt><trkpt lat="43.4267433" lon="13.5796983"><ele>35.0</ele><time>2026-04-22T16:07:33.593Z</time></trkpt><trkpt lat="43.4268067" lon="13.57983"><ele>35.0</ele><time>2026-04-22T16:07:35.593Z</time></trkpt><trkpt lat="43.4268533" lon="13.579925"><ele>35.0</ele><time>2026-04-22T16:07:36.593Z</time></trkpt><trkpt lat="43.4269017" lon="13.58003"><ele>35.0</ele><time>2026-04-22T16:07:37.594Z</time></trkpt><trkpt lat="43.4269617" lon="13.5801483"><ele>35.0</ele><time>2026-04-22T16:07:38.593Z</time></trkpt><trkpt lat="43.42704" lon="13.5802683"><ele>35.0</ele><time>2026-04-22T16:07:39.593Z</time></trkpt><trkpt lat="43.4271133" lon="13.5804067"><ele>33.75</ele><time>2026-04-22T16:07:40.593Z</time></trkpt><trkpt lat="43.4271783" lon="13.58055"><ele>32.5</ele><time>2026-04-22T16:07:41.593Z</time></trkpt><trkpt lat="43.4272467" lon="13.5807233"><ele>31.25</ele><time>2026-04-22T16:07:42.593Z</time></trkpt><trkpt lat="43.4273183" lon="13.5809217"><ele>30.0</ele><time>2026-04-22T16:07:43.593Z</time></trkpt><trkpt lat="43.42739" lon="13.5811533"><ele>29.666666666666664</ele><time>2026-04-22T16:07:44.594Z</time></trkpt><trkpt lat="43.42746" lon="13.581375"><ele>29.333333333333332</ele><time>2026-04-22T16:07:45.593Z</time></trkpt><trkpt lat="43.4275283" lon="13.5815867"><ele>29.0</ele><time>2026-04-22T16:07:46.593Z</time></trkpt><trkpt lat="43.4275967" lon="13.58179"><ele>29.0</ele><time>2026-04-22T16:07:47.594Z</time></trkpt><trkpt lat="43.4276717" lon="13.5819917"><ele>29.0</ele><time>2026-04-22T16:07:48.593Z</time></trkpt><trkpt lat="43.427755" lon="13.58221"><ele>29.0</ele><time>2026-04-22T16:07:49.593Z</time></trkpt><trkpt lat="43.4278383" lon="13.5824133"><ele>29.25</ele><time>2026-04-22T16:07:50.593Z</time></trkpt><trkpt lat="43.4279067" lon="13.5826"><ele>29.5</ele><time>2026-04-22T16:07:51.593Z</time></trkpt><trkpt lat="43.4279633" lon="13.5827683"><ele>29.75</ele><time>2026-04-22T16:07:52.593Z</time></trkpt><trkpt lat="43.4280017" lon="13.58292"><ele>30.0</ele><time>2026-04-22T16:07:53.593Z</time></trkpt><trkpt lat="43.4280133" lon="13.5830517"><ele>30.0</ele><time>2026-04-22T16:07:54.593Z</time></trkpt><trkpt lat="43.4280067" lon="13.583165"><ele>30.0</ele><time>2026-04-22T16:07:55.593Z</time></trkpt><trkpt lat="43.42798" lon="13.5832733"><ele>30.0</ele><time>2026-04-22T16:07:56.593Z</time></trkpt><trkpt lat="43.4279417" lon="13.5833633"><ele>30.0</ele><time>2026-04-22T16:07:57.593Z</time></trkpt><trkpt lat="43.4279217" lon="13.5834583"><ele>30.0</ele><time>2026-04-22T16:07:58.593Z</time></trkpt><trkpt lat="43.427935" lon="13.5835483"><ele>30.0</ele><time>2026-04-22T16:07:59.593Z</time></trkpt><trkpt lat="43.4279817" lon="13.583615"><ele>30.0</ele><time>2026-04-22T16:08:00.593Z</time></trkpt><trkpt lat="43.428055" lon="13.58364"><ele>30.0</ele><time>2026-04-22T16:08:01.594Z</time></trkpt><trkpt lat="43.4281383" lon="13.583655"><ele>30.0</ele><time>2026-04-22T16:08:02.593Z</time></trkpt><trkpt lat="43.428235" lon="13.5837017"><ele>30.0</ele><time>2026-04-22T16:08:03.593Z</time></trkpt><trkpt lat="43.4283333" lon="13.5837933"><ele>30.0</ele><time>2026-04-22T16:08:04.593Z</time></trkpt><trkpt lat="43.4284267" lon="13.583915"><ele>30.0</ele><time>2026-04-22T16:08:05.593Z</time></trkpt><trkpt lat="43.4285183" lon="13.5840433"><ele>30.666666666666664</ele><time>2026-04-22T16:08:06.593Z</time></trkpt><trkpt lat="43.4286117" lon="13.5841767"><ele>31.333333333333332</ele><time>2026-04-22T16:08:07.594Z</time></trkpt><trkpt lat="43.42871" lon="13.58434"><ele>32.0</ele><time>2026-04-22T16:08:08.594Z</time></trkpt><trkpt lat="43.4288233" lon="13.5845017"><ele>31.0</ele><time>2026-04-22T16:08:09.593Z</time></trkpt><trkpt lat="43.4289317" lon="13.5846683"><ele>30.0</ele><time>2026-04-22T16:08:10.593Z</time></trkpt><trkpt lat="43.4290433" lon="13.5848433"><ele>29.0</ele><time>2026-04-22T16:08:11.593Z</time></trkpt><trkpt lat="43.4291617" lon="13.58502"><ele>29.0</ele><time>2026-04-22T16:08:12.593Z</time></trkpt><trkpt lat="43.4292767" lon="13.5852033"><ele>29.0</ele><time>2026-04-22T16:08:13.594Z</time></trkpt><trkpt lat="43.4294" lon="13.58538"><ele>29.0</ele><time>2026-04-22T16:08:14.593Z</time></trkpt><trkpt lat="43.4295267" lon="13.5855517"><ele>28.0</ele><time>2026-04-22T16:08:15.593Z</time></trkpt><trkpt lat="43.4296433" lon="13.5857233"><ele>27.0</ele><time>2026-04-22T16:08:16.594Z</time></trkpt><trkpt lat="43.4297767" lon="13.5858917"><ele>26.0</ele><time>2026-04-22T16:08:17.593Z</time></trkpt><trkpt lat="43.4299167" lon="13.5860617"><ele>26.333333333333332</ele><time>2026-04-22T16:08:18.593Z</time></trkpt><trkpt lat="43.4300717" lon="13.5862233"><ele>26.666666666666664</ele><time>2026-04-22T16:08:19.593Z</time></trkpt><trkpt lat="43.4302217" lon="13.5863867"><ele>27.0</ele><time>2026-04-22T16:08:20.593Z</time></trkpt><trkpt lat="43.430375" lon="13.5865467"><ele>25.666666666666668</ele><time>2026-04-22T16:08:21.594Z</time></trkpt><trkpt lat="43.4305183" lon="13.5867283"><ele>24.333333333333336</ele><time>2026-04-22T16:08:22.593Z</time></trkpt><trkpt lat="43.4306633" lon="13.5868967"><ele>23.0</ele><time>2026-04-22T16:08:23.593Z</time></trkpt><trkpt lat="43.4307983" lon="13.58708"><ele>23.0</ele><time>2026-04-22T16:08:24.593Z</time></trkpt><trkpt lat="43.4309167" lon="13.5872833"><ele>23.0</ele><time>2026-04-22T16:08:25.593Z</time></trkpt><trkpt lat="43.4310317" lon="13.58749"><ele>23.0</ele><time>2026-04-22T16:08:26.593Z</time></trkpt><trkpt lat="43.431145" lon="13.587705"><ele>22.666666666666668</ele><time>2026-04-22T16:08:27.593Z</time></trkpt><trkpt lat="43.4312533" lon="13.58791"><ele>22.333333333333332</ele><time>2026-04-22T16:08:28.593Z</time></trkpt><trkpt lat="43.4313683" lon="13.5881233"><ele>22.0</ele><time>2026-04-22T16:08:29.593Z</time></trkpt><trkpt lat="43.43148" lon="13.58833"><ele>22.0</ele><time>2026-04-22T16:08:30.593Z</time></trkpt><trkpt lat="43.431595" lon="13.588525"><ele>22.0</ele><time>2026-04-22T16:08:31.593Z</time></trkpt><trkpt lat="43.4317017" lon="13.5887367"><ele>22.0</ele><time>2026-04-22T16:08:32.593Z</time></trkpt><trkpt lat="43.4318167" lon="13.588945"><ele>21.666666666666664</ele><time>2026-04-22T16:08:33.593Z</time></trkpt><trkpt lat="43.431932" lon="13.5891486"><ele>21.333333333333332</ele><time>2026-04-22T16:08:34.593Z</time></trkpt><trkpt lat="43.4320505" lon="13.5893519"><ele>21.0</ele><time>2026-04-22T16:08:35.593Z</time></trkpt><trkpt lat="43.432166" lon="13.5895556"><ele>21.0</ele><time>2026-04-22T16:08:36.593Z</time></trkpt><trkpt lat="43.4322851" lon="13.5897678"><ele>21.0</ele><time>2026-04-22T16:08:37.593Z</time></trkpt><trkpt lat="43.432409" lon="13.5899798"><ele>21.0</ele><time>2026-04-22T16:08:38.593Z</time></trkpt><trkpt lat="43.4325348" lon="13.5901875"><ele>22.666666666666664</ele><time>2026-04-22T16:08:39.593Z</time></trkpt><trkpt lat="43.432655" lon="13.5904064"><ele>24.333333333333332</ele><time>2026-04-22T16:08:40.593Z</time></trkpt><trkpt lat="43.4327832" lon="13.5906199"><ele>26.0</ele><time>2026-04-22T16:08:41.593Z</time></trkpt><trkpt lat="43.4329163" lon="13.5908148"><ele>25.666666666666664</ele><time>2026-04-22T16:08:42.593Z</time></trkpt><trkpt lat="43.4330519" lon="13.5909833"><ele>25.333333333333336</ele><time>2026-04-22T16:08:43.593Z</time></trkpt><trkpt lat="43.4332056" lon="13.5911378"><ele>25.0</ele><time>2026-04-22T16:08:44.593Z</time></trkpt><trkpt lat="43.433376" lon="13.5912987"><ele>25.0</ele><time>2026-04-22T16:08:45.593Z</time></trkpt><trkpt lat="43.4335508" lon="13.5914629"><ele>25.0</ele><time>2026-04-22T16:08:46.593Z</time></trkpt><trkpt lat="43.4337193" lon="13.591615"><ele>25.0</ele><time>2026-04-22T16:08:47.594Z</time></trkpt><trkpt lat="43.4338705" lon="13.5917553"><ele>24.333333333333336</ele><time>2026-04-22T16:08:48.594Z</time></trkpt><trkpt lat="43.4340155" lon="13.5918914"><ele>23.666666666666668</ele><time>2026-04-22T16:08:49.593Z</time></trkpt><trkpt lat="43.4341532" lon="13.5920208"><ele>23.0</ele><time>2026-04-22T16:08:50.593Z</time></trkpt><trkpt lat="43.4342805" lon="13.5921422"><ele>23.0</ele><time>2026-04-22T16:08:51.594Z</time></trkpt><trkpt lat="43.4344005" lon="13.5922538"><ele>23.0</ele><time>2026-04-22T16:08:52.593Z</time></trkpt><trkpt lat="43.4345157" lon="13.5923596"><ele>23.0</ele><time>2026-04-22T16:08:53.593Z</time></trkpt><trkpt lat="43.4346181" lon="13.5924603"><ele>23.0</ele><time>2026-04-22T16:08:54.593Z</time></trkpt><trkpt lat="43.4347135" lon="13.5925584"><ele>23.25</ele><time>2026-04-22T16:08:55.593Z</time></trkpt><trkpt lat="43.4348151" lon="13.5926577"><ele>23.5</ele><time>2026-04-22T16:08:56.593Z</time></trkpt><trkpt lat="43.4349288" lon="13.592766"><ele>23.75</ele><time>2026-04-22T16:08:57.593Z</time></trkpt><trkpt lat="43.4350578" lon="13.5928827"><ele>24.0</ele><time>2026-04-22T16:08:58.593Z</time></trkpt><trkpt lat="43.4352004" lon="13.5930166"><ele>24.0</ele><time>2026-04-22T16:08:59.594Z</time></trkpt><trkpt lat="43.4353491" lon="13.5931614"><ele>24.0</ele><time>2026-04-22T16:09:00.593Z</time></trkpt><trkpt lat="43.4354993" lon="13.5933047"><ele>24.0</ele><time>2026-04-22T16:09:01.593Z</time></trkpt><trkpt lat="43.4356379" lon="13.593438"><ele>23.5</ele><time>2026-04-22T16:09:02.593Z</time></trkpt><trkpt lat="43.4357691" lon="13.5935629"><ele>23.0</ele><time>2026-04-22T16:09:03.594Z</time></trkpt><trkpt lat="43.4358907" lon="13.5936747"><ele>22.5</ele><time>2026-04-22T16:09:04.593Z</time></trkpt><trkpt lat="43.4360045" lon="13.5937805"><ele>22.0</ele><time>2026-04-22T16:09:05.593Z</time></trkpt><trkpt lat="43.4361194" lon="13.5938657"><ele>21.75</ele><time>2026-04-22T16:09:06.593Z</time></trkpt><trkpt lat="43.43625" lon="13.5939083"><ele>21.5</ele><time>2026-04-22T16:09:07.593Z</time></trkpt><trkpt lat="43.4363967" lon="13.593915"><ele>21.25</ele><time>2026-04-22T16:09:08.593Z</time></trkpt><trkpt lat="43.4365483" lon="13.5938933"><ele>21.0</ele><time>2026-04-22T16:09:09.593Z</time></trkpt><trkpt lat="43.4367067" lon="13.5938417"><ele>21.0</ele><time>2026-04-22T16:09:10.593Z</time></trkpt><trkpt lat="43.4368533" lon="13.5937933"><ele>21.0</ele><time>2026-04-22T16:09:11.593Z</time></trkpt><trkpt lat="43.4369933" lon="13.5937567"><ele>21.0</ele><time>2026-04-22T16:09:12.593Z</time></trkpt><trkpt lat="43.437125" lon="13.5937367"><ele>21.0</ele><time>2026-04-22T16:09:13.593Z</time></trkpt><trkpt lat="43.4372567" lon="13.593735"><ele>20.5</ele><time>2026-04-22T16:09:14.593Z</time></trkpt><trkpt lat="43.4373883" lon="13.593755"><ele>20.0</ele><time>2026-04-22T16:09:15.593Z</time></trkpt><trkpt lat="43.437525" lon="13.5938133"><ele>19.5</ele><time>2026-04-22T16:09:16.593Z</time></trkpt><trkpt lat="43.4376667" lon="13.5939067"><ele>19.0</ele><time>2026-04-22T16:09:17.594Z</time></trkpt><trkpt lat="43.4378183" lon="13.5940233"><ele>18.333333333333332</ele><time>2026-04-22T16:09:18.593Z</time></trkpt><trkpt lat="43.4379733" lon="13.5941583"><ele>17.666666666666668</ele><time>2026-04-22T16:09:19.593Z</time></trkpt><trkpt lat="43.438125" lon="13.5943067"><ele>17.0</ele><time>2026-04-22T16:09:20.593Z</time></trkpt><trkpt lat="43.4382717" lon="13.5944717"><ele>17.333333333333336</ele><time>2026-04-22T16:09:21.593Z</time></trkpt><trkpt lat="43.4384067" lon="13.5946283"><ele>17.666666666666668</ele><time>2026-04-22T16:09:22.593Z</time></trkpt><trkpt lat="43.438545" lon="13.5947783"><ele>18.0</ele><time>2026-04-22T16:09:23.594Z</time></trkpt><trkpt lat="43.4386883" lon="13.5949367"><ele>17.666666666666668</ele><time>2026-04-22T16:09:24.593Z</time></trkpt><trkpt lat="43.4388283" lon="13.5950933"><ele>17.333333333333336</ele><time>2026-04-22T16:09:25.593Z</time></trkpt><trkpt lat="43.438975" lon="13.5952483"><ele>17.0</ele><time>2026-04-22T16:09:26.594Z</time></trkpt><trkpt lat="43.439105" lon="13.595395"><ele>17.5</ele><time>2026-04-22T16:09:27.593Z</time></trkpt><trkpt lat="43.439225" lon="13.595525"><ele>18.0</ele><time>2026-04-22T16:09:28.593Z</time></trkpt><trkpt lat="43.4393317" lon="13.595655"><ele>18.5</ele><time>2026-04-22T16:09:29.594Z</time></trkpt><trkpt lat="43.4394467" lon="13.5957867"><ele>19.0</ele><time>2026-04-22T16:09:30.593Z</time></trkpt><trkpt lat="43.4395633" lon="13.5959017"><ele>18.75</ele><time>2026-04-22T16:09:31.593Z</time></trkpt><trkpt lat="43.4396767" lon="13.5960233"><ele>18.5</ele><time>2026-04-22T16:09:32.593Z</time></trkpt><trkpt lat="43.4397867" lon="13.5961517"><ele>18.25</ele><time>2026-04-22T16:09:33.593Z</time></trkpt><trkpt lat="43.439895" lon="13.5962733"><ele>18.0</ele><time>2026-04-22T16:09:34.593Z</time></trkpt><trkpt lat="43.4400033" lon="13.5963967"><ele>18.0</ele><time>2026-04-22T16:09:35.593Z</time></trkpt><trkpt lat="43.4401017" lon="13.596515"><ele>18.0</ele><time>2026-04-22T16:09:36.593Z</time></trkpt><trkpt lat="43.4401933" lon="13.5966217"><ele>18.0</ele><time>2026-04-22T16:09:37.593Z</time></trkpt><trkpt lat="43.4402733" lon="13.59671"><ele>18.0</ele><time>2026-04-22T16:09:38.593Z</time></trkpt><trkpt lat="43.440345" lon="13.5967917"><ele>18.0</ele><time>2026-04-22T16:09:39.593Z</time></trkpt><trkpt lat="43.44041" lon="13.596865"><ele>17.857142857142858</ele><time>2026-04-22T16:09:40.593Z</time></trkpt><trkpt lat="43.44047" lon="13.596935"><ele>17.714285714285715</ele><time>2026-04-22T16:09:41.593Z</time></trkpt><trkpt lat="43.440525" lon="13.596995"><ele>17.57142857142857</ele><time>2026-04-22T16:09:42.593Z</time></trkpt><trkpt lat="43.4405767" lon="13.5970533"><ele>17.42857142857143</ele><time>2026-04-22T16:09:43.593Z</time></trkpt><trkpt lat="43.4406267" lon="13.5971133"><ele>17.285714285714285</ele><time>2026-04-22T16:09:44.593Z</time></trkpt><trkpt lat="43.4406767" lon="13.5971833"><ele>17.142857142857142</ele><time>2026-04-22T16:09:45.593Z</time></trkpt><trkpt lat="43.4407333" lon="13.5972567"><ele>17.0</ele><time>2026-04-22T16:09:46.593Z</time></trkpt><trkpt lat="43.4408" lon="13.5973367"><ele>17.0</ele><time>2026-04-22T16:09:47.593Z</time></trkpt><trkpt lat="43.4408783" lon="13.5974167"><ele>17.0</ele><time>2026-04-22T16:09:48.593Z</time></trkpt><trkpt lat="43.440945" lon="13.597495"><ele>17.0</ele><time>2026-04-22T16:09:49.593Z</time></trkpt><trkpt lat="43.44101" lon="13.59757"><ele>17.0</ele><time>2026-04-22T16:09:50.593Z</time></trkpt><trkpt lat="43.4410733" lon="13.59764"><ele>17.0</ele><time>2026-04-22T16:09:51.593Z</time></trkpt><trkpt lat="43.4411333" lon="13.5977033"><ele>17.0</ele><time>2026-04-22T16:09:52.593Z</time></trkpt><trkpt lat="43.4411867" lon="13.5977633"><ele>17.0</ele><time>2026-04-22T16:09:53.594Z</time></trkpt><trkpt lat="43.4412367" lon="13.597825"><ele>17.0</ele><time>2026-04-22T16:09:54.593Z</time></trkpt><trkpt lat="43.4412867" lon="13.5978867"><ele>17.0</ele><time>2026-04-22T16:09:55.593Z</time></trkpt><trkpt lat="43.441345" lon="13.5979517"><ele>17.0</ele><time>2026-04-22T16:09:56.593Z</time></trkpt><trkpt lat="43.4414083" lon="13.5980167"><ele>17.0</ele><time>2026-04-22T16:09:57.593Z</time></trkpt><trkpt lat="43.44148" lon="13.5980933"><ele>17.0</ele><time>2026-04-22T16:09:58.593Z</time></trkpt><trkpt lat="43.44156" lon="13.59819"><ele>16.8</ele><time>2026-04-22T16:09:59.594Z</time></trkpt><trkpt lat="43.4416417" lon="13.5982817"><ele>16.6</ele><time>2026-04-22T16:10:00.593Z</time></trkpt><trkpt lat="43.4417217" lon="13.59838"><ele>16.400000000000002</ele><time>2026-04-22T16:10:01.594Z</time></trkpt><trkpt lat="43.4418067" lon="13.5984783"><ele>16.2</ele><time>2026-04-22T16:10:02.593Z</time></trkpt><trkpt lat="43.441895" lon="13.598575"><ele>16.0</ele><time>2026-04-22T16:10:03.593Z</time></trkpt><trkpt lat="43.4419817" lon="13.59867"><ele>16.0</ele><time>2026-04-22T16:10:04.593Z</time></trkpt><trkpt lat="43.4420733" lon="13.598775"><ele>16.0</ele><time>2026-04-22T16:10:05.593Z</time></trkpt><trkpt lat="43.4421633" lon="13.5988817"><ele>16.0</ele><time>2026-04-22T16:10:06.593Z</time></trkpt><trkpt lat="43.4422483" lon="13.5989783"><ele>16.0</ele><time>2026-04-22T16:10:07.594Z</time></trkpt><trkpt lat="43.4423283" lon="13.59908"><ele>16.0</ele><time>2026-04-22T16:10:08.593Z</time></trkpt><trkpt lat="43.4424117" lon="13.5991733"><ele>16.0</ele><time>2026-04-22T16:10:09.593Z</time></trkpt><trkpt lat="43.4425033" lon="13.59927"><ele>16.0</ele><time>2026-04-22T16:10:10.593Z</time></trkpt><trkpt lat="43.4426" lon="13.59938"><ele>16.0</ele><time>2026-04-22T16:10:11.593Z</time></trkpt><trkpt lat="43.4426933" lon="13.5994833"><ele>16.0</ele><time>2026-04-22T16:10:12.593Z</time></trkpt><trkpt lat="43.4427933" lon="13.59959"><ele>16.0</ele><time>2026-04-22T16:10:13.593Z</time></trkpt><trkpt lat="43.4428867" lon="13.5996967"><ele>16.0</ele><time>2026-04-22T16:10:14.594Z</time></trkpt><trkpt lat="43.44298" lon="13.5997883"><ele>16.0</ele><time>2026-04-22T16:10:15.593Z</time></trkpt><trkpt lat="43.44306" lon="13.5998867"><ele>16.0</ele><time>2026-04-22T16:10:16.593Z</time></trkpt><trkpt lat="43.4431417" lon="13.599975"><ele>16.0</ele><time>2026-04-22T16:10:17.593Z</time></trkpt><trkpt lat="43.4432117" lon="13.600055"><ele>16.0</ele><time>2026-04-22T16:10:18.594Z</time></trkpt><trkpt lat="43.44328" lon="13.6001367"><ele>16.0</ele><time>2026-04-22T16:10:19.593Z</time></trkpt><trkpt lat="43.443345" lon="13.600215"><ele>16.0</ele><time>2026-04-22T16:10:20.593Z</time></trkpt><trkpt lat="43.443415" lon="13.6002967"><ele>15.999999999999998</ele><time>2026-04-22T16:10:21.593Z</time></trkpt><trkpt lat="43.4434867" lon="13.6003883"><ele>16.0</ele><time>2026-04-22T16:10:22.593Z</time></trkpt><trkpt lat="43.443555" lon="13.600465"><ele>16.0</ele><time>2026-04-22T16:10:23.593Z</time></trkpt><trkpt lat="43.4436167" lon="13.60053"><ele>16.0</ele><time>2026-04-22T16:10:24.594Z</time></trkpt><trkpt lat="43.4436667" lon="13.6005833"><ele>15.999999999999998</ele><time>2026-04-22T16:10:25.593Z</time></trkpt><trkpt lat="43.4437317" lon="13.60066"><ele>16.0</ele><time>2026-04-22T16:10:27.593Z</time></trkpt><trkpt lat="43.4437783" lon="13.6007217"><ele>15.8</ele><time>2026-04-22T16:10:29.593Z</time></trkpt><trkpt lat="43.4438317" lon="13.6008017"><ele>15.600000000000001</ele><time>2026-04-22T16:10:32.594Z</time></trkpt><trkpt lat="43.4439067" lon="13.600925"><ele>15.4</ele><time>2026-04-22T16:10:40.593Z</time></trkpt><trkpt lat="43.4438867" lon="13.6010683"><ele>15.2</ele><time>2026-04-22T16:10:42.593Z</time></trkpt><trkpt lat="43.4438567" lon="13.6012433"><ele>15.0</ele><time>2026-04-22T16:10:44.593Z</time></trkpt><trkpt lat="43.4438383" lon="13.6013683"><ele>14.8</ele><time>2026-04-22T16:10:45.593Z</time></trkpt><trkpt lat="43.4438183" lon="13.6015083"><ele>14.6</ele><time>2026-04-22T16:10:46.593Z</time></trkpt><trkpt lat="43.4437967" lon="13.6016367"><ele>14.399999999999999</ele><time>2026-04-22T16:10:47.594Z</time></trkpt><trkpt lat="43.4437833" lon="13.6017617"><ele>14.2</ele><time>2026-04-22T16:10:48.594Z</time></trkpt><trkpt lat="43.4437883" lon="13.6018667"><ele>14.0</ele><time>2026-04-22T16:10:49.594Z</time></trkpt><trkpt lat="43.443825" lon="13.6019733"><ele>14.2</ele><time>2026-04-22T16:10:50.593Z</time></trkpt><trkpt lat="43.4438783" lon="13.6020767"><ele>14.399999999999999</ele><time>2026-04-22T16:10:51.593Z</time></trkpt><trkpt lat="43.4439383" lon="13.6021717"><ele>14.6</ele><time>2026-04-22T16:10:52.593Z</time></trkpt><trkpt lat="43.444005" lon="13.60225"><ele>14.8</ele><time>2026-04-22T16:10:53.594Z</time></trkpt><trkpt lat="43.4440817" lon="13.602335"><ele>15.0</ele><time>2026-04-22T16:10:54.594Z</time></trkpt><trkpt lat="43.4441567" lon="13.6024117"><ele>15.0</ele><time>2026-04-22T16:10:55.593Z</time></trkpt><trkpt lat="43.444215" lon="13.6024817"><ele>15.0</ele><time>2026-04-22T16:10:56.593Z</time></trkpt><trkpt lat="43.4442817" lon="13.602555"><ele>15.0</ele><time>2026-04-22T16:10:57.593Z</time></trkpt><trkpt lat="43.444345" lon="13.6026233"><ele>15.0</ele><time>2026-04-22T16:10:58.593Z</time></trkpt><trkpt lat="43.4443983" lon="13.6026833"><ele>15.0</ele><time>2026-04-22T16:10:59.593Z</time></trkpt><trkpt lat="43.4444617" lon="13.6027483"><ele>15.0</ele><time>2026-04-22T16:11:00.594Z</time></trkpt><trkpt lat="43.4445383" lon="13.602795"><ele>15.0</ele><time>2026-04-22T16:11:01.593Z</time></trkpt><trkpt lat="43.4446217" lon="13.602845"><ele>15.0</ele><time>2026-04-22T16:11:02.593Z</time></trkpt><trkpt lat="43.4446933" lon="13.6029017"><ele>15.0</ele><time>2026-04-22T16:11:03.593Z</time></trkpt><trkpt lat="43.4447633" lon="13.6029633"><ele>15.0</ele><time>2026-04-22T16:11:04.593Z</time></trkpt><trkpt lat="43.4448267" lon="13.6030333"><ele>15.0</ele><time>2026-04-22T16:11:05.594Z</time></trkpt><trkpt lat="43.444885" lon="13.6031083"><ele>15.0</ele><time>2026-04-22T16:11:06.593Z</time></trkpt><trkpt lat="43.44494" lon="13.603195"><ele>14.8</ele><time>2026-04-22T16:11:07.594Z</time></trkpt><trkpt lat="43.445005" lon="13.603265"><ele>14.6</ele><time>2026-04-22T16:11:08.594Z</time></trkpt><trkpt lat="43.445055" lon="13.6033317"><ele>14.399999999999999</ele><time>2026-04-22T16:11:09.593Z</time></trkpt><trkpt lat="43.4451467" lon="13.6034317"><ele>14.2</ele><time>2026-04-22T16:11:11.593Z</time></trkpt><trkpt lat="43.4452583" lon="13.6034783"><ele>14.0</ele><time>2026-04-22T16:11:13.593Z</time></trkpt><trkpt lat="43.4453217" lon="13.60349"><ele>14.000000000000002</ele><time>2026-04-22T16:11:14.593Z</time></trkpt><trkpt lat="43.4454333" lon="13.6035567"><ele>14.0</ele><time>2026-04-22T16:11:16.593Z</time></trkpt><trkpt lat="43.4454767" lon="13.6036267"><ele>14.0</ele><time>2026-04-22T16:11:17.593Z</time></trkpt><trkpt lat="43.44551" lon="13.6037067"><ele>14.0</ele><time>2026-04-22T16:11:18.594Z</time></trkpt><trkpt lat="43.44554" lon="13.6037833"><ele>14.000000000000002</ele><time>2026-04-22T16:11:19.593Z</time></trkpt><trkpt lat="43.445555" lon="13.6038683"><ele>14.0</ele><time>2026-04-22T16:11:20.593Z</time></trkpt><trkpt lat="43.44555" lon="13.6040217"><ele>14.000000000000002</ele><time>2026-04-22T16:11:22.594Z</time></trkpt><trkpt lat="43.4454517" lon="13.6041367"><ele>14.0</ele><time>2026-04-22T16:11:24.593Z</time></trkpt><trkpt lat="43.44538" lon="13.604175"><ele>14.0</ele><time>2026-04-22T16:11:25.593Z</time></trkpt><trkpt lat="43.4453033" lon="13.6042133"><ele>14.0</ele><time>2026-04-22T16:11:26.593Z</time></trkpt><trkpt lat="43.4452267" lon="13.60425"><ele>14.000000000000002</ele><time>2026-04-22T16:11:27.593Z</time></trkpt><trkpt lat="43.445155" lon="13.6043"><ele>14.0</ele><time>2026-04-22T16:11:28.593Z</time></trkpt><trkpt lat="43.4450883" lon="13.6043483"><ele>14.000000000000002</ele><time>2026-04-22T16:11:29.593Z</time></trkpt><trkpt lat="43.445015" lon="13.604385"><ele>14.0</ele><time>2026-04-22T16:11:30.593Z</time></trkpt><trkpt lat="43.4449467" lon="13.6044317"><ele>14.0</ele><time>2026-04-22T16:11:31.594Z</time></trkpt><trkpt lat="43.4448783" lon="13.6044667"><ele>14.0</ele><time>2026-04-22T16:11:32.593Z</time></trkpt><trkpt lat="43.4448083" lon="13.6045033"><ele>14.000000000000002</ele><time>2026-04-22T16:11:33.593Z</time></trkpt><trkpt lat="43.444735" lon="13.6045367"><ele>14.0</ele><time>2026-04-22T16:11:34.593Z</time></trkpt><trkpt lat="43.4446667" lon="13.6045667"><ele>16.0</ele><time>2026-04-22T16:11:35.593Z</time></trkpt><trkpt lat="43.444605" lon="13.6046017"><ele>16.0</ele><time>2026-04-22T16:11:36.593Z</time></trkpt><trkpt lat="43.4444917" lon="13.6046217"><ele>16.0</ele><time>2026-04-22T16:11:38.593Z</time></trkpt><trkpt lat="43.4444367" lon="13.6045483"><ele>16.0</ele><time>2026-04-22T16:11:40.593Z</time></trkpt></trkseg></trk></gpx>